
Distance (Route):
Temperature : 0°C
Humidity : 0%
Pressure : 1004.6hPa| Receiver | Frames | First received | Last received |
|---|---|---|---|
| DF8AY | 915 | 2026-09-02 22:50:17 | 2026-09-03 01:46:26 |
| DL1XH-west | 900 | 2026-09-02 22:48:08 | 2026-09-03 01:35:20 |
| AA1-15 | 772 | 2026-09-02 22:53:46 | 2026-09-03 01:35:51 |
| DO2SHX-10 | 738 | 2026-09-02 23:00:14 | 2026-09-03 01:31:43 |
| DL1XH1-15 | 660 | 2026-09-02 22:48:39 | 2026-09-03 01:35:22 |
| DM0DOS-11 | 648 | 2026-09-02 22:47:33 | 2026-09-03 01:43:15 |
| DB0DAN | 539 | 2026-09-02 22:45:55 | 2026-09-03 01:44:55 |
| DL1XH-15 | 528 | 2026-09-02 22:49:32 | 2026-09-03 01:32:02 |
| HSKMA3-T | 453 | 2026-09-02 23:54:16 | 2026-09-03 01:24:23 |
| BIOWL1-15 | 338 | 2026-09-02 22:48:50 | 2026-09-03 01:11:53 |
| GOEST3-10 | 244 | 2026-09-02 23:02:23 | 2026-09-03 01:20:18 |
| DL1NUX | 218 | 2026-09-02 23:50:23 | 2026-09-03 01:15:42 |
| AM1SDL-15 | 142 | 2026-09-02 22:52:05 | 2026-09-03 01:49:05 |
| DD8BA-10 | 139 | 2026-09-02 22:53:01 | 2026-09-03 01:23:10 |
| DF8AY-15 | 108 | 2026-09-02 22:51:32 | 2026-09-03 01:44:57 |
| DF7ER-10 | 104 | 2026-09-02 23:07:05 | 2026-09-03 01:42:21 |
| DL4XJ-10 | 77 | 2026-09-02 23:04:49 | 2026-09-03 01:20:33 |
| SONDE2-11 | 72 | 2026-09-02 23:04:23 | 2026-09-03 01:47:24 |
| TFSTFS | 72 | 2026-09-02 23:13:36 | 2026-09-03 01:47:45 |
| EDDB2-12 | 65 | 2026-09-02 23:03:57 | 2026-09-03 01:46:55 |
| SONCRA | 63 | 2026-09-02 22:58:27 | 2026-09-03 01:40:32 |
| DO2JMG | 59 | 2026-09-02 23:31:20 | 2026-09-03 00:06:53 |
| DO3MHA-11 | 54 | 2026-09-02 23:51:48 | 2026-09-03 01:09:19 |
| DB0NH | 52 | 2026-09-02 23:06:04 | 2026-09-03 01:34:30 |
| S3001 | 47 | 2026-09-02 22:56:57 | 2026-09-03 01:38:56 |
| SMARD9-15 | 47 | 2026-09-02 22:57:23 | 2026-09-03 01:22:46 |
| DL4BBY-15 | 46 | 2026-09-02 22:52:16 | 2026-09-03 00:54:04 |
| EDDB2-11 | 42 | 2026-09-02 23:33:42 | 2026-09-03 01:42:01 |
| DL3AQ-11 | 41 | 2026-09-02 22:59:49 | 2026-09-03 00:26:42 |
| HTAHTA | 41 | 2026-09-02 23:12:16 | 2026-09-03 01:15:27 |
| SO1NDE-10 | 39 | 2026-09-02 23:51:27 | 2026-09-03 01:10:28 |
| BUE01 | 37 | 2026-09-02 23:02:17 | 2026-09-03 01:18:24 |
| DJ2DS-15 | 33 | 2026-09-02 22:52:06 | 2026-09-03 01:30:06 |
| DB0UT-7 | 25 | 2026-09-02 23:11:00 | 2026-09-03 01:24:56 |
| 13BRC | 24 | 2026-09-03 00:05:34 | 2026-09-03 01:13:57 |
| DJ8HS-15 | 23 | 2026-09-03 00:07:25 | 2026-09-03 00:54:36 |
| SMARD9-10 | 22 | 2026-09-02 22:47:54 | 2026-09-03 01:24:13 |
| SP3BTT-10 | 22 | 2026-09-02 23:41:36 | 2026-09-03 01:22:57 |
| BIOWL9-15 | 19 | 2026-09-02 22:50:56 | 2026-09-03 00:00:19 |
| DL1LOL-11 | 19 | 2026-09-02 22:52:15 | 2026-09-03 01:09:53 |
| DF7PN | 16 | 2026-09-02 23:27:50 | 2026-09-03 01:18:08 |
| DO9LL-15 | 14 | 2026-09-02 23:03:46 | 2026-09-03 01:07:11 |
| NBG1-10 | 14 | 2026-09-02 23:27:05 | 2026-09-03 01:28:04 |
| DL1CLM-18 | 13 | 2026-09-02 23:15:13 | 2026-09-03 01:27:35 |
| DL2RXE-15 | 13 | 2026-09-02 23:32:09 | 2026-09-03 01:31:32 |
| HARRO8 | 13 | 2026-09-02 23:41:07 | 2026-09-03 01:14:17 |
| AP2371 | 11 | 2026-09-02 22:57:38 | 2026-09-03 00:50:28 |
| MECKS9 | 10 | 2026-09-02 23:42:00 | 2026-09-03 01:06:42 |
| SP3WXH-11 | 10 | 2026-09-03 00:24:44 | 2026-09-03 01:03:37 |
| AU51GT2 | 8 | 2026-09-03 00:21:00 | 2026-09-03 00:57:44 |
| DL3OBA | 8 | 2026-09-03 00:42:18 | 2026-09-03 01:00:08 |
| DO2LYB-13 | 5 | 2026-09-02 22:56:22 | 2026-09-02 23:19:17 |
| DL8OAI-8 | 5 | 2026-09-02 22:56:50 | 2026-09-02 23:24:39 |
| DK9SH | 5 | 2026-09-03 00:55:26 | 2026-09-03 01:23:00 |
| OE5DRO-10 | 4 | 2026-09-03 00:33:10 | 2026-09-03 00:37:44 |
| OE5DXL-15 | 4 | 2026-09-03 00:48:07 | 2026-09-03 00:53:07 |
| DD1CC8 | 4 | 2026-09-03 01:05:46 | 2026-09-03 01:10:56 |
| DB0ND-19 | 3 | 2026-09-02 23:14:36 | 2026-09-02 23:59:36 |
| BIOWL7-15 | 2 | 2026-09-02 23:02:31 | 2026-09-02 23:03:33 |
| PG1ADW-2 | 2 | 2026-09-03 00:52:21 | 2026-09-03 00:54:38 |
| DK1YY | 1 | 2026-09-02 23:19:56 | 2026-09-02 23:19:56 |
| DJTTGO | 1 | 2026-09-03 00:47:11 | 2026-09-03 00:47:11 |
| DG6HD-11 | 1 | 2026-09-03 00:55:50 | 2026-09-03 00:55:50 |
| DH0BRO-15 | 1 | 2026-09-03 00:59:41 | 2026-09-03 00:59:41 |
| Receiver | Date | Latitude | Longitude | Direction | Speed | Altitude | Climb | Temperature | Humidity | Pressure | Voltage | Killtimer | Uptime | BKT | XDATA |
|---|---|---|---|---|---|---|---|---|---|---|---|---|---|---|---|
| AM1SDL-15 | 2026-09-03 01:49:05 | 52.18846 | 11.89412 | 52° | 16km/h | 157m | -6.7m/s | 0°C | 0% | 1004.6hPa | 2.7V | 00:00:00 | 03:51:24 | 00:00:00 | |
| AM1SDL-15 | 2026-09-03 01:49:03 | 52.18841 | 11.89403 | 51° | 15km/h | 169m | -6.2m/s | 0°C | 0% | 1003.1hPa | 2.7V | 01:58:00 | 03:51:22 | 00:00:00 | |
| AM1SDL-15 | 2026-09-03 01:49:01 | 52.18836 | 11.89395 | 45° | 15km/h | 181m | -6.1m/s | 0°C | 0% | 1001.8hPa | 2.7V | 00:00:00 | 03:51:20 | 00:00:00 | |
| AM1SDL-15 | 2026-09-03 01:48:59 | 52.18830 | 11.89386 | 46° | 15km/h | 193m | -5.6m/s | 0°C | 0% | 1000.5hPa | 2.7V | 01:58:00 | 03:51:18 | 00:00:00 | |
| AM1SDL-15 | 2026-09-03 01:48:57 | 52.18826 | 11.89376 | 60° | 15km/h | 203m | -6.1m/s | 0°C | 0% | 999.2hPa | 2.7V | 00:00:00 | 03:51:16 | 00:00:00 | |
| AM1SDL-15 | 2026-09-03 01:48:55 | 52.18822 | 11.89365 | 69° | 15km/h | 215m | -6.4m/s | 0°C | 0% | 997.6hPa | 2.7V | 01:58:00 | 03:51:14 | 00:00:00 | |
| AM1SDL-15 | 2026-09-03 01:48:53 | 52.18820 | 11.89354 | 78° | 13km/h | 227m | -6.0m/s | 0°C | 0% | 996.4hPa | 2.7V | 00:00:00 | 03:51:12 | 00:00:00 | |
| AM1SDL-15 | 2026-09-03 01:48:51 | 52.18819 | 11.89343 | 83° | 13km/h | 238m | -5.8m/s | 0°C | 0% | 994.8hPa | 2.7V | 01:58:00 | 03:51:10 | 00:00:00 | |
| AM1SDL-15 | 2026-09-03 01:48:49 | 52.18818 | 11.89331 | 79° | 15km/h | 249m | -6.4m/s | 0°C | 0% | 993.5hPa | 2.7V | 00:00:00 | 03:51:08 | 00:00:00 | |
| AM1SDL-15 | 2026-09-03 01:48:47 | 52.18816 | 11.89319 | 76° | 16km/h | 262m | -6.5m/s | 0°C | 0% | 992.1hPa | 2.7V | 01:58:00 | 03:51:06 | 00:00:00 | |
| AM1SDL-15 | 2026-09-03 01:48:45 | 52.18814 | 11.89305 | 80° | 18km/h | 273m | -5.9m/s | 0°C | 0% | 990.9hPa | 2.7V | 00:00:00 | 03:51:04 | 00:00:00 | |
| AM1SDL-15 | 2026-09-03 01:48:43 | 52.18813 | 11.89290 | 82° | 18km/h | 285m | -6.2m/s | 0°C | 0% | 989.3hPa | 2.7V | 01:58:00 | 03:51:02 | 00:00:00 | |
| AM1SDL-15 | 2026-09-03 01:48:41 | 52.18812 | 11.89274 | 86° | 20km/h | 297m | -6.2m/s | 0°C | 0% | 987.9hPa | 2.7V | 00:00:00 | 03:51:00 | 00:00:00 | |
| AM1SDL-15 | 2026-09-03 01:48:37 | 52.18811 | 11.89238 | 91° | 22km/h | 321m | -6.2m/s | 0°C | 0% | 985.4hPa | 2.7V | 01:58:00 | 03:50:56 | 00:00:00 | |
| AM1SDL-15 | 2026-09-03 01:48:35 | 52.18811 | 11.89221 | 98° | 20km/h | 333m | -5.8m/s | 0°C | 0% | 983.9hPa | 2.7V | 00:00:00 | 03:50:54 | 00:00:00 | |
| AM1SDL-15 | 2026-09-03 01:48:33 | 52.18814 | 11.89205 | 108° | 20km/h | 344m | -6.1m/s | 0°C | 0% | 982.7hPa | 2.7V | 01:58:00 | 03:50:52 | 00:00:00 | |
| AM1SDL-15 | 2026-09-03 01:48:31 | 52.18817 | 11.89190 | 112° | 20km/h | 356m | -6.1m/s | 0°C | 0% | 981.3hPa | 2.7V | 00:00:00 | 03:50:50 | 00:00:00 | |
| AM1SDL-15 | 2026-09-03 01:48:29 | 52.18821 | 11.89173 | 112° | 22km/h | 368m | -5.9m/s | 0°C | 0% | 979.9hPa | 2.7V | 01:58:00 | 03:50:48 | 00:00:00 | |
| AM1SDL-15 | 2026-09-03 01:48:27 | 52.18825 | 11.89155 | 111° | 24km/h | 380m | -5.9m/s | 0°C | 0% | 978.5hPa | 2.7V | 00:00:00 | 03:50:46 | 00:00:00 | |
| AM1SDL-15 | 2026-09-03 01:48:25 | 52.18829 | 11.89137 | 112° | 24km/h | 391m | -5.8m/s | 0°C | 0% | 977.1hPa | 2.7V | 01:58:00 | 03:50:44 | 00:00:00 | |
| AM1SDL-15 | 2026-09-03 01:48:23 | 52.18833 | 11.89118 | 111° | 26km/h | 403m | -6.1m/s | 0°C | 0% | 975.9hPa | 2.7V | 00:00:00 | 03:50:42 | 00:00:00 | |
| AM1SDL-15 | 2026-09-03 01:48:21 | 52.18838 | 11.89098 | 106° | 26km/h | 415m | -6.2m/s | 0°C | 0% | 974.5hPa | 2.7V | 01:59:00 | 03:50:40 | 00:00:00 | |
| AM1SDL-15 | 2026-09-03 01:48:19 | 52.18841 | 11.89077 | 104° | 27km/h | 427m | -6.1m/s | 0°C | 0% | 973.2hPa | 2.7V | 00:00:00 | 03:50:38 | 00:00:00 | |
| AM1SDL-15 | 2026-09-03 01:48:17 | 52.18845 | 11.89054 | 104° | 27km/h | 439m | -6.5m/s | 0°C | 0% | 971.9hPa | 2.7V | 01:59:00 | 03:50:36 | 00:00:00 | |
| AM1SDL-15 | 2026-09-03 01:48:15 | 52.18848 | 11.89032 | 107° | 29km/h | 451m | -6.3m/s | 0°C | 0% | 970.4hPa | 2.7V | 00:00:00 | 03:50:34 | 00:00:00 | |
| AM1SDL-15 | 2026-09-03 01:48:13 | 52.18853 | 11.89010 | 108° | 27km/h | 463m | -5.9m/s | 0°C | 0% | 969.0hPa | 2.7V | 01:59:00 | 03:50:32 | 00:00:00 | |
| AM1SDL-15 | 2026-09-03 01:48:11 | 52.18857 | 11.88989 | 112° | 26km/h | 475m | -6.1m/s | 0°C | 0% | 967.5hPa | 2.7V | 00:00:00 | 03:50:30 | 00:00:00 | |
| AM1SDL-15 | 2026-09-03 01:48:09 | 52.18862 | 11.88971 | 114° | 24km/h | 487m | -5.9m/s | 0°C | 0% | 966.2hPa | 2.7V | 01:59:00 | 03:50:28 | 00:00:00 | |
| AM1SDL-15 | 2026-09-03 01:48:07 | 52.18866 | 11.88954 | 110° | 22km/h | 499m | -6.2m/s | 0°C | 0% | 965.1hPa | 2.7V | 00:00:00 | 03:50:26 | 00:00:00 | |
| AM1SDL-15 | 2026-09-03 01:48:05 | 52.18869 | 11.88937 | 107° | 22km/h | 511m | -5.4m/s | 0°C | 0% | 963.8hPa | 2.7V | 01:59:00 | 03:50:24 | 00:00:00 | |
| AM1SDL-15 | 2026-09-03 01:48:03 | 52.18873 | 11.88920 | 106° | 20km/h | 522m | -5.6m/s | 0°C | 0% | 962.4hPa | 2.7V | 00:00:00 | 03:50:22 | 00:00:00 | |
| AM1SDL-15 | 2026-09-03 01:48:01 | 52.18876 | 11.88904 | 109° | 22km/h | 533m | -5.8m/s | 0°C | 0% | 961.0hPa | 2.7V | 01:59:00 | 03:50:20 | 00:00:00 | |
| AM1SDL-15 | 2026-09-03 01:47:59 | 52.18880 | 11.88887 | 112° | 22km/h | 546m | -6.0m/s | 0°C | 0% | 959.9hPa | 2.7V | 00:00:00 | 03:50:18 | 00:00:00 | |
| AM1SDL-15 | 2026-09-03 01:47:57 | 52.18884 | 11.88870 | 113° | 24km/h | 557m | -5.8m/s | 0°C | 0% | 958.4hPa | 2.7V | 01:59:00 | 03:50:16 | 00:00:00 | |
| AM1SDL-15 | 2026-09-03 01:47:50 | 52.18905 | 11.88802 | 119° | 26km/h | 595m | -5.7m/s | 0°C | 0% | 954.0hPa | 2.7V | 01:59:00 | 03:50:09 | 00:00:00 | |
| AM1SDL-15 | 2026-09-03 01:47:48 | 52.18911 | 11.88783 | 115° | 26km/h | 606m | -6.1m/s | 0°C | 0% | 952.8hPa | 2.7V | 00:00:00 | 03:50:07 | 00:00:00 | |
| AM1SDL-15 | 2026-09-03 01:47:46 | 52.18916 | 11.88763 | 112° | 26km/h | 617m | -5.4m/s | 0°C | 0% | 951.6hPa | 2.7V | 01:59:00 | 03:50:05 | 00:00:00 | |
| TFSTFS | 2026-09-03 01:47:45 | 52.18916 | 11.88763 | 113° | 26km/h | 617m | -5.5m/s | 0°C | 0% | 951.6hPa | 2.7V | 02:00:00 | 00:00:00 | 00:00:00 | |
| AM1SDL-15 | 2026-09-03 01:47:44 | 52.18920 | 11.88745 | 111° | 24km/h | 628m | -5.9m/s | 0°C | 0% | 950.3hPa | 2.7V | 00:00:00 | 03:50:03 | 00:00:00 | |
| AM1SDL-15 | 2026-09-03 01:47:42 | 52.18924 | 11.88727 | 107° | 22km/h | 640m | -6.3m/s | 0°C | 0% | 949.1hPa | 2.7V | 01:59:00 | 03:50:01 | 00:00:00 | |
| AM1SDL-15 | 2026-09-03 01:47:40 | 52.18927 | 11.88709 | 107° | 22km/h | 651m | -5.9m/s | 0°C | 0% | 947.6hPa | 2.7V | 00:00:00 | 03:49:59 | 00:00:00 | |
| AM1SDL-15 | 2026-09-03 01:47:38 | 52.18930 | 11.88690 | 106° | 24km/h | 663m | -5.7m/s | 0°C | 0% | 946.5hPa | 2.6V | 01:59:00 | 03:49:57 | 00:00:00 | |
| AM1SDL-15 | 2026-09-03 01:47:36 | 52.18934 | 11.88671 | 111° | 26km/h | 673m | -4.9m/s | 0°C | 0% | 945.2hPa | 2.6V | 00:00:00 | 03:49:55 | 00:00:00 | |
| AM1SDL-15 | 2026-09-03 01:47:34 | 52.18939 | 11.88651 | 112° | 29km/h | 683m | -5.5m/s | 0°C | 0% | 944.3hPa | 2.6V | 01:59:00 | 03:49:53 | 00:00:00 | |
| AM1SDL-15 | 2026-09-03 01:47:32 | 52.18944 | 11.88627 | 109° | 29km/h | 694m | -5.3m/s | 0°C | 0% | 942.8hPa | 2.7V | 00:00:00 | 03:49:51 | 00:00:00 | |
| AM1SDL-15 | 2026-09-03 01:47:28 | 52.18953 | 11.88581 | 108° | 26km/h | 715m | -5.4m/s | 0°C | 0% | 940.5hPa | 2.7V | 01:59:00 | 03:49:47 | 00:00:00 | |
| SONDE2-11 | 2026-09-03 01:47:24 | 52.18960 | 11.88542 | 106° | 22km/h | 736m | -5.4m/s | 0°C | -1.0% | 938.2hPa | 2.7V | 00:00:00 | 00:00:00 | 00:00:00 | |
| TFSTFS | 2026-09-03 01:47:20 | 52.18965 | 11.88514 | 104° | 26km/h | 752m | -5.8m/s | 0°C | 0% | 936.4hPa | 2.7V | 02:00:00 | 00:00:00 | 00:00:00 | |
| AM1SDL-15 | 2026-09-03 01:47:16 | 52.18972 | 11.88457 | 104° | 29km/h | 778m | -5.3m/s | 0°C | 0% | 933.7hPa | 2.7V | 02:00:00 | 03:49:35 | 00:00:00 | |
| AM1SDL-15 | 2026-09-03 01:47:04 | 52.18995 | 11.88315 | 106° | 31km/h | 842m | -5.7m/s | 0°C | 0% | 926.7hPa | 2.7V | 00:00:00 | 03:49:23 | 00:00:00 | |
| TFSTFS | 2026-09-03 01:47:03 | 52.18995 | 11.88315 | 107° | 29km/h | 842m | -5.7m/s | 0°C | 0% | 926.7hPa | 2.7V | 02:01:00 | 00:00:00 | 00:00:00 | |
| EDDB2-12 | 2026-09-03 01:46:55 | 52.19016 | 11.88194 | 112° | 29km/h | 893m | -6.2m/s | 0°C | -1.0% | 920.7hPa | 2.7V | 00:00:00 | 00:00:00 | 00:00:00 | |
| SONDE2-11 | 2026-09-03 01:46:53 | 52.19019 | 11.88183 | 111° | 29km/h | 899m | -6.0m/s | 0°C | -1.0% | 920.3hPa | 2.7V | 00:00:00 | 00:00:00 | 00:00:00 | |
| AM1SDL-15 | 2026-09-03 01:46:52 | 52.19022 | 11.88172 | 112° | 31km/h | 905m | -5.8m/s | 0°C | 0% | 919.7hPa | 2.7V | 00:00:00 | 03:49:11 | 00:00:00 | |
| DF8AY | 2026-09-03 01:46:26 | 52.19076 | 11.87839 | 102° | 31km/h | 1047m | -6.1m/s | -251.5°C | 0% | 904.4hPa | 2.7V | 02:01:04 | 03:48:45 | 00:00:00 | |
| DF8AY | 2026-09-03 01:46:24 | 52.19079 | 11.87813 | 98° | 31km/h | 1058m | -5.7m/s | -251.5°C | 0% | 903.2hPa | 2.7V | 02:01:04 | 03:48:43 | 00:00:00 | |
| DF8AY | 2026-09-03 01:46:22 | 52.19081 | 11.87787 | 97° | 31km/h | 1068m | -5.8m/s | -251.5°C | 0% | 901.8hPa | 2.7V | 02:01:04 | 03:48:41 | 00:00:00 | |
| DF8AY | 2026-09-03 01:46:21 | 52.19082 | 11.87774 | 98° | 31km/h | 1074m | -5.7m/s | -251.5°C | 0% | 901.4hPa | 2.7V | 02:01:04 | 03:48:40 | 00:00:00 | |
| DF8AY | 2026-09-03 01:46:20 | 52.19083 | 11.87761 | 98° | 31km/h | 1079m | -5.8m/s | -251.5°C | 0% | 900.8hPa | 2.7V | 02:01:04 | 03:48:39 | 00:00:00 | |
| DF8AY | 2026-09-03 01:46:17 | 52.19086 | 11.87723 | 97° | 33km/h | 1095m | -5.2m/s | -251.5°C | 0% | 899hPa | 2.7V | 02:01:55 | 03:48:36 | 00:00:00 | |
| DF8AY | 2026-09-03 01:46:16 | 52.19089 | 11.87696 | 98° | 33km/h | 1106m | -5.7m/s | -251.5°C | 0% | 897.7hPa | 2.7V | 02:01:55 | 03:48:34 | 00:00:00 | |
| DF8AY | 2026-09-03 01:46:15 | 52.19090 | 11.87682 | 97° | 33km/h | 1111m | -5.2m/s | -251.5°C | 0% | 897.3hPa | 2.7V | 02:01:55 | 03:48:33 | 00:00:00 | |
| DF8AY | 2026-09-03 01:46:12 | 52.19092 | 11.87655 | 97° | 33km/h | 1122m | -6m/s | -251.5°C | 0% | 896hPa | 2.7V | 02:01:55 | 03:48:31 | 00:00:00 | |
| DF8AY | 2026-09-03 01:46:12 | 52.19093 | 11.87641 | 97° | 35km/h | 1128m | -6.1m/s | -251.5°C | 0% | 895.4hPa | 2.6V | 02:01:55 | 03:48:30 | 00:00:00 | |
| DF8AY | 2026-09-03 01:46:09 | 52.19095 | 11.87614 | 95° | 35km/h | 1140m | -5.8m/s | -251.5°C | 0% | 894.3hPa | 2.7V | 02:01:55 | 03:48:28 | 00:00:00 | |
| DF8AY | 2026-09-03 01:46:08 | 52.19095 | 11.87600 | 96° | 33km/h | 1145m | -5.4m/s | -251.5°C | 0% | 893.7hPa | 2.7V | 02:01:55 | 03:48:27 | 00:00:00 | |
| DF8AY | 2026-09-03 01:46:07 | 52.19096 | 11.87586 | 96° | 33km/h | 1150m | -5.3m/s | -251.5°C | 0% | 893.1hPa | 2.7V | 02:01:55 | 03:48:26 | 00:00:00 | |
| DF8AY | 2026-09-03 01:46:05 | 52.19098 | 11.87560 | 94° | 31km/h | 1161m | -5.7m/s | -251.5°C | 0% | 891.8hPa | 2.7V | 02:01:55 | 03:48:24 | 00:00:00 | |
| DF8AY | 2026-09-03 01:46:04 | 52.19099 | 11.87485 | 90° | 29km/h | 1194m | -5.6m/s | -251.5°C | 0% | 888.4hPa | 2.6V | 02:01:55 | 03:48:18 | 00:00:00 | |
| DF8AY | 2026-09-03 01:46:03 | 52.19099 | 11.87472 | 90° | 31km/h | 1199m | -5.8m/s | -251.5°C | 0% | 887.8hPa | 2.7V | 02:01:55 | 03:48:17 | 00:00:00 | |
| DF8AY | 2026-09-03 01:45:56 | 52.19099 | 11.87448 | 89° | 29km/h | 1210m | -5.6m/s | -251.5°C | 0% | 886.7hPa | 2.7V | 02:01:55 | 03:48:15 | 00:00:00 | |
| DF8AY | 2026-09-03 01:45:56 | 52.19099 | 11.87436 | 88° | 29km/h | 1215m | -5.6m/s | -251.5°C | 0% | 886.1hPa | 2.7V | 02:01:55 | 03:48:14 | 00:00:00 | |
| DF8AY | 2026-09-03 01:45:54 | 52.19098 | 11.87424 | 88° | 29km/h | 1220m | -5.7m/s | -251.5°C | 0% | 885.4hPa | 2.7V | 02:01:55 | 03:48:13 | 00:00:00 | |
| DF8AY | 2026-09-03 01:45:52 | 52.19098 | 11.87399 | 87° | 29km/h | 1231m | -5.3m/s | -251.5°C | 0% | 884.4hPa | 2.7V | 02:01:55 | 03:48:11 | 00:00:00 | |
| DF8AY | 2026-09-03 01:45:51 | 52.19097 | 11.87388 | 86° | 29km/h | 1236m | -5.5m/s | -251.5°C | 0% | 883.9hPa | 2.7V | 02:01:55 | 03:48:10 | 00:00:00 | |
| DF8AY | 2026-09-03 01:45:49 | 52.19096 | 11.87364 | 86° | 29km/h | 1246m | -5.7m/s | -251.5°C | 0% | 882.8hPa | 2.7V | 02:01:55 | 03:48:08 | 00:00:00 | |
| DF8AY | 2026-09-03 01:45:47 | 52.19095 | 11.87341 | 84° | 29km/h | 1257m | -5.9m/s | -251.5°C | 0% | 881.6hPa | 2.6V | 02:01:55 | 03:48:06 | 00:00:00 | |
| DF8AY | 2026-09-03 01:45:45 | 52.19094 | 11.87316 | 85° | 29km/h | 1269m | -5.4m/s | -251.5°C | 0% | 880.5hPa | 2.7V | 02:01:55 | 03:48:04 | 00:00:00 | |
| DF8AY | 2026-09-03 01:45:44 | 52.19093 | 11.87303 | 84° | 31km/h | 1274m | -5.5m/s | -251.5°C | 0% | 880.2hPa | 2.7V | 02:01:55 | 03:48:03 | 00:00:00 | |
| DF8AY | 2026-09-03 01:45:42 | 52.19091 | 11.87278 | 85° | 31km/h | 1285m | -5.5m/s | -251.5°C | 0% | 878.9hPa | 2.7V | 02:01:55 | 03:48:01 | 00:00:00 | |
| DF8AY | 2026-09-03 01:45:41 | 52.19086 | 11.87200 | 81° | 33km/h | 1318m | -5.7m/s | -251.5°C | 0% | 875.5hPa | 2.7V | 02:01:55 | 03:47:55 | 00:00:00 | |
| DF8AY | 2026-09-03 01:45:40 | 52.19085 | 11.87187 | 81° | 33km/h | 1324m | -5.9m/s | -251.5°C | 0% | 874.7hPa | 2.7V | 02:01:55 | 03:47:54 | 00:00:00 | |
| DF8AY | 2026-09-03 01:45:33 | 52.19082 | 11.87161 | 80° | 31km/h | 1334m | -5.6m/s | -251.5°C | 0% | 873.6hPa | 2.7V | 02:01:55 | 03:47:52 | 00:00:00 | |
| DF8AY | 2026-09-03 01:45:32 | 52.19081 | 11.87149 | 79° | 31km/h | 1340m | -5m/s | -251.5°C | 0% | 873.1hPa | 2.7V | 02:01:55 | 03:47:51 | 00:00:00 | |
| DF8AY | 2026-09-03 01:45:30 | 52.19077 | 11.87124 | 78° | 31km/h | 1350m | -5.6m/s | -251.5°C | 0% | 872hPa | 2.6V | 02:01:55 | 03:47:49 | 00:00:00 | |
| DF8AY | 2026-09-03 01:45:28 | 52.19074 | 11.87098 | 80° | 31km/h | 1361m | -5.7m/s | -251.5°C | 0% | 870.7hPa | 2.7V | 02:02:46 | 03:47:47 | 00:00:00 | |
| DF8AY | 2026-09-03 01:45:27 | 52.19073 | 11.87085 | 81° | 33km/h | 1366m | -5.8m/s | -251.5°C | 0% | 870.5hPa | 2.7V | 02:02:46 | 03:47:46 | 00:00:00 | |
| DF8AY | 2026-09-03 01:45:25 | 52.19071 | 11.87058 | 84° | 33km/h | 1377m | -5.8m/s | -251.5°C | 0% | 869.3hPa | 2.7V | 02:02:46 | 03:47:44 | 00:00:00 | |
| DF8AY | 2026-09-03 01:45:24 | 52.19070 | 11.87045 | 82° | 33km/h | 1383m | -5.5m/s | -251.5°C | 0% | 868.6hPa | 2.7V | 02:02:46 | 03:47:43 | 00:00:00 | |
| DF8AY | 2026-09-03 01:45:22 | 52.19067 | 11.87019 | 82° | 31km/h | 1394m | -5.6m/s | -251.5°C | 0% | 867.4hPa | 2.6V | 02:02:46 | 03:47:41 | 00:00:00 | |
| DF8AY | 2026-09-03 01:45:22 | 52.19066 | 11.87006 | 82° | 31km/h | 1399m | -5.9m/s | -251.5°C | 0% | 867hPa | 2.7V | 02:02:46 | 03:47:40 | 00:00:00 | |
| DF8AY | 2026-09-03 01:45:19 | 52.19064 | 11.86981 | 78° | 31km/h | 1410m | -5.6m/s | -251.5°C | 0% | 865.9hPa | 2.7V | 02:02:46 | 03:47:38 | 00:00:00 | |
| DF8AY | 2026-09-03 01:45:18 | 52.19062 | 11.86968 | 75° | 31km/h | 1416m | -5.3m/s | -251.5°C | 0% | 865.1hPa | 2.7V | 02:02:46 | 03:47:37 | 00:00:00 | |
| DF8AY | 2026-09-03 01:45:17 | 52.19060 | 11.86956 | 74° | 31km/h | 1421m | -5.5m/s | -251.5°C | 0% | 864.7hPa | 2.7V | 02:02:46 | 03:47:36 | 00:00:00 | |
| DF8AY | 2026-09-03 01:45:16 | 52.19055 | 11.86931 | 74° | 31km/h | 1432m | -5.4m/s | -251.5°C | 0% | 863.5hPa | 2.7V | 02:02:46 | 03:47:34 | 00:00:00 | |
| DF8AY | 2026-09-03 01:45:15 | 52.19053 | 11.86919 | 73° | 31km/h | 1437m | -5.4m/s | -251.5°C | 0% | 863hPa | 2.7V | 02:02:46 | 03:47:33 | 00:00:00 | |
| DF8AY | 2026-09-03 01:45:12 | 52.19049 | 11.86894 | 74° | 31km/h | 1447m | -5.2m/s | -251.5°C | 0% | 861.9hPa | 2.7V | 02:02:46 | 03:47:31 | 00:00:00 | |
| DF8AY | 2026-09-03 01:45:10 | 52.19044 | 11.86869 | 75° | 31km/h | 1458m | -5.6m/s | -251.5°C | 0% | 860.7hPa | 2.6V | 02:02:46 | 03:47:29 | 00:00:00 | |
| DF8AY | 2026-09-03 01:45:08 | 52.19041 | 11.86845 | 77° | 29km/h | 1468m | -5.5m/s | -251.5°C | 0% | 859.5hPa | 2.7V | 02:02:46 | 03:47:27 | 00:00:00 | |
| DF8AY | 2026-09-03 01:45:06 | 52.19038 | 11.86822 | 78° | 29km/h | 1479m | -5.6m/s | -251.5°C | 0% | 858.4hPa | 2.7V | 02:02:46 | 03:47:25 | 00:00:00 | |
| DF8AY | 2026-09-03 01:45:05 | 52.19036 | 11.86810 | 79° | 29km/h | 1484m | -5.5m/s | -251.5°C | 0% | 858hPa | 2.7V | 02:02:46 | 03:47:24 | 00:00:00 | |
| DF8AY | 2026-09-03 01:45:03 | 52.19033 | 11.86785 | 76° | 29km/h | 1495m | -5.4m/s | -251.5°C | 0% | 857.1hPa | 2.7V | 02:02:46 | 03:47:22 | 00:00:00 | |
| DF8AY | 2026-09-03 01:45:02 | 52.19031 | 11.86774 | 76° | 29km/h | 1500m | -5.4m/s | -251.5°C | 0% | 856.3hPa | 2.7V | 02:02:46 | 03:47:21 | 00:00:00 | |
| DF8AY | 2026-09-03 01:45:01 | 52.19029 | 11.86762 | 76° | 29km/h | 1505m | -5.4m/s | -251.5°C | 0% | 855.8hPa | 2.7V | 02:02:46 | 03:47:20 | 00:00:00 | |
| DF8AY | 2026-09-03 01:44:59 | 52.19023 | 11.86726 | 74° | 31km/h | 1521m | -5.6m/s | -251.5°C | 0% | 854.2hPa | 2.6V | 02:02:46 | 03:47:17 | 00:00:00 | |
| DF8AY | 2026-09-03 01:44:59 | 52.19021 | 11.86713 | 75° | 33km/h | 1526m | -5.6m/s | -251.5°C | 0% | 853.8hPa | 2.7V | 02:02:46 | 03:47:16 | 00:00:00 | |
| DF8AY | 2026-09-03 01:44:57 | 52.19019 | 11.86700 | 74° | 33km/h | 1532m | -5.9m/s | -251.5°C | 0% | 853hPa | 2.7V | 02:02:46 | 03:47:15 | 00:00:00 | |
| DF8AY-15 | 2026-09-03 01:44:57 | 52.19021 | 11.86713 | 75° | 33km/h | 1526m | -5.5m/s | 0°C | 0% | 853.7hPa | 2.7V | 02:02:00 | 03:47:16 | 00:00:00 | |
| DB0DAN | 2026-09-03 01:44:55 | 52.19016 | 11.86687 | 73° | 31km/h | 1537m | -5.8m/s | -251.5°C | 0% | 852.8hPa | 2.7V | 00:00:00 | 00:00:00 | 00:00:00 | |
| DF8AY | 2026-09-03 01:44:54 | 52.19014 | 11.86674 | 74° | 33km/h | 1543m | -5.8m/s | -251.5°C | 0% | 852hPa | 2.7V | 02:02:46 | 03:47:13 | 00:00:00 | |
| DF8AY | 2026-09-03 01:44:52 | 52.19009 | 11.86649 | 72° | 31km/h | 1554m | -5.4m/s | -251.5°C | 0% | 850.9hPa | 2.6V | 02:02:46 | 03:47:11 | 00:00:00 | |
| DF8AY | 2026-09-03 01:44:51 | 52.19007 | 11.86637 | 73° | 31km/h | 1559m | -5.2m/s | -251.5°C | 0% | 850.4hPa | 2.7V | 02:02:46 | 03:47:10 | 00:00:00 | |
| DF8AY | 2026-09-03 01:44:50 | 52.19005 | 11.86624 | 73° | 31km/h | 1564m | -5.3m/s | -251.5°C | 0% | 849.9hPa | 2.7V | 02:02:46 | 03:47:09 | 00:00:00 | |
| DF8AY | 2026-09-03 01:44:48 | 52.19000 | 11.86599 | 75° | 33km/h | 1573m | -5.6m/s | -251.5°C | 0% | 848.7hPa | 2.7V | 02:02:46 | 03:47:07 | 00:00:00 | |
| DF8AY | 2026-09-03 01:44:47 | 52.18998 | 11.86586 | 76° | 33km/h | 1579m | -5.3m/s | -251.5°C | 0% | 848.3hPa | 2.7V | 02:02:46 | 03:47:06 | 00:00:00 | |
| DF8AY | 2026-09-03 01:44:45 | 52.18994 | 11.86560 | 76° | 31km/h | 1588m | -5.5m/s | -251.5°C | 0% | 847.3hPa | 2.7V | 02:02:46 | 03:47:04 | 00:00:00 | |
| DF8AY | 2026-09-03 01:44:43 | 52.18990 | 11.86535 | 76° | 31km/h | 1600m | -5.7m/s | -251.5°C | 0% | 846hPa | 2.6V | 02:02:46 | 03:47:02 | 00:00:00 | |
| DF8AY | 2026-09-03 01:44:41 | 52.18986 | 11.86510 | 75° | 31km/h | 1610m | -5.5m/s | -251.5°C | 0% | 845hPa | 2.7V | 02:02:46 | 03:47:00 | 00:00:00 | |
| DF8AY | 2026-09-03 01:44:39 | 52.18982 | 11.86486 | 74° | 31km/h | 1621m | -5.2m/s | -251.5°C | 0% | 844hPa | 2.7V | 02:02:46 | 03:46:58 | 00:00:00 | |
| DF8AY | 2026-09-03 01:44:37 | 52.18977 | 11.86461 | 73° | 31km/h | 1631m | -5.3m/s | -251.5°C | 0% | 842.9hPa | 2.7V | 02:03:37 | 03:46:56 | 00:00:00 | |
| DF8AY | 2026-09-03 01:44:35 | 52.18972 | 11.86435 | 73° | 33km/h | 1641m | -5.3m/s | -251.5°C | 0% | 841.8hPa | 2.7V | 02:03:37 | 03:46:54 | 00:00:00 | |
| DF8AY | 2026-09-03 01:44:33 | 52.18965 | 11.86397 | 73° | 33km/h | 1657m | -5.5m/s | -251.5°C | 0% | 840.4hPa | 2.6V | 02:03:37 | 03:46:51 | 00:00:00 | |
| DF8AY | 2026-09-03 01:44:33 | 52.18962 | 11.86384 | 73° | 31km/h | 1662m | -5.4m/s | -251.5°C | 0% | 839.7hPa | 2.6V | 02:03:37 | 03:46:50 | 00:00:00 | |
| DF8AY | 2026-09-03 01:44:30 | 52.18960 | 11.86372 | 75° | 31km/h | 1667m | -5.5m/s | -251.5°C | 0% | 839.2hPa | 2.7V | 02:03:37 | 03:46:49 | 00:00:00 | |
| DF8AY | 2026-09-03 01:44:28 | 52.18956 | 11.86348 | 74° | 31km/h | 1677m | -4.8m/s | -251.5°C | 0% | 838.1hPa | 2.7V | 02:03:37 | 03:46:47 | 00:00:00 | |
| DF8AY | 2026-09-03 01:44:26 | 52.18951 | 11.86323 | 74° | 31km/h | 1688m | -6m/s | -251.5°C | 0% | 837.1hPa | 2.7V | 02:03:37 | 03:46:45 | 00:00:00 | |
| DF8AY | 2026-09-03 01:44:24 | 52.18947 | 11.86297 | 74° | 33km/h | 1699m | -5.4m/s | -251.5°C | 0% | 836hPa | 2.7V | 02:03:37 | 03:46:43 | 00:00:00 | |
| DF8AY | 2026-09-03 01:44:22 | 52.18942 | 11.86272 | 73° | 31km/h | 1709m | -5.2m/s | -251.5°C | 0% | 835hPa | 2.7V | 02:03:37 | 03:46:41 | 00:00:00 | |
| DF8AY | 2026-09-03 01:44:20 | 52.18937 | 11.86247 | 71° | 31km/h | 1719m | -5.5m/s | -251.5°C | 0% | 834hPa | 2.7V | 02:03:37 | 03:46:39 | 00:00:00 | |
| DF8AY | 2026-09-03 01:44:18 | 52.18932 | 11.86223 | 70° | 29km/h | 1730m | -5.1m/s | -251.5°C | 0% | 833hPa | 2.7V | 02:03:37 | 03:46:37 | 00:00:00 | |
| DF8AY | 2026-09-03 01:44:17 | 52.18929 | 11.86212 | 70° | 29km/h | 1735m | -5.3m/s | -251.5°C | 0% | 832.2hPa | 2.7V | 02:03:37 | 03:46:36 | 00:00:00 | |
| DF8AY | 2026-09-03 01:44:15 | 52.18924 | 11.86189 | 71° | 29km/h | 1746m | -5.3m/s | -251.5°C | 0% | 831.2hPa | 2.6V | 02:03:37 | 03:46:34 | 00:00:00 | |
| DF8AY | 2026-09-03 01:44:14 | 52.18922 | 11.86178 | 74° | 29km/h | 1750m | -5.5m/s | -251.5°C | 0% | 830.9hPa | 2.7V | 02:03:37 | 03:46:33 | 00:00:00 | |
| DF8AY | 2026-09-03 01:44:12 | 52.18918 | 11.86155 | 76° | 27km/h | 1761m | -5.7m/s | -251.5°C | 0% | 829.6hPa | 2.7V | 02:03:37 | 03:46:31 | 00:00:00 | |
| DF8AY | 2026-09-03 01:44:10 | 52.18915 | 11.86134 | 78° | 27km/h | 1773m | -6m/s | -251.5°C | 0% | 828.5hPa | 2.7V | 02:03:37 | 03:46:29 | 00:00:00 | |
| DF8AY | 2026-09-03 01:44:08 | 52.18912 | 11.86112 | 79° | 27km/h | 1784m | -6.7m/s | -251.5°C | 0% | 827.5hPa | 2.7V | 02:03:37 | 03:46:27 | 00:00:00 | |
| DF8AY | 2026-09-03 01:44:07 | 52.18911 | 11.86101 | 79° | 27km/h | 1791m | -5.5m/s | -251.5°C | 0% | 826.7hPa | 2.7V | 02:03:37 | 03:46:26 | 00:00:00 | |
| DF8AY | 2026-09-03 01:44:06 | 52.18909 | 11.86089 | 80° | 29km/h | 1796m | -6m/s | -251.5°C | 0% | 826.2hPa | 2.6V | 02:03:37 | 03:46:25 | 00:00:00 | |
| DF8AY | 2026-09-03 01:44:04 | 52.18907 | 11.86065 | 81° | 29km/h | 1807m | -5.8m/s | -251.5°C | 0% | 825hPa | 2.7V | 02:03:37 | 03:46:23 | 00:00:00 | |
| DF8AY | 2026-09-03 01:44:02 | 52.18904 | 11.86042 | 79° | 27km/h | 1820m | -5.6m/s | -251.5°C | 0% | 823.8hPa | 2.7V | 02:03:37 | 03:46:21 | 00:00:00 | |
| DF8AY | 2026-09-03 01:44:01 | 52.18903 | 11.86031 | 81° | 27km/h | 1826m | -6.2m/s | -251.5°C | 0% | 823.1hPa | 2.7V | 02:03:37 | 03:46:20 | 00:00:00 | |
| DF8AY | 2026-09-03 01:43:59 | 52.18901 | 11.86008 | 82° | 29km/h | 1838m | -6.6m/s | -251.5°C | 0% | 822hPa | 2.7V | 02:03:37 | 03:46:18 | 00:00:00 | |
| DF8AY | 2026-09-03 01:43:58 | 52.18900 | 11.85996 | 83° | 31km/h | 1845m | -6m/s | -251.5°C | 0% | 821.2hPa | 2.7V | 02:03:37 | 03:46:17 | 00:00:00 | |
| DF8AY | 2026-09-03 01:43:56 | 52.18893 | 11.85920 | 78° | 33km/h | 1881m | -6.1m/s | -251.5°C | 0% | 817.8hPa | 2.7V | 02:03:37 | 03:46:11 | 00:00:00 | |
| DF8AY | 2026-09-03 01:43:56 | 52.18891 | 11.85907 | 77° | 31km/h | 1886m | -6.3m/s | -251.5°C | 0% | 817.1hPa | 2.7V | 02:03:37 | 03:46:10 | 00:00:00 | |
| DF8AY | 2026-09-03 01:43:49 | 52.18887 | 11.85882 | 78° | 31km/h | 1898m | -6.2m/s | -251.5°C | 0% | 816hPa | 2.7V | 02:03:37 | 03:46:08 | 00:00:00 | |
| DF8AY | 2026-09-03 01:43:47 | 52.18884 | 11.85857 | 78° | 31km/h | 1910m | -5.9m/s | -251.5°C | 0% | 814.6hPa | 2.7V | 02:03:37 | 03:46:06 | 00:00:00 | |
| DF8AY | 2026-09-03 01:43:46 | 52.18882 | 11.85844 | 79° | 31km/h | 1915m | -6.4m/s | -251.5°C | 0% | 814hPa | 2.6V | 02:04:28 | 03:46:05 | 00:00:00 | |
| DF8AY | 2026-09-03 01:43:44 | 52.18879 | 11.85818 | 81° | 33km/h | 1928m | -6.5m/s | -251.5°C | 0% | 812.8hPa | 2.7V | 02:04:28 | 03:46:03 | 00:00:00 | |
| DF8AY | 2026-09-03 01:43:42 | 52.18876 | 11.85791 | 81° | 35km/h | 1941m | -6.5m/s | -251.5°C | 0% | 811.7hPa | 2.7V | 02:04:28 | 03:46:01 | 00:00:00 | |
| DF8AY | 2026-09-03 01:43:40 | 52.18874 | 11.85763 | 83° | 37km/h | 1954m | -7.7m/s | -251.5°C | 0% | 810.4hPa | 2.7V | 02:04:28 | 03:45:59 | 00:00:00 | |
| DF8AY | 2026-09-03 01:43:38 | 52.18871 | 11.85734 | 80° | 37km/h | 1968m | -6.9m/s | -251.5°C | 0% | 809hPa | 2.7V | 02:04:28 | 03:45:57 | 00:00:00 | |
| DF8AY | 2026-09-03 01:43:37 | 52.18869 | 11.85719 | 79° | 37km/h | 1975m | -7.2m/s | -251.5°C | 0% | 808.5hPa | 2.7V | 02:04:28 | 03:45:56 | 00:00:00 | |
| DF8AY | 2026-09-03 01:43:36 | 52.18868 | 11.85704 | 78° | 37km/h | 1981m | -5.6m/s | -251.5°C | 0% | 807.8hPa | 2.7V | 02:04:28 | 03:45:55 | 00:00:00 | |
| DF8AY | 2026-09-03 01:43:35 | 52.18866 | 11.85690 | 79° | 37km/h | 1987m | -6.1m/s | -251.5°C | 0% | 807.2hPa | 2.7V | 02:04:28 | 03:45:54 | 00:00:00 | |
| DF8AY | 2026-09-03 01:43:33 | 52.18862 | 11.85660 | 82° | 38km/h | 1999m | -6.1m/s | -251.5°C | 0% | 806.1hPa | 2.7V | 02:04:28 | 03:45:52 | 00:00:00 | |
| DF8AY | 2026-09-03 01:43:28 | 52.18856 | 11.85581 | 85° | 40km/h | 2029m | -6.3m/s | -251.5°C | 0% | 802.9hPa | 2.7V | 02:04:28 | 03:45:47 | 00:00:00 | |
| DF8AY | 2026-09-03 01:43:17 | 52.18845 | 11.85405 | 85° | 38km/h | 2100m | -6.6m/s | -251.5°C | 0% | 796.1hPa | 2.7V | 02:04:28 | 03:45:36 | 00:00:00 | |
| SONDE2-11 | 2026-09-03 01:43:16 | 52.18844 | 11.85389 | 87° | 38km/h | 2106m | -6.9m/s | 0°C | -1.0% | 795.4hPa | 2.6V | 00:00:00 | 00:00:00 | 00:00:00 | |
| DM0DOS-11 | 2026-09-03 01:43:15 | 52.18840 | 11.85291 | 84° | 38km/h | 2148m | -6m/s | 0°C | 0% | 0hPa | 2.6V | 02:04:14 | 03:45:29 | 00:00:00 | |
| DF8AY | 2026-09-03 01:43:07 | 52.18838 | 11.85243 | 84° | 40km/h | 2166m | -5.6m/s | -251.5°C | 0% | 789.6hPa | 2.7V | 02:04:28 | 03:45:26 | 00:00:00 | |
| DF8AY | 2026-09-03 01:42:56 | 52.18830 | 11.85079 | 88° | 38km/h | 2230m | -6m/s | -251.4°C | 0% | 783.4hPa | 2.6V | 02:04:28 | 03:45:15 | 00:00:00 | |
| DM0DOS-11 | 2026-09-03 01:42:52 | 52.18831 | 11.84944 | 90° | 33km/h | 2275m | -4.9m/s | 0°C | 0% | 0hPa | 2.6V | 02:04:37 | 03:45:06 | 00:00:00 | |
| DF8AY-15 | 2026-09-03 01:42:51 | 52.18830 | 11.85001 | 92° | 33km/h | 2255m | -4.9m/s | 0°C | 0% | 781.0hPa | 2.7V | 00:00:00 | 03:45:10 | 00:00:00 | |
| DM0DOS-11 | 2026-09-03 01:42:47 | 52.18829 | 11.84876 | 83° | 33km/h | 2300m | -5.3m/s | 0°C | 0% | 0hPa | 2.7V | 02:04:42 | 03:45:01 | 00:00:00 | |
| DF8AY | 2026-09-03 01:42:46 | 52.18831 | 11.84930 | 90° | 33km/h | 2279m | -4.9m/s | -251.5°C | 0% | 778.4hPa | 2.7V | 02:05:19 | 03:45:05 | 00:00:00 | |
| SONDE2-11 | 2026-09-03 01:42:45 | 52.18831 | 11.84917 | 88° | 31km/h | 2284m | -5.3m/s | 0°C | -1.0% | 778.4hPa | 2.7V | 00:00:00 | 00:00:00 | 00:00:00 | |
| DM0DOS-11 | 2026-09-03 01:42:42 | 52.18823 | 11.84809 | 81° | 33km/h | 2325m | -5m/s | 0°C | 0% | 0hPa | 2.7V | 02:04:47 | 03:44:56 | 00:00:00 | |
| DF8AY | 2026-09-03 01:42:35 | 52.18821 | 11.84781 | 83° | 33km/h | 2334m | -4.9m/s | -251.4°C | 0% | 773.5hPa | 2.7V | 02:05:19 | 03:44:54 | 00:00:00 | |
| DF8AY | 2026-09-03 01:42:25 | 52.18820 | 11.84648 | 90° | 31km/h | 2384m | -5.4m/s | -251.4°C | 0% | 768.7hPa | 2.7V | 02:05:19 | 03:44:44 | 00:00:00 | |
| TFSTFS | 2026-09-03 01:42:24 | 52.18821 | 11.84648 | 91° | 31km/h | 2384m | -5.4m/s | 0°C | 0% | 768.7hPa | 2.7V | 02:05:00 | 00:00:00 | 00:00:00 | |
| DM0DOS-11 | 2026-09-03 01:42:22 | 52.18820 | 11.84533 | 83° | 29km/h | 2429m | -4.8m/s | 0°C | 0% | 0hPa | 2.7V | 02:05:08 | 03:44:35 | 00:00:00 | |
| DF7ER-10 | 2026-09-03 01:42:21 | 52.18821 | 11.84609 | 92° | 33km/h | 2398m | -4.9m/s | 0°C | 0% | 767.3hPa | 2.6V | 02:05:00 | 00:00:00 | 00:00:00 | |
| DM0DOS-11 | 2026-09-03 01:42:16 | 52.18813 | 11.84469 | 81° | 35km/h | 2453m | -5.6m/s | 0°C | 0% | 0hPa | 2.6V | 02:05:13 | 03:44:30 | 00:00:00 | |
| DF8AY | 2026-09-03 01:42:14 | 52.18818 | 11.84509 | 80° | 31km/h | 2439m | -5m/s | -251.4°C | 0% | 763.6hPa | 2.7V | 02:05:19 | 03:44:33 | 00:00:00 | |
| SONDE2-11 | 2026-09-03 01:42:14 | 52.18818 | 11.84509 | 80° | 31km/h | 2438m | -5.0m/s | 0°C | -1.0% | 763.6hPa | 2.7V | 00:00:00 | 00:00:00 | 00:00:00 | |
| DM0DOS-11 | 2026-09-03 01:42:11 | 52.18809 | 11.84399 | 88° | 35km/h | 2479m | -6m/s | 0°C | 0% | 0hPa | 2.7V | 02:05:18 | 03:44:25 | 00:00:00 | |
| DF8AY-15 | 2026-09-03 01:42:11 | 52.18813 | 11.84469 | 82° | 33km/h | 2453m | -5.6m/s | 0°C | 0% | 762.0hPa | 2.6V | 02:05:00 | 03:44:30 | 00:00:00 | |
| DF7ER-10 | 2026-09-03 01:42:10 | 52.18813 | 11.84469 | 83° | 35km/h | 2453m | -5.6m/s | 0°C | 0% | 762.0hPa | 2.7V | 02:05:00 | 00:00:00 | 00:00:00 | |
| DM0DOS-11 | 2026-09-03 01:42:05 | 52.18808 | 11.84330 | 87° | 33km/h | 2503m | -4.7m/s | 0°C | 0% | 0hPa | 2.7V | 02:05:23 | 03:44:20 | 00:00:00 | |
| DF8AY | 2026-09-03 01:42:04 | 52.18808 | 11.84357 | 88° | 33km/h | 2494m | -4.9m/s | -251.4°C | 0% | 758.3hPa | 2.6V | 02:06:10 | 03:44:22 | 00:00:00 | |
| AM1SDL-15 | 2026-09-03 01:42:04 | 52.18808 | 11.84371 | 89° | 33km/h | 2489m | -4.8m/s | 0°C | 0% | 758.7hPa | 2.6V | 00:00:00 | 03:44:23 | 00:00:00 | |
| EDDB2-11 | 2026-09-03 01:42:01 | 52.18807 | 11.84330 | 87° | 31km/h | 2503m | -4.7m/s | 0°C | -1.0% | 757.5hPa | 2.6V | 00:00:00 | 00:00:00 | 00:00:00 | |
| DF7ER-10 | 2026-09-03 01:42:00 | 52.18808 | 11.84330 | 89° | 33km/h | 2504m | -4.7m/s | 0°C | 0% | 757.5hPa | 2.6V | 00:00:00 | 00:00:00 | 00:00:00 | |
| DM0DOS-11 | 2026-09-03 01:41:59 | 52.18805 | 11.84236 | 87° | 33km/h | 2537m | -5m/s | 0°C | 0% | 0hPa | 2.6V | 02:05:30 | 03:44:13 | 00:00:00 | |
| DM0DOS-11 | 2026-09-03 01:41:54 | 52.18803 | 11.84167 | 90° | 35km/h | 2561m | -4.8m/s | 0°C | 0% | 0hPa | 2.7V | 02:05:35 | 03:44:08 | 00:00:00 | |
| DF8AY | 2026-09-03 01:41:54 | 52.18805 | 11.84223 | 88° | 33km/h | 2542m | -5.2m/s | -251.4°C | 0% | 753.9hPa | 2.7V | 02:06:10 | 03:44:12 | 00:00:00 | |
| TFSTFS | 2026-09-03 01:41:53 | 52.18805 | 11.84236 | 88° | 33km/h | 2537m | -5.0m/s | 0°C | 0% | 754.2hPa | 2.7V | 00:00:00 | 00:00:00 | 00:00:00 | |
| AM1SDL-15 | 2026-09-03 01:41:52 | 52.18804 | 11.84209 | 87° | 35km/h | 2547m | -4.8m/s | 0°C | 0% | 753.3hPa | 2.7V | 02:05:00 | 03:44:11 | 00:00:00 | |
| DF8AY-15 | 2026-09-03 01:41:51 | 52.18804 | 11.84195 | 87° | 33km/h | 2551m | -5.1m/s | 0°C | 0% | 752.9hPa | 2.7V | 00:00:00 | 03:44:10 | 00:00:00 | |
| DM0DOS-11 | 2026-09-03 01:41:49 | 52.18804 | 11.84094 | 91° | 35km/h | 2586m | -5.6m/s | 0°C | 0% | 0hPa | 2.7V | 02:05:40 | 03:44:03 | 00:00:00 | |
| DM0DOS-11 | 2026-09-03 01:41:44 | 52.18806 | 11.84026 | 93° | 31km/h | 2612m | -4.7m/s | 0°C | 0% | 0hPa | 2.7V | 02:05:45 | 03:43:58 | 00:00:00 | |
| EDDB2-12 | 2026-09-03 01:41:44 | 52.18804 | 11.84094 | 91° | 35km/h | 2586m | -5.6m/s | 0°C | -1.0% | 749.6hPa | 2.7V | 00:00:00 | 00:00:00 | 00:00:00 | |
| DF8AY | 2026-09-03 01:41:43 | 52.18804 | 11.84080 | 93° | 35km/h | 2592m | -5.6m/s | -251.4°C | 0% | 748.9hPa | 2.7V | 02:06:10 | 03:44:02 | 00:00:00 | |
| SONDE2-11 | 2026-09-03 01:41:43 | 52.18804 | 11.84080 | 92° | 35km/h | 2592m | -5.6m/s | 0°C | -1.0% | 748.9hPa | 2.7V | 00:00:00 | 00:00:00 | 00:00:00 | |
| AM1SDL-15 | 2026-09-03 01:41:40 | 52.18806 | 11.84038 | 93° | 33km/h | 2607m | -5.2m/s | 0°C | 0% | 747.7hPa | 2.7V | 00:00:00 | 03:43:59 | 00:00:00 | |
| DM0DOS-11 | 2026-09-03 01:41:39 | 52.18807 | 11.83964 | 90° | 33km/h | 2636m | -5m/s | 0°C | 0% | 0hPa | 2.7V | 02:05:50 | 03:43:53 | 00:00:00 | |
| DF7ER-10 | 2026-09-03 01:41:37 | 52.18806 | 11.84014 | 93° | 29km/h | 2617m | -4.7m/s | 0°C | 0% | 746.9hPa | 2.6V | 00:00:00 | 00:00:00 | 00:00:00 | |
| DM0DOS-11 | 2026-09-03 01:41:34 | 52.18806 | 11.83891 | 91° | 37km/h | 2660m | -4.5m/s | 0°C | 0% | 0hPa | 2.6V | 02:05:55 | 03:43:48 | 00:00:00 | |
| DF8AY | 2026-09-03 01:41:32 | 52.18807 | 11.83936 | 89° | 35km/h | 2645m | -5m/s | -251.4°C | 0% | 744.2hPa | 2.7V | 02:06:10 | 03:43:51 | 00:00:00 | |
| EDDB2-11 | 2026-09-03 01:41:30 | 52.18806 | 11.83906 | 89° | 37km/h | 2655m | -5.4m/s | 0°C | -1.0% | 743.3hPa | 2.7V | 00:00:00 | 00:00:00 | 00:00:00 | |
| DM0DOS-11 | 2026-09-03 01:41:29 | 52.18807 | 11.83819 | 90° | 33km/h | 2683m | -4.4m/s | 0°C | 0% | 0hPa | 2.7V | 02:06:00 | 03:43:43 | 00:00:00 | |
| AM1SDL-15 | 2026-09-03 01:41:27 | 52.18807 | 11.83862 | 92° | 31km/h | 2669m | -4.5m/s | 0°C | 0% | 741.9hPa | 2.7V | 00:00:00 | 03:43:46 | 00:00:00 | |
| DM0DOS-11 | 2026-09-03 01:41:24 | 52.18806 | 11.83758 | 87° | 29km/h | 2707m | -5.4m/s | 0°C | 0% | 0hPa | 2.7V | 02:06:05 | 03:43:38 | 00:00:00 | |
| DF8AY | 2026-09-03 01:41:21 | 52.18807 | 11.83782 | 89° | 29km/h | 2697m | -5.3m/s | -251.4°C | 0% | 739.4hPa | 2.6V | 02:06:10 | 03:43:40 | 00:00:00 | |
| DM0DOS-11 | 2026-09-03 01:41:19 | 52.18805 | 11.83695 | 94° | 31km/h | 2732m | -5.2m/s | 0°C | 0% | 0hPa | 2.7V | 02:06:10 | 03:43:33 | 00:00:00 | |
| AM1SDL-15 | 2026-09-03 01:41:15 | 52.18805 | 11.83708 | 92° | 33km/h | 2727m | -4.8m/s | 0°C | 0% | 736.6hPa | 2.7V | 02:06:00 | 03:43:34 | 00:00:00 | |
| DM0DOS-11 | 2026-09-03 01:41:14 | 52.18810 | 11.83632 | 96° | 31km/h | 2757m | -5.6m/s | 0°C | 0% | 0hPa | 2.7V | 02:06:15 | 03:43:28 | 00:00:00 | |
| DF8AY | 2026-09-03 01:41:10 | 52.18809 | 11.83644 | 98° | 29km/h | 2752m | -5.5m/s | -251.4°C | 0% | 734.5hPa | 2.7V | 02:07:01 | 03:43:29 | 00:00:00 | |
| DM0DOS-11 | 2026-09-03 01:41:09 | 52.18813 | 11.83563 | 92° | 37km/h | 2783m | -5.2m/s | 0°C | 0% | 0hPa | 2.6V | 02:06:20 | 03:43:23 | 00:00:00 | |
| DM0DOS-11 | 2026-09-03 01:41:04 | 52.18814 | 11.83487 | 91° | 38km/h | 2809m | -5m/s | 0°C | 0% | 0hPa | 2.7V | 02:06:25 | 03:43:18 | 00:00:00 | |
| DF8AY | 2026-09-03 01:41:00 | 52.18814 | 11.83502 | 90° | 38km/h | 2804m | -5m/s | -251.4°C | 0% | 729.6hPa | 2.7V | 02:07:01 | 03:43:19 | 00:00:00 | |
| DM0DOS-11 | 2026-09-03 01:40:59 | 52.18818 | 11.83411 | 97° | 37km/h | 2835m | -5.4m/s | 0°C | 0% | 0hPa | 2.7V | 02:06:30 | 03:43:13 | 00:00:00 | |
| DM0DOS-11 | 2026-09-03 01:40:54 | 52.18823 | 11.83334 | 93° | 37km/h | 2861m | -5.4m/s | 0°C | 0% | 0hPa | 2.6V | 02:06:35 | 03:43:08 | 00:00:00 | |
| DF8AY | 2026-09-03 01:40:49 | 52.18823 | 11.83334 | 93° | 37km/h | 2861m | -5.4m/s | -251.4°C | 0% | 724.5hPa | 2.6V | 02:07:01 | 03:43:08 | 00:00:00 | |
| DM0DOS-11 | 2026-09-03 01:40:44 | 52.18827 | 11.83179 | 94° | 37km/h | 2913m | -5.1m/s | 0°C | 0% | 0hPa | 2.7V | 02:06:45 | 03:42:58 | 00:00:00 | |
| DF8AY | 2026-09-03 01:40:39 | 52.18827 | 11.83179 | 95° | 37km/h | 2913m | -5.1m/s | -251.4°C | 0% | 719.9hPa | 2.7V | 02:07:01 | 03:42:58 | 00:00:00 | |
| TFSTFS | 2026-09-03 01:40:37 | 52.18828 | 11.83163 | 95° | 37km/h | 2918m | -5.1m/s | 0°C | 0% | 719.5hPa | 2.7V | 00:00:00 | 00:00:00 | 00:00:00 | |
| DM0DOS-11 | 2026-09-03 01:40:34 | 52.18831 | 11.83019 | 97° | 38km/h | 2962m | -5.2m/s | 0°C | 0% | 0hPa | 2.7V | 02:06:55 | 03:42:48 | 00:00:00 | |
| SONCRA | 2026-09-03 01:40:32 | 52.18830 | 11.83067 | 90° | 38km/h | 2948m | -5.6m/s | 0°C | -1.0% | 716.9hPa | 2.6V | 00:00:00 | 00:00:00 | 00:00:00 | |
| DF8AY-15 | 2026-09-03 01:40:31 | 52.18830 | 11.83051 | 92° | 35km/h | 2953m | -5.3m/s | 0°C | 0% | 716.3hPa | 2.6V | 00:00:00 | 03:42:50 | 00:00:00 | |
| DM0DOS-11 | 2026-09-03 01:40:29 | 52.18838 | 11.82942 | 98° | 37km/h | 2989m | -5.4m/s | 0°C | 0% | 0hPa | 2.6V | 02:07:00 | 03:42:43 | 00:00:00 | |
| DF8AY | 2026-09-03 01:40:29 | 52.18832 | 11.83004 | 98° | 38km/h | 2968m | -5.5m/s | -251.4°C | 0% | 715.1hPa | 2.6V | 02:07:01 | 03:42:47 | 00:00:00 | |
| EDDB2-11 | 2026-09-03 01:40:28 | 52.18832 | 11.83004 | 98° | 37km/h | 2968m | -5.5m/s | 0°C | -1.0% | 715.1hPa | 2.7V | 00:00:00 | 00:00:00 | 00:00:00 | |
| AM1SDL-15 | 2026-09-03 01:40:27 | 52.18834 | 11.82988 | 99° | 35km/h | 2973m | -5.1m/s | 0°C | 0% | 714.5hPa | 2.7V | 00:00:00 | 03:42:46 | 00:00:00 | |
| DM0DOS-11 | 2026-09-03 01:40:24 | 52.18844 | 11.82872 | 97° | 33km/h | 3015m | -5m/s | 0°C | 0% | 0hPa | 2.7V | 02:07:05 | 03:42:38 | 00:00:00 | |
| DF7ER-10 | 2026-09-03 01:40:22 | 52.18839 | 11.82927 | 99° | 37km/h | 2994m | -5.6m/s | 0°C | 0% | 712.5hPa | 2.7V | 02:07:00 | 00:00:00 | 00:00:00 | |
| DM0DOS-11 | 2026-09-03 01:40:19 | 52.18850 | 11.82809 | 99° | 29km/h | 3041m | -5.4m/s | 0°C | 0% | 0hPa | 2.7V | 02:07:10 | 03:42:33 | 00:00:00 | |
| DF8AY | 2026-09-03 01:40:18 | 52.18845 | 11.82859 | 98° | 31km/h | 3020m | -5.1m/s | -251.4°C | 0% | 710.2hPa | 2.6V | 02:07:52 | 03:42:37 | 00:00:00 | |
| AM1SDL-15 | 2026-09-03 01:40:15 | 52.18849 | 11.82821 | 101° | 33km/h | 3036m | -5.4m/s | 0°C | 0% | 708.8hPa | 2.6V | 00:00:00 | 03:42:34 | 00:00:00 | |
| DM0DOS-11 | 2026-09-03 01:40:14 | 52.18853 | 11.82744 | 92° | 33km/h | 3068m | -4.9m/s | 0°C | 0% | 0hPa | 2.6V | 02:07:15 | 03:42:28 | 00:00:00 | |
| TFSTFS | 2026-09-03 01:40:13 | 52.18850 | 11.82809 | 101° | 29km/h | 3041m | -5.4m/s | 0°C | 0% | 708.5hPa | 2.6V | 00:00:00 | 00:00:00 | 00:00:00 | |
| DF8AY-15 | 2026-09-03 01:40:11 | 52.18853 | 11.82771 | 94° | 31km/h | 3057m | -5.4m/s | 0°C | 0% | 707.0hPa | 2.6V | 02:07:00 | 03:42:30 | 00:00:00 | |
| SONDE2-11 | 2026-09-03 01:40:10 | 52.18853 | 11.82744 | 92° | 33km/h | 3068m | -4.9m/s | 0°C | -1.0% | 705.9hPa | 2.6V | 00:00:00 | 00:00:00 | 00:00:00 | |
| DM0DOS-11 | 2026-09-03 01:40:09 | 52.18859 | 11.82674 | 102° | 33km/h | 3095m | -5.3m/s | 0°C | 0% | 0hPa | 2.6V | 02:07:20 | 03:42:23 | 00:00:00 | |
| DF8AY | 2026-09-03 01:40:07 | 52.18855 | 11.82716 | 97° | 35km/h | 3079m | -6m/s | -251.4°C | 0% | 705hPa | 2.7V | 02:07:52 | 03:42:26 | 00:00:00 | |
| DM0DOS-11 | 2026-09-03 01:40:04 | 52.18866 | 11.82615 | 92° | 26km/h | 3123m | -5.7m/s | 0°C | 0% | 0hPa | 2.6V | 02:07:25 | 03:42:18 | 00:00:00 | |
| AM1SDL-15 | 2026-09-03 01:40:03 | 52.18861 | 11.82661 | 104° | 29km/h | 3101m | -5.6m/s | 0°C | 0% | 703.1hPa | 2.6V | 02:07:00 | 03:42:22 | 00:00:00 | |
| SONCRA | 2026-09-03 01:40:01 | 52.18865 | 11.82593 | 83° | 27km/h | 3134m | -5.5m/s | 0°C | -1.0% | 700.2hPa | 2.6V | 00:00:00 | 00:00:00 | 00:00:00 | |
| DF7ER-10 | 2026-09-03 01:40:00 | 52.18864 | 11.82637 | 99° | 27km/h | 3112m | -5.7m/s | 0°C | 0% | 702.0hPa | 2.6V | 00:00:00 | 00:00:00 | 00:00:00 | |
| DM0DOS-11 | 2026-09-03 01:39:59 | 52.18862 | 11.82556 | 82° | 31km/h | 3151m | -5.4m/s | 0°C | 0% | 0hPa | 2.6V | 02:07:30 | 03:42:13 | 00:00:00 | |
| DF8AY | 2026-09-03 01:39:57 | 52.18865 | 11.82593 | 84° | 27km/h | 3134m | -5.5m/s | -251.4°C | 0% | 700.2hPa | 2.6V | 02:07:52 | 03:42:16 | 00:00:00 | |
| TFSTFS | 2026-09-03 01:39:55 | 52.18864 | 11.82581 | 84° | 29km/h | 3140m | -5.6m/s | 0°C | 0% | 699.7hPa | 2.6V | 00:00:00 | 00:00:00 | 00:00:00 | |
| DM0DOS-11 | 2026-09-03 01:39:54 | 52.18861 | 11.82491 | 91° | 29km/h | 3177m | -5.6m/s | 0°C | 0% | 0hPa | 2.6V | 02:07:35 | 03:42:08 | 00:00:00 | |
| DF8AY-15 | 2026-09-03 01:39:51 | 52.18860 | 11.82517 | 90° | 29km/h | 3166m | -5.7m/s | 0°C | 0% | 697.2hPa | 2.6V | 00:00:00 | 03:42:10 | 00:00:00 | |
| TFSTFS | 2026-09-03 01:39:50 | 52.18860 | 11.82517 | 91° | 33km/h | 3166m | -5.7m/s | 0°C | 0% | 697.2hPa | 2.6V | 00:00:00 | 00:00:00 | 00:00:00 | |
| DM0DOS-11 | 2026-09-03 01:39:49 | 52.18859 | 11.82431 | 85° | 29km/h | 3209m | -7.3m/s | 0°C | 0% | 0hPa | 2.6V | 02:07:40 | 03:42:03 | 00:00:00 | |
| DF8AY | 2026-09-03 01:39:46 | 52.18860 | 11.82456 | 86° | 29km/h | 3195m | -7.1m/s | -251.4°C | 0% | 694.8hPa | 2.6V | 02:07:52 | 03:42:05 | 00:00:00 | |
| DM0DOS-11 | 2026-09-03 01:39:44 | 52.18855 | 11.82372 | 82° | 27km/h | 3241m | -5.7m/s | 0°C | 0% | 0hPa | 2.6V | 02:07:45 | 03:41:58 | 00:00:00 | |
| EDDB2-12 | 2026-09-03 01:39:40 | 52.18856 | 11.82383 | 84° | 27km/h | 3235m | -5.7m/s | 0°C | -1.0% | 691.3hPa | 2.6V | 00:00:00 | 00:00:00 | 00:00:00 | |
| DM0DOS-11 | 2026-09-03 01:39:39 | 52.18850 | 11.82317 | 83° | 27km/h | 3270m | -6.3m/s | 0°C | 0% | 0hPa | 2.6V | 02:07:50 | 03:41:53 | 00:00:00 | |
| DF8AY | 2026-09-03 01:39:37 | 52.18852 | 11.82339 | 81° | 27km/h | 3258m | -6.1m/s | -251.4°C | 0% | 689.5hPa | 2.6V | 02:07:52 | 03:41:55 | 00:00:00 | |
| DM0DOS-11 | 2026-09-03 01:39:34 | 52.18846 | 11.82258 | 85° | 31km/h | 3302m | -6.3m/s | 0°C | 0% | 0hPa | 2.6V | 02:07:55 | 03:41:48 | 00:00:00 | |
| DF8AY-15 | 2026-09-03 01:39:31 | 52.18847 | 11.82283 | 84° | 33km/h | 3290m | -6.2m/s | 0°C | 0% | 686.5hPa | 2.6V | 00:00:00 | 03:41:50 | 00:00:00 | |
| SONCRA | 2026-09-03 01:39:30 | 52.18847 | 11.82271 | 85° | 29km/h | 3296m | -6.9m/s | 0°C | -1.0% | 686.2hPa | 2.6V | 00:00:00 | 00:00:00 | 00:00:00 | |
| DM0DOS-11 | 2026-09-03 01:39:29 | 52.18844 | 11.82192 | 88° | 31km/h | 3332m | -6.2m/s | 0°C | 0% | 0hPa | 2.6V | 02:08:00 | 03:41:43 | 00:00:00 | |
| DF8AY | 2026-09-03 01:39:25 | 52.18844 | 11.82205 | 89° | 31km/h | 3326m | -6m/s | -251.4°C | 0% | 683.4hPa | 2.5V | 02:08:43 | 03:41:44 | 00:00:00 | |
| DM0DOS-11 | 2026-09-03 01:39:19 | 52.18846 | 11.82058 | 90° | 35km/h | 3391m | -5.9m/s | 0°C | 0% | 0hPa | 2.6V | 02:08:10 | 03:41:33 | 00:00:00 | |
| DF7ER-10 | 2026-09-03 01:39:17 | 52.18845 | 11.82113 | 93° | 33km/h | 3367m | -5.8m/s | 0°C | 0% | 679.8hPa | 2.6V | 00:00:00 | 00:00:00 | 00:00:00 | |
| AM1SDL-15 | 2026-09-03 01:39:15 | 52.18846 | 11.82071 | 93° | 35km/h | 3385m | -6.1m/s | 0°C | 0% | 678.3hPa | 2.6V | 00:00:00 | 03:41:34 | 00:00:00 | |
| DM0DOS-11 | 2026-09-03 01:39:14 | 52.18847 | 11.81988 | 92° | 33km/h | 3421m | -6.3m/s | 0°C | 0% | 0hPa | 2.6V | 02:08:15 | 03:41:28 | 00:00:00 | |
| DF8AY | 2026-09-03 01:39:14 | 52.18846 | 11.82058 | 90° | 35km/h | 3391m | -5.9m/s | -251.4°C | 0% | 678.1hPa | 2.6V | 02:08:43 | 03:41:33 | 00:00:00 | |
| DF8AY-15 | 2026-09-03 01:39:11 | 52.18846 | 11.82016 | 91° | 37km/h | 3409m | -5.9m/s | 0°C | 0% | 676.5hPa | 2.6V | 02:08:00 | 03:41:30 | 00:00:00 | |
| DM0DOS-11 | 2026-09-03 01:39:09 | 52.18851 | 11.81915 | 97° | 35km/h | 3448m | -5.7m/s | 0°C | 0% | 0hPa | 2.6V | 02:08:20 | 03:41:23 | 00:00:00 | |
| SONDE2-11 | 2026-09-03 01:39:09 | 52.18848 | 11.81959 | 94° | 35km/h | 3432m | -5.7m/s | 0°C | -1.0% | 674.5hPa | 2.6V | 00:00:00 | 00:00:00 | 00:00:00 | |
| DM0DOS-11 | 2026-09-03 01:39:04 | 52.18856 | 11.81845 | 97° | 35km/h | 3475m | -5.5m/s | 0°C | 0% | 0hPa | 2.6V | 02:08:25 | 03:41:18 | 00:00:00 | |
| DF8AY | 2026-09-03 01:39:03 | 52.18852 | 11.81901 | 98° | 35km/h | 3454m | -5.8m/s | -251.4°C | 0% | 672.7hPa | 2.6V | 02:08:43 | 03:41:22 | 00:00:00 | |
| AM1SDL-15 | 2026-09-03 01:39:03 | 52.18852 | 11.81901 | 98° | 37km/h | 3454m | -5.7m/s | 0°C | 0% | 672.6hPa | 2.6V | 00:00:00 | 03:41:22 | 00:00:00 | |
| DM0DOS-11 | 2026-09-03 01:38:59 | 52.18863 | 11.81770 | 98° | 40km/h | 3502m | -6.1m/s | 0°C | 0% | 0hPa | 2.6V | 02:08:30 | 03:41:13 | 00:00:00 | |
| SONCRA | 2026-09-03 01:38:59 | 52.18858 | 11.81831 | 96° | 33km/h | 3481m | -5.3m/s | 0°C | -1.0% | 670.4hPa | 2.6V | 00:00:00 | 00:00:00 | 00:00:00 | |
| S3001 | 2026-09-03 01:38:56 | 52.18860 | 11.81802 | 98° | 37km/h | 3491m | -5.4m/s | 0°C | -1.0% | 669.5hPa | 2.6V | 00:00:00 | 00:00:00 | 00:00:00 | |
| EDDB2-11 | 2026-09-03 01:38:55 | 52.18861 | 11.81786 | 97° | 38km/h | 3496m | -5.7m/s | 0°C | -1.0% | 669.0hPa | 2.6V | 00:00:00 | 00:00:00 | 00:00:00 | |
| DM0DOS-11 | 2026-09-03 01:38:54 | 52.18871 | 11.81690 | 98° | 37km/h | 3529m | -5.7m/s | 0°C | 0% | 0hPa | 2.6V | 02:08:35 | 03:41:08 | 00:00:00 | |
| DF8AY | 2026-09-03 01:38:52 | 52.18866 | 11.81737 | 99° | 40km/h | 3513m | -5.1m/s | -251.4°C | 0% | 667.6hPa | 2.6V | 02:08:43 | 03:41:11 | 00:00:00 | |
| DF8AY-15 | 2026-09-03 01:38:51 | 52.18868 | 11.81721 | 100° | 37km/h | 3519m | -5.6m/s | 0°C | 0% | 667.2hPa | 2.6V | 00:00:00 | 03:41:10 | 00:00:00 | |
| DM0DOS-11 | 2026-09-03 01:38:49 | 52.18878 | 11.81616 | 101° | 38km/h | 3557m | -5.5m/s | 0°C | 0% | 0hPa | 2.6V | 02:08:40 | 03:41:03 | 00:00:00 | |
| TFSTFS | 2026-09-03 01:38:48 | 52.18871 | 11.81690 | 100° | 37km/h | 3530m | -5.7m/s | 0°C | 0% | 666.4hPa | 2.6V | 00:00:00 | 00:00:00 | 00:00:00 | |
| DM0DOS-11 | 2026-09-03 01:38:44 | 52.18889 | 11.81542 | 104° | 37km/h | 3585m | -5.6m/s | 0°C | 0% | 0hPa | 2.6V | 02:08:45 | 03:40:58 | 00:00:00 | |
| DF8AY | 2026-09-03 01:38:42 | 52.18882 | 11.81586 | 104° | 37km/h | 3568m | -5.9m/s | -251.4°C | 0% | 663hPa | 2.6V | 02:08:43 | 03:41:01 | 00:00:00 | |
| DM0DOS-11 | 2026-09-03 01:38:39 | 52.18901 | 11.81469 | 105° | 38km/h | 3612m | -5.4m/s | 0°C | 0% | 0hPa | 2.6V | 02:08:50 | 03:40:53 | 00:00:00 | |
| EDDB2-12 | 2026-09-03 01:38:38 | 52.18891 | 11.81528 | 105° | 35km/h | 3590m | -5.8m/s | 0°C | -1.0% | 661.2hPa | 2.5V | 00:00:00 | 00:00:00 | 00:00:00 | |
| SONDE2-11 | 2026-09-03 01:38:36 | 52.18896 | 11.81499 | 105° | 35km/h | 3601m | -5.7m/s | 0°C | -1.0% | 660.1hPa | 2.5V | 00:00:00 | 00:00:00 | 00:00:00 | |
| DM0DOS-11 | 2026-09-03 01:38:34 | 52.18916 | 11.81391 | 105° | 40km/h | 3639m | -5.4m/s | 0°C | 0% | 0hPa | 2.5V | 02:08:55 | 03:40:48 | 00:00:00 | |
| DF8AY | 2026-09-03 01:38:32 | 52.18907 | 11.81438 | 107° | 40km/h | 3623m | -5.4m/s | -251.3°C | 0% | 658.4hPa | 2.6V | 02:09:34 | 03:40:51 | 00:00:00 | |
| DF8AY-15 | 2026-09-03 01:38:31 | 52.18910 | 11.81423 | 108° | 42km/h | 3629m | -5.5m/s | 0°C | 0% | 657.9hPa | 2.6V | 00:00:00 | 03:40:50 | 00:00:00 | |
| DM0DOS-11 | 2026-09-03 01:38:29 | 52.18927 | 11.81311 | 102° | 40km/h | 3667m | -5.4m/s | 0°C | 0% | 0hPa | 2.6V | 02:09:00 | 03:40:43 | 00:00:00 | |
| SONCRA | 2026-09-03 01:38:28 | 52.18921 | 11.81360 | 103° | 38km/h | 3650m | -5.7m/s | 0°C | -1.0% | 656.2hPa | 2.6V | 00:00:00 | 00:00:00 | 00:00:00 | |
| AM1SDL-15 | 2026-09-03 01:38:27 | 52.18921 | 11.81360 | 104° | 40km/h | 3650m | -5.6m/s | 0°C | 0% | 656.2hPa | 2.6V | 00:00:00 | 03:40:46 | 00:00:00 | |
| TFSTFS | 2026-09-03 01:38:26 | 52.18921 | 11.81360 | 104° | 40km/h | 3650m | -5.7m/s | 0°C | 0% | 656.2hPa | 2.6V | 00:00:00 | 00:00:00 | 00:00:00 | |
| S3001 | 2026-09-03 01:38:25 | 52.18925 | 11.81327 | 102° | 40km/h | 3661m | -5.7m/s | 0°C | -1.0% | 655.3hPa | 2.6V | 00:00:00 | 00:00:00 | 00:00:00 | |
| DM0DOS-11 | 2026-09-03 01:38:24 | 52.18940 | 11.81230 | 106° | 42km/h | 3694m | -5.6m/s | 0°C | 0% | 0hPa | 2.6V | 02:09:05 | 03:40:38 | 00:00:00 | |
| DF8AY | 2026-09-03 01:38:22 | 52.18932 | 11.81279 | 103° | 40km/h | 3678m | -5.6m/s | -251.4°C | 0% | 653.9hPa | 2.5V | 02:09:34 | 03:40:41 | 00:00:00 | |
| DM0DOS-11 | 2026-09-03 01:38:19 | 52.18955 | 11.81147 | 105° | 44km/h | 3723m | -5.7m/s | 0°C | 0% | 0hPa | 2.5V | 02:09:10 | 03:40:33 | 00:00:00 | |
| AM1SDL-15 | 2026-09-03 01:38:15 | 52.18952 | 11.81164 | 107° | 46km/h | 3717m | -6.5m/s | 0°C | 0% | 650.7hPa | 2.5V | 02:09:00 | 03:40:34 | 00:00:00 | |
| DM0DOS-11 | 2026-09-03 01:38:14 | 52.18971 | 11.81057 | 106° | 47km/h | 3748m | -5.1m/s | 0°C | 0% | 0hPa | 2.5V | 02:09:15 | 03:40:28 | 00:00:00 | |
| DF8AY | 2026-09-03 01:38:12 | 52.18962 | 11.81111 | 106° | 46km/h | 3733m | -5.1m/s | -251.3°C | 0% | 649.4hPa | 2.6V | 02:09:34 | 03:40:31 | 00:00:00 | |
| DB0DAN | 2026-09-03 01:38:10 | 52.18968 | 11.81075 | 106° | 44km/h | 3743m | -5m/s | -251.4°C | 0% | 648.53hPa | 2.6V | 00:00:00 | 00:00:00 | 00:00:00 | |
| DM0DOS-11 | 2026-09-03 01:38:09 | 52.18990 | 11.80962 | 109° | 47km/h | 3774m | -5.2m/s | 0°C | 0% | 0hPa | 2.6V | 02:09:20 | 03:40:23 | 00:00:00 | |
| DF7ER-10 | 2026-09-03 01:38:08 | 52.18971 | 11.81056 | 107° | 47km/h | 3748m | -5.1m/s | 0°C | 0% | 648.2hPa | 2.6V | 02:09:00 | 00:00:00 | 00:00:00 | |
| EDDB2-12 | 2026-09-03 01:38:07 | 52.18978 | 11.81019 | 107° | 47km/h | 3758m | -5.5m/s | 0°C | -1.0% | 647.3hPa | 2.6V | 00:00:00 | 00:00:00 | 00:00:00 | |
| TFSTFS | 2026-09-03 01:38:06 | 52.18978 | 11.81019 | 108° | 47km/h | 3758m | -5.5m/s | 0°C | 0% | 647.3hPa | 2.6V | 00:00:00 | 00:00:00 | 00:00:00 | |
| SONDE2-11 | 2026-09-03 01:38:05 | 52.18986 | 11.80981 | 109° | 47km/h | 3769m | -5.0m/s | 0°C | -1.0% | 646.4hPa | 2.6V | 00:00:00 | 00:00:00 | 00:00:00 | |
| DM0DOS-11 | 2026-09-03 01:38:04 | 52.19011 | 11.80873 | 109° | 46km/h | 3802m | -5.2m/s | 0°C | 0% | 0hPa | 2.6V | 02:09:25 | 03:40:18 | 00:00:00 | |
| DF8AY | 2026-09-03 01:38:01 | 52.19003 | 11.80908 | 112° | 46km/h | 3791m | -6.3m/s | -251.3°C | 0% | 644.8hPa | 2.5V | 02:09:34 | 03:40:20 | 00:00:00 | |
| DM0DOS-11 | 2026-09-03 01:37:59 | 52.19028 | 11.80782 | 106° | 49km/h | 3829m | -5.6m/s | 0°C | 0% | 0hPa | 2.5V | 02:09:30 | 03:40:13 | 00:00:00 | |
| SONCRA | 2026-09-03 01:37:57 | 52.19022 | 11.80819 | 106° | 46km/h | 3818m | -6.1m/s | 0°C | -1.0% | 642.4hPa | 2.5V | 00:00:00 | 00:00:00 | 00:00:00 | |
| DM0DOS-11 | 2026-09-03 01:37:54 | 52.19047 | 11.80683 | 108° | 49km/h | 3856m | -5.2m/s | 0°C | 0% | 0hPa | 2.5V | 02:09:35 | 03:40:08 | 00:00:00 | |
| DF8AY | 2026-09-03 01:37:50 | 52.19043 | 11.80702 | 108° | 51km/h | 3851m | -6.1m/s | -251.3°C | 0% | 639.9hPa | 2.6V | 02:09:34 | 03:40:09 | 00:00:00 | |
| TFSTFS | 2026-09-03 01:37:48 | 52.19047 | 11.80682 | 110° | 49km/h | 3857m | -5.2m/s | 0°C | 0% | 639.4hPa | 2.6V | 02:10:00 | 00:00:00 | 00:00:00 | |
| DF7ER-10 | 2026-09-03 01:37:47 | 52.19051 | 11.80663 | 111° | 49km/h | 3862m | -6.1m/s | 0°C | 0% | 638.8hPa | 2.6V | 02:10:00 | 00:00:00 | 00:00:00 | |
| DM0DOS-11 | 2026-09-03 01:37:43 | 52.19093 | 11.80460 | 110° | 53km/h | 3918m | -5.9m/s | 0°C | 0% | 0hPa | 2.6V | 02:09:46 | 03:39:57 | 00:00:00 | |
| DF8AY | 2026-09-03 01:37:39 | 52.19088 | 11.80481 | 109° | 55km/h | 3912m | -5.6m/s | -251.3°C | 0% | 634.8hPa | 2.6V | 02:10:25 | 03:39:58 | 00:00:00 | |
| EDDB2-12 | 2026-09-03 01:37:36 | 52.19102 | 11.80419 | 109° | 51km/h | 3929m | -5.6m/s | 0°C | -1.0% | 633.4hPa | 2.6V | 00:00:00 | 00:00:00 | 00:00:00 | |
| SONDE2-11 | 2026-09-03 01:37:34 | 52.19109 | 11.80379 | 104° | 47km/h | 3939m | -5.4m/s | 0°C | -1.0% | 632.5hPa | 2.6V | 00:00:00 | 00:00:00 | 00:00:00 | |
| DM0DOS-11 | 2026-09-03 01:37:33 | 52.19123 | 11.80260 | 99° | 51km/h | 3973m | -5.6m/s | 0°C | 0% | 0hPa | 2.6V | 02:09:56 | 03:39:47 | 00:00:00 | |
| DF8AY | 2026-09-03 01:37:28 | 52.19123 | 11.80260 | 100° | 51km/h | 3973m | -5.6m/s | -251.3°C | 0% | 630hPa | 2.6V | 02:10:25 | 03:39:47 | 00:00:00 | |
| DM0DOS-11 | 2026-09-03 01:37:28 | 52.19139 | 11.80152 | 108° | 55km/h | 4000m | -5.9m/s | 0°C | 0% | 0hPa | 2.5V | 02:10:01 | 03:39:42 | 00:00:00 | |
| AM1SDL-15 | 2026-09-03 01:37:27 | 52.19125 | 11.80238 | 101° | 51km/h | 3978m | -5.7m/s | 0°C | 0% | 629.5hPa | 2.6V | 00:00:00 | 03:39:46 | 00:00:00 | |
| SONCRA | 2026-09-03 01:37:26 | 52.19131 | 11.80195 | 104° | 55km/h | 3989m | -5.3m/s | 0°C | -1.0% | 628.6hPa | 2.6V | 00:00:00 | 00:00:00 | 00:00:00 | |
| DM0DOS-11 | 2026-09-03 01:37:23 | 52.19163 | 11.80053 | 111° | 49km/h | 4029m | -5.2m/s | 0°C | 0% | 0hPa | 2.6V | 02:10:06 | 03:39:37 | 00:00:00 | |
| EDDB2-11 | 2026-09-03 01:37:22 | 52.19144 | 11.80131 | 110° | 53km/h | 4006m | -5.8m/s | 0°C | -1.0% | 627.4hPa | 2.6V | 00:00:00 | 00:00:00 | 00:00:00 | |
| DM0DOS-11 | 2026-09-03 01:37:18 | 52.19181 | 11.79957 | 102° | 49km/h | 4055m | -5m/s | 0°C | 0% | 0hPa | 2.6V | 02:10:11 | 03:39:32 | 00:00:00 | |
| DF8AY | 2026-09-03 01:37:17 | 52.19167 | 11.80034 | 110° | 49km/h | 4034m | -5.6m/s | -251.3°C | 0% | 625.1hPa | 2.5V | 02:10:25 | 03:39:36 | 00:00:00 | |
| AM1SDL-15 | 2026-09-03 01:37:15 | 52.19175 | 11.79996 | 106° | 51km/h | 4045m | -5.0m/s | 0°C | 0% | 624.3hPa | 2.6V | 00:00:00 | 03:39:34 | 00:00:00 | |
| DM0DOS-11 | 2026-09-03 01:37:13 | 52.19195 | 11.79854 | 103° | 53km/h | 4083m | -5.6m/s | 0°C | 0% | 0hPa | 2.6V | 02:10:16 | 03:39:27 | 00:00:00 | |
| DB0DAN | 2026-09-03 01:37:10 | 52.19189 | 11.79896 | 102° | 49km/h | 4072m | -6m/s | -251.3°C | 0% | 622.05hPa | 2.5V | 00:00:00 | 00:00:00 | 00:00:00 | |
| DM0DOS-11 | 2026-09-03 01:37:08 | 52.19210 | 11.79751 | 103° | 49km/h | 4111m | -5.8m/s | 0°C | 0% | 0hPa | 2.5V | 02:10:21 | 03:39:22 | 00:00:00 | |
| DF8AY | 2026-09-03 01:37:06 | 52.19201 | 11.79813 | 104° | 53km/h | 4094m | -5.7m/s | -251.3°C | 0% | 620.1hPa | 2.6V | 02:10:25 | 03:39:25 | 00:00:00 | |
| EDDB2-12 | 2026-09-03 01:37:05 | 52.19204 | 11.79792 | 104° | 51km/h | 4100m | -5.7m/s | 0°C | -1.0% | 619.8hPa | 2.5V | 00:00:00 | 00:00:00 | 00:00:00 | |
| DM0DOS-11 | 2026-09-03 01:37:03 | 52.19225 | 11.79656 | 106° | 46km/h | 4139m | -6m/s | 0°C | 0% | 0hPa | 2.5V | 02:10:26 | 03:39:17 | 00:00:00 | |
| DM0DOS-11 | 2026-09-03 01:36:58 | 52.19242 | 11.79558 | 107° | 55km/h | 4168m | -6.1m/s | 0°C | 0% | 0hPa | 2.6V | 02:10:31 | 03:39:12 | 00:00:00 | |
| DF8AY | 2026-09-03 01:36:55 | 52.19235 | 11.79600 | 106° | 51km/h | 4156m | -6.2m/s | -251.3°C | 0% | 615.4hPa | 2.6V | 02:11:16 | 03:39:14 | 00:00:00 | |
| SONCRA | 2026-09-03 01:36:55 | 52.19239 | 11.79579 | 106° | 51km/h | 4162m | -6.2m/s | 0°C | -1.0% | 615.0hPa | 2.6V | 00:00:00 | 00:00:00 | 00:00:00 | |
| DM0DOS-11 | 2026-09-03 01:36:53 | 52.19264 | 11.79453 | 106° | 55km/h | 4198m | -5.6m/s | 0°C | 0% | 0hPa | 2.6V | 02:10:36 | 03:39:07 | 00:00:00 | |
| DF8AY-15 | 2026-09-03 01:36:51 | 52.19251 | 11.79516 | 109° | 51km/h | 4181m | -5.6m/s | 0°C | 0% | 613.5hPa | 2.6V | 00:00:00 | 03:39:10 | 00:00:00 | |
| DM0DOS-11 | 2026-09-03 01:36:48 | 52.19279 | 11.79345 | 101° | 51km/h | 4226m | -5m/s | 0°C | 0% | 0hPa | 2.6V | 02:10:41 | 03:39:02 | 00:00:00 | |
| DF8AY | 2026-09-03 01:36:44 | 52.19276 | 11.79366 | 101° | 53km/h | 4221m | -4.7m/s | -251.3°C | 0% | 610.4hPa | 2.6V | 02:11:16 | 03:39:03 | 00:00:00 | |
| AM1SDL-15 | 2026-09-03 01:36:39 | 52.19287 | 11.79264 | 99° | 51km/h | 4249m | -5.4m/s | 0°C | 0% | 608.2hPa | 2.5V | 00:00:00 | 03:38:58 | 00:00:00 | |
| DM0DOS-11 | 2026-09-03 01:36:38 | 52.19297 | 11.79140 | 95° | 51km/h | 4283m | -5m/s | 0°C | 0% | 0hPa | 2.5V | 02:10:51 | 03:38:52 | 00:00:00 | |
| DF8AY | 2026-09-03 01:36:33 | 52.19297 | 11.79140 | 96° | 51km/h | 4283m | -5m/s | -251.3°C | 0% | 605.4hPa | 2.5V | 02:11:16 | 03:38:52 | 00:00:00 | |
| SONDE2-11 | 2026-09-03 01:36:32 | 52.19298 | 11.79119 | 95° | 51km/h | 4288m | -5.3m/s | 0°C | -1.0% | 605.1hPa | 2.6V | 00:00:00 | 00:00:00 | 00:00:00 | |
| DF8AY-15 | 2026-09-03 01:36:31 | 52.19299 | 11.79098 | 96° | 49km/h | 4293m | -5.3m/s | 0°C | 0% | 604.9hPa | 2.6V | 00:00:00 | 03:38:50 | 00:00:00 | |
| DM0DOS-11 | 2026-09-03 01:36:28 | 52.19313 | 11.78935 | 99° | 47km/h | 4337m | -5.6m/s | 0°C | 0% | 0hPa | 2.6V | 02:11:01 | 03:38:42 | 00:00:00 | |
| DF8AY | 2026-09-03 01:36:22 | 52.19316 | 11.78916 | 102° | 47km/h | 4342m | -5.4m/s | -251.3°C | 0% | 600.8hPa | 2.5V | 02:11:16 | 03:38:41 | 00:00:00 | |
| S3001 | 2026-09-03 01:36:21 | 52.19321 | 11.78878 | 104° | 46km/h | 4354m | -5.5m/s | 0°C | -1.0% | 600.0hPa | 2.6V | 00:00:00 | 00:00:00 | 00:00:00 | |
| EDDB2-11 | 2026-09-03 01:36:20 | 52.19321 | 11.78878 | 104° | 46km/h | 4354m | -5.5m/s | 0°C | -1.0% | 600.0hPa | 2.6V | 00:00:00 | 00:00:00 | 00:00:00 | |
| DM0DOS-11 | 2026-09-03 01:36:18 | 52.19345 | 11.78747 | 106° | 49km/h | 4393m | -5.4m/s | 0°C | 0% | 0hPa | 2.6V | 02:11:11 | 03:38:32 | 00:00:00 | |
| AM1SDL-15 | 2026-09-03 01:36:15 | 52.19338 | 11.78786 | 107° | 51km/h | 4382m | -5.8m/s | 0°C | 0% | 597.9hPa | 2.6V | 00:00:00 | 03:38:34 | 00:00:00 | |
| DF7ER-10 | 2026-09-03 01:36:14 | 52.19338 | 11.78786 | 108° | 47km/h | 4382m | -5.9m/s | 0°C | 0% | 597.9hPa | 2.6V | 02:11:00 | 00:00:00 | 00:00:00 | |
| DM0DOS-11 | 2026-09-03 01:36:13 | 52.19364 | 11.78646 | 108° | 51km/h | 4420m | -5.8m/s | 0°C | 0% | 0hPa | 2.6V | 02:11:16 | 03:38:27 | 00:00:00 | |
| DF8AY | 2026-09-03 01:36:13 | 52.19349 | 11.78727 | 106° | 51km/h | 4398m | -5.5m/s | -251.3°C | 0% | 596.6hPa | 2.6V | 02:11:16 | 03:38:31 | 00:00:00 | |
| DF8AY-15 | 2026-09-03 01:36:11 | 52.19352 | 11.78707 | 107° | 51km/h | 4403m | -4.9m/s | 0°C | 0% | 596.0hPa | 2.6V | 02:11:00 | 03:38:30 | 00:00:00 | |
| DM0DOS-11 | 2026-09-03 01:36:08 | 52.19387 | 11.78545 | 110° | 53km/h | 4447m | -5m/s | 0°C | 0% | 0hPa | 2.6V | 02:11:21 | 03:38:22 | 00:00:00 | |
| DM0DOS-11 | 2026-09-03 01:36:03 | 52.19411 | 11.78446 | 113° | 53km/h | 4475m | -5.9m/s | 0°C | 0% | 0hPa | 2.5V | 02:11:26 | 03:38:17 | 00:00:00 | |
| DF8AY | 2026-09-03 01:36:02 | 52.19391 | 11.78525 | 111° | 53km/h | 4452m | -5m/s | -251.3°C | 0% | 592.4hPa | 2.6V | 02:12:07 | 03:38:21 | 00:00:00 | |
| SONDE2-11 | 2026-09-03 01:36:01 | 52.19396 | 11.78505 | 111° | 51km/h | 4457m | -5.8m/s | 0°C | -1.0% | 592.0hPa | 2.5V | 00:00:00 | 00:00:00 | 00:00:00 | |
| TFSTFS | 2026-09-03 01:35:59 | 52.19401 | 11.78485 | 113° | 53km/h | 4463m | -6.9m/s | 0°C | 0% | 591.8hPa | 2.5V | 02:12:00 | 00:00:00 | 00:00:00 | |
| DM0DOS-11 | 2026-09-03 01:35:58 | 52.19438 | 11.78349 | 115° | 51km/h | 4504m | -5.6m/s | 0°C | 0% | 0hPa | 2.5V | 02:11:31 | 03:38:12 | 00:00:00 | |
| DM0DOS-11 | 2026-09-03 01:35:53 | 52.19466 | 11.78258 | 116° | 46km/h | 4531m | -5.9m/s | 0°C | 0% | 0hPa | 2.6V | 02:11:36 | 03:38:07 | 00:00:00 | |
| AA1-15 | 2026-09-03 01:35:51 | 52.19449 | 11.78311 | 117° | 51km/h | 4514m | -5m/s | -251.3°C | 0% | 587.8hPa | 2.6V | 02:12:58 | 03:38:10 | 00:00:00 | |
| EDDB2-11 | 2026-09-03 01:35:49 | 52.19460 | 11.78275 | 116° | 47km/h | 4525m | -4.9m/s | 0°C | -1.0% | 587.0hPa | 2.6V | 00:00:00 | 00:00:00 | 00:00:00 | |
| DM0DOS-11 | 2026-09-03 01:35:48 | 52.19493 | 11.78173 | 117° | 49km/h | 4559m | -5.4m/s | 0°C | 0% | 0hPa | 2.6V | 02:11:41 | 03:38:02 | 00:00:00 | |
| DM0DOS-11 | 2026-09-03 01:35:43 | 52.19524 | 11.78079 | 117° | 53km/h | 4586m | -5.2m/s | 0°C | 0% | 0hPa | 2.6V | 02:11:46 | 03:37:57 | 00:00:00 | |
| DF8AY | 2026-09-03 01:35:41 | 52.19505 | 11.78136 | 118° | 51km/h | 4570m | -5.5m/s | -251.3°C | 0% | 583.7hPa | 2.5V | 02:12:07 | 03:38:00 | 00:00:00 | |
| DB0DAN | 2026-09-03 01:35:40 | 52.19512 | 11.78117 | 118° | 49km/h | 4575m | -5.1m/s | -251.3°C | 0% | 583.19hPa | 2.6V | 00:00:00 | 00:00:00 | 00:00:00 | |
| AM1SDL-15 | 2026-09-03 01:35:39 | 52.19518 | 11.78098 | 118° | 53km/h | 4581m | -5.5m/s | 0°C | 0% | 582.7hPa | 2.6V | 00:00:00 | 03:37:58 | 00:00:00 | |
| DM0DOS-11 | 2026-09-03 01:35:38 | 52.19559 | 11.77965 | 114° | 51km/h | 4622m | -5.5m/s | 0°C | 0% | 0hPa | 2.6V | 02:11:52 | 03:37:51 | 00:00:00 | |
| TFSTFS | 2026-09-03 01:35:37 | 52.19524 | 11.78079 | 118° | 53km/h | 4586m | -5.2m/s | 0°C | 0% | 582.4hPa | 2.6V | 02:12:00 | 00:00:00 | 00:00:00 | |
| DM0DOS-11 | 2026-09-03 01:35:33 | 52.19587 | 11.77867 | 115° | 53km/h | 4652m | -6.4m/s | 0°C | 0% | 0hPa | 2.6V | 02:11:57 | 03:37:46 | 00:00:00 | |
| DF8AY | 2026-09-03 01:35:30 | 52.19570 | 11.77927 | 114° | 53km/h | 4634m | -5.7m/s | -251.3°C | 0% | 578.9hPa | 2.5V | 02:12:07 | 03:37:49 | 00:00:00 | |
| DM0DOS-11 | 2026-09-03 01:35:27 | 52.19616 | 11.77766 | 114° | 53km/h | 4684m | -6.2m/s | 0°C | 0% | 0hPa | 2.6V | 02:12:02 | 03:37:41 | 00:00:00 | |
| AA1-15 | 2026-09-03 01:35:26 | 52.19592 | 11.77848 | 115° | 53km/h | 4659m | -7.2m/s | -251.3°C | 0% | 577hPa | 2.6V | 02:12:58 | 03:37:45 | 00:00:00 | |
| DL1XH1-15 | 2026-09-03 01:35:22 | 52.19644 | 11.77667 | 116° | 53km/h | 4716m | -6m/s | 0°C | 0% | 0hPa | 2.6V | 02:12:07 | 03:37:36 | 00:00:00 | |
| DL1XH-west | 2026-09-03 01:35:20 | 52.19626 | 11.77726 | 114° | 53km/h | 4697m | -6.8m/s | -251.3°C | 0% | 574.3hPa | 2.6V | 02:12:07 | 03:37:39 | 00:00:00 | |
| S3001 | 2026-09-03 01:35:19 | 52.19638 | 11.77687 | 115° | 51km/h | 4709m | -6.2m/s | 0°C | -1.0% | 573.2hPa | 2.6V | 00:00:00 | 00:00:00 | 00:00:00 | |
| EDDB2-11 | 2026-09-03 01:35:18 | 52.19638 | 11.77687 | 115° | 51km/h | 4709m | -6.2m/s | 0°C | -1.0% | 573.2hPa | 2.6V | 00:00:00 | 00:00:00 | 00:00:00 | |
| DL1XH1-15 | 2026-09-03 01:35:17 | 52.19673 | 11.77569 | 114° | 55km/h | 4748m | -6.2m/s | 0°C | 0% | 0hPa | 2.6V | 02:12:12 | 03:37:31 | 00:00:00 | |
| AA1-15 | 2026-09-03 01:35:16 | 52.19649 | 11.77648 | 117° | 51km/h | 4722m | -6.2m/s | -251.3°C | 0% | 572.3hPa | 2.6V | 02:12:58 | 03:37:35 | 00:00:00 | |
| DF8AY | 2026-09-03 01:35:09 | 52.19690 | 11.77506 | 113° | 57km/h | 4768m | -6.7m/s | -251.3°C | 0% | 569hPa | 2.6V | 02:12:58 | 03:37:28 | 00:00:00 | |
| DL1XH1-15 | 2026-09-03 01:35:08 | 52.19701 | 11.77463 | 113° | 57km/h | 4781m | -6.5m/s | 0°C | 0% | 0hPa | 2.5V | 02:12:17 | 03:37:26 | 00:00:00 | |
| DM0DOS-11 | 2026-09-03 01:35:07 | 52.19728 | 11.77356 | 111° | 57km/h | 4813m | -6.6m/s | 0°C | 0% | 0hPa | 2.5V | 02:12:22 | 03:37:21 | 00:00:00 | |
| AA1-15 | 2026-09-03 01:35:05 | 52.19712 | 11.77420 | 113° | 55km/h | 4793m | -6.3m/s | -251.3°C | 0% | 567hPa | 2.6V | 02:12:58 | 03:37:24 | 00:00:00 | |
| AM1SDL-15 | 2026-09-03 01:35:03 | 52.19722 | 11.77377 | 112° | 57km/h | 4806m | -6.7m/s | 0°C | 0% | 566.1hPa | 2.5V | 00:00:00 | 03:37:22 | 00:00:00 | |
| DM0DOS-11 | 2026-09-03 01:35:02 | 52.19756 | 11.77251 | 116° | 57km/h | 4843m | -6.3m/s | 0°C | 0% | 0hPa | 2.5V | 02:12:27 | 03:37:16 | 00:00:00 | |
| DF8AY | 2026-09-03 01:34:59 | 52.19744 | 11.77292 | 114° | 55km/h | 4831m | -6.1m/s | -251.3°C | 0% | 564.2hPa | 2.6V | 02:12:58 | 03:37:18 | 00:00:00 | |
| DL1XH-west | 2026-09-03 01:34:58 | 52.19750 | 11.77271 | 115° | 55km/h | 4837m | -5.9m/s | -251.3°C | 0% | 563.8hPa | 2.6V | 02:12:58 | 03:37:17 | 00:00:00 | |
| DM0DOS-11 | 2026-09-03 01:34:57 | 52.19788 | 11.77143 | 115° | 58km/h | 4872m | -5.6m/s | 0°C | 0% | 0hPa | 2.5V | 02:12:32 | 03:37:11 | 00:00:00 | |
| TFSTFS | 2026-09-03 01:34:56 | 52.19756 | 11.77251 | 117° | 57km/h | 4843m | -6.3m/s | 0°C | 0% | 563.4hPa | 2.6V | 02:12:00 | 00:00:00 | 00:00:00 | |
| DB0DAN | 2026-09-03 01:34:55 | 52.19769 | 11.77208 | 116° | 57km/h | 4855m | -5.6m/s | -251.3°C | 0% | 562.61hPa | 2.6V | 00:00:00 | 00:00:00 | 00:00:00 | |
| AA1-15 | 2026-09-03 01:34:54 | 52.19775 | 11.77186 | 116° | 58km/h | 4861m | -5.7m/s | -251.3°C | 0% | 561.9hPa | 2.6V | 02:12:58 | 03:37:13 | 00:00:00 | |
| DF8AY | 2026-09-03 01:34:48 | 52.19812 | 11.77059 | 114° | 55km/h | 4894m | -5.2m/s | -251.3°C | 0% | 559.7hPa | 2.6V | 02:12:58 | 03:37:07 | 00:00:00 | |
| DL1XH-west | 2026-09-03 01:34:47 | 52.19817 | 11.77038 | 113° | 55km/h | 4899m | -4.4m/s | -251.3°C | 0% | 559.3hPa | 2.5V | 02:12:58 | 03:37:06 | 00:00:00 | |
| DM0DOS-11 | 2026-09-03 01:34:42 | 52.19877 | 11.76806 | 111° | 57km/h | 4960m | -6.3m/s | 0°C | 0% | 0hPa | 2.6V | 02:12:48 | 03:36:55 | 00:00:00 | |
| DL1XH-west | 2026-09-03 01:34:37 | 52.19872 | 11.76828 | 111° | 57km/h | 4954m | -5.6m/s | -251.3°C | 0% | 555.5hPa | 2.6V | 02:12:58 | 03:36:56 | 00:00:00 | |
| DM0DOS-11 | 2026-09-03 01:34:36 | 52.19905 | 11.76700 | 114° | 55km/h | 4994m | -7m/s | 0°C | 0% | 0hPa | 2.6V | 02:12:53 | 03:36:50 | 00:00:00 | |
| AA1-15 | 2026-09-03 01:34:31 | 52.19905 | 11.76700 | 115° | 57km/h | 4994m | -7m/s | -251.3°C | 0% | 552.7hPa | 2.6V | 02:12:58 | 03:36:50 | 00:00:00 | |
| DF8AY-15 | 2026-09-03 01:34:31 | 52.19905 | 11.76699 | 115° | 53km/h | 4994m | -6.9m/s | 0°C | 0% | 552.6hPa | 2.5V | 00:00:00 | 03:36:50 | 00:00:00 | |
| DB0NH | 2026-09-03 01:34:30 | 52.19911 | 11.76679 | 115° | 55km/h | 5001m | -6.8m/s | 0°C | 0% | 552.0hPa | 2.5V | 00:00:00 | 03:36:49 | 00:00:00 | |
| DL1XH1-15 | 2026-09-03 01:34:29 | 52.19928 | 11.76617 | 113° | 53km/h | 5021m | -6.5m/s | 0°C | 0% | 0hPa | 2.5V | 02:12:57 | 03:36:46 | 00:00:00 | |
| DL1XH-west | 2026-09-03 01:34:27 | 52.19928 | 11.76617 | 114° | 53km/h | 5021m | -6.6m/s | -251.3°C | 0% | 550.5hPa | 2.5V | 02:12:58 | 03:36:46 | 00:00:00 | |
| DF8AY | 2026-09-03 01:34:26 | 52.19934 | 11.76597 | 114° | 53km/h | 5028m | -6.9m/s | -251.3°C | 0% | 550.1hPa | 2.5V | 02:12:58 | 03:36:45 | 00:00:00 | |
| DB0DAN | 2026-09-03 01:34:25 | 52.19939 | 11.76578 | 113° | 49km/h | 5035m | -7.4m/s | -251.3°C | 0% | 549.65hPa | 2.5V | 00:00:00 | 00:00:00 | 00:00:00 | |
| AA1-15 | 2026-09-03 01:34:21 | 52.19959 | 11.76499 | 113° | 53km/h | 5065m | -7.1m/s | -251.3°C | 0% | 547.5hPa | 2.6V | 02:14:40 | 03:36:40 | 00:00:00 | |
| SONCRA | 2026-09-03 01:34:19 | 52.19970 | 11.76458 | 113° | 55km/h | 5078m | -6.7m/s | 0°C | -1.0% | 546.5hPa | 2.6V | 00:00:00 | 00:00:00 | 00:00:00 | |
| DL1XH1-15 | 2026-09-03 01:34:18 | 52.19981 | 11.76417 | 112° | 55km/h | 5093m | -6.9m/s | 0°C | 0% | 0hPa | 2.6V | 02:13:07 | 03:36:36 | 00:00:00 | |
| DL1XH-west | 2026-09-03 01:34:16 | 52.19986 | 11.76396 | 112° | 55km/h | 5100m | -7.3m/s | -251.3°C | 0% | 544.8hPa | 2.6V | 02:13:49 | 03:36:35 | 00:00:00 | |
| AA1-15 | 2026-09-03 01:34:10 | 52.20016 | 11.76273 | 111° | 55km/h | 5142m | -6.9m/s | -251.3°C | 0% | 541.9hPa | 2.6V | 02:14:40 | 03:36:29 | 00:00:00 | |
| DL1XH1-15 | 2026-09-03 01:34:08 | 52.20031 | 11.76208 | 109° | 57km/h | 5162m | -7.2m/s | 0°C | 0% | 0hPa | 2.5V | 02:13:17 | 03:36:26 | 00:00:00 | |
| DF8AY | 2026-09-03 01:34:05 | 52.20040 | 11.76163 | 110° | 58km/h | 5175m | -5.5m/s | -251.3°C | 0% | 539.6hPa | 2.6V | 02:13:49 | 03:36:24 | 00:00:00 | |
| AM1SDL-15 | 2026-09-03 01:34:03 | 52.20051 | 11.76118 | 112° | 58km/h | 5187m | -6.3m/s | 0°C | 0% | 538.6hPa | 2.6V | 02:13:00 | 03:36:22 | 00:00:00 | |
| DM0DOS-11 | 2026-09-03 01:34:01 | 52.20089 | 11.75958 | 110° | 58km/h | 5226m | -5.4m/s | 0°C | 0% | 0hPa | 2.5V | 02:13:28 | 03:36:15 | 00:00:00 | |
| AA1-15 | 2026-09-03 01:34:00 | 52.20068 | 11.76050 | 111° | 60km/h | 5204m | -5.5m/s | -251.3°C | 0% | 537.5hPa | 2.6V | 02:14:40 | 03:36:19 | 00:00:00 | |
| EDDB2-12 | 2026-09-03 01:33:59 | 52.20078 | 11.76003 | 109° | 58km/h | 5215m | -5.6m/s | 0°C | -1.0% | 536.6hPa | 2.5V | 00:00:00 | 00:00:00 | 00:00:00 | |
| DL1XH1-15 | 2026-09-03 01:33:58 | 52.20083 | 11.75981 | 109° | 58km/h | 5221m | -5.4m/s | 0°C | 0% | 0hPa | 2.5V | 02:13:27 | 03:36:16 | 00:00:00 | |
| SONDE2-11 | 2026-09-03 01:33:57 | 52.20083 | 11.75981 | 109° | 58km/h | 5221m | -5.4m/s | 0°C | -1.0% | 536.3hPa | 2.6V | 00:00:00 | 00:00:00 | 00:00:00 | |
| DB0DAN | 2026-09-03 01:33:55 | 52.20094 | 11.75936 | 112° | 55km/h | 5232m | -6.2m/s | -251.3°C | 0% | 535.54hPa | 2.6V | 00:00:00 | 00:00:00 | 00:00:00 | |
| DF8AY | 2026-09-03 01:33:55 | 52.20094 | 11.75936 | 112° | 57km/h | 5232m | -6.2m/s | -251.3°C | 0% | 535.5hPa | 2.6V | 02:13:49 | 03:36:14 | 00:00:00 | |
| DL1XH-west | 2026-09-03 01:33:54 | 52.20099 | 11.75914 | 113° | 57km/h | 5238m | -5.6m/s | -251.2°C | 0% | 535.1hPa | 2.6V | 02:13:49 | 03:36:13 | 00:00:00 | |
| DM0DOS-11 | 2026-09-03 01:33:51 | 52.20154 | 11.75741 | 116° | 64km/h | 5283m | -5.5m/s | 0°C | 0% | 0hPa | 2.5V | 02:13:38 | 03:36:05 | 00:00:00 | |
| AA1-15 | 2026-09-03 01:33:50 | 52.20124 | 11.75830 | 118° | 58km/h | 5261m | -6m/s | -251.3°C | 0% | 533.6hPa | 2.6V | 02:14:40 | 03:36:09 | 00:00:00 | |
| AM1SDL-15 | 2026-09-03 01:33:49 | 52.20131 | 11.75808 | 119° | 62km/h | 5266m | -5.4m/s | 0°C | 0% | 533.0hPa | 2.5V | 00:00:00 | 03:36:08 | 00:00:00 | |
| DL1XH1-15 | 2026-09-03 01:33:48 | 52.20147 | 11.75764 | 117° | 62km/h | 5278m | -6m/s | 0°C | 0% | 0hPa | 2.5V | 02:13:37 | 03:36:06 | 00:00:00 | |
| DF8AY | 2026-09-03 01:33:44 | 52.20167 | 11.75694 | 113° | 62km/h | 5295m | -6.1m/s | -251.2°C | 0% | 531.1hPa | 2.6V | 02:13:49 | 03:36:03 | 00:00:00 | |
| DL1XH-west | 2026-09-03 01:33:43 | 52.20174 | 11.75671 | 112° | 62km/h | 5301m | -5.8m/s | -251.2°C | 0% | 530.7hPa | 2.6V | 02:13:49 | 03:36:02 | 00:00:00 | |
| DM0DOS-11 | 2026-09-03 01:33:41 | 52.20218 | 11.75510 | 116° | 62km/h | 5341m | -5.9m/s | 0°C | 0% | 0hPa | 2.5V | 02:13:48 | 03:35:55 | 00:00:00 | |
| AA1-15 | 2026-09-03 01:33:39 | 52.20197 | 11.75578 | 114° | 62km/h | 5324m | -5.6m/s | -251.2°C | 0% | 529.1hPa | 2.6V | 02:14:40 | 03:35:58 | 00:00:00 | |
| DF8AY | 2026-09-03 01:33:33 | 52.20238 | 11.75440 | 114° | 64km/h | 5358m | -6m/s | -251.2°C | 0% | 526.8hPa | 2.6V | 02:14:40 | 03:35:52 | 00:00:00 | |
| DL1XH-west | 2026-09-03 01:33:32 | 52.20245 | 11.75416 | 114° | 64km/h | 5363m | -5.1m/s | -251.3°C | 0% | 526.3hPa | 2.5V | 02:14:40 | 03:35:51 | 00:00:00 | |
| DM0DOS-11 | 2026-09-03 01:33:31 | 52.20284 | 11.75273 | 115° | 62km/h | 5398m | -6.1m/s | 0°C | 0% | 0hPa | 2.5V | 02:13:58 | 03:35:45 | 00:00:00 | |
| DF8AY-15 | 2026-09-03 01:33:31 | 52.20251 | 11.75392 | 114° | 62km/h | 5368m | -5.9m/s | 0°C | 0% | 526.0hPa | 2.6V | 00:00:00 | 03:35:50 | 00:00:00 | |
| DB0NH | 2026-09-03 01:33:30 | 52.20258 | 11.75368 | 115° | 62km/h | 5375m | -6.7m/s | 0°C | 0% | 525.7hPa | 2.6V | 00:00:00 | 03:35:49 | 00:00:00 | |
| DL1XH1-15 | 2026-09-03 01:33:28 | 52.20305 | 11.75204 | 116° | 62km/h | 5415m | -5.6m/s | 0°C | 0% | 0hPa | 2.6V | 02:14:01 | 03:35:42 | 00:00:00 | |
| DF8AY | 2026-09-03 01:33:22 | 52.20312 | 11.75181 | 116° | 62km/h | 5421m | -5.8m/s | -251.2°C | 0% | 522.4hPa | 2.5V | 02:14:40 | 03:35:41 | 00:00:00 | |
| DL1XH-west | 2026-09-03 01:33:21 | 52.20319 | 11.75158 | 115° | 62km/h | 5426m | -5.4m/s | -251.2°C | 0% | 522.1hPa | 2.5V | 02:14:40 | 03:35:40 | 00:00:00 | |
| DL1XH1-15 | 2026-09-03 01:33:18 | 52.20372 | 11.74975 | 118° | 58km/h | 5474m | -5.5m/s | 0°C | 0% | 0hPa | 2.6V | 02:14:11 | 03:35:32 | 00:00:00 | |
| AA1-15 | 2026-09-03 01:33:14 | 52.20365 | 11.74997 | 118° | 60km/h | 5468m | -6.2m/s | -251.2°C | 0% | 519.3hPa | 2.6V | 02:14:40 | 03:35:33 | 00:00:00 | |
| DF8AY | 2026-09-03 01:33:12 | 52.20380 | 11.74954 | 119° | 58km/h | 5480m | -5.9m/s | -251.2°C | 0% | 518.5hPa | 2.6V | 02:14:40 | 03:35:31 | 00:00:00 | |
| DM0DOS-11 | 2026-09-03 01:33:11 | 52.20423 | 11.74824 | 115° | 60km/h | 5517m | -7.2m/s | 0°C | 0% | 0hPa | 2.6V | 02:14:18 | 03:35:25 | 00:00:00 | |
| DL1XH-west | 2026-09-03 01:33:11 | 52.20387 | 11.74933 | 119° | 58km/h | 5485m | -6.1m/s | -251.2°C | 0% | 518.1hPa | 2.5V | 02:14:40 | 03:35:30 | 00:00:00 | |
| DB0DAN | 2026-09-03 01:33:10 | 52.20394 | 11.74912 | 119° | 57km/h | 5492m | -6m/s | -251.2°C | 0% | 517.65hPa | 2.5V | 00:00:00 | 00:00:00 | 00:00:00 | |
| DL1XH1-15 | 2026-09-03 01:33:08 | 52.20442 | 11.74756 | 115° | 60km/h | 5537m | -6.8m/s | 0°C | 0% | 0hPa | 2.6V | 02:14:21 | 03:35:22 | 00:00:00 | |
| AA1-15 | 2026-09-03 01:33:03 | 52.20442 | 11.74756 | 115° | 60km/h | 5537m | -6.8m/s | -251.2°C | 0% | 514.5hPa | 2.6V | 02:14:40 | 03:35:22 | 00:00:00 | |
| DF8AY | 2026-09-03 01:33:01 | 52.20455 | 11.74711 | 115° | 62km/h | 5549m | -5.7m/s | -251.2°C | 0% | 513.8hPa | 2.6V | 02:14:40 | 03:35:20 | 00:00:00 | |
| DL1XH-west | 2026-09-03 01:33:00 | 52.20462 | 11.74687 | 115° | 60km/h | 5555m | -5.8m/s | -251.2°C | 0% | 513.4hPa | 2.5V | 02:14:40 | 03:35:19 | 00:00:00 | |
| DB0NH | 2026-09-03 01:33:00 | 52.20462 | 11.74687 | 115° | 62km/h | 5555m | -5.8m/s | 0°C | 0% | 513.3hPa | 2.5V | 00:00:00 | 03:35:19 | 00:00:00 | |
| DL1XH1-15 | 2026-09-03 01:32:58 | 52.20507 | 11.74526 | 113° | 62km/h | 5597m | -6m/s | 0°C | 0% | 0hPa | 2.5V | 02:14:31 | 03:35:12 | 00:00:00 | |
| EDDB2-12 | 2026-09-03 01:32:57 | 52.20488 | 11.74595 | 114° | 60km/h | 5579m | -5.9m/s | 0°C | -1.0% | 511.8hPa | 2.6V | 00:00:00 | 00:00:00 | 00:00:00 | |
| DB0DAN | 2026-09-03 01:32:55 | 52.20495 | 11.74572 | 114° | 58km/h | 5585m | -5.7m/s | -251.2°C | 0% | 511.29hPa | 2.6V | 00:00:00 | 00:00:00 | 00:00:00 | |
| AA1-15 | 2026-09-03 01:32:53 | 52.20513 | 11.74502 | 113° | 62km/h | 5603m | -6.2m/s | -251.2°C | 0% | 510.3hPa | 2.5V | 02:14:40 | 03:35:11 | 00:00:00 | |
| DF8AY | 2026-09-03 01:32:51 | 52.20520 | 11.74479 | 113° | 62km/h | 5609m | -5.8m/s | -251.2°C | 0% | 509.8hPa | 2.6V | 02:14:40 | 03:35:10 | 00:00:00 | |
| DL1XH-west | 2026-09-03 01:32:49 | 52.20532 | 11.74433 | 114° | 60km/h | 5620m | -5.5m/s | -251.2°C | 0% | 508.9hPa | 2.6V | 02:14:40 | 03:35:08 | 00:00:00 | |
| DL1XH1-15 | 2026-09-03 01:32:48 | 52.20571 | 11.74294 | 114° | 62km/h | 5654m | -5.9m/s | 0°C | 0% | 0hPa | 2.6V | 02:14:41 | 03:35:02 | 00:00:00 | |
| SONCRA | 2026-09-03 01:32:46 | 52.20551 | 11.74364 | 114° | 60km/h | 5637m | -5.8m/s | 0°C | -1.0% | 507.9hPa | 2.5V | 00:00:00 | 00:00:00 | 00:00:00 | |
| AA1-15 | 2026-09-03 01:32:41 | 52.20584 | 11.74247 | 114° | 64km/h | 5666m | -6m/s | -251.2°C | 0% | 505.8hPa | 2.5V | 02:15:31 | 03:35:00 | 00:00:00 | |
| DM0DOS-11 | 2026-09-03 01:32:41 | 52.20616 | 11.74128 | 113° | 64km/h | 5696m | -5.9m/s | 0°C | 0% | 0hPa | 2.6V | 02:14:48 | 03:34:55 | 00:00:00 | |
| DF8AY | 2026-09-03 01:32:41 | 52.20590 | 11.74224 | 114° | 64km/h | 5672m | -6.2m/s | -251.2°C | 0% | 505.4hPa | 2.5V | 02:15:31 | 03:34:59 | 00:00:00 | |
| DB0DAN | 2026-09-03 01:32:40 | 52.20590 | 11.74224 | 114° | 60km/h | 5672m | -6.2m/s | -251.2°C | 0% | 505.43hPa | 2.5V | 00:00:00 | 00:00:00 | 00:00:00 | |
| DL1XH-west | 2026-09-03 01:32:38 | 52.20603 | 11.74176 | 114° | 64km/h | 5684m | -6.1m/s | -251.2°C | 0% | 504.7hPa | 2.6V | 02:15:31 | 03:34:57 | 00:00:00 | |
| AA1-15 | 2026-09-03 01:32:31 | 52.20647 | 11.74008 | 113° | 62km/h | 5726m | -5.7m/s | -251.2°C | 0% | 501.9hPa | 2.6V | 02:15:31 | 03:34:50 | 00:00:00 | |
| DF8AY | 2026-09-03 01:32:30 | 52.20653 | 11.73984 | 112° | 62km/h | 5732m | -6.1m/s | -251.2°C | 0% | 501.7hPa | 2.6V | 02:15:31 | 03:34:49 | 00:00:00 | |
| DL1XH-west | 2026-09-03 01:32:28 | 52.20665 | 11.73936 | 112° | 62km/h | 5743m | -5.8m/s | -251.2°C | 0% | 500.8hPa | 2.5V | 02:15:31 | 03:34:47 | 00:00:00 | |
| DL1XH1-15 | 2026-09-03 01:32:28 | 52.20694 | 11.73817 | 111° | 62km/h | 5773m | -5.5m/s | 0°C | 0% | 0hPa | 2.6V | 02:15:01 | 03:34:42 | 00:00:00 | |
| TFSTFS | 2026-09-03 01:32:27 | 52.20665 | 11.73936 | 113° | 62km/h | 5743m | -5.8m/s | 0°C | 0% | 500.8hPa | 2.6V | 02:15:00 | 00:00:00 | 00:00:00 | |
| DB0DAN | 2026-09-03 01:32:25 | 52.20683 | 11.73865 | 111° | 58km/h | 5761m | -5.8m/s | -251.2°C | 0% | 499.73hPa | 2.6V | 00:00:00 | 00:00:00 | 00:00:00 | |
| AA1-15 | 2026-09-03 01:32:21 | 52.20706 | 11.73770 | 113° | 64km/h | 5784m | -6m/s | -251.2°C | 0% | 498.1hPa | 2.5V | 02:15:31 | 03:34:40 | 00:00:00 | |
| DF8AY | 2026-09-03 01:32:19 | 52.20719 | 11.73722 | 113° | 64km/h | 5796m | -6.3m/s | -251.2°C | 0% | 497.3hPa | 2.5V | 02:15:31 | 03:34:38 | 00:00:00 | |
| DL1XH1-15 | 2026-09-03 01:32:18 | 52.20755 | 11.73578 | 111° | 62km/h | 5833m | -6.3m/s | 0°C | 0% | 0hPa | 2.5V | 02:15:11 | 03:34:32 | 00:00:00 | |
| DL1XH-west | 2026-09-03 01:32:17 | 52.20731 | 11.73674 | 114° | 62km/h | 5809m | -6.1m/s | -251.2°C | 0% | 496.4hPa | 2.6V | 02:15:31 | 03:34:36 | 00:00:00 | |
| SONCRA | 2026-09-03 01:32:15 | 52.20743 | 11.73626 | 111° | 62km/h | 5821m | -5.9m/s | 0°C | -1.0% | 495.7hPa | 2.5V | 00:00:00 | 00:00:00 | 00:00:00 | |
| AM1SDL-15 | 2026-09-03 01:32:13 | 52.20755 | 11.73578 | 112° | 62km/h | 5833m | -6.3m/s | 0°C | 0% | 494.8hPa | 2.5V | 02:15:00 | 03:34:32 | 00:00:00 | |
| DM0DOS-11 | 2026-09-03 01:32:11 | 52.20772 | 11.73507 | 111° | 62km/h | 5852m | -5.9m/s | 0°C | 0% | 0hPa | 2.6V | 02:15:14 | 03:34:29 | 00:00:00 | |
| DB0DAN | 2026-09-03 01:32:10 | 52.20772 | 11.73507 | 111° | 58km/h | 5852m | -5.9m/s | -251.2°C | 0% | 493.72hPa | 2.6V | 00:00:00 | 00:00:00 | 00:00:00 | |
| AA1-15 | 2026-09-03 01:32:10 | 52.20772 | 11.73507 | 111° | 62km/h | 5852m | -5.9m/s | -251.2°C | 0% | 493.7hPa | 2.6V | 02:15:31 | 03:34:29 | 00:00:00 | |
| DF8AY | 2026-09-03 01:32:09 | 52.20778 | 11.73483 | 111° | 62km/h | 5858m | -6.1m/s | -251.2°C | 0% | 493.2hPa | 2.6V | 02:15:31 | 03:34:28 | 00:00:00 | |
| DL1XH-west | 2026-09-03 01:32:07 | 52.20794 | 11.73413 | 112° | 62km/h | 5876m | -6.3m/s | -251.2°C | 0% | 492.1hPa | 2.5V | 02:15:31 | 03:34:25 | 00:00:00 | |
| TFSTFS | 2026-09-03 01:32:04 | 52.20806 | 11.73365 | 112° | 62km/h | 5889m | -6.2m/s | 0°C | 0% | 491.2hPa | 2.6V | 02:15:00 | 00:00:00 | 00:00:00 | |
| TFSTFS | 2026-09-03 01:32:02 | 52.20812 | 11.73341 | 112° | 62km/h | 5895m | -6.2m/s | 0°C | 0% | 490.8hPa | 2.6V | 02:15:00 | 00:00:00 | 00:00:00 | |
| DL1XH-15 | 2026-09-03 01:32:02 | 52.20840 | 11.73219 | 110° | 64km/h | 5926m | -6.3m/s | 0°C | 0% | 0hPa | 2.5V | 02:15:26 | 03:34:17 | 00:00:00 | |
| DM0DOS-11 | 2026-09-03 01:32:00 | 52.20857 | 11.73146 | 109° | 64km/h | 5944m | -5.8m/s | 0°C | 0% | 0hPa | 2.6V | 02:15:29 | 03:34:14 | 00:00:00 | |
| AA1-15 | 2026-09-03 01:32:00 | 52.20829 | 11.73268 | 111° | 64km/h | 5913m | -6.2m/s | -251.2°C | 0% | 489.5hPa | 2.5V | 02:15:31 | 03:34:19 | 00:00:00 | |
| DF8AY | 2026-09-03 01:31:58 | 52.20840 | 11.73219 | 111° | 64km/h | 5926m | -6.3m/s | -251.2°C | 0% | 488.9hPa | 2.5V | 02:15:31 | 03:34:17 | 00:00:00 | |
| DL1XH1-15 | 2026-09-03 01:31:58 | 52.20868 | 11.73097 | 109° | 62km/h | 5956m | -6m/s | 0°C | 0% | 0hPa | 2.5V | 02:15:31 | 03:34:12 | 00:00:00 | |
| DL1XH-west | 2026-09-03 01:31:56 | 52.20851 | 11.73170 | 110° | 64km/h | 5938m | -5.6m/s | -251.2°C | 0% | 488.1hPa | 2.6V | 02:15:31 | 03:34:15 | 00:00:00 | |
| EDDB2-12 | 2026-09-03 01:31:55 | 52.20862 | 11.73121 | 109° | 62km/h | 5950m | -5.9m/s | 0°C | -1.0% | 487.4hPa | 2.5V | 00:00:00 | 00:00:00 | 00:00:00 | |
| SONDE2-11 | 2026-09-03 01:31:53 | 52.20873 | 11.73073 | 108° | 62km/h | 5962m | -5.8m/s | 0°C | -1.0% | 486.6hPa | 2.5V | 00:00:00 | 00:00:00 | 00:00:00 | |
| DF8AY-15 | 2026-09-03 01:31:51 | 52.20878 | 11.73048 | 110° | 62km/h | 5967m | -5.8m/s | 0°C | 0% | 486.1hPa | 2.5V | 00:00:00 | 03:34:10 | 00:00:00 | |
| DM0DOS-11 | 2026-09-03 01:31:50 | 52.20910 | 11.72904 | 111° | 62km/h | 6004m | -6.2m/s | 0°C | 0% | 0hPa | 2.5V | 02:15:39 | 03:34:04 | 00:00:00 | |
| AA1-15 | 2026-09-03 01:31:49 | 52.20889 | 11.73000 | 109° | 62km/h | 5980m | -6.2m/s | -251.2°C | 0% | 485.3hPa | 2.6V | 02:16:22 | 03:34:08 | 00:00:00 | |
| DF8AY | 2026-09-03 01:31:47 | 52.20899 | 11.72952 | 110° | 62km/h | 5992m | -6.4m/s | -251.2°C | 0% | 484.6hPa | 2.6V | 02:16:22 | 03:34:06 | 00:00:00 | |
| AM1SDL-15 | 2026-09-03 01:31:47 | 52.20899 | 11.72952 | 111° | 64km/h | 5992m | -6.4m/s | 0°C | 0% | 484.5hPa | 2.6V | 00:00:00 | 03:34:06 | 00:00:00 | |
| DL1XH-15 | 2026-09-03 01:31:46 | 52.20922 | 11.72855 | 111° | 64km/h | 6016m | -6m/s | 0°C | 0% | 0hPa | 2.6V | 02:15:41 | 03:34:02 | 00:00:00 | |
| DL1XH-west | 2026-09-03 01:31:45 | 52.20910 | 11.72904 | 112° | 62km/h | 6004m | -6.2m/s | -251.2°C | 0% | 483.8hPa | 2.5V | 02:16:22 | 03:34:04 | 00:00:00 | |
| SONCRA | 2026-09-03 01:31:44 | 52.20916 | 11.72880 | 111° | 62km/h | 6010m | -6.3m/s | 0°C | -1.0% | 483.3hPa | 2.6V | 00:00:00 | 00:00:00 | 00:00:00 | |
| DO2SHX-10 | 2026-09-03 01:31:43 | 52.20922 | 11.72855 | 112° | 64km/h | 6017m | -5.9m/s | 0°C | 0% | 482.9hPa | 2.6V | 02:15:00 | 03:34:02 | 00:00:00 | |
| DB0DAN | 2026-09-03 01:31:40 | 52.20940 | 11.72782 | 111° | 60km/h | 6035m | -6.2m/s | -251.2°C | 0% | 481.73hPa | 2.5V | 00:00:00 | 00:00:00 | 00:00:00 | |
| DM0DOS-11 | 2026-09-03 01:31:40 | 52.20967 | 11.72661 | 108° | 60km/h | 6065m | -5.9m/s | 0°C | 0% | 0hPa | 2.5V | 02:15:49 | 03:33:54 | 00:00:00 | |
| AA1-15 | 2026-09-03 01:31:38 | 52.20951 | 11.72734 | 110° | 64km/h | 6047m | -6.1m/s | -251.2°C | 0% | 481hPa | 2.6V | 02:16:22 | 03:33:57 | 00:00:00 | |
| DL1XH1-15 | 2026-09-03 01:31:38 | 52.20977 | 11.72614 | 108° | 60km/h | 6076m | -5.8m/s | 0°C | 0% | 0hPa | 2.5V | 02:15:51 | 03:33:52 | 00:00:00 | |
| DF8AY | 2026-09-03 01:31:36 | 52.20962 | 11.72685 | 109° | 62km/h | 6059m | -5.8m/s | -251.2°C | 0% | 480.3hPa | 2.6V | 02:16:22 | 03:33:55 | 00:00:00 | |
| DL1XH-west | 2026-09-03 01:31:35 | 52.20967 | 11.72661 | 109° | 62km/h | 6065m | -5.9m/s | -251.2°C | 0% | 479.9hPa | 2.5V | 02:16:22 | 03:33:54 | 00:00:00 | |
| AM1SDL-15 | 2026-09-03 01:31:35 | 52.20967 | 11.72661 | 109° | 62km/h | 6065m | -5.9m/s | 0°C | 0% | 479.9hPa | 2.5V | 02:15:00 | 03:33:54 | 00:00:00 | |
| DL2RXE-15 | 2026-09-03 01:31:32 | 52.20977 | 11.72614 | 110° | 60km/h | 6077m | -5.8m/s | 0°C | 0% | 479.1hPa | 2.6V | 00:00:00 | 00:00:00 | 00:00:00 | |
| DF8AY-15 | 2026-09-03 01:31:31 | 52.20988 | 11.72566 | 111° | 62km/h | 6089m | -6.1m/s | 0°C | 0% | 478.4hPa | 2.6V | 00:00:00 | 03:33:50 | 00:00:00 | |
| DM0DOS-11 | 2026-09-03 01:31:30 | 52.21022 | 11.72422 | 111° | 62km/h | 6125m | -6.4m/s | 0°C | 0% | 0hPa | 2.6V | 02:15:59 | 03:33:44 | 00:00:00 | |
| AA1-15 | 2026-09-03 01:31:28 | 52.21004 | 11.72495 | 111° | 62km/h | 6107m | -5.8m/s | -251.2°C | 0% | 477.1hPa | 2.5V | 02:16:22 | 03:33:47 | 00:00:00 | |
| DF8AY | 2026-09-03 01:31:26 | 52.21071 | 11.72210 | 111° | 62km/h | 6180m | -6.2m/s | -251.2°C | 0% | 472.4hPa | 2.5V | 02:16:22 | 03:33:35 | 00:00:00 | |
| DL1XH-west | 2026-09-03 01:31:25 | 52.21022 | 11.72422 | 111° | 62km/h | 6125m | -6.4m/s | -251.2°C | 0% | 475.9hPa | 2.6V | 02:16:22 | 03:33:44 | 00:00:00 | |
| AM1SDL-15 | 2026-09-03 01:31:23 | 52.21033 | 11.72374 | 111° | 62km/h | 6137m | -5.8m/s | 0°C | 0% | 475.2hPa | 2.5V | 00:00:00 | 03:33:42 | 00:00:00 | |
| TFSTFS | 2026-09-03 01:31:21 | 52.21039 | 11.72351 | 111° | 62km/h | 6143m | -6.3m/s | 0°C | 0% | 474.8hPa | 2.5V | 02:16:00 | 00:00:00 | 00:00:00 | |
| DM0DOS-11 | 2026-09-03 01:31:20 | 52.21077 | 11.72186 | 111° | 62km/h | 6186m | -6.7m/s | 0°C | 0% | 0hPa | 2.5V | 02:16:09 | 03:33:34 | 00:00:00 | |
| AA1-15 | 2026-09-03 01:31:18 | 52.21060 | 11.72257 | 110° | 62km/h | 6168m | -6.2m/s | -251.2°C | 0% | 473.3hPa | 2.6V | 02:16:22 | 03:33:37 | 00:00:00 | |
| DL1XH-west | 2026-09-03 01:31:15 | 52.21076 | 11.72186 | 112° | 62km/h | 6186m | -6.7m/s | -251.2°C | 0% | 472.1hPa | 2.5V | 02:16:22 | 03:33:34 | 00:00:00 | |
| DF7ER-10 | 2026-09-03 01:31:14 | 52.21077 | 11.72186 | 113° | 62km/h | 6186m | -6.7m/s | 0°C | 0% | 472.1hPa | 2.6V | 02:16:00 | 00:00:00 | 00:00:00 | |
| DF8AY-15 | 2026-09-03 01:31:11 | 52.21099 | 11.72089 | 111° | 62km/h | 6211m | -6.2m/s | 0°C | 0% | 470.6hPa | 2.6V | 02:16:00 | 03:33:30 | 00:00:00 | |
| DM0DOS-11 | 2026-09-03 01:31:10 | 52.21131 | 11.71945 | 108° | 62km/h | 6250m | -6.8m/s | 0°C | 0% | 0hPa | 2.6V | 02:16:19 | 03:33:24 | 00:00:00 | |
| EDDB2-11 | 2026-09-03 01:31:10 | 52.21111 | 11.72041 | 109° | 62km/h | 6224m | -6.6m/s | 0°C | -1.0% | 469.7hPa | 2.5V | 00:00:00 | 00:00:00 | 00:00:00 | |
| DL1XH1-15 | 2026-09-03 01:31:08 | 52.21141 | 11.71898 | 110° | 60km/h | 6262m | -6.5m/s | 0°C | 0% | 0hPa | 2.5V | 02:16:21 | 03:33:22 | 00:00:00 | |
| AA1-15 | 2026-09-03 01:31:07 | 52.21121 | 11.71993 | 108° | 62km/h | 6237m | -6.3m/s | -251.2°C | 0% | 468.9hPa | 2.6V | 02:16:22 | 03:33:26 | 00:00:00 | |
| DF8AY | 2026-09-03 01:31:04 | 52.21136 | 11.71921 | 109° | 60km/h | 6256m | -6.1m/s | -251.2°C | 0% | 467.7hPa | 2.5V | 02:16:22 | 03:33:23 | 00:00:00 | |
| DL1XH-15 | 2026-09-03 01:31:02 | 52.21157 | 11.71828 | 112° | 60km/h | 6280m | -6.4m/s | 0°C | 0% | 0hPa | 2.6V | 02:16:24 | 03:33:19 | 00:00:00 | |
| DM0DOS-11 | 2026-09-03 01:31:00 | 52.21188 | 11.71712 | 112° | 62km/h | 6311m | -6.3m/s | 0°C | 0% | 0hPa | 2.6V | 02:16:29 | 03:33:14 | 00:00:00 | |
| DB0NH | 2026-09-03 01:31:00 | 52.21157 | 11.71828 | 113° | 60km/h | 6280m | -6.4m/s | 0°C | 0% | 466.2hPa | 2.6V | 02:16:00 | 03:33:19 | 00:00:00 | |
| AM1SDL-15 | 2026-09-03 01:30:59 | 52.21163 | 11.71805 | 113° | 60km/h | 6287m | -6.7m/s | 0°C | 0% | 465.8hPa | 2.5V | 02:16:00 | 03:33:18 | 00:00:00 | |
| DL1XH1-15 | 2026-09-03 01:30:58 | 52.21200 | 11.71666 | 113° | 62km/h | 6323m | -6.2m/s | 0°C | 0% | 0hPa | 2.5V | 02:16:31 | 03:33:12 | 00:00:00 | |
| AA1-15 | 2026-09-03 01:30:58 | 52.21175 | 11.71759 | 113° | 62km/h | 6299m | -7.1m/s | -251.2°C | 0% | 464.9hPa | 2.5V | 02:17:13 | 03:33:16 | 00:00:00 | |
| DF8AY | 2026-09-03 01:30:54 | 52.21194 | 11.71689 | 114° | 62km/h | 6318m | -6m/s | -251.2°C | 0% | 463.8hPa | 2.6V | 02:17:13 | 03:33:13 | 00:00:00 | |
| DL1XH-west | 2026-09-03 01:30:53 | 52.21200 | 11.71666 | 113° | 62km/h | 6323m | -6.3m/s | -251.2°C | 0% | 463.2hPa | 2.5V | 02:17:13 | 03:33:12 | 00:00:00 | |
| DO2SHX-10 | 2026-09-03 01:30:53 | 52.21200 | 11.71666 | 114° | 62km/h | 6323m | -6.2m/s | 0°C | 0% | 463.1hPa | 2.6V | 00:00:00 | 03:33:12 | 00:00:00 | |
| DL1XH-15 | 2026-09-03 01:30:52 | 52.21217 | 11.71596 | 110° | 60km/h | 6341m | -6.3m/s | 0°C | 0% | 0hPa | 2.6V | 02:16:34 | 03:33:09 | 00:00:00 | |
| SONDE2-11 | 2026-09-03 01:30:51 | 52.21217 | 11.71596 | 110° | 60km/h | 6341m | -6.3m/s | 0°C | -1.0% | 462.1hPa | 2.6V | 00:00:00 | 00:00:00 | 00:00:00 | |
| DM0DOS-11 | 2026-09-03 01:30:50 | 52.21243 | 11.71482 | 111° | 58km/h | 6372m | -7.1m/s | 0°C | 0% | 0hPa | 2.6V | 02:16:39 | 03:33:04 | 00:00:00 | |
| DO2SHX-10 | 2026-09-03 01:30:50 | 52.21217 | 11.71596 | 111° | 60km/h | 6341m | -6.3m/s | 0°C | 0% | 462.1hPa | 2.6V | 02:16:00 | 03:33:09 | 00:00:00 | |
| DL1XH1-15 | 2026-09-03 01:30:48 | 52.21254 | 11.71437 | 113° | 58km/h | 6386m | -7m/s | 0°C | 0% | 0hPa | 2.6V | 02:16:41 | 03:33:02 | 00:00:00 | |
| DF8AY | 2026-09-03 01:30:43 | 52.21254 | 11.71437 | 113° | 58km/h | 6386m | -7m/s | -251.2°C | 0% | 459.5hPa | 2.6V | 02:17:13 | 03:33:02 | 00:00:00 | |
| DL1XH-west | 2026-09-03 01:30:42 | 52.21260 | 11.71415 | 113° | 58km/h | 6393m | -7.7m/s | -251.2°C | 0% | 459.1hPa | 2.5V | 02:17:13 | 03:33:01 | 00:00:00 | |
| DL1XH-15 | 2026-09-03 01:30:42 | 52.21272 | 11.71371 | 113° | 60km/h | 6407m | -6.9m/s | 0°C | 0% | 0hPa | 2.6V | 02:16:44 | 03:32:59 | 00:00:00 | |
| SONCRA | 2026-09-03 01:30:42 | 52.21260 | 11.71415 | 113° | 57km/h | 6393m | -7.7m/s | 0°C | -1.0% | 459.1hPa | 2.6V | 00:00:00 | 00:00:00 | 00:00:00 | |
| DB0DAN | 2026-09-03 01:30:40 | 52.21272 | 11.71371 | 114° | 57km/h | 6407m | -6.9m/s | -251.2°C | 0% | 458.31hPa | 2.6V | 00:00:00 | 00:00:00 | 00:00:00 | |
| DM0DOS-11 | 2026-09-03 01:30:40 | 52.21304 | 11.71256 | 115° | 62km/h | 6442m | -7.1m/s | 0°C | 0% | 0hPa | 2.5V | 02:16:49 | 03:32:54 | 00:00:00 | |
| EDDB2-11 | 2026-09-03 01:30:39 | 52.21284 | 11.71325 | 113° | 60km/h | 6421m | -7.0m/s | 0°C | -1.0% | 457.3hPa | 2.6V | 00:00:00 | 00:00:00 | 00:00:00 | |
| DL1XH1-15 | 2026-09-03 01:30:38 | 52.21318 | 11.71210 | 116° | 62km/h | 6455m | -7m/s | 0°C | 0% | 0hPa | 2.6V | 02:16:51 | 03:32:52 | 00:00:00 | |
| DF8AY | 2026-09-03 01:30:34 | 52.21318 | 11.71210 | 117° | 62km/h | 6455m | -7.1m/s | -251.2°C | 0% | 455.2hPa | 2.6V | 02:17:13 | 03:32:52 | 00:00:00 | |
| DL1XH-15 | 2026-09-03 01:30:32 | 52.21339 | 11.71142 | 117° | 60km/h | 6475m | -6.4m/s | 0°C | 0% | 0hPa | 2.5V | 02:16:54 | 03:32:49 | 00:00:00 | |
| DL1XH-west | 2026-09-03 01:30:32 | 52.21325 | 11.71187 | 116° | 62km/h | 6462m | -6.6m/s | -251.2°C | 0% | 455hPa | 2.6V | 02:17:13 | 03:32:51 | 00:00:00 | |
| AA1-15 | 2026-09-03 01:30:31 | 52.21332 | 11.71164 | 116° | 62km/h | 6469m | -7m/s | -251.2°C | 0% | 454.4hPa | 2.5V | 02:17:13 | 03:32:50 | 00:00:00 | |
| DF8AY-15 | 2026-09-03 01:30:31 | 52.21332 | 11.71164 | 117° | 60km/h | 6469m | -7.0m/s | 0°C | 0% | 454.3hPa | 2.5V | 00:00:00 | 03:32:50 | 00:00:00 | |
| DM0DOS-11 | 2026-09-03 01:30:30 | 52.21373 | 11.71032 | 118° | 60km/h | 6510m | -7.2m/s | 0°C | 0% | 0hPa | 2.5V | 02:16:59 | 03:32:44 | 00:00:00 | |
| DB0NH | 2026-09-03 01:30:30 | 52.21338 | 11.71141 | 118° | 62km/h | 6476m | -6.3m/s | 0°C | 0% | 453.9hPa | 2.6V | 00:00:00 | 03:32:49 | 00:00:00 | |
| DL1XH1-15 | 2026-09-03 01:30:28 | 52.21388 | 11.70988 | 118° | 62km/h | 6525m | -7.8m/s | 0°C | 0% | 0hPa | 2.6V | 02:17:01 | 03:32:42 | 00:00:00 | |
| DF8AY | 2026-09-03 01:30:22 | 52.21395 | 11.70966 | 118° | 60km/h | 6532m | -7.1m/s | -251.2°C | 0% | 450.6hPa | 2.6V | 02:17:13 | 03:32:41 | 00:00:00 | |
| DL1XH-15 | 2026-09-03 01:30:22 | 52.21410 | 11.70922 | 118° | 60km/h | 6546m | -7.3m/s | 0°C | 0% | 0hPa | 2.5V | 02:17:04 | 03:32:39 | 00:00:00 | |
| DL1XH-west | 2026-09-03 01:30:21 | 52.21402 | 11.70944 | 119° | 60km/h | 6539m | -7.1m/s | -251.2°C | 0% | 450.1hPa | 2.6V | 02:17:13 | 03:32:40 | 00:00:00 | |
| DM0DOS-11 | 2026-09-03 01:30:20 | 52.21446 | 11.70815 | 118° | 60km/h | 6582m | -7m/s | 0°C | 0% | 0hPa | 2.5V | 02:17:09 | 03:32:34 | 00:00:00 | |
| AA1-15 | 2026-09-03 01:30:20 | 52.21410 | 11.70922 | 119° | 60km/h | 6546m | -7.3m/s | -251.2°C | 0% | 449.7hPa | 2.5V | 02:17:13 | 03:32:39 | 00:00:00 | |
| SONDE2-11 | 2026-09-03 01:30:20 | 52.21417 | 11.70901 | 119° | 58km/h | 6553m | -7.4m/s | 0°C | -1.0% | 449.4hPa | 2.5V | 00:00:00 | 00:00:00 | 00:00:00 | |
| DO2SHX-10 | 2026-09-03 01:30:19 | 52.21417 | 11.70901 | 120° | 58km/h | 6553m | -7.4m/s | 0°C | 0% | 449.3hPa | 2.5V | 02:17:00 | 03:32:38 | 00:00:00 | |
| DL1XH1-15 | 2026-09-03 01:30:18 | 52.21461 | 11.70770 | 118° | 62km/h | 6595m | -6.6m/s | 0°C | 0% | 0hPa | 2.6V | 02:17:11 | 03:32:32 | 00:00:00 | |
| DF8AY | 2026-09-03 01:30:12 | 52.21468 | 11.70748 | 119° | 62km/h | 6602m | -6.4m/s | -251.2°C | 0% | 446.3hPa | 2.6V | 02:17:13 | 03:32:31 | 00:00:00 | |
| DL1XH-15 | 2026-09-03 01:30:12 | 52.21484 | 11.70703 | 118° | 62km/h | 6614m | -6.8m/s | 0°C | 0% | 0hPa | 2.5V | 02:17:14 | 03:32:29 | 00:00:00 | |
| DL1XH-west | 2026-09-03 01:30:11 | 52.21476 | 11.70725 | 119° | 62km/h | 6608m | -6.3m/s | -251.2°C | 0% | 445.9hPa | 2.5V | 02:17:13 | 03:32:30 | 00:00:00 | |
| AA1-15 | 2026-09-03 01:30:10 | 52.21483 | 11.70703 | 118° | 62km/h | 6614m | -6.8m/s | -251.2°C | 0% | 445.6hPa | 2.5V | 02:18:04 | 03:32:29 | 00:00:00 | |
| DL1XH1-15 | 2026-09-03 01:30:08 | 52.21538 | 11.70540 | 119° | 66km/h | 6662m | -6.6m/s | 0°C | 0% | 0hPa | 2.6V | 02:17:21 | 03:32:22 | 00:00:00 | |
| EDDB2-11 | 2026-09-03 01:30:08 | 52.21506 | 11.70635 | 118° | 62km/h | 6635m | -7.2m/s | 0°C | -1.0% | 444.3hPa | 2.5V | 00:00:00 | 00:00:00 | 00:00:00 | |
| DJ2DS-15 | 2026-09-03 01:30:06 | 52.21514 | 11.70611 | 118° | 64km/h | 6642m | -6.9m/s | 0°C | -1.0% | 443.8hPa | 2.5V | 00:00:00 | 00:00:00 | 00:00:00 | |
| TFSTFS | 2026-09-03 01:30:03 | 52.21530 | 11.70564 | 120° | 66km/h | 6656m | -6.4m/s | 0°C | 0% | 443.1hPa | 2.5V | 00:00:00 | 00:00:00 | 00:00:00 | |
| DL1XH-15 | 2026-09-03 01:30:02 | 52.21563 | 11.70468 | 119° | 68km/h | 6682m | -6.2m/s | 0°C | 0% | 0hPa | 2.5V | 02:17:24 | 03:32:19 | 00:00:00 | |
| DF8AY | 2026-09-03 01:30:01 | 52.21555 | 11.70493 | 120° | 68km/h | 6675m | -6.9m/s | -251.2°C | 0% | 442.1hPa | 2.5V | 02:18:04 | 03:32:20 | 00:00:00 | |
| AA1-15 | 2026-09-03 01:30:00 | 52.21563 | 11.70468 | 119° | 68km/h | 6682m | -6.2m/s | -251.2°C | 0% | 441.7hPa | 2.5V | 02:18:04 | 03:32:19 | 00:00:00 | |
| DB0NH | 2026-09-03 01:30:00 | 52.21563 | 11.70468 | 120° | 69km/h | 6682m | -6.2m/s | 0°C | 0% | 441.7hPa | 2.6V | 00:00:00 | 03:32:19 | 00:00:00 | |
| DO2SHX-10 | 2026-09-03 01:29:59 | 52.21572 | 11.70444 | 120° | 68km/h | 6688m | -6.0m/s | 0°C | 0% | 441.1hPa | 2.6V | 00:00:00 | 03:32:18 | 00:00:00 | |
| DL1XH1-15 | 2026-09-03 01:29:58 | 52.21624 | 11.70300 | 121° | 68km/h | 6725m | -6.5m/s | 0°C | 0% | 0hPa | 2.6V | 02:17:31 | 03:32:12 | 00:00:00 | |
| DO2SHX-10 | 2026-09-03 01:29:56 | 52.21597 | 11.70371 | 121° | 68km/h | 6707m | -6.4m/s | 0°C | 0% | 439.9hPa | 2.6V | 00:00:00 | 03:32:15 | 00:00:00 | |
| TFSTFS | 2026-09-03 01:29:55 | 52.21597 | 11.70371 | 121° | 68km/h | 6707m | -6.5m/s | 0°C | 0% | 440.0hPa | 2.6V | 02:18:00 | 00:00:00 | 00:00:00 | |
| DO2SHX-10 | 2026-09-03 01:29:53 | 52.21623 | 11.70300 | 122° | 68km/h | 6725m | -6.4m/s | 0°C | 0% | 438.9hPa | 2.6V | 02:17:00 | 03:32:12 | 00:00:00 | |
| DL1XH-15 | 2026-09-03 01:29:52 | 52.21649 | 11.70229 | 120° | 68km/h | 6743m | -6.3m/s | 0°C | 0% | 0hPa | 2.5V | 02:17:34 | 03:32:09 | 00:00:00 | |
| DF8AY | 2026-09-03 01:29:51 | 52.21641 | 11.70253 | 120° | 66km/h | 6738m | -5.9m/s | -251.2°C | 0% | 438.1hPa | 2.6V | 02:18:04 | 03:32:10 | 00:00:00 | |
| DL1XH-west | 2026-09-03 01:29:50 | 52.21649 | 11.70229 | 120° | 68km/h | 6743m | -6.3m/s | -251.2°C | 0% | 437.9hPa | 2.5V | 02:18:04 | 03:32:09 | 00:00:00 | |
| AA1-15 | 2026-09-03 01:29:49 | 52.21658 | 11.70205 | 120° | 68km/h | 6750m | -6.9m/s | -251.2°C | 0% | 437.4hPa | 2.5V | 02:18:04 | 03:32:08 | 00:00:00 | |
| SONDE2-11 | 2026-09-03 01:29:49 | 52.21666 | 11.70180 | 118° | 69km/h | 6757m | -6.9m/s | 0°C | -1.0% | 437.1hPa | 2.5V | 00:00:00 | 00:00:00 | 00:00:00 | |
| DL1XH1-15 | 2026-09-03 01:29:48 | 52.21709 | 11.70052 | 117° | 69km/h | 6791m | -6.9m/s | 0°C | 0% | 0hPa | 2.5V | 02:17:41 | 03:32:02 | 00:00:00 | |
| DO2SHX-10 | 2026-09-03 01:29:47 | 52.21675 | 11.70155 | 120° | 71km/h | 6763m | -6.8m/s | 0°C | 0% | 436.5hPa | 2.5V | 00:00:00 | 03:32:06 | 00:00:00 | |
| DO2SHX-10 | 2026-09-03 01:29:44 | 52.21700 | 11.70078 | 118° | 69km/h | 6784m | -6.7m/s | 0°C | 0% | 435.5hPa | 2.5V | 02:17:00 | 03:32:03 | 00:00:00 | |
| DL1XH-15 | 2026-09-03 01:29:42 | 52.21733 | 11.69977 | 118° | 69km/h | 6811m | -6.3m/s | 0°C | 0% | 0hPa | 2.6V | 02:17:44 | 03:31:59 | 00:00:00 | |
| TFSTFS | 2026-09-03 01:29:41 | 52.21717 | 11.70027 | 119° | 69km/h | 6797m | -6.9m/s | 0°C | 0% | 434.6hPa | 2.6V | 00:00:00 | 00:00:00 | 00:00:00 | |
| DB0DAN | 2026-09-03 01:29:40 | 52.21734 | 11.69977 | 118° | 68km/h | 6811m | -6.3m/s | -251.2°C | 0% | 433.93hPa | 2.6V | 00:00:00 | 00:00:00 | 00:00:00 | |
| DF8AY | 2026-09-03 01:29:40 | 52.21734 | 11.69977 | 118° | 69km/h | 6811m | -6.3m/s | -251.2°C | 0% | 433.9hPa | 2.6V | 02:18:04 | 03:31:59 | 00:00:00 | |
| DL1XH-west | 2026-09-03 01:29:39 | 52.21742 | 11.69951 | 118° | 69km/h | 6817m | -7.1m/s | -251.2°C | 0% | 433.4hPa | 2.5V | 02:18:04 | 03:31:58 | 00:00:00 | |
| AA1-15 | 2026-09-03 01:29:38 | 52.21750 | 11.69926 | 119° | 71km/h | 6824m | -6.3m/s | -251.2°C | 0% | 433.1hPa | 2.5V | 02:18:04 | 03:31:57 | 00:00:00 | |
| DF8AY | 2026-09-03 01:29:34 | 52.21829 | 11.69699 | 121° | 68km/h | 6882m | -6.5m/s | -251.2°C | 0% | 429.7hPa | 2.6V | 02:18:04 | 03:31:48 | 00:00:00 | |
| DL2RXE-15 | 2026-09-03 01:29:33 | 52.21784 | 11.69823 | 120° | 71km/h | 6849m | -6.2m/s | 0°C | 0% | 431.6hPa | 2.6V | 00:00:00 | 00:00:00 | 00:00:00 | |
| DL1XH-15 | 2026-09-03 01:29:32 | 52.21820 | 11.69723 | 121° | 69km/h | 6875m | -6.5m/s | 0°C | 0% | 0hPa | 2.6V | 02:17:54 | 03:31:49 | 00:00:00 | |
| AA1-15 | 2026-09-03 01:29:28 | 52.21838 | 11.69675 | 121° | 68km/h | 6888m | -6.4m/s | -251.2°C | 0% | 429.2hPa | 2.6V | 02:18:04 | 03:31:47 | 00:00:00 | |
| DO2SHX-10 | 2026-09-03 01:29:28 | 52.21838 | 11.69675 | 121° | 68km/h | 6888m | -6.4m/s | 0°C | 0% | 429.2hPa | 2.6V | 00:00:00 | 03:31:47 | 00:00:00 | |
| DO2SHX-10 | 2026-09-03 01:29:24 | 52.21871 | 11.69576 | 117° | 69km/h | 6913m | -6.1m/s | 0°C | 0% | 427.8hPa | 2.6V | 02:18:00 | 03:31:43 | 00:00:00 | |
| DL1XH-15 | 2026-09-03 01:29:22 | 52.21903 | 11.69473 | 117° | 69km/h | 6938m | -6.7m/s | 0°C | 0% | 0hPa | 2.5V | 02:18:04 | 03:31:39 | 00:00:00 | |
| DF8AY | 2026-09-03 01:29:19 | 52.21967 | 11.69301 | 122° | 71km/h | 6982m | -6.6m/s | -251.2°C | 0% | 423.9hPa | 2.5V | 02:18:55 | 03:31:32 | 00:00:00 | |
| AA1-15 | 2026-09-03 01:29:17 | 52.21929 | 11.69398 | 121° | 69km/h | 6957m | -6m/s | -251.2°C | 0% | 425.3hPa | 2.5V | 02:18:55 | 03:31:36 | 00:00:00 | |
| DO2SHX-10 | 2026-09-03 01:29:15 | 52.21947 | 11.69349 | 123° | 69km/h | 6969m | -6.0m/s | 0°C | 0% | 424.4hPa | 2.6V | 02:18:00 | 03:31:34 | 00:00:00 | |
| DL1XH-15 | 2026-09-03 01:29:12 | 52.21994 | 11.69226 | 118° | 71km/h | 7000m | -7.4m/s | 0°C | 0% | 0hPa | 2.6V | 02:18:14 | 03:31:29 | 00:00:00 | |
| AA1-15 | 2026-09-03 01:29:07 | 52.22020 | 11.69150 | 119° | 71km/h | 7020m | -6.4m/s | -251.2°C | 0% | 421.6hPa | 2.5V | 02:18:55 | 03:31:26 | 00:00:00 | |
| DL1XH-west | 2026-09-03 01:29:07 | 52.22028 | 11.69124 | 118° | 71km/h | 7026m | -6.6m/s | -251.2°C | 0% | 421.4hPa | 2.5V | 02:18:55 | 03:31:25 | 00:00:00 | |
| DF8AY | 2026-09-03 01:29:03 | 52.22109 | 11.68889 | 120° | 73km/h | 7086m | -6.8m/s | -251.2°C | 0% | 417.8hPa | 2.6V | 02:18:55 | 03:31:16 | 00:00:00 | |
| DL1XH-15 | 2026-09-03 01:29:02 | 52.22081 | 11.68967 | 119° | 73km/h | 7066m | -6.8m/s | 0°C | 0% | 0hPa | 2.5V | 02:18:24 | 03:31:19 | 00:00:00 | |
| DB0NH | 2026-09-03 01:29:00 | 52.22081 | 11.68967 | 120° | 73km/h | 7066m | -6.8m/s | 0°C | 0% | 418.9hPa | 2.6V | 00:00:00 | 03:31:19 | 00:00:00 | |
| DL1XH1-15 | 2026-09-03 01:28:58 | 52.22146 | 11.68787 | 120° | 71km/h | 7112m | -6.9m/s | 0°C | 0% | 0hPa | 2.6V | 02:18:31 | 03:31:12 | 00:00:00 | |
| AA1-15 | 2026-09-03 01:28:56 | 52.22118 | 11.68863 | 120° | 73km/h | 7092m | -6.6m/s | -251.2°C | 0% | 417.4hPa | 2.5V | 02:18:55 | 03:31:15 | 00:00:00 | |
| DB0DAN | 2026-09-03 01:28:55 | 52.22127 | 11.68838 | 121° | 69km/h | 7099m | -6.8m/s | -251.2°C | 0% | 417.23hPa | 2.5V | 00:00:00 | 00:00:00 | 00:00:00 | |
| DO2SHX-10 | 2026-09-03 01:28:54 | 52.22136 | 11.68812 | 121° | 71km/h | 7105m | -6.6m/s | 0°C | 0% | 416.6hPa | 2.5V | 00:00:00 | 03:31:13 | 00:00:00 | |
| DO2SHX-10 | 2026-09-03 01:28:51 | 52.22164 | 11.68735 | 120° | 71km/h | 7125m | -6.9m/s | 0°C | 0% | 415.5hPa | 2.5V | 00:00:00 | 03:31:10 | 00:00:00 | |
| DL1XH1-15 | 2026-09-03 01:28:48 | 52.22237 | 11.68529 | 120° | 73km/h | 7183m | -6.7m/s | 0°C | 0% | 0hPa | 2.5V | 02:18:41 | 03:31:02 | 00:00:00 | |
| DF8AY | 2026-09-03 01:28:47 | 52.22200 | 11.68633 | 120° | 73km/h | 7154m | -7.9m/s | -251.2°C | 0% | 414hPa | 2.6V | 02:18:55 | 03:31:06 | 00:00:00 | |
| AA1-15 | 2026-09-03 01:28:45 | 52.22218 | 11.68581 | 120° | 71km/h | 7169m | -7.1m/s | -251.2°C | 0% | 413.1hPa | 2.6V | 02:18:55 | 03:31:04 | 00:00:00 | |
| DO2SHX-10 | 2026-09-03 01:28:45 | 52.22218 | 11.68581 | 121° | 73km/h | 7169m | -7.1m/s | 0°C | 0% | 413.1hPa | 2.6V | 00:00:00 | 03:31:04 | 00:00:00 | |
| AM1SDL-15 | 2026-09-03 01:28:44 | 52.22227 | 11.68556 | 120° | 75km/h | 7176m | -7.2m/s | 0°C | 0% | 412.7hPa | 2.6V | 00:00:00 | 03:31:03 | 00:00:00 | |
| DO2SHX-10 | 2026-09-03 01:28:42 | 52.22246 | 11.68503 | 120° | 75km/h | 7190m | -6.5m/s | 0°C | 0% | 411.8hPa | 2.6V | 00:00:00 | 03:31:01 | 00:00:00 | |
| DO2SHX-10 | 2026-09-03 01:28:39 | 52.22273 | 11.68421 | 119° | 75km/h | 7209m | -7.3m/s | 0°C | 0% | 410.8hPa | 2.6V | 02:18:00 | 03:30:58 | 00:00:00 | |
| DL1XH1-15 | 2026-09-03 01:28:38 | 52.22329 | 11.68264 | 122° | 73km/h | 7250m | -6.9m/s | 0°C | 0% | 0hPa | 2.6V | 02:18:51 | 03:30:52 | 00:00:00 | |
| DF8AY | 2026-09-03 01:28:36 | 52.22300 | 11.68341 | 119° | 73km/h | 7230m | -7.1m/s | -251.1°C | 0% | 409.6hPa | 2.5V | 02:18:55 | 03:30:55 | 00:00:00 | |
| AA1-15 | 2026-09-03 01:28:35 | 52.22310 | 11.68315 | 122° | 71km/h | 7237m | -7.6m/s | -251.1°C | 0% | 409.3hPa | 2.6V | 02:18:55 | 03:30:54 | 00:00:00 | |
| DL1XH-west | 2026-09-03 01:28:34 | 52.22319 | 11.68289 | 121° | 73km/h | 7244m | -6.7m/s | -251.2°C | 0% | 408.9hPa | 2.6V | 02:18:55 | 03:30:53 | 00:00:00 | |
| DO2SHX-10 | 2026-09-03 01:28:33 | 52.22329 | 11.68264 | 123° | 73km/h | 7250m | -6.8m/s | 0°C | 0% | 408.5hPa | 2.5V | 00:00:00 | 03:30:52 | 00:00:00 | |
| DL1XH-15 | 2026-09-03 01:28:32 | 52.22360 | 11.68188 | 124° | 75km/h | 7271m | -7m/s | 0°C | 0% | 0hPa | 2.5V | 02:18:54 | 03:30:49 | 00:00:00 | |
| DF8AY-15 | 2026-09-03 01:28:31 | 52.22349 | 11.68213 | 125° | 78km/h | 7264m | -7.3m/s | 0°C | 0% | 407.7hPa | 2.5V | 00:00:00 | 03:30:50 | 00:00:00 | |
| DO2SHX-10 | 2026-09-03 01:28:30 | 52.22360 | 11.68188 | 125° | 75km/h | 7271m | -6.9m/s | 0°C | 0% | 407.4hPa | 2.5V | 02:18:00 | 03:30:49 | 00:00:00 | |
| DL1XH1-15 | 2026-09-03 01:28:28 | 52.22436 | 11.68006 | 122° | 78km/h | 7321m | -7.7m/s | 0°C | 0% | 0hPa | 2.6V | 02:19:01 | 03:30:42 | 00:00:00 | |
| DF8AY | 2026-09-03 01:28:25 | 52.22415 | 11.68060 | 124° | 78km/h | 7306m | -7.8m/s | -251.1°C | 0% | 405.3hPa | 2.5V | 02:20:37 | 03:30:44 | 00:00:00 | |
| AA1-15 | 2026-09-03 01:28:24 | 52.22425 | 11.68033 | 123° | 78km/h | 7314m | -7.5m/s | -251.1°C | 0% | 404.9hPa | 2.5V | 02:19:46 | 03:30:43 | 00:00:00 | |
| DL1XH-west | 2026-09-03 01:28:23 | 52.22436 | 11.68006 | 122° | 78km/h | 7321m | -7.7m/s | -251.1°C | 0% | 404.6hPa | 2.6V | 02:19:46 | 03:30:42 | 00:00:00 | |
| DL1XH-15 | 2026-09-03 01:28:22 | 52.22468 | 11.67923 | 122° | 78km/h | 7343m | -7.2m/s | 0°C | 0% | 0hPa | 2.5V | 02:19:04 | 03:30:39 | 00:00:00 | |
| DO2SHX-10 | 2026-09-03 01:28:21 | 52.22457 | 11.67951 | 123° | 78km/h | 7336m | -7.4m/s | 0°C | 0% | 403.7hPa | 2.6V | 02:19:00 | 03:30:40 | 00:00:00 | |
| AM1SDL-15 | 2026-09-03 01:28:19 | 52.22479 | 11.67896 | 123° | 82km/h | 7351m | -6.9m/s | 0°C | 0% | 402.8hPa | 2.5V | 00:00:00 | 03:30:38 | 00:00:00 | |
| DL1XH1-15 | 2026-09-03 01:28:18 | 52.22544 | 11.67727 | 121° | 82km/h | 7391m | -7.4m/s | 0°C | 0% | 0hPa | 2.5V | 02:19:11 | 03:30:32 | 00:00:00 | |
| DF8AY | 2026-09-03 01:28:14 | 52.22590 | 11.67610 | 122° | 84km/h | 7419m | -6.7m/s | -251.1°C | 0% | 399.2hPa | 2.6V | 02:20:37 | 03:30:28 | 00:00:00 | |
| AA1-15 | 2026-09-03 01:28:13 | 52.22545 | 11.67727 | 122° | 82km/h | 7391m | -7.4m/s | -251.1°C | 0% | 400.7hPa | 2.5V | 02:19:46 | 03:30:32 | 00:00:00 | |
| DL1XH-15 | 2026-09-03 01:28:12 | 52.22578 | 11.67639 | 122° | 84km/h | 7412m | -6.9m/s | 0°C | 0% | 0hPa | 2.6V | 02:19:14 | 03:30:29 | 00:00:00 | |
| DL1XH-west | 2026-09-03 01:28:12 | 52.22556 | 11.67698 | 122° | 84km/h | 7398m | -7.1m/s | -251.1°C | 0% | 400.3hPa | 2.5V | 02:19:46 | 03:30:31 | 00:00:00 | |
| DO2SHX-10 | 2026-09-03 01:28:12 | 52.22556 | 11.67697 | 123° | 84km/h | 7398m | -7.1m/s | 0°C | 0% | 400.3hPa | 2.5V | 02:19:00 | 03:30:31 | 00:00:00 | |
| DF8AY-15 | 2026-09-03 01:28:11 | 52.22567 | 11.67668 | 123° | 80km/h | 7405m | -7.1m/s | 0°C | 0% | 399.8hPa | 2.6V | 02:19:00 | 03:30:30 | 00:00:00 | |
| DO2SHX-10 | 2026-09-03 01:28:09 | 52.22590 | 11.67610 | 123° | 84km/h | 7419m | -6.6m/s | 0°C | 0% | 399.1hPa | 2.6V | 00:00:00 | 03:30:28 | 00:00:00 | |
| DL1XH1-15 | 2026-09-03 01:28:08 | 52.22657 | 11.67438 | 122° | 80km/h | 7460m | -6.5m/s | 0°C | 0% | 0hPa | 2.6V | 02:19:21 | 03:30:22 | 00:00:00 | |
| SONCRA | 2026-09-03 01:28:07 | 52.22624 | 11.67523 | 122° | 82km/h | 7439m | -7.4m/s | 0°C | -1.0% | 398.0hPa | 2.5V | 00:00:00 | 00:00:00 | 00:00:00 | |
| DO2SHX-10 | 2026-09-03 01:28:06 | 52.22624 | 11.67523 | 123° | 82km/h | 7439m | -7.4m/s | 0°C | 0% | 397.9hPa | 2.5V | 00:00:00 | 03:30:25 | 00:00:00 | |
| DL2RXE-15 | 2026-09-03 01:28:05 | 52.22624 | 11.67523 | 123° | 82km/h | 7439m | -7.4m/s | 0°C | 0% | 398.0hPa | 2.5V | 00:00:00 | 00:00:00 | 00:00:00 | |
| NBG1-10 | 2026-09-03 01:28:04 | 52.22646 | 11.67466 | 123° | 80km/h | 7454m | -6.9m/s | 0°C | 0% | 397.2hPa | 2.5V | 00:00:00 | 03:30:23 | 00:00:00 | |
| DF7ER-10 | 2026-09-03 01:28:03 | 52.22646 | 11.67466 | 123° | 80km/h | 7454m | -7.0m/s | 0°C | 0% | 397.3hPa | 2.5V | 02:19:00 | 00:00:00 | 00:00:00 | |
| DL1XH-15 | 2026-09-03 01:28:02 | 52.22689 | 11.67356 | 123° | 78km/h | 7480m | -7.1m/s | 0°C | 0% | 0hPa | 2.5V | 02:19:24 | 03:30:19 | 00:00:00 | |
| AA1-15 | 2026-09-03 01:28:02 | 52.22668 | 11.67411 | 123° | 78km/h | 7467m | -6.8m/s | -251.1°C | 0% | 396.5hPa | 2.5V | 02:19:46 | 03:30:21 | 00:00:00 | |
| DL1XH-west | 2026-09-03 01:28:01 | 52.22679 | 11.67384 | 123° | 78km/h | 7473m | -7m/s | -251.1°C | 0% | 396.1hPa | 2.5V | 02:19:46 | 03:30:20 | 00:00:00 | |
| DF8AY | 2026-09-03 01:27:59 | 52.22700 | 11.67329 | 123° | 77km/h | 7486m | -6.7m/s | -251.1°C | 0% | 395.3hPa | 2.6V | 02:20:37 | 03:30:18 | 00:00:00 | |
| DB0NH | 2026-09-03 01:27:59 | 52.22700 | 11.67329 | 124° | 80km/h | 7487m | -6.7m/s | 0°C | 0% | 395.3hPa | 2.6V | 02:19:00 | 03:30:18 | 00:00:00 | |
| DO2SHX-10 | 2026-09-03 01:27:57 | 52.22721 | 11.67275 | 123° | 78km/h | 7500m | -6.8m/s | 0°C | 0% | 394.6hPa | 2.5V | 00:00:00 | 03:30:16 | 00:00:00 | |
| AM1SDL-15 | 2026-09-03 01:27:55 | 52.22742 | 11.67219 | 122° | 80km/h | 7514m | -7.6m/s | 0°C | 0% | 393.9hPa | 2.5V | 02:19:00 | 03:30:14 | 00:00:00 | |
| DO2SHX-10 | 2026-09-03 01:27:54 | 52.22753 | 11.67191 | 122° | 80km/h | 7522m | -7.7m/s | 0°C | 0% | 393.5hPa | 2.5V | 02:19:00 | 03:30:13 | 00:00:00 | |
| DL1XH-15 | 2026-09-03 01:27:52 | 52.22795 | 11.67077 | 121° | 80km/h | 7551m | -7.3m/s | 0°C | 0% | 0hPa | 2.5V | 02:19:34 | 03:30:09 | 00:00:00 | |
| AA1-15 | 2026-09-03 01:27:52 | 52.22774 | 11.67134 | 120° | 82km/h | 7536m | -7.4m/s | -251.1°C | 0% | 392.8hPa | 2.6V | 02:19:46 | 03:30:11 | 00:00:00 | |
| DL1XH-west | 2026-09-03 01:27:51 | 52.22784 | 11.67105 | 121° | 82km/h | 7543m | -7.6m/s | -251.1°C | 0% | 392.3hPa | 2.6V | 02:19:46 | 03:30:10 | 00:00:00 | |
| DF8AY | 2026-09-03 01:27:48 | 52.22816 | 11.67020 | 122° | 82km/h | 7565m | -6.9m/s | -251.1°C | 0% | 391.1hPa | 2.5V | 02:20:37 | 03:30:07 | 00:00:00 | |
| EDDB2-12 | 2026-09-03 01:27:46 | 52.22838 | 11.66964 | 122° | 78km/h | 7579m | -7.5m/s | 0°C | -1.0% | 390.4hPa | 2.5V | 00:00:00 | 00:00:00 | 00:00:00 | |
| SONDE2-11 | 2026-09-03 01:27:44 | 52.22860 | 11.66908 | 122° | 80km/h | 7594m | -7.5m/s | 0°C | -1.0% | 389.6hPa | 2.5V | 00:00:00 | 00:00:00 | 00:00:00 | |
| AM1SDL-15 | 2026-09-03 01:27:43 | 52.22871 | 11.66880 | 123° | 80km/h | 7601m | -6.8m/s | 0°C | 0% | 389.1hPa | 2.5V | 00:00:00 | 03:30:02 | 00:00:00 | |
| DL1XH-15 | 2026-09-03 01:27:42 | 52.22904 | 11.66796 | 122° | 82km/h | 7621m | -7m/s | 0°C | 0% | 0hPa | 2.5V | 02:19:44 | 03:29:59 | 00:00:00 | |
| DL1XH-west | 2026-09-03 01:27:41 | 52.22893 | 11.66825 | 122° | 80km/h | 7615m | -7m/s | -251.1°C | 0% | 388.4hPa | 2.5V | 02:19:46 | 03:30:00 | 00:00:00 | |
| DO2SHX-10 | 2026-09-03 01:27:39 | 52.22915 | 11.66768 | 123° | 80km/h | 7628m | -7.5m/s | 0°C | 0% | 387.7hPa | 2.6V | 00:00:00 | 03:29:58 | 00:00:00 | |
| DL1XH1-15 | 2026-09-03 01:27:38 | 52.22982 | 11.66606 | 123° | 80km/h | 7672m | -6.7m/s | 0°C | 0% | 0hPa | 2.6V | 02:19:51 | 03:29:52 | 00:00:00 | |
| DF8AY | 2026-09-03 01:27:37 | 52.22937 | 11.66713 | 124° | 78km/h | 7643m | -7.6m/s | -251.1°C | 0% | 386.9hPa | 2.5V | 02:20:37 | 03:29:56 | 00:00:00 | |
| DO2SHX-10 | 2026-09-03 01:27:36 | 52.22949 | 11.66686 | 125° | 78km/h | 7650m | -8.1m/s | 0°C | 0% | 386.5hPa | 2.5V | 02:19:00 | 03:29:55 | 00:00:00 | |
| DL1CLM-18 | 2026-09-03 01:27:35 | 52.22948 | 11.66686 | 125° | 78km/h | 7650m | -8.1m/s | 0°C | 0% | 386.5hPa | 2.5V | 00:00:00 | 00:00:00 | 00:00:00 | |
| DO2SHX-10 | 2026-09-03 01:27:33 | 52.22982 | 11.66606 | 124° | 80km/h | 7672m | -6.7m/s | 0°C | 0% | 385.4hPa | 2.5V | 00:00:00 | 03:29:52 | 00:00:00 | |
| DL1XH-15 | 2026-09-03 01:27:32 | 52.23016 | 11.66523 | 123° | 80km/h | 7691m | -6.7m/s | 0°C | 0% | 0hPa | 2.5V | 02:19:54 | 03:29:49 | 00:00:00 | |
| DL1XH-west | 2026-09-03 01:27:31 | 52.23004 | 11.66551 | 123° | 80km/h | 7685m | -6.5m/s | -251.1°C | 0% | 384.7hPa | 2.5V | 02:20:37 | 03:29:50 | 00:00:00 | |
| AA1-15 | 2026-09-03 01:27:30 | 52.23016 | 11.66523 | 124° | 80km/h | 7691m | -6.7m/s | -251.1°C | 0% | 384.2hPa | 2.5V | 02:20:37 | 03:29:49 | 00:00:00 | |
| DF8AY | 2026-09-03 01:27:27 | 52.23050 | 11.66441 | 125° | 80km/h | 7711m | -7.4m/s | -251.1°C | 0% | 383.2hPa | 2.6V | 02:20:37 | 03:29:46 | 00:00:00 | |
| DO2SHX-10 | 2026-09-03 01:27:27 | 52.23050 | 11.66440 | 126° | 80km/h | 7711m | -7.3m/s | 0°C | 0% | 383.2hPa | 2.6V | 02:19:00 | 03:29:46 | 00:00:00 | |
| DB0DAN | 2026-09-03 01:27:25 | 52.23074 | 11.66386 | 126° | 77km/h | 7725m | -7.5m/s | -251.1°C | 0% | 382.4hPa | 2.5V | 00:00:00 | 00:00:00 | 00:00:00 | |
| DO2SHX-10 | 2026-09-03 01:27:24 | 52.23086 | 11.66360 | 126° | 80km/h | 7732m | -7.2m/s | 0°C | 0% | 381.9hPa | 2.6V | 00:00:00 | 03:29:43 | 00:00:00 | |
| DL1XH-15 | 2026-09-03 01:27:22 | 52.23132 | 11.66251 | 123° | 80km/h | 7761m | -7.5m/s | 0°C | 0% | 0hPa | 2.6V | 02:20:04 | 03:29:39 | 00:00:00 | |
| DL1XH-west | 2026-09-03 01:27:20 | 52.23132 | 11.66251 | 124° | 80km/h | 7761m | -7.5m/s | -251.1°C | 0% | 380.6hPa | 2.6V | 02:20:37 | 03:29:39 | 00:00:00 | |
| AA1-15 | 2026-09-03 01:27:19 | 52.23143 | 11.66224 | 123° | 80km/h | 7768m | -7.7m/s | -251.1°C | 0% | 380.1hPa | 2.5V | 02:20:37 | 03:29:38 | 00:00:00 | |
| DL1XH1-15 | 2026-09-03 01:27:18 | 52.23210 | 11.66053 | 122° | 82km/h | 7812m | -7.7m/s | 0°C | 0% | 0hPa | 2.5V | 02:20:11 | 03:29:32 | 00:00:00 | |
| DF8AY | 2026-09-03 01:27:17 | 52.23278 | 11.65880 | 122° | 82km/h | 7853m | -6.9m/s | -251.1°C | 0% | 375.7hPa | 2.6V | 02:20:37 | 03:29:26 | 00:00:00 | |
| DO2SHX-10 | 2026-09-03 01:27:15 | 52.23188 | 11.66110 | 123° | 82km/h | 7796m | -7.9m/s | 0°C | 0% | 378.6hPa | 2.5V | 00:00:00 | 03:29:34 | 00:00:00 | |
| SONDE2-11 | 2026-09-03 01:27:13 | 52.23210 | 11.66053 | 122° | 82km/h | 7812m | -7.7m/s | 0°C | -1.0% | 377.8hPa | 2.5V | 00:00:00 | 00:00:00 | 00:00:00 | |
| DL1XH-15 | 2026-09-03 01:27:12 | 52.23244 | 11.65967 | 122° | 84km/h | 7833m | -6.8m/s | 0°C | 0% | 0hPa | 2.5V | 02:20:14 | 03:29:29 | 00:00:00 | |
| DF8AY | 2026-09-03 01:27:11 | 52.23289 | 11.65851 | 123° | 82km/h | 7860m | -6.7m/s | -251.1°C | 0% | 375.2hPa | 2.6V | 02:20:37 | 03:29:25 | 00:00:00 | |
| AA1-15 | 2026-09-03 01:27:08 | 52.23267 | 11.65909 | 122° | 84km/h | 7846m | -7m/s | -251.1°C | 0% | 376.1hPa | 2.5V | 02:20:37 | 03:29:27 | 00:00:00 | |
| DL1XH-west | 2026-09-03 01:26:59 | 52.23367 | 11.65650 | 122° | 82km/h | 7908m | -7.1m/s | -251.1°C | 0% | 372.8hPa | 2.6V | 02:20:37 | 03:29:18 | 00:00:00 | |
| AA1-15 | 2026-09-03 01:26:58 | 52.23378 | 11.65621 | 121° | 82km/h | 7915m | -7m/s | -251.1°C | 0% | 372.5hPa | 2.5V | 02:20:37 | 03:29:17 | 00:00:00 | |
| DF8AY | 2026-09-03 01:26:55 | 52.23410 | 11.65533 | 121° | 82km/h | 7935m | -7.4m/s | -251.1°C | 0% | 371.4hPa | 2.6V | 02:20:37 | 03:29:14 | 00:00:00 | |
| AM1SDL-15 | 2026-09-03 01:26:55 | 52.23410 | 11.65533 | 121° | 84km/h | 7936m | -7.3m/s | 0°C | 0% | 371.3hPa | 2.6V | 00:00:00 | 03:29:14 | 00:00:00 | |
| DO2SHX-10 | 2026-09-03 01:26:54 | 52.23421 | 11.65504 | 121° | 82km/h | 7943m | -7.2m/s | 0°C | 0% | 370.9hPa | 2.6V | 00:00:00 | 03:29:13 | 00:00:00 | |
| DO2SHX-10 | 2026-09-03 01:26:51 | 52.23453 | 11.65416 | 121° | 84km/h | 7964m | -7.3m/s | 0°C | 0% | 369.9hPa | 2.6V | 02:20:00 | 03:29:10 | 00:00:00 | |
| DL1CLM-18 | 2026-09-03 01:26:50 | 52.23453 | 11.65416 | 121° | 84km/h | 7964m | -7.3m/s | 0°C | 0% | 369.9hPa | 2.5V | 00:00:00 | 00:00:00 | 00:00:00 | |
| DL1XH1-15 | 2026-09-03 01:26:48 | 52.23539 | 11.65175 | 121° | 84km/h | 8019m | -7.1m/s | 0°C | 0% | 0hPa | 2.5V | 02:20:41 | 03:29:02 | 00:00:00 | |
| DL1XH-west | 2026-09-03 01:26:48 | 52.23485 | 11.65326 | 120° | 84km/h | 7985m | -7.6m/s | -251.1°C | 0% | 368.8hPa | 2.5V | 02:20:37 | 03:29:07 | 00:00:00 | |
| AA1-15 | 2026-09-03 01:26:47 | 52.23495 | 11.65295 | 120° | 84km/h | 7992m | -7.2m/s | -251.1°C | 0% | 368.4hPa | 2.5V | 02:20:37 | 03:29:06 | 00:00:00 | |
| DF8AY | 2026-09-03 01:26:44 | 52.23528 | 11.65204 | 121° | 86km/h | 8012m | -7.1m/s | -251.1°C | 0% | 367.4hPa | 2.6V | 02:21:28 | 03:29:03 | 00:00:00 | |
| EDDB2-12 | 2026-09-03 01:26:44 | 52.23528 | 11.65204 | 120° | 84km/h | 8012m | -7.1m/s | 0°C | -1.0% | 367.4hPa | 2.5V | 00:00:00 | 00:00:00 | 00:00:00 | |
| AM1SDL-15 | 2026-09-03 01:26:43 | 52.23539 | 11.65175 | 122° | 84km/h | 8019m | -7.0m/s | 0°C | 0% | 366.9hPa | 2.5V | 02:20:00 | 03:29:02 | 00:00:00 | |
| DL1XH-15 | 2026-09-03 01:26:42 | 52.23571 | 11.65085 | 119° | 84km/h | 8040m | -7.1m/s | 0°C | 0% | 0hPa | 2.6V | 02:20:44 | 03:28:59 | 00:00:00 | |
| DO2SHX-10 | 2026-09-03 01:26:42 | 52.23550 | 11.65145 | 121° | 84km/h | 8026m | -7.3m/s | 0°C | 0% | 366.6hPa | 2.5V | 02:20:00 | 03:29:01 | 00:00:00 | |
| DB0DAN | 2026-09-03 01:26:40 | 52.23571 | 11.65085 | 120° | 80km/h | 8040m | -7.1m/s | -251.1°C | 0% | 365.89hPa | 2.6V | 00:00:00 | 00:00:00 | 00:00:00 | |
| DO2SHX-10 | 2026-09-03 01:26:39 | 52.23582 | 11.65055 | 120° | 82km/h | 8047m | -7.0m/s | 0°C | 0% | 365.5hPa | 2.6V | 00:00:00 | 03:28:58 | 00:00:00 | |
| DL1XH1-15 | 2026-09-03 01:26:38 | 52.23644 | 11.64878 | 119° | 82km/h | 8091m | -7m/s | 0°C | 0% | 0hPa | 2.6V | 02:20:51 | 03:28:52 | 00:00:00 | |
| DL1XH-west | 2026-09-03 01:26:37 | 52.23602 | 11.64996 | 119° | 82km/h | 8061m | -7.7m/s | -251.1°C | 0% | 364.9hPa | 2.5V | 02:21:28 | 03:28:56 | 00:00:00 | |
| AA1-15 | 2026-09-03 01:26:36 | 52.23613 | 11.64967 | 120° | 82km/h | 8069m | -7.6m/s | -251.1°C | 0% | 364.5hPa | 2.5V | 02:21:28 | 03:28:55 | 00:00:00 | |
| DF8AY | 2026-09-03 01:26:35 | 52.23633 | 11.64908 | 120° | 82km/h | 8084m | -7.3m/s | -251.1°C | 0% | 363.7hPa | 2.5V | 02:21:28 | 03:28:53 | 00:00:00 | |
| SONCRA | 2026-09-03 01:26:34 | 52.23644 | 11.64878 | 119° | 82km/h | 8091m | -7.1m/s | 0°C | -1.0% | 363.3hPa | 2.6V | 00:00:00 | 00:00:00 | 00:00:00 | |
| DO2SHX-10 | 2026-09-03 01:26:33 | 52.23644 | 11.64878 | 120° | 84km/h | 8091m | -7.0m/s | 0°C | 0% | 363.2hPa | 2.6V | 02:20:00 | 03:28:52 | 00:00:00 | |
| DL1XH-15 | 2026-09-03 01:26:32 | 52.23676 | 11.64789 | 120° | 84km/h | 8111m | -7.2m/s | 0°C | 0% | 0hPa | 2.5V | 02:20:54 | 03:28:49 | 00:00:00 | |
| DF8AY-15 | 2026-09-03 01:26:31 | 52.23665 | 11.64819 | 121° | 82km/h | 8104m | -6.8m/s | 0°C | 0% | 362.6hPa | 2.5V | 00:00:00 | 03:28:50 | 00:00:00 | |
| DO2SHX-10 | 2026-09-03 01:26:30 | 52.23676 | 11.64789 | 121° | 84km/h | 8111m | -7.1m/s | 0°C | 0% | 362.3hPa | 2.5V | 00:00:00 | 03:28:49 | 00:00:00 | |
| DB0NH | 2026-09-03 01:26:29 | 52.23687 | 11.64759 | 122° | 80km/h | 8118m | -7.3m/s | 0°C | 0% | 361.8hPa | 2.5V | 02:20:00 | 03:28:48 | 00:00:00 | |
| DL1XH1-15 | 2026-09-03 01:26:28 | 52.23752 | 11.64582 | 118° | 82km/h | 8158m | -6.7m/s | 0°C | 0% | 0hPa | 2.5V | 02:21:01 | 03:28:42 | 00:00:00 | |
| AA1-15 | 2026-09-03 01:26:26 | 52.23720 | 11.64670 | 121° | 84km/h | 8138m | -6.9m/s | -251.1°C | 0% | 360.9hPa | 2.6V | 02:21:28 | 03:28:45 | 00:00:00 | |
| DF8AY | 2026-09-03 01:26:23 | 52.23752 | 11.64582 | 119° | 82km/h | 8158m | -6.7m/s | -251.1°C | 0% | 360hPa | 2.5V | 02:21:28 | 03:28:42 | 00:00:00 | |
| DO2SHX-10 | 2026-09-03 01:26:21 | 52.23772 | 11.64523 | 120° | 80km/h | 8171m | -6.5m/s | 0°C | 0% | 359.2hPa | 2.5V | 00:00:00 | 03:28:40 | 00:00:00 | |
| AM1SDL-15 | 2026-09-03 01:26:19 | 52.23793 | 11.64466 | 121° | 80km/h | 8184m | -6.7m/s | 0°C | 0% | 358.5hPa | 2.5V | 00:00:00 | 03:28:38 | 00:00:00 | |
| DL1XH1-15 | 2026-09-03 01:26:18 | 52.23854 | 11.64295 | 119° | 80km/h | 8224m | -6.8m/s | 0°C | 0% | 0hPa | 2.5V | 02:21:11 | 03:28:32 | 00:00:00 | |
| DL1XH-west | 2026-09-03 01:26:16 | 52.23824 | 11.64381 | 121° | 78km/h | 8204m | -6.8m/s | -251.1°C | 0% | 357.5hPa | 2.6V | 02:21:28 | 03:28:35 | 00:00:00 | |
| AA1-15 | 2026-09-03 01:26:15 | 52.23834 | 11.64352 | 119° | 80km/h | 8211m | -6.8m/s | -251.1°C | 0% | 357.1hPa | 2.6V | 02:21:28 | 03:28:34 | 00:00:00 | |
| DF8AY | 2026-09-03 01:26:12 | 52.23864 | 11.64266 | 118° | 80km/h | 8231m | -6.6m/s | -251.1°C | 0% | 356.1hPa | 2.5V | 02:21:28 | 03:28:31 | 00:00:00 | |
| DO2SHX-10 | 2026-09-03 01:26:12 | 52.23864 | 11.64266 | 119° | 80km/h | 8231m | -6.6m/s | 0°C | 0% | 356.1hPa | 2.5V | 00:00:00 | 03:28:31 | 00:00:00 | |
| DF8AY-15 | 2026-09-03 01:26:11 | 52.23873 | 11.64237 | 119° | 78km/h | 8237m | -6.6m/s | 0°C | 0% | 355.7hPa | 2.5V | 02:21:00 | 03:28:30 | 00:00:00 | |
| DO2SHX-10 | 2026-09-03 01:26:09 | 52.23892 | 11.64178 | 117° | 78km/h | 8251m | -6.8m/s | 0°C | 0% | 355.1hPa | 2.5V | 00:00:00 | 03:28:28 | 00:00:00 | |
| DL1XH1-15 | 2026-09-03 01:26:08 | 52.23946 | 11.64007 | 119° | 77km/h | 8291m | -7m/s | 0°C | 0% | 0hPa | 2.5V | 02:21:21 | 03:28:22 | 00:00:00 | |
| DL1XH-west | 2026-09-03 01:26:06 | 52.23928 | 11.64062 | 117° | 77km/h | 8278m | -6.5m/s | -251.1°C | 0% | 353.8hPa | 2.6V | 02:21:28 | 03:28:24 | 00:00:00 | |
| AA1-15 | 2026-09-03 01:26:04 | 52.23937 | 11.64034 | 118° | 77km/h | 8284m | -6.8m/s | -251.1°C | 0% | 353.4hPa | 2.5V | 02:21:28 | 03:28:23 | 00:00:00 | |
| DF8AY | 2026-09-03 01:26:01 | 52.23965 | 11.63952 | 121° | 78km/h | 8305m | -7.4m/s | -251.1°C | 0% | 352.4hPa | 2.6V | 02:21:28 | 03:28:20 | 00:00:00 | |
| DO2SHX-10 | 2026-09-03 01:26:00 | 52.23975 | 11.63924 | 121° | 78km/h | 8312m | -7.2m/s | 0°C | 0% | 352.0hPa | 2.5V | 00:00:00 | 03:28:19 | 00:00:00 | |
| DB0NH | 2026-09-03 01:25:59 | 52.23986 | 11.63896 | 122° | 77km/h | 8319m | -7.2m/s | 0°C | 0% | 351.6hPa | 2.5V | 00:00:00 | 03:28:18 | 00:00:00 | |
| DL1XH1-15 | 2026-09-03 01:25:58 | 52.24049 | 11.63734 | 122° | 77km/h | 8361m | -7.2m/s | 0°C | 0% | 0hPa | 2.5V | 02:21:31 | 03:28:12 | 00:00:00 | |
| DL1XH-west | 2026-09-03 01:25:54 | 52.24038 | 11.63761 | 123° | 77km/h | 8354m | -6.9m/s | -251.1°C | 0% | 350hPa | 2.6V | 02:22:19 | 03:28:13 | 00:00:00 | |
| AA1-15 | 2026-09-03 01:25:53 | 52.24049 | 11.63734 | 123° | 77km/h | 8361m | -7.2m/s | -251.1°C | 0% | 349.6hPa | 2.5V | 02:22:19 | 03:28:12 | 00:00:00 | |
| DF8AY | 2026-09-03 01:25:50 | 52.24079 | 11.63656 | 122° | 73km/h | 8381m | -6.7m/s | -251.1°C | 0% | 348.6hPa | 2.6V | 02:22:19 | 03:28:09 | 00:00:00 | |
| DL1XH1-15 | 2026-09-03 01:25:48 | 52.24144 | 11.63472 | 119° | 77km/h | 8428m | -6.7m/s | 0°C | 0% | 0hPa | 2.6V | 02:21:41 | 03:28:02 | 00:00:00 | |
| DL1XH-west | 2026-09-03 01:25:44 | 52.24135 | 11.63499 | 119° | 75km/h | 8422m | -7.1m/s | -251.1°C | 0% | 346.7hPa | 2.6V | 02:22:19 | 03:28:03 | 00:00:00 | |
| AA1-15 | 2026-09-03 01:25:43 | 52.24144 | 11.63472 | 119° | 77km/h | 8428m | -6.7m/s | -251.1°C | 0% | 346.4hPa | 2.6V | 02:22:19 | 03:28:02 | 00:00:00 | |
| DL1XH-west | 2026-09-03 01:25:34 | 52.24235 | 11.63232 | 123° | 75km/h | 8489m | -7.2m/s | -251.1°C | 0% | 343.4hPa | 2.5V | 02:22:19 | 03:27:53 | 00:00:00 | |
| AA1-15 | 2026-09-03 01:25:33 | 52.24257 | 11.63180 | 124° | 77km/h | 8502m | -6.5m/s | -251.1°C | 0% | 342.8hPa | 2.6V | 02:22:19 | 03:27:51 | 00:00:00 | |
| DF8AY | 2026-09-03 01:25:28 | 52.24299 | 11.63074 | 122° | 77km/h | 8529m | -6.7m/s | -251.1°C | 0% | 341.4hPa | 2.6V | 02:22:19 | 03:27:47 | 00:00:00 | |
| DL1XH-west | 2026-09-03 01:25:24 | 52.24341 | 11.62965 | 121° | 78km/h | 8555m | -6.9m/s | -251.1°C | 0% | 340.2hPa | 2.5V | 02:22:19 | 03:27:43 | 00:00:00 | |
| DO2SHX-10 | 2026-09-03 01:25:24 | 52.24341 | 11.62965 | 122° | 78km/h | 8555m | -6.8m/s | 0°C | 0% | 340.1hPa | 2.5V | 00:00:00 | 03:27:43 | 00:00:00 | |
| DL1XH-15 | 2026-09-03 01:25:22 | 52.24384 | 11.62855 | 122° | 80km/h | 8583m | -6.9m/s | 0°C | 0% | 0hPa | 2.5V | 02:22:04 | 03:27:39 | 00:00:00 | |
| AA1-15 | 2026-09-03 01:25:22 | 52.24362 | 11.62910 | 122° | 78km/h | 8569m | -7.2m/s | -251.1°C | 0% | 339.6hPa | 2.6V | 02:22:19 | 03:27:41 | 00:00:00 | |
| DF8AY | 2026-09-03 01:25:17 | 52.24417 | 11.62773 | 123° | 82km/h | 8603m | -6.7m/s | -251.1°C | 0% | 337.7hPa | 2.6V | 02:22:19 | 03:27:36 | 00:00:00 | |
| DL1XH-west | 2026-09-03 01:25:14 | 52.24450 | 11.62688 | 122° | 80km/h | 8623m | -6.5m/s | -251.1°C | 0% | 336.7hPa | 2.5V | 02:22:19 | 03:27:33 | 00:00:00 | |
| DL1XH-15 | 2026-09-03 01:25:12 | 52.24493 | 11.62578 | 122° | 78km/h | 8649m | -6.6m/s | 0°C | 0% | 0hPa | 2.6V | 02:22:14 | 03:27:29 | 00:00:00 | |
| AA1-15 | 2026-09-03 01:25:12 | 52.24472 | 11.62633 | 123° | 78km/h | 8636m | -6.4m/s | -251.1°C | 0% | 336.3hPa | 2.5V | 02:22:19 | 03:27:31 | 00:00:00 | |
| DF8AY | 2026-09-03 01:25:08 | 52.24526 | 11.62497 | 125° | 80km/h | 8669m | -7.3m/s | -251.1°C | 0% | 334.5hPa | 2.5V | 02:22:19 | 03:27:26 | 00:00:00 | |
| DL1XH1-15 | 2026-09-03 01:25:08 | 52.24574 | 11.62390 | 126° | 80km/h | 8697m | -6.9m/s | 0°C | 0% | 0hPa | 2.5V | 02:22:21 | 03:27:22 | 00:00:00 | |
| DL1XH-west | 2026-09-03 01:25:03 | 52.24574 | 11.62390 | 126° | 80km/h | 8697m | -6.9m/s | -251.1°C | 0% | 333.1hPa | 2.5V | 02:23:10 | 03:27:22 | 00:00:00 | |
| DO2SHX-10 | 2026-09-03 01:25:03 | 52.24574 | 11.62390 | 127° | 82km/h | 8697m | -6.9m/s | 0°C | 0% | 333.0hPa | 2.5V | 02:22:00 | 03:27:22 | 00:00:00 | |
| DL1XH-15 | 2026-09-03 01:25:02 | 52.24610 | 11.62306 | 123° | 82km/h | 8716m | -7.2m/s | 0°C | 0% | 0hPa | 2.5V | 02:22:24 | 03:27:19 | 00:00:00 | |
| AA1-15 | 2026-09-03 01:25:01 | 52.24598 | 11.62335 | 124° | 82km/h | 8710m | -6.5m/s | -251.1°C | 0% | 332.5hPa | 2.5V | 02:23:10 | 03:27:20 | 00:00:00 | |
| SONCRA | 2026-09-03 01:25:00 | 52.24610 | 11.62306 | 123° | 82km/h | 8716m | -7.2m/s | 0°C | -1.0% | 332.2hPa | 2.6V | 00:00:00 | 00:00:00 | 00:00:00 | |
| S3001 | 2026-09-03 01:24:58 | 52.24643 | 11.62222 | 122° | 78km/h | 8737m | -7.3m/s | 0°C | -1.0% | 331.2hPa | 2.6V | 00:00:00 | 00:00:00 | 00:00:00 | |
| DL1XH1-15 | 2026-09-03 01:24:57 | 52.24688 | 11.62112 | 123° | 78km/h | 8764m | -6.9m/s | 0°C | 0% | 0hPa | 2.6V | 02:22:31 | 03:27:12 | 00:00:00 | |
| DF8AY | 2026-09-03 01:24:57 | 52.24643 | 11.62222 | 123° | 80km/h | 8737m | -7.3m/s | -251.1°C | 0% | 331.2hPa | 2.5V | 02:23:10 | 03:27:16 | 00:00:00 | |
| DO2SHX-10 | 2026-09-03 01:24:57 | 52.24643 | 11.62222 | 123° | 80km/h | 8737m | -7.3m/s | 0°C | 0% | 331.2hPa | 2.5V | 00:00:00 | 03:27:16 | 00:00:00 | |
| DB0UT-7 | 2026-09-03 01:24:56 | 52.24654 | 11.62194 | 124° | 78km/h | 8744m | -6.9m/s | 0°C | 0% | 330.8hPa | 2.5V | 00:00:00 | 00:00:00 | 00:00:00 | |
| DL1XH-15 | 2026-09-03 01:24:55 | 52.24722 | 11.62032 | 125° | 78km/h | 8785m | -7.2m/s | 0°C | 0% | 0hPa | 2.5V | 02:22:34 | 03:27:09 | 00:00:00 | |
| DL1XH-west | 2026-09-03 01:24:52 | 52.24699 | 11.62085 | 125° | 78km/h | 8771m | -6.7m/s | -251.1°C | 0% | 329.6hPa | 2.6V | 02:23:10 | 03:27:11 | 00:00:00 | |
| AA1-15 | 2026-09-03 01:24:51 | 52.24710 | 11.62059 | 125° | 78km/h | 8778m | -6.7m/s | -251.1°C | 0% | 329.4hPa | 2.5V | 02:23:10 | 03:27:10 | 00:00:00 | |
| DF8AY | 2026-09-03 01:24:47 | 52.24767 | 11.61929 | 126° | 77km/h | 8811m | -6m/s | -251.1°C | 0% | 327.7hPa | 2.5V | 02:23:10 | 03:27:05 | 00:00:00 | |
| DL1XH1-15 | 2026-09-03 01:24:46 | 52.24802 | 11.61852 | 126° | 78km/h | 8829m | -6.5m/s | 0°C | 0% | 0hPa | 2.5V | 02:22:41 | 03:27:02 | 00:00:00 | |
| DL1XH-west | 2026-09-03 01:24:42 | 52.24814 | 11.61825 | 126° | 80km/h | 8836m | -6.9m/s | -251.1°C | 0% | 326.5hPa | 2.5V | 02:23:10 | 03:27:01 | 00:00:00 | |
| DO2SHX-10 | 2026-09-03 01:24:42 | 52.24814 | 11.61825 | 127° | 80km/h | 8836m | -6.8m/s | 0°C | 0% | 326.4hPa | 2.6V | 00:00:00 | 03:27:01 | 00:00:00 | |
| DL1XH-15 | 2026-09-03 01:24:41 | 52.24838 | 11.61772 | 126° | 80km/h | 8849m | -6.3m/s | 0°C | 0% | 0hPa | 2.6V | 02:22:44 | 03:26:59 | 00:00:00 | |
| AA1-15 | 2026-09-03 01:24:41 | 52.24826 | 11.61799 | 126° | 80km/h | 8843m | -6.3m/s | -251.1°C | 0% | 326.1hPa | 2.6V | 02:23:10 | 03:27:00 | 00:00:00 | |
| EDDB2-12 | 2026-09-03 01:24:40 | 52.24838 | 11.61772 | 126° | 80km/h | 8849m | -6.3m/s | 0°C | -1.0% | 325.9hPa | 2.5V | 00:00:00 | 00:00:00 | 00:00:00 | |
| DO2SHX-10 | 2026-09-03 01:24:39 | 52.24850 | 11.61745 | 127° | 82km/h | 8855m | -6.1m/s | 0°C | 0% | 325.6hPa | 2.5V | 00:00:00 | 03:26:58 | 00:00:00 | |
| SONDE2-11 | 2026-09-03 01:24:38 | 52.24862 | 11.61718 | 126° | 80km/h | 8861m | -6.3m/s | 0°C | -1.0% | 325.3hPa | 2.5V | 00:00:00 | 00:00:00 | 00:00:00 | |
| DL1XH1-15 | 2026-09-03 01:24:36 | 52.24921 | 11.61588 | 127° | 75km/h | 8893m | -6.3m/s | 0°C | 0% | 0hPa | 2.5V | 02:22:51 | 03:26:52 | 00:00:00 | |
| DL1XH-west | 2026-09-03 01:24:31 | 52.24946 | 11.61540 | 130° | 75km/h | 8907m | -6.9m/s | -251.1°C | 0% | 323.2hPa | 2.5V | 02:23:10 | 03:26:50 | 00:00:00 | |
| DL1XH-15 | 2026-09-03 01:24:31 | 52.24958 | 11.61516 | 130° | 77km/h | 8913m | -6.8m/s | 0°C | 0% | 0hPa | 2.6V | 02:22:54 | 03:26:49 | 00:00:00 | |
| AA1-15 | 2026-09-03 01:24:30 | 52.24958 | 11.61516 | 131° | 77km/h | 8913m | -6.8m/s | -251.1°C | 0% | 322.9hPa | 2.6V | 02:23:10 | 03:26:49 | 00:00:00 | |
| DF8AY | 2026-09-03 01:24:25 | 52.25022 | 11.61392 | 129° | 80km/h | 8946m | -6.6m/s | -251.1°C | 0% | 321.3hPa | 2.5V | 02:23:10 | 03:26:44 | 00:00:00 | |
| HSKMA3-T | 2026-09-03 01:24:23 | 52.25048 | 11.61340 | 128° | 82km/h | 8959m | -6.9m/s | -251.1°C | 0% | 320.7hPa | 2.6V | 02:23:10 | 03:26:42 | 00:00:00 | |
| DL1XH-west | 2026-09-03 01:24:20 | 52.25085 | 11.61260 | 127° | 80km/h | 8978m | -7.2m/s | -251.1°C | 0% | 319.8hPa | 2.5V | 02:23:10 | 03:26:39 | 00:00:00 | |
| AA1-15 | 2026-09-03 01:24:19 | 52.25097 | 11.61233 | 127° | 78km/h | 8985m | -6.9m/s | -251.1°C | 0% | 319.5hPa | 2.5V | 02:23:10 | 03:26:38 | 00:00:00 | |
| DO2SHX-10 | 2026-09-03 01:24:18 | 52.25109 | 11.61207 | 127° | 80km/h | 8992m | -7.1m/s | 0°C | 0% | 319.1hPa | 2.5V | 02:23:00 | 03:26:37 | 00:00:00 | |
| AM1SDL-15 | 2026-09-03 01:24:17 | 52.25121 | 11.61181 | 126° | 80km/h | 8999m | -7.4m/s | 0°C | 0% | 318.8hPa | 2.5V | 02:23:00 | 03:26:36 | 00:00:00 | |
| DL1XH1-15 | 2026-09-03 01:24:16 | 52.25169 | 11.61074 | 126° | 78km/h | 9026m | -7.1m/s | 0°C | 0% | 0hPa | 2.5V | 02:23:11 | 03:26:32 | 00:00:00 | |
| DF8AY | 2026-09-03 01:24:15 | 52.25145 | 11.61127 | 126° | 80km/h | 9013m | -6.8m/s | -251.1°C | 0% | 318.2hPa | 2.6V | 02:23:10 | 03:26:34 | 00:00:00 | |
| SMARD9-10 | 2026-09-03 01:24:13 | 52.25156 | 11.61101 | 128° | 80km/h | 9020m | -6.9m/s | 0°C | 0% | 317.9hPa | 2.6V | 02:23:00 | 00:00:00 | 00:00:00 | |
| DO2SHX-10 | 2026-09-03 01:24:12 | 52.25181 | 11.61048 | 128° | 80km/h | 9034m | -7.3m/s | 0°C | 0% | 317.2hPa | 2.6V | 00:00:00 | 03:26:31 | 00:00:00 | |
| DL1XH-15 | 2026-09-03 01:24:11 | 52.25206 | 11.60996 | 128° | 80km/h | 9047m | -6.1m/s | 0°C | 0% | 0hPa | 2.6V | 02:23:14 | 03:26:29 | 00:00:00 | |
| AA1-15 | 2026-09-03 01:24:09 | 52.25219 | 11.60970 | 129° | 80km/h | 9053m | -7m/s | -251.1°C | 0% | 316.4hPa | 2.5V | 02:24:01 | 03:26:28 | 00:00:00 | |
| HSKMA3-T | 2026-09-03 01:24:07 | 52.25244 | 11.60919 | 129° | 80km/h | 9066m | -6.6m/s | -251.1°C | 0% | 315.7hPa | 2.5V | 02:26:34 | 03:26:26 | 00:00:00 | |
| DO2SHX-10 | 2026-09-03 01:24:06 | 52.25258 | 11.60892 | 130° | 84km/h | 9073m | -7.2m/s | 0°C | 0% | 315.4hPa | 2.5V | 00:00:00 | 03:26:25 | 00:00:00 | |
| DL1XH-15 | 2026-09-03 01:24:05 | 52.25339 | 11.60722 | 125° | 91km/h | 9116m | -6.4m/s | 0°C | 0% | 0hPa | 2.5V | 02:23:24 | 03:26:19 | 00:00:00 | |
| DF8AY | 2026-09-03 01:24:04 | 52.25284 | 11.60838 | 128° | 86km/h | 9088m | -6.7m/s | -251.1°C | 0% | 314.7hPa | 2.6V | 02:24:01 | 03:26:23 | 00:00:00 | |
| AA1-15 | 2026-09-03 01:23:58 | 52.25365 | 11.60661 | 125° | 91km/h | 9130m | -6.6m/s | -251.1°C | 0% | 312.9hPa | 2.6V | 02:24:01 | 03:26:17 | 00:00:00 | |
| HSKMA3-T | 2026-09-03 01:23:56 | 52.25391 | 11.60599 | 125° | 91km/h | 9143m | -6.6m/s | -251.1°C | 0% | 312.2hPa | 2.5V | 02:26:34 | 03:26:15 | 00:00:00 | |
| DF8AY | 2026-09-03 01:23:54 | 52.25430 | 11.60510 | 127° | 86km/h | 9163m | -6.7m/s | -251.1°C | 0% | 311.3hPa | 2.5V | 02:24:01 | 03:26:12 | 00:00:00 | |
| AM1SDL-15 | 2026-09-03 01:23:52 | 52.25443 | 11.60483 | 129° | 95km/h | 9170m | -6.9m/s | 0°C | 0% | 311.0hPa | 2.5V | 00:00:00 | 03:26:11 | 00:00:00 | |
| DL1XH-15 | 2026-09-03 01:23:51 | 52.25472 | 11.60430 | 132° | 88km/h | 9183m | -7.1m/s | 0°C | 0% | 0hPa | 2.5V | 02:23:34 | 03:26:09 | 00:00:00 | |
| DL1XH-west | 2026-09-03 01:23:48 | 52.25503 | 11.60375 | 134° | 95km/h | 9197m | -7.3m/s | -251.1°C | 0% | 309.8hPa | 2.5V | 02:24:01 | 03:26:07 | 00:00:00 | |
| AA1-15 | 2026-09-03 01:23:47 | 52.25520 | 11.60347 | 134° | 97km/h | 9204m | -6.4m/s | -251.1°C | 0% | 309.5hPa | 2.6V | 02:24:01 | 03:26:06 | 00:00:00 | |
| HSKMA3-T | 2026-09-03 01:23:46 | 52.25537 | 11.60317 | 134° | 100km/h | 9210m | -6.7m/s | -251.1°C | 0% | 309.1hPa | 2.5V | 02:26:34 | 03:26:05 | 00:00:00 | |
| DL1XH-15 | 2026-09-03 01:23:45 | 52.25637 | 11.60123 | 126° | 100km/h | 9252m | -6.5m/s | 0°C | 0% | 0hPa | 2.5V | 02:23:44 | 03:25:59 | 00:00:00 | |
| DO2SHX-10 | 2026-09-03 01:23:45 | 52.25555 | 11.60287 | 133° | 102km/h | 9218m | -7.1m/s | 0°C | 0% | 308.8hPa | 2.6V | 00:00:00 | 03:26:04 | 00:00:00 | |
| DO2SHX-10 | 2026-09-03 01:23:42 | 52.25606 | 11.60189 | 129° | 102km/h | 9239m | -7.2m/s | 0°C | 0% | 307.8hPa | 2.6V | 02:23:00 | 03:26:01 | 00:00:00 | |
| DB0DAN | 2026-09-03 01:23:40 | 52.25637 | 11.60123 | 126° | 95km/h | 9253m | -6.5m/s | -251.1°C | 0% | 307.24hPa | 2.5V | 00:00:00 | 00:00:00 | 00:00:00 | |
| DL1XH-west | 2026-09-03 01:23:37 | 52.25681 | 11.60029 | 128° | 93km/h | 9274m | -7m/s | -251.1°C | 0% | 306.3hPa | 2.5V | 02:24:01 | 03:25:56 | 00:00:00 | |
| DL1XH1-15 | 2026-09-03 01:23:36 | 52.25745 | 11.59906 | 131° | 104km/h | 9301m | -6.6m/s | 0°C | 0% | 0hPa | 2.5V | 02:23:51 | 03:25:52 | 00:00:00 | |
| AA1-15 | 2026-09-03 01:23:36 | 52.25696 | 11.59999 | 130° | 95km/h | 9281m | -7.5m/s | -251.1°C | 0% | 306hPa | 2.5V | 02:24:01 | 03:25:55 | 00:00:00 | |
| DF8AY | 2026-09-03 01:23:31 | 52.25780 | 11.59841 | 131° | 106km/h | 9315m | -7m/s | -251.1°C | 0% | 304.4hPa | 2.5V | 02:24:01 | 03:25:50 | 00:00:00 | |
| DL1XH-west | 2026-09-03 01:23:27 | 52.25851 | 11.59709 | 131° | 106km/h | 9342m | -6.4m/s | -251.1°C | 0% | 303.2hPa | 2.6V | 02:24:01 | 03:25:46 | 00:00:00 | |
| DO2SHX-10 | 2026-09-03 01:23:27 | 52.25851 | 11.59709 | 132° | 108km/h | 9342m | -6.3m/s | 0°C | 0% | 303.1hPa | 2.5V | 00:00:00 | 03:25:46 | 00:00:00 | |
| DL1XH1-15 | 2026-09-03 01:23:26 | 52.25923 | 11.59576 | 131° | 108km/h | 9368m | -7m/s | 0°C | 0% | 0hPa | 2.5V | 02:24:01 | 03:25:42 | 00:00:00 | |
| AA1-15 | 2026-09-03 01:23:25 | 52.25887 | 11.59643 | 131° | 108km/h | 9355m | -6.5m/s | -251.1°C | 0% | 302.6hPa | 2.5V | 02:24:01 | 03:25:44 | 00:00:00 | |
| DF8AY | 2026-09-03 01:23:21 | 52.25977 | 11.59475 | 132° | 110km/h | 9388m | -6.6m/s | -251.1°C | 0% | 301.1hPa | 2.6V | 02:24:52 | 03:25:39 | 00:00:00 | |
| DL1XH-15 | 2026-09-03 01:23:21 | 52.25977 | 11.59475 | 131° | 110km/h | 9388m | -6.5m/s | 0°C | 0% | 0hPa | 2.6V | 02:24:04 | 03:25:39 | 00:00:00 | |
| HSKMA3-T | 2026-09-03 01:23:21 | 52.25959 | 11.59509 | 131° | 110km/h | 9382m | -7m/s | -251.1°C | 0% | 301.5hPa | 2.6V | 02:26:34 | 03:25:40 | 00:00:00 | |
| DL1XH-west | 2026-09-03 01:23:17 | 52.26052 | 11.59338 | 132° | 111km/h | 9415m | -7m/s | -251.1°C | 0% | 299.9hPa | 2.5V | 02:24:52 | 03:25:35 | 00:00:00 | |
| DL1XH1-15 | 2026-09-03 01:23:16 | 52.26109 | 11.59236 | 132° | 111km/h | 9435m | -6.7m/s | 0°C | 0% | 0hPa | 2.6V | 02:24:11 | 03:25:32 | 00:00:00 | |
| AA1-15 | 2026-09-03 01:23:14 | 52.26090 | 11.59270 | 132° | 111km/h | 9429m | -6.6m/s | -251.1°C | 0% | 299.3hPa | 2.6V | 02:24:52 | 03:25:33 | 00:00:00 | |
| DL1CLM-18 | 2026-09-03 01:23:12 | 52.26108 | 11.59236 | 133° | 111km/h | 9435m | -6.7m/s | 0°C | 0% | 299.0hPa | 2.5V | 00:00:00 | 00:00:00 | 00:00:00 | |
| DL1XH-15 | 2026-09-03 01:23:11 | 52.26166 | 11.59134 | 132° | 113km/h | 9455m | -7.3m/s | 0°C | 0% | 0hPa | 2.5V | 02:24:14 | 03:25:29 | 00:00:00 | |
| DF8AY | 2026-09-03 01:23:10 | 52.26166 | 11.59134 | 132° | 113km/h | 9455m | -7.3m/s | -251.1°C | 0% | 298.2hPa | 2.5V | 02:24:52 | 03:25:29 | 00:00:00 | |
| DD8BA-10 | 2026-09-03 01:23:10 | 52.26166 | 11.59134 | 133° | 122km/h | 9455m | -7.2m/s | 0°C | 0% | 298.2hPa | 2.5V | 00:00:00 | 00:00:00 | 00:00:00 | |
| DO2SHX-10 | 2026-09-03 01:23:08 | 52.26204 | 11.59064 | 132° | 115km/h | 9471m | -8.3m/s | 0°C | 0% | 297.5hPa | 2.5V | 00:00:00 | 03:25:27 | 00:00:00 | |
| EDDB2-12 | 2026-09-03 01:23:07 | 52.26243 | 11.58992 | 131° | 115km/h | 9486m | -6.9m/s | 0°C | -1.0% | 296.9hPa | 2.5V | 00:00:00 | 00:00:00 | 00:00:00 | |
| DL1XH1-15 | 2026-09-03 01:23:06 | 52.26303 | 11.58883 | 132° | 120km/h | 9507m | -6.7m/s | 0°C | 0% | 0hPa | 2.5V | 02:24:21 | 03:25:22 | 00:00:00 | |
| DL1XH-west | 2026-09-03 01:23:05 | 52.26263 | 11.58956 | 132° | 119km/h | 9492m | -6.9m/s | -251.1°C | 0% | 296.6hPa | 2.6V | 02:24:52 | 03:25:24 | 00:00:00 | |
| DF8AY | 2026-09-03 01:23:05 | 52.26367 | 11.58773 | 134° | 122km/h | 9526m | -6.5m/s | -251.1°C | 0% | 295.2hPa | 2.6V | 02:24:52 | 03:25:19 | 00:00:00 | |
| AA1-15 | 2026-09-03 01:23:03 | 52.26303 | 11.58883 | 133° | 120km/h | 9507m | -6.7m/s | -251.1°C | 0% | 296hPa | 2.5V | 02:24:52 | 03:25:22 | 00:00:00 | |
| DO2SHX-10 | 2026-09-03 01:23:02 | 52.26324 | 11.58846 | 134° | 122km/h | 9514m | -6.7m/s | 0°C | 0% | 295.7hPa | 2.6V | 00:00:00 | 03:25:21 | 00:00:00 | |
| DK9SH | 2026-09-03 01:23:00 | 52.26345 | 11.58810 | 135° | 122km/h | 9520m | -6.0m/s | 0°C | 0% | 295.3hPa | 2.6V | 00:00:00 | 00:00:00 | 00:00:00 | |
| DO2SHX-10 | 2026-09-03 01:22:59 | 52.26388 | 11.58737 | 134° | 122km/h | 9533m | -6.6m/s | 0°C | 0% | 294.8hPa | 2.6V | 00:00:00 | 03:25:18 | 00:00:00 | |
| SP3BTT-10 | 2026-09-03 01:22:57 | 52.26431 | 11.58664 | 134° | 131km/h | 9547m | -6.7m/s | 0°C | 0% | 294.2hPa | 2.6V | 00:00:00 | 00:00:00 | 00:00:00 | |
| DL1XH1-15 | 2026-09-03 01:22:56 | 52.26517 | 11.58518 | 133° | 124km/h | 9574m | -6.8m/s | 0°C | 0% | 0hPa | 2.6V | 02:24:31 | 03:25:12 | 00:00:00 | |
| DB0DAN | 2026-09-03 01:22:55 | 52.26474 | 11.58592 | 134° | 117km/h | 9561m | -7.2m/s | -251.1°C | 0% | 293.6hPa | 2.5V | 00:00:00 | 00:00:00 | 00:00:00 | |
| DL1XH-west | 2026-09-03 01:22:55 | 52.26474 | 11.58592 | 134° | 122km/h | 9560m | -7.2m/s | -251.1°C | 0% | 293.6hPa | 2.5V | 02:24:52 | 03:25:14 | 00:00:00 | |
| AA1-15 | 2026-09-03 01:22:53 | 52.26517 | 11.58518 | 134° | 124km/h | 9574m | -6.8m/s | -251.1°C | 0% | 293hPa | 2.6V | 02:24:52 | 03:25:12 | 00:00:00 | |
| DF8AY | 2026-09-03 01:22:49 | 52.26628 | 11.58330 | 134° | 128km/h | 9608m | -7.1m/s | -251.1°C | 0% | 291.4hPa | 2.5V | 02:24:52 | 03:25:07 | 00:00:00 | |
| DM0DOS-11 | 2026-09-03 01:22:49 | 52.26720 | 11.58176 | 133° | 131km/h | 9635m | -6.9m/s | 0°C | 0% | 0hPa | 2.5V | 02:24:40 | 03:25:03 | 00:00:00 | |
| SMARD9-15 | 2026-09-03 01:22:46 | 52.26674 | 11.58254 | 134° | 130km/h | 9621m | -6.9m/s | 0°C | -1.0% | 290.9hPa | 2.5V | 00:00:00 | 00:00:00 | 00:00:00 | |
| DL1XH-15 | 2026-09-03 01:22:45 | 52.26812 | 11.58016 | 132° | 133km/h | 9663m | -6.9m/s | 0°C | 0% | 0hPa | 2.5V | 02:24:44 | 03:24:59 | 00:00:00 | |
| DL1XH-west | 2026-09-03 01:22:44 | 52.26720 | 11.58176 | 134° | 131km/h | 9635m | -6.9m/s | -251.1°C | 0% | 290.4hPa | 2.5V | 02:24:52 | 03:25:03 | 00:00:00 | |
| AA1-15 | 2026-09-03 01:22:43 | 52.26743 | 11.58137 | 134° | 133km/h | 9642m | -7.3m/s | -251.1°C | 0% | 290hPa | 2.5V | 02:24:52 | 03:25:02 | 00:00:00 | |
| DF7ER-10 | 2026-09-03 01:22:41 | 52.26766 | 11.58097 | 134° | 133km/h | 9649m | -6.8m/s | 0°C | 0% | 289.7hPa | 2.5V | 02:24:00 | 00:00:00 | 00:00:00 | |
| DB0DAN | 2026-09-03 01:22:40 | 52.26812 | 11.58016 | 133° | 128km/h | 9663m | -6.9m/s | -251.1°C | 0% | 289.19hPa | 2.5V | 00:00:00 | 00:00:00 | 00:00:00 | |
| DM0DOS-11 | 2026-09-03 01:22:39 | 52.26950 | 11.57770 | 132° | 137km/h | 9705m | -7.1m/s | 0°C | 0% | 0hPa | 2.5V | 02:24:50 | 03:24:53 | 00:00:00 | |
| HSKMA3-T | 2026-09-03 01:22:39 | 52.26835 | 11.57976 | 132° | 135km/h | 9670m | -7.1m/s | -251.1°C | 0% | 288.8hPa | 2.6V | 02:26:34 | 03:24:58 | 00:00:00 | |
| DF8AY | 2026-09-03 01:22:38 | 52.26858 | 11.57935 | 132° | 133km/h | 9676m | -6.9m/s | -251.1°C | 0% | 288.6hPa | 2.6V | 02:24:52 | 03:24:57 | 00:00:00 | |
| DL1XH-west | 2026-09-03 01:22:34 | 52.26951 | 11.57770 | 133° | 137km/h | 9705m | -7.1m/s | -251.1°C | 0% | 287.3hPa | 2.5V | 02:24:52 | 03:24:53 | 00:00:00 | |
| AA1-15 | 2026-09-03 01:22:32 | 52.26998 | 11.57686 | 133° | 139km/h | 9719m | -7.3m/s | -251.1°C | 0% | 286.7hPa | 2.6V | 02:24:52 | 03:24:51 | 00:00:00 | |
| DL1XH-15 | 2026-09-03 01:22:31 | 52.27045 | 11.57602 | 132° | 139km/h | 9733m | -7.4m/s | 0°C | 0% | 0hPa | 2.5V | 02:24:54 | 03:24:49 | 00:00:00 | |
| DF8AY-15 | 2026-09-03 01:22:31 | 52.27021 | 11.57644 | 133° | 142km/h | 9726m | -7.1m/s | 0°C | 0% | 286.4hPa | 2.6V | 00:00:00 | 03:24:50 | 00:00:00 | |
| DD8BA-10 | 2026-09-03 01:22:30 | 52.27045 | 11.57602 | 133° | 142km/h | 9733m | -7.3m/s | 0°C | 0% | 286.0hPa | 2.6V | 00:00:00 | 00:00:00 | 00:00:00 | |
| DM0DOS-11 | 2026-09-03 01:22:29 | 52.27188 | 11.57348 | 131° | 139km/h | 9776m | -7.1m/s | 0°C | 0% | 0hPa | 2.6V | 02:25:00 | 03:24:43 | 00:00:00 | |
| DF8AY | 2026-09-03 01:22:27 | 52.27117 | 11.57475 | 132° | 139km/h | 9755m | -7.5m/s | -251.1°C | 0% | 285.2hPa | 2.5V | 02:25:43 | 03:24:46 | 00:00:00 | |
| SP3BTT-10 | 2026-09-03 01:22:27 | 52.27117 | 11.57475 | 133° | 142km/h | 9755m | -7.5m/s | 0°C | 0% | 285.1hPa | 2.5V | 02:24:00 | 00:00:00 | 00:00:00 | |
| DB0DAN | 2026-09-03 01:22:25 | 52.27164 | 11.57390 | 132° | 133km/h | 9769m | -7.2m/s | -251.1°C | 0% | 284.54hPa | 2.6V | 00:00:00 | 00:00:00 | 00:00:00 | |
| HSKMA3-T | 2026-09-03 01:22:23 | 52.27211 | 11.57305 | 131° | 141km/h | 9783m | -6.9m/s | -251.1°C | 0% | 283.9hPa | 2.6V | 02:26:34 | 03:24:42 | 00:00:00 | |
| AA1-15 | 2026-09-03 01:22:21 | 52.27258 | 11.57218 | 131° | 142km/h | 9797m | -7.1m/s | -251.1°C | 0% | 283.4hPa | 2.5V | 02:25:43 | 03:24:40 | 00:00:00 | |
| DL1XH-15 | 2026-09-03 01:22:21 | 52.27282 | 11.57173 | 131° | 142km/h | 9805m | -7.3m/s | 0°C | 0% | 0hPa | 2.5V | 02:25:04 | 03:24:39 | 00:00:00 | |
| DF8AY | 2026-09-03 01:22:17 | 52.27354 | 11.57039 | 131° | 146km/h | 9826m | -6.9m/s | -251.1°C | 0% | 282.2hPa | 2.6V | 02:25:43 | 03:24:36 | 00:00:00 | |
| DL1XH-west | 2026-09-03 01:22:12 | 52.27474 | 11.56814 | 130° | 142km/h | 9861m | -7m/s | -251.1°C | 0% | 280.7hPa | 2.5V | 02:25:43 | 03:24:31 | 00:00:00 | |
| DL1XH-15 | 2026-09-03 01:22:11 | 52.27520 | 11.56725 | 129° | 141km/h | 9875m | -6.8m/s | 0°C | 0% | 0hPa | 2.6V | 02:25:14 | 03:24:29 | 00:00:00 | |
| HSKMA3-T | 2026-09-03 01:22:11 | 52.27497 | 11.56769 | 130° | 141km/h | 9868m | -7.1m/s | -251.1°C | 0% | 280.5hPa | 2.6V | 02:26:34 | 03:24:30 | 00:00:00 | |
| AA1-15 | 2026-09-03 01:22:10 | 52.27520 | 11.56725 | 130° | 141km/h | 9875m | -6.8m/s | -251.1°C | 0% | 280.1hPa | 2.6V | 02:25:43 | 03:24:29 | 00:00:00 | |
| DF8AY | 2026-09-03 01:22:07 | 52.27588 | 11.56591 | 130° | 142km/h | 9896m | -6.9m/s | -251.1°C | 0% | 279.2hPa | 2.5V | 02:25:43 | 03:24:26 | 00:00:00 | |
| DO2SHX-10 | 2026-09-03 01:22:07 | 52.27588 | 11.56590 | 130° | 144km/h | 9896m | -6.9m/s | 0°C | 0% | 279.2hPa | 2.6V | 00:00:00 | 03:24:26 | 00:00:00 | |
| DL2RXE-15 | 2026-09-03 01:22:06 | 52.27612 | 11.56545 | 131° | 144km/h | 9902m | -6.9m/s | 0°C | 0% | 279.0hPa | 2.6V | 00:00:00 | 00:00:00 | 00:00:00 | |
| DM0DOS-11 | 2026-09-03 01:22:04 | 52.27682 | 11.56408 | 130° | 146km/h | 9924m | -7m/s | 0°C | 0% | 0hPa | 2.6V | 02:25:21 | 03:24:22 | 00:00:00 | |
| DL1XH-west | 2026-09-03 01:22:01 | 52.27730 | 11.56317 | 131° | 146km/h | 9937m | -7.2m/s | -251.1°C | 0% | 277.4hPa | 2.5V | 02:25:43 | 03:24:20 | 00:00:00 | |
| DL1XH-15 | 2026-09-03 01:22:01 | 52.27755 | 11.56271 | 130° | 146km/h | 9944m | -7.5m/s | 0°C | 0% | 0hPa | 2.5V | 02:25:24 | 03:24:19 | 00:00:00 | |
| HSKMA3-T | 2026-09-03 01:22:00 | 52.27754 | 11.56271 | 131° | 146km/h | 9944m | -7.5m/s | -251.1°C | 0% | 277.2hPa | 2.5V | 02:26:34 | 03:24:19 | 00:00:00 | |
| AA1-15 | 2026-09-03 01:21:59 | 52.27779 | 11.56226 | 131° | 146km/h | 9952m | -7.6m/s | -251.1°C | 0% | 276.9hPa | 2.5V | 02:25:43 | 03:24:18 | 00:00:00 | |
| DF8AY | 2026-09-03 01:21:57 | 52.27827 | 11.56135 | 131° | 144km/h | 9966m | -6.7m/s | -251.1°C | 0% | 276.4hPa | 2.6V | 02:25:43 | 03:24:16 | 00:00:00 | |
| SP3BTT-10 | 2026-09-03 01:21:57 | 52.27827 | 11.56135 | 131° | 144km/h | 9966m | -6.7m/s | 0°C | 0% | 276.3hPa | 2.5V | 00:00:00 | 00:00:00 | 00:00:00 | |
| DL1XH1-15 | 2026-09-03 01:21:56 | 52.27922 | 11.55954 | 130° | 144km/h | 9994m | -7.2m/s | 0°C | 0% | 0hPa | 2.5V | 02:25:31 | 03:24:12 | 00:00:00 | |
| DB0UT-7 | 2026-09-03 01:21:56 | 52.27850 | 11.56090 | 131° | 144km/h | 9973m | -6.8m/s | 0°C | 0% | 276.0hPa | 2.6V | 00:00:00 | 00:00:00 | 00:00:00 | |
| DL1XH-15 | 2026-09-03 01:21:55 | 52.27992 | 11.55817 | 130° | 144km/h | 10015m | -7.3m/s | 0°C | 0% | 0hPa | 2.6V | 02:25:34 | 03:24:09 | 00:00:00 | |
| DL1XH-west | 2026-09-03 01:21:50 | 52.27992 | 11.55817 | 130° | 144km/h | 10015m | -7.3m/s | -251.1°C | 0% | 274.3hPa | 2.6V | 02:25:43 | 03:24:09 | 00:00:00 | |
| HSKMA3-T | 2026-09-03 01:21:49 | 52.28016 | 11.55771 | 130° | 144km/h | 10022m | -7.2m/s | -251.1°C | 0% | 274hPa | 2.5V | 02:26:34 | 03:24:08 | 00:00:00 | |
| AA1-15 | 2026-09-03 01:21:48 | 52.28039 | 11.55725 | 130° | 144km/h | 10029m | -7.5m/s | -251.1°C | 0% | 273.6hPa | 2.5V | 02:25:43 | 03:24:07 | 00:00:00 | |
| DF8AY | 2026-09-03 01:21:46 | 52.28086 | 11.55634 | 130° | 144km/h | 10044m | -7.5m/s | -251.1°C | 0% | 273.1hPa | 2.5V | 02:25:43 | 03:24:05 | 00:00:00 | |
| DO2SHX-10 | 2026-09-03 01:21:46 | 52.28086 | 11.55634 | 130° | 144km/h | 10044m | -7.5m/s | 0°C | 0% | 273.0hPa | 2.6V | 00:00:00 | 03:24:05 | 00:00:00 | |
| SMARD9-15 | 2026-09-03 01:21:44 | 52.28156 | 11.55498 | 130° | 142km/h | 10065m | -6.9m/s | 0°C | -1.0% | 272.2hPa | 2.6V | 00:00:00 | 00:00:00 | 00:00:00 | |
| DO2SHX-10 | 2026-09-03 01:21:43 | 52.28156 | 11.55498 | 131° | 144km/h | 10066m | -6.9m/s | 0°C | 0% | 272.1hPa | 2.6V | 02:25:00 | 03:24:02 | 00:00:00 | |
| DL1XH-15 | 2026-09-03 01:21:41 | 52.28227 | 11.55363 | 130° | 142km/h | 10087m | -7.2m/s | 0°C | 0% | 0hPa | 2.5V | 02:25:44 | 03:23:59 | 00:00:00 | |
| DL1XH-west | 2026-09-03 01:21:39 | 52.28251 | 11.55319 | 131° | 142km/h | 10094m | -7.1m/s | -251.1°C | 0% | 271.1hPa | 2.6V | 02:26:34 | 03:23:58 | 00:00:00 | |
| AA1-15 | 2026-09-03 01:21:38 | 52.28274 | 11.55274 | 131° | 142km/h | 10101m | -6.7m/s | -251.1°C | 0% | 270.8hPa | 2.6V | 02:26:34 | 03:23:57 | 00:00:00 | |
| DF8AY | 2026-09-03 01:21:36 | 52.28321 | 11.55185 | 130° | 142km/h | 10115m | -7.3m/s | -251.1°C | 0% | 270.2hPa | 2.5V | 02:26:34 | 03:23:55 | 00:00:00 | |
| DL1XH-15 | 2026-09-03 01:21:35 | 52.28460 | 11.54913 | 129° | 144km/h | 10159m | -7m/s | 0°C | 0% | 0hPa | 2.5V | 02:25:54 | 03:23:49 | 00:00:00 | |
| DL1XH-west | 2026-09-03 01:21:28 | 52.28507 | 11.54822 | 130° | 144km/h | 10173m | -7.2m/s | -251.1°C | 0% | 268hPa | 2.5V | 02:26:34 | 03:23:47 | 00:00:00 | |
| AA1-15 | 2026-09-03 01:21:27 | 52.28531 | 11.54776 | 130° | 144km/h | 10180m | -7.2m/s | -251.1°C | 0% | 267.6hPa | 2.5V | 02:26:34 | 03:23:46 | 00:00:00 | |
| DF8AY | 2026-09-03 01:21:26 | 52.28554 | 11.54731 | 130° | 144km/h | 10187m | -7.2m/s | -251.1°C | 0% | 267.4hPa | 2.6V | 02:26:34 | 03:23:45 | 00:00:00 | |
| DB0UT-7 | 2026-09-03 01:21:26 | 52.28554 | 11.54731 | 131° | 146km/h | 10187m | -7.1m/s | 0°C | 0% | 267.3hPa | 2.6V | 00:00:00 | 03:23:45 | 00:00:00 | |
| DO2SHX-10 | 2026-09-03 01:21:25 | 52.28578 | 11.54686 | 131° | 144km/h | 10194m | -6.9m/s | 0°C | 0% | 267.0hPa | 2.6V | 02:25:00 | 03:23:44 | 00:00:00 | |
| DM0DOS-11 | 2026-09-03 01:21:24 | 52.28624 | 11.54595 | 130° | 142km/h | 10208m | -7.2m/s | 0°C | 0% | 0hPa | 2.5V | 02:26:01 | 03:23:42 | 00:00:00 | |
| DL1XH-west | 2026-09-03 01:21:18 | 52.28741 | 11.54368 | 130° | 144km/h | 10245m | -7.1m/s | -251.1°C | 0% | 265hPa | 2.5V | 02:26:34 | 03:23:37 | 00:00:00 | |
| AA1-15 | 2026-09-03 01:21:17 | 52.28765 | 11.54322 | 130° | 146km/h | 10252m | -7.6m/s | -251.1°C | 0% | 264.6hPa | 2.5V | 02:26:34 | 03:23:36 | 00:00:00 | |
| DF8AY | 2026-09-03 01:21:15 | 52.28812 | 11.54230 | 130° | 146km/h | 10267m | -7.5m/s | -251.1°C | 0% | 264.2hPa | 2.5V | 02:26:34 | 03:23:34 | 00:00:00 | |
| DL1XH-15 | 2026-09-03 01:21:15 | 52.28930 | 11.53999 | 129° | 146km/h | 10303m | -7.3m/s | 0°C | 0% | 0hPa | 2.5V | 02:26:14 | 03:23:29 | 00:00:00 | |
| TFSTFS | 2026-09-03 01:21:14 | 52.28812 | 11.54230 | 131° | 146km/h | 10267m | -7.5m/s | 0°C | 0% | 264.2hPa | 2.5V | 02:26:00 | 00:00:00 | 00:00:00 | |
| DO2SHX-10 | 2026-09-03 01:21:13 | 52.28859 | 11.54138 | 130° | 146km/h | 10282m | -7.2m/s | 0°C | 0% | 263.5hPa | 2.5V | 00:00:00 | 03:23:32 | 00:00:00 | |
| DB0DAN | 2026-09-03 01:21:10 | 52.28930 | 11.53999 | 130° | 139km/h | 10303m | -7.3m/s | -251.1°C | 0% | 262.63hPa | 2.5V | 00:00:00 | 00:00:00 | 00:00:00 | |
| DL1XH-west | 2026-09-03 01:21:08 | 52.28978 | 11.53908 | 131° | 148km/h | 10318m | -7.5m/s | -251.1°C | 0% | 262.1hPa | 2.6V | 02:26:34 | 03:23:27 | 00:00:00 | |
| AA1-15 | 2026-09-03 01:21:07 | 52.29026 | 11.53815 | 130° | 150km/h | 10333m | -7.5m/s | -251.1°C | 0% | 261.5hPa | 2.5V | 02:26:34 | 03:23:25 | 00:00:00 | |
| DF8AY | 2026-09-03 01:21:04 | 52.29075 | 11.53721 | 130° | 150km/h | 10348m | -7.8m/s | -251.1°C | 0% | 260.8hPa | 2.5V | 02:26:34 | 03:23:23 | 00:00:00 | |
| DM0DOS-11 | 2026-09-03 01:21:04 | 52.29100 | 11.53673 | 130° | 150km/h | 10356m | -7.8m/s | 0°C | 0% | 0hPa | 2.5V | 02:26:21 | 03:23:22 | 00:00:00 | |
| DL1XH-west | 2026-09-03 01:20:57 | 52.29243 | 11.53394 | 130° | 144km/h | 10401m | -7.5m/s | -251.1°C | 0% | 258.9hPa | 2.5V | 02:26:34 | 03:23:16 | 00:00:00 | |
| SP3BTT-10 | 2026-09-03 01:20:57 | 52.29243 | 11.53394 | 131° | 151km/h | 10401m | -7.4m/s | 0°C | 0% | 258.8hPa | 2.5V | 02:26:00 | 00:00:00 | 00:00:00 | |
| DL1XH1-15 | 2026-09-03 01:20:56 | 52.29338 | 11.53211 | 129° | 150km/h | 10429m | -6.6m/s | 0°C | 0% | 0hPa | 2.5V | 02:26:31 | 03:23:12 | 00:00:00 | |
| AA1-15 | 2026-09-03 01:20:55 | 52.29290 | 11.53304 | 130° | 146km/h | 10415m | -6.9m/s | -251.1°C | 0% | 258.1hPa | 2.6V | 02:26:34 | 03:23:14 | 00:00:00 | |
| DB0DAN | 2026-09-03 01:20:55 | 52.29290 | 11.53304 | 130° | 139km/h | 10415m | -6.9m/s | -251.1°C | 0% | 258.14hPa | 2.6V | 00:00:00 | 00:00:00 | 00:00:00 | |
| DF8AY | 2026-09-03 01:20:53 | 52.29338 | 11.53211 | 130° | 150km/h | 10429m | -6.6m/s | -251.1°C | 0% | 257.7hPa | 2.5V | 02:26:34 | 03:23:12 | 00:00:00 | |
| DL1XH-west | 2026-09-03 01:20:47 | 52.29509 | 11.52870 | 129° | 153km/h | 10481m | -7.4m/s | -251.1°C | 0% | 255.6hPa | 2.5V | 02:27:25 | 03:23:05 | 00:00:00 | |
| DL1XH1-15 | 2026-09-03 01:20:46 | 52.29584 | 11.52724 | 130° | 153km/h | 10503m | -7.5m/s | 0°C | 0% | 0hPa | 2.6V | 02:26:41 | 03:23:02 | 00:00:00 | |
| AA1-15 | 2026-09-03 01:20:44 | 52.29559 | 11.52772 | 130° | 153km/h | 10496m | -7.7m/s | -251.1°C | 0% | 255hPa | 2.6V | 02:27:25 | 03:23:03 | 00:00:00 | |
| DF8AY | 2026-09-03 01:20:42 | 52.29609 | 11.52676 | 131° | 153km/h | 10511m | -7.2m/s | -251.1°C | 0% | 254.5hPa | 2.5V | 02:27:25 | 03:23:01 | 00:00:00 | |
| HSKMA3-T | 2026-09-03 01:20:41 | 52.29634 | 11.52629 | 131° | 151km/h | 10518m | -7.2m/s | -251.1°C | 0% | 254.2hPa | 2.5V | 02:27:25 | 03:23:00 | 00:00:00 | |
| DB0DAN | 2026-09-03 01:20:40 | 52.29659 | 11.52581 | 131° | 146km/h | 10526m | -7.3m/s | -251.1°C | 0% | 253.85hPa | 2.5V | 00:00:00 | 00:00:00 | 00:00:00 | |
| DL1XH-west | 2026-09-03 01:20:35 | 52.29786 | 11.52342 | 131° | 153km/h | 10563m | -7.2m/s | -251.1°C | 0% | 252.5hPa | 2.5V | 02:27:25 | 03:22:54 | 00:00:00 | |
| DM0DOS-11 | 2026-09-03 01:20:34 | 52.29837 | 11.52247 | 131° | 155km/h | 10578m | -8m/s | 0°C | 0% | 0hPa | 2.5V | 02:26:51 | 03:22:52 | 00:00:00 | |
| AA1-15 | 2026-09-03 01:20:34 | 52.29811 | 11.52295 | 131° | 153km/h | 10570m | -7.5m/s | -251.1°C | 0% | 252.2hPa | 2.5V | 02:27:25 | 03:22:53 | 00:00:00 | |
| DL4XJ-10 | 2026-09-03 01:20:33 | 52.29836 | 11.52247 | 132° | 155km/h | 10578m | -8.0m/s | 0°C | 0% | 0hPa | 2.5V | 00:00:00 | 00:00:00 | 00:00:00 | |
| TFSTFS | 2026-09-03 01:20:32 | 52.29836 | 11.52247 | 133° | 155km/h | 10578m | -8.0m/s | 0°C | 0% | 251.8hPa | 2.5V | 00:00:00 | 00:00:00 | 00:00:00 | |
| DL1XH-15 | 2026-09-03 01:20:31 | 52.29915 | 11.52103 | 131° | 157km/h | 10601m | -7.5m/s | 0°C | 0% | 0hPa | 2.5V | 02:26:54 | 03:22:49 | 00:00:00 | |
| HSKMA3-T | 2026-09-03 01:20:31 | 52.29889 | 11.52151 | 131° | 157km/h | 10594m | -7.2m/s | -251.1°C | 0% | 251.3hPa | 2.6V | 02:27:25 | 03:22:50 | 00:00:00 | |
| DF8AY-15 | 2026-09-03 01:20:31 | 52.29889 | 11.52151 | 132° | 155km/h | 10594m | -7.2m/s | 0°C | 0% | 251.3hPa | 2.5V | 00:00:00 | 03:22:50 | 00:00:00 | |
| DJ2DS-15 | 2026-09-03 01:20:30 | 52.29941 | 11.52054 | 130° | 155km/h | 10609m | -7.8m/s | 0°C | -1.0% | 250.6hPa | 2.5V | 00:00:00 | 00:00:00 | 00:00:00 | |
| DB0NH | 2026-09-03 01:20:29 | 52.29941 | 11.52054 | 131° | 155km/h | 10609m | -7.7m/s | 0°C | 0% | 250.6hPa | 2.5V | 02:26:00 | 03:22:48 | 00:00:00 | |
| DO2SHX-10 | 2026-09-03 01:20:28 | 52.29967 | 11.52005 | 131° | 155km/h | 10616m | -7.8m/s | 0°C | 0% | 250.3hPa | 2.5V | 00:00:00 | 03:22:47 | 00:00:00 | |
| SP3BTT-10 | 2026-09-03 01:20:27 | 52.29992 | 11.51956 | 131° | 155km/h | 10624m | -7.8m/s | 0°C | 0% | 250.0hPa | 2.5V | 00:00:00 | 00:00:00 | 00:00:00 | |
| DL1XH1-15 | 2026-09-03 01:20:26 | 52.30094 | 11.51766 | 131° | 151km/h | 10655m | -7.5m/s | 0°C | 0% | 0hPa | 2.5V | 02:27:01 | 03:22:42 | 00:00:00 | |
| DB0DAN | 2026-09-03 01:20:25 | 52.30043 | 11.51860 | 131° | 146km/h | 10640m | -7.5m/s | -251.1°C | 0% | 249.55hPa | 2.6V | 00:00:00 | 00:00:00 | 00:00:00 | |
| DL1XH-west | 2026-09-03 01:20:25 | 52.30043 | 11.51860 | 131° | 153km/h | 10640m | -7.5m/s | -251.1°C | 0% | 249.6hPa | 2.6V | 02:27:25 | 03:22:44 | 00:00:00 | |
| AA1-15 | 2026-09-03 01:20:24 | 52.30068 | 11.51813 | 131° | 151km/h | 10647m | -7.6m/s | -251.1°C | 0% | 249.3hPa | 2.6V | 02:27:25 | 03:22:43 | 00:00:00 | |
| HSKMA3-T | 2026-09-03 01:20:21 | 52.30145 | 11.51673 | 133° | 151km/h | 10670m | -7.3m/s | -251.1°C | 0% | 248.4hPa | 2.5V | 02:27:25 | 03:22:40 | 00:00:00 | |
| DD8BA-10 | 2026-09-03 01:20:20 | 52.30171 | 11.51627 | 133° | 157km/h | 10677m | -7.2m/s | 0°C | 0% | 248.0hPa | 2.5V | 00:00:00 | 00:00:00 | 00:00:00 | |
| DO2SHX-10 | 2026-09-03 01:20:19 | 52.30197 | 11.51581 | 134° | 153km/h | 10684m | -7.4m/s | 0°C | 0% | 247.7hPa | 2.5V | 00:00:00 | 03:22:38 | 00:00:00 | |
| GOEST3-10 | 2026-09-03 01:20:18 | 52.30224 | 11.51535 | 134° | 155km/h | 10692m | -7.4m/s | 0°C | 0% | 247.5hPa | 2.5V | 02:27:00 | 00:00:00 | 00:00:00 | |
| DL1XH1-15 | 2026-09-03 01:20:16 | 52.30358 | 11.51301 | 132° | 157km/h | 10730m | -7.5m/s | 0°C | 0% | 0hPa | 2.6V | 02:27:11 | 03:22:32 | 00:00:00 | |
| DL1XH-west | 2026-09-03 01:20:15 | 52.30304 | 11.51395 | 133° | 157km/h | 10715m | -7.8m/s | -251.1°C | 0% | 246.7hPa | 2.5V | 02:27:25 | 03:22:34 | 00:00:00 | |
| AA1-15 | 2026-09-03 01:20:13 | 52.30358 | 11.51301 | 133° | 157km/h | 10730m | -7.5m/s | -251.1°C | 0% | 246.2hPa | 2.6V | 02:27:25 | 03:22:32 | 00:00:00 | |
| DF8AY | 2026-09-03 01:20:11 | 52.30412 | 11.51205 | 133° | 157km/h | 10745m | -7.4m/s | -251.1°C | 0% | 245.6hPa | 2.5V | 02:27:25 | 03:22:30 | 00:00:00 | |
| HSKMA3-T | 2026-09-03 01:20:10 | 52.30439 | 11.51158 | 133° | 155km/h | 10752m | -7.8m/s | -251.1°C | 0% | 245.2hPa | 2.5V | 02:27:25 | 03:22:29 | 00:00:00 | |
| DL1XH-west | 2026-09-03 01:20:04 | 52.30600 | 11.50876 | 134° | 159km/h | 10796m | -7.6m/s | -251.1°C | 0% | 243.5hPa | 2.5V | 02:27:25 | 03:22:23 | 00:00:00 | |
| DM0DOS-11 | 2026-09-03 01:20:04 | 52.30627 | 11.50829 | 133° | 159km/h | 10803m | -7.5m/s | 0°C | 0% | 0hPa | 2.5V | 02:27:21 | 03:22:22 | 00:00:00 | |
| AA1-15 | 2026-09-03 01:20:02 | 52.30655 | 11.50780 | 133° | 161km/h | 10811m | -7.5m/s | -251.1°C | 0% | 243.1hPa | 2.6V | 02:27:25 | 03:22:21 | 00:00:00 | |
| DL1XH-15 | 2026-09-03 01:20:01 | 52.30709 | 11.50682 | 131° | 161km/h | 10826m | -7.6m/s | 0°C | 0% | 0hPa | 2.6V | 02:27:24 | 03:22:19 | 00:00:00 | |
| HSKMA3-T | 2026-09-03 01:20:00 | 52.30709 | 11.50682 | 132° | 161km/h | 10826m | -7.6m/s | -251.1°C | 0% | 242.5hPa | 2.6V | 02:27:25 | 03:22:19 | 00:00:00 | |
| SONDE2-11 | 2026-09-03 01:19:59 | 52.30763 | 11.50584 | 131° | 157km/h | 10841m | -7.8m/s | 0°C | -1.0% | 242.0hPa | 2.5V | 00:00:00 | 00:00:00 | 00:00:00 | |
| DO2SHX-10 | 2026-09-03 01:19:58 | 52.30763 | 11.50584 | 132° | 159km/h | 10841m | -7.8m/s | 0°C | 0% | 241.9hPa | 2.5V | 00:00:00 | 03:22:17 | 00:00:00 | |
| SP3BTT-10 | 2026-09-03 01:19:57 | 52.30789 | 11.50535 | 132° | 157km/h | 10849m | -8.0m/s | 0°C | 0% | 241.6hPa | 2.5V | 00:00:00 | 00:00:00 | 00:00:00 | |
| DL1XH1-15 | 2026-09-03 01:19:56 | 52.30896 | 11.50339 | 131° | 159km/h | 10881m | -8.1m/s | 0°C | 0% | 0hPa | 2.5V | 02:27:31 | 03:22:12 | 00:00:00 | |
| DB0DAN | 2026-09-03 01:19:55 | 52.30842 | 11.50437 | 131° | 151km/h | 10865m | -7.8m/s | -251.1°C | 0% | 241.04hPa | 2.6V | 00:00:00 | 00:00:00 | 00:00:00 | |
| DL1XH-west | 2026-09-03 01:19:54 | 52.30869 | 11.50388 | 131° | 159km/h | 10873m | -8m/s | -251.1°C | 0% | 240.8hPa | 2.5V | 02:28:16 | 03:22:13 | 00:00:00 | |
| AA1-15 | 2026-09-03 01:19:51 | 52.30948 | 11.50240 | 131° | 159km/h | 10896m | -7.7m/s | -251.1°C | 0% | 239.8hPa | 2.5V | 02:28:16 | 03:22:10 | 00:00:00 | |
| DL1XH-15 | 2026-09-03 01:19:51 | 52.30975 | 11.50191 | 131° | 159km/h | 10904m | -7.8m/s | 0°C | 0% | 0hPa | 2.6V | 02:27:34 | 03:22:09 | 00:00:00 | |
| HSKMA3-T | 2026-09-03 01:19:50 | 52.30975 | 11.50191 | 131° | 159km/h | 10904m | -7.8m/s | -251.1°C | 0% | 239.7hPa | 2.6V | 02:28:16 | 03:22:09 | 00:00:00 | |
| EDDB2-11 | 2026-09-03 01:19:47 | 52.31082 | 11.49992 | 131° | 161km/h | 10934m | -7.8m/s | 0°C | -1.0% | 238.5hPa | 2.6V | 00:00:00 | 00:00:00 | 00:00:00 | |
| DL1XH1-15 | 2026-09-03 01:19:46 | 52.31162 | 11.49841 | 130° | 159km/h | 10958m | -7.7m/s | 0°C | 0% | 0hPa | 2.6V | 02:27:41 | 03:22:02 | 00:00:00 | |
| DL1XH-west | 2026-09-03 01:19:43 | 52.31162 | 11.49841 | 130° | 159km/h | 10958m | -7.7m/s | -251.1°C | 0% | 237.6hPa | 2.6V | 02:28:16 | 03:22:02 | 00:00:00 | |
| DO2SHX-10 | 2026-09-03 01:19:43 | 52.31162 | 11.49841 | 131° | 159km/h | 10958m | -7.6m/s | 0°C | 0% | 237.6hPa | 2.5V | 00:00:00 | 03:22:02 | 00:00:00 | |
| AM1SDL-15 | 2026-09-03 01:19:42 | 52.31188 | 11.49791 | 131° | 159km/h | 10966m | -7.7m/s | 0°C | 0% | 237.3hPa | 2.5V | 00:00:00 | 03:22:01 | 00:00:00 | |
| DL1XH-15 | 2026-09-03 01:19:41 | 52.31240 | 11.49693 | 131° | 157km/h | 10981m | -8.1m/s | 0°C | 0% | 0hPa | 2.5V | 02:27:44 | 03:21:59 | 00:00:00 | |
| AA1-15 | 2026-09-03 01:19:40 | 52.31240 | 11.49693 | 131° | 157km/h | 10981m | -8.1m/s | -251.1°C | 0% | 236.8hPa | 2.5V | 02:28:16 | 03:21:59 | 00:00:00 | |
| DB0DAN | 2026-09-03 01:19:40 | 52.31240 | 11.49693 | 131° | 150km/h | 10981m | -8.1m/s | -251.1°C | 0% | 236.75hPa | 2.5V | 00:00:00 | 00:00:00 | 00:00:00 | |
| HSKMA3-T | 2026-09-03 01:19:39 | 52.31266 | 11.49644 | 131° | 157km/h | 10989m | -7.8m/s | -251.1°C | 0% | 236.6hPa | 2.5V | 02:28:16 | 03:21:58 | 00:00:00 | |
| DO2SHX-10 | 2026-09-03 01:19:37 | 52.31319 | 11.49545 | 131° | 161km/h | 11005m | -8.0m/s | 0°C | 0% | 235.9hPa | 2.6V | 02:27:00 | 03:21:56 | 00:00:00 | |
| DL1XH1-15 | 2026-09-03 01:19:36 | 52.31424 | 11.49343 | 129° | 159km/h | 11038m | -8.4m/s | 0°C | 0% | 0hPa | 2.5V | 02:27:51 | 03:21:52 | 00:00:00 | |
| DL1XH-15 | 2026-09-03 01:19:35 | 52.31500 | 11.49193 | 130° | 157km/h | 11061m | -7.3m/s | 0°C | 0% | 0hPa | 2.5V | 02:27:54 | 03:21:49 | 00:00:00 | |
| DL1XH-west | 2026-09-03 01:19:32 | 52.31449 | 11.49292 | 130° | 159km/h | 11047m | -7.6m/s | -251.1°C | 0% | 234.4hPa | 2.6V | 02:28:16 | 03:21:51 | 00:00:00 | |
| HSKMA3-T | 2026-09-03 01:19:29 | 52.31526 | 11.49144 | 131° | 155km/h | 11069m | -7.5m/s | -251.1°C | 0% | 233.5hPa | 2.5V | 02:28:16 | 03:21:48 | 00:00:00 | |
| DL1XH-west | 2026-09-03 01:19:22 | 52.31709 | 11.48798 | 130° | 159km/h | 11122m | -7.5m/s | -251.1°C | 0% | 231.6hPa | 2.5V | 02:28:16 | 03:21:41 | 00:00:00 | |
| DO2SHX-10 | 2026-09-03 01:19:22 | 52.31709 | 11.48798 | 131° | 157km/h | 11123m | -7.4m/s | 0°C | 0% | 231.5hPa | 2.6V | 00:00:00 | 03:21:41 | 00:00:00 | |
| DL1XH-15 | 2026-09-03 01:19:21 | 52.31760 | 11.48698 | 130° | 157km/h | 11137m | -7.3m/s | 0°C | 0% | 0hPa | 2.6V | 02:28:04 | 03:21:39 | 00:00:00 | |
| HSKMA3-T | 2026-09-03 01:19:18 | 52.31812 | 11.48601 | 131° | 155km/h | 11153m | -7.7m/s | -251.1°C | 0% | 230.6hPa | 2.5V | 02:28:16 | 03:21:37 | 00:00:00 | |
| DJ2DS-15 | 2026-09-03 01:19:18 | 52.31837 | 11.48552 | 130° | 155km/h | 11160m | -7.8m/s | 0°C | -1.0% | 230.3hPa | 2.6V | 00:00:00 | 00:00:00 | 00:00:00 | |
| DL1XH1-15 | 2026-09-03 01:19:16 | 52.31940 | 11.48356 | 130° | 157km/h | 11192m | -7.8m/s | 0°C | 0% | 0hPa | 2.6V | 02:28:11 | 03:21:32 | 00:00:00 | |
| DL1XH-west | 2026-09-03 01:19:11 | 52.31991 | 11.48258 | 130° | 155km/h | 11207m | -7.6m/s | -251.1°C | 0% | 228.7hPa | 2.5V | 02:28:16 | 03:21:30 | 00:00:00 | |
| DL1XH-15 | 2026-09-03 01:19:11 | 52.32017 | 11.48209 | 130° | 155km/h | 11215m | -7.4m/s | 0°C | 0% | 0hPa | 2.5V | 02:28:14 | 03:21:29 | 00:00:00 | |
| DF8AY | 2026-09-03 01:19:08 | 52.32068 | 11.48111 | 130° | 157km/h | 11230m | -7.5m/s | -251.1°C | 0% | 227.8hPa | 2.6V | 02:28:16 | 03:21:27 | 00:00:00 | |
| HSKMA3-T | 2026-09-03 01:19:07 | 52.32093 | 11.48061 | 130° | 157km/h | 11238m | -7.8m/s | -251.1°C | 0% | 227.6hPa | 2.6V | 02:29:07 | 03:21:26 | 00:00:00 | |
| DL1XH-west | 2026-09-03 01:19:01 | 52.32245 | 11.47762 | 130° | 155km/h | 11284m | -7.7m/s | -251.1°C | 0% | 225.9hPa | 2.6V | 02:29:07 | 03:21:20 | 00:00:00 | |
| DL1XH-15 | 2026-09-03 01:19:01 | 52.32270 | 11.47713 | 130° | 155km/h | 11292m | -7.4m/s | 0°C | 0% | 0hPa | 2.6V | 02:28:24 | 03:21:19 | 00:00:00 | |
| EDDB2-12 | 2026-09-03 01:18:59 | 52.32321 | 11.47615 | 130° | 153km/h | 11307m | -8.0m/s | 0°C | -1.0% | 225.2hPa | 2.5V | 00:00:00 | 00:00:00 | 00:00:00 | |
| SONDE2-11 | 2026-09-03 01:18:57 | 52.32371 | 11.47518 | 130° | 153km/h | 11322m | -7.9m/s | 0°C | -1.0% | 224.5hPa | 2.5V | 00:00:00 | 00:00:00 | 00:00:00 | |
| DL1XH1-15 | 2026-09-03 01:18:56 | 52.32447 | 11.47373 | 130° | 155km/h | 11346m | -7.7m/s | 0°C | 0% | 0hPa | 2.5V | 02:28:31 | 03:21:12 | 00:00:00 | |
| HSKMA3-T | 2026-09-03 01:18:56 | 52.32371 | 11.47518 | 130° | 153km/h | 11322m | -7.9m/s | -251.1°C | 0% | 224.5hPa | 2.6V | 02:29:07 | 03:21:15 | 00:00:00 | |
| DO2SHX-10 | 2026-09-03 01:18:55 | 52.32396 | 11.47469 | 131° | 153km/h | 11330m | -7.8m/s | 0°C | 0% | 224.2hPa | 2.5V | 00:00:00 | 03:21:14 | 00:00:00 | |
| DO2SHX-10 | 2026-09-03 01:18:52 | 52.32473 | 11.47325 | 131° | 155km/h | 11354m | -7.9m/s | 0°C | 0% | 223.4hPa | 2.5V | 02:28:00 | 03:21:11 | 00:00:00 | |
| DL1XH-15 | 2026-09-03 01:18:51 | 52.32524 | 11.47228 | 131° | 157km/h | 11369m | -7.8m/s | 0°C | 0% | 0hPa | 2.6V | 02:28:34 | 03:21:09 | 00:00:00 | |
| DL1XH-west | 2026-09-03 01:18:51 | 52.32498 | 11.47276 | 131° | 155km/h | 11361m | -7.7m/s | -251.1°C | 0% | 223.2hPa | 2.5V | 02:29:07 | 03:21:10 | 00:00:00 | |
| DF8AY | 2026-09-03 01:18:47 | 52.32602 | 11.47082 | 131° | 155km/h | 11393m | -8.1m/s | -251.1°C | 0% | 222.2hPa | 2.5V | 02:29:07 | 03:21:06 | 00:00:00 | |
| DL1XH1-15 | 2026-09-03 01:18:46 | 52.32706 | 11.46891 | 132° | 155km/h | 11424m | -7.8m/s | 0°C | 0% | 0hPa | 2.6V | 02:28:41 | 03:21:02 | 00:00:00 | |
| HSKMA3-T | 2026-09-03 01:18:46 | 52.32628 | 11.47034 | 132° | 155km/h | 11400m | -8m/s | -251.1°C | 0% | 221.8hPa | 2.5V | 02:29:07 | 03:21:05 | 00:00:00 | |
| EDDB2-11 | 2026-09-03 01:18:45 | 52.32680 | 11.46939 | 132° | 153km/h | 11416m | -7.9m/s | 0°C | -1.0% | 221.3hPa | 2.5V | 00:00:00 | 00:00:00 | 00:00:00 | |
| DL1XH-west | 2026-09-03 01:18:40 | 52.32784 | 11.46749 | 132° | 153km/h | 11447m | -7.7m/s | -251.1°C | 0% | 220.2hPa | 2.5V | 02:29:07 | 03:20:59 | 00:00:00 | |
| DB0DAN | 2026-09-03 01:18:40 | 52.32784 | 11.46749 | 132° | 146km/h | 11447m | -7.7m/s | -251.1°C | 0% | 220.19hPa | 2.5V | 00:00:00 | 00:00:00 | 00:00:00 | |
| HSKMA3-T | 2026-09-03 01:18:36 | 52.32888 | 11.46564 | 133° | 151km/h | 11479m | -7.8m/s | -251.1°C | 0% | 219.1hPa | 2.6V | 02:29:07 | 03:20:55 | 00:00:00 | |
| AA1-15 | 2026-09-03 01:18:36 | 52.32914 | 11.46518 | 133° | 151km/h | 11487m | -7.9m/s | -251.1°C | 0% | 218.8hPa | 2.5V | 02:29:07 | 03:20:54 | 00:00:00 | |
| DM0DOS-11 | 2026-09-03 01:18:34 | 52.32965 | 11.46426 | 132° | 151km/h | 11503m | -8m/s | 0°C | 0% | 0hPa | 2.5V | 02:28:51 | 03:20:52 | 00:00:00 | |
| DL1XH-west | 2026-09-03 01:18:30 | 52.33043 | 11.46290 | 133° | 150km/h | 11527m | -8m/s | -251.1°C | 0% | 217.5hPa | 2.6V | 02:29:07 | 03:20:49 | 00:00:00 | |
| DF8AY | 2026-09-03 01:18:27 | 52.33146 | 11.46108 | 133° | 150km/h | 11559m | -8.2m/s | -251.1°C | 0% | 216.4hPa | 2.5V | 02:29:07 | 03:20:45 | 00:00:00 | |
| DL1XH1-15 | 2026-09-03 01:18:26 | 52.33221 | 11.45972 | 132° | 148km/h | 11583m | -8.1m/s | 0°C | 0% | 0hPa | 2.6V | 02:29:01 | 03:20:42 | 00:00:00 | |
| HSKMA3-T | 2026-09-03 01:18:25 | 52.33171 | 11.46062 | 132° | 148km/h | 11567m | -8.3m/s | -251.1°C | 0% | 216.2hPa | 2.5V | 02:29:07 | 03:20:44 | 00:00:00 | |
| DL2RXE-15 | 2026-09-03 01:18:25 | 52.33171 | 11.46062 | 133° | 148km/h | 11567m | -8.3m/s | 0°C | 0% | 216.2hPa | 2.5V | 00:00:00 | 00:00:00 | 00:00:00 | |
| AA1-15 | 2026-09-03 01:18:24 | 52.33196 | 11.46017 | 132° | 148km/h | 11575m | -8m/s | -251.1°C | 0% | 215.9hPa | 2.6V | 02:29:07 | 03:20:43 | 00:00:00 | |
| BUE01 | 2026-09-03 01:18:24 | 52.33221 | 11.45972 | 132° | 146km/h | 11583m | -8.1m/s | 0°C | -1.0% | 215.6hPa | 2.5V | 00:00:00 | 00:00:00 | 00:00:00 | |
| DO2SHX-10 | 2026-09-03 01:18:22 | 52.33246 | 11.45927 | 133° | 148km/h | 11591m | -7.8m/s | 0°C | 0% | 215.2hPa | 2.5V | 00:00:00 | 03:20:41 | 00:00:00 | |
| DL1XH-15 | 2026-09-03 01:18:21 | 52.33297 | 11.45837 | 132° | 148km/h | 11607m | -8.4m/s | 0°C | 0% | 0hPa | 2.5V | 02:29:04 | 03:20:39 | 00:00:00 | |
| DL1XH-west | 2026-09-03 01:18:20 | 52.33297 | 11.45837 | 133° | 148km/h | 11607m | -8.4m/s | -251.1°C | 0% | 214.7hPa | 2.5V | 02:29:07 | 03:20:39 | 00:00:00 | |
| DO2SHX-10 | 2026-09-03 01:18:19 | 52.33322 | 11.45792 | 133° | 148km/h | 11616m | -8.6m/s | 0°C | 0% | 214.4hPa | 2.5V | 00:00:00 | 03:20:38 | 00:00:00 | |
| SONCRA | 2026-09-03 01:18:17 | 52.33398 | 11.45658 | 133° | 148km/h | 11640m | -8.1m/s | 0°C | -1.0% | 213.6hPa | 2.5V | 00:00:00 | 00:00:00 | 00:00:00 | |
| DL1XH1-15 | 2026-09-03 01:18:16 | 52.33476 | 11.45525 | 134° | 148km/h | 11664m | -8m/s | 0°C | 0% | 0hPa | 2.5V | 02:29:11 | 03:20:32 | 00:00:00 | |
| DF8AY | 2026-09-03 01:18:15 | 52.33424 | 11.45613 | 134° | 148km/h | 11648m | -8.1m/s | -251.1°C | 0% | 213.4hPa | 2.6V | 02:29:58 | 03:20:34 | 00:00:00 | |
| HSKMA3-T | 2026-09-03 01:18:14 | 52.33450 | 11.45569 | 134° | 148km/h | 11656m | -7.9m/s | -251.1°C | 0% | 213.1hPa | 2.5V | 02:29:58 | 03:20:33 | 00:00:00 | |
| AA1-15 | 2026-09-03 01:18:13 | 52.33476 | 11.45525 | 134° | 148km/h | 11664m | -8m/s | -251.1°C | 0% | 212.8hPa | 2.5V | 02:29:58 | 03:20:32 | 00:00:00 | |
| DL1XH-west | 2026-09-03 01:18:09 | 52.33580 | 11.45351 | 134° | 146km/h | 11696m | -7.7m/s | -251.1°C | 0% | 211.8hPa | 2.6V | 02:29:58 | 03:20:28 | 00:00:00 | |
| DD8BA-10 | 2026-09-03 01:18:09 | 52.33580 | 11.45351 | 134° | 144km/h | 11696m | -7.7m/s | 0°C | 0% | 211.7hPa | 2.5V | 00:00:00 | 00:00:00 | 00:00:00 | |
| DF7PN | 2026-09-03 01:18:08 | 52.33631 | 11.45263 | 133° | 144km/h | 11713m | -8.3m/s | 0°C | -1.0% | -1.0hPa | 2.5V | 00:00:00 | 00:00:00 | 00:00:00 | |
| DO2SHX-10 | 2026-09-03 01:18:07 | 52.33631 | 11.45263 | 134° | 146km/h | 11713m | -8.3m/s | 0°C | 0% | 211.1hPa | 2.5V | 02:29:00 | 03:20:26 | 00:00:00 | |
| DL1XH1-15 | 2026-09-03 01:18:06 | 52.33730 | 11.45087 | 132° | 144km/h | 11745m | -8.3m/s | 0°C | 0% | 0hPa | 2.6V | 02:29:21 | 03:20:22 | 00:00:00 | |
| DF8AY | 2026-09-03 01:18:05 | 52.33681 | 11.45175 | 133° | 144km/h | 11729m | -8.2m/s | -251.1°C | 0% | 210.8hPa | 2.5V | 02:29:58 | 03:20:24 | 00:00:00 | |
| HSKMA3-T | 2026-09-03 01:18:03 | 52.33730 | 11.45087 | 133° | 144km/h | 11745m | -8.3m/s | -251.1°C | 0% | 210.2hPa | 2.6V | 02:29:58 | 03:20:22 | 00:00:00 | |
| DL1XH-15 | 2026-09-03 01:18:01 | 52.33804 | 11.44957 | 132° | 142km/h | 11768m | -7.7m/s | 0°C | 0% | 0hPa | 2.5V | 02:29:24 | 03:20:19 | 00:00:00 | |
| DL1XH-west | 2026-09-03 01:17:58 | 52.33853 | 11.44871 | 133° | 141km/h | 11784m | -8.1m/s | -251.1°C | 0% | 208.8hPa | 2.5V | 02:29:58 | 03:20:17 | 00:00:00 | |
| DO2SHX-10 | 2026-09-03 01:17:58 | 52.33853 | 11.44871 | 134° | 141km/h | 11784m | -8.0m/s | 0°C | 0% | 208.8hPa | 2.5V | 02:29:00 | 03:20:17 | 00:00:00 | |
| DM0DOS-11 | 2026-09-03 01:17:57 | 52.33996 | 11.44618 | 131° | 137km/h | 11832m | -7.7m/s | 0°C | 0% | 0hPa | 2.5V | 02:29:32 | 03:20:11 | 00:00:00 | |
| EDDB2-12 | 2026-09-03 01:17:57 | 52.33901 | 11.44786 | 133° | 139km/h | 11800m | -8.2m/s | 0°C | -1.0% | 208.3hPa | 2.5V | 00:00:00 | 00:00:00 | 00:00:00 | |
| DL1XH1-15 | 2026-09-03 01:17:56 | 52.33973 | 11.44660 | 132° | 137km/h | 11825m | -7.9m/s | 0°C | 0% | 0hPa | 2.5V | 02:29:31 | 03:20:12 | 00:00:00 | |
| DF8AY | 2026-09-03 01:17:54 | 52.33949 | 11.44702 | 132° | 139km/h | 11817m | -7.9m/s | -251.1°C | 0% | 207.8hPa | 2.6V | 02:29:58 | 03:20:13 | 00:00:00 | |
| HSKMA3-T | 2026-09-03 01:17:53 | 52.33973 | 11.44660 | 132° | 137km/h | 11825m | -7.9m/s | -251.1°C | 0% | 207.4hPa | 2.5V | 02:29:58 | 03:20:12 | 00:00:00 | |
| BUE01 | 2026-09-03 01:17:53 | 52.33996 | 11.44618 | 131° | 135km/h | 11832m | -7.7m/s | 0°C | -1.0% | 207.3hPa | 2.5V | 00:00:00 | 00:00:00 | 00:00:00 | |
| DL4XJ-10 | 2026-09-03 01:17:52 | 52.33996 | 11.44618 | 132° | 137km/h | 11833m | -7.7m/s | 0°C | 0% | 0hPa | 2.5V | 00:00:00 | 00:00:00 | 00:00:00 | |
| DL1XH-15 | 2026-09-03 01:17:51 | 52.34042 | 11.44534 | 131° | 135km/h | 11848m | -8.1m/s | 0°C | 0% | 0hPa | 2.5V | 02:29:34 | 03:20:09 | 00:00:00 | |
| DL1XH-west | 2026-09-03 01:17:48 | 52.34087 | 11.44450 | 131° | 135km/h | 11864m | -7.8m/s | -251.1°C | 0% | 206.2hPa | 2.6V | 02:29:58 | 03:20:07 | 00:00:00 | |
| DM0DOS-11 | 2026-09-03 01:17:47 | 52.34221 | 11.44192 | 129° | 137km/h | 11912m | -8m/s | 0°C | 0% | 0hPa | 2.6V | 02:29:42 | 03:20:01 | 00:00:00 | |
| SONCRA | 2026-09-03 01:17:46 | 52.34154 | 11.44322 | 130° | 137km/h | 11888m | -8.4m/s | 0°C | -1.0% | 205.3hPa | 2.5V | 00:00:00 | 00:00:00 | 00:00:00 | |
| DF8AY | 2026-09-03 01:17:43 | 52.34199 | 11.44236 | 130° | 137km/h | 11904m | -8.1m/s | -251.1°C | 0% | 204.9hPa | 2.5V | 02:29:58 | 03:20:02 | 00:00:00 | |
| HSKMA3-T | 2026-09-03 01:17:42 | 52.34221 | 11.44192 | 130° | 137km/h | 11912m | -8m/s | -251.1°C | 0% | 204.6hPa | 2.6V | 02:29:58 | 03:20:01 | 00:00:00 | |
| DL1XH-15 | 2026-09-03 01:17:41 | 52.34265 | 11.44104 | 129° | 137km/h | 11928m | -8.4m/s | 0°C | 0% | 0hPa | 2.6V | 02:29:44 | 03:19:59 | 00:00:00 | |
| DL1XH-west | 2026-09-03 01:17:38 | 52.34308 | 11.44016 | 129° | 137km/h | 11945m | -8.5m/s | -251.1°C | 0% | 203.5hPa | 2.5V | 02:29:58 | 03:19:57 | 00:00:00 | |
| DO2SHX-10 | 2026-09-03 01:17:37 | 52.34330 | 11.43972 | 129° | 137km/h | 11953m | -8.3m/s | 0°C | 0% | 203.2hPa | 2.6V | 00:00:00 | 03:19:56 | 00:00:00 | |
| DL1XH1-15 | 2026-09-03 01:17:36 | 52.34414 | 11.43793 | 126° | 137km/h | 11986m | -8m/s | 0°C | 0% | 0hPa | 2.6V | 02:29:51 | 03:19:52 | 00:00:00 | |
| DF8AY | 2026-09-03 01:17:32 | 52.34434 | 11.43748 | 127° | 139km/h | 11994m | -8.1m/s | -251.1°C | 0% | 202hPa | 2.5V | 02:29:58 | 03:19:51 | 00:00:00 | |
| AA1-15 | 2026-09-03 01:17:31 | 52.34455 | 11.43702 | 127° | 139km/h | 12002m | -8.3m/s | -251.1°C | 0% | 201.8hPa | 2.5V | 02:29:58 | 03:19:50 | 00:00:00 | |
| DL1XH-15 | 2026-09-03 01:17:31 | 52.34476 | 11.43656 | 126° | 141km/h | 12011m | -8.3m/s | 0°C | 0% | 0hPa | 2.5V | 02:29:54 | 03:19:49 | 00:00:00 | |
| DO2SHX-10 | 2026-09-03 01:17:31 | 52.34455 | 11.43702 | 127° | 141km/h | 12003m | -8.3m/s | 0°C | 0% | 201.7hPa | 2.5V | 02:29:00 | 03:19:50 | 00:00:00 | |
| DD8BA-10 | 2026-09-03 01:17:29 | 52.34497 | 11.43609 | 127° | 142km/h | 12019m | -8.4m/s | 0°C | 0% | 201.2hPa | 2.5V | 00:00:00 | 00:00:00 | 00:00:00 | |
| DK9SH | 2026-09-03 01:17:28 | 52.34518 | 11.43562 | 127° | 142km/h | 12028m | -8.2m/s | 0°C | 0% | 201.0hPa | 2.5V | 02:29:00 | 00:00:00 | 00:00:00 | |
| DM0DOS-11 | 2026-09-03 01:17:27 | 52.34645 | 11.43275 | 126° | 144km/h | 12076m | -8.1m/s | 0°C | 0% | 0hPa | 2.5V | 02:30:02 | 03:19:41 | 00:00:00 | |
| DL1XH-west | 2026-09-03 01:17:27 | 52.34539 | 11.43514 | 126° | 142km/h | 12035m | -7.7m/s | -251.1°C | 0% | 200.6hPa | 2.6V | 02:29:58 | 03:19:46 | 00:00:00 | |
| SP3BTT-10 | 2026-09-03 01:17:27 | 52.34539 | 11.43514 | 126° | 113km/h | 12036m | -7.6m/s | 0°C | 0% | 200.6hPa | 2.5V | 00:00:00 | 00:00:00 | 00:00:00 | |
| DL1XH1-15 | 2026-09-03 01:17:26 | 52.34624 | 11.43323 | 126° | 142km/h | 12068m | -8.3m/s | 0°C | 0% | 0hPa | 2.5V | 02:30:01 | 03:19:42 | 00:00:00 | |
| DF8AY | 2026-09-03 01:17:23 | 52.34645 | 11.43275 | 127° | 144km/h | 12076m | -8.1m/s | -251.1°C | 0% | 199.4hPa | 2.5V | 02:30:49 | 03:19:41 | 00:00:00 | |
| DO2SHX-10 | 2026-09-03 01:17:22 | 52.34645 | 11.43275 | 127° | 144km/h | 12077m | -8.1m/s | 0°C | 0% | 199.3hPa | 2.5V | 02:30:00 | 03:19:41 | 00:00:00 | |
| DL1XH-15 | 2026-09-03 01:17:21 | 52.34689 | 11.43180 | 127° | 144km/h | 12093m | -8.2m/s | 0°C | 0% | 0hPa | 2.6V | 02:30:04 | 03:19:39 | 00:00:00 | |
| AA1-15 | 2026-09-03 01:17:21 | 52.34667 | 11.43228 | 127° | 144km/h | 12085m | -8.4m/s | -251.1°C | 0% | 199.1hPa | 2.6V | 02:30:49 | 03:19:40 | 00:00:00 | |
| DO2SHX-10 | 2026-09-03 01:17:19 | 52.34711 | 11.43133 | 128° | 142km/h | 12101m | -7.6m/s | 0°C | 0% | 198.6hPa | 2.6V | 00:00:00 | 03:19:38 | 00:00:00 | |
| DM0DOS-11 | 2026-09-03 01:17:17 | 52.34863 | 11.42815 | 128° | 137km/h | 12157m | -8.1m/s | 0°C | 0% | 0hPa | 2.6V | 02:30:12 | 03:19:31 | 00:00:00 | |
| DL1XH1-15 | 2026-09-03 01:17:16 | 52.34841 | 11.42859 | 128° | 137km/h | 12149m | -8m/s | 0°C | 0% | 0hPa | 2.6V | 02:30:11 | 03:19:32 | 00:00:00 | |
| DL1XH-west | 2026-09-03 01:17:16 | 52.34776 | 11.42994 | 128° | 141km/h | 12125m | -8.1m/s | -251.1°C | 0% | 197.8hPa | 2.5V | 02:30:49 | 03:19:35 | 00:00:00 | |
| DF8AY | 2026-09-03 01:17:12 | 52.34884 | 11.42771 | 130° | 135km/h | 12165m | -8.3m/s | -251.1°C | 0% | 196.6hPa | 2.5V | 02:30:49 | 03:19:30 | 00:00:00 | |
| AA1-15 | 2026-09-03 01:17:10 | 52.34906 | 11.42728 | 130° | 135km/h | 12173m | -8.1m/s | -251.1°C | 0% | 196.4hPa | 2.5V | 02:30:49 | 03:19:29 | 00:00:00 | |
| DO2SHX-10 | 2026-09-03 01:17:10 | 52.34906 | 11.42728 | 131° | 135km/h | 12174m | -8.0m/s | 0°C | 0% | 196.3hPa | 2.5V | 00:00:00 | 03:19:29 | 00:00:00 | |
| DD8BA-10 | 2026-09-03 01:17:09 | 52.34928 | 11.42686 | 132° | 133km/h | 12182m | -8.0m/s | 0°C | 0% | 196.1hPa | 2.5V | 00:00:00 | 00:00:00 | 00:00:00 | |
| DK9SH | 2026-09-03 01:17:08 | 52.34951 | 11.42645 | 133° | 133km/h | 12190m | -7.9m/s | 0°C | 0% | 195.8hPa | 2.5V | 00:00:00 | 00:00:00 | 00:00:00 | |
| DM0DOS-11 | 2026-09-03 01:17:07 | 52.35090 | 11.42402 | 133° | 135km/h | 12236m | -8.3m/s | 0°C | 0% | 0hPa | 2.5V | 02:30:22 | 03:19:21 | 00:00:00 | |
| DL1XH-west | 2026-09-03 01:17:05 | 52.35019 | 11.42523 | 133° | 133km/h | 12213m | -7.5m/s | -251.1°C | 0% | 195.1hPa | 2.6V | 02:30:49 | 03:19:24 | 00:00:00 | |
| DF8AY | 2026-09-03 01:17:00 | 52.35249 | 11.42132 | 134° | 124km/h | 12294m | -7.9m/s | -251.1°C | 0% | 192.6hPa | 2.5V | 02:30:49 | 03:19:14 | 00:00:00 | |
| AA1-15 | 2026-09-03 01:16:59 | 52.35160 | 11.42283 | 133° | 130km/h | 12261m | -8.2m/s | -251.1°C | 0% | 193.7hPa | 2.6V | 02:30:49 | 03:19:18 | 00:00:00 | |
| DB0NH | 2026-09-03 01:16:59 | 52.35160 | 11.42283 | 134° | 120km/h | 12261m | -8.2m/s | 0°C | 0% | 193.7hPa | 2.6V | 00:00:00 | 03:19:18 | 00:00:00 | |
| DO2SHX-10 | 2026-09-03 01:16:58 | 52.35182 | 11.42244 | 134° | 128km/h | 12269m | -8.7m/s | 0°C | 0% | 193.4hPa | 2.6V | 00:00:00 | 03:19:17 | 00:00:00 | |
| DM0DOS-11 | 2026-09-03 01:16:57 | 52.35312 | 11.42022 | 131° | 120km/h | 12320m | -8.3m/s | 0°C | 0% | 0hPa | 2.6V | 02:30:32 | 03:19:11 | 00:00:00 | |
| DL1XH-west | 2026-09-03 01:16:54 | 52.35270 | 11.42095 | 134° | 122km/h | 12302m | -8.8m/s | -251.1°C | 0% | 192.3hPa | 2.5V | 02:30:49 | 03:19:13 | 00:00:00 | |
| HSKMA3-T | 2026-09-03 01:16:53 | 52.35291 | 11.42059 | 133° | 120km/h | 12311m | -9.1m/s | -251.1°C | 0% | 192.1hPa | 2.6V | 02:31:40 | 03:19:12 | 00:00:00 | |
| AA1-15 | 2026-09-03 01:16:49 | 52.35371 | 11.41908 | 130° | 122km/h | 12345m | -9.7m/s | -251.1°C | 0% | 191.1hPa | 2.5V | 02:30:49 | 03:19:08 | 00:00:00 | |
| DF8AY | 2026-09-03 01:16:47 | 52.35411 | 11.41830 | 129° | 124km/h | 12363m | -8.7m/s | -251.1°C | 0% | 190.5hPa | 2.5V | 02:30:49 | 03:19:06 | 00:00:00 | |
| DK9SH | 2026-09-03 01:16:47 | 52.35411 | 11.41830 | 130° | 124km/h | 12363m | -8.7m/s | 0°C | 0% | 190.5hPa | 2.5V | 00:00:00 | 00:00:00 | 00:00:00 | |
| DL1XH1-15 | 2026-09-03 01:16:46 | 52.35492 | 11.41671 | 129° | 124km/h | 12398m | -8.3m/s | 0°C | 0% | 0hPa | 2.5V | 02:30:41 | 03:19:02 | 00:00:00 | |
| DL1XH-west | 2026-09-03 01:16:44 | 52.35471 | 11.41710 | 130° | 126km/h | 12389m | -8.9m/s | -251.1°C | 0% | 189.8hPa | 2.6V | 02:30:49 | 03:19:03 | 00:00:00 | |
| DF8AY | 2026-09-03 01:16:42 | 52.35610 | 11.41445 | 131° | 117km/h | 12450m | -8.5m/s | -251.1°C | 0% | 187.9hPa | 2.6V | 02:30:49 | 03:18:56 | 00:00:00 | |
| GOEST3-10 | 2026-09-03 01:16:42 | 52.35512 | 11.41632 | 131° | 120km/h | 12407m | -8.9m/s | 0°C | 0% | 189.2hPa | 2.5V | 00:00:00 | 03:19:01 | 00:00:00 | |
| DL1XH-15 | 2026-09-03 01:16:41 | 52.35551 | 11.41556 | 130° | 120km/h | 12424m | -8.7m/s | 0°C | 0% | 0hPa | 2.5V | 02:30:44 | 03:18:59 | 00:00:00 | |
| DB0DAN | 2026-09-03 01:16:40 | 52.35551 | 11.41556 | 131° | 115km/h | 12425m | -8.7m/s | -251.1°C | 0% | 188.77hPa | 2.5V | 00:00:00 | 00:00:00 | 00:00:00 | |
| AA1-15 | 2026-09-03 01:16:38 | 52.35590 | 11.41482 | 131° | 117km/h | 12441m | -8.4m/s | -251.1°C | 0% | 188.2hPa | 2.6V | 02:30:49 | 03:18:57 | 00:00:00 | |
| DM0DOS-11 | 2026-09-03 01:16:37 | 52.35709 | 11.41272 | 134° | 113km/h | 12492m | -8.3m/s | 0°C | 0% | 0hPa | 2.6V | 02:30:52 | 03:18:51 | 00:00:00 | |
| DO2SHX-10 | 2026-09-03 01:16:37 | 52.35610 | 11.41445 | 132° | 117km/h | 12450m | -8.4m/s | 0°C | 0% | 187.9hPa | 2.6V | 02:30:00 | 03:18:56 | 00:00:00 | |
| DL1XH1-15 | 2026-09-03 01:16:36 | 52.35689 | 11.41305 | 134° | 113km/h | 12484m | -8m/s | 0°C | 0% | 0hPa | 2.5V | 02:30:51 | 03:18:52 | 00:00:00 | |
| DL1XH-west | 2026-09-03 01:16:34 | 52.35669 | 11.41339 | 134° | 115km/h | 12476m | -8.6m/s | -251.1°C | 0% | 187.2hPa | 2.5V | 02:31:40 | 03:18:53 | 00:00:00 | |
| AA1-15 | 2026-09-03 01:16:28 | 52.35787 | 11.41141 | 133° | 108km/h | 12525m | -8.6m/s | -251.1°C | 0% | 185.7hPa | 2.5V | 02:31:40 | 03:18:47 | 00:00:00 | |
| DO2SHX-10 | 2026-09-03 01:16:28 | 52.35786 | 11.41141 | 134° | 106km/h | 12525m | -8.6m/s | 0°C | 0% | 185.7hPa | 2.5V | 02:30:00 | 03:18:47 | 00:00:00 | |
| DM0DOS-11 | 2026-09-03 01:16:27 | 52.35893 | 11.40948 | 129° | 102km/h | 12577m | -8.6m/s | 0°C | 0% | 0hPa | 2.5V | 02:31:02 | 03:18:41 | 00:00:00 | |
| DF8AY | 2026-09-03 01:16:26 | 52.35823 | 11.41077 | 133° | 106km/h | 12542m | -8.9m/s | -251.1°C | 0% | 185.2hPa | 2.5V | 02:31:40 | 03:18:45 | 00:00:00 | |
| DL1XH1-15 | 2026-09-03 01:16:26 | 52.35876 | 11.40981 | 130° | 102km/h | 12568m | -8.7m/s | 0°C | 0% | 0hPa | 2.6V | 02:31:01 | 03:18:42 | 00:00:00 | |
| DL1XH-west | 2026-09-03 01:16:23 | 52.35876 | 11.40981 | 131° | 102km/h | 12568m | -8.7m/s | -251.1°C | 0% | 184.5hPa | 2.6V | 02:31:40 | 03:18:42 | 00:00:00 | |
| SONDE2-11 | 2026-09-03 01:16:22 | 52.35909 | 11.40916 | 129° | 100km/h | 12586m | -8.9m/s | 0°C | -1.0% | 184.0hPa | 2.5V | 00:00:00 | 00:00:00 | 00:00:00 | |
| DO2SHX-10 | 2026-09-03 01:16:19 | 52.35940 | 11.40851 | 129° | 99km/h | 12603m | -8.8m/s | 0°C | 0% | 183.4hPa | 2.5V | 02:31:00 | 03:18:38 | 00:00:00 | |
| DF7ER-10 | 2026-09-03 01:16:18 | 52.35940 | 11.40852 | 130° | 99km/h | 12603m | -8.8m/s | 0°C | 0% | 183.4hPa | 2.6V | 02:31:00 | 00:00:00 | 00:00:00 | |
| GOEST3-10 | 2026-09-03 01:16:17 | 52.35971 | 11.40788 | 128° | 100km/h | 12619m | -8.0m/s | 0°C | 0% | 183.0hPa | 2.6V | 02:31:00 | 03:18:36 | 00:00:00 | |
| DL1XH1-15 | 2026-09-03 01:16:16 | 52.36032 | 11.40655 | 126° | 102km/h | 12653m | -8.8m/s | 0°C | 0% | 0hPa | 2.5V | 02:31:11 | 03:18:32 | 00:00:00 | |
| AA1-15 | 2026-09-03 01:16:14 | 52.36017 | 11.40689 | 127° | 102km/h | 12645m | -9m/s | -251.1°C | 0% | 182.3hPa | 2.5V | 02:31:40 | 03:18:33 | 00:00:00 | |
| DM0DOS-11 | 2026-09-03 01:16:14 | 52.36048 | 11.40622 | 126° | 102km/h | 12662m | -9m/s | 0°C | 0% | 0hPa | 2.5V | 02:31:12 | 03:18:31 | 00:00:00 | |
| DL1XH-west | 2026-09-03 01:16:13 | 52.36048 | 11.40622 | 127° | 102km/h | 12662m | -9m/s | -251.1°C | 0% | 181.8hPa | 2.5V | 02:31:40 | 03:18:31 | 00:00:00 | |
| HSKMA3-T | 2026-09-03 01:16:08 | 52.36107 | 11.40490 | 126° | 95km/h | 12696m | -8.5m/s | -251.1°C | 0% | 180.8hPa | 2.5V | 02:31:40 | 03:18:27 | 00:00:00 | |
| DM0DOS-11 | 2026-09-03 01:16:07 | 52.36200 | 11.40263 | 121° | 95km/h | 12756m | -9.2m/s | 0°C | 0% | 0hPa | 2.5V | 02:31:23 | 03:18:20 | 00:00:00 | |
| DF8AY | 2026-09-03 01:16:05 | 52.36147 | 11.40395 | 124° | 93km/h | 12722m | -8.7m/s | -251.1°C | 0% | 180.1hPa | 2.5V | 02:31:40 | 03:18:24 | 00:00:00 | |
| AA1-15 | 2026-09-03 01:16:04 | 52.36161 | 11.40363 | 124° | 95km/h | 12731m | -8.6m/s | -251.1°C | 0% | 179.8hPa | 2.6V | 02:31:40 | 03:18:23 | 00:00:00 | |
| DL1XH-west | 2026-09-03 01:16:02 | 52.36199 | 11.40263 | 122° | 95km/h | 12756m | -9.2m/s | -251.1°C | 0% | 179.2hPa | 2.5V | 02:31:40 | 03:18:20 | 00:00:00 | |
| HSKMA3-T | 2026-09-03 01:15:58 | 52.36238 | 11.40161 | 121° | 99km/h | 12782m | -8.6m/s | -251.1°C | 0% | 178.4hPa | 2.5V | 02:31:40 | 03:18:17 | 00:00:00 | |
| DF7ER-10 | 2026-09-03 01:15:58 | 52.36238 | 11.40161 | 122° | 99km/h | 12782m | -8.6m/s | 0°C | 0% | 178.4hPa | 2.6V | 02:31:00 | 00:00:00 | 00:00:00 | |
| DM0DOS-11 | 2026-09-03 01:15:56 | 52.36329 | 11.39898 | 119° | 108km/h | 12844m | -8.7m/s | 0°C | 0% | 0hPa | 2.6V | 02:31:33 | 03:18:10 | 00:00:00 | |
| DL1XH1-15 | 2026-09-03 01:15:56 | 52.36302 | 11.39975 | 118° | 106km/h | 12827m | -8.4m/s | 0°C | 0% | 0hPa | 2.5V | 02:31:31 | 03:18:12 | 00:00:00 | |
| DF8AY | 2026-09-03 01:15:54 | 52.36302 | 11.39975 | 119° | 106km/h | 12827m | -8.4m/s | -251.1°C | 0% | 177.2hPa | 2.5V | 02:31:40 | 03:18:12 | 00:00:00 | |
| AA1-15 | 2026-09-03 01:15:54 | 52.36289 | 11.40013 | 119° | 106km/h | 12818m | -9.3m/s | -251.1°C | 0% | 177.5hPa | 2.5V | 02:31:40 | 03:18:13 | 00:00:00 | |
| DL1XH-west | 2026-09-03 01:15:51 | 52.36328 | 11.39898 | 119° | 108km/h | 12844m | -8.7m/s | -251.1°C | 0% | 176.7hPa | 2.6V | 02:31:40 | 03:18:10 | 00:00:00 | |
| DL1XH-15 | 2026-09-03 01:15:51 | 52.36341 | 11.39859 | 118° | 108km/h | 12853m | -9.1m/s | 0°C | 0% | 0hPa | 2.6V | 02:31:34 | 03:18:09 | 00:00:00 | |
| HSKMA3-T | 2026-09-03 01:15:47 | 52.36381 | 11.39740 | 118° | 110km/h | 12880m | -9.6m/s | -251.1°C | 0% | 175.7hPa | 2.5V | 02:31:40 | 03:18:06 | 00:00:00 | |
| DM0DOS-11 | 2026-09-03 01:15:46 | 52.36466 | 11.39491 | 120° | 120km/h | 12935m | -9.7m/s | 0°C | 0% | 0hPa | 2.6V | 02:31:43 | 03:18:00 | 00:00:00 | |
| DL1XH1-15 | 2026-09-03 01:15:46 | 52.36436 | 11.39576 | 119° | 117km/h | 12917m | -9.2m/s | 0°C | 0% | 0hPa | 2.5V | 02:31:41 | 03:18:02 | 00:00:00 | |
| DF8AY | 2026-09-03 01:15:44 | 52.36422 | 11.39618 | 119° | 115km/h | 12908m | -9.1m/s | -251.1°C | 0% | 174.9hPa | 2.5V | 02:31:40 | 03:18:03 | 00:00:00 | |
| AA1-15 | 2026-09-03 01:15:43 | 52.36436 | 11.39576 | 119° | 117km/h | 12917m | -9.2m/s | -251.1°C | 0% | 174.7hPa | 2.5V | 02:32:31 | 03:18:02 | 00:00:00 | |
| DO2SHX-10 | 2026-09-03 01:15:43 | 52.36436 | 11.39576 | 120° | 119km/h | 12917m | -9.2m/s | 0°C | 0% | 174.7hPa | 2.5V | 02:31:00 | 03:18:02 | 00:00:00 | |
| DL1NUX | 2026-09-03 01:15:42 | 52.36532 | 11.39322 | 123° | 120km/h | 12973m | -9.4m/s | 0°C | 0% | 0hPa | 2.5V | 02:31:47 | 03:17:56 | 00:00:00 | |
| DL1XH-15 | 2026-09-03 01:15:41 | 52.36482 | 11.39449 | 121° | 120km/h | 12945m | -9.2m/s | 0°C | 0% | 0hPa | 2.6V | 02:31:44 | 03:17:59 | 00:00:00 | |
| DL1XH-west | 2026-09-03 01:15:40 | 52.36482 | 11.39449 | 122° | 120km/h | 12945m | -9.2m/s | -251.1°C | 0% | 174hPa | 2.6V | 02:32:31 | 03:17:59 | 00:00:00 | |
| DO2SHX-10 | 2026-09-03 01:15:40 | 52.36482 | 11.39449 | 122° | 122km/h | 12945m | -9.2m/s | 0°C | 0% | 173.9hPa | 2.6V | 00:00:00 | 03:17:59 | 00:00:00 | |
| S3001 | 2026-09-03 01:15:39 | 52.36515 | 11.39364 | 123° | 120km/h | 12964m | -9.5m/s | 0°C | -1.0% | 173.4hPa | 2.6V | 00:00:00 | 00:00:00 | 00:00:00 | |
| EDDB2-11 | 2026-09-03 01:15:38 | 52.36515 | 11.39364 | 123° | 120km/h | 12964m | -9.5m/s | 0°C | -1.0% | 173.4hPa | 2.6V | 00:00:00 | 00:00:00 | 00:00:00 | |
| DO2SHX-10 | 2026-09-03 01:15:37 | 52.36532 | 11.39322 | 124° | 119km/h | 12974m | -9.3m/s | 0°C | 0% | 173.1hPa | 2.6V | 00:00:00 | 03:17:56 | 00:00:00 | |
| DL1XH1-15 | 2026-09-03 01:15:36 | 52.36599 | 11.39161 | 124° | 115km/h | 13010m | -9.3m/s | 0°C | 0% | 0hPa | 2.6V | 02:31:51 | 03:17:52 | 00:00:00 | |
| HSKMA3-T | 2026-09-03 01:15:36 | 52.36549 | 11.39281 | 124° | 120km/h | 12983m | -9.6m/s | -251.1°C | 0% | 172.9hPa | 2.5V | 02:32:31 | 03:17:55 | 00:00:00 | |
| DF8AY | 2026-09-03 01:15:33 | 52.36599 | 11.39161 | 124° | 115km/h | 13010m | -9.4m/s | -251.1°C | 0% | 172.2hPa | 2.6V | 02:32:31 | 03:17:52 | 00:00:00 | |
| AA1-15 | 2026-09-03 01:15:32 | 52.36615 | 11.39123 | 125° | 113km/h | 13019m | -9.5m/s | -251.1°C | 0% | 171.9hPa | 2.6V | 02:32:31 | 03:17:51 | 00:00:00 | |
| DL1XH-15 | 2026-09-03 01:15:31 | 52.36647 | 11.39047 | 124° | 110km/h | 13037m | -9.3m/s | 0°C | 0% | 0hPa | 2.5V | 02:31:54 | 03:17:49 | 00:00:00 | |
| DL1XH-west | 2026-09-03 01:15:29 | 52.36663 | 11.39010 | 125° | 110km/h | 13047m | -9.6m/s | -251.1°C | 0% | 171.1hPa | 2.5V | 02:32:31 | 03:17:48 | 00:00:00 | |
| TFSTFS | 2026-09-03 01:15:29 | 52.36663 | 11.39010 | 126° | 110km/h | 13047m | -9.6m/s | 0°C | 0% | 171.1hPa | 2.5V | 02:32:00 | 00:00:00 | 00:00:00 | |
| DO2SHX-10 | 2026-09-03 01:15:28 | 52.36679 | 11.38973 | 126° | 106km/h | 13056m | -9.6m/s | 0°C | 0% | 170.9hPa | 2.5V | 00:00:00 | 03:17:47 | 00:00:00 | |
| HTAHTA | 2026-09-03 01:15:27 | 52.36710 | 11.38903 | 125° | 104km/h | 13074m | -9.0m/s | 0°C | -1.0% | 170.5hPa | 2.5V | 00:00:00 | 00:00:00 | 00:00:00 | |
| DL1XH1-15 | 2026-09-03 01:15:26 | 52.36756 | 11.38799 | 126° | 100km/h | 13102m | -9.1m/s | 0°C | 0% | 0hPa | 2.5V | 02:32:01 | 03:17:42 | 00:00:00 | |
| HSKMA3-T | 2026-09-03 01:15:26 | 52.36710 | 11.38903 | 125° | 104km/h | 13074m | -9m/s | -251.1°C | 0% | 170.5hPa | 2.6V | 02:32:31 | 03:17:45 | 00:00:00 | |
| AA1-15 | 2026-09-03 01:15:22 | 52.36771 | 11.38765 | 126° | 102km/h | 13111m | -9.5m/s | -251.1°C | 0% | 169.4hPa | 2.5V | 02:32:31 | 03:17:41 | 00:00:00 | |
| DO2SHX-10 | 2026-09-03 01:15:22 | 52.36771 | 11.38765 | 127° | 100km/h | 13111m | -9.4m/s | 0°C | 0% | 169.4hPa | 2.6V | 00:00:00 | 03:17:41 | 00:00:00 | |
| DL1XH-15 | 2026-09-03 01:15:21 | 52.36801 | 11.38697 | 126° | 100km/h | 13130m | -9.9m/s | 0°C | 0% | 0hPa | 2.6V | 02:32:04 | 03:17:39 | 00:00:00 | |
| DL1XH-west | 2026-09-03 01:15:19 | 52.36816 | 11.38664 | 125° | 100km/h | 13139m | -9.2m/s | -251.1°C | 0% | 168.8hPa | 2.6V | 02:32:31 | 03:17:38 | 00:00:00 | |
| DO2SHX-10 | 2026-09-03 01:15:19 | 52.36816 | 11.38664 | 125° | 99km/h | 13139m | -9.2m/s | 0°C | 0% | 168.7hPa | 2.5V | 00:00:00 | 03:17:38 | 00:00:00 | |
| DM0DOS-11 | 2026-09-03 01:15:16 | 52.36914 | 11.38386 | 116° | 97km/h | 13211m | -9.6m/s | 0°C | 0% | 0hPa | 2.5V | 02:32:13 | 03:17:30 | 00:00:00 | |
| HSKMA3-T | 2026-09-03 01:15:15 | 52.36868 | 11.38526 | 119° | 97km/h | 13176m | -9.4m/s | -251.1°C | 0% | 167.8hPa | 2.5V | 02:32:31 | 03:17:34 | 00:00:00 | |
| AA1-15 | 2026-09-03 01:15:12 | 52.36914 | 11.38386 | 117° | 97km/h | 13211m | -9.6m/s | -251.1°C | 0% | 166.9hPa | 2.5V | 02:32:31 | 03:17:30 | 00:00:00 | |
| DB0DAN | 2026-09-03 01:15:10 | 52.36925 | 11.38350 | 115° | 93km/h | 13220m | -9.1m/s | -251.1°C | 0% | 166.63hPa | 2.5V | 00:00:00 | 00:00:00 | 00:00:00 | |
| DL1XH-west | 2026-09-03 01:15:08 | 52.36946 | 11.38277 | 114° | 99km/h | 13239m | -9.2m/s | -251.1°C | 0% | 166.2hPa | 2.6V | 02:32:31 | 03:17:27 | 00:00:00 | |
| S3001 | 2026-09-03 01:15:08 | 52.36956 | 11.38239 | 113° | 100km/h | 13248m | -9.9m/s | 0°C | -1.0% | 165.9hPa | 2.5V | 00:00:00 | 00:00:00 | 00:00:00 | |
| DO2SHX-10 | 2026-09-03 01:15:07 | 52.36956 | 11.38239 | 114° | 102km/h | 13248m | -9.9m/s | 0°C | 0% | 165.9hPa | 2.5V | 02:32:00 | 03:17:26 | 00:00:00 | |
| DM0DOS-11 | 2026-09-03 01:15:05 | 52.37022 | 11.38008 | 115° | 104km/h | 13302m | -9.1m/s | 0°C | 0% | 0hPa | 2.5V | 02:32:23 | 03:17:20 | 00:00:00 | |
| HSKMA3-T | 2026-09-03 01:15:05 | 52.36977 | 11.38162 | 115° | 102km/h | 13267m | -9.5m/s | -251.1°C | 0% | 165.5hPa | 2.5V | 02:32:31 | 03:17:24 | 00:00:00 | |
| AA1-15 | 2026-09-03 01:15:00 | 52.37033 | 11.37969 | 115° | 104km/h | 13312m | -9.8m/s | -251.1°C | 0% | 164.3hPa | 2.5V | 02:32:31 | 03:17:19 | 00:00:00 | |
| DL1XH-west | 2026-09-03 01:14:57 | 52.37067 | 11.37852 | 115° | 106km/h | 13340m | -9m/s | -251.1°C | 0% | 163.6hPa | 2.6V | 02:32:31 | 03:17:16 | 00:00:00 | |
| DL1XH1-15 | 2026-09-03 01:14:56 | 52.37115 | 11.37690 | 117° | 113km/h | 13378m | -10.7m/s | 0°C | 0% | 0hPa | 2.5V | 02:32:31 | 03:17:12 | 00:00:00 | |
| HTAHTA | 2026-09-03 01:14:56 | 52.37090 | 11.37772 | 115° | 108km/h | 13358m | -10.1m/s | 0°C | -1.0% | 163.2hPa | 2.6V | 00:00:00 | 00:00:00 | 00:00:00 | |
| DB0DAN | 2026-09-03 01:14:55 | 52.37090 | 11.37772 | 116° | 102km/h | 13358m | -10.1m/s | -251.1°C | 0% | 163.17hPa | 2.6V | 00:00:00 | 00:00:00 | 00:00:00 | |
| DF7ER-10 | 2026-09-03 01:14:55 | 52.37090 | 11.37772 | 117° | 108km/h | 13359m | -10.1m/s | 0°C | 0% | 163.2hPa | 2.5V | 02:32:00 | 00:00:00 | 00:00:00 | |
| DM0DOS-11 | 2026-09-03 01:14:54 | 52.37143 | 11.37608 | 119° | 115km/h | 13398m | -9.5m/s | 0°C | 0% | 0hPa | 2.5V | 02:32:33 | 03:17:10 | 00:00:00 | |
| HSKMA3-T | 2026-09-03 01:14:54 | 52.37103 | 11.37732 | 116° | 111km/h | 13368m | -9.9m/s | -251.1°C | 0% | 162.9hPa | 2.5V | 02:32:31 | 03:17:13 | 00:00:00 | |
| DF8AY | 2026-09-03 01:14:50 | 52.37158 | 11.37566 | 119° | 117km/h | 13407m | -8.9m/s | -251.1°C | 0% | 161.9hPa | 2.6V | 02:33:22 | 03:17:09 | 00:00:00 | |
| DL1NUX | 2026-09-03 01:14:50 | 52.37226 | 11.37360 | 118° | 110km/h | 13453m | -9.6m/s | 0°C | 0% | 0hPa | 2.5V | 02:32:39 | 03:17:04 | 00:00:00 | |
| AA1-15 | 2026-09-03 01:14:49 | 52.37172 | 11.37524 | 119° | 117km/h | 13416m | -9.1m/s | -251.1°C | 0% | 161.7hPa | 2.6V | 02:33:22 | 03:17:08 | 00:00:00 | |
| DL1XH-west | 2026-09-03 01:14:47 | 52.37200 | 11.37441 | 118° | 113km/h | 13435m | -8.8m/s | -251.1°C | 0% | 161.2hPa | 2.5V | 02:33:22 | 03:17:06 | 00:00:00 | |
| TFSTFS | 2026-09-03 01:14:47 | 52.37200 | 11.37441 | 119° | 113km/h | 13435m | -8.8m/s | 0°C | 0% | 161.2hPa | 2.6V | 02:33:00 | 00:00:00 | 00:00:00 | |
| DL1XH1-15 | 2026-09-03 01:14:46 | 52.37252 | 11.37280 | 118° | 110km/h | 13473m | -10.8m/s | 0°C | 0% | 0hPa | 2.6V | 02:32:41 | 03:17:02 | 00:00:00 | |
| HSKMA3-T | 2026-09-03 01:14:44 | 52.37239 | 11.37320 | 118° | 110km/h | 13463m | -10.5m/s | -251.1°C | 0% | 160.6hPa | 2.5V | 02:33:22 | 03:17:03 | 00:00:00 | |
| DL4XJ-10 | 2026-09-03 01:14:44 | 52.37239 | 11.37320 | 118° | 102km/h | 13463m | -10.5m/s | 0°C | 0% | 0hPa | 2.5V | 00:00:00 | 00:00:00 | 00:00:00 | |
| DO2SHX-10 | 2026-09-03 01:14:43 | 52.37252 | 11.37280 | 119° | 108km/h | 13473m | -10.7m/s | 0°C | 0% | 160.2hPa | 2.5V | 00:00:00 | 03:17:02 | 00:00:00 | |
| DL2RXE-15 | 2026-09-03 01:14:42 | 52.37252 | 11.37280 | 119° | 110km/h | 13473m | -10.8m/s | 0°C | 0% | 160.3hPa | 2.5V | 02:33:00 | 00:00:00 | 00:00:00 | |
| DL1XH-15 | 2026-09-03 01:14:41 | 52.37291 | 11.37161 | 116° | 106km/h | 13504m | -10.3m/s | 0°C | 0% | 0hPa | 2.5V | 02:32:44 | 03:16:59 | 00:00:00 | |
| DF8AY | 2026-09-03 01:14:39 | 52.37303 | 11.37123 | 117° | 104km/h | 13515m | -9.8m/s | -251.1°C | 0% | 159.3hPa | 2.5V | 02:33:22 | 03:16:58 | 00:00:00 | |
| AA1-15 | 2026-09-03 01:14:38 | 52.37315 | 11.37085 | 117° | 102km/h | 13525m | -10m/s | -251.1°C | 0% | 159hPa | 2.5V | 02:33:22 | 03:16:57 | 00:00:00 | |
| DL1XH-west | 2026-09-03 01:14:36 | 52.37338 | 11.37011 | 117° | 99km/h | 13544m | -9.8m/s | -251.1°C | 0% | 158.5hPa | 2.6V | 02:33:22 | 03:16:55 | 00:00:00 | |
| DL1XH1-15 | 2026-09-03 01:14:36 | 52.37372 | 11.36903 | 118° | 97km/h | 13573m | -10.6m/s | 0°C | 0% | 0hPa | 2.5V | 02:32:51 | 03:16:52 | 00:00:00 | |
| DM0DOS-11 | 2026-09-03 01:14:34 | 52.37396 | 11.36832 | 117° | 99km/h | 13594m | -9.9m/s | 0°C | 0% | 0hPa | 2.6V | 02:32:53 | 03:16:50 | 00:00:00 | |
| HSKMA3-T | 2026-09-03 01:14:34 | 52.37361 | 11.36939 | 118° | 99km/h | 13564m | -9.9m/s | -251.1°C | 0% | 158hPa | 2.5V | 02:33:22 | 03:16:53 | 00:00:00 | |
| AA1-15 | 2026-09-03 01:14:28 | 52.37432 | 11.36723 | 119° | 100km/h | 13625m | -10.6m/s | -251.1°C | 0% | 156.6hPa | 2.5V | 02:33:22 | 03:16:47 | 00:00:00 | |
| DL1XH-west | 2026-09-03 01:14:25 | 52.37467 | 11.36615 | 117° | 99km/h | 13654m | -10.3m/s | -251.1°C | 0% | 155.8hPa | 2.6V | 02:33:22 | 03:16:44 | 00:00:00 | |
| HTAHTA | 2026-09-03 01:14:25 | 52.37478 | 11.36578 | 116° | 97km/h | 13664m | -8.9m/s | 0°C | -1.0% | 155.5hPa | 2.5V | 00:00:00 | 00:00:00 | 00:00:00 | |
| DM0DOS-11 | 2026-09-03 01:14:24 | 52.37513 | 11.36472 | 118° | 95km/h | 13693m | -9.9m/s | 0°C | 0% | 0hPa | 2.5V | 02:33:03 | 03:16:40 | 00:00:00 | |
| HSKMA3-T | 2026-09-03 01:14:23 | 52.37490 | 11.36542 | 118° | 97km/h | 13673m | -10m/s | -251.1°C | 0% | 155.4hPa | 2.6V | 02:33:22 | 03:16:42 | 00:00:00 | |
| DO2SHX-10 | 2026-09-03 01:14:22 | 52.37501 | 11.36507 | 118° | 95km/h | 13683m | -10.6m/s | 0°C | 0% | 155.1hPa | 2.5V | 02:33:00 | 03:16:41 | 00:00:00 | |
| DL1XH-15 | 2026-09-03 01:14:21 | 52.37525 | 11.36438 | 120° | 95km/h | 13703m | -10.5m/s | 0°C | 0% | 0hPa | 2.5V | 02:33:04 | 03:16:39 | 00:00:00 | |
| AA1-15 | 2026-09-03 01:14:18 | 52.37549 | 11.36371 | 121° | 95km/h | 13723m | -10m/s | -251.1°C | 0% | 154.2hPa | 2.6V | 02:33:22 | 03:16:37 | 00:00:00 | |
| HARRO8 | 2026-09-03 01:14:17 | 52.37575 | 11.36302 | 121° | 99km/h | 13743m | -9.5m/s | 0°C | -1.0% | 153.7hPa | 2.5V | 00:00:00 | 00:00:00 | 00:00:00 | |
| DL1XH1-15 | 2026-09-03 01:14:16 | 52.37615 | 11.36192 | 120° | 106km/h | 13770m | -10m/s | 0°C | 0% | 0hPa | 2.5V | 02:33:11 | 03:16:32 | 00:00:00 | |
| DL1XH-west | 2026-09-03 01:14:14 | 52.37602 | 11.36230 | 120° | 104km/h | 13761m | -9m/s | -251.1°C | 0% | 153.2hPa | 2.5V | 02:33:22 | 03:16:33 | 00:00:00 | |
| DM0DOS-11 | 2026-09-03 01:14:14 | 52.37642 | 11.36115 | 118° | 108km/h | 13789m | -9.6m/s | 0°C | 0% | 0hPa | 2.6V | 02:33:13 | 03:16:30 | 00:00:00 | |
| HSKMA3-T | 2026-09-03 01:14:12 | 52.37629 | 11.36154 | 119° | 108km/h | 13780m | -9.5m/s | -251.1°C | 0% | 152.8hPa | 2.5V | 02:33:22 | 03:16:31 | 00:00:00 | |
| DL1XH-15 | 2026-09-03 01:14:11 | 52.37655 | 11.36076 | 118° | 108km/h | 13799m | -10.3m/s | 0°C | 0% | 0hPa | 2.6V | 02:33:14 | 03:16:29 | 00:00:00 | |
| AA1-15 | 2026-09-03 01:14:08 | 52.37681 | 11.35999 | 120° | 106km/h | 13819m | -10.7m/s | -251.1°C | 0% | 151.9hPa | 2.5V | 02:33:22 | 03:16:27 | 00:00:00 | |
| DF8AY | 2026-09-03 01:14:07 | 52.37695 | 11.35962 | 121° | 102km/h | 13829m | -10.4m/s | -251.1°C | 0% | 151.6hPa | 2.5V | 02:33:22 | 03:16:26 | 00:00:00 | |
| DL1XH-west | 2026-09-03 01:14:03 | 52.37751 | 11.35825 | 125° | 99km/h | 13869m | -9.8m/s | -251.1°C | 0% | 150.7hPa | 2.5V | 02:33:22 | 03:16:22 | 00:00:00 | |
| GOEST3-10 | 2026-09-03 01:14:03 | 52.37751 | 11.35825 | 126° | 100km/h | 13869m | -9.8m/s | 0°C | 0% | 150.7hPa | 2.5V | 00:00:00 | 03:16:22 | 00:00:00 | |
| DF7ER-10 | 2026-09-03 01:14:02 | 52.37765 | 11.35792 | 126° | 99km/h | 13878m | -9.4m/s | 0°C | 0% | 150.5hPa | 2.5V | 02:33:00 | 00:00:00 | 00:00:00 | |
| DL1NUX | 2026-09-03 01:14:01 | 52.37855 | 11.35588 | 127° | 102km/h | 13934m | -9.9m/s | 0°C | 0% | 0hPa | 2.5V | 02:33:28 | 03:16:15 | 00:00:00 | |
| HSKMA3-T | 2026-09-03 01:14:01 | 52.37780 | 11.35758 | 125° | 100km/h | 13888m | -9.6m/s | -251.1°C | 0% | 150.2hPa | 2.5V | 02:34:13 | 03:16:20 | 00:00:00 | |
| DL1XH-15 | 2026-09-03 01:14:01 | 52.37794 | 11.35724 | 124° | 100km/h | 13897m | -9.7m/s | 0°C | 0% | 0hPa | 2.6V | 02:33:24 | 03:16:19 | 00:00:00 | |
| AA1-15 | 2026-09-03 01:13:58 | 52.37824 | 11.35656 | 126° | 102km/h | 13916m | -9.3m/s | -251.1°C | 0% | 149.5hPa | 2.6V | 02:34:13 | 03:16:17 | 00:00:00 | |
| DF8AY | 2026-09-03 01:13:57 | 52.37855 | 11.35588 | 127° | 102km/h | 13934m | -9.9m/s | -251.1°C | 0% | 149.2hPa | 2.5V | 02:34:13 | 03:16:15 | 00:00:00 | |
| 13BRC | 2026-09-03 01:13:57 | 52.37839 | 11.35622 | 127° | 104km/h | 13925m | -9.2m/s | 0°C | 0% | 149.4hPa | 2.6V | 02:34:00 | 00:00:00 | 00:00:00 | |
| DL1XH1-15 | 2026-09-03 01:13:56 | 52.37899 | 11.35488 | 124° | 97km/h | 13964m | -10.3m/s | 0°C | 0% | 0hPa | 2.6V | 02:33:31 | 03:16:12 | 00:00:00 | |
| HTAHTA | 2026-09-03 01:13:54 | 52.37950 | 11.35357 | 120° | 89km/h | 14005m | -10.2m/s | 0°C | -1.0% | 147.6hPa | 2.6V | 00:00:00 | 00:00:00 | 00:00:00 | |
| DM0DOS-11 | 2026-09-03 01:13:53 | 52.37926 | 11.35422 | 121° | 93km/h | 13984m | -9.9m/s | 0°C | 0% | 0hPa | 2.6V | 02:33:33 | 03:16:10 | 00:00:00 | |
| DL1XH-west | 2026-09-03 01:13:52 | 52.37913 | 11.35455 | 123° | 95km/h | 13974m | -10.6m/s | -251.1°C | 0% | 148.3hPa | 2.6V | 02:34:13 | 03:16:11 | 00:00:00 | |
| HSKMA3-T | 2026-09-03 01:13:50 | 52.37938 | 11.35389 | 121° | 91km/h | 13994m | -10.4m/s | -251.1°C | 0% | 147.8hPa | 2.5V | 02:34:13 | 03:16:09 | 00:00:00 | |
| AA1-15 | 2026-09-03 01:13:47 | 52.37973 | 11.35293 | 121° | 91km/h | 14024m | -9m/s | -251.1°C | 0% | 147.1hPa | 2.5V | 02:34:13 | 03:16:06 | 00:00:00 | |
| DL1XH1-15 | 2026-09-03 01:13:46 | 52.38026 | 11.35165 | 126° | 95km/h | 14063m | -10.2m/s | 0°C | 0% | 0hPa | 2.5V | 02:33:41 | 03:16:02 | 00:00:00 | |
| DF8AY | 2026-09-03 01:13:45 | 52.37998 | 11.35229 | 123° | 91km/h | 14043m | -10m/s | -251.1°C | 0% | 146.7hPa | 2.6V | 02:34:13 | 03:16:04 | 00:00:00 | |
| DL1XH-west | 2026-09-03 01:13:42 | 52.38040 | 11.35133 | 127° | 97km/h | 14073m | -11.1m/s | -251.1°C | 0% | 146hPa | 2.5V | 02:34:13 | 03:16:01 | 00:00:00 | |
| DL1XH-15 | 2026-09-03 01:13:41 | 52.38070 | 11.35068 | 126° | 99km/h | 14094m | -13m/s | 0°C | 0% | 0hPa | 2.6V | 02:33:44 | 03:15:59 | 00:00:00 | |
| DB0DAN | 2026-09-03 01:13:40 | 52.38070 | 11.35068 | 127° | 95km/h | 14094m | -13m/s | -251.1°C | 0% | 145.5hPa | 2.6V | 00:00:00 | 00:00:00 | 00:00:00 | |
| HSKMA3-T | 2026-09-03 01:13:39 | 52.38086 | 11.35036 | 128° | 99km/h | 14106m | -10.6m/s | -251.1°C | 0% | 145.3hPa | 2.6V | 02:34:13 | 03:15:58 | 00:00:00 | |
| AA1-15 | 2026-09-03 01:13:36 | 52.38131 | 11.34941 | 127° | 95km/h | 14138m | -10.2m/s | -251.1°C | 0% | 144.6hPa | 2.5V | 02:34:13 | 03:15:55 | 00:00:00 | |
| DF8AY | 2026-09-03 01:13:34 | 52.38159 | 11.34878 | 126° | 93km/h | 14158m | -10.4m/s | -251.1°C | 0% | 144.1hPa | 2.6V | 02:34:13 | 03:15:53 | 00:00:00 | |
| DL1XH-west | 2026-09-03 01:13:31 | 52.38200 | 11.34786 | 127° | 91km/h | 14190m | -10.4m/s | -251.1°C | 0% | 143.4hPa | 2.5V | 02:34:13 | 03:15:50 | 00:00:00 | |
| DL1XH-15 | 2026-09-03 01:13:31 | 52.38214 | 11.34756 | 127° | 89km/h | 14200m | -10.8m/s | 0°C | 0% | 0hPa | 2.5V | 02:33:54 | 03:15:49 | 00:00:00 | |
| DO2SHX-10 | 2026-09-03 01:13:31 | 52.38200 | 11.34786 | 127° | 89km/h | 14190m | -10.4m/s | 0°C | 0% | 143.3hPa | 2.5V | 00:00:00 | 03:15:50 | 00:00:00 | |
| DL1NUX | 2026-09-03 01:13:30 | 52.38282 | 11.34609 | 127° | 88km/h | 14253m | -10.4m/s | 0°C | 0% | 0hPa | 2.5V | 02:33:59 | 03:15:44 | 00:00:00 | |
| HSKMA3-T | 2026-09-03 01:13:28 | 52.38241 | 11.34697 | 127° | 89km/h | 14221m | -11m/s | -251.1°C | 0% | 142.8hPa | 2.6V | 02:34:13 | 03:15:47 | 00:00:00 | |
| AA1-15 | 2026-09-03 01:13:25 | 52.38282 | 11.34609 | 127° | 88km/h | 14253m | -10.5m/s | -251.1°C | 0% | 142hPa | 2.5V | 02:34:13 | 03:15:44 | 00:00:00 | |
| DB0DAN | 2026-09-03 01:13:25 | 52.38282 | 11.34609 | 127° | 84km/h | 14253m | -10.5m/s | -251.1°C | 0% | 142hPa | 2.5V | 00:00:00 | 00:00:00 | 00:00:00 | |
| DM0DOS-11 | 2026-09-03 01:13:24 | 52.38334 | 11.34496 | 127° | 82km/h | 14295m | -10.6m/s | 0°C | 0% | 0hPa | 2.6V | 02:34:03 | 03:15:40 | 00:00:00 | |
| DF8AY | 2026-09-03 01:13:23 | 52.38308 | 11.34552 | 126° | 86km/h | 14274m | -10.6m/s | -251.1°C | 0% | 141.5hPa | 2.5V | 02:34:13 | 03:15:42 | 00:00:00 | |
| DL1XH-west | 2026-09-03 01:13:20 | 52.38346 | 11.34469 | 127° | 82km/h | 14305m | -10.6m/s | -251.1°C | 0% | 140.8hPa | 2.6V | 02:34:13 | 03:15:39 | 00:00:00 | |
| HSKMA3-T | 2026-09-03 01:13:17 | 52.38385 | 11.34390 | 129° | 82km/h | 14337m | -11m/s | -251.1°C | 0% | 140.1hPa | 2.5V | 02:34:13 | 03:15:36 | 00:00:00 | |
| AA1-15 | 2026-09-03 01:13:15 | 52.38411 | 11.34338 | 128° | 80km/h | 14359m | -10.3m/s | -251.1°C | 0% | 139.7hPa | 2.6V | 02:34:13 | 03:15:34 | 00:00:00 | |
| DO2SHX-10 | 2026-09-03 01:13:15 | 52.38411 | 11.34338 | 129° | 78km/h | 14359m | -10.2m/s | 0°C | 0% | 139.6hPa | 2.5V | 00:00:00 | 03:15:34 | 00:00:00 | |
| DM0DOS-11 | 2026-09-03 01:13:14 | 52.38459 | 11.34239 | 128° | 71km/h | 14401m | -11.3m/s | 0°C | 0% | 0hPa | 2.5V | 02:34:13 | 03:15:30 | 00:00:00 | |
| DF8AY | 2026-09-03 01:13:12 | 52.38447 | 11.34263 | 128° | 75km/h | 14391m | -10.6m/s | -251.1°C | 0% | 139hPa | 2.5V | 02:34:13 | 03:15:31 | 00:00:00 | |
| DO2SHX-10 | 2026-09-03 01:13:12 | 52.38447 | 11.34262 | 129° | 73km/h | 14391m | -10.5m/s | 0°C | 0% | 139.0hPa | 2.6V | 00:00:00 | 03:15:31 | 00:00:00 | |
| DL2RXE-15 | 2026-09-03 01:13:11 | 52.38447 | 11.34262 | 129° | 75km/h | 14391m | -10.6m/s | 0°C | 0% | 139.0hPa | 2.6V | 00:00:00 | 00:00:00 | 00:00:00 | |
| DB0DAN | 2026-09-03 01:13:10 | 52.38470 | 11.34216 | 129° | 68km/h | 14412m | -11m/s | -251.1°C | 0% | 138.48hPa | 2.6V | 00:00:00 | 00:00:00 | 00:00:00 | |
| DL1XH-west | 2026-09-03 01:13:10 | 52.38470 | 11.34216 | 129° | 71km/h | 14412m | -11m/s | -251.1°C | 0% | 138.5hPa | 2.6V | 02:35:04 | 03:15:29 | 00:00:00 | |
| HSKMA3-T | 2026-09-03 01:13:07 | 52.38502 | 11.34148 | 125° | 68km/h | 14444m | -10.4m/s | -251.1°C | 0% | 137.8hPa | 2.5V | 02:35:04 | 03:15:26 | 00:00:00 | |
| SONCRA | 2026-09-03 01:13:07 | 52.38512 | 11.34125 | 124° | 68km/h | 14454m | -10.6m/s | 0°C | -1.0% | 137.7hPa | 2.6V | 00:00:00 | 00:00:00 | 00:00:00 | |
| DL1XH1-15 | 2026-09-03 01:13:06 | 52.38541 | 11.34053 | 122° | 69km/h | 14484m | -11.1m/s | 0°C | 0% | 0hPa | 2.6V | 02:34:21 | 03:15:22 | 00:00:00 | |
| AA1-15 | 2026-09-03 01:13:04 | 52.38532 | 11.34077 | 123° | 69km/h | 14473m | -10.9m/s | -251.1°C | 0% | 137.2hPa | 2.5V | 02:35:04 | 03:15:23 | 00:00:00 | |
| DM0DOS-11 | 2026-09-03 01:13:04 | 52.38560 | 11.34003 | 121° | 71km/h | 14506m | -10.4m/s | 0°C | 0% | 0hPa | 2.6V | 02:34:23 | 03:15:20 | 00:00:00 | |
| DF8AY | 2026-09-03 01:13:01 | 52.38596 | 11.33906 | 121° | 68km/h | 14547m | -10.7m/s | -251.1°C | 0% | 135.6hPa | 2.6V | 02:35:04 | 03:15:16 | 00:00:00 | |
| DL1XH-15 | 2026-09-03 01:13:01 | 52.38569 | 11.33979 | 122° | 69km/h | 14516m | -10.6m/s | 0°C | 0% | 0hPa | 2.5V | 02:34:24 | 03:15:19 | 00:00:00 | |
| DL1XH-west | 2026-09-03 01:12:59 | 52.38578 | 11.33954 | 121° | 69km/h | 14526m | -11.2m/s | -251.1°C | 0% | 136.1hPa | 2.5V | 02:35:04 | 03:15:18 | 00:00:00 | |
| HSKMA3-T | 2026-09-03 01:12:56 | 52.38605 | 11.33882 | 120° | 68km/h | 14559m | -11.7m/s | -251.1°C | 0% | 135.4hPa | 2.6V | 02:35:04 | 03:15:15 | 00:00:00 | |
| DB0DAN | 2026-09-03 01:12:55 | 52.38613 | 11.33858 | 119° | 64km/h | 14570m | -10.8m/s | -251.1°C | 0% | 135.11hPa | 2.5V | 00:00:00 | 00:00:00 | 00:00:00 | |
| AA1-15 | 2026-09-03 01:12:54 | 52.38621 | 11.33833 | 118° | 68km/h | 14580m | -10.6m/s | -251.1°C | 0% | 134.9hPa | 2.5V | 02:35:04 | 03:15:13 | 00:00:00 | |
| DM0DOS-11 | 2026-09-03 01:12:54 | 52.38645 | 11.33758 | 115° | 69km/h | 14613m | -11.2m/s | 0°C | 0% | 0hPa | 2.6V | 02:34:33 | 03:15:10 | 00:00:00 | |
| DF8AY | 2026-09-03 01:12:51 | 52.38645 | 11.33758 | 116° | 69km/h | 14613m | -11.2m/s | -251.1°C | 0% | 134.3hPa | 2.6V | 02:35:04 | 03:15:10 | 00:00:00 | |
| DL1XH-15 | 2026-09-03 01:12:51 | 52.38652 | 11.33732 | 114° | 69km/h | 14624m | -9.9m/s | 0°C | 0% | 0hPa | 2.6V | 02:34:34 | 03:15:09 | 00:00:00 | |
| DL1XH-west | 2026-09-03 01:12:48 | 52.38667 | 11.33679 | 114° | 71km/h | 14644m | -11.4m/s | -251.1°C | 0% | 133.7hPa | 2.5V | 02:35:04 | 03:15:07 | 00:00:00 | |
| EDDB2-12 | 2026-09-03 01:12:46 | 52.38680 | 11.33624 | 109° | 69km/h | 14665m | -11.1m/s | 0°C | -1.0% | 133.1hPa | 2.5V | 00:00:00 | 00:00:00 | 00:00:00 | |
| DO2SHX-10 | 2026-09-03 01:12:45 | 52.38686 | 11.33596 | 109° | 71km/h | 14676m | -11.1m/s | 0°C | 0% | 132.9hPa | 2.5V | 00:00:00 | 03:15:04 | 00:00:00 | |
| DM0DOS-11 | 2026-09-03 01:12:44 | 52.38705 | 11.33484 | 103° | 69km/h | 14721m | -11m/s | 0°C | 0% | 0hPa | 2.5V | 02:34:43 | 03:15:00 | 00:00:00 | |
| SONDE2-11 | 2026-09-03 01:12:44 | 52.38691 | 11.33568 | 105° | 69km/h | 14688m | -12.2m/s | 0°C | -1.0% | 132.7hPa | 2.6V | 00:00:00 | 00:00:00 | 00:00:00 | |
| HSKMA3-T | 2026-09-03 01:12:43 | 52.38696 | 11.33540 | 105° | 71km/h | 14699m | -11.2m/s | -251.1°C | 0% | 132.4hPa | 2.6V | 02:35:04 | 03:15:02 | 00:00:00 | |
| DF8AY | 2026-09-03 01:12:40 | 52.38709 | 11.33456 | 104° | 73km/h | 14732m | -10.1m/s | -251.1°C | 0% | 131.8hPa | 2.5V | 02:35:04 | 03:14:59 | 00:00:00 | |
| DB0DAN | 2026-09-03 01:12:40 | 52.38709 | 11.33456 | 104° | 69km/h | 14732m | -10.1m/s | -251.1°C | 0% | 131.75hPa | 2.5V | 00:00:00 | 00:00:00 | 00:00:00 | |
| DL1XH-west | 2026-09-03 01:12:37 | 52.38723 | 11.33367 | 103° | 75km/h | 14765m | -11.3m/s | -251.1°C | 0% | 131.1hPa | 2.5V | 02:35:04 | 03:14:56 | 00:00:00 | |
| DD8BA-10 | 2026-09-03 01:12:37 | 52.38723 | 11.33367 | 104° | 80km/h | 14765m | -11.2m/s | 0°C | 0% | 131.0hPa | 2.5V | 00:00:00 | 00:00:00 | 00:00:00 | |
| SONCRA | 2026-09-03 01:12:36 | 52.38732 | 11.33306 | 104° | 75km/h | 14788m | -12.0m/s | 0°C | -1.0% | 130.7hPa | 2.5V | 00:00:00 | 00:00:00 | 00:00:00 | |
| DM0DOS-11 | 2026-09-03 01:12:34 | 52.38754 | 11.33181 | 106° | 82km/h | 14831m | -10.9m/s | 0°C | 0% | 0hPa | 2.5V | 02:34:53 | 03:14:50 | 00:00:00 | |
| AA1-15 | 2026-09-03 01:12:33 | 52.38742 | 11.33245 | 106° | 80km/h | 14810m | -10.9m/s | -251.1°C | 0% | 130.2hPa | 2.6V | 02:35:04 | 03:14:52 | 00:00:00 | |
| DO2SHX-10 | 2026-09-03 01:12:33 | 52.38742 | 11.33245 | 106° | 80km/h | 14810m | -10.9m/s | 0°C | 0% | 130.1hPa | 2.6V | 02:34:00 | 03:14:52 | 00:00:00 | |
| GOEST3-10 | 2026-09-03 01:12:32 | 52.38748 | 11.33213 | 107° | 82km/h | 14821m | -10.0m/s | 0°C | 0% | 129.9hPa | 2.5V | 00:00:00 | 03:14:51 | 00:00:00 | |
| DL1XH-15 | 2026-09-03 01:12:31 | 52.38760 | 11.33148 | 108° | 84km/h | 14841m | -11.4m/s | 0°C | 0% | 0hPa | 2.5V | 02:34:54 | 03:14:49 | 00:00:00 | |
| HSKMA3-T | 2026-09-03 01:12:31 | 52.38754 | 11.33181 | 107° | 82km/h | 14831m | -10.9m/s | -251.1°C | 0% | 129.8hPa | 2.5V | 02:35:04 | 03:14:50 | 00:00:00 | |
| DF8AY | 2026-09-03 01:12:29 | 52.38806 | 11.32957 | 114° | 80km/h | 14906m | -11m/s | -251.1°C | 0% | 128.2hPa | 2.5V | 02:35:04 | 03:14:43 | 00:00:00 | |
| DL1XH-west | 2026-09-03 01:12:27 | 52.38782 | 11.33050 | 112° | 82km/h | 14873m | -10.8m/s | -251.1°C | 0% | 128.9hPa | 2.6V | 02:35:04 | 03:14:46 | 00:00:00 | |
| DF7ER-10 | 2026-09-03 01:12:27 | 52.38782 | 11.33049 | 113° | 82km/h | 14873m | -10.8m/s | 0°C | 0% | 128.9hPa | 2.6V | 02:35:00 | 00:00:00 | 00:00:00 | |
| DB0DAN | 2026-09-03 01:12:25 | 52.38798 | 11.32987 | 113° | 77km/h | 14895m | -11.1m/s | -251.1°C | 0% | 128.47hPa | 2.6V | 00:00:00 | 00:00:00 | 00:00:00 | |
| AA1-15 | 2026-09-03 01:12:23 | 52.38814 | 11.32927 | 115° | 78km/h | 14916m | -11m/s | -251.1°C | 0% | 128hPa | 2.5V | 02:35:04 | 03:14:42 | 00:00:00 | |
| DL1XH-15 | 2026-09-03 01:12:21 | 52.38839 | 11.32841 | 114° | 75km/h | 14950m | -11m/s | 0°C | 0% | 0hPa | 2.6V | 02:35:04 | 03:14:39 | 00:00:00 | |
| HSKMA3-T | 2026-09-03 01:12:21 | 52.38831 | 11.32869 | 115° | 77km/h | 14938m | -12m/s | -251.1°C | 0% | 127.7hPa | 2.6V | 02:35:04 | 03:14:40 | 00:00:00 | |
| DL1XH-west | 2026-09-03 01:12:17 | 52.38863 | 11.32760 | 116° | 73km/h | 14982m | -10.9m/s | -251.1°C | 0% | 126.7hPa | 2.5V | 02:35:55 | 03:14:36 | 00:00:00 | |
| DF8AY | 2026-09-03 01:12:16 | 52.38871 | 11.32733 | 114° | 73km/h | 14992m | -10.7m/s | -251.1°C | 0% | 126.5hPa | 2.6V | 02:35:55 | 03:14:35 | 00:00:00 | |
| DL1XH1-15 | 2026-09-03 01:12:16 | 52.38895 | 11.32650 | 114° | 73km/h | 15023m | -10.6m/s | 0°C | 0% | 0hPa | 2.5V | 02:35:11 | 03:14:32 | 00:00:00 | |
| AA1-15 | 2026-09-03 01:12:12 | 52.38903 | 11.32622 | 115° | 75km/h | 15035m | -11.7m/s | -251.1°C | 0% | 125.7hPa | 2.5V | 02:35:55 | 03:14:31 | 00:00:00 | |
| DL1XH-15 | 2026-09-03 01:12:11 | 52.38919 | 11.32565 | 113° | 77km/h | 15058m | -12.7m/s | 0°C | 0% | 0hPa | 2.5V | 02:35:14 | 03:14:29 | 00:00:00 | |
| HSKMA3-T | 2026-09-03 01:12:10 | 52.38919 | 11.32565 | 114° | 77km/h | 15058m | -12.7m/s | -251.1°C | 0% | 125.3hPa | 2.5V | 02:35:55 | 03:14:29 | 00:00:00 | |
| DB0DAN | 2026-09-03 01:12:10 | 52.38919 | 11.32565 | 114° | 73km/h | 15058m | -12.7m/s | -251.1°C | 0% | 125.27hPa | 2.5V | 00:00:00 | 00:00:00 | 00:00:00 | |
| DL1XH-west | 2026-09-03 01:12:07 | 52.38944 | 11.32478 | 115° | 78km/h | 15093m | -12m/s | -251.1°C | 0% | 124.6hPa | 2.6V | 02:35:55 | 03:14:26 | 00:00:00 | |
| DD8BA-10 | 2026-09-03 01:12:07 | 52.38943 | 11.32478 | 115° | 78km/h | 15093m | -11.9m/s | 0°C | 0% | 124.5hPa | 2.6V | 00:00:00 | 00:00:00 | 00:00:00 | |
| DL1XH1-15 | 2026-09-03 01:12:06 | 52.38977 | 11.32358 | 115° | 80km/h | 15138m | -11.7m/s | 0°C | 0% | 0hPa | 2.6V | 02:35:21 | 03:14:22 | 00:00:00 | |
| DF8AY | 2026-09-03 01:12:06 | 52.38960 | 11.32418 | 114° | 80km/h | 15117m | -11.1m/s | -251.1°C | 0% | 124.2hPa | 2.5V | 02:35:55 | 03:14:24 | 00:00:00 | |
| AA1-15 | 2026-09-03 01:12:01 | 52.38995 | 11.32299 | 116° | 78km/h | 15161m | -11.6m/s | -251.1°C | 0% | 123.3hPa | 2.5V | 02:35:55 | 03:14:20 | 00:00:00 | |
| DL1XH-15 | 2026-09-03 01:12:01 | 52.39003 | 11.32270 | 116° | 78km/h | 15173m | -11.5m/s | 0°C | 0% | 0hPa | 2.5V | 02:35:24 | 03:14:19 | 00:00:00 | |
| HSKMA3-T | 2026-09-03 01:12:00 | 52.39003 | 11.32270 | 117° | 78km/h | 15173m | -11.5m/s | -251.1°C | 0% | 123.1hPa | 2.5V | 02:35:55 | 03:14:19 | 00:00:00 | |
| DF8AY | 2026-09-03 01:11:56 | 52.39051 | 11.32132 | 122° | 77km/h | 15227m | -11.2m/s | -251.1°C | 0% | 122hPa | 2.5V | 02:35:55 | 03:14:14 | 00:00:00 | |
| DL1XH1-15 | 2026-09-03 01:11:56 | 52.39072 | 11.32079 | 122° | 75km/h | 15249m | -11.8m/s | 0°C | 0% | 0hPa | 2.5V | 02:35:31 | 03:14:12 | 00:00:00 | |
| DL1XH-west | 2026-09-03 01:11:56 | 52.39041 | 11.32159 | 121° | 75km/h | 15216m | -10.9m/s | -251.1°C | 0% | 122.2hPa | 2.6V | 02:35:55 | 03:14:15 | 00:00:00 | |
| DB0DAN | 2026-09-03 01:11:55 | 52.39051 | 11.32132 | 122° | 73km/h | 15227m | -11.2m/s | -251.1°C | 0% | 122.04hPa | 2.5V | 00:00:00 | 00:00:00 | 00:00:00 | |
| BIOWL1-15 | 2026-09-03 01:11:53 | 52.39091 | 11.32028 | 121° | 71km/h | 15273m | -11.7m/s | -251.1°C | 0% | 121.2hPa | 2.6V | 02:35:55 | 03:14:10 | 00:00:00 | |
| HSKMA3-T | 2026-09-03 01:11:50 | 52.39101 | 11.32003 | 122° | 71km/h | 15285m | -12.3m/s | -251.1°C | 0% | 120.9hPa | 2.6V | 02:35:55 | 03:14:09 | 00:00:00 | |
| HTAHTA | 2026-09-03 01:11:49 | 52.39111 | 11.31978 | 122° | 71km/h | 15298m | -12.1m/s | 0°C | -1.0% | 120.8hPa | 2.5V | 00:00:00 | 00:00:00 | 00:00:00 | |
| DO2SHX-10 | 2026-09-03 01:11:47 | 52.39130 | 11.31929 | 125° | 73km/h | 15320m | -10.7m/s | 0°C | 0% | 120.2hPa | 2.5V | 02:35:00 | 03:14:06 | 00:00:00 | |
| DL1XH1-15 | 2026-09-03 01:11:46 | 52.39173 | 11.31830 | 125° | 73km/h | 15365m | -13.1m/s | 0°C | 0% | 0hPa | 2.5V | 02:35:41 | 03:14:02 | 00:00:00 | |
| DL1XH-west | 2026-09-03 01:11:46 | 52.39141 | 11.31904 | 124° | 73km/h | 15331m | -10.3m/s | -251.1°C | 0% | 120.1hPa | 2.5V | 02:35:55 | 03:14:05 | 00:00:00 | |
| DF8AY | 2026-09-03 01:11:45 | 52.39151 | 11.31879 | 125° | 75km/h | 15341m | -11.6m/s | -251.1°C | 0% | 119.9hPa | 2.6V | 02:35:55 | 03:14:04 | 00:00:00 | |
| EDDB2-12 | 2026-09-03 01:11:44 | 52.39162 | 11.31855 | 126° | 73km/h | 15353m | -11.7m/s | 0°C | -1.0% | 119.7hPa | 2.6V | 00:00:00 | 00:00:00 | 00:00:00 | |
| HSKMA3-T | 2026-09-03 01:11:40 | 52.39204 | 11.31758 | 125° | 69km/h | 15401m | -11.7m/s | -251.1°C | 0% | 118.7hPa | 2.6V | 02:35:55 | 03:13:59 | 00:00:00 | |
| BIOWL1-15 | 2026-09-03 01:11:39 | 52.39214 | 11.31735 | 124° | 69km/h | 15413m | -12m/s | -251.1°C | 0% | 118.5hPa | 2.6V | 02:35:55 | 03:13:58 | 00:00:00 | |
| DL1XH-west | 2026-09-03 01:11:35 | 52.39254 | 11.31642 | 126° | 66km/h | 15457m | -11.6m/s | -251.1°C | 0% | 117.8hPa | 2.5V | 02:35:55 | 03:13:54 | 00:00:00 | |
| DF8AY | 2026-09-03 01:11:34 | 52.39264 | 11.31621 | 128° | 66km/h | 15468m | -11m/s | -251.1°C | 0% | 117.6hPa | 2.5V | 02:35:55 | 03:13:53 | 00:00:00 | |
| DM0DOS-11 | 2026-09-03 01:11:34 | 52.39294 | 11.31557 | 126° | 64km/h | 15504m | -12.9m/s | 0°C | 0% | 0hPa | 2.6V | 02:35:53 | 03:13:50 | 00:00:00 | |
| HSKMA3-T | 2026-09-03 01:11:29 | 52.39312 | 11.31515 | 125° | 60km/h | 15528m | -11.9m/s | -251.1°C | 0% | 116.5hPa | 2.5V | 02:35:55 | 03:13:48 | 00:00:00 | |
| BIOWL1-15 | 2026-09-03 01:11:27 | 52.39341 | 11.31433 | 114° | 57km/h | 15574m | -11.8m/s | -251.1°C | 0% | 115.6hPa | 2.5V | 18:12:15 | 03:13:44 | 00:00:00 | |
| DB0DAN | 2026-09-03 01:11:25 | 52.39341 | 11.31433 | 114° | 55km/h | 15574m | -11.8m/s | -251.1°C | 0% | 115.64hPa | 2.5V | 00:00:00 | 00:00:00 | 00:00:00 | |
| DM0DOS-11 | 2026-09-03 01:11:24 | 52.39363 | 11.31340 | 108° | 64km/h | 15620m | -12.2m/s | 0°C | 0% | 0hPa | 2.6V | 02:36:03 | 03:13:40 | 00:00:00 | |
| DL1XH-west | 2026-09-03 01:11:24 | 52.39347 | 11.31411 | 112° | 60km/h | 15586m | -11.2m/s | -251.1°C | 0% | 115.4hPa | 2.5V | 02:36:46 | 03:13:43 | 00:00:00 | |
| DF8AY | 2026-09-03 01:11:23 | 52.39353 | 11.31388 | 111° | 60km/h | 15597m | -12m/s | -251.1°C | 0% | 115.2hPa | 2.5V | 02:36:46 | 03:13:42 | 00:00:00 | |
| SMARD9-10 | 2026-09-03 01:11:22 | 52.39358 | 11.31364 | 109° | 62km/h | 15609m | -11.5m/s | 0°C | 0% | 115.0hPa | 2.6V | 02:36:00 | 00:00:00 | 00:00:00 | |
| DL1XH-15 | 2026-09-03 01:11:21 | 52.39369 | 11.31316 | 108° | 62km/h | 15633m | -11.8m/s | 0°C | 0% | 0hPa | 2.6V | 02:36:04 | 03:13:39 | 00:00:00 | |
| AA1-15 | 2026-09-03 01:11:19 | 52.39374 | 11.31292 | 110° | 60km/h | 15644m | -11.5m/s | -251.1°C | 0% | 114.4hPa | 2.5V | 02:36:46 | 03:13:38 | 00:00:00 | |
| HSKMA3-T | 2026-09-03 01:11:18 | 52.39379 | 11.31269 | 112° | 60km/h | 15655m | -11.3m/s | -251.1°C | 0% | 114.1hPa | 2.5V | 02:36:46 | 03:13:37 | 00:00:00 | |
| BIOWL1-15 | 2026-09-03 01:11:17 | 52.39385 | 11.31246 | 114° | 60km/h | 15667m | -12.4m/s | -251.1°C | 0% | 114hPa | 2.5V | 18:12:15 | 03:13:36 | 00:00:00 | |
| DO2SHX-10 | 2026-09-03 01:11:17 | 52.39385 | 11.31246 | 114° | 58km/h | 15667m | -12.4m/s | 0°C | 0% | 113.9hPa | 2.5V | 00:00:00 | 03:13:36 | 00:00:00 | |
| DL1XH1-15 | 2026-09-03 01:11:16 | 52.39412 | 11.31159 | 115° | 60km/h | 15713m | -11.6m/s | 0°C | 0% | 0hPa | 2.5V | 02:36:11 | 03:13:32 | 00:00:00 | |
| DL1XH-west | 2026-09-03 01:11:14 | 52.39405 | 11.31181 | 115° | 58km/h | 15702m | -10.5m/s | -251.1°C | 0% | 113.4hPa | 2.5V | 02:36:46 | 03:13:33 | 00:00:00 | |
| DF8AY | 2026-09-03 01:11:13 | 52.39412 | 11.31159 | 116° | 60km/h | 15713m | -11.6m/s | -251.1°C | 0% | 113.2hPa | 2.5V | 02:36:46 | 03:13:32 | 00:00:00 | |
| TFSTFS | 2026-09-03 01:11:13 | 52.39412 | 11.31159 | 117° | 60km/h | 15713m | -11.6m/s | 0°C | 0% | 113.2hPa | 2.6V | 02:36:00 | 00:00:00 | 00:00:00 | |
| DF7ER-10 | 2026-09-03 01:11:12 | 52.39418 | 11.31137 | 118° | 60km/h | 15725m | -11.2m/s | 0°C | 0% | 113.0hPa | 2.6V | 02:36:00 | 00:00:00 | 00:00:00 | |
| DL1XH-15 | 2026-09-03 01:11:11 | 52.39432 | 11.31095 | 116° | 57km/h | 15746m | -11.3m/s | 0°C | 0% | 0hPa | 2.6V | 02:36:14 | 03:13:29 | 00:00:00 | |
| DB0DAN | 2026-09-03 01:11:10 | 52.39432 | 11.31095 | 117° | 55km/h | 15746m | -11.3m/s | -251.1°C | 0% | 112.57hPa | 2.6V | 00:00:00 | 00:00:00 | 00:00:00 | |
| AA1-15 | 2026-09-03 01:11:09 | 52.39445 | 11.31055 | 120° | 53km/h | 15769m | -11.7m/s | -251.1°C | 0% | 112.2hPa | 2.5V | 02:36:46 | 03:13:27 | 00:00:00 | |
| HSKMA3-T | 2026-09-03 01:11:07 | 52.39452 | 11.31037 | 123° | 49km/h | 15781m | -12.2m/s | -251.1°C | 0% | 112hPa | 2.5V | 02:36:46 | 03:13:26 | 00:00:00 | |
| BIOWL1-15 | 2026-09-03 01:11:06 | 52.39459 | 11.31021 | 125° | 47km/h | 15793m | -11.7m/s | -251.1°C | 0% | 111.8hPa | 2.5V | 18:12:15 | 03:13:25 | 00:00:00 | |
| GOEST3-10 | 2026-09-03 01:11:06 | 52.39459 | 11.31021 | 125° | 42km/h | 15793m | -11.7m/s | 0°C | 0% | 111.7hPa | 2.5V | 02:36:00 | 03:13:25 | 00:00:00 | |
| DO2SHX-10 | 2026-09-03 01:11:05 | 52.39465 | 11.31005 | 125° | 42km/h | 15804m | -12.2m/s | 0°C | 0% | 111.5hPa | 2.5V | 00:00:00 | 03:13:24 | 00:00:00 | |
| DM0DOS-11 | 2026-09-03 01:11:04 | 52.39488 | 11.30949 | 117° | 38km/h | 15852m | -11.8m/s | 0°C | 0% | 0hPa | 2.5V | 02:36:23 | 03:13:20 | 00:00:00 | |
| DL1XH-west | 2026-09-03 01:11:03 | 52.39478 | 11.30977 | 123° | 40km/h | 15828m | -11.5m/s | -251.1°C | 0% | 111.1hPa | 2.5V | 02:36:46 | 03:13:22 | 00:00:00 | |
| DO2SHX-10 | 2026-09-03 01:11:02 | 52.39483 | 11.30962 | 121° | 38km/h | 15840m | -12.0m/s | 0°C | 0% | 110.9hPa | 2.5V | 02:36:00 | 03:13:21 | 00:00:00 | |
| DL1XH-15 | 2026-09-03 01:11:01 | 52.39492 | 11.30934 | 118° | 38km/h | 15863m | -10.9m/s | 0°C | 0% | 0hPa | 2.6V | 02:36:24 | 03:13:19 | 00:00:00 | |
| AA1-15 | 2026-09-03 01:10:58 | 52.39501 | 11.30905 | 113° | 40km/h | 15888m | -12.4m/s | -251.1°C | 0% | 110.1hPa | 2.6V | 02:36:46 | 03:13:17 | 00:00:00 | |
| DL1XH1-15 | 2026-09-03 01:10:56 | 52.39521 | 11.30822 | 109° | 46km/h | 15949m | -12.3m/s | 0°C | 0% | 0hPa | 2.6V | 02:36:31 | 03:13:12 | 00:00:00 | |
| HSKMA3-T | 2026-09-03 01:10:56 | 52.39509 | 11.30874 | 116° | 42km/h | 15912m | -12.1m/s | -251.1°C | 0% | 109.8hPa | 2.5V | 02:36:46 | 03:13:15 | 00:00:00 | |
| DD1CC8 | 2026-09-03 01:10:56 | 52.39513 | 11.30857 | 109° | 42km/h | 15924m | -13.3m/s | 0°C | -1.0% | 109.6hPa | 2.5V | 00:00:00 | 00:00:00 | 00:00:00 | |
| DB0DAN | 2026-09-03 01:10:55 | 52.39513 | 11.30857 | 110° | 40km/h | 15924m | -13.3m/s | -251.1°C | 0% | 109.59hPa | 2.5V | 00:00:00 | 00:00:00 | 00:00:00 | |
| BIOWL1-15 | 2026-09-03 01:10:55 | 52.39513 | 11.30857 | 110° | 44km/h | 15924m | -13.3m/s | -251.1°C | 0% | 109.6hPa | 2.5V | 18:12:15 | 03:13:14 | 00:00:00 | |
| DM0DOS-11 | 2026-09-03 01:10:54 | 52.39529 | 11.30785 | 106° | 47km/h | 15972m | -10.9m/s | 0°C | 0% | 0hPa | 2.6V | 02:36:33 | 03:13:10 | 00:00:00 | |
| DL1XH-west | 2026-09-03 01:10:52 | 52.39525 | 11.30803 | 109° | 47km/h | 15961m | -12.1m/s | -251.1°C | 0% | 108.9hPa | 2.6V | 02:36:46 | 03:13:11 | 00:00:00 | |
| SMARD9-15 | 2026-09-03 01:10:52 | 52.39525 | 11.30803 | 109° | 46km/h | 15961m | -12.1m/s | 0°C | -1.0% | 108.9hPa | 2.5V | 00:00:00 | 00:00:00 | 00:00:00 | |
| DL1XH-15 | 2026-09-03 01:10:51 | 52.39533 | 11.30766 | 106° | 49km/h | 15983m | -11m/s | 0°C | 0% | 0hPa | 2.5V | 02:36:34 | 03:13:09 | 00:00:00 | |
| AA1-15 | 2026-09-03 01:10:47 | 52.39542 | 11.30706 | 102° | 51km/h | 16019m | -12.4m/s | -251.1°C | 0% | 107.9hPa | 2.6V | 02:36:46 | 03:13:06 | 00:00:00 | |
| TFSTFS | 2026-09-03 01:10:47 | 52.39542 | 11.30706 | 103° | 51km/h | 16020m | -12.4m/s | 0°C | 0% | 107.9hPa | 2.5V | 02:36:00 | 00:00:00 | 00:00:00 | |
| DL1XH1-15 | 2026-09-03 01:10:46 | 52.39553 | 11.30620 | 98° | 55km/h | 16068m | -13.3m/s | 0°C | 0% | 0hPa | 2.5V | 02:36:41 | 03:13:02 | 00:00:00 | |
| HSKMA3-T | 2026-09-03 01:10:46 | 52.39545 | 11.30685 | 103° | 51km/h | 16031m | -11.3m/s | -251.1°C | 0% | 107.7hPa | 2.6V | 02:36:46 | 03:13:05 | 00:00:00 | |
| DL1XH-west | 2026-09-03 01:10:41 | 52.39559 | 11.30573 | 101° | 58km/h | 16093m | -13.3m/s | -251.1°C | 0% | 106.7hPa | 2.6V | 02:36:46 | 03:13:00 | 00:00:00 | |
| DB0DAN | 2026-09-03 01:10:40 | 52.39562 | 11.30549 | 102° | 58km/h | 16106m | -12.2m/s | -251.1°C | 0% | 106.46hPa | 2.6V | 00:00:00 | 00:00:00 | 00:00:00 | |
| BIOWL1-15 | 2026-09-03 01:10:40 | 52.39566 | 11.30524 | 104° | 60km/h | 16118m | -11.7m/s | -251.1°C | 0% | 106.3hPa | 2.5V | 18:12:15 | 03:12:58 | 00:00:00 | |
| DF7ER-10 | 2026-09-03 01:10:39 | 52.39562 | 11.30549 | 103° | 62km/h | 16106m | -12.2m/s | 0°C | 0% | 106.5hPa | 2.5V | 02:36:00 | 00:00:00 | 00:00:00 | |
| BUE01 | 2026-09-03 01:10:38 | 52.39573 | 11.30477 | 106° | 58km/h | 16143m | -12.3m/s | 0°C | -1.0% | 105.8hPa | 2.5V | 00:00:00 | 00:00:00 | 00:00:00 | |
| DL1XH1-15 | 2026-09-03 01:10:36 | 52.39589 | 11.30387 | 104° | 57km/h | 16192m | -12.5m/s | 0°C | 0% | 0hPa | 2.5V | 02:36:51 | 03:12:52 | 00:00:00 | |
| HSKMA3-T | 2026-09-03 01:10:36 | 52.39577 | 11.30454 | 106° | 57km/h | 16154m | -12.3m/s | -251.1°C | 0% | 105.6hPa | 2.6V | 02:37:37 | 03:12:55 | 00:00:00 | |
| DF8AY | 2026-09-03 01:10:31 | 52.39596 | 11.30343 | 100° | 55km/h | 16216m | -13.3m/s | -251.1°C | 0% | 104.6hPa | 2.6V | 02:37:37 | 03:12:50 | 00:00:00 | |
| DL1XH-west | 2026-09-03 01:10:30 | 52.39599 | 11.30321 | 102° | 57km/h | 16230m | -12.8m/s | -251.1°C | 0% | 104.5hPa | 2.6V | 02:37:37 | 03:12:49 | 00:00:00 | |
| BIOWL1-15 | 2026-09-03 01:10:29 | 52.39619 | 11.30187 | 108° | 57km/h | 16306m | -11.9m/s | -251.1°C | 0% | 103.2hPa | 2.6V | 18:12:15 | 03:12:43 | 00:00:00 | |
| GOEST3-10 | 2026-09-03 01:10:29 | 52.39602 | 11.30298 | 101° | 57km/h | 16242m | -12.3m/s | 0°C | 0% | 104.2hPa | 2.5V | 00:00:00 | 00:00:00 | 00:00:00 | |
| SO1NDE-10 | 2026-09-03 01:10:28 | 52.39605 | 11.30275 | 104° | 55km/h | 16254m | -13.8m/s | 0°C | 0% | 104.1hPa | 2.5V | 00:00:00 | 03:12:47 | 00:00:00 | |
| DL1CLM-18 | 2026-09-03 01:10:27 | 52.39605 | 11.30275 | 104° | 57km/h | 16254m | -13.9m/s | 0°C | 0% | 104.1hPa | 2.5V | 00:00:00 | 00:00:00 | 00:00:00 | |
| DL1XH1-15 | 2026-09-03 01:10:26 | 52.39624 | 11.30166 | 108° | 55km/h | 16318m | -12.7m/s | 0°C | 0% | 0hPa | 2.5V | 02:37:01 | 03:12:42 | 00:00:00 | |
| DB0DAN | 2026-09-03 01:10:25 | 52.39615 | 11.30209 | 106° | 53km/h | 16293m | -13m/s | -251.1°C | 0% | 103.45hPa | 2.6V | 00:00:00 | 00:00:00 | 00:00:00 | |
| HSKMA3-T | 2026-09-03 01:10:25 | 52.39615 | 11.30209 | 107° | 55km/h | 16293m | -13m/s | -251.1°C | 0% | 103.5hPa | 2.6V | 02:37:37 | 03:12:44 | 00:00:00 | |
| DD1CC8 | 2026-09-03 01:10:25 | 52.39619 | 11.30187 | 107° | 55km/h | 16306m | -11.9m/s | 0°C | -1.0% | 103.2hPa | 2.5V | 00:00:00 | 00:00:00 | 00:00:00 | |
| DM0DOS-11 | 2026-09-03 01:10:24 | 52.39632 | 11.30124 | 107° | 53km/h | 16343m | -12.2m/s | 0°C | 0% | 0hPa | 2.5V | 02:37:03 | 03:12:40 | 00:00:00 | |
| DF8AY | 2026-09-03 01:10:21 | 52.39636 | 11.30104 | 110° | 53km/h | 16356m | -11.8m/s | -251.1°C | 0% | 102.5hPa | 2.6V | 02:37:37 | 03:12:39 | 00:00:00 | |
| DL1XH-west | 2026-09-03 01:10:19 | 52.39641 | 11.30084 | 111° | 55km/h | 16369m | -12.2m/s | -251.1°C | 0% | 102.3hPa | 2.6V | 02:37:37 | 03:12:38 | 00:00:00 | |
| BIOWL1-15 | 2026-09-03 01:10:15 | 52.39662 | 11.30000 | 110° | 58km/h | 16418m | -11.2m/s | -251.1°C | 0% | 101.5hPa | 2.5V | 18:12:15 | 03:12:34 | 00:00:00 | |
| DM0DOS-11 | 2026-09-03 01:10:14 | 52.39684 | 11.29907 | 111° | 62km/h | 16465m | -13.4m/s | 0°C | 0% | 0hPa | 2.5V | 02:37:13 | 03:12:30 | 00:00:00 | |
| HSKMA3-T | 2026-09-03 01:10:14 | 52.39667 | 11.29978 | 110° | 60km/h | 16429m | -12.6m/s | -251.1°C | 0% | 101.3hPa | 2.6V | 02:37:37 | 03:12:33 | 00:00:00 | |
| DO2SHX-10 | 2026-09-03 01:10:14 | 52.39667 | 11.29978 | 111° | 62km/h | 16430m | -12.5m/s | 0°C | 0% | 101.3hPa | 2.5V | 00:00:00 | 03:12:33 | 00:00:00 | |
| DL1XH-15 | 2026-09-03 01:10:11 | 52.39689 | 11.29884 | 112° | 62km/h | 16478m | -13.1m/s | 0°C | 0% | 0hPa | 2.5V | 02:37:14 | 03:12:29 | 00:00:00 | |
| DB0DAN | 2026-09-03 01:10:10 | 52.39689 | 11.29884 | 112° | 60km/h | 16478m | -13.1m/s | -251.1°C | 0% | 100.5hPa | 2.5V | 00:00:00 | 00:00:00 | 00:00:00 | |
| DF8AY | 2026-09-03 01:10:09 | 52.39695 | 11.29860 | 113° | 60km/h | 16490m | -12.7m/s | -251.1°C | 0% | 100.3hPa | 2.6V | 02:37:37 | 03:12:28 | 00:00:00 | |
| DL1XH-west | 2026-09-03 01:10:08 | 52.39701 | 11.29838 | 113° | 58km/h | 16503m | -12.2m/s | -251.1°C | 0% | 100.1hPa | 2.6V | 02:37:37 | 03:12:27 | 00:00:00 | |
| DO2SHX-10 | 2026-09-03 01:10:08 | 52.39701 | 11.29838 | 113° | 57km/h | 16503m | -12.2m/s | 0°C | 0% | 100.0hPa | 2.6V | 02:37:00 | 03:12:27 | 00:00:00 | |
| BUE01 | 2026-09-03 01:10:07 | 52.39713 | 11.29797 | 117° | 53km/h | 16528m | -13.0m/s | 0°C | -1.0% | 99.7hPa | 2.5V | 00:00:00 | 00:00:00 | 00:00:00 | |
| DM0DOS-11 | 2026-09-03 01:10:06 | 52.39748 | 11.29713 | 127° | 47km/h | 16591m | -13.2m/s | 0°C | 0% | 0hPa | 2.5V | 02:37:23 | 03:12:20 | 00:00:00 | |
| BIOWL1-15 | 2026-09-03 01:10:04 | 52.39726 | 11.29761 | 123° | 49km/h | 16552m | -13.3m/s | -251.1°C | 0% | 99.3hPa | 2.5V | 18:12:15 | 03:12:23 | 00:00:00 | |
| GOEST3-10 | 2026-09-03 01:10:03 | 52.39733 | 11.29745 | 126° | 47km/h | 16566m | -13.4m/s | 0°C | 0% | 99.1hPa | 2.6V | 02:37:00 | 03:12:22 | 00:00:00 | |
| DO2SHX-10 | 2026-09-03 01:10:02 | 52.39740 | 11.29729 | 127° | 47km/h | 16578m | -12.9m/s | 0°C | 0% | 98.9hPa | 2.5V | 00:00:00 | 03:12:21 | 00:00:00 | |
| DL1XH-15 | 2026-09-03 01:10:01 | 52.39755 | 11.29697 | 126° | 47km/h | 16603m | -12.9m/s | 0°C | 0% | 0hPa | 2.5V | 02:37:24 | 03:12:19 | 00:00:00 | |
| DF8AY | 2026-09-03 01:09:58 | 52.39769 | 11.29664 | 122° | 49km/h | 16629m | -13.6m/s | -251.1°C | 0% | 98.2hPa | 2.6V | 02:37:37 | 03:12:17 | 00:00:00 | |
| DL1XH-west | 2026-09-03 01:09:57 | 52.39776 | 11.29647 | 119° | 47km/h | 16642m | -14.2m/s | -251.1°C | 0% | 98hPa | 2.6V | 02:37:37 | 03:12:16 | 00:00:00 | |
| EDDB2-11 | 2026-09-03 01:09:57 | 52.39781 | 11.29629 | 116° | 47km/h | 16656m | -13.7m/s | 0°C | -1.0% | 97.8hPa | 2.5V | 00:00:00 | 00:00:00 | 00:00:00 | |
| DL1XH1-15 | 2026-09-03 01:09:56 | 52.39795 | 11.29576 | 109° | 46km/h | 16697m | -13.9m/s | 0°C | 0% | 0hPa | 2.5V | 02:37:31 | 03:12:12 | 00:00:00 | |
| DB0DAN | 2026-09-03 01:09:55 | 52.39786 | 11.29611 | 113° | 44km/h | 16669m | -14.1m/s | -251.1°C | 0% | 97.58hPa | 2.5V | 00:00:00 | 00:00:00 | 00:00:00 | |
| DM0DOS-11 | 2026-09-03 01:09:54 | 52.39803 | 11.29543 | 110° | 42km/h | 16722m | -12.9m/s | 0°C | 0% | 0hPa | 2.6V | 02:37:33 | 03:12:10 | 00:00:00 | |
| HSKMA3-T | 2026-09-03 01:09:53 | 52.39795 | 11.29576 | 109° | 46km/h | 16697m | -13.9m/s | -251.1°C | 0% | 97.1hPa | 2.5V | 02:37:37 | 03:12:12 | 00:00:00 | |
| DL1LOL-11 | 2026-09-03 01:09:53 | 52.39795 | 11.29576 | 110° | 46km/h | 16697m | -13.9m/s | 0°C | 0% | 97.1hPa | 2.5V | 02:37:00 | 00:00:00 | 00:00:00 | |
| DL1XH-15 | 2026-09-03 01:09:51 | 52.39807 | 11.29526 | 112° | 40km/h | 16735m | -13.7m/s | 0°C | 0% | 0hPa | 2.5V | 02:37:34 | 03:12:09 | 00:00:00 | |
| DF8AY | 2026-09-03 01:09:48 | 52.39815 | 11.29495 | 115° | 42km/h | 16760m | -12.8m/s | -251.1°C | 0% | 96.2hPa | 2.5V | 02:37:37 | 03:12:07 | 00:00:00 | |
| DL1XH-west | 2026-09-03 01:09:47 | 52.39820 | 11.29479 | 116° | 42km/h | 16771m | -12.3m/s | -251.1°C | 0% | 96hPa | 2.6V | 02:37:37 | 03:12:06 | 00:00:00 | |
| DO2SHX-10 | 2026-09-03 01:09:47 | 52.39820 | 11.29479 | 116° | 42km/h | 16771m | -12.2m/s | 0°C | 0% | 95.9hPa | 2.5V | 00:00:00 | 03:12:06 | 00:00:00 | |
| DL1XH1-15 | 2026-09-03 01:09:46 | 52.39839 | 11.29415 | 110° | 44km/h | 16823m | -13.4m/s | 0°C | 0% | 0hPa | 2.5V | 02:37:41 | 03:12:02 | 00:00:00 | |
| HTAHTA | 2026-09-03 01:09:45 | 52.39830 | 11.29448 | 116° | 42km/h | 16797m | -12.3m/s | 0°C | -1.0% | 95.6hPa | 2.5V | 00:00:00 | 00:00:00 | 00:00:00 | |
| HSKMA3-T | 2026-09-03 01:09:43 | 52.39839 | 11.29415 | 111° | 44km/h | 16823m | -13.4m/s | -251.1°C | 0% | 95.3hPa | 2.5V | 02:38:28 | 03:12:02 | 00:00:00 | |
| BIOWL1-15 | 2026-09-03 01:09:42 | 52.39843 | 11.29398 | 110° | 46km/h | 16837m | -14.3m/s | -251.1°C | 0% | 95.1hPa | 2.5V | 18:12:15 | 03:12:01 | 00:00:00 | |
| DL1XH-15 | 2026-09-03 01:09:41 | 52.39849 | 11.29363 | 103° | 46km/h | 16863m | -12.7m/s | 0°C | 0% | 0hPa | 2.6V | 02:37:44 | 03:11:59 | 00:00:00 | |
| DB0DAN | 2026-09-03 01:09:40 | 52.39850 | 11.29363 | 103° | 44km/h | 16863m | -12.7m/s | -251.1°C | 0% | 94.74hPa | 2.6V | 00:00:00 | 00:00:00 | 00:00:00 | |
| DF8AY | 2026-09-03 01:09:38 | 52.39856 | 11.29327 | 105° | 46km/h | 16888m | -11.7m/s | -251.1°C | 0% | 94.3hPa | 2.5V | 02:38:28 | 03:11:57 | 00:00:00 | |
| DL1XH-west | 2026-09-03 01:09:36 | 52.39862 | 11.29292 | 107° | 40km/h | 16911m | -11.3m/s | -251.1°C | 0% | 94hPa | 2.6V | 02:38:28 | 03:11:55 | 00:00:00 | |
| DL1XH1-15 | 2026-09-03 01:09:36 | 52.39873 | 11.29243 | 111° | 40km/h | 16946m | -12.3m/s | 0°C | 0% | 0hPa | 2.5V | 02:37:51 | 03:11:52 | 00:00:00 | |
| HSKMA3-T | 2026-09-03 01:09:32 | 52.39877 | 11.29228 | 112° | 40km/h | 16958m | -12.3m/s | -251.1°C | 0% | 93.2hPa | 2.5V | 02:38:28 | 03:11:51 | 00:00:00 | |
| TFSTFS | 2026-09-03 01:09:32 | 52.39877 | 11.29228 | 113° | 40km/h | 16958m | -12.3m/s | 0°C | 0% | 93.2hPa | 2.6V | 02:38:00 | 00:00:00 | 00:00:00 | |
| AA1-15 | 2026-09-03 01:09:31 | 52.39880 | 11.29212 | 113° | 40km/h | 16970m | -14.1m/s | -251.1°C | 0% | 93hPa | 2.5V | 02:38:28 | 03:11:50 | 00:00:00 | |
| DL1XH-15 | 2026-09-03 01:09:31 | 52.39884 | 11.29197 | 109° | 40km/h | 16982m | -11.9m/s | 0°C | 0% | 0hPa | 2.6V | 02:37:54 | 03:11:49 | 00:00:00 | |
| DF8AY | 2026-09-03 01:09:27 | 52.39907 | 11.29067 | 106° | 40km/h | 17083m | -12.6m/s | -251.1°C | 0% | 91.5hPa | 2.5V | 02:38:28 | 03:11:41 | 00:00:00 | |
| DL1XH1-15 | 2026-09-03 01:09:26 | 52.39904 | 11.29083 | 106° | 40km/h | 17070m | -13.8m/s | 0°C | 0% | 0hPa | 2.6V | 02:38:01 | 03:11:42 | 00:00:00 | |
| DL1XH-west | 2026-09-03 01:09:25 | 52.39899 | 11.29116 | 102° | 40km/h | 17045m | -13m/s | -251.1°C | 0% | 92hPa | 2.6V | 02:38:28 | 03:11:44 | 00:00:00 | |
| DB0DAN | 2026-09-03 01:09:25 | 52.39899 | 11.29116 | 102° | 38km/h | 17045m | -13m/s | -251.1°C | 0% | 92hPa | 2.6V | 00:00:00 | 00:00:00 | 00:00:00 | |
| DM0DOS-11 | 2026-09-03 01:09:24 | 52.39910 | 11.29052 | 108° | 38km/h | 17096m | -13.7m/s | 0°C | 0% | 0hPa | 2.5V | 02:38:03 | 03:11:40 | 00:00:00 | |
| AA1-15 | 2026-09-03 01:09:21 | 52.39910 | 11.29052 | 109° | 38km/h | 17096m | -13.7m/s | -251.1°C | 0% | 91.3hPa | 2.5V | 02:38:28 | 03:11:40 | 00:00:00 | |
| DL4XJ-10 | 2026-09-03 01:09:21 | 52.39910 | 11.29052 | 109° | 47km/h | 17096m | -13.7m/s | 0°C | 0% | 0hPa | 2.5V | 00:00:00 | 00:00:00 | 00:00:00 | |
| DO2SHX-10 | 2026-09-03 01:09:20 | 52.39913 | 11.29036 | 108° | 40km/h | 17109m | -13.5m/s | 0°C | 0% | 91.1hPa | 2.5V | 00:00:00 | 03:11:39 | 00:00:00 | |
| DO3MHA-11 | 2026-09-03 01:09:19 | 52.39916 | 11.29021 | 109° | 46km/h | 17123m | -14.1m/s | 0°C | 0% | 90.9hPa | 2.5V | 00:00:00 | 03:11:38 | 00:00:00 | |
| DO2SHX-10 | 2026-09-03 01:09:17 | 52.39923 | 11.28989 | 110° | 44km/h | 17150m | -12.8m/s | 0°C | 0% | 90.5hPa | 2.5V | 00:00:00 | 03:11:36 | 00:00:00 | |
| DM0DOS-11 | 2026-09-03 01:09:16 | 52.39942 | 11.28880 | 105° | 49km/h | 17224m | -12.4m/s | 0°C | 0% | 0hPa | 2.5V | 02:38:13 | 03:11:30 | 00:00:00 | |
| DL1XH1-15 | 2026-09-03 01:09:16 | 52.39936 | 11.28918 | 105° | 47km/h | 17200m | -12.4m/s | 0°C | 0% | 0hPa | 2.5V | 02:38:11 | 03:11:32 | 00:00:00 | |
| DL1XH-west | 2026-09-03 01:09:15 | 52.39930 | 11.28955 | 106° | 47km/h | 17175m | -12.8m/s | -251.1°C | 0% | 90.2hPa | 2.6V | 02:38:28 | 03:11:34 | 00:00:00 | |
| DO2SHX-10 | 2026-09-03 01:09:14 | 52.39933 | 11.28936 | 107° | 46km/h | 17188m | -12.3m/s | 0°C | 0% | 90.0hPa | 2.6V | 02:38:00 | 03:11:33 | 00:00:00 | |
| NBG1-10 | 2026-09-03 01:09:12 | 52.39939 | 11.28899 | 103° | 42km/h | 17212m | -13.4m/s | 0°C | 0% | 89.7hPa | 2.6V | 00:00:00 | 03:11:31 | 00:00:00 | |
| DL1XH-15 | 2026-09-03 01:09:11 | 52.39946 | 11.28860 | 104° | 49km/h | 17236m | -12.1m/s | 0°C | 0% | 0hPa | 2.6V | 02:38:14 | 03:11:29 | 00:00:00 | |
| HSKMA3-T | 2026-09-03 01:09:11 | 52.39942 | 11.28880 | 105° | 49km/h | 17224m | -12.4m/s | -251.1°C | 0% | 89.5hPa | 2.5V | 02:38:28 | 03:11:30 | 00:00:00 | |
| AA1-15 | 2026-09-03 01:09:10 | 52.39945 | 11.28860 | 104° | 49km/h | 17236m | -12.1m/s | -251.1°C | 0% | 89.4hPa | 2.6V | 02:38:28 | 03:11:29 | 00:00:00 | |
| DB0DAN | 2026-09-03 01:09:10 | 52.39945 | 11.28860 | 104° | 47km/h | 17236m | -12.1m/s | -251.1°C | 0% | 89.38hPa | 2.6V | 00:00:00 | 00:00:00 | 00:00:00 | |
| BIOWL1-15 | 2026-09-03 01:09:06 | 52.39961 | 11.28779 | 111° | 51km/h | 17286m | -12.7m/s | -251.1°C | 0% | 88.6hPa | 2.5V | 18:12:15 | 03:11:25 | 00:00:00 | |
| DL1XH1-15 | 2026-09-03 01:09:06 | 52.39977 | 11.28722 | 114° | 49km/h | 17324m | -13.7m/s | 0°C | 0% | 0hPa | 2.6V | 02:38:21 | 03:11:22 | 00:00:00 | |
| DM0DOS-11 | 2026-09-03 01:09:06 | 52.39988 | 11.28683 | 114° | 53km/h | 17350m | -12.4m/s | 0°C | 0% | 0hPa | 2.6V | 02:38:23 | 03:11:20 | 00:00:00 | |
| DL1XH-west | 2026-09-03 01:09:04 | 52.39972 | 11.28740 | 115° | 51km/h | 17310m | -14.7m/s | -251.1°C | 0% | 88.3hPa | 2.5V | 02:38:28 | 03:11:23 | 00:00:00 | |
| GOEST3-10 | 2026-09-03 01:09:04 | 52.39971 | 11.28740 | 115° | 51km/h | 17310m | -14.6m/s | 0°C | 0% | 88.3hPa | 2.5V | 00:00:00 | 00:00:00 | 00:00:00 | |
| DO2SHX-10 | 2026-09-03 01:09:02 | 52.39982 | 11.28703 | 116° | 53km/h | 17338m | -13.8m/s | 0°C | 0% | 87.9hPa | 2.5V | 00:00:00 | 03:11:21 | 00:00:00 | |
| DL1XH-15 | 2026-09-03 01:09:01 | 52.39994 | 11.28663 | 112° | 53km/h | 17363m | -13.3m/s | 0°C | 0% | 0hPa | 2.5V | 02:38:24 | 03:11:19 | 00:00:00 | |
| DF8AY | 2026-09-03 01:09:00 | 52.39994 | 11.28663 | 113° | 53km/h | 17363m | -13.3m/s | -251.1°C | 0% | 87.7hPa | 2.5V | 02:38:28 | 03:11:19 | 00:00:00 | |
| AA1-15 | 2026-09-03 01:08:59 | 52.39999 | 11.28643 | 114° | 53km/h | 17376m | -13m/s | -251.1°C | 0% | 87.5hPa | 2.5V | 02:38:28 | 03:11:18 | 00:00:00 | |
| DO2SHX-10 | 2026-09-03 01:08:59 | 52.39999 | 11.28643 | 114° | 49km/h | 17377m | -13.0m/s | 0°C | 0% | 87.5hPa | 2.6V | 00:00:00 | 03:11:18 | 00:00:00 | |
| SO1NDE-10 | 2026-09-03 01:08:58 | 52.40004 | 11.28623 | 113° | 33km/h | 17389m | -12.6m/s | 0°C | 0% | 87.2hPa | 2.6V | 00:00:00 | 03:11:17 | 00:00:00 | |
| DM0DOS-11 | 2026-09-03 01:08:56 | 52.40041 | 11.28495 | 115° | 37km/h | 17490m | -12.8m/s | 0°C | 0% | 0hPa | 2.6V | 02:38:34 | 03:11:09 | 00:00:00 | |
| DL1XH1-15 | 2026-09-03 01:08:56 | 52.40028 | 11.28538 | 116° | 42km/h | 17452m | -13.5m/s | 0°C | 0% | 0hPa | 2.5V | 02:38:31 | 03:11:12 | 00:00:00 | |
| DB0DAN | 2026-09-03 01:08:55 | 52.40019 | 11.28570 | 114° | 44km/h | 17426m | -12.8m/s | -251.1°C | 0% | 86.78hPa | 2.6V | 00:00:00 | 00:00:00 | 00:00:00 | |
| DL1XH-west | 2026-09-03 01:08:53 | 52.40028 | 11.28538 | 117° | 42km/h | 17452m | -13.5m/s | -251.1°C | 0% | 86.4hPa | 2.5V | 02:39:19 | 03:11:12 | 00:00:00 | |
| BIOWL1-15 | 2026-09-03 01:08:52 | 52.40033 | 11.28523 | 118° | 40km/h | 17465m | -13.2m/s | -251.1°C | 0% | 86.2hPa | 2.5V | 18:12:15 | 03:11:11 | 00:00:00 | |
| DD1CC8 | 2026-09-03 01:08:52 | 52.40037 | 11.28509 | 117° | 37km/h | 17478m | -13.4m/s | 0°C | -1.0% | 86.1hPa | 2.6V | 00:00:00 | 00:00:00 | 00:00:00 | |
| DL1XH-15 | 2026-09-03 01:08:51 | 52.40041 | 11.28495 | 115° | 37km/h | 17490m | -12.8m/s | 0°C | 0% | 0hPa | 2.6V | 02:38:34 | 03:11:09 | 00:00:00 | |
| HSKMA3-T | 2026-09-03 01:08:50 | 52.40041 | 11.28495 | 116° | 37km/h | 17490m | -12.8m/s | -251.1°C | 0% | 85.9hPa | 2.6V | 02:39:19 | 03:11:09 | 00:00:00 | |
| AA1-15 | 2026-09-03 01:08:49 | 52.40046 | 11.28482 | 115° | 37km/h | 17503m | -13m/s | -251.1°C | 0% | 85.8hPa | 2.6V | 02:39:19 | 03:11:08 | 00:00:00 | |
| SMARD9-15 | 2026-09-03 01:08:48 | 52.40053 | 11.28456 | 117° | 35km/h | 17527m | -12.5m/s | 0°C | -1.0% | 85.5hPa | 2.6V | 00:00:00 | 00:00:00 | 00:00:00 | |
| DL1XH-west | 2026-09-03 01:08:42 | 52.40075 | 11.28391 | 119° | 37km/h | 17590m | -12.2m/s | -251.1°C | 0% | 84.6hPa | 2.6V | 02:39:19 | 03:11:01 | 00:00:00 | |
| DL1XH-15 | 2026-09-03 01:08:41 | 52.40083 | 11.28366 | 118° | 35km/h | 17616m | -13.7m/s | 0°C | 0% | 0hPa | 2.5V | 02:38:44 | 03:10:59 | 00:00:00 | |
| DB0DAN | 2026-09-03 01:08:40 | 52.40083 | 11.28366 | 118° | 33km/h | 17616m | -13.7m/s | -251.1°C | 0% | 84.25hPa | 2.5V | 00:00:00 | 00:00:00 | 00:00:00 | |
| HSKMA3-T | 2026-09-03 01:08:39 | 52.40087 | 11.28353 | 116° | 31km/h | 17629m | -13.4m/s | -251.1°C | 0% | 84.2hPa | 2.5V | 02:39:19 | 03:10:58 | 00:00:00 | |
| AA1-15 | 2026-09-03 01:08:38 | 52.40090 | 11.28342 | 112° | 27km/h | 17642m | -13.1m/s | -251.1°C | 0% | 84hPa | 2.5V | 02:39:19 | 03:10:57 | 00:00:00 | |
| DO2SHX-10 | 2026-09-03 01:08:38 | 52.40090 | 11.28342 | 113° | 26km/h | 17642m | -13.0m/s | 0°C | 0% | 83.9hPa | 2.5V | 02:38:00 | 03:10:57 | 00:00:00 | |
| TFSTFS | 2026-09-03 01:08:37 | 52.40090 | 11.28342 | 113° | 27km/h | 17642m | -13.1m/s | 0°C | 0% | 83.9hPa | 2.5V | 02:39:00 | 00:00:00 | 00:00:00 | |
| DL1XH1-15 | 2026-09-03 01:08:36 | 52.40102 | 11.28298 | 106° | 18km/h | 17704m | -12.9m/s | 0°C | 0% | 0hPa | 2.5V | 02:38:51 | 03:10:52 | 00:00:00 | |
| DL1XH-west | 2026-09-03 01:08:31 | 52.40104 | 11.28284 | 106° | 18km/h | 17728m | -13.1m/s | -251.1°C | 0% | 82.8hPa | 2.6V | 02:39:19 | 03:10:50 | 00:00:00 | |
| DL1XH-15 | 2026-09-03 01:08:31 | 52.40105 | 11.28276 | 102° | 20km/h | 17741m | -14.1m/s | 0°C | 0% | 0hPa | 2.6V | 02:38:54 | 03:10:49 | 00:00:00 | |
| BIOWL1-15 | 2026-09-03 01:08:30 | 52.40109 | 11.28230 | 96° | 33km/h | 17793m | -14.8m/s | -251.1°C | 0% | 0hPa | 2.5V | 18:12:15 | 03:10:45 | 00:00:00 | |
| DF8AY | 2026-09-03 01:08:29 | 52.40106 | 11.28266 | 100° | 24km/h | 17754m | -13.9m/s | -251.1°C | 0% | 82.5hPa | 2.6V | 02:39:19 | 03:10:48 | 00:00:00 | |
| HSKMA3-T | 2026-09-03 01:08:28 | 52.40107 | 11.28255 | 98° | 27km/h | 17767m | -13m/s | -251.1°C | 0% | 82.3hPa | 2.5V | 02:39:19 | 03:10:47 | 00:00:00 | |
| AA1-15 | 2026-09-03 01:08:27 | 52.40108 | 11.28243 | 97° | 31km/h | 17779m | -13.3m/s | -251.1°C | 0% | 82.2hPa | 2.5V | 02:39:19 | 03:10:46 | 00:00:00 | |
| DO3MHA-11 | 2026-09-03 01:08:27 | 52.40108 | 11.28243 | 97° | 29km/h | 17779m | -13.3m/s | 0°C | 0% | 82.2hPa | 2.5V | 02:38:00 | 03:10:46 | 00:00:00 | |
| DL1XH1-15 | 2026-09-03 01:08:26 | 52.40110 | 11.28192 | 83° | 27km/h | 17834m | -13.1m/s | 0°C | 0% | 0hPa | 2.5V | 02:39:01 | 03:10:42 | 00:00:00 | |
| DB0DAN | 2026-09-03 01:08:25 | 52.40110 | 11.28217 | 93° | 31km/h | 17807m | -14.4m/s | -251.1°C | 0% | 81.81hPa | 2.6V | 00:00:00 | 00:00:00 | 00:00:00 | |
| DL1XH-west | 2026-09-03 01:08:21 | 52.40107 | 11.28171 | 81° | 24km/h | 17862m | -13.9m/s | -251.1°C | 0% | 81.1hPa | 2.5V | 02:39:19 | 03:10:40 | 00:00:00 | |
| DL1XH-15 | 2026-09-03 01:08:21 | 52.40106 | 11.28161 | 88° | 26km/h | 17876m | -13.6m/s | 0°C | 0% | 0hPa | 2.6V | 02:39:04 | 03:10:39 | 00:00:00 | |
| HSKMA3-T | 2026-09-03 01:08:18 | 52.40106 | 11.28138 | 91° | 33km/h | 17901m | -12m/s | -251.1°C | 0% | 80.7hPa | 2.6V | 02:39:19 | 03:10:37 | 00:00:00 | |
| AA1-15 | 2026-09-03 01:08:16 | 52.40106 | 11.28107 | 88° | 40km/h | 17926m | -13.3m/s | -251.1°C | 0% | 80.3hPa | 2.5V | 02:39:19 | 03:10:35 | 00:00:00 | |
| DL1XH-west | 2026-09-03 01:08:10 | 52.40108 | 11.27996 | 95° | 49km/h | 18009m | -11.2m/s | -251.1°C | 0% | 79.3hPa | 2.6V | 02:39:19 | 03:10:29 | 00:00:00 | |
| HSKMA3-T | 2026-09-03 01:08:08 | 52.40111 | 11.27959 | 100° | 47km/h | 18035m | -12.5m/s | -251.1°C | 0% | 79hPa | 2.5V | 02:39:19 | 03:10:27 | 00:00:00 | |
| AA1-15 | 2026-09-03 01:08:05 | 52.40120 | 11.27904 | 107° | 46km/h | 18074m | -13.1m/s | -251.1°C | 0% | 78.5hPa | 2.6V | 02:39:19 | 03:10:24 | 00:00:00 | |
| DL1XH-west | 2026-09-03 01:07:59 | 52.40134 | 11.27800 | 95° | 38km/h | 18156m | -14m/s | -251.1°C | 0% | 77.5hPa | 2.6V | 02:40:10 | 03:10:18 | 00:00:00 | |
| HSKMA3-T | 2026-09-03 01:07:57 | 52.40135 | 11.27769 | 93° | 35km/h | 18183m | -14.9m/s | -251.1°C | 0% | 77.2hPa | 2.5V | 02:40:10 | 03:10:16 | 00:00:00 | |
| SONCRA | 2026-09-03 01:07:56 | 52.40135 | 11.27754 | 88° | 35km/h | 18197m | -14.9m/s | 0°C | -1.0% | 77.0hPa | 2.6V | 00:00:00 | 00:00:00 | 00:00:00 | |
| DB0DAN | 2026-09-03 01:07:55 | 52.40135 | 11.27740 | 90° | 35km/h | 18211m | -14.4m/s | -251.1°C | 0% | 76.85hPa | 2.6V | 00:00:00 | 00:00:00 | 00:00:00 | |
| BIOWL1-15 | 2026-09-03 01:07:55 | 52.40135 | 11.27740 | 91° | 37km/h | 18211m | -14.4m/s | -251.1°C | 0% | 0hPa | 2.6V | 18:12:15 | 03:10:14 | 00:00:00 | |
| AA1-15 | 2026-09-03 01:07:54 | 52.40135 | 11.27724 | 94° | 37km/h | 18226m | -15.2m/s | -251.1°C | 0% | 76.7hPa | 2.6V | 02:40:10 | 03:10:13 | 00:00:00 | |
| TFSTFS | 2026-09-03 01:07:53 | 52.40136 | 11.27708 | 95° | 38km/h | 18241m | -15.8m/s | 0°C | 0% | 76.5hPa | 2.6V | 02:40:00 | 00:00:00 | 00:00:00 | |
| GOEST3-10 | 2026-09-03 01:07:52 | 52.40137 | 11.27692 | 99° | 44km/h | 18257m | -16.1m/s | 0°C | 0% | 76.3hPa | 2.6V | 00:00:00 | 00:00:00 | 00:00:00 | |
| DM0DOS-11 | 2026-09-03 01:07:51 | 52.40142 | 11.27658 | 103° | 44km/h | 18288m | -15.5m/s | 0°C | 0% | 0hPa | 2.6V | 02:39:34 | 03:10:09 | 00:00:00 | |
| DL1XH-west | 2026-09-03 01:07:49 | 52.40147 | 11.27622 | 101° | 47km/h | 18318m | -14.7m/s | -251.1°C | 0% | 75.7hPa | 2.6V | 02:40:10 | 03:10:07 | 00:00:00 | |
| DF8AY | 2026-09-03 01:07:48 | 52.40150 | 11.27604 | 102° | 46km/h | 18334m | -15.1m/s | -251.1°C | 0% | 75.5hPa | 2.5V | 02:40:10 | 03:10:06 | 00:00:00 | |
| HSKMA3-T | 2026-09-03 01:07:47 | 52.40155 | 11.27569 | 108° | 47km/h | 18365m | -14.4m/s | -251.1°C | 0% | 75.2hPa | 2.5V | 02:40:10 | 03:10:04 | 00:00:00 | |
| AA1-15 | 2026-09-03 01:07:44 | 52.40159 | 11.27550 | 108° | 49km/h | 18379m | -14.1m/s | -251.1°C | 0% | 74.9hPa | 2.6V | 02:40:10 | 03:10:03 | 00:00:00 | |
| DF7ER-10 | 2026-09-03 01:07:44 | 52.40159 | 11.27551 | 109° | 49km/h | 18379m | -14.1m/s | 0°C | 0% | 74.9hPa | 2.5V | 02:40:00 | 00:00:00 | 00:00:00 | |
| GOEST3-10 | 2026-09-03 01:07:42 | 52.40168 | 11.27512 | 111° | 53km/h | 18408m | -14.3m/s | 0°C | 0% | 74.6hPa | 2.5V | 02:39:00 | 00:00:00 | 00:00:00 | |
| DL1XH-15 | 2026-09-03 01:07:41 | 52.40178 | 11.27472 | 112° | 53km/h | 18435m | -13.7m/s | 0°C | 0% | 0hPa | 2.6V | 02:39:44 | 03:09:59 | 00:00:00 | |
| DB0DAN | 2026-09-03 01:07:40 | 52.40178 | 11.27472 | 112° | 51km/h | 18435m | -13.7m/s | -251.1°C | 0% | 74.28hPa | 2.6V | 00:00:00 | 00:00:00 | 00:00:00 | |
| BIOWL1-15 | 2026-09-03 01:07:37 | 52.40193 | 11.27410 | 110° | 51km/h | 18474m | -14.9m/s | -251.1°C | 0% | 0hPa | 2.5V | 18:12:15 | 03:09:56 | 00:00:00 | |
| DL1XH1-15 | 2026-09-03 01:07:36 | 52.40208 | 11.27334 | 105° | 53km/h | 18534m | -14m/s | 0°C | 0% | 0hPa | 2.6V | 02:39:51 | 03:09:52 | 00:00:00 | |
| HSKMA3-T | 2026-09-03 01:07:35 | 52.40201 | 11.27372 | 109° | 47km/h | 18504m | -14.7m/s | -251.1°C | 0% | 73.5hPa | 2.6V | 02:40:10 | 03:09:54 | 00:00:00 | |
| AA1-15 | 2026-09-03 01:07:33 | 52.40209 | 11.27334 | 106° | 53km/h | 18534m | -14m/s | -251.1°C | 0% | 73.2hPa | 2.6V | 02:40:10 | 03:09:52 | 00:00:00 | |
| DF8AY | 2026-09-03 01:07:27 | 52.40225 | 11.27206 | 102° | 49km/h | 18617m | -13.4m/s | -251.1°C | 0% | 72.2hPa | 2.5V | 02:40:10 | 03:09:46 | 00:00:00 | |
| DO3MHA-11 | 2026-09-03 01:07:27 | 52.40225 | 11.27206 | 103° | 42km/h | 18617m | -13.4m/s | 0°C | 0% | 72.1hPa | 2.5V | 02:39:00 | 03:09:46 | 00:00:00 | |
| DL1XH1-15 | 2026-09-03 01:07:26 | 52.40239 | 11.27133 | 108° | 42km/h | 18669m | -13.7m/s | 0°C | 0% | 0hPa | 2.5V | 02:40:01 | 03:09:42 | 00:00:00 | |
| DL1XH-west | 2026-09-03 01:07:26 | 52.40228 | 11.27186 | 105° | 49km/h | 18630m | -13.4m/s | -251.1°C | 0% | 72hPa | 2.5V | 02:40:10 | 03:09:45 | 00:00:00 | |
| DB0DAN | 2026-09-03 01:07:25 | 52.40232 | 11.27168 | 107° | 44km/h | 18643m | -13.5m/s | -251.1°C | 0% | 71.9hPa | 2.6V | 00:00:00 | 00:00:00 | 00:00:00 | |
| HSKMA3-T | 2026-09-03 01:07:25 | 52.40232 | 11.27168 | 107° | 47km/h | 18643m | -13.5m/s | -251.1°C | 0% | 71.9hPa | 2.6V | 02:40:10 | 03:09:44 | 00:00:00 | |
| BIOWL1-15 | 2026-09-03 01:07:23 | 52.40253 | 11.27071 | 111° | 38km/h | 18722m | -13.9m/s | 0°C | 0% | 0hPa | 2.6V | 18:12:15 | 03:09:38 | 00:00:00 | |
| AA1-15 | 2026-09-03 01:07:22 | 52.40242 | 11.27117 | 110° | 42km/h | 18682m | -15m/s | -251.1°C | 0% | 71.5hPa | 2.5V | 02:40:10 | 03:09:41 | 00:00:00 | |
| DF7ER-10 | 2026-09-03 01:07:22 | 52.40242 | 11.27117 | 111° | 42km/h | 18682m | -15.0m/s | 0°C | 0% | 71.5hPa | 2.6V | 02:40:00 | 00:00:00 | 00:00:00 | |
| DO2SHX-10 | 2026-09-03 01:07:20 | 52.40249 | 11.27086 | 112° | 38km/h | 18708m | -14.6m/s | 0°C | 0% | 71.0hPa | 2.6V | 00:00:00 | 03:09:39 | 00:00:00 | |
| DL4XJ-10 | 2026-09-03 01:07:18 | 52.40257 | 11.27057 | 111° | 31km/h | 18736m | -12.6m/s | 0°C | 0% | 0hPa | 2.6V | 00:00:00 | 00:00:00 | 00:00:00 | |
| 13BRC | 2026-09-03 01:07:17 | 52.40260 | 11.27043 | 112° | 37km/h | 18750m | -15.3m/s | 0°C | 0% | 70.8hPa | 2.6V | 02:40:00 | 00:00:00 | 00:00:00 | |
| DL1XH1-15 | 2026-09-03 01:07:16 | 52.40274 | 11.26991 | 112° | 31km/h | 18802m | -12.5m/s | 0°C | 0% | 0hPa | 2.6V | 02:40:11 | 03:09:32 | 00:00:00 | |
| DL1XH-west | 2026-09-03 01:07:16 | 52.40263 | 11.27029 | 113° | 35km/h | 18764m | -14m/s | -251.1°C | 0% | 70.5hPa | 2.5V | 02:40:10 | 03:09:35 | 00:00:00 | |
| HSKMA3-T | 2026-09-03 01:07:15 | 52.40270 | 11.27003 | 118° | 33km/h | 18790m | -12.5m/s | -251.1°C | 0% | 70.2hPa | 2.6V | 02:40:10 | 03:09:33 | 00:00:00 | |
| BIOWL1-15 | 2026-09-03 01:07:14 | 52.40283 | 11.26958 | 111° | 26km/h | 18839m | -13.4m/s | 0°C | 0% | 0hPa | 2.5V | 18:12:15 | 03:09:29 | 00:00:00 | |
| AA1-15 | 2026-09-03 01:07:11 | 52.40280 | 11.26968 | 109° | 27km/h | 18827m | -12m/s | -251.1°C | 0% | 69.8hPa | 2.5V | 02:41:01 | 03:09:30 | 00:00:00 | |
| DO9LL-15 | 2026-09-03 01:07:11 | 52.40280 | 11.26968 | 109° | 29km/h | 18827m | -12.0m/s | 0°C | 0% | 69.8hPa | 2.5V | 02:40:00 | 03:09:30 | 00:00:00 | |
| HTAHTA | 2026-09-03 01:07:10 | 52.40283 | 11.26958 | 111° | 26km/h | 18840m | -13.4m/s | 0°C | -1.0% | 69.8hPa | 2.5V | 00:00:00 | 00:00:00 | 00:00:00 | |
| DB0DAN | 2026-09-03 01:07:10 | 52.40283 | 11.26958 | 111° | 24km/h | 18839m | -13.4m/s | -251.1°C | 0% | 69.78hPa | 2.5V | 00:00:00 | 00:00:00 | 00:00:00 | |
| DO2SHX-10 | 2026-09-03 01:07:08 | 52.40286 | 11.26937 | 110° | 27km/h | 18866m | -14.8m/s | 0°C | 0% | 69.3hPa | 2.5V | 02:40:00 | 03:09:27 | 00:00:00 | |
| DO3MHA-11 | 2026-09-03 01:07:07 | 52.40289 | 11.26926 | 112° | 33km/h | 18881m | -14.4m/s | 0°C | 0% | 69.2hPa | 2.5V | 00:00:00 | 03:09:26 | 00:00:00 | |
| DL1XH1-15 | 2026-09-03 01:07:06 | 52.40302 | 11.26883 | 119° | 31km/h | 18938m | -14.6m/s | 0°C | 0% | 0hPa | 2.5V | 02:40:21 | 03:09:22 | 00:00:00 | |
| DL1XH-west | 2026-09-03 01:07:05 | 52.40295 | 11.26905 | 111° | 29km/h | 18908m | -14.3m/s | -251.1°C | 0% | 69hPa | 2.6V | 02:41:01 | 03:09:24 | 00:00:00 | |
| HSKMA3-T | 2026-09-03 01:07:04 | 52.40298 | 11.26894 | 115° | 31km/h | 18923m | -15.7m/s | -251.1°C | 0% | 68.8hPa | 2.5V | 02:41:01 | 03:09:23 | 00:00:00 | |
| BIOWL1-15 | 2026-09-03 01:07:01 | 52.40320 | 11.26831 | 117° | 35km/h | 18995m | -14.1m/s | 0°C | 0% | 0hPa | 2.6V | 18:12:15 | 03:09:18 | 00:00:00 | |
| AA1-15 | 2026-09-03 01:07:01 | 52.40311 | 11.26858 | 120° | 37km/h | 18967m | -15.2m/s | -251.1°C | 0% | 68.4hPa | 2.6V | 02:41:01 | 03:09:20 | 00:00:00 | |
| SMARD9-10 | 2026-09-03 01:07:00 | 52.40316 | 11.26844 | 119° | 37km/h | 18982m | -14.9m/s | 0°C | 0% | 68.2hPa | 2.6V | 00:00:00 | 00:00:00 | 00:00:00 | |
| DO2SHX-10 | 2026-09-03 01:06:59 | 52.40320 | 11.26831 | 118° | 35km/h | 18996m | -14.0m/s | 0°C | 0% | 68.0hPa | 2.6V | 02:40:00 | 03:09:18 | 00:00:00 | |
| SO1NDE-10 | 2026-09-03 01:06:58 | 52.40324 | 11.26819 | 117° | 31km/h | 19010m | -15.3m/s | 0°C | 0% | 67.9hPa | 2.5V | 00:00:00 | 03:09:17 | 00:00:00 | |
| DO3MHA-11 | 2026-09-03 01:06:57 | 52.40328 | 11.26806 | 115° | 27km/h | 19025m | -14.1m/s | 0°C | 0% | 67.7hPa | 2.5V | 02:40:00 | 03:09:16 | 00:00:00 | |
| 13BRC | 2026-09-03 01:06:56 | 52.40328 | 11.26806 | 116° | 35km/h | 19025m | -14.1m/s | 0°C | 0% | 67.8hPa | 2.6V | 02:41:00 | 00:00:00 | 00:00:00 | |
| DB0DAN | 2026-09-03 01:06:55 | 52.40335 | 11.26781 | 110° | 31km/h | 19052m | -14.6m/s | -251.1°C | 0% | 67.47hPa | 2.6V | 00:00:00 | 00:00:00 | 00:00:00 | |
| DL1XH-west | 2026-09-03 01:06:54 | 52.40338 | 11.26768 | 109° | 31km/h | 19066m | -15.3m/s | -251.1°C | 0% | 67.3hPa | 2.6V | 02:41:01 | 03:09:13 | 00:00:00 | |
| HSKMA3-T | 2026-09-03 01:06:54 | 52.40341 | 11.26757 | 116° | 27km/h | 19081m | -15.5m/s | -251.1°C | 0% | 67.2hPa | 2.5V | 02:41:01 | 03:09:12 | 00:00:00 | |
| AA1-15 | 2026-09-03 01:06:50 | 52.40348 | 11.26726 | 110° | 24km/h | 19125m | -15m/s | -251.1°C | 0% | 66.7hPa | 2.6V | 02:41:01 | 03:09:09 | 00:00:00 | |
| DO2SHX-10 | 2026-09-03 01:06:50 | 52.40348 | 11.26726 | 111° | 24km/h | 19126m | -15.0m/s | 0°C | 0% | 66.7hPa | 2.6V | 02:40:00 | 03:09:09 | 00:00:00 | |
| TFSTFS | 2026-09-03 01:06:49 | 52.40350 | 11.26717 | 105° | 24km/h | 19140m | -15.9m/s | 0°C | 0% | 66.5hPa | 2.5V | 00:00:00 | 00:00:00 | 00:00:00 | |
| DL1CLM-18 | 2026-09-03 01:06:48 | 52.40351 | 11.26707 | 104° | 24km/h | 19155m | -14.7m/s | 0°C | 0% | 66.3hPa | 2.5V | 00:00:00 | 00:00:00 | 00:00:00 | |
| DO2SHX-10 | 2026-09-03 01:06:47 | 52.40353 | 11.26697 | 100° | 27km/h | 19169m | -15.8m/s | 0°C | 0% | 66.1hPa | 2.5V | 00:00:00 | 03:09:06 | 00:00:00 | |
| DL1XH1-15 | 2026-09-03 01:06:46 | 52.40356 | 11.26649 | 95° | 33km/h | 19228m | -16.6m/s | 0°C | 0% | 0hPa | 2.5V | 02:40:41 | 03:09:02 | 00:00:00 | |
| DL1XH-west | 2026-09-03 01:06:44 | 52.40355 | 11.26662 | 96° | 29km/h | 19213m | -14.5m/s | -251.1°C | 0% | 65.8hPa | 2.6V | 02:41:01 | 03:09:03 | 00:00:00 | |
| HSKMA3-T | 2026-09-03 01:06:43 | 52.40357 | 11.26636 | 95° | 35km/h | 19243m | -14.7m/s | -251.1°C | 0% | 65.5hPa | 2.5V | 02:41:01 | 03:09:01 | 00:00:00 | |
| BIOWL1-15 | 2026-09-03 01:06:43 | 52.40365 | 11.26568 | 105° | 33km/h | 19316m | -17.4m/s | 0°C | 0% | 0hPa | 2.5V | 18:12:15 | 03:08:56 | 00:00:00 | |
| MECKS9 | 2026-09-03 01:06:42 | 52.40356 | 11.26636 | 96° | 35km/h | 19244m | -14.7m/s | 0°C | 0% | 65.6hPa | 2.6V | 02:41:00 | 00:00:00 | 00:00:00 | |
| DB0DAN | 2026-09-03 01:06:40 | 52.40359 | 11.26608 | 103° | 33km/h | 19271m | -15.3m/s | -251.1°C | 0% | 65.15hPa | 2.6V | 00:00:00 | 00:00:00 | 00:00:00 | |
| AA1-15 | 2026-09-03 01:06:39 | 52.40361 | 11.26594 | 102° | 33km/h | 19285m | -14.8m/s | -251.1°C | 0% | 65hPa | 2.6V | 02:41:01 | 03:08:58 | 00:00:00 | |
| DL1XH-west | 2026-09-03 01:06:34 | 52.40371 | 11.26534 | 101° | 27km/h | 19363m | -16.2m/s | -251.1°C | 0% | 64.3hPa | 2.6V | 02:41:01 | 03:08:53 | 00:00:00 | |
| DF8AY | 2026-09-03 01:06:33 | 52.40372 | 11.26522 | 96° | 31km/h | 19379m | -16.1m/s | -251.1°C | 0% | 64.2hPa | 2.6V | 02:41:01 | 03:08:52 | 00:00:00 | |
| HSKMA3-T | 2026-09-03 01:06:32 | 52.40373 | 11.26510 | 98° | 33km/h | 19395m | -15.7m/s | -251.1°C | 0% | 63.9hPa | 2.5V | 02:41:01 | 03:08:51 | 00:00:00 | |
| AA1-15 | 2026-09-03 01:06:28 | 52.40379 | 11.26449 | 98° | 40km/h | 19454m | -15.2m/s | -251.1°C | 0% | 63.4hPa | 2.5V | 02:41:01 | 03:08:47 | 00:00:00 | |
| BIOWL1-15 | 2026-09-03 01:06:27 | 52.40389 | 11.26333 | 100° | 40km/h | 19562m | -16.5m/s | 0°C | 0% | 0hPa | 2.5V | 18:12:15 | 03:08:40 | 00:00:00 | |
| DO3MHA-11 | 2026-09-03 01:06:27 | 52.40380 | 11.26433 | 97° | 40km/h | 19469m | -15.3m/s | 0°C | 0% | 63.3hPa | 2.5V | 02:40:00 | 03:08:46 | 00:00:00 | |
| DB0DAN | 2026-09-03 01:06:25 | 52.40383 | 11.26399 | 97° | 40km/h | 19500m | -16.2m/s | -251.1°C | 0% | 62.94hPa | 2.6V | 00:00:00 | 00:00:00 | 00:00:00 | |
| DL1XH-west | 2026-09-03 01:06:24 | 52.40384 | 11.26382 | 97° | 42km/h | 19515m | -15.7m/s | -251.1°C | 0% | 62.8hPa | 2.6V | 02:41:01 | 03:08:43 | 00:00:00 | |
| HSKMA3-T | 2026-09-03 01:06:22 | 52.40388 | 11.26349 | 100° | 40km/h | 19547m | -15.8m/s | -251.1°C | 0% | 62.5hPa | 2.5V | 02:41:52 | 03:08:41 | 00:00:00 | |
| GOEST3-10 | 2026-09-03 01:06:22 | 52.40388 | 11.26349 | 101° | 38km/h | 19547m | -15.7m/s | 0°C | 0% | 62.4hPa | 2.5V | 00:00:00 | 00:00:00 | 00:00:00 | |
| DL1XH-15 | 2026-09-03 01:06:21 | 52.40391 | 11.26318 | 99° | 38km/h | 19578m | -16.5m/s | 0°C | 0% | 0hPa | 2.5V | 02:41:04 | 03:08:39 | 00:00:00 | |
| AA1-15 | 2026-09-03 01:06:17 | 52.40399 | 11.26272 | 108° | 42km/h | 19625m | -15.3m/s | -251.1°C | 0% | 61.7hPa | 2.6V | 02:41:52 | 03:08:36 | 00:00:00 | |
| BIOWL1-15 | 2026-09-03 01:06:14 | 52.40413 | 11.26223 | 119° | 47km/h | 19669m | -14.7m/s | 0°C | 0% | 0hPa | 2.5V | 18:12:15 | 03:08:33 | 00:00:00 | |
| DL1XH-west | 2026-09-03 01:06:13 | 52.40419 | 11.26206 | 123° | 47km/h | 19684m | -15.8m/s | -251.1°C | 0% | 61.2hPa | 2.6V | 02:41:52 | 03:08:32 | 00:00:00 | |
| HSKMA3-T | 2026-09-03 01:06:12 | 52.40432 | 11.26175 | 125° | 44km/h | 19716m | -17.2m/s | -251.1°C | 0% | 60.8hPa | 2.5V | 02:41:52 | 03:08:30 | 00:00:00 | |
| DL1XH-15 | 2026-09-03 01:06:12 | 52.40438 | 11.26160 | 125° | 40km/h | 19732m | -15.2m/s | 0°C | 0% | 0hPa | 2.5V | 02:41:14 | 03:08:29 | 00:00:00 | |
| DB0DAN | 2026-09-03 01:06:10 | 52.40438 | 11.26160 | 126° | 38km/h | 19732m | -15.2m/s | -251.1°C | 0% | 60.71hPa | 2.5V | 00:00:00 | 00:00:00 | 00:00:00 | |
| DL1XH1-15 | 2026-09-03 01:06:08 | 52.40467 | 11.26064 | 112° | 35km/h | 19843m | -15.6m/s | 0°C | 0% | 0hPa | 2.6V | 02:41:21 | 03:08:22 | 00:00:00 | |
| AA1-15 | 2026-09-03 01:06:07 | 52.40453 | 11.26120 | 117° | 38km/h | 19780m | -16m/s | -251.1°C | 0% | 60.3hPa | 2.5V | 02:41:52 | 03:08:26 | 00:00:00 | |
| DL1XH-west | 2026-09-03 01:06:03 | 52.40467 | 11.26064 | 113° | 35km/h | 19843m | -15.6m/s | -251.1°C | 0% | 59.8hPa | 2.6V | 02:41:52 | 03:08:22 | 00:00:00 | |
| EDDB2-12 | 2026-09-03 01:06:03 | 52.40470 | 11.26051 | 118° | 33km/h | 19859m | -15.8m/s | 0°C | -1.0% | 59.6hPa | 2.5V | 00:00:00 | 00:00:00 | 00:00:00 | |
| DO2SHX-10 | 2026-09-03 01:06:02 | 52.40470 | 11.26051 | 119° | 33km/h | 19859m | -15.7m/s | 0°C | 0% | 59.5hPa | 2.5V | 00:00:00 | 03:08:21 | 00:00:00 | |
| DL1XH-15 | 2026-09-03 01:06:01 | 52.40479 | 11.26028 | 129° | 31km/h | 19889m | -16.3m/s | 0°C | 0% | 0hPa | 2.5V | 02:41:24 | 03:08:19 | 00:00:00 | |
| HSKMA3-T | 2026-09-03 01:06:01 | 52.40474 | 11.26039 | 121° | 31km/h | 19874m | -15.1m/s | -251.1°C | 0% | 59.5hPa | 2.5V | 02:41:52 | 03:08:20 | 00:00:00 | |
| AA1-15 | 2026-09-03 01:05:57 | 52.40494 | 11.26002 | 138° | 27km/h | 19933m | -12.7m/s | -251.1°C | 0% | 58.9hPa | 2.6V | 02:41:52 | 03:08:16 | 00:00:00 | |
| DO3MHA-11 | 2026-09-03 01:05:57 | 52.40494 | 11.26002 | 138° | 22km/h | 19933m | -12.6m/s | 0°C | 0% | 58.8hPa | 2.6V | 02:41:00 | 03:08:16 | 00:00:00 | |
| DL1XH1-15 | 2026-09-03 01:05:56 | 52.40509 | 11.25972 | 120° | 18km/h | 19994m | -16.8m/s | 0°C | 0% | 0hPa | 2.5V | 02:41:31 | 03:08:12 | 00:00:00 | |
| DB0DAN | 2026-09-03 01:05:55 | 52.40503 | 11.25987 | 127° | 24km/h | 19964m | -15.8m/s | -251.1°C | 0% | 58.6hPa | 2.5V | 00:00:00 | 00:00:00 | 00:00:00 | |
| DL1XH-west | 2026-09-03 01:05:53 | 52.40509 | 11.25972 | 120° | 18km/h | 19994m | -16.8m/s | -251.1°C | 0% | 58.3hPa | 2.5V | 02:41:52 | 03:08:12 | 00:00:00 | |
| SONCRA | 2026-09-03 01:05:52 | 52.40512 | 11.25956 | 103° | 18km/h | 20026m | -15.7m/s | 0°C | -1.0% | 58.0hPa | 2.5V | 00:00:00 | 00:00:00 | 00:00:00 | |
| DL1XH-15 | 2026-09-03 01:05:51 | 52.40513 | 11.25948 | 95° | 22km/h | 20042m | -17.1m/s | 0°C | 0% | 0hPa | 2.5V | 02:41:34 | 03:08:09 | 00:00:00 | |
| HSKMA3-T | 2026-09-03 01:05:51 | 52.40512 | 11.25956 | 103° | 18km/h | 20026m | -15.7m/s | -251.1°C | 0% | 58hPa | 2.6V | 02:41:52 | 03:08:10 | 00:00:00 | |
| BIOWL1-15 | 2026-09-03 01:05:50 | 52.40513 | 11.25948 | 95° | 22km/h | 20042m | -17.1m/s | 0°C | 0% | 0hPa | 2.5V | 18:12:15 | 03:08:09 | 00:00:00 | |
| AA1-15 | 2026-09-03 01:05:46 | 52.40515 | 11.25911 | 97° | 22km/h | 20107m | -15.6m/s | -251.1°C | 0% | 57.3hPa | 2.5V | 02:41:52 | 03:08:05 | 00:00:00 | |
| DD1CC8 | 2026-09-03 01:05:46 | 52.40515 | 11.25902 | 98° | 22km/h | 20123m | -16.2m/s | 0°C | -1.0% | -1.0hPa | 2.5V | 00:00:00 | 00:00:00 | 00:00:00 | |
| DD8BA-10 | 2026-09-03 01:05:45 | 52.40515 | 11.25902 | 99° | 26km/h | 20123m | -16.2m/s | 0°C | 0% | 57.1hPa | 2.5V | 02:41:00 | 00:00:00 | 00:00:00 | |
| DM0DOS-11 | 2026-09-03 01:05:44 | 52.40528 | 11.25841 | 118° | 26km/h | 20221m | -17.4m/s | 0°C | 0% | 0hPa | 2.5V | 02:41:45 | 03:07:58 | 00:00:00 | |
| DL1XH1-15 | 2026-09-03 01:05:44 | 52.40518 | 11.25882 | 99° | 26km/h | 20153m | -16.9m/s | 0°C | 0% | 0hPa | 2.6V | 02:41:41 | 03:08:02 | 00:00:00 | |
| DL1XH-west | 2026-09-03 01:05:42 | 52.40520 | 11.25872 | 112° | 26km/h | 20170m | -15m/s | -251.1°C | 0% | 56.8hPa | 2.6V | 02:41:52 | 03:08:01 | 00:00:00 | |
| GOEST3-10 | 2026-09-03 01:05:42 | 52.40519 | 11.25872 | 112° | 27km/h | 20170m | -14.9m/s | 0°C | 0% | 56.7hPa | 2.6V | 02:41:00 | 00:00:00 | 00:00:00 | |
| DL1XH-15 | 2026-09-03 01:05:41 | 52.40525 | 11.25851 | 115° | 27km/h | 20203m | -17.8m/s | 0°C | 0% | 0hPa | 2.5V | 02:41:44 | 03:07:59 | 00:00:00 | |
| HSKMA3-T | 2026-09-03 01:05:40 | 52.40525 | 11.25851 | 116° | 27km/h | 20203m | -17.8m/s | -251.1°C | 0% | 56.5hPa | 2.5V | 02:41:52 | 03:07:59 | 00:00:00 | |
| DB0DAN | 2026-09-03 01:05:40 | 52.40525 | 11.25851 | 116° | 26km/h | 20203m | -17.8m/s | -251.1°C | 0% | 56.54hPa | 2.5V | 00:00:00 | 00:00:00 | 00:00:00 | |
| BIOWL1-15 | 2026-09-03 01:05:39 | 52.40532 | 11.25832 | 117° | 26km/h | 20238m | -16.5m/s | 0°C | 0% | 0hPa | 2.5V | 18:12:15 | 03:07:57 | 00:00:00 | |
| DL1XH1-15 | 2026-09-03 01:05:38 | 52.40548 | 11.25784 | 127° | 24km/h | 20320m | -16.8m/s | 0°C | 0% | 0hPa | 2.5V | 02:41:51 | 03:07:52 | 00:00:00 | |
| AA1-15 | 2026-09-03 01:05:36 | 52.40537 | 11.25810 | 124° | 27km/h | 20268m | -16m/s | -251.1°C | 0% | 55.9hPa | 2.6V | 02:41:52 | 03:07:55 | 00:00:00 | |
| DF8AY | 2026-09-03 01:05:35 | 52.40541 | 11.25801 | 129° | 26km/h | 20285m | -18m/s | -251.2°C | 0% | 55.8hPa | 2.6V | 02:41:52 | 03:07:54 | 00:00:00 | |
| DO2SHX-10 | 2026-09-03 01:05:35 | 52.40541 | 11.25801 | 129° | 26km/h | 20286m | -18.0m/s | 0°C | 0% | 55.8hPa | 2.6V | 00:00:00 | 03:07:54 | 00:00:00 | |
| DM0DOS-11 | 2026-09-03 01:05:34 | 52.40560 | 11.25752 | 120° | 20km/h | 20387m | -17m/s | 0°C | 0% | 0hPa | 2.6V | 02:41:55 | 03:07:48 | 00:00:00 | |
| DL1XH-west | 2026-09-03 01:05:32 | 52.40551 | 11.25776 | 120° | 22km/h | 20336m | -16m/s | -251.1°C | 0% | 55.4hPa | 2.5V | 02:41:52 | 03:07:51 | 00:00:00 | |
| DO2SHX-10 | 2026-09-03 01:05:32 | 52.40551 | 11.25775 | 121° | 22km/h | 20336m | -15.9m/s | 0°C | 0% | 55.3hPa | 2.6V | 00:00:00 | 03:07:51 | 00:00:00 | |
| DL1XH-15 | 2026-09-03 01:05:31 | 52.40557 | 11.25760 | 122° | 20km/h | 20370m | -17.5m/s | 0°C | 0% | 0hPa | 2.6V | 02:41:54 | 03:07:49 | 00:00:00 | |
| HSKMA3-T | 2026-09-03 01:05:29 | 52.40560 | 11.25752 | 121° | 20km/h | 20387m | -17m/s | -251.2°C | 0% | 55hPa | 2.6V | 02:42:43 | 03:07:48 | 00:00:00 | |
| DO2SHX-10 | 2026-09-03 01:05:29 | 52.40560 | 11.25752 | 121° | 20km/h | 20387m | -16.9m/s | 0°C | 0% | 54.9hPa | 2.6V | 02:41:00 | 03:07:48 | 00:00:00 | |
| SO1NDE-10 | 2026-09-03 01:05:28 | 52.40562 | 11.25745 | 114° | 22km/h | 20403m | -15.8m/s | 0°C | 0% | 54.7hPa | 2.5V | 00:00:00 | 03:07:47 | 00:00:00 | |
| GOEST3-10 | 2026-09-03 01:05:27 | 52.40565 | 11.25737 | 116° | 24km/h | 20419m | -15.1m/s | 0°C | 0% | 54.6hPa | 2.5V | 02:41:00 | 03:07:46 | 00:00:00 | |
| DL1XH1-15 | 2026-09-03 01:05:26 | 52.40575 | 11.25702 | 116° | 27km/h | 20481m | -14.9m/s | 0°C | 0% | 0hPa | 2.5V | 02:42:01 | 03:07:42 | 00:00:00 | |
| DB0DAN | 2026-09-03 01:05:25 | 52.40570 | 11.25721 | 116° | 24km/h | 20451m | -16.1m/s | -251.1°C | 0% | 54.38hPa | 2.6V | 00:00:00 | 00:00:00 | 00:00:00 | |
| AA1-15 | 2026-09-03 01:05:25 | 52.40570 | 11.25721 | 116° | 24km/h | 20451m | -16.1m/s | -251.1°C | 0% | 54.4hPa | 2.6V | 02:42:43 | 03:07:44 | 00:00:00 | |
| DD8BA-10 | 2026-09-03 01:05:25 | 52.40570 | 11.25721 | 116° | 27km/h | 20451m | -16.1m/s | 0°C | 0% | 54.3hPa | 2.5V | 00:00:00 | 00:00:00 | 00:00:00 | |
| DM0DOS-11 | 2026-09-03 01:05:24 | 52.40591 | 11.25662 | 123° | 31km/h | 20542m | -15.4m/s | 0°C | 0% | 0hPa | 2.5V | 02:42:05 | 03:07:38 | 00:00:00 | |
| DL1XH-west | 2026-09-03 01:05:22 | 52.40579 | 11.25691 | 119° | 24km/h | 20496m | -16.5m/s | -251.1°C | 0% | 54hPa | 2.5V | 02:42:43 | 03:07:41 | 00:00:00 | |
| HSKMA3-T | 2026-09-03 01:05:19 | 52.40591 | 11.25662 | 123° | 31km/h | 20542m | -15.5m/s | -251.2°C | 0% | 53.6hPa | 2.5V | 02:42:43 | 03:07:38 | 00:00:00 | |
| AA1-15 | 2026-09-03 01:05:15 | 52.40608 | 11.25627 | 128° | 26km/h | 20609m | -17.1m/s | -251.2°C | 0% | 53.1hPa | 2.6V | 02:42:43 | 03:07:34 | 00:00:00 | |
| DF8AY | 2026-09-03 01:05:14 | 52.40625 | 11.25599 | 136° | 13km/h | 20697m | -17.7m/s | -251.1°C | 0% | 52.4hPa | 2.6V | 02:42:43 | 03:07:29 | 00:00:00 | |
| DL1XH1-15 | 2026-09-03 01:05:14 | 52.40616 | 11.25614 | 134° | 22km/h | 20644m | -17m/s | 0°C | 0% | 0hPa | 2.5V | 02:42:11 | 03:07:32 | 00:00:00 | |
| DL1XH-west | 2026-09-03 01:05:12 | 52.40620 | 11.25608 | 132° | 20km/h | 20661m | -18.3m/s | -251.2°C | 0% | 52.7hPa | 2.5V | 02:42:43 | 03:07:31 | 00:00:00 | |
| DB0DAN | 2026-09-03 01:05:10 | 52.40625 | 11.25599 | 136° | 13km/h | 20697m | -17.7m/s | -251.1°C | 0% | 52.43hPa | 2.6V | 00:00:00 | 00:00:00 | 00:00:00 | |
| HSKMA3-T | 2026-09-03 01:05:09 | 52.40629 | 11.25593 | 121° | 9km/h | 20731m | -17.4m/s | -251.2°C | 0% | 52.1hPa | 2.6V | 02:42:43 | 03:07:27 | 00:00:00 | |
| AA1-15 | 2026-09-03 01:05:04 | 52.40631 | 11.25576 | 96° | 18km/h | 20796m | -17.1m/s | -251.1°C | 0% | 51.5hPa | 2.6V | 02:42:43 | 03:07:23 | 00:00:00 | |
| DM0DOS-11 | 2026-09-03 01:05:03 | 52.40644 | 11.25517 | 116° | 29km/h | 20895m | -16.2m/s | 0°C | 0% | 0hPa | 2.6V | 02:42:26 | 03:07:17 | 00:00:00 | |
| DL1XH-west | 2026-09-03 01:05:02 | 52.40635 | 11.25550 | 110° | 24km/h | 20847m | -17m/s | -251.2°C | 0% | 51.2hPa | 2.5V | 02:42:43 | 03:07:20 | 00:00:00 | |
| DL1NUX | 2026-09-03 01:05:01 | 52.40638 | 11.25539 | 111° | 29km/h | 20864m | -17.2m/s | 0°C | 0% | 0hPa | 2.5V | 02:42:24 | 03:07:19 | 00:00:00 | |
| HSKMA3-T | 2026-09-03 01:04:58 | 52.40644 | 11.25518 | 116° | 29km/h | 20896m | -16.2m/s | -251.1°C | 0% | 50.8hPa | 2.6V | 02:42:43 | 03:07:17 | 00:00:00 | |
| DL1XH1-15 | 2026-09-03 01:04:58 | 52.40659 | 11.25477 | 129° | 16km/h | 20983m | -18m/s | 0°C | 0% | 0hPa | 2.5V | 02:42:31 | 03:07:12 | 00:00:00 | |
| BUE01 | 2026-09-03 01:04:56 | 52.40650 | 11.25497 | 123° | 24km/h | 20930m | -19.6m/s | 0°C | -1.0% | 50.5hPa | 2.5V | 00:00:00 | 00:00:00 | 00:00:00 | |
| DB0DAN | 2026-09-03 01:04:55 | 52.40653 | 11.25490 | 124° | 20km/h | 20949m | -18.4m/s | -251.2°C | 0% | 50.36hPa | 2.5V | 00:00:00 | 00:00:00 | 00:00:00 | |
| AA1-15 | 2026-09-03 01:04:54 | 52.40656 | 11.25483 | 124° | 18km/h | 20966m | -17.8m/s | -251.2°C | 0% | 50.2hPa | 2.5V | 02:42:43 | 03:07:13 | 00:00:00 | |
| DF8AY | 2026-09-03 01:04:53 | 52.40659 | 11.25477 | 129° | 16km/h | 20983m | -18m/s | -251.2°C | 0% | 50.1hPa | 2.5V | 02:42:43 | 03:07:12 | 00:00:00 | |
| DL1XH-west | 2026-09-03 01:04:51 | 52.40664 | 11.25467 | 126° | 15km/h | 21018m | -17.3m/s | -251.2°C | 0% | 49.8hPa | 2.6V | 02:42:43 | 03:07:10 | 00:00:00 | |
| DL1XH-15 | 2026-09-03 01:04:51 | 52.40667 | 11.25462 | 144° | 15km/h | 21035m | -16.2m/s | 0°C | 0% | 0hPa | 2.5V | 02:42:34 | 03:07:09 | 00:00:00 | |
| DF8AY-15 | 2026-09-03 01:04:51 | 52.40664 | 11.25467 | 126° | 24km/h | 21018m | -17.2m/s | 0°C | 0% | 49.8hPa | 2.6V | 00:00:00 | 03:07:10 | 00:00:00 | |
| DO2SHX-10 | 2026-09-03 01:04:50 | 52.40667 | 11.25462 | 145° | 16km/h | 21035m | -16.1m/s | 0°C | 0% | 49.6hPa | 2.6V | 00:00:00 | 03:07:09 | 00:00:00 | |
| GOEST3-10 | 2026-09-03 01:04:49 | 52.40670 | 11.25458 | 131° | 22km/h | 21052m | -18.2m/s | 0°C | 0% | 49.5hPa | 2.6V | 00:00:00 | 00:00:00 | 00:00:00 | |
| DL1XH1-15 | 2026-09-03 01:04:48 | 52.40698 | 11.25418 | 148° | 31km/h | 21153m | -18.9m/s | 0°C | 0% | 0hPa | 2.6V | 02:42:41 | 03:07:02 | 00:00:00 | |
| HSKMA3-T | 2026-09-03 01:04:47 | 52.40677 | 11.25447 | 135° | 22km/h | 21086m | -17.9m/s | -251.2°C | 0% | 49.3hPa | 2.6V | 02:42:43 | 03:07:06 | 00:00:00 | |
| S3001 | 2026-09-03 01:04:47 | 52.40681 | 11.25440 | 135° | 24km/h | 21103m | -17.9m/s | 0°C | -1.0% | 49.2hPa | 2.5V | 00:00:00 | 00:00:00 | 00:00:00 | |
| EDDB2-11 | 2026-09-03 01:04:46 | 52.40681 | 11.25440 | 135° | 24km/h | 21103m | -17.9m/s | 0°C | -1.0% | 49.2hPa | 2.5V | 00:00:00 | 00:00:00 | 00:00:00 | |
| DL1NUX | 2026-09-03 01:04:45 | 52.40718 | 11.25398 | 154° | 29km/h | 21211m | -19.9m/s | 0°C | 0% | 0hPa | 2.5V | 02:42:44 | 03:06:59 | 00:00:00 | |
| AA1-15 | 2026-09-03 01:04:43 | 52.40698 | 11.25418 | 148° | 31km/h | 21154m | -18.9m/s | -251.2°C | 0% | 48.8hPa | 2.6V | 02:42:43 | 03:07:02 | 00:00:00 | |
| DL1XH-west | 2026-09-03 01:04:41 | 52.40712 | 11.25404 | 147° | 31km/h | 21192m | -18.8m/s | -251.2°C | 0% | 48.5hPa | 2.5V | 02:42:43 | 03:07:00 | 00:00:00 | |
| DB0DAN | 2026-09-03 01:04:40 | 52.40718 | 11.25398 | 154° | 27km/h | 21211m | -19.9m/s | -251.2°C | 0% | 48.38hPa | 2.5V | 00:00:00 | 00:00:00 | 00:00:00 | |
| DF7PN | 2026-09-03 01:04:40 | 52.40718 | 11.25398 | 154° | 27km/h | 21211m | -19.9m/s | 0°C | -1.0% | 48.4hPa | 2.6V | 00:00:00 | 00:00:00 | 00:00:00 | |
| GOEST3-10 | 2026-09-03 01:04:39 | 52.40725 | 11.25393 | 156° | 24km/h | 21231m | -19.1m/s | 0°C | 0% | 48.2hPa | 2.6V | 02:42:00 | 00:00:00 | 00:00:00 | |
| DL1XH1-15 | 2026-09-03 01:04:38 | 52.40757 | 11.25376 | 170° | 20km/h | 21339m | -17.2m/s | 0°C | 0% | 0hPa | 2.6V | 02:42:51 | 03:06:52 | 00:00:00 | |
| HSKMA3-T | 2026-09-03 01:04:36 | 52.40742 | 11.25382 | 161° | 20km/h | 21285m | -18.2m/s | -251.2°C | 0% | 47.8hPa | 2.5V | 02:43:34 | 03:06:55 | 00:00:00 | |
| HTAHTA | 2026-09-03 01:04:35 | 52.40752 | 11.25378 | 167° | 16km/h | 21322m | -18.3m/s | 0°C | -1.0% | 47.6hPa | 2.5V | 00:00:00 | 00:00:00 | 00:00:00 | |
| DL1XH-15 | 2026-09-03 01:04:34 | 52.40772 | 11.25371 | 170° | 22km/h | 21390m | -17.9m/s | 0°C | 0% | 0hPa | 2.5V | 02:42:54 | 03:06:49 | 00:00:00 | |
| DO3MHA-11 | 2026-09-03 01:04:34 | 52.40752 | 11.25378 | 168° | 20km/h | 21322m | -18.3m/s | 0°C | 0% | 47.5hPa | 2.5V | 00:00:00 | 03:06:53 | 00:00:00 | |
| DM0DOS-11 | 2026-09-03 01:04:32 | 52.40783 | 11.25367 | 167° | 22km/h | 21422m | -18.3m/s | 0°C | 0% | 0hPa | 2.5V | 02:42:56 | 03:06:47 | 00:00:00 | |
| AA1-15 | 2026-09-03 01:04:32 | 52.40762 | 11.25375 | 167° | 20km/h | 21356m | -17.1m/s | -251.2°C | 0% | 47.3hPa | 2.6V | 02:43:34 | 03:06:51 | 00:00:00 | |
| DL1XH-west | 2026-09-03 01:04:31 | 52.40766 | 11.25373 | 166° | 20km/h | 21372m | -17.5m/s | -251.2°C | 0% | 47.2hPa | 2.6V | 02:43:34 | 03:06:50 | 00:00:00 | |
| DF8AY-15 | 2026-09-03 01:04:31 | 52.40766 | 11.25373 | 167° | 13km/h | 21373m | -17.4m/s | 0°C | 0% | 47.1hPa | 2.5V | 00:00:00 | 03:06:50 | 00:00:00 | |
| EDDB2-12 | 2026-09-03 01:04:30 | 52.40778 | 11.25369 | 172° | 22km/h | 21406m | -16.3m/s | 0°C | -1.0% | 46.9hPa | 2.5V | 00:00:00 | 00:00:00 | 00:00:00 | |
| DO2SHX-10 | 2026-09-03 01:04:29 | 52.40778 | 11.25369 | 173° | 22km/h | 21407m | -16.2m/s | 0°C | 0% | 46.8hPa | 2.5V | 00:00:00 | 03:06:48 | 00:00:00 | |
| DL1XH1-15 | 2026-09-03 01:04:28 | 52.40807 | 11.25363 | 174° | 15km/h | 21513m | -16.4m/s | 0°C | 0% | 0hPa | 2.5V | 02:43:01 | 03:06:42 | 00:00:00 | |
| HSKMA3-T | 2026-09-03 01:04:25 | 52.40798 | 11.25364 | 174° | 18km/h | 21478m | -18.5m/s | -251.2°C | 0% | 46.4hPa | 2.6V | 02:43:34 | 03:06:44 | 00:00:00 | |
| DB0DAN | 2026-09-03 01:04:25 | 52.40798 | 11.25364 | 174° | 16km/h | 21478m | -18.5m/s | -251.2°C | 0% | 46.38hPa | 2.6V | 00:00:00 | 00:00:00 | 00:00:00 | |
| DF8AY | 2026-09-03 01:04:22 | 52.40810 | 11.25362 | 163° | 11km/h | 21530m | -18.9m/s | -251.2°C | 0% | 46hPa | 2.5V | 02:43:34 | 03:06:41 | 00:00:00 | |
| DM0DOS-11 | 2026-09-03 01:04:22 | 52.40816 | 11.25358 | 99° | 2km/h | 21602m | -19.9m/s | 0°C | 0% | 0hPa | 2.5V | 02:43:06 | 03:06:37 | 00:00:00 | |
| AA1-15 | 2026-09-03 01:04:21 | 52.40813 | 11.25361 | 163° | 7km/h | 21548m | -17.8m/s | -251.2°C | 0% | 45.9hPa | 2.6V | 02:43:34 | 03:06:40 | 00:00:00 | |
| DL1XH-west | 2026-09-03 01:04:20 | 52.40814 | 11.25360 | 173° | 7km/h | 21566m | -18.3m/s | -251.2°C | 0% | 45.8hPa | 2.6V | 02:43:34 | 03:06:39 | 00:00:00 | |
| DO2SHX-10 | 2026-09-03 01:04:20 | 52.40814 | 11.25360 | 173° | 4km/h | 21566m | -18.2m/s | 0°C | 0% | 45.7hPa | 2.6V | 00:00:00 | 03:06:39 | 00:00:00 | |
| SONCRA | 2026-09-03 01:04:19 | 52.40816 | 11.25358 | 99° | 2km/h | 21602m | -19.9m/s | 0°C | -1.0% | 45.5hPa | 2.6V | 00:00:00 | 00:00:00 | 00:00:00 | |
| DL1XH1-15 | 2026-09-03 01:04:18 | 52.40811 | 11.25348 | 72° | 11km/h | 21694m | -17.3m/s | 0°C | 0% | 0hPa | 2.6V | 02:43:11 | 03:06:32 | 00:00:00 | |
| HSKMA3-T | 2026-09-03 01:04:15 | 52.40813 | 11.25355 | 73° | 7km/h | 21657m | -17.9m/s | -251.2°C | 0% | 45.1hPa | 2.6V | 02:43:34 | 03:06:34 | 00:00:00 | |
| AA1-15 | 2026-09-03 01:04:11 | 52.40809 | 11.25338 | 69° | 15km/h | 21732m | -19.5m/s | -251.2°C | 0% | 44.7hPa | 2.5V | 02:43:34 | 03:06:30 | 00:00:00 | |
| DB0DAN | 2026-09-03 01:04:10 | 52.40808 | 11.25331 | 76° | 16km/h | 21750m | -18.5m/s | -251.2°C | 0% | 44.51hPa | 2.5V | 00:00:00 | 00:00:00 | 00:00:00 | |
| DL1XH-west | 2026-09-03 01:04:10 | 52.40808 | 11.25331 | 76° | 18km/h | 21750m | -18.5m/s | -251.2°C | 0% | 44.5hPa | 2.5V | 02:43:34 | 03:06:29 | 00:00:00 | |
| DM0DOS-11 | 2026-09-03 01:04:10 | 52.40805 | 11.25314 | 74° | 22km/h | 21786m | -19m/s | 0°C | 0% | 0hPa | 2.6V | 02:43:16 | 03:06:27 | 00:00:00 | |
| GOEST3-10 | 2026-09-03 01:04:09 | 52.40807 | 11.25323 | 76° | 24km/h | 21768m | -17.2m/s | 0°C | 0% | 44.3hPa | 2.6V | 02:43:00 | 00:00:00 | 00:00:00 | |
| DO2SHX-10 | 2026-09-03 01:04:08 | 52.40805 | 11.25314 | 75° | 24km/h | 21786m | -18.9m/s | 0°C | 0% | 44.2hPa | 2.6V | 02:43:00 | 03:06:27 | 00:00:00 | |
| DL1XH1-15 | 2026-09-03 01:04:07 | 52.40803 | 11.25263 | 95° | 24km/h | 21880m | -17.7m/s | 0°C | 0% | 0hPa | 2.6V | 02:43:21 | 03:06:22 | 00:00:00 | |
| DL1NUX | 2026-09-03 01:04:05 | 52.40811 | 11.25236 | 120° | 26km/h | 21933m | -18.5m/s | 0°C | 0% | 0hPa | 2.5V | 02:43:24 | 03:06:19 | 00:00:00 | |
| HSKMA3-T | 2026-09-03 01:04:04 | 52.40802 | 11.25274 | 94° | 24km/h | 21861m | -20m/s | -251.2°C | 0% | 43.7hPa | 2.5V | 02:43:34 | 03:06:23 | 00:00:00 | |
| DF8AY | 2026-09-03 01:04:01 | 52.40807 | 11.25245 | 114° | 24km/h | 21915m | -17.4m/s | -251.2°C | 0% | 43.4hPa | 2.5V | 02:43:34 | 03:06:20 | 00:00:00 | |
| AA1-15 | 2026-09-03 01:04:01 | 52.40811 | 11.25236 | 121° | 26km/h | 21933m | -18.5m/s | -251.2°C | 0% | 43.3hPa | 2.5V | 02:43:34 | 03:06:19 | 00:00:00 | |
| DL1XH-west | 2026-09-03 01:04:00 | 52.40814 | 11.25227 | 121° | 26km/h | 21951m | -19.4m/s | -251.2°C | 0% | 43.2hPa | 2.6V | 02:43:34 | 03:06:18 | 00:00:00 | |
| DM0DOS-11 | 2026-09-03 01:04:00 | 52.40818 | 11.25218 | 124° | 26km/h | 21970m | -19m/s | 0°C | 0% | 0hPa | 2.6V | 02:43:26 | 03:06:17 | 00:00:00 | |
| DO2SHX-10 | 2026-09-03 01:03:59 | 52.40814 | 11.25227 | 121° | 26km/h | 21952m | -19.3m/s | 0°C | 0% | 43.1hPa | 2.6V | 02:43:00 | 03:06:18 | 00:00:00 | |
| DB0NH | 2026-09-03 01:03:58 | 52.40818 | 11.25218 | 125° | 20km/h | 21970m | -19.0m/s | 0°C | 0% | 43.0hPa | 2.6V | 02:43:00 | 03:06:17 | 00:00:00 | |
| TFSTFS | 2026-09-03 01:03:57 | 52.40822 | 11.25209 | 134° | 26km/h | 21989m | -18.9m/s | 0°C | 0% | 42.9hPa | 2.5V | 02:43:00 | 00:00:00 | 00:00:00 | |
| DD8BA-10 | 2026-09-03 01:03:56 | 52.40830 | 11.25193 | 137° | 16km/h | 22025m | -17.8m/s | 0°C | 0% | 42.6hPa | 2.5V | 00:00:00 | 00:00:00 | 00:00:00 | |
| DL1XH1-15 | 2026-09-03 01:03:55 | 52.40838 | 11.25181 | 129° | 18km/h | 22060m | -16.9m/s | 0°C | 0% | 0hPa | 2.5V | 02:43:31 | 03:06:12 | 00:00:00 | |
| HSKMA3-T | 2026-09-03 01:03:55 | 52.40834 | 11.25187 | 137° | 22km/h | 22042m | -18.1m/s | -251.2°C | 0% | 42.5hPa | 2.6V | 02:43:34 | 03:06:13 | 00:00:00 | |
| BUE01 | 2026-09-03 01:03:55 | 52.40834 | 11.25187 | 136° | 20km/h | 22043m | -18.1m/s | 0°C | -1.0% | 42.5hPa | 2.6V | 00:00:00 | 00:00:00 | 00:00:00 | |
| GOEST3-10 | 2026-09-03 01:03:54 | 52.40834 | 11.25187 | 137° | 16km/h | 22043m | -18.1m/s | 0°C | 0% | 42.5hPa | 2.6V | 02:43:00 | 03:06:13 | 00:00:00 | |
| DL1XH-15 | 2026-09-03 01:03:53 | 52.40842 | 11.25162 | 85° | 13km/h | 22116m | -19.4m/s | 0°C | 0% | 0hPa | 2.6V | 02:43:34 | 03:06:09 | 00:00:00 | |
| DF8AY | 2026-09-03 01:03:50 | 52.40842 | 11.25162 | 86° | 13km/h | 22116m | -19.4m/s | -251.2°C | 0% | 42hPa | 2.6V | 02:43:34 | 03:06:09 | 00:00:00 | |
| AA1-15 | 2026-09-03 01:03:49 | 52.40842 | 11.25157 | 71° | 15km/h | 22134m | -17.7m/s | -251.2°C | 0% | 41.9hPa | 2.5V | 02:44:25 | 03:06:08 | 00:00:00 | |
| GOEST3-10 | 2026-09-03 01:03:49 | 52.40842 | 11.25157 | 71° | 15km/h | 22135m | -17.7m/s | 0°C | 0% | 41.9hPa | 2.6V | 00:00:00 | 00:00:00 | 00:00:00 | |
| DL1XH1-15 | 2026-09-03 01:03:48 | 52.40831 | 11.25120 | 78° | 16km/h | 22239m | -18.7m/s | 0°C | 0% | 0hPa | 2.6V | 02:43:41 | 03:06:02 | 00:00:00 | |
| EDDB2-11 | 2026-09-03 01:03:45 | 52.40833 | 11.25127 | 70° | 15km/h | 22221m | -16.8m/s | 0°C | -1.0% | 41.4hPa | 2.6V | 00:00:00 | 00:00:00 | 00:00:00 | |
| S3001 | 2026-09-03 01:03:44 | 52.40833 | 11.25127 | 70° | 15km/h | 22221m | -16.8m/s | 0°C | -1.0% | 41.4hPa | 2.6V | 00:00:00 | 00:00:00 | 00:00:00 | |
| HSKMA3-T | 2026-09-03 01:03:43 | 52.40831 | 11.25120 | 79° | 16km/h | 22239m | -18.7m/s | -251.2°C | 0% | 41.3hPa | 2.6V | 02:44:25 | 03:06:02 | 00:00:00 | |
| SONCRA | 2026-09-03 01:03:43 | 52.40831 | 11.25114 | 85° | 13km/h | 22256m | -17.2m/s | 0°C | -1.0% | 41.1hPa | 2.5V | 00:00:00 | 00:00:00 | 00:00:00 | |
| DL1XH-15 | 2026-09-03 01:03:41 | 52.40831 | 11.25102 | 97° | 13km/h | 22291m | -18m/s | 0°C | 0% | 0hPa | 2.5V | 02:43:44 | 03:05:59 | 00:00:00 | |
| DB0DAN | 2026-09-03 01:03:40 | 52.40831 | 11.25102 | 98° | 11km/h | 22291m | -18m/s | -251.2°C | 0% | 40.9hPa | 2.5V | 00:00:00 | 00:00:00 | 00:00:00 | |
| AA1-15 | 2026-09-03 01:03:39 | 52.40831 | 11.25096 | 87° | 18km/h | 22308m | -17.5m/s | -251.2°C | 0% | 40.8hPa | 2.6V | 02:44:25 | 03:05:58 | 00:00:00 | |
| DF8AY | 2026-09-03 01:03:38 | 52.40831 | 11.25088 | 94° | 20km/h | 22326m | -18.3m/s | -251.2°C | 0% | 40.6hPa | 2.6V | 02:44:25 | 03:05:57 | 00:00:00 | |
| DF7ER-10 | 2026-09-03 01:03:38 | 52.40831 | 11.25088 | 95° | 20km/h | 22326m | -18.3m/s | 0°C | 0% | 40.6hPa | 2.6V | 02:44:00 | 00:00:00 | 00:00:00 | |
| SP3WXH-11 | 2026-09-03 01:03:37 | 52.40832 | 11.25072 | 95° | 20km/h | 22362m | -16.9m/s | 0°C | -1.0% | 40.4hPa | 2.6V | 00:00:00 | 00:00:00 | 00:00:00 | |
| DL1NUX | 2026-09-03 01:03:35 | 52.40837 | 11.25001 | 100° | 24km/h | 22473m | -20.7m/s | 0°C | 0% | 0hPa | 2.6V | 02:43:54 | 03:05:49 | 00:00:00 | |
| HSKMA3-T | 2026-09-03 01:03:32 | 52.40836 | 11.25026 | 96° | 31km/h | 22434m | -18.6m/s | -251.2°C | 0% | 40hPa | 2.5V | 02:44:25 | 03:05:51 | 00:00:00 | |
| DO2SHX-10 | 2026-09-03 01:03:32 | 52.40836 | 11.25025 | 97° | 27km/h | 22434m | -18.6m/s | 0°C | 0% | 39.9hPa | 2.5V | 02:43:00 | 03:05:51 | 00:00:00 | |
| DF8AY-15 | 2026-09-03 01:03:31 | 52.40836 | 11.25013 | 100° | 27km/h | 22453m | -20.6m/s | 0°C | 0% | 39.8hPa | 2.5V | 00:00:00 | 03:05:50 | 00:00:00 | |
| DM0DOS-11 | 2026-09-03 01:03:30 | 52.40841 | 11.24981 | 107° | 26km/h | 22512m | -20.4m/s | 0°C | 0% | 0hPa | 2.5V | 02:43:56 | 03:05:47 | 00:00:00 | |
| AA1-15 | 2026-09-03 01:03:28 | 52.40841 | 11.24981 | 108° | 26km/h | 22512m | -20.4m/s | -251.2°C | 0% | 39.5hPa | 2.5V | 02:44:25 | 03:05:47 | 00:00:00 | |
| DF7ER-10 | 2026-09-03 01:03:28 | 52.40841 | 11.24981 | 109° | 26km/h | 22512m | -20.4m/s | 0°C | 0% | 39.5hPa | 2.6V | 02:44:00 | 00:00:00 | 00:00:00 | |
| DO3MHA-11 | 2026-09-03 01:03:27 | 52.40843 | 11.24971 | 119° | 27km/h | 22531m | -20.1m/s | 0°C | 0% | 39.4hPa | 2.6V | 02:43:00 | 03:05:46 | 00:00:00 | |
| DB0DAN | 2026-09-03 01:03:25 | 52.40850 | 11.24952 | 128° | 24km/h | 22566m | -18.1m/s | -251.2°C | 0% | 39.17hPa | 2.5V | 00:00:00 | 00:00:00 | 00:00:00 | |
| DM0DOS-11 | 2026-09-03 01:03:25 | 52.40894 | 11.24906 | 156° | 35km/h | 22695m | -18.9m/s | 0°C | 0% | 0hPa | 2.6V | 02:44:06 | 03:05:37 | 00:00:00 | |
| DD8BA-10 | 2026-09-03 01:03:24 | 52.40855 | 11.24945 | 136° | 29km/h | 22584m | -18.3m/s | 0°C | 0% | 39.0hPa | 2.5V | 00:00:00 | 00:00:00 | 00:00:00 | |
| DL1XH-15 | 2026-09-03 01:03:23 | 52.40879 | 11.24917 | 151° | 31km/h | 22658m | -18.9m/s | 0°C | 0% | 0hPa | 2.5V | 02:44:04 | 03:05:39 | 00:00:00 | |
| HSKMA3-T | 2026-09-03 01:03:22 | 52.40865 | 11.24930 | 144° | 29km/h | 22620m | -18.9m/s | -251.2°C | 0% | 38.8hPa | 2.6V | 02:44:25 | 03:05:41 | 00:00:00 | |
| DF8AY | 2026-09-03 01:03:18 | 52.40894 | 11.24906 | 156° | 35km/h | 22695m | -18.9m/s | -251.2°C | 0% | 38.4hPa | 2.6V | 02:44:25 | 03:05:37 | 00:00:00 | |
| DL1XH1-15 | 2026-09-03 01:03:18 | 52.40928 | 11.24886 | 173° | 22km/h | 22784m | -19.6m/s | 0°C | 0% | 0hPa | 2.5V | 02:44:11 | 03:05:32 | 00:00:00 | |
| AA1-15 | 2026-09-03 01:03:17 | 52.40901 | 11.24900 | 151° | 31km/h | 22712m | -17.2m/s | -251.2°C | 0% | 38.3hPa | 2.5V | 02:44:25 | 03:05:36 | 00:00:00 | |
| DO2SHX-10 | 2026-09-03 01:03:17 | 52.40901 | 11.24900 | 152° | 29km/h | 22713m | -17.1m/s | 0°C | 0% | 38.2hPa | 2.6V | 00:00:00 | 03:05:36 | 00:00:00 | |
| MECKS9 | 2026-09-03 01:03:16 | 52.40901 | 11.24900 | 152° | 31km/h | 22713m | -17.2m/s | 0°C | 0% | 38.3hPa | 2.6V | 00:00:00 | 00:00:00 | 00:00:00 | |
| AM1SDL-15 | 2026-09-03 01:03:15 | 52.40915 | 11.24890 | 164° | 18km/h | 22747m | -18.7m/s | 0°C | 0% | 38.0hPa | 2.6V | 02:44:00 | 03:05:34 | 00:00:00 | |
| DD8BA-10 | 2026-09-03 01:03:14 | 52.40921 | 11.24887 | 168° | 20km/h | 22766m | -18.6m/s | 0°C | 0% | 38.0hPa | 2.6V | 02:44:00 | 00:00:00 | 00:00:00 | |
| EDDB2-11 | 2026-09-03 01:03:13 | 52.40928 | 11.24886 | 173° | 22km/h | 22785m | -19.6m/s | 0°C | -1.0% | 37.9hPa | 2.5V | 00:00:00 | 00:00:00 | 00:00:00 | |
| DM0DOS-11 | 2026-09-03 01:03:11 | 52.40953 | 11.24897 | 209° | 15km/h | 22872m | -16.8m/s | 0°C | 0% | 0hPa | 2.5V | 02:44:16 | 03:05:27 | 00:00:00 | |
| HSKMA3-T | 2026-09-03 01:03:11 | 52.40939 | 11.24887 | 184° | 22km/h | 22822m | -17.5m/s | -251.2°C | 0% | 37.7hPa | 2.6V | 02:44:25 | 03:05:30 | 00:00:00 | |
| DL1NUX | 2026-09-03 01:03:11 | 52.40944 | 11.24888 | 202° | 22km/h | 22838m | -16.8m/s | 0°C | 0% | 0hPa | 2.6V | 02:44:14 | 03:05:29 | 00:00:00 | |
| DB0DAN | 2026-09-03 01:03:10 | 52.40944 | 11.24888 | 203° | 20km/h | 22838m | -16.8m/s | -251.2°C | 0% | 37.57hPa | 2.6V | 00:00:00 | 00:00:00 | 00:00:00 | |
| AA1-15 | 2026-09-03 01:03:07 | 52.40956 | 11.24900 | 220° | 15km/h | 22889m | -17.7m/s | -251.2°C | 0% | 37.3hPa | 2.6V | 02:44:25 | 03:05:26 | 00:00:00 | |
| SMARD9-15 | 2026-09-03 01:03:07 | 52.40959 | 11.24904 | 218° | 15km/h | 22906m | -17.8m/s | 0°C | -1.0% | 37.1hPa | 2.6V | 00:00:00 | 00:00:00 | 00:00:00 | |
| DL1XH1-15 | 2026-09-03 01:03:06 | 52.40964 | 11.24912 | 234° | 4km/h | 22962m | -19.9m/s | 0°C | 0% | 0hPa | 2.6V | 02:44:21 | 03:05:22 | 00:00:00 | |
| DL1NUX | 2026-09-03 01:03:05 | 52.40965 | 11.24913 | 355° | 4km/h | 23018m | -18.4m/s | 0°C | 0% | 0hPa | 2.5V | 02:44:24 | 03:05:19 | 00:00:00 | |
| HSKMA3-T | 2026-09-03 01:03:00 | 52.40965 | 11.24913 | 356° | 4km/h | 23018m | -18.4m/s | -251.2°C | 0% | 36.5hPa | 2.5V | 02:44:25 | 03:05:19 | 00:00:00 | |
| DM0DOS-11 | 2026-09-03 01:02:59 | 52.40962 | 11.24912 | 347° | 4km/h | 23056m | -21.4m/s | 0°C | 0% | 0hPa | 2.6V | 02:44:26 | 03:05:17 | 00:00:00 | |
| DL1XH-west | 2026-09-03 01:02:56 | 52.40961 | 11.24912 | 357° | 2km/h | 23095m | -20.9m/s | -251.2°C | 0% | 36.1hPa | 2.5V | 02:45:16 | 03:05:15 | 00:00:00 | |
| DB0DAN | 2026-09-03 01:02:55 | 52.40961 | 11.24911 | 224° | 0km/h | 23115m | -20m/s | -251.2°C | 0% | 35.99hPa | 2.6V | 00:00:00 | 00:00:00 | 00:00:00 | |
| DL1XH1-15 | 2026-09-03 01:02:54 | 52.40963 | 11.24911 | 173° | 5km/h | 23152m | -19.5m/s | 0°C | 0% | 0hPa | 2.5V | 02:44:31 | 03:05:12 | 00:00:00 | |
| NBG1-10 | 2026-09-03 01:02:54 | 52.40963 | 11.24911 | 174° | 7km/h | 23152m | -19.4m/s | 0°C | 0% | 35.7hPa | 2.5V | 02:44:00 | 03:05:12 | 00:00:00 | |
| DO2SHX-10 | 2026-09-03 01:02:53 | 52.40963 | 11.24911 | 174° | 7km/h | 23152m | -19.4m/s | 0°C | 0% | 35.7hPa | 2.5V | 00:00:00 | 03:05:12 | 00:00:00 | |
| DO3MHA-11 | 2026-09-03 01:02:52 | 52.40965 | 11.24911 | 167° | 7km/h | 23172m | -19.9m/s | 0°C | 0% | 35.6hPa | 2.5V | 02:44:00 | 03:05:11 | 00:00:00 | |
| TFSTFS | 2026-09-03 01:02:51 | 52.40967 | 11.24909 | 157° | 9km/h | 23190m | -16.7m/s | 0°C | 0% | 35.6hPa | 2.5V | 02:45:00 | 00:00:00 | 00:00:00 | |
| DO2SHX-10 | 2026-09-03 01:02:50 | 52.40970 | 11.24908 | 152° | 9km/h | 23207m | -19.1m/s | 0°C | 0% | 35.4hPa | 2.5V | 00:00:00 | 03:05:09 | 00:00:00 | |
| DM0DOS-11 | 2026-09-03 01:02:49 | 52.40974 | 11.24903 | 134° | 9km/h | 23247m | -21.7m/s | 0°C | 0% | 0hPa | 2.5V | 02:44:36 | 03:05:07 | 00:00:00 | |
| HSKMA3-T | 2026-09-03 01:02:49 | 52.40972 | 11.24906 | 146° | 9km/h | 23226m | -20.9m/s | -251.2°C | 0% | 35.4hPa | 2.5V | 02:45:16 | 03:05:08 | 00:00:00 | |
| DL1XH1-15 | 2026-09-03 01:02:48 | 52.40981 | 11.24897 | 203° | 5km/h | 23340m | -15.7m/s | 0°C | 0% | 0hPa | 2.6V | 02:44:41 | 03:05:02 | 00:00:00 | |
| DF8AY | 2026-09-03 01:02:45 | 52.40978 | 11.24897 | 177° | 7km/h | 23307m | -17.2m/s | -251.2°C | 0% | 34.9hPa | 2.5V | 02:45:16 | 03:05:04 | 00:00:00 | |
| DO2SHX-10 | 2026-09-03 01:02:44 | 52.40980 | 11.24897 | 173° | 5km/h | 23324m | -17.7m/s | 0°C | 0% | 34.8hPa | 2.5V | 00:00:00 | 03:05:03 | 00:00:00 | |
| DM0DOS-11 | 2026-09-03 01:02:43 | 52.40992 | 11.24910 | 223° | 13km/h | 23437m | -20.5m/s | 0°C | 0% | 0hPa | 2.5V | 02:44:46 | 03:04:57 | 00:00:00 | |
| DO3MHA-11 | 2026-09-03 01:02:42 | 52.40982 | 11.24898 | 203° | 9km/h | 23357m | -17.7m/s | 0°C | 0% | 34.6hPa | 2.5V | 00:00:00 | 03:05:01 | 00:00:00 | |
| DB0DAN | 2026-09-03 01:02:40 | 52.40987 | 11.24904 | 218° | 11km/h | 23396m | -21.9m/s | -251.2°C | 0% | 34.43hPa | 2.5V | 00:00:00 | 00:00:00 | 00:00:00 | |
| HSKMA3-T | 2026-09-03 01:02:39 | 52.40989 | 11.24906 | 219° | 13km/h | 23416m | -22.2m/s | -251.2°C | 0% | 34.4hPa | 2.5V | 02:45:16 | 03:04:58 | 00:00:00 | |
| AA1-15 | 2026-09-03 01:02:36 | 52.40997 | 11.24918 | 231° | 7km/h | 23497m | -21.4m/s | -251.2°C | 0% | 33.9hPa | 2.6V | 02:45:16 | 03:04:54 | 00:00:00 | |
| DL1XH-west | 2026-09-03 01:02:34 | 52.40998 | 11.24920 | 280° | 5km/h | 23517m | -21.5m/s | -251.2°C | 0% | 33.8hPa | 2.5V | 02:45:16 | 03:04:53 | 00:00:00 | |
| DF8AY | 2026-09-03 01:02:33 | 52.40997 | 11.24923 | 288° | 7km/h | 23538m | -21.8m/s | -251.2°C | 0% | 33.7hPa | 2.5V | 02:45:16 | 03:04:52 | 00:00:00 | |
| HSKMA3-T | 2026-09-03 01:02:28 | 52.40991 | 11.24930 | 0° | 5km/h | 23637m | -21.2m/s | -251.2°C | 0% | 33.2hPa | 2.5V | 02:45:16 | 03:04:47 | 00:00:00 | |
| SO1NDE-10 | 2026-09-03 01:02:28 | 52.40991 | 11.24930 | 1° | 9km/h | 23638m | -21.2m/s | 0°C | 0% | 33.2hPa | 2.6V | 00:00:00 | 03:04:47 | 00:00:00 | |
| AM1SDL-15 | 2026-09-03 01:02:27 | 52.40990 | 11.24930 | 19° | 7km/h | 23658m | -21.5m/s | 0°C | 0% | 33.0hPa | 2.6V | 00:00:00 | 03:04:46 | 00:00:00 | |
| DB0DAN | 2026-09-03 01:02:25 | 52.40987 | 11.24926 | 67° | 7km/h | 23697m | -19.2m/s | -251.2°C | 0% | 32.91hPa | 2.6V | 00:00:00 | 00:00:00 | 00:00:00 | |
| DL1XH-west | 2026-09-03 01:02:25 | 52.40987 | 11.24923 | 63° | 9km/h | 23716m | -20m/s | -251.2°C | 0% | 32.8hPa | 2.6V | 02:45:16 | 03:04:43 | 00:00:00 | |
| DF8AY | 2026-09-03 01:02:23 | 52.40986 | 11.24920 | 66° | 5km/h | 23735m | -19.2m/s | -251.2°C | 0% | 32.7hPa | 2.6V | 02:45:16 | 03:04:42 | 00:00:00 | |
| DL1XH-15 | 2026-09-03 01:02:23 | 52.40984 | 11.24910 | 70° | 9km/h | 23794m | -21.1m/s | 0°C | 0% | 0hPa | 2.5V | 02:45:04 | 03:04:39 | 00:00:00 | |
| HSKMA3-T | 2026-09-03 01:02:17 | 52.40985 | 11.24901 | 120° | 7km/h | 23855m | -20.1m/s | -251.2°C | 0% | 32.1hPa | 2.6V | 02:45:16 | 03:04:36 | 00:00:00 | |
| DL1XH-west | 2026-09-03 01:02:14 | 52.40990 | 11.24892 | 150° | 11km/h | 23912m | -20.1m/s | -251.2°C | 0% | 31.8hPa | 2.5V | 02:45:16 | 03:04:33 | 00:00:00 | |
| AA1-15 | 2026-09-03 01:02:13 | 52.40992 | 11.24890 | 169° | 9km/h | 23930m | -18.7m/s | -251.2°C | 0% | 31.7hPa | 2.6V | 02:45:16 | 03:04:32 | 00:00:00 | |
| DF8AY | 2026-09-03 01:02:12 | 52.40994 | 11.24889 | 153° | 7km/h | 23949m | -20m/s | -251.2°C | 0% | 31.6hPa | 2.6V | 02:45:16 | 03:04:31 | 00:00:00 | |
| DL1XH-15 | 2026-09-03 01:02:12 | 52.40997 | 11.24888 | 245° | 4km/h | 23988m | -20.2m/s | 0°C | 0% | 0hPa | 2.5V | 02:45:14 | 03:04:29 | 00:00:00 | |
| DB0DAN | 2026-09-03 01:02:10 | 52.40997 | 11.24888 | 245° | 4km/h | 23988m | -20.2m/s | -251.2°C | 0% | 31.44hPa | 2.5V | 00:00:00 | 00:00:00 | 00:00:00 | |
| HSKMA3-T | 2026-09-03 01:02:07 | 52.40995 | 11.24897 | 313° | 13km/h | 24055m | -19.9m/s | -251.2°C | 0% | 31.1hPa | 2.6V | 02:46:07 | 03:04:26 | 00:00:00 | |
| SP3BTT-10 | 2026-09-03 01:02:07 | 52.40995 | 11.24897 | 314° | 11km/h | 24055m | -19.9m/s | 0°C | 0% | 31.0hPa | 2.6V | 02:45:00 | 00:00:00 | 00:00:00 | |
| DL1XH1-15 | 2026-09-03 01:02:06 | 52.40984 | 11.24906 | 349° | 13km/h | 24139m | -23.6m/s | 0°C | 0% | 0hPa | 2.5V | 02:45:21 | 03:04:22 | 00:00:00 | |
| MECKS9 | 2026-09-03 01:02:06 | 52.40993 | 11.24900 | 325° | 13km/h | 24075m | -20.3m/s | 0°C | 0% | 31.0hPa | 2.6V | 02:46:00 | 00:00:00 | 00:00:00 | |
| DL1NUX | 2026-09-03 01:02:05 | 52.40974 | 11.24904 | 30° | 15km/h | 24204m | -20.6m/s | 0°C | 0% | 0hPa | 2.6V | 02:45:24 | 03:04:19 | 00:00:00 | |
| DL1XH-west | 2026-09-03 01:02:03 | 52.40984 | 11.24906 | 350° | 13km/h | 24139m | -23.6m/s | -251.2°C | 0% | 30.7hPa | 2.5V | 02:46:07 | 03:04:22 | 00:00:00 | |
| DF8AY | 2026-09-03 01:02:02 | 52.40981 | 11.24907 | 0° | 13km/h | 24162m | -22.3m/s | -251.2°C | 0% | 30.6hPa | 2.5V | 02:46:07 | 03:04:21 | 00:00:00 | |
| HSKMA3-T | 2026-09-03 01:01:57 | 52.40966 | 11.24891 | 52° | 16km/h | 24268m | -21.9m/s | -251.2°C | 0% | 30.1hPa | 2.5V | 02:46:07 | 03:04:16 | 00:00:00 | |
| GOEST3-10 | 2026-09-03 01:01:57 | 52.40966 | 11.24891 | 53° | 13km/h | 24269m | -21.9m/s | 0°C | 0% | 30.1hPa | 2.6V | 00:00:00 | 03:04:16 | 00:00:00 | |
| DL1CLM-18 | 2026-09-03 01:01:56 | 52.40966 | 11.24891 | 53° | 16km/h | 24269m | -21.9m/s | 0°C | 0% | 30.1hPa | 2.6V | 00:00:00 | 00:00:00 | 00:00:00 | |
| DB0DAN | 2026-09-03 01:01:55 | 52.40963 | 11.24881 | 75° | 15km/h | 24310m | -21.2m/s | -251.2°C | 0% | 29.88hPa | 2.6V | 00:00:00 | 00:00:00 | 00:00:00 | |
| DL1XH1-15 | 2026-09-03 01:01:54 | 52.40963 | 11.24872 | 108° | 9km/h | 24354m | -22.3m/s | 0°C | 0% | 0hPa | 2.5V | 02:45:31 | 03:04:12 | 00:00:00 | |
| DL1XH-15 | 2026-09-03 01:01:53 | 52.40968 | 11.24859 | 123° | 15km/h | 24419m | -20.9m/s | 0°C | 0% | 0hPa | 2.5V | 02:45:34 | 03:04:09 | 00:00:00 | |
| DF8AY | 2026-09-03 01:01:52 | 52.40964 | 11.24868 | 122° | 13km/h | 24377m | -22.3m/s | -251.2°C | 0% | 29.6hPa | 2.6V | 02:46:07 | 03:04:11 | 00:00:00 | |
| DJ2DS-15 | 2026-09-03 01:01:52 | 52.40966 | 11.24864 | 126° | 13km/h | 24399m | -21.2m/s | 0°C | -1.0% | 29.5hPa | 2.6V | 00:00:00 | 00:00:00 | 00:00:00 | |
| DF7ER-10 | 2026-09-03 01:01:51 | 52.40966 | 11.24864 | 127° | 13km/h | 24399m | -21.2m/s | 0°C | 0% | 29.5hPa | 2.6V | 02:46:00 | 00:00:00 | 00:00:00 | |
| DO2SHX-10 | 2026-09-03 01:01:50 | 52.40968 | 11.24858 | 124° | 16km/h | 24420m | -20.9m/s | 0°C | 0% | 29.4hPa | 2.6V | 00:00:00 | 03:04:09 | 00:00:00 | |
| DL1XH1-15 | 2026-09-03 01:01:48 | 52.40983 | 11.24812 | 89° | 11km/h | 24584m | -24.1m/s | 0°C | 0% | 0hPa | 2.6V | 02:45:42 | 03:04:01 | 00:00:00 | |
| HSKMA3-T | 2026-09-03 01:01:46 | 52.40978 | 11.24834 | 121° | 16km/h | 24498m | -17.9m/s | -251.2°C | 0% | 29hPa | 2.6V | 02:46:07 | 03:04:05 | 00:00:00 | |
| DL1XH-west | 2026-09-03 01:01:42 | 52.40983 | 11.24812 | 89° | 11km/h | 24584m | -24.1m/s | -251.2°C | 0% | 28.6hPa | 2.6V | 02:46:07 | 03:04:01 | 00:00:00 | |
| DF8AY | 2026-09-03 01:01:42 | 52.40980 | 11.24780 | 84° | 15km/h | 24712m | -21.8m/s | -251.2°C | 0% | 28.1hPa | 2.6V | 02:46:07 | 03:03:55 | 00:00:00 | |
| DB0DAN | 2026-09-03 01:01:40 | 52.40982 | 11.24804 | 77° | 13km/h | 24627m | -18.5m/s | -251.2°C | 0% | 28.42hPa | 2.6V | 00:00:00 | 00:00:00 | 00:00:00 | |
| DF7ER-10 | 2026-09-03 01:01:40 | 52.40982 | 11.24804 | 78° | 13km/h | 24627m | -18.5m/s | 0°C | 0% | 28.4hPa | 2.5V | 02:46:00 | 00:00:00 | 00:00:00 | |
| DM0DOS-11 | 2026-09-03 01:01:39 | 52.40982 | 11.24794 | 78° | 15km/h | 24667m | -20.6m/s | 0°C | 0% | 0hPa | 2.5V | 02:45:46 | 03:03:57 | 00:00:00 | |
| DO2SHX-10 | 2026-09-03 01:01:38 | 52.40982 | 11.24793 | 79° | 16km/h | 24667m | -20.5m/s | 0°C | 0% | 28.2hPa | 2.5V | 00:00:00 | 03:03:57 | 00:00:00 | |
| GOEST3-10 | 2026-09-03 01:01:37 | 52.40981 | 11.24787 | 80° | 16km/h | 24689m | -24.3m/s | 0°C | 0% | 28.2hPa | 2.5V | 00:00:00 | 03:03:56 | 00:00:00 | |
| DL1XH1-15 | 2026-09-03 01:01:36 | 52.40980 | 11.24760 | 82° | 16km/h | 24774m | -23.2m/s | 0°C | 0% | 0hPa | 2.5V | 02:45:51 | 03:03:52 | 00:00:00 | |
| HSKMA3-T | 2026-09-03 01:01:35 | 52.40980 | 11.24773 | 88° | 18km/h | 24732m | -21.3m/s | -251.2°C | 0% | 28hPa | 2.6V | 02:46:07 | 03:03:54 | 00:00:00 | |
| DO2SHX-10 | 2026-09-03 01:01:35 | 52.40980 | 11.24773 | 89° | 18km/h | 24733m | -21.3m/s | 0°C | 0% | 27.9hPa | 2.6V | 02:45:00 | 03:03:54 | 00:00:00 | |
| DM0DOS-11 | 2026-09-03 01:01:33 | 52.40987 | 11.24729 | 145° | 15km/h | 24896m | -19.8m/s | 0°C | 0% | 0hPa | 2.5V | 02:45:57 | 03:03:46 | 00:00:00 | |
| DL1XH-west | 2026-09-03 01:01:32 | 52.40979 | 11.24753 | 80° | 16km/h | 24796m | -20.9m/s | -251.2°C | 0% | 27.8hPa | 2.5V | 02:46:07 | 03:03:51 | 00:00:00 | |
| DF8AY | 2026-09-03 01:01:31 | 52.40979 | 11.24747 | 94° | 13km/h | 24816m | -19.2m/s | -251.2°C | 0% | 27.6hPa | 2.5V | 02:46:07 | 03:03:50 | 00:00:00 | |
| DO3MHA-11 | 2026-09-03 01:01:31 | 52.40979 | 11.24747 | 94° | 15km/h | 24816m | -19.2m/s | 0°C | 0% | 27.6hPa | 2.6V | 00:00:00 | 03:03:50 | 00:00:00 | |
| DF7ER-10 | 2026-09-03 01:01:30 | 52.40980 | 11.24742 | 104° | 13km/h | 24835m | -19.9m/s | 0°C | 0% | 27.6hPa | 2.6V | 02:46:00 | 00:00:00 | 00:00:00 | |
| DO2SHX-10 | 2026-09-03 01:01:29 | 52.40981 | 11.24737 | 123° | 15km/h | 24855m | -19.8m/s | 0°C | 0% | 27.4hPa | 2.6V | 00:00:00 | 03:03:48 | 00:00:00 | |
| SO1NDE-10 | 2026-09-03 01:01:28 | 52.40984 | 11.24733 | 138° | 15km/h | 24876m | -21.4m/s | 0°C | 0% | 27.4hPa | 2.6V | 00:00:00 | 03:03:47 | 00:00:00 | |
| GOEST3-10 | 2026-09-03 01:01:27 | 52.40987 | 11.24729 | 146° | 15km/h | 24896m | -19.8m/s | 0°C | 0% | 27.2hPa | 2.6V | 00:00:00 | 03:03:46 | 00:00:00 | |
| DB0DAN | 2026-09-03 01:01:25 | 52.40994 | 11.24722 | 163° | 13km/h | 24935m | -21.3m/s | -251.2°C | 0% | 27.07hPa | 2.6V | 00:00:00 | 00:00:00 | 00:00:00 | |
| DL1XH1-15 | 2026-09-03 01:01:25 | 52.41002 | 11.24717 | 148° | 16km/h | 24975m | -18.9m/s | 0°C | 0% | 0hPa | 2.5V | 02:46:01 | 03:03:42 | 00:00:00 | |
| HSKMA3-T | 2026-09-03 01:01:24 | 52.40998 | 11.24720 | 156° | 16km/h | 24956m | -20.8m/s | -251.2°C | 0% | 27hPa | 2.6V | 02:46:07 | 03:03:43 | 00:00:00 | |
| DO2SHX-10 | 2026-09-03 01:01:23 | 52.41001 | 11.24717 | 149° | 13km/h | 24976m | -18.9m/s | 0°C | 0% | 26.9hPa | 2.5V | 00:00:00 | 03:03:42 | 00:00:00 | |
| DM0DOS-11 | 2026-09-03 01:01:22 | 52.41013 | 11.24706 | 110° | 2km/h | 25074m | -21.3m/s | 0°C | 0% | 0hPa | 2.5V | 02:46:06 | 03:03:37 | 00:00:00 | |
| DL1XH-west | 2026-09-03 01:01:21 | 52.41008 | 11.24711 | 151° | 11km/h | 25013m | -20.6m/s | -251.2°C | 0% | 26.8hPa | 2.6V | 02:46:07 | 03:03:40 | 00:00:00 | |
| DF8AY | 2026-09-03 01:01:20 | 52.41010 | 11.24709 | 158° | 7km/h | 25033m | -21.9m/s | -251.2°C | 0% | 26.8hPa | 2.6V | 02:46:07 | 03:03:39 | 00:00:00 | |
| DO2SHX-10 | 2026-09-03 01:01:20 | 52.41010 | 11.24709 | 158° | 5km/h | 25034m | -21.8m/s | 0°C | 0% | 26.7hPa | 2.6V | 00:00:00 | 03:03:39 | 00:00:00 | |
| BUE01 | 2026-09-03 01:01:19 | 52.41012 | 11.24708 | 141° | 5km/h | 25054m | -20.8m/s | 0°C | -1.0% | 26.6hPa | 2.6V | 00:00:00 | 00:00:00 | 00:00:00 | |
| DL1XH1-15 | 2026-09-03 01:01:18 | 52.41009 | 11.24706 | 337° | 5km/h | 25182m | -19.4m/s | 0°C | 0% | 0hPa | 2.6V | 02:46:11 | 03:03:32 | 00:00:00 | |
| HSKMA3-T | 2026-09-03 01:01:14 | 52.41010 | 11.24706 | 8° | 5km/h | 25162m | -20.5m/s | -251.2°C | 0% | 26.2hPa | 2.6V | 02:46:58 | 03:03:33 | 00:00:00 | |
| DL1XH-west | 2026-09-03 01:01:11 | 52.41007 | 11.24706 | 325° | 5km/h | 25225m | -22m/s | -251.2°C | 0% | 26hPa | 2.5V | 02:46:58 | 03:03:30 | 00:00:00 | |
| DL1XH-15 | 2026-09-03 01:01:11 | 52.41006 | 11.24706 | 15° | 5km/h | 25245m | -20m/s | 0°C | 0% | 0hPa | 2.5V | 02:46:14 | 03:03:29 | 00:00:00 | |
| DB0DAN | 2026-09-03 01:01:10 | 52.41006 | 11.24706 | 16° | 5km/h | 25245m | -20m/s | -251.2°C | 0% | 25.81hPa | 2.5V | 00:00:00 | 00:00:00 | 00:00:00 | |
| DF8AY | 2026-09-03 01:01:10 | 52.41006 | 11.24706 | 16° | 5km/h | 25245m | -20m/s | -251.2°C | 0% | 25.8hPa | 2.5V | 02:46:58 | 03:03:29 | 00:00:00 | |
| DL4XJ-10 | 2026-09-03 01:01:10 | 52.41006 | 11.24706 | 16° | 20km/h | 25245m | -20.0m/s | 0°C | 0% | 0hPa | 2.6V | 00:00:00 | 00:00:00 | 00:00:00 | |
| DM0DOS-11 | 2026-09-03 01:01:09 | 52.41003 | 11.24701 | 58° | 18km/h | 25287m | -22.7m/s | 0°C | 0% | 0hPa | 2.6V | 02:46:16 | 03:03:27 | 00:00:00 | |
| EDDB2-11 | 2026-09-03 01:01:09 | 52.41005 | 11.24705 | 38° | 9km/h | 25265m | -21.1m/s | 0°C | -1.0% | 25.8hPa | 2.6V | 00:00:00 | 00:00:00 | 00:00:00 | |
| DO2SHX-10 | 2026-09-03 01:01:08 | 52.41003 | 11.24701 | 59° | 20km/h | 25287m | -22.6m/s | 0°C | 0% | 25.7hPa | 2.6V | 02:46:00 | 03:03:27 | 00:00:00 | |
| GOEST3-10 | 2026-09-03 01:01:07 | 52.41001 | 11.24695 | 66° | 26km/h | 25310m | -23.0m/s | 0°C | 0% | 25.5hPa | 2.6V | 00:00:00 | 03:03:26 | 00:00:00 | |
| DL1XH1-15 | 2026-09-03 01:01:06 | 52.40990 | 11.24658 | 66° | 31km/h | 25400m | -19.5m/s | 0°C | 0% | 0hPa | 2.6V | 02:46:21 | 03:03:22 | 00:00:00 | |
| MECKS9 | 2026-09-03 01:01:06 | 52.40998 | 11.24686 | 66° | 24km/h | 25333m | -23.2m/s | 0°C | 0% | 25.5hPa | 2.5V | 00:00:00 | 00:00:00 | 00:00:00 | |
| DL1NUX | 2026-09-03 01:01:05 | 52.40983 | 11.24627 | 70° | 18km/h | 25461m | -22.8m/s | 0°C | 0% | 0hPa | 2.5V | 02:46:24 | 03:03:19 | 00:00:00 | |
| HSKMA3-T | 2026-09-03 01:01:04 | 52.40993 | 11.24668 | 64° | 29km/h | 25379m | -21.7m/s | -251.2°C | 0% | 25.3hPa | 2.5V | 02:46:58 | 03:03:23 | 00:00:00 | |
| DL1XH-west | 2026-09-03 01:01:01 | 52.40985 | 11.24636 | 71° | 26km/h | 25440m | -21.2m/s | -251.2°C | 0% | 25.1hPa | 2.6V | 02:46:58 | 03:03:20 | 00:00:00 | |
| DF8AY | 2026-09-03 01:00:59 | 52.40982 | 11.24620 | 79° | 20km/h | 25482m | -18.9m/s | -251.2°C | 0% | 24.9hPa | 2.5V | 02:46:58 | 03:03:18 | 00:00:00 | |
| DO2SHX-10 | 2026-09-03 01:00:59 | 52.40982 | 11.24620 | 79° | 16km/h | 25482m | -18.8m/s | 0°C | 0% | 24.9hPa | 2.5V | 02:46:00 | 03:03:18 | 00:00:00 | |
| SO1NDE-10 | 2026-09-03 01:00:58 | 52.40982 | 11.24613 | 91° | 13km/h | 25501m | -20.7m/s | 0°C | 0% | 24.8hPa | 2.5V | 00:00:00 | 03:03:17 | 00:00:00 | |
| GOEST3-10 | 2026-09-03 01:00:57 | 52.40982 | 11.24608 | 93° | 16km/h | 25521m | -18.3m/s | 0°C | 0% | 24.7hPa | 2.5V | 00:00:00 | 03:03:16 | 00:00:00 | |
| DB0DAN | 2026-09-03 01:00:55 | 52.40983 | 11.24595 | 100° | 15km/h | 25560m | -23.1m/s | -251.2°C | 0% | 24.67hPa | 2.5V | 00:00:00 | 00:00:00 | 00:00:00 | |
| DO3MHA-11 | 2026-09-03 01:00:55 | 52.40983 | 11.24595 | 101° | 15km/h | 25560m | -23.1m/s | 0°C | 0% | 24.6hPa | 2.6V | 00:00:00 | 03:03:14 | 00:00:00 | |
| DL1XH1-15 | 2026-09-03 01:00:54 | 52.40985 | 11.24581 | 97° | 16km/h | 25610m | -25.4m/s | 0°C | 0% | 0hPa | 2.6V | 02:46:31 | 03:03:12 | 00:00:00 | |
| DL1XH-15 | 2026-09-03 01:00:53 | 52.40987 | 11.24561 | 106° | 15km/h | 25691m | -28.4m/s | 0°C | 0% | 0hPa | 2.5V | 02:46:34 | 03:03:09 | 00:00:00 | |
| HSKMA3-T | 2026-09-03 01:00:53 | 52.40985 | 11.24581 | 98° | 16km/h | 25610m | -25.4m/s | -251.2°C | 0% | 24.5hPa | 2.6V | 02:46:58 | 03:03:12 | 00:00:00 | |
| AA1-15 | 2026-09-03 01:00:51 | 52.40986 | 11.24567 | 97° | 16km/h | 25664m | -28.1m/s | -251.2°C | 0% | 24.3hPa | 2.5V | 02:46:58 | 03:03:10 | 00:00:00 | |
| DL1XH-west | 2026-09-03 01:00:50 | 52.40987 | 11.24561 | 107° | 15km/h | 25691m | -28.4m/s | -251.2°C | 0% | 24.3hPa | 2.5V | 02:46:58 | 03:03:09 | 00:00:00 | |
| DF8AY | 2026-09-03 01:00:49 | 52.40990 | 11.24551 | 122° | 15km/h | 25744m | -23.6m/s | -251.2°C | 0% | 24hPa | 2.6V | 02:46:58 | 03:03:07 | 00:00:00 | |
| DL1XH1-15 | 2026-09-03 01:00:49 | 52.41003 | 11.24545 | 201° | 9km/h | 25881m | -22.8m/s | 0°C | 0% | 0hPa | 2.6V | 02:46:42 | 03:03:01 | 00:00:00 | |
| BUE01 | 2026-09-03 01:00:48 | 52.40990 | 11.24551 | 122° | 13km/h | 25744m | -23.6m/s | 0°C | -1.0% | 24.0hPa | 2.6V | 00:00:00 | 00:00:00 | 00:00:00 | |
| HSKMA3-T | 2026-09-03 01:00:42 | 52.41003 | 11.24545 | 202° | 9km/h | 25881m | -22.8m/s | -251.2°C | 0% | 23.5hPa | 2.6V | 02:46:58 | 03:03:01 | 00:00:00 | |
| DM0DOS-11 | 2026-09-03 01:00:41 | 52.41011 | 11.24546 | 140° | 7km/h | 25969m | -23.4m/s | 0°C | 0% | 0hPa | 2.5V | 02:46:46 | 03:02:57 | 00:00:00 | |
| DL1XH-15 | 2026-09-03 01:00:41 | 52.41007 | 11.24548 | 203° | 7km/h | 25924m | -21.2m/s | 0°C | 0% | 0hPa | 2.6V | 02:46:44 | 03:02:59 | 00:00:00 | |
| DB0DAN | 2026-09-03 01:00:40 | 52.41007 | 11.24548 | 204° | 7km/h | 25924m | -21.2m/s | -251.2°C | 0% | 23.31hPa | 2.6V | 00:00:00 | 00:00:00 | 00:00:00 | |
| AA1-15 | 2026-09-03 01:00:40 | 52.41007 | 11.24548 | 204° | 7km/h | 25924m | -21.2m/s | -251.2°C | 0% | 23.3hPa | 2.6V | 02:46:58 | 03:02:59 | 00:00:00 | |
| DL1XH-west | 2026-09-03 01:00:39 | 52.41009 | 11.24548 | 169° | 5km/h | 25947m | -23.1m/s | -251.2°C | 0% | 23.2hPa | 2.5V | 02:46:58 | 03:02:58 | 00:00:00 | |
| DF8AY | 2026-09-03 01:00:38 | 52.41011 | 11.24546 | 140° | 7km/h | 25969m | -23.4m/s | -251.2°C | 0% | 23.1hPa | 2.5V | 02:46:58 | 03:02:57 | 00:00:00 | |
| DO2SHX-10 | 2026-09-03 01:00:38 | 52.41011 | 11.24546 | 141° | 7km/h | 25969m | -23.4m/s | 0°C | 0% | 23.0hPa | 2.6V | 00:00:00 | 03:02:57 | 00:00:00 | |
| SP3BTT-10 | 2026-09-03 01:00:37 | 52.41012 | 11.24544 | 131° | 15km/h | 25992m | -21.5m/s | 0°C | 0% | 23.0hPa | 2.6V | 00:00:00 | 00:00:00 | 00:00:00 | |
| DL1XH1-15 | 2026-09-03 01:00:36 | 52.41014 | 11.24520 | 90° | 18km/h | 26106m | -23.1m/s | 0°C | 0% | 0hPa | 2.6V | 02:46:52 | 03:02:51 | 00:00:00 | |
| HSKMA3-T | 2026-09-03 01:00:32 | 52.41014 | 11.24520 | 90° | 18km/h | 26107m | -23.1m/s | -251.2°C | 0% | 22.7hPa | 2.6V | 02:46:58 | 03:02:51 | 00:00:00 | |
| AA1-15 | 2026-09-03 01:00:30 | 52.41014 | 11.24505 | 101° | 16km/h | 26154m | -23.7m/s | -251.2°C | 0% | 22.5hPa | 2.5V | 02:46:58 | 03:02:49 | 00:00:00 | |
| DM0DOS-11 | 2026-09-03 01:00:29 | 52.41016 | 11.24491 | 117° | 16km/h | 26194m | -19.3m/s | 0°C | 0% | 0hPa | 2.5V | 02:46:56 | 03:02:47 | 00:00:00 | |
| DL1XH-west | 2026-09-03 01:00:29 | 52.41015 | 11.24498 | 101° | 16km/h | 26175m | -20.4m/s | -251.2°C | 0% | 22.4hPa | 2.5V | 02:46:58 | 03:02:48 | 00:00:00 | |
| DF8AY | 2026-09-03 01:00:28 | 52.41016 | 11.24491 | 118° | 16km/h | 26194m | -19.3m/s | -251.2°C | 0% | 22.3hPa | 2.5V | 02:46:58 | 03:02:47 | 00:00:00 | |
| SO1NDE-10 | 2026-09-03 01:00:28 | 52.41016 | 11.24491 | 118° | 18km/h | 26194m | -19.2m/s | 0°C | 0% | 22.2hPa | 2.5V | 02:46:00 | 03:02:47 | 00:00:00 | |
| DF7ER-10 | 2026-09-03 01:00:27 | 52.41016 | 11.24491 | 119° | 16km/h | 26194m | -19.3m/s | 0°C | 0% | 22.3hPa | 2.6V | 02:46:00 | 00:00:00 | 00:00:00 | |
| DB0DAN | 2026-09-03 01:00:25 | 52.41027 | 11.24474 | 144° | 20km/h | 26259m | -23.5m/s | -251.2°C | 0% | 22.12hPa | 2.6V | 00:00:00 | 00:00:00 | 00:00:00 | |
| DM0DOS-11 | 2026-09-03 01:00:24 | 52.41067 | 11.24459 | 171° | 16km/h | 26472m | -27.9m/s | 0°C | 0% | 0hPa | 2.5V | 02:47:08 | 03:02:35 | 00:00:00 | |
| DL1XH-15 | 2026-09-03 01:00:23 | 52.41050 | 11.24461 | 173° | 18km/h | 26376m | -22.8m/s | 0°C | 0% | 0hPa | 2.6V | 02:47:04 | 03:02:39 | 00:00:00 | |
| DL1XH1-15 | 2026-09-03 01:00:23 | 52.41040 | 11.24466 | 161° | 20km/h | 26329m | -25.5m/s | 0°C | 0% | 0hPa | 2.5V | 02:47:02 | 03:02:41 | 00:00:00 | |
| HSKMA3-T | 2026-09-03 01:00:21 | 52.41045 | 11.24463 | 169° | 20km/h | 26353m | -23.5m/s | -251.2°C | 0% | 21.8hPa | 2.6V | 02:47:49 | 03:02:40 | 00:00:00 | |
| AA1-15 | 2026-09-03 01:00:19 | 52.41054 | 11.24460 | 182° | 18km/h | 26397m | -21.5m/s | -251.2°C | 0% | 21.7hPa | 2.6V | 02:47:49 | 03:02:38 | 00:00:00 | |
| DL1XH-west | 2026-09-03 01:00:19 | 52.41059 | 11.24460 | 176° | 16km/h | 26420m | -24.3m/s | -251.2°C | 0% | 21.6hPa | 2.6V | 02:47:49 | 03:02:37 | 00:00:00 | |
| DF8AY | 2026-09-03 01:00:18 | 52.41075 | 11.24457 | 169° | 15km/h | 26525m | -25.4m/s | -251.2°C | 0% | 21.3hPa | 2.6V | 02:47:49 | 03:02:33 | 00:00:00 | |
| DL1XH1-15 | 2026-09-03 01:00:18 | 52.41082 | 11.24454 | 159° | 16km/h | 26576m | -24.5m/s | 0°C | 0% | 0hPa | 2.6V | 02:47:12 | 03:02:31 | 00:00:00 | |
| DF7ER-10 | 2026-09-03 01:00:18 | 52.41063 | 11.24460 | 178° | 18km/h | 26446m | -26.1m/s | 0°C | 0% | 21.5hPa | 2.6V | 02:47:00 | 00:00:00 | 00:00:00 | |
| DD8BA-10 | 2026-09-03 01:00:17 | 52.41067 | 11.24459 | 172° | 16km/h | 26472m | -27.9m/s | 0°C | 0% | 21.4hPa | 2.6V | 00:00:00 | 00:00:00 | 00:00:00 | |
| DO2SHX-10 | 2026-09-03 01:00:14 | 52.41075 | 11.24457 | 169° | 15km/h | 26525m | -25.3m/s | 0°C | 0% | 21.2hPa | 2.6V | 02:47:00 | 03:02:33 | 00:00:00 | |
| 13BRC | 2026-09-03 01:00:12 | 52.41078 | 11.24455 | 171° | 15km/h | 26551m | -26.8m/s | 0°C | 0% | 21.2hPa | 2.5V | 02:47:00 | 00:00:00 | 00:00:00 | |
| DL1XH-15 | 2026-09-03 01:00:11 | 52.41089 | 11.24448 | 151° | 18km/h | 26623m | -22.1m/s | 0°C | 0% | 0hPa | 2.5V | 02:47:14 | 03:02:29 | 00:00:00 | |
| DM0DOS-11 | 2026-09-03 01:00:11 | 52.41097 | 11.24440 | 146° | 20km/h | 26668m | -22.4m/s | 0°C | 0% | 0hPa | 2.6V | 02:47:16 | 03:02:27 | 00:00:00 | |
| HSKMA3-T | 2026-09-03 01:00:10 | 52.41089 | 11.24448 | 152° | 18km/h | 26623m | -22.1m/s | -251.2°C | 0% | 20.9hPa | 2.5V | 02:47:49 | 03:02:29 | 00:00:00 | |
| DB0DAN | 2026-09-03 01:00:10 | 52.41089 | 11.24448 | 152° | 16km/h | 26623m | -22.1m/s | -251.2°C | 0% | 20.89hPa | 2.5V | 00:00:00 | 00:00:00 | 00:00:00 | |
| DL1XH-west | 2026-09-03 01:00:09 | 52.41093 | 11.24444 | 149° | 18km/h | 26645m | -23.1m/s | -251.2°C | 0% | 20.8hPa | 2.5V | 02:47:49 | 03:02:28 | 00:00:00 | |
| DL3OBA | 2026-09-03 01:00:08 | 52.41097 | 11.24440 | 147° | 20km/h | 26668m | -22.4m/s | 0°C | 0% | 20.8hPa | 2.6V | 00:00:00 | 00:00:00 | 00:00:00 | |
| DL1XH1-15 | 2026-09-03 01:00:07 | 52.41122 | 11.24413 | 152° | 22km/h | 26805m | -25.7m/s | 0°C | 0% | 0hPa | 2.6V | 02:47:22 | 03:02:21 | 00:00:00 | |
| DF7ER-10 | 2026-09-03 01:00:07 | 52.41101 | 11.24436 | 149° | 20km/h | 26689m | -21.2m/s | 0°C | 0% | 20.7hPa | 2.5V | 02:47:00 | 00:00:00 | 00:00:00 | |
| TFSTFS | 2026-09-03 01:00:06 | 52.41106 | 11.24432 | 146° | 18km/h | 26710m | -22.8m/s | 0°C | 0% | 20.6hPa | 2.5V | 00:00:00 | 00:00:00 | 00:00:00 | |
| DL1NUX | 2026-09-03 01:00:05 | 52.41132 | 11.24406 | 160° | 22km/h | 26851m | -23.5m/s | 0°C | 0% | 0hPa | 2.5V | 02:47:24 | 03:02:19 | 00:00:00 | |
| DF8AY | 2026-09-03 01:00:03 | 52.41118 | 11.24417 | 152° | 20km/h | 26780m | -25.6m/s | -251.2°C | 0% | 20.4hPa | 2.6V | 02:47:49 | 03:02:22 | 00:00:00 | |
| DL1XH-west | 2026-09-03 00:59:59 | 52.41137 | 11.24403 | 164° | 24km/h | 26875m | -24.5m/s | -251.2°C | 0% | 20.1hPa | 2.6V | 02:47:49 | 03:02:18 | 00:00:00 | |
| AA1-15 | 2026-09-03 00:59:58 | 52.41142 | 11.24400 | 164° | 24km/h | 26900m | -25.2m/s | -251.2°C | 0% | 20.1hPa | 2.6V | 02:47:49 | 03:02:17 | 00:00:00 | |
| SO1NDE-10 | 2026-09-03 00:59:58 | 52.41142 | 11.24400 | 165° | 27km/h | 26900m | -25.2m/s | 0°C | 0% | 20.0hPa | 2.6V | 00:00:00 | 03:02:17 | 00:00:00 | |
| DF7ER-10 | 2026-09-03 00:59:57 | 52.41148 | 11.24397 | 166° | 26km/h | 26925m | -25.3m/s | 0°C | 0% | 19.9hPa | 2.6V | 02:47:00 | 00:00:00 | 00:00:00 | |
| DL1XH1-15 | 2026-09-03 00:59:56 | 52.41186 | 11.24390 | 184° | 33km/h | 27038m | -23m/s | 0°C | 0% | 0hPa | 2.6V | 02:47:32 | 03:02:11 | 00:00:00 | |
| DB0DAN | 2026-09-03 00:59:55 | 52.41162 | 11.24392 | 176° | 29km/h | 26970m | -21.6m/s | -251.2°C | 0% | 19.8hPa | 2.5V | 00:00:00 | 00:00:00 | 00:00:00 | |
| DF8AY | 2026-09-03 00:59:53 | 52.41178 | 11.24390 | 179° | 33km/h | 27014m | -25.4m/s | -251.2°C | 0% | 19.7hPa | 2.6V | 02:47:49 | 03:02:12 | 00:00:00 | |
| DL1XH-15 | 2026-09-03 00:59:53 | 52.41202 | 11.24395 | 197° | 31km/h | 27086m | -26.6m/s | 0°C | 0% | 0hPa | 2.5V | 02:47:34 | 03:02:09 | 00:00:00 | |
| EDDB2-12 | 2026-09-03 00:59:50 | 52.41202 | 11.24395 | 197° | 31km/h | 27087m | -26.6m/s | 0°C | -1.0% | 19.5hPa | 2.5V | 00:00:00 | 00:00:00 | 00:00:00 | |
| DL1XH-west | 2026-09-03 00:59:49 | 52.41261 | 11.24523 | 245° | 26km/h | 27403m | -24m/s | -251.2°C | 0% | 18.6hPa | 2.5V | 02:47:49 | 03:01:56 | 00:00:00 | |
| AA1-15 | 2026-09-03 00:59:49 | 52.41222 | 11.24414 | 223° | 31km/h | 27166m | -26.6m/s | -251.2°C | 0% | 19.3hPa | 2.6V | 02:47:49 | 03:02:06 | 00:00:00 | |
| HSKMA3-T | 2026-09-03 00:59:48 | 52.41216 | 11.24406 | 215° | 31km/h | 27139m | -28m/s | -251.2°C | 0% | 19.3hPa | 2.5V | 02:47:49 | 03:02:07 | 00:00:00 | |
| SONDE2-11 | 2026-09-03 00:59:48 | 52.41222 | 11.24414 | 223° | 29km/h | 27166m | -26.6m/s | 0°C | -1.0% | 19.3hPa | 2.5V | 00:00:00 | 00:00:00 | 00:00:00 | |
| BUE01 | 2026-09-03 00:59:46 | 52.41233 | 11.24434 | 236° | 33km/h | 27218m | -25.4m/s | 0°C | -1.0% | 19.1hPa | 2.5V | 00:00:00 | 00:00:00 | 00:00:00 | |
| DF8AY | 2026-09-03 00:59:44 | 52.41245 | 11.24469 | 245° | 33km/h | 27289m | -21.6m/s | -251.2°C | 0% | 18.8hPa | 2.5V | 02:47:49 | 03:02:01 | 00:00:00 | |
| MECKS9 | 2026-09-03 00:59:44 | 52.41237 | 11.24445 | 241° | 33km/h | 27243m | -24.4m/s | 0°C | 0% | 19.0hPa | 2.6V | 02:47:00 | 00:00:00 | 00:00:00 | |
| DL1XH-15 | 2026-09-03 00:59:41 | 52.41252 | 11.24492 | 244° | 29km/h | 27334m | -23.8m/s | 0°C | 0% | 0hPa | 2.6V | 02:47:44 | 03:01:59 | 00:00:00 | |
| DH0BRO-15 | 2026-09-03 00:59:41 | 52.41245 | 11.24469 | 246° | 33km/h | 27289m | -21.6m/s | 0°C | 0% | 18.8hPa | 2.6V | 00:00:00 | 00:00:00 | 00:00:00 | |
| DB0DAN | 2026-09-03 00:59:40 | 52.41252 | 11.24491 | 244° | 29km/h | 27334m | -23.8m/s | -251.2°C | 0% | 18.74hPa | 2.6V | 00:00:00 | 00:00:00 | 00:00:00 | |
| DL1XH-west | 2026-09-03 00:59:38 | 52.41239 | 11.24589 | 315° | 9km/h | 27669m | -26.3m/s | -251.2°C | 0% | 17.8hPa | 2.6V | 02:48:40 | 03:01:46 | 00:00:00 | |
| AA1-15 | 2026-09-03 00:59:38 | 52.41256 | 11.24565 | 306° | 24km/h | 27540m | -27.9m/s | -251.2°C | 0% | 18.2hPa | 2.6V | 02:48:40 | 03:01:51 | 00:00:00 | |
| HSKMA3-T | 2026-09-03 00:59:38 | 52.41262 | 11.24541 | 275° | 22km/h | 27457m | -28.3m/s | -251.2°C | 0% | 18.4hPa | 2.5V | 02:47:49 | 03:01:54 | 00:00:00 | |
| DO2SHX-10 | 2026-09-03 00:59:38 | 52.41258 | 11.24513 | 249° | 26km/h | 27380m | -22.8m/s | 0°C | 0% | 18.5hPa | 2.6V | 02:47:00 | 03:01:57 | 00:00:00 | |
| DL1XH1-15 | 2026-09-03 00:59:37 | 52.41256 | 11.24565 | 305° | 24km/h | 27540m | -27.9m/s | 0°C | 0% | 0hPa | 2.6V | 02:47:52 | 03:01:51 | 00:00:00 | |
| DF8AY | 2026-09-03 00:59:36 | 52.41238 | 11.24591 | 288° | 4km/h | 27696m | -26.6m/s | -251.2°C | 0% | 17.8hPa | 2.5V | 02:52:55 | 03:01:45 | 00:00:00 | |
| S3001 | 2026-09-03 00:59:36 | 52.41262 | 11.24541 | 275° | 20km/h | 27457m | -28.3m/s | 0°C | -1.0% | 18.4hPa | 2.6V | 00:00:00 | 00:00:00 | 00:00:00 | |
| DO2SHX-10 | 2026-09-03 00:59:35 | 52.41262 | 11.24541 | 276° | 22km/h | 27457m | -28.3m/s | 0°C | 0% | 18.4hPa | 2.6V | 00:00:00 | 03:01:54 | 00:00:00 | |
| GOEST3-10 | 2026-09-03 00:59:34 | 52.41261 | 11.24549 | 290° | 22km/h | 27485m | -28.2m/s | 0°C | 0% | 18.3hPa | 2.6V | 02:47:00 | 03:01:53 | 00:00:00 | |
| MECKS9 | 2026-09-03 00:59:33 | 52.41261 | 11.24549 | 291° | 20km/h | 27485m | -28.2m/s | 0°C | 0% | 18.4hPa | 2.5V | 00:00:00 | 00:00:00 | 00:00:00 | |
| DO2SHX-10 | 2026-09-03 00:59:32 | 52.41256 | 11.24565 | 306° | 22km/h | 27541m | -27.9m/s | 0°C | 0% | 18.1hPa | 2.5V | 00:00:00 | 03:01:51 | 00:00:00 | |
| DM0DOS-11 | 2026-09-03 00:59:31 | 52.41238 | 11.24591 | 288° | 4km/h | 27696m | -26.6m/s | 0°C | 0% | 0hPa | 2.5V | 02:47:58 | 03:01:45 | 00:00:00 | |
| DL1XH1-15 | 2026-09-03 00:59:31 | 52.41242 | 11.24590 | 153° | 9km/h | 27799m | -25.9m/s | 0°C | 0% | 0hPa | 2.6V | 02:48:02 | 03:01:41 | 00:00:00 | |
| HSKMA3-T | 2026-09-03 00:59:27 | 52.41238 | 11.24592 | 210° | 4km/h | 27721m | -25.2m/s | -251.2°C | 0% | 17.7hPa | 2.5V | 02:48:40 | 03:01:44 | 00:00:00 | |
| DL1NUX | 2026-09-03 00:59:26 | 52.41247 | 11.24586 | 148° | 9km/h | 27851m | -25.4m/s | 0°C | 0% | 0hPa | 2.5V | 02:48:04 | 03:01:39 | 00:00:00 | |
| DB0DAN | 2026-09-03 00:59:25 | 52.41238 | 11.24592 | 210° | 4km/h | 27722m | -25.2m/s | -251.2°C | 0% | 17.67hPa | 2.5V | 00:00:00 | 00:00:00 | 00:00:00 | |
| DF8AY | 2026-09-03 00:59:22 | 52.41242 | 11.24590 | 154° | 9km/h | 27799m | -25.9m/s | -251.2°C | 0% | 17.5hPa | 2.6V | 02:52:55 | 03:01:41 | 00:00:00 | |
| AA1-15 | 2026-09-03 00:59:21 | 52.41245 | 11.24588 | 156° | 9km/h | 27825m | -26.4m/s | -251.2°C | 0% | 17.4hPa | 2.6V | 02:48:40 | 03:01:40 | 00:00:00 | |
| DO2SHX-10 | 2026-09-03 00:59:20 | 52.41247 | 11.24586 | 149° | 7km/h | 27851m | -25.4m/s | 0°C | 0% | 17.2hPa | 2.5V | 02:48:00 | 03:01:39 | 00:00:00 | |
| GOEST3-10 | 2026-09-03 00:59:19 | 52.41249 | 11.24584 | 147° | 5km/h | 27876m | -25.5m/s | 0°C | 0% | 17.2hPa | 2.5V | 02:48:00 | 00:00:00 | 00:00:00 | |
| DL1XH-west | 2026-09-03 00:59:19 | 52.41250 | 11.24583 | 158° | 7km/h | 27900m | -23.3m/s | -251.2°C | 0% | 17.2hPa | 2.6V | 02:48:40 | 03:01:37 | 00:00:00 | |
| SONDE2-11 | 2026-09-03 00:59:17 | 52.41253 | 11.24580 | 138° | 5km/h | 27950m | -24.6m/s | 0°C | -1.0% | 17.1hPa | 2.6V | 00:00:00 | 00:00:00 | 00:00:00 | |
| DO2SHX-10 | 2026-09-03 00:59:16 | 52.41253 | 11.24580 | 139° | 5km/h | 27950m | -24.6m/s | 0°C | 0% | 17.0hPa | 2.6V | 00:00:00 | 03:01:35 | 00:00:00 | |
| DL1XH1-15 | 2026-09-03 00:59:15 | 52.41256 | 11.24582 | 258° | 5km/h | 28041m | -23.5m/s | 0°C | 0% | 0hPa | 2.6V | 02:48:12 | 03:01:31 | 00:00:00 | |
| HSKMA3-T | 2026-09-03 00:59:14 | 52.41255 | 11.24579 | 185° | 5km/h | 27995m | -20.6m/s | -251.2°C | 0% | 16.9hPa | 2.6V | 02:48:40 | 03:01:33 | 00:00:00 | |
| GOEST3-10 | 2026-09-03 00:59:14 | 52.41255 | 11.24579 | 186° | 7km/h | 27995m | -20.6m/s | 0°C | 0% | 16.9hPa | 2.5V | 00:00:00 | 03:01:33 | 00:00:00 | |
| DL1XH-15 | 2026-09-03 00:59:13 | 52.41256 | 11.24589 | 271° | 15km/h | 28091m | -23.8m/s | 0°C | 0% | 0hPa | 2.5V | 02:48:14 | 03:01:29 | 00:00:00 | |
| DF8AY | 2026-09-03 00:59:11 | 52.41257 | 11.24584 | 264° | 11km/h | 28066m | -25.2m/s | -251.2°C | 0% | 16.7hPa | 2.5V | 02:52:55 | 03:01:30 | 00:00:00 | |
| DB0DAN | 2026-09-03 00:59:10 | 52.41256 | 11.24589 | 272° | 15km/h | 28091m | -23.8m/s | -251.2°C | 0% | 16.67hPa | 2.5V | 00:00:00 | 00:00:00 | 00:00:00 | |
| DO2SHX-10 | 2026-09-03 00:59:10 | 52.41256 | 11.24589 | 272° | 16km/h | 28091m | -23.7m/s | 0°C | 0% | 16.6hPa | 2.5V | 02:48:00 | 03:01:29 | 00:00:00 | |
| DM0DOS-11 | 2026-09-03 00:59:09 | 52.41255 | 11.24615 | 287° | 15km/h | 28183m | -24.4m/s | 0°C | 0% | 0hPa | 2.6V | 02:48:18 | 03:01:25 | 00:00:00 | |
| DL1XH-west | 2026-09-03 00:59:08 | 52.41256 | 11.24601 | 274° | 16km/h | 28134m | -23.7m/s | -251.2°C | 0% | 16.6hPa | 2.6V | 02:48:40 | 03:01:27 | 00:00:00 | |
| DO2SHX-10 | 2026-09-03 00:59:07 | 52.41256 | 11.24608 | 279° | 16km/h | 28159m | -25.6m/s | 0°C | 0% | 16.5hPa | 2.6V | 00:00:00 | 03:01:26 | 00:00:00 | |
| S3001 | 2026-09-03 00:59:05 | 52.41253 | 11.24626 | 292° | 15km/h | 28235m | -26.5m/s | 0°C | -1.0% | 16.3hPa | 2.6V | 00:00:00 | 00:00:00 | 00:00:00 | |
| DO2SHX-10 | 2026-09-03 00:59:04 | 52.41253 | 11.24626 | 293° | 15km/h | 28236m | -26.4m/s | 0°C | 0% | 16.2hPa | 2.6V | 00:00:00 | 03:01:23 | 00:00:00 | |
| DL1XH1-15 | 2026-09-03 00:59:03 | 52.41249 | 11.24637 | 306° | 15km/h | 28287m | -24.6m/s | 0°C | 0% | 0hPa | 2.6V | 02:48:22 | 03:01:21 | 00:00:00 | |
| HSKMA3-T | 2026-09-03 00:59:03 | 52.41251 | 11.24632 | 297° | 15km/h | 28261m | -27.4m/s | -251.2°C | 0% | 16.3hPa | 2.6V | 02:48:40 | 03:01:22 | 00:00:00 | |
| SONCRA | 2026-09-03 00:59:03 | 52.41251 | 11.24632 | 296° | 13km/h | 28262m | -27.4m/s | 0°C | -1.0% | 16.3hPa | 2.5V | 00:00:00 | 00:00:00 | 00:00:00 | |
| DF7ER-10 | 2026-09-03 00:59:02 | 52.41251 | 11.24632 | 298° | 15km/h | 28262m | -27.4m/s | 0°C | 0% | 16.3hPa | 2.5V | 02:48:00 | 00:00:00 | 00:00:00 | |
| DL1XH-15 | 2026-09-03 00:59:01 | 52.41245 | 11.24644 | 331° | 11km/h | 28332m | -23.5m/s | 0°C | 0% | 0hPa | 2.5V | 02:48:24 | 03:01:19 | 00:00:00 | |
| DF8AY | 2026-09-03 00:59:00 | 52.41245 | 11.24644 | 331° | 11km/h | 28332m | -23.5m/s | -251.2°C | 0% | 16.1hPa | 2.5V | 02:52:55 | 03:01:19 | 00:00:00 | |
| DM0DOS-11 | 2026-09-03 00:58:59 | 52.41237 | 11.24645 | 30° | 7km/h | 28427m | -26.1m/s | 0°C | 0% | 0hPa | 2.5V | 02:48:28 | 03:01:15 | 00:00:00 | |
| DL1XH-west | 2026-09-03 00:58:58 | 52.41239 | 11.24647 | 12° | 7km/h | 28403m | -22.6m/s | -251.2°C | 0% | 15.9hPa | 2.6V | 02:48:40 | 03:01:16 | 00:00:00 | |
| SP3WXH-11 | 2026-09-03 00:58:58 | 52.41239 | 11.24647 | 11° | 7km/h | 28403m | -22.6m/s | 0°C | -1.0% | 15.9hPa | 2.5V | 00:00:00 | 00:00:00 | 00:00:00 | |
| DB0DAN | 2026-09-03 00:58:55 | 52.41235 | 11.24643 | 27° | 7km/h | 28456m | -31.1m/s | -251.2°C | 0% | 15.8hPa | 2.5V | 00:00:00 | 00:00:00 | 00:00:00 | |
| DL1NUX | 2026-09-03 00:58:55 | 52.41222 | 11.24634 | 25° | 18km/h | 28596m | -24.8m/s | 0°C | 0% | 0hPa | 2.5V | 02:48:34 | 03:01:09 | 00:00:00 | |
| HSKMA3-T | 2026-09-03 00:58:52 | 52.41229 | 11.24639 | 19° | 15km/h | 28543m | -30.2m/s | -251.2°C | 0% | 15.6hPa | 2.6V | 02:48:40 | 03:01:11 | 00:00:00 | |
| DF8AY | 2026-09-03 00:58:49 | 52.41217 | 11.24630 | 33° | 22km/h | 28620m | -23m/s | -251.2°C | 0% | 15.4hPa | 2.5V | 02:52:55 | 03:01:08 | 00:00:00 | |
| DL1XH-west | 2026-09-03 00:58:48 | 52.41209 | 11.24616 | 59° | 22km/h | 28670m | -28.1m/s | -251.2°C | 0% | 15.2hPa | 2.6V | 02:48:40 | 03:01:06 | 00:00:00 | |
| DL1XH1-15 | 2026-09-03 00:58:47 | 52.41212 | 11.24574 | 138° | 24km/h | 28804m | -28.3m/s | 0°C | 0% | 0hPa | 2.6V | 02:48:42 | 03:01:01 | 00:00:00 | |
| SONDE2-11 | 2026-09-03 00:58:46 | 52.41206 | 11.24599 | 88° | 22km/h | 28724m | -27.2m/s | 0°C | -1.0% | 15.1hPa | 2.6V | 00:00:00 | 00:00:00 | 00:00:00 | |
| DL3OBA | 2026-09-03 00:58:45 | 52.41207 | 11.24608 | 74° | 24km/h | 28697m | -26.8m/s | 0°C | 0% | 15.2hPa | 2.6V | 02:48:00 | 00:00:00 | 00:00:00 | |
| BUE01 | 2026-09-03 00:58:44 | 52.41209 | 11.24581 | 124° | 22km/h | 28777m | -27.0m/s | 0°C | -1.0% | 15.0hPa | 2.6V | 00:00:00 | 00:00:00 | 00:00:00 | |
| DL1XH-15 | 2026-09-03 00:58:43 | 52.41222 | 11.24562 | 146° | 22km/h | 28858m | -26.3m/s | 0°C | 0% | 0hPa | 2.6V | 02:48:44 | 03:00:59 | 00:00:00 | |
| DO2SHX-10 | 2026-09-03 00:58:43 | 52.41209 | 11.24581 | 125° | 24km/h | 28777m | -26.9m/s | 0°C | 0% | 14.9hPa | 2.5V | 02:48:00 | 03:01:02 | 00:00:00 | |
| TFSTFS | 2026-09-03 00:58:42 | 52.41212 | 11.24574 | 139° | 24km/h | 28804m | -28.3m/s | 0°C | 0% | 14.9hPa | 2.6V | 02:49:00 | 00:00:00 | 00:00:00 | |
| DF7ER-10 | 2026-09-03 00:58:41 | 52.41212 | 11.24574 | 139° | 24km/h | 28804m | -28.3m/s | 0°C | 0% | 14.9hPa | 2.6V | 02:49:00 | 00:00:00 | 00:00:00 | |
| HSKMA3-T | 2026-09-03 00:58:41 | 52.41217 | 11.24568 | 146° | 24km/h | 28831m | -27.5m/s | -251.2°C | 0% | 14.9hPa | 2.6V | 02:49:31 | 03:01:00 | 00:00:00 | |
| DB0DAN | 2026-09-03 00:58:40 | 52.41222 | 11.24562 | 146° | 20km/h | 28858m | -26.3m/s | -251.2°C | 0% | 14.83hPa | 2.6V | 00:00:00 | 00:00:00 | 00:00:00 | |
| AA1-15 | 2026-09-03 00:58:38 | 52.41229 | 11.24554 | 144° | 11km/h | 28915m | -30.3m/s | -251.2°C | 0% | 14.7hPa | 2.5V | 02:49:31 | 03:00:57 | 00:00:00 | |
| DM0DOS-11 | 2026-09-03 00:58:37 | 52.41231 | 11.24550 | 76° | 4km/h | 28975m | -29.7m/s | 0°C | 0% | 0hPa | 2.6V | 02:48:48 | 03:00:55 | 00:00:00 | |
| DL1XH-west | 2026-09-03 00:58:36 | 52.41231 | 11.24550 | 77° | 4km/h | 28975m | -29.7m/s | -251.2°C | 0% | 14.6hPa | 2.6V | 02:49:31 | 03:00:55 | 00:00:00 | |
| SP3BTT-10 | 2026-09-03 00:58:36 | 52.41231 | 11.24549 | 77° | 13km/h | 28976m | -29.7m/s | 0°C | 0% | 14.5hPa | 2.6V | 02:48:00 | 00:00:00 | 00:00:00 | |
| DL1XH1-15 | 2026-09-03 00:58:35 | 52.41228 | 11.24547 | 29° | 2km/h | 29074m | -21.7m/s | 0°C | 0% | 0hPa | 2.5V | 02:48:52 | 03:00:51 | 00:00:00 | |
| S3001 | 2026-09-03 00:58:34 | 52.41229 | 11.24547 | 23° | 4km/h | 29053m | -23.7m/s | 0°C | -1.0% | 14.3hPa | 2.6V | 00:00:00 | 00:00:00 | 00:00:00 | |
| DL1XH-15 | 2026-09-03 00:58:32 | 52.41229 | 11.24544 | 143° | 5km/h | 29121m | -24.1m/s | 0°C | 0% | 0hPa | 2.6V | 02:48:54 | 03:00:49 | 00:00:00 | |
| SONCRA | 2026-09-03 00:58:32 | 52.41228 | 11.24546 | 104° | 4km/h | 29097m | -25.7m/s | 0°C | -1.0% | 14.3hPa | 2.6V | 00:00:00 | 00:00:00 | 00:00:00 | |
| DM0DOS-11 | 2026-09-03 00:58:31 | 52.41236 | 11.24548 | 220° | 15km/h | 29226m | -29.2m/s | 0°C | 0% | 0hPa | 2.6V | 02:48:58 | 03:00:45 | 00:00:00 | |
| HSKMA3-T | 2026-09-03 00:58:30 | 52.41229 | 11.24544 | 144° | 5km/h | 29121m | -24.1m/s | -251.2°C | 0% | 14.2hPa | 2.6V | 02:49:31 | 03:00:49 | 00:00:00 | |
| AA1-15 | 2026-09-03 00:58:28 | 52.41234 | 11.24545 | 211° | 11km/h | 29200m | -25.2m/s | -251.2°C | 0% | 14hPa | 2.5V | 02:49:31 | 03:00:46 | 00:00:00 | |
| DF8AY | 2026-09-03 00:58:25 | 52.41239 | 11.24552 | 226° | 15km/h | 29254m | -27.8m/s | -251.2°C | 0% | 13.9hPa | 2.6V | 02:52:55 | 03:00:44 | 00:00:00 | |
| DB0DAN | 2026-09-03 00:58:25 | 52.41239 | 11.24552 | 226° | 13km/h | 29255m | -27.8m/s | -251.2°C | 0% | 13.92hPa | 2.6V | 00:00:00 | 00:00:00 | 00:00:00 | |
| DL3OBA | 2026-09-03 00:58:25 | 52.41239 | 11.24552 | 227° | 15km/h | 29255m | -27.8m/s | 0°C | 0% | 13.9hPa | 2.6V | 02:49:00 | 00:00:00 | 00:00:00 | |
| GOEST3-10 | 2026-09-03 00:58:24 | 52.41240 | 11.24556 | 249° | 15km/h | 29285m | -31.5m/s | 0°C | 0% | 13.9hPa | 2.6V | 00:00:00 | 00:00:00 | 00:00:00 | |
| MECKS9 | 2026-09-03 00:58:22 | 52.41242 | 11.24568 | 268° | 15km/h | 29344m | -28.9m/s | 0°C | 0% | 13.7hPa | 2.6V | 00:00:00 | 00:00:00 | 00:00:00 | |
| DM0DOS-11 | 2026-09-03 00:58:20 | 52.41227 | 11.24585 | 3° | 15km/h | 29508m | -24.2m/s | 0°C | 0% | 0hPa | 2.6V | 02:49:08 | 03:00:35 | 00:00:00 | |
| HSKMA3-T | 2026-09-03 00:58:19 | 52.41237 | 11.24581 | 324° | 15km/h | 29430m | -27.5m/s | -251.2°C | 0% | 13.6hPa | 2.5V | 02:49:31 | 03:00:38 | 00:00:00 | |
| AA1-15 | 2026-09-03 00:58:17 | 52.41230 | 11.24584 | 343° | 13km/h | 29485m | -24.8m/s | -251.2°C | 0% | 13.4hPa | 2.5V | 02:49:31 | 03:00:36 | 00:00:00 | |
| DF8AY | 2026-09-03 00:58:15 | 52.41224 | 11.24583 | 46° | 9km/h | 29533m | -27m/s | -251.2°C | 0% | 13.3hPa | 2.6V | 02:52:55 | 03:00:34 | 00:00:00 | |
| DL1NUX | 2026-09-03 00:58:15 | 52.41234 | 11.24563 | 153° | 20km/h | 29678m | -32.6m/s | 0°C | 0% | 0hPa | 2.6V | 02:49:14 | 03:00:29 | 00:00:00 | |
| SONDE2-11 | 2026-09-03 00:58:15 | 52.41223 | 11.24580 | 85° | 9km/h | 29561m | -28.9m/s | 0°C | -1.0% | 13.3hPa | 2.6V | 00:00:00 | 00:00:00 | 00:00:00 | |
| BUE01 | 2026-09-03 00:58:13 | 52.41226 | 11.24570 | 134° | 15km/h | 29617m | -30.1m/s | 0°C | -1.0% | 13.2hPa | 2.6V | 00:00:00 | 00:00:00 | 00:00:00 | |
| DB0DAN | 2026-09-03 00:58:10 | 52.41234 | 11.24563 | 153° | 18km/h | 29678m | -32.6m/s | -251.2°C | 0% | 13.06hPa | 2.6V | 00:00:00 | 00:00:00 | 00:00:00 | |
| DF7ER-10 | 2026-09-03 00:58:10 | 52.41234 | 11.24563 | 154° | 20km/h | 29679m | -32.6m/s | 0°C | 0% | 13.1hPa | 2.5V | 02:49:00 | 00:00:00 | 00:00:00 | |
| DM0DOS-11 | 2026-09-03 00:58:09 | 52.41252 | 11.24556 | 180° | 16km/h | 29790m | -25.8m/s | 0°C | 0% | 0hPa | 2.5V | 02:49:18 | 03:00:25 | 00:00:00 | |
| HSKMA3-T | 2026-09-03 00:58:09 | 52.41238 | 11.24560 | 164° | 18km/h | 29709m | -29.7m/s | -251.2°C | 0% | 13hPa | 2.6V | 02:49:31 | 03:00:28 | 00:00:00 | |
| AA1-15 | 2026-09-03 00:58:06 | 52.41252 | 11.24556 | 181° | 16km/h | 29790m | -25.8m/s | -251.2°C | 0% | 12.8hPa | 2.5V | 02:49:31 | 03:00:25 | 00:00:00 | |
| DF8AY | 2026-09-03 00:58:05 | 52.41256 | 11.24557 | 189° | 16km/h | 29816m | -27.2m/s | -251.2°C | 0% | 12.8hPa | 2.6V | 02:52:55 | 03:00:24 | 00:00:00 | |
| DL1XH1-15 | 2026-09-03 00:58:05 | 52.41266 | 11.24557 | 182° | 9km/h | 29897m | -29.9m/s | 0°C | 0% | 0hPa | 2.5V | 02:49:22 | 03:00:21 | 00:00:00 | |
| DL1XH-west | 2026-09-03 00:58:05 | 52.41260 | 11.24558 | 184° | 15km/h | 29843m | -25.1m/s | -251.2°C | 0% | 12.8hPa | 2.6V | 02:49:31 | 03:00:23 | 00:00:00 | |
| DO2SHX-10 | 2026-09-03 00:58:04 | 52.41260 | 11.24558 | 184° | 11km/h | 29843m | -25.0m/s | 0°C | 0% | 12.7hPa | 2.6V | 00:00:00 | 03:00:23 | 00:00:00 | |
| DL1XH-15 | 2026-09-03 00:58:03 | 52.41269 | 11.24557 | 179° | 4km/h | 29958m | -32.4m/s | 0°C | 0% | 0hPa | 2.6V | 02:49:24 | 03:00:19 | 00:00:00 | |
| GOEST3-10 | 2026-09-03 00:58:03 | 52.41263 | 11.24557 | 179° | 7km/h | 29869m | -28.6m/s | 0°C | 0% | 12.6hPa | 2.5V | 00:00:00 | 00:00:00 | 00:00:00 | |
| S3001 | 2026-09-03 00:58:02 | 52.41266 | 11.24557 | 182° | 9km/h | 29898m | -29.9m/s | 0°C | -1.0% | 12.7hPa | 2.5V | 00:00:00 | 00:00:00 | 00:00:00 | |
| SONCRA | 2026-09-03 00:58:01 | 52.41269 | 11.24557 | 179° | 4km/h | 29958m | -32.4m/s | 0°C | -1.0% | 12.6hPa | 2.5V | 00:00:00 | 00:00:00 | 00:00:00 | |
| DO3MHA-11 | 2026-09-03 00:58:00 | 52.41269 | 11.24557 | 180° | 5km/h | 29959m | -32.3m/s | 0°C | 0% | 12.5hPa | 2.5V | 00:00:00 | 03:00:19 | 00:00:00 | |
| DM0DOS-11 | 2026-09-03 00:57:59 | 52.41271 | 11.24558 | 254° | 4km/h | 30081m | -29.3m/s | 0°C | 0% | 0hPa | 2.5V | 02:49:28 | 03:00:15 | 00:00:00 | |
| HSKMA3-T | 2026-09-03 00:57:59 | 52.41270 | 11.24557 | 192° | 4km/h | 29989m | -32.2m/s | -251.2°C | 0% | 12.5hPa | 2.6V | 02:49:31 | 03:00:18 | 00:00:00 | |
| AA1-15 | 2026-09-03 00:57:56 | 52.41271 | 11.24558 | 254° | 4km/h | 30081m | -29.3m/s | -251.2°C | 0% | 12.3hPa | 2.5V | 02:49:31 | 03:00:15 | 00:00:00 | |
| SP3WXH-11 | 2026-09-03 00:57:56 | 52.41272 | 11.24560 | 243° | 4km/h | 30110m | -27.5m/s | 0°C | -1.0% | 12.2hPa | 2.5V | 00:00:00 | 00:00:00 | 00:00:00 | |
| DB0DAN | 2026-09-03 00:57:55 | 52.41272 | 11.24560 | 244° | 5km/h | 30109m | -27.5m/s | -251.2°C | 0% | 12.23hPa | 2.5V | 00:00:00 | 00:00:00 | 00:00:00 | |
| DL1XH-west | 2026-09-03 00:57:54 | 52.41273 | 11.24564 | 251° | 9km/h | 30165m | -29.4m/s | -251.2°C | 0% | 12.1hPa | 2.6V | 02:49:31 | 03:00:12 | 00:00:00 | |
| DL1XH1-15 | 2026-09-03 00:57:53 | 52.41273 | 11.24566 | 266° | 7km/h | 30192m | -28m/s | 0°C | 0% | 0hPa | 2.6V | 02:49:32 | 03:00:11 | 00:00:00 | |
| HTAHTA | 2026-09-03 00:57:51 | 52.41273 | 11.24569 | 297° | 4km/h | 30221m | -29.3m/s | 0°C | -1.0% | 12.0hPa | 2.6V | 00:00:00 | 00:00:00 | 00:00:00 | |
| DD8BA-10 | 2026-09-03 00:57:50 | 52.41272 | 11.24570 | 347° | 9km/h | 30250m | -29.5m/s | 0°C | 0% | 11.9hPa | 2.6V | 00:00:00 | 00:00:00 | 00:00:00 | |
| DO2SHX-10 | 2026-09-03 00:57:49 | 52.41271 | 11.24569 | 22° | 11km/h | 30279m | -28.4m/s | 0°C | 0% | 11.9hPa | 2.6V | 02:49:00 | 03:00:08 | 00:00:00 | |
| DM0DOS-11 | 2026-09-03 00:57:48 | 52.41264 | 11.24560 | 44° | 15km/h | 30367m | -31.9m/s | 0°C | 0% | 0hPa | 2.5V | 02:49:38 | 03:00:05 | 00:00:00 | |
| HSKMA3-T | 2026-09-03 00:57:48 | 52.41269 | 11.24567 | 37° | 11km/h | 30307m | -28.9m/s | -251.2°C | 0% | 11.9hPa | 2.6V | 02:50:22 | 03:00:07 | 00:00:00 | |
| AA1-15 | 2026-09-03 00:57:45 | 52.41261 | 11.24556 | 48° | 15km/h | 30398m | -30.7m/s | -251.2°C | 0% | 11.7hPa | 2.5V | 02:50:22 | 03:00:04 | 00:00:00 | |
| AU51GT2 | 2026-09-03 00:57:44 | 52.41259 | 11.24552 | 44° | 13km/h | 30429m | -32.6m/s | 0°C | -1.0% | -1.0hPa | 2.6V | 00:00:00 | 00:00:00 | 00:00:00 | |
| DL1XH-west | 2026-09-03 00:57:42 | 52.41256 | 11.24547 | 48° | 5km/h | 30491m | -31.9m/s | -251.2°C | 0% | 11.6hPa | 2.6V | 02:50:22 | 03:00:01 | 00:00:00 | |
| DL1XH-15 | 2026-09-03 00:57:41 | 52.41254 | 11.24547 | 276° | 2km/h | 30552m | -29.8m/s | 0°C | 0% | 0hPa | 2.5V | 02:49:44 | 02:59:59 | 00:00:00 | |
| DB0DAN | 2026-09-03 00:57:40 | 52.41255 | 11.24547 | 277° | 2km/h | 30552m | -29.8m/s | -251.2°C | 0% | 11.42hPa | 2.5V | 00:00:00 | 00:00:00 | 00:00:00 | |
| HSKMA3-T | 2026-09-03 00:57:37 | 52.41254 | 11.24546 | 65° | 7km/h | 30636m | -27.9m/s | -251.2°C | 0% | 11.3hPa | 2.6V | 02:50:22 | 02:59:56 | 00:00:00 | |
| DM0DOS-11 | 2026-09-03 00:57:37 | 52.41253 | 11.24542 | 62° | 13km/h | 30665m | -30.3m/s | 0°C | 0% | 0hPa | 2.6V | 02:49:48 | 02:59:55 | 00:00:00 | |
| AA1-15 | 2026-09-03 00:57:34 | 52.41249 | 11.24530 | 59° | 22km/h | 30721m | -28.7m/s | -251.2°C | 0% | 11.2hPa | 2.5V | 02:50:22 | 02:59:53 | 00:00:00 | |
| DL1XH-west | 2026-09-03 00:57:31 | 52.41239 | 11.24506 | 47° | 24km/h | 30805m | -27.5m/s | -251.2°C | 0% | 11hPa | 2.6V | 02:50:22 | 02:59:50 | 00:00:00 | |
| DL1XH-15 | 2026-09-03 00:57:31 | 52.41235 | 11.24499 | 44° | 26km/h | 30831m | -25m/s | 0°C | 0% | 0hPa | 2.6V | 02:49:54 | 02:59:49 | 00:00:00 | |
| HSKMA3-T | 2026-09-03 00:57:26 | 52.41217 | 11.24477 | 34° | 18km/h | 30942m | -32m/s | -251.2°C | 0% | 10.8hPa | 2.6V | 02:50:22 | 02:59:45 | 00:00:00 | |
| DB0UT-7 | 2026-09-03 00:57:26 | 52.41217 | 11.24477 | 35° | 20km/h | 30943m | -31.9m/s | 0°C | 0% | 10.8hPa | 2.6V | 00:00:00 | 02:59:45 | 00:00:00 | |
| DL1XH1-15 | 2026-09-03 00:57:25 | 52.41205 | 11.24456 | 62° | 18km/h | 31055m | -26.4m/s | 0°C | 0% | 0hPa | 2.6V | 02:50:02 | 02:59:41 | 00:00:00 | |
| AA1-15 | 2026-09-03 00:57:24 | 52.41207 | 11.24463 | 59° | 16km/h | 31030m | -26.5m/s | -251.2°C | 0% | 10.7hPa | 2.5V | 02:50:22 | 02:59:42 | 00:00:00 | |
| GOEST3-10 | 2026-09-03 00:57:23 | 52.41207 | 11.24463 | 60° | 20km/h | 31030m | -26.5m/s | 0°C | 0% | 10.6hPa | 2.6V | 00:00:00 | 00:00:00 | 00:00:00 | |
| DO2SHX-10 | 2026-09-03 00:57:22 | 52.41205 | 11.24456 | 63° | 20km/h | 31056m | -26.3m/s | 0°C | 0% | 10.5hPa | 2.6V | 02:50:00 | 02:59:41 | 00:00:00 | |
| DM0DOS-11 | 2026-09-03 00:57:21 | 52.41194 | 11.24402 | 77° | 24km/h | 31207m | -27.9m/s | 0°C | 0% | 0hPa | 2.6V | 02:50:08 | 02:59:35 | 00:00:00 | |
| DL1XH-west | 2026-09-03 00:57:21 | 52.41203 | 11.24448 | 68° | 20km/h | 31081m | -27.5m/s | -251.2°C | 0% | 10.6hPa | 2.6V | 02:50:22 | 02:59:40 | 00:00:00 | |
| DL1NUX | 2026-09-03 00:57:21 | 52.41201 | 11.24440 | 69° | 22km/h | 31107m | -24.9m/s | 0°C | 0% | 0hPa | 2.6V | 02:50:04 | 02:59:39 | 00:00:00 | |
| HSKMA3-T | 2026-09-03 00:57:16 | 52.41194 | 11.24402 | 78° | 24km/h | 31207m | -27.9m/s | -251.2°C | 0% | 10.3hPa | 2.6V | 02:50:22 | 02:59:35 | 00:00:00 | |
| DO2SHX-10 | 2026-09-03 00:57:16 | 52.41194 | 11.24402 | 78° | 24km/h | 31208m | -27.9m/s | 0°C | 0% | 10.2hPa | 2.5V | 00:00:00 | 02:59:35 | 00:00:00 | |
| DL1XH1-15 | 2026-09-03 00:57:15 | 52.41193 | 11.24365 | 103° | 20km/h | 31314m | -26.8m/s | 0°C | 0% | 0hPa | 2.5V | 02:50:12 | 02:59:31 | 00:00:00 | |
| AA1-15 | 2026-09-03 00:57:13 | 52.41192 | 11.24373 | 96° | 22km/h | 31288m | -24.6m/s | -251.2°C | 0% | 10.2hPa | 2.5V | 02:50:22 | 02:59:32 | 00:00:00 | |
| SONDE2-11 | 2026-09-03 00:57:13 | 52.41193 | 11.24365 | 103° | 20km/h | 31314m | -26.8m/s | 0°C | -1.0% | 10.2hPa | 2.5V | 00:00:00 | 00:00:00 | 00:00:00 | |
| GOEST3-10 | 2026-09-03 00:57:12 | 52.41193 | 11.24365 | 104° | 20km/h | 31314m | -26.8m/s | 0°C | 0% | 10.1hPa | 2.5V | 02:50:00 | 00:00:00 | 00:00:00 | |
| DL1NUX | 2026-09-03 00:57:11 | 52.41196 | 11.24348 | 118° | 20km/h | 31366m | -26.3m/s | 0°C | 0% | 0hPa | 2.6V | 02:50:14 | 02:59:29 | 00:00:00 | |
| DL1XH-west | 2026-09-03 00:57:11 | 52.41196 | 11.24348 | 118° | 20km/h | 31366m | -26.3m/s | -251.2°C | 0% | 10.1hPa | 2.6V | 02:50:22 | 02:59:29 | 00:00:00 | |
| DM0DOS-11 | 2026-09-03 00:57:10 | 52.41205 | 11.24319 | 105° | 18km/h | 31479m | -31.2m/s | 0°C | 0% | 0hPa | 2.5V | 02:50:18 | 02:59:25 | 00:00:00 | |
| DB0DAN | 2026-09-03 00:57:10 | 52.41196 | 11.24348 | 118° | 20km/h | 31366m | -26.3m/s | -251.2°C | 0% | 10.08hPa | 2.6V | 00:00:00 | 00:00:00 | 00:00:00 | |
| HSKMA3-T | 2026-09-03 00:57:05 | 52.41206 | 11.24311 | 90° | 18km/h | 31511m | -33.9m/s | -251.2°C | 0% | 9.9hPa | 2.6V | 02:50:22 | 02:59:24 | 00:00:00 | |
| DL1XH1-15 | 2026-09-03 00:57:05 | 52.41201 | 11.24292 | 46° | 20km/h | 31614m | -35.3m/s | 0°C | 0% | 0hPa | 2.5V | 02:50:22 | 02:59:21 | 00:00:00 | |
| AA1-15 | 2026-09-03 00:57:03 | 52.41200 | 11.24292 | 47° | 20km/h | 31614m | -35.3m/s | -251.2°C | 0% | 9.7hPa | 2.5V | 02:50:22 | 02:59:21 | 00:00:00 | |
| DF8AY | 2026-09-03 00:57:01 | 52.41196 | 11.24285 | 41° | 20km/h | 31649m | -35.4m/s | -251.2°C | 0% | 9.7hPa | 2.5V | 02:52:55 | 02:59:20 | 00:00:00 | |
| DL1XH-15 | 2026-09-03 00:57:01 | 52.41192 | 11.24279 | 38° | 22km/h | 31683m | -34.9m/s | 0°C | 0% | 0hPa | 2.5V | 02:50:24 | 02:59:19 | 00:00:00 | |
| DL1XH-west | 2026-09-03 00:57:00 | 52.41187 | 11.24272 | 41° | 20km/h | 31717m | -33.1m/s | -251.2°C | 0% | 9.6hPa | 2.6V | 02:51:13 | 02:59:18 | 00:00:00 | |
| SONCRA | 2026-09-03 00:56:59 | 52.41183 | 11.24266 | 50° | 22km/h | 31749m | -31.5m/s | 0°C | -1.0% | 9.5hPa | 2.6V | 00:00:00 | 00:00:00 | 00:00:00 | |
| DO2SHX-10 | 2026-09-03 00:56:58 | 52.41183 | 11.24266 | 51° | 20km/h | 31749m | -31.5m/s | 0°C | 0% | 9.5hPa | 2.6V | 00:00:00 | 02:59:17 | 00:00:00 | |
| GOEST3-10 | 2026-09-03 00:56:57 | 52.41179 | 11.24259 | 55° | 22km/h | 31780m | -30.1m/s | 0°C | 0% | 9.5hPa | 2.6V | 02:50:00 | 02:59:16 | 00:00:00 | |
| DF7ER-10 | 2026-09-03 00:56:56 | 52.41179 | 11.24259 | 56° | 20km/h | 31780m | -30.1m/s | 0°C | 0% | 9.5hPa | 2.5V | 02:51:00 | 00:00:00 | 00:00:00 | |
| DB0DAN | 2026-09-03 00:56:55 | 52.41175 | 11.24244 | 77° | 22km/h | 31837m | -27.1m/s | -251.2°C | 0% | 9.43hPa | 2.5V | 00:00:00 | 00:00:00 | 00:00:00 | |
| DL1XH1-15 | 2026-09-03 00:56:55 | 52.41175 | 11.24213 | 106° | 26km/h | 31920m | -27.2m/s | 0°C | 0% | 0hPa | 2.6V | 02:50:32 | 02:59:11 | 00:00:00 | |
| HSKMA3-T | 2026-09-03 00:56:55 | 52.41174 | 11.24224 | 98° | 26km/h | 31892m | -28.8m/s | -251.2°C | 0% | 9.3hPa | 2.6V | 02:51:13 | 02:59:12 | 00:00:00 | |
| AA1-15 | 2026-09-03 00:56:51 | 52.41176 | 11.24203 | 108° | 26km/h | 31944m | -21.5m/s | -251.2°C | 0% | 9.2hPa | 2.5V | 02:51:13 | 02:59:10 | 00:00:00 | |
| DL1NUX | 2026-09-03 00:56:51 | 52.41178 | 11.24193 | 101° | 26km/h | 31966m | -22.7m/s | 0°C | 0% | 0hPa | 2.5V | 02:50:34 | 02:59:09 | 00:00:00 | |
| DM0DOS-11 | 2026-09-03 00:56:50 | 52.41183 | 11.24149 | 101° | 26km/h | 32073m | -27.8m/s | 0°C | 0% | 0hPa | 2.6V | 02:50:38 | 02:59:05 | 00:00:00 | |
| DL1XH-west | 2026-09-03 00:56:49 | 52.41181 | 11.24170 | 105° | 27km/h | 32017m | -28.3m/s | -251.2°C | 0% | 9.2hPa | 2.6V | 02:51:13 | 02:59:07 | 00:00:00 | |
| DF8AY | 2026-09-03 00:56:49 | 52.41179 | 11.24182 | 100° | 27km/h | 31991m | -27.5m/s | -251.2°C | 0% | 9.2hPa | 2.5V | 02:52:55 | 02:59:08 | 00:00:00 | |
| DO2SHX-10 | 2026-09-03 00:56:49 | 52.41179 | 11.24182 | 101° | 27km/h | 31991m | -27.4m/s | 0°C | 0% | 9.1hPa | 2.6V | 00:00:00 | 02:59:08 | 00:00:00 | |
| DB0NH | 2026-09-03 00:56:48 | 52.41180 | 11.24170 | 105° | 24km/h | 32018m | -28.2m/s | 0°C | 0% | 9.1hPa | 2.6V | 00:00:00 | 02:59:07 | 00:00:00 | |
| GOEST3-10 | 2026-09-03 00:56:47 | 52.41182 | 11.24160 | 104° | 24km/h | 32046m | -28.1m/s | 0°C | 0% | 9.0hPa | 2.6V | 00:00:00 | 02:59:06 | 00:00:00 | |
| DO2SHX-10 | 2026-09-03 00:56:46 | 52.41183 | 11.24149 | 102° | 24km/h | 32074m | -27.8m/s | 0°C | 0% | 9.1hPa | 2.6V | 02:50:00 | 02:59:05 | 00:00:00 | |
| DF7ER-10 | 2026-09-03 00:56:45 | 52.41183 | 11.24149 | 102° | 26km/h | 32074m | -27.8m/s | 0°C | 0% | 9.1hPa | 2.6V | 02:51:00 | 00:00:00 | 00:00:00 | |
| DL1XH1-15 | 2026-09-03 00:56:44 | 52.41180 | 11.24114 | 70° | 16km/h | 32187m | -30.6m/s | 0°C | 0% | 0hPa | 2.6V | 02:50:42 | 02:59:01 | 00:00:00 | |
| HSKMA3-T | 2026-09-03 00:56:42 | 52.41180 | 11.24114 | 70° | 16km/h | 32187m | -30.7m/s | -251.2°C | 0% | 8.9hPa | 2.6V | 02:51:13 | 02:59:01 | 00:00:00 | |
| GOEST3-10 | 2026-09-03 00:56:42 | 52.41180 | 11.24114 | 71° | 16km/h | 32187m | -30.6m/s | 0°C | 0% | 8.9hPa | 2.6V | 02:50:00 | 00:00:00 | 00:00:00 | |
| DL1XH-15 | 2026-09-03 00:56:41 | 52.41177 | 11.24101 | 59° | 16km/h | 32245m | -28m/s | 0°C | 0% | 0hPa | 2.5V | 02:50:44 | 02:58:59 | 00:00:00 | |
| AA1-15 | 2026-09-03 00:56:40 | 52.41177 | 11.24101 | 59° | 16km/h | 32245m | -28m/s | -251.2°C | 0% | 8.8hPa | 2.5V | 02:51:13 | 02:58:59 | 00:00:00 | |
| DB0DAN | 2026-09-03 00:56:40 | 52.41177 | 11.24101 | 59° | 15km/h | 32245m | -28m/s | -251.2°C | 0% | 8.85hPa | 2.5V | 00:00:00 | 00:00:00 | 00:00:00 | |
| DF8AY | 2026-09-03 00:56:39 | 52.41175 | 11.24096 | 59° | 15km/h | 32273m | -27.3m/s | -251.2°C | 0% | 8.8hPa | 2.5V | 02:52:55 | 02:58:58 | 00:00:00 | |
| TFSTFS | 2026-09-03 00:56:39 | 52.41175 | 11.24095 | 60° | 15km/h | 32273m | -27.3m/s | 0°C | 0% | 8.8hPa | 2.6V | 00:00:00 | 00:00:00 | 00:00:00 | |
| DM0DOS-11 | 2026-09-03 00:56:38 | 52.41170 | 11.24077 | 72° | 20km/h | 32357m | -28.1m/s | 0°C | 0% | 0hPa | 2.6V | 02:50:48 | 02:58:55 | 00:00:00 | |
| DL1XH-west | 2026-09-03 00:56:38 | 52.41171 | 11.24084 | 70° | 16km/h | 32329m | -28.2m/s | -251.2°C | 0% | 8.8hPa | 2.6V | 02:51:13 | 02:58:56 | 00:00:00 | |
| HSKMA3-T | 2026-09-03 00:56:32 | 52.41167 | 11.24036 | 90° | 29km/h | 32482m | -33.4m/s | -251.2°C | 0% | 8.5hPa | 2.6V | 02:51:13 | 02:58:51 | 00:00:00 | |
| GOEST3-10 | 2026-09-03 00:56:32 | 52.41167 | 11.24036 | 91° | 27km/h | 32483m | -33.3m/s | 0°C | 0% | 8.5hPa | 2.6V | 00:00:00 | 00:00:00 | 00:00:00 | |
| DL1NUX | 2026-09-03 00:56:31 | 52.41167 | 11.24012 | 93° | 27km/h | 32541m | -27.3m/s | 0°C | 0% | 0hPa | 2.6V | 02:50:54 | 02:58:49 | 00:00:00 | |
| DF8AY | 2026-09-03 00:56:29 | 52.41168 | 11.24001 | 97° | 26km/h | 32567m | -26.8m/s | -251.2°C | 0% | 8.4hPa | 2.5V | 02:52:55 | 02:58:48 | 00:00:00 | |
| DM0DOS-11 | 2026-09-03 00:56:28 | 52.41168 | 11.23973 | 82° | 24km/h | 32647m | -27.1m/s | 0°C | 0% | 0hPa | 2.6V | 02:50:58 | 02:58:45 | 00:00:00 | |
| DL1XH-west | 2026-09-03 00:56:27 | 52.41169 | 11.23981 | 85° | 24km/h | 32620m | -28.5m/s | -251.2°C | 0% | 8.3hPa | 2.6V | 02:51:13 | 02:58:46 | 00:00:00 | |
| DO3MHA-11 | 2026-09-03 00:56:27 | 52.41169 | 11.23981 | 86° | 22km/h | 32621m | -28.4m/s | 0°C | 0% | 8.3hPa | 2.6V | 02:50:00 | 02:58:46 | 00:00:00 | |
| DB0DAN | 2026-09-03 00:56:25 | 52.41167 | 11.23963 | 77° | 24km/h | 32674m | -27.5m/s | -251.2°C | 0% | 8.27hPa | 2.6V | 00:00:00 | 00:00:00 | 00:00:00 | |
| DO2SHX-10 | 2026-09-03 00:56:25 | 52.41167 | 11.23963 | 78° | 27km/h | 32675m | -27.5m/s | 0°C | 0% | 8.2hPa | 2.5V | 00:00:00 | 02:58:44 | 00:00:00 | |
| DL1XH1-15 | 2026-09-03 00:56:24 | 52.41162 | 11.23928 | 76° | 31km/h | 32756m | -26.2m/s | 0°C | 0% | 0hPa | 2.5V | 02:51:02 | 02:58:41 | 00:00:00 | |
| HSKMA3-T | 2026-09-03 00:56:21 | 52.41161 | 11.23916 | 82° | 31km/h | 32783m | -29.8m/s | -251.2°C | 0% | 8.2hPa | 2.5V | 02:51:13 | 02:58:40 | 00:00:00 | |
| AA1-15 | 2026-09-03 00:56:19 | 52.41160 | 11.23889 | 88° | 31km/h | 32847m | -35.4m/s | -251.2°C | 0% | 8.1hPa | 2.6V | 02:51:13 | 02:58:38 | 00:00:00 | |
| DO2SHX-10 | 2026-09-03 00:56:19 | 52.41160 | 11.23889 | 88° | 29km/h | 32847m | -35.4m/s | 0°C | 0% | 8.0hPa | 2.6V | 02:51:00 | 02:58:38 | 00:00:00 | |
| DM0DOS-11 | 2026-09-03 00:56:18 | 52.41158 | 11.23854 | 89° | 22km/h | 32935m | -26.8m/s | 0°C | 0% | 0hPa | 2.5V | 02:51:08 | 02:58:35 | 00:00:00 | |
| DL1XH-west | 2026-09-03 00:56:16 | 52.41158 | 11.23854 | 90° | 22km/h | 32935m | -26.8m/s | -251.2°C | 0% | 8hPa | 2.5V | 02:51:13 | 02:58:35 | 00:00:00 | |
| DO2SHX-10 | 2026-09-03 00:56:16 | 52.41158 | 11.23854 | 90° | 20km/h | 32935m | -26.7m/s | 0°C | 0% | 7.9hPa | 2.6V | 00:00:00 | 02:58:35 | 00:00:00 | |
| DL1XH1-15 | 2026-09-03 00:56:14 | 52.41156 | 11.23825 | 69° | 18km/h | 33046m | -29.6m/s | 0°C | 0% | 0hPa | 2.6V | 02:51:12 | 02:58:31 | 00:00:00 | |
| DF8AY | 2026-09-03 00:56:13 | 52.41157 | 11.23832 | 80° | 18km/h | 33017m | -29.5m/s | -251.2°C | 0% | 7.9hPa | 2.6V | 02:52:55 | 02:58:32 | 00:00:00 | |
| HSKMA3-T | 2026-09-03 00:56:11 | 52.41155 | 11.23817 | 79° | 16km/h | 33078m | -34.7m/s | -251.2°C | 0% | 7.8hPa | 2.5V | 02:51:13 | 02:58:30 | 00:00:00 | |
| DL1NUX | 2026-09-03 00:56:11 | 52.41154 | 11.23810 | 67° | 18km/h | 33113m | -39.1m/s | 0°C | 0% | 0hPa | 2.5V | 02:51:14 | 02:58:29 | 00:00:00 | |
| DB0DAN | 2026-09-03 00:56:10 | 52.41154 | 11.23810 | 67° | 16km/h | 33113m | -39.1m/s | -251.2°C | 0% | 7.78hPa | 2.5V | 00:00:00 | 00:00:00 | 00:00:00 | |
| AA1-15 | 2026-09-03 00:56:08 | 52.41149 | 11.23795 | 64° | 16km/h | 33195m | -42.7m/s | -251.2°C | 0% | 7.7hPa | 2.6V | 02:52:04 | 02:58:27 | 00:00:00 | |
| DO3MHA-11 | 2026-09-03 00:56:08 | 52.41149 | 11.23795 | 65° | 18km/h | 33195m | -42.7m/s | 0°C | 0% | 7.6hPa | 2.5V | 00:00:00 | 02:58:27 | 00:00:00 | |
| DO2SHX-10 | 2026-09-03 00:56:07 | 52.41147 | 11.23789 | 56° | 18km/h | 33238m | -43.0m/s | 0°C | 0% | 7.6hPa | 2.5V | 00:00:00 | 02:58:26 | 00:00:00 | |
| 13BRC | 2026-09-03 00:56:06 | 52.41145 | 11.23782 | 53° | 18km/h | 33281m | -43.0m/s | 0°C | 0% | 7.6hPa | 2.5V | 02:52:00 | 00:00:00 | 00:00:00 | |
| DL1XH-west | 2026-09-03 00:56:06 | 52.41139 | 11.23771 | 51° | 16km/h | 33360m | -36.4m/s | -251.2°C | 0% | 7.5hPa | 2.5V | 02:52:04 | 02:58:23 | 00:00:00 | |
| AM1SDL-15 | 2026-09-03 00:56:05 | 52.41142 | 11.23777 | 56° | 22km/h | 33323m | -40.7m/s | 0°C | 0% | 7.5hPa | 2.5V | 00:00:00 | 02:58:24 | 00:00:00 | |
| DO2SHX-10 | 2026-09-03 00:56:04 | 52.41139 | 11.23771 | 52° | 18km/h | 33361m | -36.3m/s | 0°C | 0% | 7.4hPa | 2.5V | 00:00:00 | 02:58:23 | 00:00:00 | |
| DF7ER-10 | 2026-09-03 00:56:03 | 52.41139 | 11.23771 | 52° | 16km/h | 33361m | -36.4m/s | 0°C | 0% | 7.5hPa | 2.5V | 02:52:00 | 00:00:00 | 00:00:00 | |
| GOEST3-10 | 2026-09-03 00:56:02 | 52.41134 | 11.23759 | 67° | 22km/h | 33427m | -31.9m/s | 0°C | 0% | 7.3hPa | 2.5V | 00:00:00 | 00:00:00 | 00:00:00 | |
| DL1XH-15 | 2026-09-03 00:56:01 | 52.41134 | 11.23743 | 100° | 22km/h | 33495m | -38.9m/s | 0°C | 0% | 0hPa | 2.5V | 02:51:24 | 02:58:19 | 00:00:00 | |
| HSKMA3-T | 2026-09-03 00:56:01 | 52.41133 | 11.23752 | 86° | 20km/h | 33459m | -34.5m/s | -251.2°C | 0% | 7.4hPa | 2.6V | 02:52:04 | 02:58:20 | 00:00:00 | |
| EDDB2-11 | 2026-09-03 00:55:59 | 52.41138 | 11.23724 | 114° | 27km/h | 33574m | -38.9m/s | 0°C | -1.0% | 7.2hPa | 2.6V | 00:00:00 | 00:00:00 | 00:00:00 | |
| DM0DOS-11 | 2026-09-03 00:55:58 | 52.41144 | 11.23703 | 118° | 29km/h | 33645m | -33.8m/s | 0°C | 0% | 0hPa | 2.6V | 02:51:28 | 02:58:15 | 00:00:00 | |
| AA1-15 | 2026-09-03 00:55:57 | 52.41141 | 11.23714 | 117° | 27km/h | 33610m | -34.8m/s | -251.2°C | 0% | 7.2hPa | 2.6V | 02:52:04 | 02:58:16 | 00:00:00 | |
| SONCRA | 2026-09-03 00:55:56 | 52.41157 | 11.23665 | 109° | 22km/h | 33792m | -36.5m/s | 0°C | -1.0% | 7.0hPa | 2.6V | 00:00:00 | 00:00:00 | 00:00:00 | |
| DB0DAN | 2026-09-03 00:55:55 | 52.41148 | 11.23693 | 127° | 27km/h | 33680m | -37.5m/s | -251.2°C | 0% | 7.09hPa | 2.6V | 00:00:00 | 00:00:00 | 00:00:00 | |
| DL1XH-west | 2026-09-03 00:55:54 | 52.41155 | 11.23674 | 117° | 26km/h | 33755m | -38.7m/s | -251.2°C | 0% | 7hPa | 2.5V | 02:52:04 | 02:58:12 | 00:00:00 | |
| DL1XH1-15 | 2026-09-03 00:55:54 | 52.41158 | 11.23665 | 109° | 22km/h | 33791m | -36.5m/s | 0°C | 0% | 0hPa | 2.6V | 02:51:32 | 02:58:11 | 00:00:00 | |
| DF8AY | 2026-09-03 00:55:51 | 52.41143 | 11.23604 | 56° | 31km/h | 34018m | -38.3m/s | -251.2°C | 0% | 6.8hPa | 2.6V | 02:52:55 | 02:58:05 | 00:00:00 | |
| DL1XH-15 | 2026-09-03 00:55:51 | 52.41158 | 11.23647 | 75° | 24km/h | 33861m | -38.6m/s | 0°C | 0% | 0hPa | 2.6V | 02:51:34 | 02:58:09 | 00:00:00 | |
| HSKMA3-T | 2026-09-03 00:55:50 | 52.41158 | 11.23647 | 76° | 24km/h | 33861m | -38.6m/s | -251.2°C | 0% | 6.9hPa | 2.6V | 02:52:04 | 02:58:09 | 00:00:00 | |
| DG6HD-11 | 2026-09-03 00:55:50 | 52.41158 | 11.23647 | 76° | 24km/h | 33862m | -38.6m/s | 0°C | 0% | 0hPa | 2.6V | 00:00:00 | 00:00:00 | 00:00:00 | |
| DO2SHX-10 | 2026-09-03 00:55:49 | 52.41156 | 11.23636 | 61° | 31km/h | 33902m | -42.3m/s | 0°C | 0% | 6.9hPa | 2.6V | 00:00:00 | 02:58:08 | 00:00:00 | |
| DM0DOS-11 | 2026-09-03 00:55:48 | 52.41143 | 11.23604 | 55° | 31km/h | 34018m | -38.3m/s | 0°C | 0% | 0hPa | 2.6V | 02:51:38 | 02:58:05 | 00:00:00 | |
| AA1-15 | 2026-09-03 00:55:47 | 52.41148 | 11.23615 | 55° | 31km/h | 33981m | -39.2m/s | -251.2°C | 0% | 6.8hPa | 2.6V | 02:52:04 | 02:58:06 | 00:00:00 | |
| HTAHTA | 2026-09-03 00:55:47 | 52.41139 | 11.23593 | 58° | 31km/h | 34055m | -36.9m/s | 0°C | -1.0% | 6.7hPa | 2.5V | 00:00:00 | 00:00:00 | 00:00:00 | |
| DO2SHX-10 | 2026-09-03 00:55:46 | 52.41143 | 11.23604 | 56° | 31km/h | 34018m | -38.3m/s | 0°C | 0% | 6.7hPa | 2.5V | 00:00:00 | 02:58:05 | 00:00:00 | |
| DL1XH1-15 | 2026-09-03 00:55:44 | 52.41130 | 11.23561 | 84° | 24km/h | 34159m | -35.1m/s | 0°C | 0% | 0hPa | 2.5V | 02:51:42 | 02:58:01 | 00:00:00 | |
| DL1XH-west | 2026-09-03 00:55:44 | 52.41132 | 11.23571 | 75° | 27km/h | 34124m | -35.3m/s | -251.2°C | 0% | 6.7hPa | 2.6V | 02:52:04 | 02:58:02 | 00:00:00 | |
| DO2SHX-10 | 2026-09-03 00:55:43 | 52.41132 | 11.23571 | 76° | 24km/h | 34124m | -35.2m/s | 0°C | 0% | 6.6hPa | 2.6V | 02:51:00 | 02:58:02 | 00:00:00 | |
| GOEST3-10 | 2026-09-03 00:55:42 | 52.41130 | 11.23560 | 85° | 24km/h | 34160m | -35.0m/s | 0°C | 0% | 6.5hPa | 2.5V | 02:51:00 | 00:00:00 | 00:00:00 | |
| DB0DAN | 2026-09-03 00:55:40 | 52.41130 | 11.23542 | 98° | 20km/h | 34221m | -26.3m/s | -251.2°C | 0% | 6.51hPa | 2.5V | 00:00:00 | 00:00:00 | 00:00:00 | |
| HSKMA3-T | 2026-09-03 00:55:39 | 52.41131 | 11.23532 | 105° | 22km/h | 34246m | -24.6m/s | -251.2°C | 0% | 6.5hPa | 2.6V | 02:52:04 | 02:57:58 | 00:00:00 | |
| DM0DOS-11 | 2026-09-03 00:55:38 | 52.41133 | 11.23498 | 85° | 33km/h | 34338m | -37.5m/s | 0°C | 0% | 0hPa | 2.5V | 02:51:48 | 02:57:55 | 00:00:00 | |
| AA1-15 | 2026-09-03 00:55:38 | 52.41134 | 11.23511 | 95° | 29km/h | 34303m | -33.4m/s | -251.2°C | 0% | 6.5hPa | 2.6V | 02:52:04 | 02:57:56 | 00:00:00 | |
| DL1XH-west | 2026-09-03 00:55:33 | 52.41125 | 11.23445 | 59° | 29km/h | 34485m | -40.5m/s | -251.2°C | 0% | 6.3hPa | 2.6V | 02:52:04 | 02:57:51 | 00:00:00 | |
| GOEST3-10 | 2026-09-03 00:55:32 | 52.41125 | 11.23445 | 60° | 24km/h | 34486m | -40.4m/s | 0°C | 0% | 6.3hPa | 2.5V | 00:00:00 | 00:00:00 | 00:00:00 | |
| DL1XH-15 | 2026-09-03 00:55:31 | 52.41117 | 11.23428 | 47° | 24km/h | 34563m | -38.6m/s | 0°C | 0% | 0hPa | 2.5V | 02:51:54 | 02:57:49 | 00:00:00 | |
| HSKMA3-T | 2026-09-03 00:55:28 | 52.41109 | 11.23417 | 24° | 18km/h | 34640m | -35.3m/s | -251.2°C | 0% | 6.2hPa | 2.6V | 02:52:04 | 02:57:47 | 00:00:00 | |
| DO2SHX-10 | 2026-09-03 00:55:28 | 52.41108 | 11.23417 | 24° | 16km/h | 34640m | -35.2m/s | 0°C | 0% | 6.1hPa | 2.6V | 00:00:00 | 02:57:47 | 00:00:00 | |
| DM0DOS-11 | 2026-09-03 00:55:27 | 52.41100 | 11.23412 | 19° | 15km/h | 34708m | -33.9m/s | 0°C | 0% | 0hPa | 2.6V | 02:51:58 | 02:57:45 | 00:00:00 | |
| AA1-15 | 2026-09-03 00:55:27 | 52.41104 | 11.23414 | 20° | 16km/h | 34674m | -34.1m/s | -251.2°C | 0% | 6.1hPa | 2.6V | 02:52:04 | 02:57:46 | 00:00:00 | |
| GOEST3-10 | 2026-09-03 00:55:27 | 52.41104 | 11.23414 | 20° | 18km/h | 34675m | -34.0m/s | 0°C | 0% | 6.1hPa | 2.6V | 02:51:00 | 02:57:46 | 00:00:00 | |
| DK9SH | 2026-09-03 00:55:26 | 52.41105 | 11.23414 | 21° | 16km/h | 34675m | -34.1m/s | 0°C | 0% | 6.1hPa | 2.5V | 00:00:00 | 00:00:00 | 00:00:00 | |
| DB0DAN | 2026-09-03 00:55:25 | 52.41096 | 11.23410 | 16° | 18km/h | 34743m | -34.9m/s | -251.2°C | 0% | 6.04hPa | 2.5V | 00:00:00 | 00:00:00 | 00:00:00 | |
| DF8AY | 2026-09-03 00:55:24 | 52.41092 | 11.23408 | 18° | 18km/h | 34776m | -35.9m/s | -251.2°C | 0% | 6hPa | 2.5V | 02:52:55 | 02:57:43 | 00:00:00 | |
| DL1XH1-15 | 2026-09-03 00:55:24 | 52.41082 | 11.23403 | 23° | 20km/h | 34837m | -31m/s | 0°C | 0% | 0hPa | 2.6V | 02:52:02 | 02:57:41 | 00:00:00 | |
| DL1XH-west | 2026-09-03 00:55:22 | 52.41082 | 11.23403 | 24° | 20km/h | 34837m | -31m/s | -251.2°C | 0% | 5.9hPa | 2.6V | 02:52:04 | 02:57:41 | 00:00:00 | |
| DO2SHX-10 | 2026-09-03 00:55:22 | 52.41082 | 11.23403 | 24° | 20km/h | 34838m | -31.0m/s | 0°C | 0% | 5.9hPa | 2.5V | 00:00:00 | 02:57:41 | 00:00:00 | |
| DL1XH-15 | 2026-09-03 00:55:21 | 52.41073 | 11.23393 | 37° | 18km/h | 34893m | -28.1m/s | 0°C | 0% | 0hPa | 2.5V | 02:52:04 | 02:57:39 | 00:00:00 | |
| HSKMA3-T | 2026-09-03 00:55:18 | 52.41070 | 11.23382 | 103° | 15km/h | 34956m | -36.1m/s | -251.2°C | 0% | 5.8hPa | 2.6V | 02:52:55 | 02:57:37 | 00:00:00 | |
| AA1-15 | 2026-09-03 00:55:16 | 52.41074 | 11.23371 | 140° | 18km/h | 35026m | -34.7m/s | -251.2°C | 0% | 5.8hPa | 2.6V | 02:52:55 | 02:57:35 | 00:00:00 | |
| HTAHTA | 2026-09-03 00:55:16 | 52.41081 | 11.23363 | 160° | 18km/h | 35093m | -35.3m/s | 0°C | -1.0% | 5.8hPa | 2.5V | 00:00:00 | 00:00:00 | 00:00:00 | |
| DL1XH1-15 | 2026-09-03 00:55:14 | 52.41090 | 11.23359 | 170° | 18km/h | 35160m | -32.6m/s | 0°C | 0% | 0hPa | 2.5V | 02:52:12 | 02:57:31 | 00:00:00 | |
| DF8AY | 2026-09-03 00:55:13 | 52.41085 | 11.23361 | 160° | 16km/h | 35127m | -34m/s | -251.2°C | 0% | 5.7hPa | 2.5V | 02:52:55 | 02:57:32 | 00:00:00 | |
| DL1XH-west | 2026-09-03 00:55:11 | 52.41094 | 11.23358 | 179° | 18km/h | 35192m | -32.7m/s | -251.2°C | 0% | 5.6hPa | 2.5V | 02:52:55 | 02:57:30 | 00:00:00 | |
| DB0DAN | 2026-09-03 00:55:10 | 52.41098 | 11.23358 | 188° | 11km/h | 35225m | -33.8m/s | -251.2°C | 0% | 5.66hPa | 2.6V | 00:00:00 | 00:00:00 | 00:00:00 | |
| HSKMA3-T | 2026-09-03 00:55:07 | 52.41107 | 11.23358 | 168° | 15km/h | 35336m | -38.4m/s | -251.2°C | 0% | 5.5hPa | 2.5V | 02:52:55 | 02:57:26 | 00:00:00 | |
| AA1-15 | 2026-09-03 00:55:06 | 52.41113 | 11.23350 | 121° | 16km/h | 35411m | -37.3m/s | -251.2°C | 0% | 5.5hPa | 2.6V | 02:52:55 | 02:57:24 | 00:00:00 | |
| DL1XH-west | 2026-09-03 00:55:01 | 52.41112 | 11.23303 | 69° | 29km/h | 35613m | -42.1m/s | -251.2°C | 0% | 5.4hPa | 2.5V | 02:52:55 | 02:57:19 | 00:00:00 | |
| HSKMA3-T | 2026-09-03 00:54:57 | 52.41106 | 11.23269 | 74° | 27km/h | 35741m | -42.3m/s | -251.2°C | 0% | 5.3hPa | 2.6V | 02:52:55 | 02:57:16 | 00:00:00 | |
| EDDB2-11 | 2026-09-03 00:54:57 | 52.41105 | 11.23258 | 92° | 26km/h | 35784m | -43.7m/s | 0°C | -1.0% | 5.2hPa | 2.5V | 00:00:00 | 00:00:00 | 00:00:00 | |
| DB0UT-7 | 2026-09-03 00:54:56 | 52.41105 | 11.23258 | 93° | 33km/h | 35784m | -43.7m/s | 0°C | 0% | 5.2hPa | 2.5V | 02:52:00 | 00:00:00 | 00:00:00 | |
| DM0DOS-11 | 2026-09-03 00:54:55 | 52.41108 | 11.23234 | 107° | 33km/h | 35865m | -37.9m/s | 0°C | 0% | 0hPa | 2.6V | 02:52:30 | 02:57:13 | 00:00:00 | |
| DB0DAN | 2026-09-03 00:54:55 | 52.41106 | 11.23247 | 100° | 29km/h | 35826m | -43m/s | -251.2°C | 0% | 5.16hPa | 2.5V | 00:00:00 | 00:00:00 | 00:00:00 | |
| DL1XH-15 | 2026-09-03 00:54:55 | 52.41124 | 11.23176 | 118° | 38km/h | 36019m | -40.1m/s | 0°C | 0% | 0hPa | 2.5V | 02:52:34 | 02:57:09 | 00:00:00 | |
| AA1-15 | 2026-09-03 00:54:54 | 52.41108 | 11.23234 | 107° | 33km/h | 35865m | -37.9m/s | -251.2°C | 0% | 5.2hPa | 2.6V | 02:52:55 | 02:57:13 | 00:00:00 | |
| DL1XH1-15 | 2026-09-03 00:54:54 | 52.41115 | 11.23206 | 115° | 40km/h | 35944m | -39.9m/s | 0°C | 0% | 0hPa | 2.6V | 02:52:32 | 02:57:11 | 00:00:00 | |
| DL1XH-west | 2026-09-03 00:54:51 | 52.41124 | 11.23176 | 118° | 40km/h | 36019m | -40.1m/s | -251.2°C | 0% | 5hPa | 2.5V | 02:52:55 | 02:57:09 | 00:00:00 | |
| HSKMA3-T | 2026-09-03 00:54:46 | 52.41139 | 11.23136 | 121° | 20km/h | 36189m | -38.5m/s | -251.2°C | 0% | 4.9hPa | 2.6V | 02:52:55 | 02:57:05 | 00:00:00 | |
| DO2SHX-10 | 2026-09-03 00:54:46 | 52.41139 | 11.23136 | 122° | 20km/h | 36190m | -38.5m/s | 0°C | 0% | 4.8hPa | 2.6V | 00:00:00 | 02:57:05 | 00:00:00 | |
| DL1NUX | 2026-09-03 00:54:45 | 52.41158 | 11.23101 | 114° | 26km/h | 36378m | -34.2m/s | 0°C | 0% | 0hPa | 2.6V | 02:52:44 | 02:56:59 | 00:00:00 | |
| AA1-15 | 2026-09-03 00:54:44 | 52.41144 | 11.23123 | 136° | 18km/h | 36258m | -33.5m/s | -251.2°C | 0% | 4.8hPa | 2.5V | 02:52:55 | 02:57:03 | 00:00:00 | |
| DL1XH1-15 | 2026-09-03 00:54:44 | 52.41151 | 11.23114 | 141° | 18km/h | 36318m | -28m/s | 0°C | 0% | 0hPa | 2.5V | 02:52:42 | 02:57:01 | 00:00:00 | |
| DO2SHX-10 | 2026-09-03 00:54:43 | 52.41148 | 11.23119 | 141° | 16km/h | 36290m | -31.8m/s | 0°C | 0% | 4.7hPa | 2.5V | 00:00:00 | 02:57:02 | 00:00:00 | |
| GOEST3-10 | 2026-09-03 00:54:42 | 52.41151 | 11.23114 | 142° | 26km/h | 36319m | -27.9m/s | 0°C | 0% | 4.7hPa | 2.5V | 02:52:00 | 00:00:00 | 00:00:00 | |
| DB0DAN | 2026-09-03 00:54:40 | 52.41158 | 11.23101 | 115° | 26km/h | 36378m | -34.2m/s | -251.2°C | 0% | 4.77hPa | 2.6V | 00:00:00 | 00:00:00 | 00:00:00 | |
| DF8AY | 2026-09-03 00:54:40 | 52.41160 | 11.23091 | 100° | 31km/h | 36412m | -37.7m/s | -251.2°C | 0% | 4.7hPa | 2.6V | 02:52:55 | 02:56:58 | 00:00:00 | |
| DJ2DS-15 | 2026-09-03 00:54:39 | 52.41161 | 11.23077 | 94° | 35km/h | 36450m | -38.0m/s | 0°C | -1.0% | 4.7hPa | 2.5V | 00:00:00 | 00:00:00 | 00:00:00 | |
| PG1ADW-2 | 2026-09-03 00:54:38 | 52.41161 | 11.23077 | 95° | 35km/h | 36450m | -38.0m/s | 0°C | 0% | 4.7hPa | 2.5V | 00:00:00 | 00:00:00 | 00:00:00 | |
| DO2SHX-10 | 2026-09-03 00:54:37 | 52.41161 | 11.23062 | 92° | 40km/h | 36486m | -33.2m/s | 0°C | 0% | 4.6hPa | 2.5V | 00:00:00 | 02:56:56 | 00:00:00 | |
| DJ8HS-15 | 2026-09-03 00:54:36 | 52.41162 | 11.23046 | 89° | 35km/h | 36516m | -28.8m/s | 0°C | 0% | 4.6hPa | 2.5V | 00:00:00 | 02:56:55 | 00:00:00 | |
| HSKMA3-T | 2026-09-03 00:54:36 | 52.41161 | 11.23029 | 87° | 42km/h | 36543m | -25.4m/s | -251.2°C | 0% | 4.6hPa | 2.6V | 02:52:55 | 02:56:54 | 00:00:00 | |
| SP3BTT-10 | 2026-09-03 00:54:35 | 52.41161 | 11.23029 | 87° | 37km/h | 36543m | -25.3m/s | 0°C | 0% | 4.5hPa | 2.5V | 00:00:00 | 00:00:00 | 00:00:00 | |
| DL1XH1-15 | 2026-09-03 00:54:34 | 52.41161 | 11.22978 | 97° | 38km/h | 36625m | -28.5m/s | 0°C | 0% | 0hPa | 2.5V | 02:52:52 | 02:56:51 | 00:00:00 | |
| AA1-15 | 2026-09-03 00:54:33 | 52.41160 | 11.22994 | 93° | 42km/h | 36596m | -30.1m/s | -251.2°C | 0% | 4.6hPa | 2.5V | 02:52:55 | 02:56:52 | 00:00:00 | |
| DL1XH-west | 2026-09-03 00:54:29 | 52.41176 | 11.22950 | 176° | 38km/h | 36710m | -32.8m/s | -251.2°C | 0% | 4.5hPa | 2.6V | 02:52:55 | 02:56:48 | 00:00:00 | |
| DF8AY | 2026-09-03 00:54:29 | 52.41187 | 11.22952 | 189° | 47km/h | 36742m | -33.1m/s | -251.2°C | 0% | 4.5hPa | 2.6V | 02:53:46 | 02:56:47 | 00:00:00 | |
| HSKMA3-T | 2026-09-03 00:54:25 | 52.41225 | 11.22968 | 191° | 46km/h | 36847m | -39.8m/s | -251.2°C | 0% | 4.4hPa | 2.5V | 02:53:46 | 02:56:44 | 00:00:00 | |
| DB0DAN | 2026-09-03 00:54:25 | 52.41225 | 11.22968 | 191° | 44km/h | 36847m | -39.8m/s | -251.2°C | 0% | 4.37hPa | 2.5V | 00:00:00 | 00:00:00 | 00:00:00 | |
| DL1XH1-15 | 2026-09-03 00:54:24 | 52.41248 | 11.22968 | 141° | 20km/h | 36969m | -41.7m/s | 0°C | 0% | 0hPa | 2.6V | 02:53:02 | 02:56:41 | 00:00:00 | |
| AA1-15 | 2026-09-03 00:54:22 | 52.41248 | 11.22968 | 141° | 20km/h | 36969m | -41.7m/s | -251.2°C | 0% | 4.3hPa | 2.6V | 02:53:46 | 02:56:41 | 00:00:00 | |
| DL4XJ-10 | 2026-09-03 00:54:22 | 52.41248 | 11.22968 | 142° | 29km/h | 36970m | -41.7m/s | 0°C | 0% | 0hPa | 2.5V | 00:00:00 | 00:00:00 | 00:00:00 | |
| DD8BA-10 | 2026-09-03 00:54:20 | 52.41253 | 11.22955 | 110° | 26km/h | 37037m | -37.5m/s | 0°C | 0% | 4.2hPa | 2.5V | 00:00:00 | 00:00:00 | 00:00:00 | |
| DM0DOS-11 | 2026-09-03 00:54:19 | 52.41287 | 11.22954 | 216° | 22km/h | 37274m | -35.1m/s | 0°C | 0% | 0hPa | 2.5V | 02:53:11 | 02:56:32 | 00:00:00 | |
| DF8AY | 2026-09-03 00:54:18 | 52.41259 | 11.22941 | 130° | 20km/h | 37113m | -38.8m/s | -251.2°C | 0% | 4.2hPa | 2.6V | 02:53:46 | 02:56:37 | 00:00:00 | |
| HSKMA3-T | 2026-09-03 00:54:14 | 52.41281 | 11.22947 | 206° | 27km/h | 37241m | -33.4m/s | -251.2°C | 0% | 4.1hPa | 2.5V | 02:53:46 | 02:56:33 | 00:00:00 | |
| AA1-15 | 2026-09-03 00:54:11 | 52.41288 | 11.22939 | 48° | 46km/h | 37356m | -55.2m/s | -251.2°C | 100% | 4hPa | 2.6V | 02:53:46 | 02:56:30 | 00:00:00 | |
| DF8AY | 2026-09-03 00:54:08 | 52.41264 | 11.22892 | 51° | 51km/h | 37479m | -31m/s | -28.5°C | 0% | 4hPa | 2.5V | 02:53:46 | 02:56:27 | 00:00:00 | |
| DM0DOS-11 | 2026-09-03 00:54:08 | 52.41230 | 11.22824 | 61° | 47km/h | 37547m | -1m/s | -28.6°C | 0.9% | 3.9hPa | 2.5V | 02:53:20 | 02:56:23 | 00:00:00 | |
| DL1XH-west | 2026-09-03 00:54:07 | 52.41255 | 11.22876 | 49° | 55km/h | 37504m | -23m/s | -28.6°C | 0% | 4hPa | 2.6V | 02:53:46 | 02:56:26 | 00:00:00 | |
| HSKMA3-T | 2026-09-03 00:54:04 | 52.41230 | 11.22824 | 61° | 47km/h | 37547m | -1m/s | -28.6°C | 0% | 3.9hPa | 2.5V | 02:53:46 | 02:56:23 | 00:00:00 | |
| DL4BBY-15 | 2026-09-03 00:54:04 | 52.41230 | 11.22824 | 62° | 35km/h | 37547m | -1.0m/s | -28.3°C | 0% | 0hPa | 2.6V | 00:00:00 | 00:00:00 | 00:00:00 | |
| DL1NUX | 2026-09-03 00:54:03 | 52.41226 | 11.22774 | 129° | 27km/h | 37534m | 5.8m/s | -28.6°C | 0.9% | 3.9hPa | 2.6V | 02:53:24 | 02:56:19 | 00:00:00 | |
| DL1XH1-15 | 2026-09-03 00:54:03 | 52.41222 | 11.22796 | 80° | 31km/h | 37544m | 4m/s | -28.6°C | 0.9% | 3.9hPa | 2.5V | 02:53:22 | 02:56:21 | 00:00:00 | |
| AA1-15 | 2026-09-03 00:54:01 | 52.41223 | 11.22784 | 105° | 26km/h | 37539m | 5.1m/s | -28.6°C | 0% | 3.9hPa | 2.6V | 02:53:46 | 02:56:20 | 00:00:00 | |
| DF8AY | 2026-09-03 00:53:58 | 52.41245 | 11.22752 | 145° | 31km/h | 37521m | 2.4m/s | -28.7°C | 0% | 4hPa | 2.5V | 02:53:46 | 02:56:16 | 00:00:00 | |
| DL1XH1-15 | 2026-09-03 00:53:58 | 52.41244 | 11.22704 | 46° | 42km/h | 37502m | 5.7m/s | -28.8°C | 1% | 4hPa | 2.5V | 02:53:32 | 02:56:11 | 00:00:00 | |
| DL1XH-west | 2026-09-03 00:53:56 | 52.41250 | 11.22744 | 132° | 26km/h | 37519m | 2.4m/s | -28.8°C | 0% | 4hPa | 2.6V | 02:53:46 | 02:56:15 | 00:00:00 | |
| DB0DAN | 2026-09-03 00:53:55 | 52.41253 | 11.22736 | 106° | 20km/h | 37516m | 3.3m/s | -28.8°C | 0% | 3.94hPa | 2.6V | 00:00:00 | 00:00:00 | 00:00:00 | |
| HSKMA3-T | 2026-09-03 00:53:54 | 52.41253 | 11.22727 | 75° | 26km/h | 37512m | 4.6m/s | -28.9°C | 0% | 4hPa | 2.6V | 02:53:46 | 02:56:13 | 00:00:00 | |
| DL1XH-15 | 2026-09-03 00:53:54 | 52.41218 | 11.22661 | 48° | 49km/h | 37490m | 2m/s | -28.6°C | 0.9% | 3.9hPa | 2.6V | 02:53:35 | 02:56:08 | 00:00:00 | |
| AA1-15 | 2026-09-03 00:53:51 | 52.41236 | 11.22690 | 43° | 49km/h | 37497m | 4.7m/s | -28.9°C | 0% | 4hPa | 2.5V | 02:53:46 | 02:56:10 | 00:00:00 | |
| DF8AY | 2026-09-03 00:53:47 | 52.41207 | 11.22631 | 78° | 35km/h | 37486m | 2.7m/s | -28.6°C | 0% | 3.9hPa | 2.6V | 02:53:46 | 02:56:06 | 00:00:00 | |
| DM0DOS-11 | 2026-09-03 00:53:47 | 52.41224 | 11.22589 | 152° | 40km/h | 37468m | 4.5m/s | -28.6°C | 1% | 4hPa | 2.6V | 02:53:41 | 02:56:02 | 00:00:00 | |
| DL1XH-west | 2026-09-03 00:53:45 | 52.41210 | 11.22607 | 126° | 33km/h | 37478m | 5m/s | -28.6°C | 0% | 4hPa | 2.5V | 02:53:46 | 02:56:04 | 00:00:00 | |
| DO2SHX-10 | 2026-09-03 00:53:45 | 52.41210 | 11.22607 | 126° | 37km/h | 37478m | 5.0m/s | -28.5°C | 0.9% | 3.9hPa | 2.5V | 02:53:00 | 02:56:04 | 00:00:00 | |
| DL1XH-15 | 2026-09-03 00:53:44 | 52.41248 | 11.22560 | 96° | 20km/h | 37457m | 3.6m/s | -28.7°C | 1% | 4hPa | 2.5V | 02:53:45 | 02:55:58 | 00:00:00 | |
| HSKMA3-T | 2026-09-03 00:53:43 | 52.41224 | 11.22589 | 152° | 40km/h | 37468m | 4.6m/s | -28.6°C | 0% | 4hPa | 2.6V | 02:53:46 | 02:56:02 | 00:00:00 | |
| AA1-15 | 2026-09-03 00:53:41 | 52.41241 | 11.22575 | 148° | 31km/h | 37462m | 1.7m/s | -28.6°C | 0% | 4hPa | 2.6V | 02:53:46 | 02:56:00 | 00:00:00 | |
| DF8AY | 2026-09-03 00:53:37 | 52.41243 | 11.22541 | 45° | 37km/h | 37446m | 6.3m/s | -28.6°C | 0% | 4hPa | 2.6V | 02:54:37 | 02:55:56 | 00:00:00 | |
| DL1LOL-11 | 2026-09-03 00:53:37 | 52.41242 | 11.22541 | 46° | 37km/h | 37447m | 6.3m/s | -28.6°C | 0% | 4.0hPa | 2.5V | 00:00:00 | 00:00:00 | 00:00:00 | |
| DM0DOS-11 | 2026-09-03 00:53:36 | 52.41208 | 11.22495 | 46° | 37km/h | 37432m | 0.4m/s | -28.6°C | 0.9% | 4hPa | 2.5V | 02:53:51 | 02:55:52 | 00:00:00 | |
| DL1XH1-15 | 2026-09-03 00:53:36 | 52.41201 | 11.22476 | 99° | 20km/h | 37429m | 3.6m/s | -28.7°C | 0.9% | 4hPa | 2.5V | 02:53:53 | 02:55:50 | 00:00:00 | |
| DL1XH-west | 2026-09-03 00:53:34 | 52.41216 | 11.22506 | 39° | 47km/h | 37433m | 1.2m/s | -28.7°C | 0% | 4hPa | 2.6V | 02:54:37 | 02:55:53 | 00:00:00 | |
| HSKMA3-T | 2026-09-03 00:53:32 | 52.41203 | 11.22485 | 62° | 26km/h | 37431m | 1.7m/s | -28.7°C | 0% | 4hPa | 2.5V | 02:54:37 | 02:55:51 | 00:00:00 | |
| GOEST3-10 | 2026-09-03 00:53:32 | 52.41203 | 11.22485 | 63° | 29km/h | 37432m | 1.7m/s | -28.6°C | 1.0% | 4.0hPa | 2.6V | 00:00:00 | 00:00:00 | 00:00:00 | |
| DL1NUX | 2026-09-03 00:53:31 | 52.41204 | 11.22469 | 136° | 24km/h | 37424m | 5.7m/s | -28.7°C | 1% | 4hPa | 2.6V | 02:53:54 | 02:55:49 | 00:00:00 | |
| AA1-15 | 2026-09-03 00:53:30 | 52.41204 | 11.22469 | 137° | 24km/h | 37424m | 5.7m/s | -28.7°C | 0% | 4hPa | 2.6V | 02:54:37 | 02:55:49 | 00:00:00 | |
| DF8AY | 2026-09-03 00:53:26 | 52.41241 | 11.22452 | 167° | 40km/h | 37405m | 1.3m/s | -28.8°C | 0% | 4hPa | 2.5V | 02:54:37 | 02:55:45 | 00:00:00 | |
| DF7ER-10 | 2026-09-03 00:53:26 | 52.41230 | 11.22455 | 171° | 44km/h | 37408m | 3.0m/s | -28.8°C | -0.1% | 4.0hPa | 2.6V | 02:54:00 | 00:00:00 | 00:00:00 | |
| DB0DAN | 2026-09-03 00:53:25 | 52.41249 | 11.22447 | 157° | 29km/h | 37404m | 0.9m/s | -28.9°C | 0% | 4.03hPa | 2.6V | 00:00:00 | 00:00:00 | 00:00:00 | |
| DM0DOS-11 | 2026-09-03 00:53:25 | 52.41257 | 11.22434 | 90° | 20km/h | 37398m | 4.2m/s | -28.9°C | 1% | 4hPa | 2.5V | 02:54:01 | 02:55:42 | 00:00:00 | |
| DL1XH-west | 2026-09-03 00:53:25 | 52.41255 | 11.22442 | 133° | 20km/h | 37402m | 2.3m/s | -28.9°C | 0% | 4hPa | 2.6V | 02:54:37 | 02:55:43 | 00:00:00 | |
| DL1XH-15 | 2026-09-03 00:53:24 | 52.41233 | 11.22391 | 41° | 44km/h | 37379m | 1.8m/s | -28.9°C | 1% | 4hPa | 2.6V | 02:54:05 | 02:55:38 | 00:00:00 | |
| DL1XH1-15 | 2026-09-03 00:53:24 | 52.41250 | 11.22414 | 45° | 38km/h | 37387m | 6m/s | -28.9°C | 1% | 4hPa | 2.6V | 02:54:03 | 02:55:40 | 00:00:00 | |
| DL1NUX | 2026-09-03 00:53:23 | 52.41242 | 11.22403 | 39° | 44km/h | 37382m | 4.2m/s | -28.9°C | 0.9% | 4hPa | 2.6V | 02:54:04 | 02:55:39 | 00:00:00 | |
| HSKMA3-T | 2026-09-03 00:53:22 | 52.41255 | 11.22425 | 59° | 27km/h | 37393m | 5.9m/s | -28.9°C | 0% | 4hPa | 2.5V | 02:54:37 | 02:55:41 | 00:00:00 | |
| AA1-15 | 2026-09-03 00:53:19 | 52.41233 | 11.22391 | 42° | 44km/h | 37379m | 1.8m/s | -28.9°C | 0% | 4.1hPa | 2.6V | 02:54:37 | 02:55:38 | 00:00:00 | |
| DM0DOS-11 | 2026-09-03 00:53:19 | 52.41239 | 11.22358 | 185° | 46km/h | 37360m | 5.7m/s | -28.8°C | 0.9% | 4.1hPa | 2.6V | 02:54:11 | 02:55:32 | 00:00:00 | |
| DL4XJ-10 | 2026-09-03 00:53:18 | 52.41226 | 11.22380 | 46° | 40km/h | 37378m | 0.4m/s | -28.6°C | 0% | 0hPa | 2.6V | 00:00:00 | 00:00:00 | 00:00:00 | |
| SMARD9-15 | 2026-09-03 00:53:17 | 52.41220 | 11.22364 | 109° | 13km/h | 37375m | 2.3m/s | -28.9°C | 0.0% | 4.0hPa | 2.6V | 00:00:00 | 00:00:00 | 00:00:00 | |
| DF8AY-15 | 2026-09-03 00:53:16 | 52.41220 | 11.22364 | 110° | 37km/h | 37376m | 2.3m/s | -28.8°C | 1.0% | 4.0hPa | 2.6V | 00:00:00 | 02:55:35 | 00:00:00 | |
| DL1XH-15 | 2026-09-03 00:53:14 | 52.41282 | 11.22362 | 162° | 26km/h | 37350m | 2.2m/s | -28.7°C | 0.9% | 4.1hPa | 2.6V | 02:54:15 | 02:55:28 | 00:00:00 | |
| DL1XH-west | 2026-09-03 00:53:14 | 52.41239 | 11.22358 | 186° | 46km/h | 37360m | 5.7m/s | -28.8°C | 0% | 4.1hPa | 2.6V | 02:54:37 | 02:55:32 | 00:00:00 | |
| DL1XH1-15 | 2026-09-03 00:53:13 | 52.41263 | 11.22363 | 184° | 47km/h | 37353m | 1.6m/s | -28.8°C | 1% | 4.1hPa | 2.5V | 02:54:13 | 02:55:30 | 00:00:00 | |
| HSKMA3-T | 2026-09-03 00:53:11 | 52.41263 | 11.22363 | 185° | 47km/h | 37353m | 1.6m/s | -28.8°C | 0% | 4.1hPa | 2.5V | 02:54:37 | 02:55:30 | 00:00:00 | |
| DL1NUX | 2026-09-03 00:53:11 | 52.41274 | 11.22364 | 177° | 38km/h | 37351m | 0.3m/s | -28.7°C | 0.9% | 4hPa | 2.6V | 02:54:14 | 02:55:29 | 00:00:00 | |
| DB0DAN | 2026-09-03 00:53:10 | 52.41274 | 11.22364 | 177° | 37km/h | 37351m | 0.3m/s | -28.7°C | 0% | 4.02hPa | 2.6V | 00:00:00 | 00:00:00 | 00:00:00 | |
| AA1-15 | 2026-09-03 00:53:09 | 52.41282 | 11.22362 | 163° | 26km/h | 37350m | 2.2m/s | -28.7°C | 0% | 4.1hPa | 2.6V | 02:54:37 | 02:55:28 | 00:00:00 | |
| OE5DXL-15 | 2026-09-03 00:53:07 | 52.41287 | 11.22350 | 83° | 35km/h | 37343m | 5.4m/s | -28.6°C | 0.9% | 4.0hPa | 2.6V | 00:00:00 | 00:00:00 | 00:00:00 | |
| DF7ER-10 | 2026-09-03 00:53:06 | 52.41287 | 11.22350 | 84° | 22km/h | 37343m | 5.5m/s | -28.7°C | -0.1% | 4.1hPa | 2.6V | 02:54:00 | 00:00:00 | 00:00:00 | |
| NBG1-10 | 2026-09-03 00:53:05 | 52.41280 | 11.22327 | 53° | 33km/h | 37332m | 4.4m/s | -28.6°C | 0.9% | 4.0hPa | 2.6V | 00:00:00 | 02:55:24 | 00:00:00 | |
| DL1XH-15 | 2026-09-03 00:53:04 | 52.41275 | 11.22288 | 194° | 33km/h | 37315m | 7m/s | -28.7°C | 0.9% | 4.1hPa | 2.6V | 02:54:25 | 02:55:18 | 00:00:00 | |
| DL4BBY-15 | 2026-09-03 00:53:04 | 52.41273 | 11.22314 | 50° | 33km/h | 37328m | 1.7m/s | -28.4°C | 0% | 0hPa | 2.5V | 00:00:00 | 00:00:00 | 00:00:00 | |
| DL1XH1-15 | 2026-09-03 00:53:03 | 52.41265 | 11.22287 | 119° | 11km/h | 37325m | 2.6m/s | -28.7°C | 0.9% | 4.1hPa | 2.5V | 02:54:23 | 02:55:20 | 00:00:00 | |
| DL1XH-west | 2026-09-03 00:53:02 | 52.41265 | 11.22293 | 69° | 20km/h | 37327m | 0.9m/s | -28.7°C | 0% | 4.1hPa | 2.6V | 02:54:37 | 02:55:21 | 00:00:00 | |
| DO2SHX-10 | 2026-09-03 00:53:02 | 52.41265 | 11.22293 | 70° | 16km/h | 37328m | 0.8m/s | -28.6°C | 1.0% | 4.0hPa | 2.5V | 00:00:00 | 02:55:21 | 00:00:00 | |
| DL1NUX | 2026-09-03 00:53:01 | 52.41268 | 11.22286 | 180° | 18km/h | 37322m | 5.1m/s | -28.7°C | 1% | 4hPa | 2.5V | 02:54:24 | 02:55:19 | 00:00:00 | |
| HSKMA3-T | 2026-09-03 00:53:01 | 52.41265 | 11.22287 | 120° | 11km/h | 37326m | 2.6m/s | -28.7°C | 0% | 4.1hPa | 2.5V | 02:54:37 | 02:55:20 | 00:00:00 | |
| AA1-15 | 2026-09-03 00:52:58 | 52.41284 | 11.22293 | 200° | 47km/h | 37309m | 6.7m/s | -28.8°C | 0% | 4.1hPa | 2.6V | 02:54:37 | 02:55:17 | 00:00:00 | |
| SO1NDE-10 | 2026-09-03 00:52:58 | 52.41284 | 11.22293 | 200° | 35km/h | 37309m | 6.7m/s | -28.7°C | 0.9% | 4.0hPa | 2.6V | 02:54:00 | 02:55:17 | 00:00:00 | |
| DM0DOS-11 | 2026-09-03 00:52:57 | 52.41340 | 11.22311 | 106° | 18km/h | 37293m | 5.9m/s | -28.9°C | 0.9% | 4.1hPa | 2.6V | 02:54:32 | 02:55:11 | 00:00:00 | |
| DL3OBA | 2026-09-03 00:52:56 | 52.41297 | 11.22301 | 202° | 57km/h | 37304m | 4.3m/s | -28.8°C | 0% | 4.1hPa | 2.5V | 02:54:00 | 00:00:00 | 00:00:00 | |
| DB0DAN | 2026-09-03 00:52:55 | 52.41321 | 11.22315 | 194° | 40km/h | 37300m | 0.2m/s | -28.9°C | 0% | 4.08hPa | 2.5V | 00:00:00 | 00:00:00 | 00:00:00 | |
| DL4XJ-10 | 2026-09-03 00:52:54 | 52.41331 | 11.22318 | 184° | 31km/h | 37300m | 0.8m/s | -28.6°C | 0% | 0hPa | 2.5V | 00:00:00 | 00:00:00 | 00:00:00 | |
| DL1XH-15 | 2026-09-03 00:52:53 | 52.41331 | 11.22275 | 56° | 42km/h | 37276m | 3.2m/s | -29.1°C | 1% | 4.1hPa | 2.5V | 02:54:35 | 02:55:08 | 00:00:00 | |
| DL1NUX | 2026-09-03 00:52:53 | 52.41336 | 11.22289 | 61° | 38km/h | 37280m | 6m/s | -29°C | 0.9% | 4.1hPa | 2.5V | 02:54:34 | 02:55:09 | 00:00:00 | |
| DL1XH1-15 | 2026-09-03 00:52:52 | 52.41339 | 11.22301 | 72° | 29km/h | 37287m | 6.9m/s | -29°C | 1% | 4.1hPa | 2.6V | 02:54:33 | 02:55:10 | 00:00:00 | |
| DF8AY | 2026-09-03 00:52:51 | 52.41339 | 11.22301 | 73° | 29km/h | 37287m | 6.9m/s | -29°C | 0% | 4.1hPa | 2.6V | 02:54:37 | 02:55:10 | 00:00:00 | |
| HSKMA3-T | 2026-09-03 00:52:51 | 52.41336 | 11.22289 | 62° | 38km/h | 37280m | 6m/s | -29°C | 0% | 4.1hPa | 2.5V | 02:54:37 | 02:55:09 | 00:00:00 | |
| AA1-15 | 2026-09-03 00:52:48 | 52.41322 | 11.22251 | 61° | 22km/h | 37273m | 0.5m/s | -29.2°C | 0% | 4.1hPa | 2.6V | 02:54:37 | 02:55:06 | 00:00:00 | |
| SMARD9-15 | 2026-09-03 00:52:46 | 52.41323 | 11.22246 | 196° | 15km/h | 37269m | 4.4m/s | -29.3°C | 0.0% | 4.1hPa | 2.6V | 00:00:00 | 00:00:00 | 00:00:00 | |
| DL1NUX | 2026-09-03 00:52:45 | 52.41375 | 11.22294 | 205° | 57km/h | 37243m | 0.4m/s | -29.6°C | 1% | 4.1hPa | 2.6V | 02:54:44 | 02:54:59 | 00:00:00 | |
| DM0DOS-11 | 2026-09-03 00:52:45 | 52.41348 | 11.22270 | 211° | 60km/h | 37249m | 5.8m/s | -29.6°C | 1% | 4.1hPa | 2.6V | 02:54:42 | 02:55:01 | 00:00:00 | |
| DF7ER-10 | 2026-09-03 00:52:44 | 52.41323 | 11.22245 | 198° | 15km/h | 37269m | 4.4m/s | -29.3°C | -0.0% | 4.1hPa | 2.5V | 02:55:00 | 00:00:00 | 00:00:00 | |
| DL1XH-15 | 2026-09-03 00:52:42 | 52.41387 | 11.22302 | 196° | 46km/h | 37243m | 0.7m/s | -29.6°C | 1% | 4.1hPa | 2.5V | 02:54:45 | 02:54:58 | 00:00:00 | |
| DL1XH1-15 | 2026-09-03 00:52:42 | 52.41361 | 11.22283 | 209° | 64km/h | 37245m | 2.9m/s | -29.6°C | 1% | 4.1hPa | 2.6V | 02:54:43 | 02:55:00 | 00:00:00 | |
| DL1XH-west | 2026-09-03 00:52:40 | 52.41375 | 11.22294 | 205° | 57km/h | 37244m | 0.4m/s | -29.6°C | 0% | 4.1hPa | 2.6V | 02:55:28 | 02:54:59 | 00:00:00 | |
| DB0DAN | 2026-09-03 00:52:40 | 52.41375 | 11.22294 | 205° | 55km/h | 37244m | 0.4m/s | -29.6°C | 0% | 4.1hPa | 2.6V | 00:00:00 | 00:00:00 | 00:00:00 | |
| DF8AY | 2026-09-03 00:52:39 | 52.41387 | 11.22302 | 197° | 46km/h | 37243m | 0.7m/s | -29.7°C | 0% | 4.1hPa | 2.5V | 02:55:28 | 02:54:58 | 00:00:00 | |
| DM0DOS-11 | 2026-09-03 00:52:39 | 52.41405 | 11.22240 | 119° | 11km/h | 37213m | 1.2m/s | -29.7°C | 1% | 4.1hPa | 2.6V | 02:54:53 | 02:54:50 | 00:00:00 | |
| AA1-15 | 2026-09-03 00:52:38 | 52.41404 | 11.22303 | 156° | 26km/h | 37237m | 4.8m/s | -29.7°C | 0% | 4.1hPa | 2.6V | 02:55:28 | 02:54:56 | 00:00:00 | |
| OE5DXL-15 | 2026-09-03 00:52:37 | 52.41404 | 11.22303 | 156° | 44km/h | 37238m | 4.8m/s | -29.7°C | 1.0% | 4.1hPa | 2.6V | 00:00:00 | 00:00:00 | 00:00:00 | |
| DL1XH1-15 | 2026-09-03 00:52:36 | 52.41405 | 11.22240 | 119° | 11km/h | 37213m | 1.2m/s | -29.7°C | 1% | 4.1hPa | 2.6V | 02:54:53 | 02:54:50 | 00:00:00 | |
| DL3OBA | 2026-09-03 00:52:36 | 52.41408 | 11.22296 | 118° | 24km/h | 37232m | 6.5m/s | -29.7°C | 0% | 4.1hPa | 2.5V | 02:55:00 | 00:00:00 | 00:00:00 | |
| DL1NUX | 2026-09-03 00:52:35 | 52.41408 | 11.22238 | 187° | 18km/h | 37211m | 3.2m/s | -29.7°C | 1% | 4.2hPa | 2.5V | 02:54:54 | 02:54:49 | 00:00:00 | |
| DL4XJ-10 | 2026-09-03 00:52:34 | 52.41408 | 11.22271 | 78° | 40km/h | 37220m | 4.8m/s | -29.5°C | 0% | 0hPa | 2.5V | 00:00:00 | 00:00:00 | 00:00:00 | |
| SONDE2-11 | 2026-09-03 00:52:33 | 52.41406 | 11.22257 | 74° | 31km/h | 37216m | 2.1m/s | -29.7°C | 0.0% | 4.1hPa | 2.5V | 00:00:00 | 00:00:00 | 00:00:00 | |
| GOEST3-10 | 2026-09-03 00:52:32 | 52.41405 | 11.22246 | 82° | 27km/h | 37215m | 0.9m/s | -29.7°C | 1.0% | 4.1hPa | 2.5V | 00:00:00 | 00:00:00 | 00:00:00 | |
| DL1XH-15 | 2026-09-03 00:52:31 | 52.41414 | 11.22241 | 207° | 33km/h | 37206m | 5.7m/s | -29.7°C | 1% | 4.1hPa | 2.5V | 02:54:55 | 02:54:48 | 00:00:00 | |
| HSKMA3-T | 2026-09-03 00:52:29 | 52.41414 | 11.22241 | 208° | 33km/h | 37206m | 5.7m/s | -29.7°C | 0% | 4.1hPa | 2.5V | 02:55:28 | 02:54:48 | 00:00:00 | |
| DF8AY | 2026-09-03 00:52:28 | 52.41423 | 11.22250 | 211° | 49km/h | 37200m | 7.3m/s | -29.7°C | 0% | 4.1hPa | 2.5V | 02:55:28 | 02:54:47 | 00:00:00 | |
| AA1-15 | 2026-09-03 00:52:27 | 52.41436 | 11.22262 | 212° | 64km/h | 37193m | 6.3m/s | -29.7°C | 0% | 4.2hPa | 2.6V | 02:55:28 | 02:54:46 | 00:00:00 | |
| GOEST3-10 | 2026-09-03 00:52:27 | 52.41436 | 11.22262 | 213° | 62km/h | 37194m | 6.2m/s | -29.6°C | 1.0% | 4.1hPa | 2.6V | 02:54:00 | 02:54:46 | 00:00:00 | |
| DL1XH1-15 | 2026-09-03 00:52:26 | 52.41513 | 11.22296 | 140° | 35km/h | 37176m | 6.7m/s | -29.6°C | 1% | 4.2hPa | 2.6V | 02:55:03 | 02:54:40 | 00:00:00 | |
| TFSTFS | 2026-09-03 00:52:26 | 52.41451 | 11.22277 | 211° | 73km/h | 37189m | 3.7m/s | -29.7°C | 0% | 4.2hPa | 2.6V | 02:55:00 | 00:00:00 | 00:00:00 | |
| DL1NUX | 2026-09-03 00:52:25 | 52.41518 | 11.22285 | 113° | 35km/h | 37169m | 6.9m/s | -29.5°C | 1% | 4.2hPa | 2.6V | 02:55:04 | 02:54:39 | 00:00:00 | |
| DB0DAN | 2026-09-03 00:52:25 | 52.41466 | 11.22290 | 205° | 66km/h | 37186m | 1m/s | -29.6°C | 0% | 4.18hPa | 2.6V | 00:00:00 | 00:00:00 | 00:00:00 | |
| DO2SHX-10 | 2026-09-03 00:52:25 | 52.41466 | 11.22290 | 206° | 69km/h | 37187m | 1.0m/s | -29.6°C | 1.0% | 4.1hPa | 2.5V | 00:00:00 | 02:54:44 | 00:00:00 | |
| DF7ER-10 | 2026-09-03 00:52:24 | 52.41481 | 11.22300 | 197° | 60km/h | 37186m | 0.2m/s | -29.6°C | -0.1% | 4.2hPa | 2.5V | 02:55:00 | 00:00:00 | 00:00:00 | |
| GOEST3-10 | 2026-09-03 00:52:22 | 52.41505 | 11.22303 | 165° | 37km/h | 37182m | 4.2m/s | -29.5°C | 1.0% | 4.1hPa | 2.5V | 00:00:00 | 00:00:00 | 00:00:00 | |
| PG1ADW-2 | 2026-09-03 00:52:21 | 52.41513 | 11.22296 | 141° | 42km/h | 37176m | 6.7m/s | 0°C | 0% | 0hPa | 2.5V | 00:00:00 | 00:00:00 | 00:00:00 | |
| DL1XH-15 | 2026-09-03 00:52:20 | 52.41520 | 11.22271 | 96° | 38km/h | 37163m | 5m/s | -29.5°C | 1% | 4.2hPa | 2.5V | 02:55:05 | 02:54:38 | 00:00:00 | |
| HSKMA3-T | 2026-09-03 00:52:19 | 52.41520 | 11.22271 | 97° | 38km/h | 37163m | 5m/s | -29.5°C | 0% | 4.2hPa | 2.5V | 02:55:28 | 02:54:38 | 00:00:00 | |
| DL1XH-west | 2026-09-03 00:52:18 | 52.41521 | 11.22256 | 92° | 37km/h | 37159m | 2.2m/s | -29.5°C | 0% | 4.1hPa | 2.5V | 02:55:28 | 02:54:37 | 00:00:00 | |
| AA1-15 | 2026-09-03 00:52:17 | 52.41522 | 11.22242 | 101° | 27km/h | 37158m | 0.2m/s | -29.5°C | 0% | 4.2hPa | 2.5V | 02:55:28 | 02:54:36 | 00:00:00 | |
| GOEST3-10 | 2026-09-03 00:52:17 | 52.41521 | 11.22242 | 102° | 33km/h | 37158m | 0.2m/s | -29.4°C | 1.0% | 4.2hPa | 2.6V | 00:00:00 | 02:54:36 | 00:00:00 | |
| DL1XH1-15 | 2026-09-03 00:52:16 | 52.41578 | 11.22263 | 206° | 78km/h | 37131m | 4.5m/s | -29.4°C | 1% | 4.2hPa | 2.6V | 02:55:13 | 02:54:30 | 00:00:00 | |
| DO2SHX-10 | 2026-09-03 00:52:16 | 52.41524 | 11.22234 | 133° | 29km/h | 37157m | 0.8m/s | -29.4°C | 1.0% | 4.1hPa | 2.6V | 02:55:00 | 02:54:35 | 00:00:00 | |
| DL3OBA | 2026-09-03 00:52:15 | 52.41529 | 11.22230 | 176° | 26km/h | 37155m | 2.9m/s | -29.5°C | 0% | 4.1hPa | 2.6V | 02:55:00 | 00:00:00 | 00:00:00 | |
| DL1XH-15 | 2026-09-03 00:52:14 | 52.41613 | 11.22286 | 195° | 69km/h | 37128m | 0.8m/s | -29.4°C | 1% | 4.2hPa | 2.6V | 02:55:15 | 02:54:28 | 00:00:00 | |
| DO2SHX-10 | 2026-09-03 00:52:13 | 52.41547 | 11.22239 | 204° | 68km/h | 37144m | 7.7m/s | -29.4°C | 1.0% | 4.1hPa | 2.5V | 00:00:00 | 02:54:32 | 00:00:00 | |
| GOEST3-10 | 2026-09-03 00:52:12 | 52.41562 | 11.22249 | 207° | 68km/h | 37137m | 6.9m/s | -29.3°C | 1.0% | 4.2hPa | 2.5V | 02:55:00 | 00:00:00 | 00:00:00 | |
| DB0DAN | 2026-09-03 00:52:10 | 52.41596 | 11.22276 | 202° | 73km/h | 37128m | 1.7m/s | -29.4°C | 0% | 4.2hPa | 2.6V | 00:00:00 | 00:00:00 | 00:00:00 | |
| HSKMA3-T | 2026-09-03 00:52:09 | 52.41613 | 11.22286 | 195° | 69km/h | 37128m | 0.8m/s | -29.4°C | 0% | 4.2hPa | 2.6V | 02:55:28 | 02:54:28 | 00:00:00 | |
| DL1XH-west | 2026-09-03 00:52:08 | 52.41629 | 11.22290 | 185° | 57km/h | 37126m | 2m/s | -29.4°C | 0% | 4.2hPa | 2.5V | 02:55:28 | 02:54:27 | 00:00:00 | |
| AA1-15 | 2026-09-03 00:52:07 | 52.41641 | 11.22290 | 168° | 46km/h | 37123m | 4.6m/s | -29.4°C | 0% | 4.2hPa | 2.5V | 02:55:28 | 02:54:26 | 00:00:00 | |
| DF8AY | 2026-09-03 00:52:06 | 52.41651 | 11.22284 | 149° | 38km/h | 37118m | 6.9m/s | -29.4°C | 0% | 4.2hPa | 2.5V | 02:55:28 | 02:54:25 | 00:00:00 | |
| MECKS9 | 2026-09-03 00:52:06 | 52.41651 | 11.22284 | 150° | 38km/h | 37118m | 6.9m/s | -29.4°C | 0% | 0hPa | 2.6V | 02:55:00 | 00:00:00 | 00:00:00 | |
| DL4BBY-15 | 2026-09-03 00:52:04 | 52.41662 | 11.22259 | 107° | 49km/h | 37105m | 5.6m/s | -29.2°C | 0% | 0hPa | 2.6V | 00:00:00 | 00:00:00 | 00:00:00 | |
| DL1XH-15 | 2026-09-03 00:52:02 | 52.41688 | 11.22218 | 192° | 46km/h | 37090m | 6.7m/s | -29.5°C | 1% | 4.2hPa | 2.6V | 02:55:25 | 02:54:18 | 00:00:00 | |
| HSKMA3-T | 2026-09-03 00:51:59 | 52.41688 | 11.22218 | 193° | 46km/h | 37090m | 6.7m/s | -29.5°C | 0% | 4.2hPa | 2.6V | 02:55:28 | 02:54:18 | 00:00:00 | |
| AA1-15 | 2026-09-03 00:51:57 | 52.41717 | 11.22236 | 206° | 77km/h | 37076m | 7.5m/s | -29.5°C | 0% | 4.2hPa | 2.5V | 02:55:28 | 02:54:16 | 00:00:00 | |
| DO2SHX-10 | 2026-09-03 00:51:57 | 52.41717 | 11.22236 | 207° | 82km/h | 37076m | 7.5m/s | -29.5°C | 1.0% | 4.1hPa | 2.5V | 00:00:00 | 02:54:16 | 00:00:00 | |
| DL1XH1-15 | 2026-09-03 00:51:56 | 52.41814 | 11.22281 | 157° | 44km/h | 37055m | 6.8m/s | -29.7°C | 1% | 4.3hPa | 2.5V | 02:55:33 | 02:54:10 | 00:00:00 | |
| DB0DAN | 2026-09-03 00:51:55 | 52.41754 | 11.22266 | 204° | 78km/h | 37066m | 1.8m/s | -29.6°C | 0% | 4.23hPa | 2.6V | 00:00:00 | 00:00:00 | 00:00:00 | |
| DF8AY | 2026-09-03 00:51:55 | 52.41772 | 11.22278 | 198° | 73km/h | 37066m | 0.4m/s | -29.6°C | 0% | 4.3hPa | 2.6V | 02:56:19 | 02:54:13 | 00:00:00 | |
| DL3OBA | 2026-09-03 00:51:54 | 52.41772 | 11.22278 | 198° | 75km/h | 37066m | 0.4m/s | -29.6°C | 0% | 4.3hPa | 2.5V | 02:56:00 | 00:00:00 | 00:00:00 | |
| NBG1-10 | 2026-09-03 00:51:52 | 52.41814 | 11.22281 | 158° | 46km/h | 37056m | 6.8m/s | -29.6°C | 1.0% | 4.2hPa | 2.5V | 02:55:00 | 02:54:10 | 00:00:00 | |
| DL1XH-15 | 2026-09-03 00:51:51 | 52.41829 | 11.22257 | 115° | 44km/h | 37041m | 6.8m/s | -29.7°C | 1% | 4.3hPa | 2.6V | 02:55:35 | 02:54:08 | 00:00:00 | |
| HSKMA3-T | 2026-09-03 00:51:48 | 52.41833 | 11.22240 | 111° | 44km/h | 37035m | 3.8m/s | -29.7°C | 0% | 4.3hPa | 2.6V | 02:56:19 | 02:54:07 | 00:00:00 | |
| DL1XH-west | 2026-09-03 00:51:47 | 52.41851 | 11.22208 | 166° | 37km/h | 37029m | 3.3m/s | -29.8°C | 0% | 4.3hPa | 2.6V | 02:56:19 | 02:54:04 | 00:00:00 | |
| AA1-15 | 2026-09-03 00:51:46 | 52.41843 | 11.22214 | 141° | 35km/h | 37031m | 1.6m/s | -29.8°C | 0% | 4.3hPa | 2.5V | 02:56:19 | 02:54:05 | 00:00:00 | |
| DL1XH1-15 | 2026-09-03 00:51:46 | 52.41907 | 11.22233 | 205° | 80km/h | 37003m | 5.4m/s | -29.9°C | 1% | 4.3hPa | 2.5V | 02:55:43 | 02:54:00 | 00:00:00 | |
| DF8AY | 2026-09-03 00:51:44 | 52.41861 | 11.22207 | 185° | 46km/h | 37025m | 6.2m/s | -29.8°C | 0% | 4.2hPa | 2.6V | 02:56:19 | 02:54:03 | 00:00:00 | |
| SMARD9-15 | 2026-09-03 00:51:44 | 52.41874 | 11.22211 | 197° | 57km/h | 37018m | 8.1m/s | -29.9°C | 0.0% | 4.2hPa | 2.5V | 00:00:00 | 00:00:00 | 00:00:00 | |
| DF7PN | 2026-09-03 00:51:43 | 52.41874 | 11.22211 | 197° | 57km/h | 37018m | 8.1m/s | -29.9°C | 0.0% | 4.2hPa | 2.5V | 00:00:00 | 00:00:00 | 00:00:00 | |
| DF7ER-10 | 2026-09-03 00:51:42 | 52.41889 | 11.22221 | 204° | 71km/h | 37010m | 7.9m/s | -29.9°C | -0.0% | 4.2hPa | 2.5V | 02:56:00 | 00:00:00 | 00:00:00 | |
| DB0DAN | 2026-09-03 00:51:40 | 52.41925 | 11.22248 | 204° | 77km/h | 36999m | 2.4m/s | -29.9°C | 0% | 4.26hPa | 2.5V | 00:00:00 | 00:00:00 | 00:00:00 | |
| HSKMA3-T | 2026-09-03 00:51:37 | 52.41973 | 11.22268 | 178° | 49km/h | 36994m | 3.5m/s | -29.9°C | 0% | 4.2hPa | 2.6V | 02:56:19 | 02:53:56 | 00:00:00 | |
| AA1-15 | 2026-09-03 00:51:36 | 52.41984 | 11.22264 | 158° | 44km/h | 36989m | 5.7m/s | -29.9°C | 0% | 4.3hPa | 2.5V | 02:56:19 | 02:53:55 | 00:00:00 | |
| DF8AY | 2026-09-03 00:51:34 | 52.41998 | 11.22242 | 113° | 38km/h | 36975m | 7.2m/s | -29.8°C | 0% | 4.3hPa | 2.6V | 02:56:19 | 02:53:53 | 00:00:00 | |
| DL4BBY-15 | 2026-09-03 00:51:34 | 52.41997 | 11.22242 | 113° | 40km/h | 36975m | 7.1m/s | -29.5°C | 0% | 0hPa | 2.6V | 00:00:00 | 00:00:00 | 00:00:00 | |
| EDDB2-12 | 2026-09-03 00:51:33 | 52.42000 | 11.22228 | 101° | 37km/h | 36969m | 5.0m/s | -29.8°C | 0.0% | 4.3hPa | 2.6V | 00:00:00 | 00:00:00 | 00:00:00 | |
| DL1NUX | 2026-09-03 00:51:32 | 52.42007 | 11.22197 | 155° | 20km/h | 36959m | 3.3m/s | -29.7°C | 1% | 4.3hPa | 2.6V | 02:55:54 | 02:53:49 | 00:00:00 | |
| HSKMA3-T | 2026-09-03 00:51:26 | 52.42047 | 11.22220 | 207° | 68km/h | 36934m | 6m/s | -29.6°C | 0% | 4.3hPa | 2.5V | 02:56:19 | 02:53:45 | 00:00:00 | |
| DB0DAN | 2026-09-03 00:51:25 | 52.42063 | 11.22232 | 202° | 68km/h | 36930m | 3.1m/s | -29.6°C | 0% | 4.32hPa | 2.5V | 00:00:00 | 00:00:00 | 00:00:00 | |
| DL1XH-west | 2026-09-03 00:51:24 | 52.42079 | 11.22241 | 196° | 66km/h | 36928m | 0.7m/s | -29.6°C | 0% | 4.3hPa | 2.6V | 02:56:19 | 02:53:43 | 00:00:00 | |
| DF8AY | 2026-09-03 00:51:24 | 52.42094 | 11.22245 | 183° | 57km/h | 36927m | 1.2m/s | -29.6°C | 0% | 4.3hPa | 2.6V | 02:56:19 | 02:53:42 | 00:00:00 | |
| DO2SHX-10 | 2026-09-03 00:51:23 | 52.42094 | 11.22245 | 184° | 46km/h | 36927m | 1.1m/s | -29.6°C | 1.0% | 4.3hPa | 2.5V | 00:00:00 | 02:53:42 | 00:00:00 | |
| DL1XH1-15 | 2026-09-03 00:51:22 | 52.42117 | 11.22237 | 145° | 42km/h | 36921m | 5.7m/s | -29.6°C | 1% | 4.3hPa | 2.5V | 02:56:03 | 02:53:40 | 00:00:00 | |
| BIOWL1-15 | 2026-09-03 00:51:21 | 52.42126 | 11.22173 | 76° | 44km/h | 36892m | 4.2m/s | 0°C | 0% | 0hPa | 2.6V | 18:12:15 | 02:53:36 | 00:00:00 | |
| HSKMA3-T | 2026-09-03 00:51:15 | 52.42123 | 11.22146 | 88° | 22km/h | 36887m | 2.4m/s | -29.4°C | 0% | 4.3hPa | 2.5V | 02:56:19 | 02:53:34 | 00:00:00 | |
| AA1-15 | 2026-09-03 00:51:15 | 52.42128 | 11.22138 | 180° | 22km/h | 36879m | 6.1m/s | -29.3°C | 0% | 4.3hPa | 2.6V | 02:56:19 | 02:53:32 | 00:00:00 | |
| DF8AY | 2026-09-03 00:51:14 | 52.42136 | 11.22140 | 193° | 37km/h | 36872m | 7.6m/s | -29.3°C | 0% | 4.4hPa | 2.6V | 02:56:19 | 02:53:31 | 00:00:00 | |
| DL1XH1-15 | 2026-09-03 00:51:12 | 52.42147 | 11.22144 | 194° | 53km/h | 36864m | 7.4m/s | -29.3°C | 1% | 4.3hPa | 2.6V | 02:56:13 | 02:53:30 | 00:00:00 | |
| DO2SHX-10 | 2026-09-03 00:51:12 | 52.42136 | 11.22140 | 193° | 49km/h | 36872m | 7.5m/s | -29.2°C | 1.0% | 4.3hPa | 2.5V | 00:00:00 | 02:53:31 | 00:00:00 | |
| DL1XH-15 | 2026-09-03 00:51:11 | 52.42177 | 11.22153 | 184° | 66km/h | 36854m | 3.1m/s | -29.2°C | 1% | 4.3hPa | 2.5V | 02:56:15 | 02:53:28 | 00:00:00 | |
| DB0DAN | 2026-09-03 00:51:10 | 52.42161 | 11.22149 | 191° | 60km/h | 36858m | 5.5m/s | -29.3°C | 0% | 4.36hPa | 2.5V | 00:00:00 | 00:00:00 | 00:00:00 | |
| DO9LL-15 | 2026-09-03 00:51:09 | 52.42177 | 11.22153 | 185° | 46km/h | 36854m | 3.1m/s | -29.2°C | 1.0% | 4.3hPa | 2.6V | 00:00:00 | 02:53:28 | 00:00:00 | |
| DD8BA-10 | 2026-09-03 00:51:08 | 52.42193 | 11.22152 | 173° | 42km/h | 36851m | 1.7m/s | -29.2°C | 0.9% | 4.3hPa | 2.6V | 02:56:00 | 00:00:00 | 00:00:00 | |
| OE5DXL-15 | 2026-09-03 00:51:07 | 52.42207 | 11.22147 | 160° | 42km/h | 36849m | 1.8m/s | -29.2°C | 1.0% | 4.3hPa | 2.5V | 00:00:00 | 00:00:00 | 00:00:00 | |
| DL1XH1-15 | 2026-09-03 00:51:06 | 52.42226 | 11.22056 | 57° | 35km/h | 36817m | 3.4m/s | -29.3°C | 1% | 4.4hPa | 2.5V | 02:56:23 | 02:53:20 | 00:00:00 | |
| BIOWL1-15 | 2026-09-03 00:51:06 | 52.42219 | 11.22137 | 144° | 49km/h | 36846m | 3.7m/s | 0°C | 0% | 0hPa | 2.5V | 18:12:15 | 02:53:25 | 00:00:00 | |
| DL1NUX | 2026-09-03 00:51:06 | 52.42222 | 11.22047 | 50° | 24km/h | 36814m | 2.5m/s | -29.4°C | 1% | 4.4hPa | 2.5V | 02:56:24 | 02:53:19 | 00:00:00 | |
| HSKMA3-T | 2026-09-03 00:51:04 | 52.42232 | 11.22106 | 104° | 46km/h | 36835m | 7.4m/s | -29.3°C | 0% | 4.4hPa | 2.6V | 02:57:10 | 02:53:23 | 00:00:00 | |
| DF8AY | 2026-09-03 00:51:03 | 52.42233 | 11.22088 | 85° | 44km/h | 36827m | 7m/s | -29.3°C | 0% | 4.4hPa | 2.6V | 02:57:10 | 02:53:22 | 00:00:00 | |
| AA1-15 | 2026-09-03 00:51:03 | 52.42230 | 11.22070 | 69° | 42km/h | 36821m | 5.5m/s | -29.3°C | 0% | 4.4hPa | 2.6V | 02:57:10 | 02:53:21 | 00:00:00 | |
| DL1XH-west | 2026-09-03 00:51:02 | 52.42226 | 11.22056 | 57° | 35km/h | 36817m | 3.4m/s | -29.3°C | 0% | 4.4hPa | 2.5V | 02:57:10 | 02:53:20 | 00:00:00 | |
| SONDE2-11 | 2026-09-03 00:51:00 | 52.42222 | 11.22047 | 50° | 22km/h | 36814m | 2.5m/s | -29.4°C | 0.0% | 4.4hPa | 2.6V | 00:00:00 | 00:00:00 | 00:00:00 | |
| DF7ER-10 | 2026-09-03 00:50:59 | 52.42222 | 11.22047 | 51° | 24km/h | 36814m | 2.5m/s | -29.4°C | -0.0% | 4.4hPa | 2.6V | 02:57:00 | 00:00:00 | 00:00:00 | |
| SO1NDE-10 | 2026-09-03 00:50:58 | 52.42220 | 11.22041 | 196° | 47km/h | 36808m | 4.8m/s | -29.3°C | 1.0% | 4.4hPa | 2.6V | 00:00:00 | 02:53:17 | 00:00:00 | |
| GOEST3-10 | 2026-09-03 00:50:57 | 52.42224 | 11.22043 | 199° | 47km/h | 36802m | 5.9m/s | -29.3°C | 1.0% | 4.3hPa | 2.6V | 02:56:00 | 02:53:16 | 00:00:00 | |
| DB0DAN | 2026-09-03 00:50:55 | 52.42243 | 11.22050 | 186° | 51km/h | 36790m | 5.5m/s | -29.3°C | 0% | 4.42hPa | 2.5V | 00:00:00 | 00:00:00 | 00:00:00 | |
| DL1NUX | 2026-09-03 00:50:55 | 52.42305 | 11.22000 | 113° | 57km/h | 36771m | 5.8m/s | -29.5°C | 1% | 4.4hPa | 2.5V | 02:56:34 | 02:53:09 | 00:00:00 | |
| HSKMA3-T | 2026-09-03 00:50:55 | 52.42258 | 11.22050 | 176° | 60km/h | 36785m | 3.8m/s | -29.3°C | 0% | 4.4hPa | 2.5V | 02:57:10 | 02:53:13 | 00:00:00 | |
| DL1XH-15 | 2026-09-03 00:50:55 | 52.42309 | 11.21978 | 96° | 55km/h | 36765m | 6.7m/s | -29.5°C | 1% | 4.5hPa | 2.5V | 02:56:35 | 02:53:08 | 00:00:00 | |
| DL1XH1-15 | 2026-09-03 00:50:54 | 52.42298 | 11.22020 | 131° | 58km/h | 36775m | 3.9m/s | -29.4°C | 1.1% | 4.4hPa | 2.6V | 02:56:33 | 02:53:10 | 00:00:00 | |
| DF8AY | 2026-09-03 00:50:52 | 52.42287 | 11.22035 | 149° | 60km/h | 36779m | 2.9m/s | -29.4°C | 0% | 4.4hPa | 2.6V | 02:57:10 | 02:53:11 | 00:00:00 | |
| AA1-15 | 2026-09-03 00:50:52 | 52.42298 | 11.22020 | 132° | 58km/h | 36775m | 3.9m/s | -29.5°C | 0% | 4.4hPa | 2.6V | 02:57:10 | 02:53:10 | 00:00:00 | |
| DL1XH-west | 2026-09-03 00:50:51 | 52.42306 | 11.22000 | 114° | 57km/h | 36771m | 5.8m/s | -29.5°C | 0% | 4.4hPa | 2.5V | 02:57:10 | 02:53:09 | 00:00:00 | |
| S3001 | 2026-09-03 00:50:48 | 52.42309 | 11.21956 | 80° | 53km/h | 36759m | 6.4m/s | -29.5°C | 0.0% | 4.4hPa | 2.6V | 00:00:00 | 00:00:00 | 00:00:00 | |
| SONCRA | 2026-09-03 00:50:46 | 52.42300 | 11.21919 | 56° | 40km/h | 36748m | 3.7m/s | -29.5°C | 0.0% | 4.5hPa | 2.6V | 00:00:00 | 00:00:00 | 00:00:00 | |
| DL1XH1-15 | 2026-09-03 00:50:44 | 52.42301 | 11.21898 | 182° | 37km/h | 36725m | 6m/s | -29.6°C | 1% | 4.4hPa | 2.6V | 02:56:43 | 02:53:00 | 00:00:00 | |
| HSKMA3-T | 2026-09-03 00:50:44 | 52.42291 | 11.21897 | 155° | 5km/h | 36736m | 5.2m/s | -29.6°C | 0% | 4.5hPa | 2.5V | 02:57:10 | 02:53:02 | 00:00:00 | |
| DM0DOS-11 | 2026-09-03 00:50:43 | 52.42324 | 11.21892 | 161° | 55km/h | 36716m | 3.3m/s | -29.6°C | 1% | 4.5hPa | 2.5V | 02:56:45 | 02:52:58 | 00:00:00 | |
| DL1NUX | 2026-09-03 00:50:43 | 52.42311 | 11.21897 | 172° | 47km/h | 36719m | 4.4m/s | -29.6°C | 1% | 4.5hPa | 2.5V | 02:56:44 | 02:52:59 | 00:00:00 | |
| DF8AY | 2026-09-03 00:50:41 | 52.42301 | 11.21898 | 182° | 37km/h | 36725m | 6m/s | -29.6°C | 0% | 4.4hPa | 2.6V | 02:57:10 | 02:53:00 | 00:00:00 | |
| AA1-15 | 2026-09-03 00:50:40 | 52.42311 | 11.21897 | 172° | 47km/h | 36719m | 4.4m/s | -29.6°C | 0% | 4.5hPa | 2.5V | 02:57:10 | 02:52:59 | 00:00:00 | |
| DB0DAN | 2026-09-03 00:50:40 | 52.42311 | 11.21897 | 172° | 46km/h | 36719m | 4.4m/s | -29.6°C | 0% | 4.5hPa | 2.5V | 00:00:00 | 00:00:00 | 00:00:00 | |
| DL1XH-west | 2026-09-03 00:50:40 | 52.42324 | 11.21892 | 161° | 55km/h | 36716m | 3.3m/s | -29.7°C | 0% | 4.5hPa | 2.5V | 02:57:10 | 02:52:58 | 00:00:00 | |
| DF7ER-10 | 2026-09-03 00:50:39 | 52.42324 | 11.21892 | 162° | 55km/h | 36716m | 3.3m/s | -29.7°C | -0.0% | 4.5hPa | 2.6V | 02:57:00 | 00:00:00 | 00:00:00 | |
| DD8BA-10 | 2026-09-03 00:50:38 | 52.42336 | 11.21882 | 146° | 40km/h | 36713m | 3.0m/s | -29.6°C | 1.0% | 4.4hPa | 2.6V | 02:56:00 | 00:00:00 | 00:00:00 | |
| GOEST3-10 | 2026-09-03 00:50:37 | 52.42347 | 11.21866 | 130° | 68km/h | 36709m | 4.1m/s | -29.7°C | 1.0% | 4.4hPa | 2.6V | 00:00:00 | 02:52:56 | 00:00:00 | |
| DJ8HS-15 | 2026-09-03 00:50:36 | 52.42355 | 11.21843 | 113° | 51km/h | 36705m | 5.2m/s | -29.7°C | 1.0% | 4.4hPa | 2.6V | 00:00:00 | 02:52:55 | 00:00:00 | |
| DL1XH1-15 | 2026-09-03 00:50:34 | 52.42340 | 11.21714 | 52° | 53km/h | 36676m | 2.4m/s | -29.8°C | 1% | 4.5hPa | 2.6V | 02:56:53 | 02:52:50 | 00:00:00 | |
| TFSTFS | 2026-09-03 00:50:34 | 52.42359 | 11.21789 | 84° | 73km/h | 36692m | 7.0m/s | -29.9°C | 0% | 4.5hPa | 2.5V | 00:00:00 | 00:00:00 | 00:00:00 | |
| DM0DOS-11 | 2026-09-03 00:50:33 | 52.42329 | 11.21691 | 51° | 18km/h | 36670m | 4.8m/s | -29.8°C | 1% | 4.5hPa | 2.5V | 02:56:55 | 02:52:48 | 00:00:00 | |
| DL1NUX | 2026-09-03 00:50:33 | 52.42333 | 11.21700 | 49° | 35km/h | 36673m | 3.1m/s | -29.9°C | 1% | 4.5hPa | 2.6V | 02:56:54 | 02:52:49 | 00:00:00 | |
| HSKMA3-T | 2026-09-03 00:50:32 | 52.42348 | 11.21734 | 60° | 66km/h | 36680m | 3.7m/s | -29.8°C | 0% | 4.5hPa | 2.6V | 02:57:10 | 02:52:51 | 00:00:00 | |
| AA1-15 | 2026-09-03 00:50:30 | 52.42329 | 11.21691 | 52° | 18km/h | 36670m | 4.8m/s | -29.8°C | 0% | 4.5hPa | 2.5V | 02:57:10 | 02:52:48 | 00:00:00 | |
| DL1XH-west | 2026-09-03 00:50:29 | 52.42328 | 11.21688 | 139° | 4km/h | 36663m | 6.6m/s | -29.9°C | 0% | 4.5hPa | 2.5V | 02:57:10 | 02:52:47 | 00:00:00 | |
| AP2371 | 2026-09-03 00:50:28 | 52.42327 | 11.21688 | 140° | 4km/h | 36664m | 6.6m/s | -29.9°C | 0% | 4.5hPa | 2.5V | 00:00:00 | 00:00:00 | 00:00:00 | |
| DF7ER-10 | 2026-09-03 00:50:27 | 52.42327 | 11.21688 | 140° | 4km/h | 36664m | 6.6m/s | -29.9°C | -0.0% | 4.5hPa | 2.5V | 02:57:00 | 00:00:00 | 00:00:00 | |
| DB0DAN | 2026-09-03 00:50:25 | 52.42347 | 11.21689 | 175° | 42km/h | 36645m | 3.7m/s | -29.9°C | 0% | 4.48hPa | 2.5V | 00:00:00 | 00:00:00 | 00:00:00 | |
| DL1XH1-15 | 2026-09-03 00:50:23 | 52.42381 | 11.21640 | 99° | 57km/h | 36632m | 6.1m/s | -29.9°C | 1.1% | 4.5hPa | 2.6V | 02:57:03 | 02:52:40 | 00:00:00 | |
| DL1NUX | 2026-09-03 00:50:23 | 52.42381 | 11.21615 | 83° | 66km/h | 36625m | 7.3m/s | -29.9°C | 1% | 4.5hPa | 2.5V | 02:57:04 | 02:52:39 | 00:00:00 | |
| DD8BA-10 | 2026-09-03 00:50:23 | 52.42368 | 11.21676 | 140° | 33km/h | 36641m | 1.9m/s | -29.9°C | 1.0% | 4.5hPa | 2.5V | 00:00:00 | 00:00:00 | 00:00:00 | |
| DM0DOS-11 | 2026-09-03 00:50:22 | 52.42377 | 11.21587 | 69° | 73km/h | 36618m | 6.7m/s | -29.9°C | 1% | 4.5hPa | 2.5V | 02:57:05 | 02:52:38 | 00:00:00 | |
| DL1XH-15 | 2026-09-03 00:50:22 | 52.42369 | 11.21560 | 59° | 75km/h | 36612m | 4.8m/s | -29.9°C | 1% | 4.5hPa | 2.5V | 02:57:06 | 02:52:37 | 00:00:00 | |
| HSKMA3-T | 2026-09-03 00:50:22 | 52.42376 | 11.21661 | 118° | 51km/h | 36637m | 3.8m/s | -29.9°C | 0% | 4.5hPa | 2.6V | 02:57:10 | 02:52:41 | 00:00:00 | |
| DF8AY | 2026-09-03 00:50:21 | 52.42381 | 11.21615 | 83° | 66km/h | 36625m | 7.3m/s | -29.9°C | 0% | 4.5hPa | 2.5V | 02:57:10 | 02:52:39 | 00:00:00 | |
| DL1XH-west | 2026-09-03 00:50:18 | 52.42369 | 11.21560 | 59° | 75km/h | 36612m | 4.8m/s | -29.9°C | 0% | 4.5hPa | 2.5V | 02:57:10 | 02:52:37 | 00:00:00 | |
| DB0NH | 2026-09-03 00:50:18 | 52.42369 | 11.21560 | 60° | 55km/h | 36613m | 4.8m/s | -29.8°C | 1.0% | 4.5hPa | 2.5V | 00:00:00 | 02:52:37 | 00:00:00 | |
| GOEST3-10 | 2026-09-03 00:50:17 | 52.42358 | 11.21536 | 51° | 46km/h | 36609m | 2.2m/s | -29.8°C | 1.0% | 4.5hPa | 2.5V | 00:00:00 | 02:52:36 | 00:00:00 | |
| DJ8HS-15 | 2026-09-03 00:50:16 | 52.42348 | 11.21517 | 47° | 40km/h | 36606m | 1.4m/s | -29.8°C | 1.0% | 4.5hPa | 2.5V | 00:00:00 | 02:52:35 | 00:00:00 | |
| 13BRC | 2026-09-03 00:50:14 | 52.42340 | 11.21503 | 44° | 37km/h | 36604m | 2.7m/s | -29.8°C | 0% | 4.5hPa | 2.5V | 02:57:00 | 00:00:00 | 00:00:00 | |
| DL1NUX | 2026-09-03 00:50:13 | 52.42351 | 11.21495 | 175° | 40km/h | 36573m | 3.3m/s | -29.9°C | 1% | 4.6hPa | 2.5V | 02:57:14 | 02:52:29 | 00:00:00 | |
| DL1XH1-15 | 2026-09-03 00:50:13 | 52.42342 | 11.21495 | 187° | 33km/h | 36578m | 6.2m/s | -29.8°C | 1% | 4.5hPa | 2.6V | 02:57:13 | 02:52:30 | 00:00:00 | |
| HSKMA3-T | 2026-09-03 00:50:11 | 52.42342 | 11.21495 | 188° | 33km/h | 36578m | 6.2m/s | -29.8°C | 0% | 4.6hPa | 2.6V | 02:58:01 | 02:52:30 | 00:00:00 | |
| DL1XH-15 | 2026-09-03 00:50:11 | 52.42370 | 11.21481 | 136° | 44km/h | 36568m | 2.5m/s | -29.9°C | 1% | 4.5hPa | 2.6V | 02:57:16 | 02:52:27 | 00:00:00 | |
| DB0DAN | 2026-09-03 00:50:10 | 52.42351 | 11.21495 | 175° | 38km/h | 36573m | 3.3m/s | -29.9°C | 0% | 4.57hPa | 2.5V | 00:00:00 | 00:00:00 | 00:00:00 | |
| DF8AY | 2026-09-03 00:50:10 | 52.42351 | 11.21495 | 175° | 40km/h | 36573m | 3.3m/s | -29.9°C | 0% | 4.6hPa | 2.5V | 02:58:01 | 02:52:29 | 00:00:00 | |
| AA1-15 | 2026-09-03 00:50:08 | 52.42377 | 11.21466 | 116° | 49km/h | 36565m | 4.3m/s | -29.9°C | 0% | 4.6hPa | 2.6V | 02:58:01 | 02:52:26 | 00:00:00 | |
| DL1XH-west | 2026-09-03 00:50:08 | 52.42370 | 11.21481 | 136° | 44km/h | 36568m | 2.5m/s | -29.9°C | 0% | 4.5hPa | 2.6V | 02:58:01 | 02:52:27 | 00:00:00 | |
| GOEST3-10 | 2026-09-03 00:50:07 | 52.42377 | 11.21466 | 116° | 64km/h | 36565m | 4.2m/s | -29.9°C | 1.0% | 4.5hPa | 2.6V | 00:00:00 | 02:52:26 | 00:00:00 | |
| SP3WXH-11 | 2026-09-03 00:50:05 | 52.42380 | 11.21421 | 82° | 64km/h | 36553m | 7.7m/s | -29.9°C | 0.0% | 4.6hPa | 2.6V | 00:00:00 | 00:00:00 | 00:00:00 | |
| DL4BBY-15 | 2026-09-03 00:50:04 | 52.42376 | 11.21393 | 70° | 60km/h | 36546m | 7.0m/s | -29.6°C | 0% | 0hPa | 2.6V | 00:00:00 | 00:00:00 | 00:00:00 | |
| DL1NUX | 2026-09-03 00:50:03 | 52.42341 | 11.21311 | 42° | 35km/h | 36532m | 2.5m/s | -30°C | 1% | 4.6hPa | 2.6V | 02:57:24 | 02:52:19 | 00:00:00 | |
| DL1XH1-15 | 2026-09-03 00:50:03 | 52.42349 | 11.21323 | 46° | 51km/h | 36534m | 1.6m/s | -30°C | 1% | 4.6hPa | 2.6V | 02:57:23 | 02:52:20 | 00:00:00 | |
| HSKMA3-T | 2026-09-03 00:50:01 | 52.42349 | 11.21323 | 47° | 51km/h | 36534m | 1.6m/s | -30°C | 0% | 4.6hPa | 2.6V | 02:58:01 | 02:52:20 | 00:00:00 | |
| DM0DOS-11 | 2026-09-03 00:50:01 | 52.42337 | 11.21304 | 41° | 15km/h | 36528m | 4.9m/s | -30°C | 1% | 4.6hPa | 2.5V | 02:57:25 | 02:52:18 | 00:00:00 | |
| DF8AY-15 | 2026-09-03 00:50:01 | 52.42349 | 11.21323 | 47° | 51km/h | 36535m | 1.5m/s | -29.9°C | 1.0% | 4.6hPa | 2.5V | 00:00:00 | 02:52:20 | 00:00:00 | |
| DL1XH-15 | 2026-09-03 00:50:00 | 52.42336 | 11.21302 | 166° | 2km/h | 36523m | 7m/s | -30°C | 1% | 4.6hPa | 2.5V | 02:57:26 | 02:52:17 | 00:00:00 | |
| DF8AY | 2026-09-03 00:49:59 | 52.42378 | 11.21295 | 145° | 49km/h | 36496m | 2.3m/s | -30.2°C | 0% | 4.6hPa | 2.6V | 02:58:01 | 02:52:12 | 00:00:00 | |
| AA1-15 | 2026-09-03 00:49:59 | 52.42345 | 11.21306 | 190° | 35km/h | 36508m | 6.9m/s | -30.1°C | 0% | 4.6hPa | 2.6V | 02:58:01 | 02:52:15 | 00:00:00 | |
| DL1XH-west | 2026-09-03 00:49:58 | 52.42336 | 11.21302 | 167° | 2km/h | 36523m | 7m/s | -30°C | 0% | 4.6hPa | 2.5V | 02:58:01 | 02:52:17 | 00:00:00 | |
| SONDE2-11 | 2026-09-03 00:49:58 | 52.42338 | 11.21303 | 197° | 18km/h | 36516m | 7.9m/s | -30.1°C | 0.0% | 4.6hPa | 2.5V | 00:00:00 | 00:00:00 | 00:00:00 | |
| BUE01 | 2026-09-03 00:49:56 | 52.42378 | 11.21295 | 145° | 49km/h | 36496m | 2.3m/s | -30.2°C | 0.0% | 4.6hPa | 2.5V | 00:00:00 | 00:00:00 | 00:00:00 | |
| DB0DAN | 2026-09-03 00:49:55 | 52.42355 | 11.21307 | 179° | 44km/h | 36502m | 4.5m/s | -30.1°C | 0% | 4.58hPa | 2.5V | 00:00:00 | 00:00:00 | 00:00:00 | |
| DL1XH-15 | 2026-09-03 00:49:54 | 52.42385 | 11.21187 | 59° | 66km/h | 36471m | 4.8m/s | -30.2°C | 1.1% | 4.6hPa | 2.5V | 02:57:36 | 02:52:07 | 00:00:00 | |
| DL1NUX | 2026-09-03 00:49:54 | 52.42394 | 11.21237 | 87° | 60km/h | 36482m | 6m/s | -30.2°C | 1% | 4.6hPa | 2.5V | 02:57:34 | 02:52:09 | 00:00:00 | |
| 13BRC | 2026-09-03 00:49:53 | 52.42367 | 11.21304 | 165° | 49km/h | 36499m | 2.3m/s | -30.2°C | 0% | 4.6hPa | 2.6V | 02:58:00 | 00:00:00 | 00:00:00 | |
| DL1XH1-15 | 2026-09-03 00:49:52 | 52.42393 | 11.21261 | 105° | 55km/h | 36488m | 5.1m/s | -30.1°C | 1% | 4.6hPa | 2.6V | 02:57:33 | 02:52:10 | 00:00:00 | |
| HSKMA3-T | 2026-09-03 00:49:51 | 52.42393 | 11.21261 | 106° | 55km/h | 36489m | 5.1m/s | -30.2°C | 0% | 4.6hPa | 2.6V | 02:58:01 | 02:52:10 | 00:00:00 | |
| BIOWL1-15 | 2026-09-03 00:49:51 | 52.42394 | 11.21237 | 88° | 60km/h | 36482m | 6m/s | 0°C | 0% | 0hPa | 2.5V | 18:12:15 | 02:52:09 | 00:00:00 | |
| DM0DOS-11 | 2026-09-03 00:49:50 | 52.42392 | 11.21212 | 73° | 66km/h | 36476m | 6.1m/s | -30.1°C | 1.1% | 4.6hPa | 2.5V | 02:57:35 | 02:52:08 | 00:00:00 | |
| DF8AY | 2026-09-03 00:49:48 | 52.42385 | 11.21187 | 60° | 66km/h | 36471m | 4.8m/s | -30.2°C | 0% | 4.6hPa | 2.5V | 02:58:01 | 02:52:07 | 00:00:00 | |
| DL1XH-west | 2026-09-03 00:49:47 | 52.42376 | 11.21166 | 51° | 60km/h | 36467m | 3.1m/s | -30.2°C | 0% | 4.6hPa | 2.6V | 02:58:01 | 02:52:06 | 00:00:00 | |
| AA1-15 | 2026-09-03 00:49:46 | 52.42367 | 11.21149 | 43° | 47km/h | 36464m | 2.1m/s | -30.2°C | 0% | 4.6hPa | 2.6V | 02:58:01 | 02:52:05 | 00:00:00 | |
| S3001 | 2026-09-03 00:49:46 | 52.42367 | 11.21149 | 43° | 46km/h | 36465m | 2.1m/s | -30.2°C | 0.0% | 4.6hPa | 2.6V | 00:00:00 | 00:00:00 | 00:00:00 | |
| SONCRA | 2026-09-03 00:49:44 | 52.42355 | 11.21134 | 34° | 13km/h | 36459m | 5.0m/s | -30.2°C | 0.0% | 4.6hPa | 2.6V | 00:00:00 | 00:00:00 | 00:00:00 | |
| DL1XH-15 | 2026-09-03 00:49:43 | 52.42397 | 11.21119 | 136° | 47km/h | 36429m | 2.9m/s | -30.2°C | 1.1% | 4.7hPa | 2.6V | 02:57:46 | 02:51:57 | 00:00:00 | |
| DL1NUX | 2026-09-03 00:49:43 | 52.42376 | 11.21135 | 171° | 46km/h | 36435m | 3.1m/s | -30.2°C | 1.1% | 4.6hPa | 2.5V | 02:57:44 | 02:51:59 | 00:00:00 | |
| GOEST3-10 | 2026-09-03 00:49:42 | 52.42358 | 11.21134 | 191° | 40km/h | 36446m | 7.5m/s | -30.2°C | 1.0% | 4.6hPa | 2.6V | 02:57:00 | 00:00:00 | 00:00:00 | |
| DO3MHA-11 | 2026-09-03 00:49:41 | 52.42365 | 11.21136 | 185° | 51km/h | 36440m | 5.8m/s | -30.2°C | 1.1% | 4.6hPa | 2.5V | 00:00:00 | 02:52:00 | 00:00:00 | |
| DM0DOS-11 | 2026-09-03 00:49:40 | 52.42387 | 11.21129 | 155° | 47km/h | 36432m | 2.3m/s | -30.2°C | 1.1% | 4.6hPa | 2.5V | 02:57:45 | 02:51:58 | 00:00:00 | |
| DB0DAN | 2026-09-03 00:49:40 | 52.42376 | 11.21135 | 171° | 44km/h | 36435m | 3.2m/s | -30.2°C | 0% | 4.63hPa | 2.5V | 00:00:00 | 00:00:00 | 00:00:00 | |
| HSKMA3-T | 2026-09-03 00:49:40 | 52.42376 | 11.21135 | 171° | 46km/h | 36435m | 3.2m/s | -30.2°C | 0% | 4.6hPa | 2.5V | 02:58:01 | 02:51:59 | 00:00:00 | |
| DL1XH-west | 2026-09-03 00:49:37 | 52.42404 | 11.21103 | 116° | 49km/h | 36425m | 4.6m/s | -30.2°C | 0% | 4.7hPa | 2.6V | 02:58:01 | 02:51:56 | 00:00:00 | |
| AA1-15 | 2026-09-03 00:49:36 | 52.42407 | 11.21082 | 97° | 55km/h | 36420m | 6.5m/s | -30.1°C | 0% | 4.7hPa | 2.6V | 02:58:01 | 02:51:55 | 00:00:00 | |
| DJ8HS-15 | 2026-09-03 00:49:36 | 52.42407 | 11.21082 | 98° | 47km/h | 36421m | 6.4m/s | -30.1°C | 1.0% | 4.6hPa | 2.5V | 00:00:00 | 02:51:55 | 00:00:00 | |
| SP3WXH-11 | 2026-09-03 00:49:34 | 52.42402 | 11.21035 | 67° | 62km/h | 36408m | 5.4m/s | -30.1°C | 0.0% | 4.7hPa | 2.5V | 00:00:00 | 00:00:00 | 00:00:00 | |
| DL1XH-15 | 2026-09-03 00:49:33 | 52.42381 | 11.20975 | 197° | 26km/h | 36382m | 7.8m/s | -30.1°C | 1.1% | 4.7hPa | 2.5V | 02:57:56 | 02:51:47 | 00:00:00 | |
| GOEST3-10 | 2026-09-03 00:49:32 | 52.42388 | 11.20994 | 51° | 26km/h | 36401m | 2.4m/s | -30.0°C | 1.0% | 4.7hPa | 2.6V | 00:00:00 | 00:00:00 | 00:00:00 | |
| DO3MHA-11 | 2026-09-03 00:49:31 | 52.42381 | 11.20982 | 46° | 40km/h | 36398m | 2.5m/s | -30.0°C | 1.1% | 4.6hPa | 2.6V | 02:57:00 | 02:51:50 | 00:00:00 | |
| DM0DOS-11 | 2026-09-03 00:49:30 | 52.42377 | 11.20973 | 189° | 7km/h | 36389m | 6.2m/s | -30.1°C | 1.1% | 4.7hPa | 2.5V | 02:57:55 | 02:51:48 | 00:00:00 | |
| HSKMA3-T | 2026-09-03 00:49:29 | 52.42377 | 11.20974 | 189° | 7km/h | 36389m | 6.2m/s | -30.1°C | 0% | 4.7hPa | 2.5V | 02:58:01 | 02:51:48 | 00:00:00 | |
| DL1XH-west | 2026-09-03 00:49:27 | 52.42389 | 11.20978 | 191° | 44km/h | 36376m | 6.6m/s | -30.1°C | 0% | 4.7hPa | 2.6V | 02:58:01 | 02:51:46 | 00:00:00 | |
| DF8AY | 2026-09-03 00:49:26 | 52.42401 | 11.20981 | 188° | 55km/h | 36371m | 3.9m/s | -30.1°C | 0% | 4.7hPa | 2.6V | 02:58:01 | 02:51:45 | 00:00:00 | |
| AA1-15 | 2026-09-03 00:49:25 | 52.42415 | 11.20981 | 170° | 58km/h | 36367m | 2.2m/s | -30.1°C | 0% | 4.7hPa | 2.5V | 02:58:01 | 02:51:44 | 00:00:00 | |
| DB0DAN | 2026-09-03 00:49:25 | 52.42415 | 11.20981 | 169° | 55km/h | 36367m | 2.2m/s | -30.1°C | 0% | 4.71hPa | 2.5V | 00:00:00 | 00:00:00 | 00:00:00 | |
| DM0DOS-11 | 2026-09-03 00:49:25 | 52.42448 | 11.20871 | 70° | 60km/h | 36335m | 4.6m/s | -30°C | 1% | 4.7hPa | 2.5V | 02:58:05 | 02:51:38 | 00:00:00 | |
| DO9LL-15 | 2026-09-03 00:49:24 | 52.42428 | 11.20973 | 154° | 51km/h | 36365m | 2.1m/s | -30.0°C | 1.1% | 4.6hPa | 2.6V | 00:00:00 | 02:51:43 | 00:00:00 | |
| DD8BA-10 | 2026-09-03 00:49:23 | 52.42440 | 11.20960 | 134° | 40km/h | 36361m | 4.5m/s | -30.0°C | 1.0% | 4.6hPa | 2.6V | 02:58:00 | 00:00:00 | 00:00:00 | |
| GOEST3-10 | 2026-09-03 00:49:22 | 52.42447 | 11.20941 | 117° | 57km/h | 36356m | 6.5m/s | -30.0°C | 1.0% | 4.7hPa | 2.5V | 00:00:00 | 00:00:00 | 00:00:00 | |
| DO3MHA-11 | 2026-09-03 00:49:21 | 52.42452 | 11.20919 | 99° | 42km/h | 36350m | 7.6m/s | -30.0°C | 1.1% | 4.6hPa | 2.5V | 00:00:00 | 02:51:40 | 00:00:00 | |
| DL1XH-15 | 2026-09-03 00:49:20 | 52.42442 | 11.20850 | 62° | 51km/h | 36332m | 2m/s | -30°C | 1.1% | 4.7hPa | 2.5V | 02:58:06 | 02:51:37 | 00:00:00 | |
| HSKMA3-T | 2026-09-03 00:49:19 | 52.42448 | 11.20871 | 70° | 60km/h | 36335m | 4.6m/s | -30°C | 0% | 4.7hPa | 2.5V | 02:58:52 | 02:51:38 | 00:00:00 | |
| DF8AY | 2026-09-03 00:49:18 | 52.42433 | 11.20817 | 130° | 11km/h | 36324m | 5.4m/s | -30°C | 0% | 4.7hPa | 2.6V | 02:59:43 | 02:51:34 | 00:00:00 | |
| DL1XH-west | 2026-09-03 00:49:16 | 52.42433 | 11.20823 | 72° | 22km/h | 36328m | 3m/s | -30°C | 0% | 4.7hPa | 2.6V | 02:58:52 | 02:51:35 | 00:00:00 | |
| AA1-15 | 2026-09-03 00:49:14 | 52.42437 | 11.20816 | 184° | 24km/h | 36318m | 6.8m/s | -30°C | 0% | 4.7hPa | 2.5V | 02:58:52 | 02:51:33 | 00:00:00 | |
| DL1XH-15 | 2026-09-03 00:49:13 | 52.42510 | 11.20796 | 130° | 53km/h | 36294m | 4.2m/s | -29.9°C | 1% | 4.7hPa | 2.6V | 02:58:16 | 02:51:27 | 00:00:00 | |
| DL1XH1-15 | 2026-09-03 00:49:12 | 52.42472 | 11.20822 | 178° | 60km/h | 36301m | 3.1m/s | -30°C | 1.1% | 4.8hPa | 2.6V | 02:58:13 | 02:51:30 | 00:00:00 | |
| GOEST3-10 | 2026-09-03 00:49:12 | 52.42458 | 11.20821 | 188° | 57km/h | 36305m | 5.2m/s | -30.0°C | 1.1% | 4.7hPa | 2.5V | 02:58:00 | 00:00:00 | 00:00:00 | |
| DB0DAN | 2026-09-03 00:49:10 | 52.42486 | 11.20819 | 166° | 57km/h | 36299m | 1.5m/s | -30°C | 0% | 4.78hPa | 2.6V | 00:00:00 | 00:00:00 | 00:00:00 | |
| HSKMA3-T | 2026-09-03 00:49:09 | 52.42510 | 11.20796 | 131° | 53km/h | 36294m | 4.2m/s | -29.9°C | 0% | 4.7hPa | 2.6V | 02:58:52 | 02:51:27 | 00:00:00 | |
| SMARD9-15 | 2026-09-03 00:49:09 | 52.42510 | 11.20796 | 130° | 53km/h | 36294m | 4.2m/s | -29.9°C | 0.0% | 4.7hPa | 2.5V | 00:00:00 | 00:00:00 | 00:00:00 | |
| 13BRC | 2026-09-03 00:49:08 | 52.42510 | 11.20796 | 132° | 53km/h | 36294m | 4.2m/s | -29.9°C | 0% | 4.7hPa | 2.5V | 02:58:00 | 00:00:00 | 00:00:00 | |
| DL1XH1-15 | 2026-09-03 00:49:07 | 52.42501 | 11.20653 | 145° | 13km/h | 36256m | 6m/s | -29.8°C | 1% | 4.8hPa | 2.5V | 02:58:24 | 02:51:19 | 00:00:00 | |
| DL1XH-west | 2026-09-03 00:49:05 | 52.42518 | 11.20730 | 78° | 62km/h | 36275m | 6.4m/s | -29.9°C | 0% | 4.8hPa | 2.5V | 02:58:52 | 02:51:24 | 00:00:00 | |
| DF8AY | 2026-09-03 00:49:04 | 52.42514 | 11.20706 | 69° | 62km/h | 36269m | 3.9m/s | -29.9°C | 0% | 4.8hPa | 2.6V | 02:59:43 | 02:51:23 | 00:00:00 | |
| HSKMA3-T | 2026-09-03 00:48:58 | 52.42527 | 11.20656 | 186° | 55km/h | 36237m | 3.9m/s | -29.7°C | 0% | 4.8hPa | 2.6V | 02:58:52 | 02:51:16 | 00:00:00 | |
| DL1XH-west | 2026-09-03 00:48:55 | 52.42564 | 11.20641 | 140° | 47km/h | 36232m | 2.1m/s | -29.7°C | 0% | 4.8hPa | 2.5V | 02:58:52 | 02:51:13 | 00:00:00 | |
| AA1-15 | 2026-09-03 00:48:53 | 52.42571 | 11.20626 | 117° | 49km/h | 36228m | 5.7m/s | -29.7°C | 0% | 4.8hPa | 2.6V | 02:58:52 | 02:51:12 | 00:00:00 | |
| DL1XH-15 | 2026-09-03 00:48:52 | 52.42555 | 11.20510 | 62° | 53km/h | 36200m | -0m/s | -29.6°C | 1% | 4.8hPa | 2.5V | 02:58:36 | 02:51:07 | 00:00:00 | |
| HSKMA3-T | 2026-09-03 00:48:46 | 52.42549 | 11.20480 | 92° | 24km/h | 36197m | 4.3m/s | -29.5°C | 0% | 4.8hPa | 2.6V | 02:58:52 | 02:51:05 | 00:00:00 | |
| DL1XH-west | 2026-09-03 00:48:44 | 52.42557 | 11.20468 | 171° | 33km/h | 36183m | 8.5m/s | -29.5°C | 0% | 4.9hPa | 2.5V | 02:58:52 | 02:51:03 | 00:00:00 | |
| EDDB2-11 | 2026-09-03 00:48:44 | 52.42557 | 11.20468 | 170° | 33km/h | 36183m | 8.5m/s | -29.5°C | 0.0% | 4.9hPa | 2.5V | 00:00:00 | 00:00:00 | 00:00:00 | |
| AA1-15 | 2026-09-03 00:48:43 | 52.42567 | 11.20467 | 182° | 49km/h | 36175m | 7.3m/s | -29.5°C | 0% | 4.8hPa | 2.5V | 02:58:52 | 02:51:02 | 00:00:00 | |
| DF8AY | 2026-09-03 00:48:42 | 52.42581 | 11.20467 | 178° | 58km/h | 36169m | 3.8m/s | -29.5°C | 0% | 4.8hPa | 2.5V | 02:59:43 | 02:51:01 | 00:00:00 | |
| SONCRA | 2026-09-03 00:48:42 | 52.42595 | 11.20465 | 169° | 55km/h | 36168m | 0.8m/s | -29.5°C | 0.0% | 4.8hPa | 2.6V | 00:00:00 | 00:00:00 | 00:00:00 | |
| DM0DOS-11 | 2026-09-03 00:48:41 | 52.42617 | 11.20446 | 132° | 47km/h | 36165m | 2.5m/s | -29.5°C | 1% | 4.8hPa | 2.6V | 02:58:45 | 02:50:58 | 00:00:00 | |
| DB0DAN | 2026-09-03 00:48:40 | 52.42607 | 11.20458 | 154° | 47km/h | 36167m | 0.4m/s | -29.5°C | 0% | 4.87hPa | 2.6V | 00:00:00 | 00:00:00 | 00:00:00 | |
| HSKMA3-T | 2026-09-03 00:48:35 | 52.42617 | 11.20358 | 62° | 71km/h | 36138m | 7m/s | -29.4°C | 0% | 4.8hPa | 2.6V | 02:58:52 | 02:50:54 | 00:00:00 | |
| DL1XH-west | 2026-09-03 00:48:34 | 52.42608 | 11.20333 | 58° | 69km/h | 36133m | 3.6m/s | -29.4°C | 0% | 4.8hPa | 2.6V | 02:58:52 | 02:50:53 | 00:00:00 | |
| DL1NUX | 2026-09-03 00:48:33 | 52.42586 | 11.20272 | 97° | 15km/h | 36121m | 6.7m/s | -29.4°C | 1% | 4.9hPa | 2.6V | 02:58:54 | 02:50:49 | 00:00:00 | |
| AA1-15 | 2026-09-03 00:48:33 | 52.42599 | 11.20311 | 56° | 58km/h | 36130m | 1.5m/s | -29.4°C | 0% | 4.8hPa | 2.5V | 02:58:52 | 02:50:52 | 00:00:00 | |
| DL1XH-15 | 2026-09-03 00:48:32 | 52.42595 | 11.20266 | 178° | 33km/h | 36105m | 8.2m/s | -29.4°C | 1% | 4.9hPa | 2.6V | 02:58:56 | 02:50:47 | 00:00:00 | |
| DF8AY | 2026-09-03 00:48:31 | 52.42587 | 11.20281 | 64° | 27km/h | 36126m | 3.5m/s | -29.4°C | 0% | 4.9hPa | 2.5V | 02:59:43 | 02:50:50 | 00:00:00 | |
| DO3MHA-11 | 2026-09-03 00:48:31 | 52.42587 | 11.20281 | 65° | 37km/h | 36126m | 3.5m/s | -29.3°C | 1.0% | 4.8hPa | 2.5V | 02:58:00 | 02:50:50 | 00:00:00 | |
| DO2SHX-10 | 2026-09-03 00:48:28 | 52.42595 | 11.20266 | 179° | 44km/h | 36106m | 8.1m/s | -29.4°C | 1.0% | 4.8hPa | 2.6V | 02:58:00 | 02:50:47 | 00:00:00 | |
| GOEST3-10 | 2026-09-03 00:48:27 | 52.42604 | 11.20265 | 179° | 47km/h | 36099m | 5.6m/s | -29.4°C | 1.0% | 4.8hPa | 2.5V | 02:58:00 | 02:50:46 | 00:00:00 | |
| 13BRC | 2026-09-03 00:48:26 | 52.42604 | 11.20265 | 179° | 44km/h | 36099m | 5.6m/s | -29.4°C | 0% | 4.9hPa | 2.5V | 02:59:00 | 00:00:00 | 00:00:00 | |
| DB0DAN | 2026-09-03 00:48:25 | 52.42628 | 11.20256 | 153° | 47km/h | 36093m | 0.9m/s | -29.5°C | 0% | 4.91hPa | 2.5V | 00:00:00 | 00:00:00 | 00:00:00 | |
| DL1XH-west | 2026-09-03 00:48:24 | 52.42637 | 11.20244 | 132° | 47km/h | 36091m | 1.9m/s | -29.5°C | 0% | 4.9hPa | 2.6V | 02:59:43 | 02:50:43 | 00:00:00 | |
| DL1NUX | 2026-09-03 00:48:23 | 52.42640 | 11.20158 | 65° | 69km/h | 36068m | 7.6m/s | -29.6°C | 1% | 4.9hPa | 2.5V | 02:59:04 | 02:50:39 | 00:00:00 | |
| AA1-15 | 2026-09-03 00:48:22 | 52.42646 | 11.20207 | 93° | 55km/h | 36083m | 6.8m/s | -29.6°C | 0% | 4.9hPa | 2.6V | 02:59:43 | 02:50:41 | 00:00:00 | |
| DF8AY | 2026-09-03 00:48:20 | 52.42640 | 11.20157 | 65° | 69km/h | 36068m | 7.6m/s | -29.6°C | 0% | 4.9hPa | 2.5V | 02:59:43 | 02:50:39 | 00:00:00 | |
| HSKMA3-T | 2026-09-03 00:48:13 | 52.42600 | 11.20061 | 154° | 18km/h | 36034m | 7.1m/s | -29.7°C | 0% | 4.9hPa | 2.6V | 02:59:43 | 02:50:32 | 00:00:00 | |
| DL1NUX | 2026-09-03 00:48:13 | 52.42623 | 11.20042 | 140° | 46km/h | 36019m | 2.5m/s | -29.7°C | 1% | 5hPa | 2.5V | 02:59:14 | 02:50:29 | 00:00:00 | |
| S3001 | 2026-09-03 00:48:13 | 52.42606 | 11.20057 | 161° | 31km/h | 36028m | 6.1m/s | -29.7°C | 0.0% | 5.0hPa | 2.5V | 00:00:00 | 00:00:00 | 00:00:00 | |
| DL1XH-15 | 2026-09-03 00:48:12 | 52.42635 | 11.20009 | 104° | 53km/h | 36013m | 4.2m/s | -29.7°C | 1% | 5hPa | 2.5V | 02:59:16 | 02:50:27 | 00:00:00 | |
| AA1-15 | 2026-09-03 00:48:11 | 52.42614 | 11.20052 | 153° | 40km/h | 36023m | 4.2m/s | -29.7°C | 0% | 5hPa | 2.6V | 02:59:43 | 02:50:30 | 00:00:00 | |
| DF8AY | 2026-09-03 00:48:10 | 52.42623 | 11.20042 | 140° | 46km/h | 36019m | 2.6m/s | -29.7°C | 0% | 5hPa | 2.5V | 02:59:43 | 02:50:29 | 00:00:00 | |
| DB0DAN | 2026-09-03 00:48:10 | 52.42623 | 11.20042 | 140° | 42km/h | 36019m | 2.6m/s | -29.7°C | 0% | 4.97hPa | 2.5V | 00:00:00 | 00:00:00 | 00:00:00 | |
| DD8BA-10 | 2026-09-03 00:48:08 | 52.42636 | 11.20009 | 105° | 37km/h | 36014m | 4.2m/s | -29.7°C | 1.0% | 4.9hPa | 2.6V | 00:00:00 | 00:00:00 | 00:00:00 | |
| OE5DXL-15 | 2026-09-03 00:48:07 | 52.42637 | 11.19986 | 89° | 46km/h | 36009m | 5.4m/s | -29.7°C | 1.0% | 4.9hPa | 2.6V | 00:00:00 | 00:00:00 | 00:00:00 | |
| GOEST3-10 | 2026-09-03 00:48:06 | 52.42635 | 11.19961 | 76° | 66km/h | 36003m | 6.9m/s | -29.7°C | 1.0% | 4.9hPa | 2.6V | 00:00:00 | 02:50:25 | 00:00:00 | |
| 13BRC | 2026-09-03 00:48:05 | 52.42634 | 11.19961 | 76° | 66km/h | 36003m | 6.9m/s | -29.8°C | 0% | 5.0hPa | 2.6V | 02:59:00 | 00:00:00 | 00:00:00 | |
| DM0DOS-11 | 2026-09-03 00:48:04 | 52.42585 | 11.19821 | 116° | 24km/h | 35962m | 6.6m/s | -29.9°C | 1% | 5hPa | 2.6V | 02:59:26 | 02:50:17 | 00:00:00 | |
| DL1XH-west | 2026-09-03 00:48:03 | 52.42610 | 11.19888 | 50° | 68km/h | 35985m | 3.5m/s | -29.8°C | 0% | 5hPa | 2.5V | 02:59:43 | 02:50:22 | 00:00:00 | |
| DL1NUX | 2026-09-03 00:48:03 | 52.42586 | 11.19840 | 61° | 31km/h | 35974m | 5m/s | -29.9°C | 1% | 5hPa | 2.5V | 02:59:24 | 02:50:19 | 00:00:00 | |
| HSKMA3-T | 2026-09-03 00:48:02 | 52.42599 | 11.19869 | 49° | 57km/h | 35981m | 2.7m/s | -29.8°C | 0% | 5hPa | 2.6V | 02:59:43 | 02:50:21 | 00:00:00 | |
| AA1-15 | 2026-09-03 00:48:01 | 52.42591 | 11.19853 | 52° | 44km/h | 35978m | 3.7m/s | -29.9°C | 0% | 5hPa | 2.6V | 02:59:43 | 02:50:20 | 00:00:00 | |
| DF8AY | 2026-09-03 00:48:00 | 52.42586 | 11.19840 | 61° | 31km/h | 35974m | 5m/s | -29.9°C | 0% | 5hPa | 2.5V | 02:59:43 | 02:50:19 | 00:00:00 | |
| EDDB2-12 | 2026-09-03 00:47:56 | 52.42594 | 11.19802 | 128° | 33km/h | 35950m | 4.7m/s | -29.9°C | 0.0% | 5.0hPa | 2.5V | 00:00:00 | 00:00:00 | 00:00:00 | |
| DB0DAN | 2026-09-03 00:47:55 | 52.42598 | 11.19790 | 119° | 37km/h | 35946m | 3.8m/s | -29.9°C | 0% | 5.05hPa | 2.5V | 00:00:00 | 00:00:00 | 00:00:00 | |
| DL1XH-west | 2026-09-03 00:47:54 | 52.42604 | 11.19757 | 91° | 46km/h | 35937m | 4.2m/s | -29.9°C | 0% | 5hPa | 2.5V | 02:59:43 | 02:50:12 | 00:00:00 | |
| DM0DOS-11 | 2026-09-03 00:47:53 | 52.42583 | 11.19674 | 53° | 60km/h | 35916m | 4.2m/s | -30°C | 1% | 5hPa | 2.5V | 02:59:35 | 02:50:08 | 00:00:00 | |
| DL1NUX | 2026-09-03 00:47:53 | 52.42591 | 11.19695 | 57° | 60km/h | 35921m | 5.5m/s | -29.9°C | 1.1% | 5hPa | 2.6V | 02:59:34 | 02:50:09 | 00:00:00 | |
| NBG1-10 | 2026-09-03 00:47:53 | 52.42604 | 11.19757 | 92° | 37km/h | 35938m | 4.2m/s | -29.9°C | 1.1% | 5.0hPa | 2.5V | 00:00:00 | 02:50:12 | 00:00:00 | |
| DL1XH-15 | 2026-09-03 00:47:52 | 52.42574 | 11.19655 | 52° | 57km/h | 35912m | 3.4m/s | -30°C | 1% | 5hPa | 2.5V | 02:59:36 | 02:50:07 | 00:00:00 | |
| HSKMA3-T | 2026-09-03 00:47:51 | 52.42598 | 11.19716 | 66° | 57km/h | 35926m | 5.8m/s | -29.9°C | 0% | 5hPa | 2.6V | 02:59:43 | 02:50:10 | 00:00:00 | |
| AA1-15 | 2026-09-03 00:47:51 | 52.42591 | 11.19695 | 58° | 60km/h | 35921m | 5.5m/s | -29.9°C | 0% | 5hPa | 2.6V | 02:59:43 | 02:50:09 | 00:00:00 | |
| DF8AY | 2026-09-03 00:47:48 | 52.42566 | 11.19638 | 54° | 47km/h | 35908m | 3.4m/s | -30°C | 0% | 5hPa | 2.5V | 02:59:43 | 02:50:06 | 00:00:00 | |
| DL1XH-west | 2026-09-03 00:47:43 | 52.42563 | 11.19574 | 121° | 35km/h | 35883m | 4.1m/s | -30.2°C | 0% | 5.1hPa | 2.5V | 02:59:43 | 02:50:01 | 00:00:00 | |
| DL1NUX | 2026-09-03 00:47:43 | 52.42570 | 11.19546 | 101° | 38km/h | 35876m | 3.2m/s | -30.2°C | 1.1% | 5.1hPa | 2.6V | 02:59:44 | 02:49:59 | 00:00:00 | |
| DM0DOS-11 | 2026-09-03 00:47:42 | 52.42571 | 11.19529 | 85° | 44km/h | 35872m | 4.1m/s | -30.2°C | 1.1% | 5.1hPa | 2.5V | 02:59:45 | 02:49:58 | 00:00:00 | |
| DL1XH-15 | 2026-09-03 00:47:42 | 52.42569 | 11.19510 | 72° | 49km/h | 35866m | 5.9m/s | -30.3°C | 1.1% | 5.1hPa | 2.5V | 02:59:46 | 02:49:57 | 00:00:00 | |
| HSKMA3-T | 2026-09-03 00:47:41 | 52.42567 | 11.19561 | 114° | 38km/h | 35879m | 3m/s | -30.2°C | 0% | 5.1hPa | 2.6V | 02:59:43 | 02:50:00 | 00:00:00 | |
| DB0DAN | 2026-09-03 00:47:40 | 52.42570 | 11.19546 | 101° | 37km/h | 35876m | 3.2m/s | -30.2°C | 0% | 5.08hPa | 2.6V | 00:00:00 | 00:00:00 | 00:00:00 | |
| AA1-15 | 2026-09-03 00:47:39 | 52.42571 | 11.19529 | 85° | 44km/h | 35872m | 4.1m/s | -30.3°C | 0% | 5.1hPa | 2.5V | 03:00:34 | 02:49:58 | 00:00:00 | |
| DF8AY | 2026-09-03 00:47:36 | 52.42555 | 11.19471 | 51° | 60km/h | 35854m | 5.4m/s | -30.3°C | 0% | 5.1hPa | 2.6V | 03:00:34 | 02:49:55 | 00:00:00 | |
| SMARD9-10 | 2026-09-03 00:47:36 | 52.42563 | 11.19491 | 62° | 55km/h | 35861m | 6.1m/s | -30.3°C | 0% | 5.1hPa | 2.5V | 03:00:00 | 00:00:00 | 00:00:00 | |
| DF7PN | 2026-09-03 00:47:35 | 52.42535 | 11.19437 | 42° | 51km/h | 35846m | 1.9m/s | -30.2°C | 0.0% | 5.1hPa | 2.5V | 00:00:00 | 00:00:00 | 00:00:00 | |
| DF8AY-15 | 2026-09-03 00:47:34 | 52.42535 | 11.19437 | 43° | 42km/h | 35847m | 1.8m/s | -30.1°C | 1.1% | 5.0hPa | 2.5V | 02:59:00 | 02:49:53 | 00:00:00 | |
| DL1XH1-15 | 2026-09-03 00:47:33 | 52.42517 | 11.19400 | 119° | 13km/h | 35830m | 6.9m/s | -30.1°C | 1% | 5.1hPa | 2.6V | 02:59:54 | 02:49:49 | 00:00:00 | |
| DL1XH-15 | 2026-09-03 00:47:31 | 52.42525 | 11.19392 | 156° | 26km/h | 35819m | 3.4m/s | -30.1°C | 1.1% | 5.1hPa | 2.5V | 02:59:56 | 02:49:47 | 00:00:00 | |
| HSKMA3-T | 2026-09-03 00:47:30 | 52.42518 | 11.19400 | 120° | 13km/h | 35830m | 6.9m/s | -30.2°C | 0% | 5.1hPa | 2.6V | 03:00:34 | 02:49:49 | 00:00:00 | |
| AA1-15 | 2026-09-03 00:47:28 | 52.42525 | 11.19392 | 157° | 26km/h | 35819m | 3.4m/s | -30.1°C | 0% | 5.1hPa | 2.5V | 03:00:34 | 02:49:47 | 00:00:00 | |
| DF8AY | 2026-09-03 00:47:26 | 52.42534 | 11.19369 | 84° | 29km/h | 35809m | 5m/s | -30.2°C | 0% | 5.1hPa | 2.6V | 03:00:34 | 02:49:44 | 00:00:00 | |
| DB0DAN | 2026-09-03 00:47:25 | 52.42534 | 11.19369 | 84° | 27km/h | 35809m | 5m/s | -30.2°C | 0% | 5.12hPa | 2.6V | 00:00:00 | 00:00:00 | 00:00:00 | |
| 13BRC | 2026-09-03 00:47:25 | 52.42534 | 11.19369 | 85° | 29km/h | 35809m | 5.0m/s | -30.2°C | 0% | 5.1hPa | 2.6V | 03:00:00 | 00:00:00 | 00:00:00 | |
| AU51GT2 | 2026-09-03 00:47:23 | 52.42526 | 11.19339 | 54° | 47km/h | 35797m | 6.7m/s | -30.2°C | 0.0% | 5.2hPa | 2.6V | 00:00:00 | 00:00:00 | 00:00:00 | |
| DL1XH1-15 | 2026-09-03 00:47:22 | 52.42498 | 11.19287 | 47° | 51km/h | 35784m | 2.2m/s | -30.3°C | 1% | 5.2hPa | 2.6V | 03:00:04 | 02:49:39 | 00:00:00 | |
| DO3MHA-11 | 2026-09-03 00:47:21 | 52.42507 | 11.19304 | 48° | 31km/h | 35787m | 3.1m/s | -30.2°C | 1.1% | 5.1hPa | 2.6V | 00:00:00 | 02:49:40 | 00:00:00 | |
| DM0DOS-11 | 2026-09-03 00:47:20 | 52.42491 | 11.19273 | 53° | 40km/h | 35781m | 2.2m/s | -30.3°C | 1.1% | 5.1hPa | 2.6V | 03:00:05 | 02:49:38 | 00:00:00 | |
| HSKMA3-T | 2026-09-03 00:47:20 | 52.42498 | 11.19287 | 48° | 51km/h | 35784m | 2.2m/s | -30.3°C | 0% | 5.2hPa | 2.6V | 03:00:34 | 02:49:39 | 00:00:00 | |
| DL1XH-west | 2026-09-03 00:47:20 | 52.42491 | 11.19273 | 53° | 40km/h | 35781m | 2.2m/s | -30.3°C | 0% | 5.1hPa | 2.6V | 03:00:34 | 02:49:38 | 00:00:00 | |
| AA1-15 | 2026-09-03 00:47:18 | 52.42487 | 11.19261 | 66° | 29km/h | 35778m | 4.4m/s | -30.3°C | 0% | 5.1hPa | 2.5V | 03:00:34 | 02:49:37 | 00:00:00 | |
| DF8AY | 2026-09-03 00:47:15 | 52.42506 | 11.19237 | 163° | 24km/h | 35752m | 2.2m/s | -30.2°C | 0% | 5.2hPa | 2.5V | 03:00:34 | 02:49:32 | 00:00:00 | |
| DM0DOS-11 | 2026-09-03 00:47:15 | 52.42496 | 11.19193 | 44° | 51km/h | 35727m | 5.1m/s | -30.1°C | 1.1% | 5.2hPa | 2.6V | 03:00:16 | 02:49:27 | 00:00:00 | |
| DO2SHX-10 | 2026-09-03 00:47:13 | 52.42506 | 11.19237 | 163° | 38km/h | 35752m | 2.1m/s | -30.2°C | 1.1% | 5.1hPa | 2.6V | 00:00:00 | 02:49:32 | 00:00:00 | |
| DL1XH1-15 | 2026-09-03 00:47:12 | 52.42509 | 11.19218 | 58° | 27km/h | 35739m | 6.7m/s | -30.1°C | 1% | 5.2hPa | 2.6V | 03:00:14 | 02:49:29 | 00:00:00 | |
| DF8AY-15 | 2026-09-03 00:47:12 | 52.42510 | 11.19234 | 136° | 33km/h | 35749m | 2.6m/s | -30.1°C | 1.0% | 5.1hPa | 2.6V | 03:00:00 | 02:49:31 | 00:00:00 | |
| DJTTGO | 2026-09-03 00:47:11 | 52.42510 | 11.19234 | 136° | 16km/h | 35749m | 2.7m/s | -30.2°C | 0% | 5.2hPa | 2.6V | 00:00:00 | 00:00:00 | 00:00:00 | |
| DB0DAN | 2026-09-03 00:47:10 | 52.42509 | 11.19218 | 59° | 27km/h | 35739m | 6.7m/s | -30.1°C | 0% | 5.15hPa | 2.6V | 00:00:00 | 00:00:00 | 00:00:00 | |
| DL1XH-15 | 2026-09-03 00:47:10 | 52.42496 | 11.19193 | 44° | 51km/h | 35727m | 5.1m/s | -30.1°C | 1.1% | 5.2hPa | 2.6V | 03:00:16 | 02:49:27 | 00:00:00 | |
| HSKMA3-T | 2026-09-03 00:47:09 | 52.42504 | 11.19207 | 49° | 42km/h | 35733m | 6.5m/s | -30.1°C | 0% | 5.2hPa | 2.6V | 03:00:34 | 02:49:28 | 00:00:00 | |
| DL1XH-west | 2026-09-03 00:47:08 | 52.42496 | 11.19193 | 44° | 51km/h | 35727m | 5.1m/s | -30.1°C | 0% | 5.2hPa | 2.6V | 03:00:34 | 02:49:27 | 00:00:00 | |
| AA1-15 | 2026-09-03 00:47:07 | 52.42486 | 11.19179 | 43° | 55km/h | 35722m | 3.4m/s | -30.1°C | 0% | 5.1hPa | 2.5V | 03:00:34 | 02:49:26 | 00:00:00 | |
| DF8AY | 2026-09-03 00:47:02 | 52.42471 | 11.19129 | 163° | 22km/h | 35701m | 7.5m/s | -30°C | 0% | 5.2hPa | 2.6V | 03:00:34 | 02:49:21 | 00:00:00 | |
| DM0DOS-11 | 2026-09-03 00:47:02 | 52.42498 | 11.19133 | 178° | 15km/h | 35684m | 2m/s | -30°C | 1% | 5.2hPa | 2.6V | 03:00:26 | 02:49:17 | 00:00:00 | |
| DL1XH1-15 | 2026-09-03 00:47:02 | 52.42485 | 11.19130 | 190° | 33km/h | 35689m | 3.7m/s | -30°C | 1.1% | 5.3hPa | 2.5V | 03:00:24 | 02:49:19 | 00:00:00 | |
| HSKMA3-T | 2026-09-03 00:46:59 | 52.42492 | 11.19132 | 189° | 26km/h | 35686m | 1.4m/s | -30°C | 0% | 5.2hPa | 2.6V | 03:00:34 | 02:49:18 | 00:00:00 | |
| DL1XH-west | 2026-09-03 00:46:58 | 52.42497 | 11.19133 | 179° | 15km/h | 35684m | 2m/s | -30°C | 0% | 5.2hPa | 2.6V | 03:00:34 | 02:49:17 | 00:00:00 | |
| AA1-15 | 2026-09-03 00:46:57 | 52.42499 | 11.19131 | 98° | 7km/h | 35682m | 4.3m/s | -30°C | 0% | 5.2hPa | 2.5V | 03:00:34 | 02:49:16 | 00:00:00 | |
| EDDB2-12 | 2026-09-03 00:46:54 | 52.42485 | 11.19107 | 42° | 47km/h | 35662m | 6.3m/s | -30.0°C | 0.0% | 5.3hPa | 2.6V | 00:00:00 | 00:00:00 | 00:00:00 | |
| DF8AY-15 | 2026-09-03 00:46:53 | 52.42467 | 11.19077 | 53° | 31km/h | 35655m | 0.8m/s | -29.9°C | 1.0% | 5.2hPa | 2.6V | 00:00:00 | 02:49:11 | 00:00:00 | |
| DM0DOS-11 | 2026-09-03 00:46:52 | 52.42464 | 11.19032 | 158° | 27km/h | 35637m | 8.3m/s | -30.1°C | 1.1% | 5.3hPa | 2.6V | 03:00:36 | 02:49:07 | 00:00:00 | |
| DL1XH1-15 | 2026-09-03 00:46:52 | 52.42458 | 11.19049 | 82° | 27km/h | 35650m | 3.8m/s | -30°C | 1.1% | 5.2hPa | 2.5V | 03:00:34 | 02:49:09 | 00:00:00 | |
| DF8AY | 2026-09-03 00:46:50 | 52.42458 | 11.19049 | 83° | 27km/h | 35650m | 3.8m/s | -30°C | 0% | 5.2hPa | 2.5V | 03:00:34 | 02:49:09 | 00:00:00 | |
| HSKMA3-T | 2026-09-03 00:46:48 | 52.42464 | 11.19032 | 159° | 27km/h | 35637m | 8.3m/s | -30.1°C | 0% | 5.3hPa | 2.6V | 03:01:25 | 02:49:07 | 00:00:00 | |
| DL1XH-west | 2026-09-03 00:46:47 | 52.42472 | 11.19030 | 179° | 38km/h | 35629m | 7.5m/s | -30.1°C | 0% | 5.2hPa | 2.6V | 03:01:25 | 02:49:06 | 00:00:00 | |
| AA1-15 | 2026-09-03 00:46:46 | 52.42483 | 11.19032 | 191° | 42km/h | 35623m | 4.6m/s | -30°C | 0% | 5.3hPa | 2.5V | 03:01:25 | 02:49:05 | 00:00:00 | |
| DO2SHX-10 | 2026-09-03 00:46:46 | 52.42482 | 11.19032 | 191° | 40km/h | 35624m | 4.6m/s | -30.0°C | 1.0% | 5.2hPa | 2.6V | 00:00:00 | 02:49:05 | 00:00:00 | |
| DD8BA-10 | 2026-09-03 00:46:45 | 52.42492 | 11.19035 | 195° | 37km/h | 35619m | 2.7m/s | -30.0°C | 1.0% | 5.2hPa | 2.6V | 00:00:00 | 00:00:00 | 00:00:00 | |
| TFSTFS | 2026-09-03 00:46:44 | 52.42492 | 11.19035 | 196° | 37km/h | 35619m | 2.8m/s | -30.1°C | 0% | 5.2hPa | 2.6V | 03:01:00 | 00:00:00 | 00:00:00 | |
| DO2SHX-10 | 2026-09-03 00:46:43 | 52.42505 | 11.19040 | 182° | 35km/h | 35614m | 3.5m/s | -30.1°C | 1.0% | 5.3hPa | 2.6V | 00:00:00 | 02:49:02 | 00:00:00 | |
| DM0DOS-11 | 2026-09-03 00:46:41 | 52.42484 | 11.18993 | 57° | 49km/h | 35585m | 3.2m/s | -30.4°C | 1.1% | 5.2hPa | 2.5V | 03:00:46 | 02:48:57 | 00:00:00 | |
| DF8AY | 2026-09-03 00:46:38 | 52.42479 | 11.18976 | 69° | 44km/h | 35582m | 2.7m/s | -30.4°C | 0% | 5.3hPa | 2.6V | 03:01:25 | 02:48:56 | 00:00:00 | |
| HSKMA3-T | 2026-09-03 00:46:38 | 52.42484 | 11.18993 | 58° | 49km/h | 35585m | 3.3m/s | -30.4°C | 0% | 5.3hPa | 2.5V | 03:01:25 | 02:48:57 | 00:00:00 | |
| DL1XH-west | 2026-09-03 00:46:37 | 52.42477 | 11.18960 | 85° | 37km/h | 35579m | 3.1m/s | -30.5°C | 0% | 5.3hPa | 2.6V | 03:01:25 | 02:48:55 | 00:00:00 | |
| AA1-15 | 2026-09-03 00:46:36 | 52.42478 | 11.18946 | 110° | 29km/h | 35575m | 4.5m/s | -30.5°C | 0% | 5.3hPa | 2.6V | 03:01:25 | 02:48:54 | 00:00:00 | |
| DO2SHX-10 | 2026-09-03 00:46:36 | 52.42477 | 11.18960 | 86° | 31km/h | 35579m | 3.0m/s | -30.4°C | 1.1% | 5.2hPa | 2.6V | 00:00:00 | 02:48:55 | 00:00:00 | |
| DF7ER-10 | 2026-09-03 00:46:35 | 52.42478 | 11.18946 | 111° | 29km/h | 35576m | 4.5m/s | -30.5°C | -0.0% | 5.3hPa | 2.6V | 03:01:00 | 00:00:00 | 00:00:00 | |
| DF7PN | 2026-09-03 00:46:33 | 52.42498 | 11.18932 | 188° | 37km/h | 35556m | 6.1m/s | -30.8°C | 0.0% | 5.3hPa | 2.6V | 00:00:00 | 00:00:00 | 00:00:00 | |
| GOEST3-10 | 2026-09-03 00:46:31 | 52.42507 | 11.18936 | 203° | 22km/h | 35551m | 4.9m/s | -30.8°C | 1.1% | 5.2hPa | 2.6V | 03:00:00 | 00:00:00 | 00:00:00 | |
| DL1XH-15 | 2026-09-03 00:46:30 | 52.42522 | 11.18956 | 255° | 13km/h | 35537m | 4.9m/s | -31°C | 1.1% | 5.3hPa | 2.6V | 03:00:56 | 02:48:47 | 00:00:00 | |
| HSKMA3-T | 2026-09-03 00:46:27 | 52.42522 | 11.18960 | 338° | 7km/h | 35532m | 5.5m/s | -31°C | 0% | 5.3hPa | 2.6V | 03:01:25 | 02:48:46 | 00:00:00 | |
| DB0DAN | 2026-09-03 00:46:25 | 52.42515 | 11.18953 | 51° | 24km/h | 35521m | 5.4m/s | -31.1°C | 0% | 5.35hPa | 2.5V | 00:00:00 | 00:00:00 | 00:00:00 | |
| DF8AY | 2026-09-03 00:46:24 | 52.42512 | 11.18943 | 69° | 29km/h | 35515m | 4.8m/s | -31.2°C | 0% | 5.3hPa | 2.5V | 03:01:25 | 02:48:43 | 00:00:00 | |
| DL1NUX | 2026-09-03 00:46:23 | 52.42523 | 11.18886 | 138° | 47km/h | 35494m | 5.2m/s | -31.3°C | 1.1% | 5.3hPa | 2.6V | 03:01:04 | 02:48:39 | 00:00:00 | |
| EDDB2-12 | 2026-09-03 00:46:23 | 52.42510 | 11.18930 | 87° | 35km/h | 35510m | 4.5m/s | -31.2°C | 0.0% | 5.3hPa | 2.6V | 00:00:00 | 00:00:00 | 00:00:00 | |
| AU51GT2 | 2026-09-03 00:46:21 | 52.42523 | 11.18886 | 138° | 46km/h | 35495m | 5.2m/s | -31.3°C | 0.0% | 5.3hPa | 2.6V | 00:00:00 | 00:00:00 | 00:00:00 | |
| DO2SHX-10 | 2026-09-03 00:46:20 | 52.42523 | 11.18886 | 139° | 46km/h | 35495m | 5.2m/s | -31.3°C | 1.1% | 5.3hPa | 2.6V | 00:00:00 | 02:48:39 | 00:00:00 | |
| DM0DOS-11 | 2026-09-03 00:46:19 | 52.42544 | 11.18869 | 169° | 46km/h | 35485m | 4.1m/s | -31.4°C | 1.1% | 5.3hPa | 2.5V | 03:01:06 | 02:48:37 | 00:00:00 | |
| DL1XH-west | 2026-09-03 00:46:17 | 52.42555 | 11.18868 | 184° | 42km/h | 35481m | 4.2m/s | -31.4°C | 0% | 5.4hPa | 2.5V | 03:01:25 | 02:48:36 | 00:00:00 | |
| DF8AY | 2026-09-03 00:46:14 | 52.42574 | 11.18882 | 247° | 18km/h | 35465m | 6.4m/s | -31.5°C | 0% | 5.4hPa | 2.6V | 03:01:25 | 02:48:33 | 00:00:00 | |
| AA1-15 | 2026-09-03 00:46:14 | 52.42574 | 11.18888 | 301° | 13km/h | 35459m | 5.4m/s | -31.5°C | 0% | 5.4hPa | 2.5V | 03:01:25 | 02:48:32 | 00:00:00 | |
| DF7ER-10 | 2026-09-03 00:46:14 | 52.42574 | 11.18882 | 248° | 18km/h | 35465m | 6.4m/s | -31.5°C | -0.0% | 5.4hPa | 2.6V | 03:01:00 | 00:00:00 | 00:00:00 | |
| DL1NUX | 2026-09-03 00:46:13 | 52.42567 | 11.18881 | 83° | 24km/h | 35446m | 4.1m/s | -31.7°C | 1.1% | 5.4hPa | 2.6V | 03:01:14 | 02:48:29 | 00:00:00 | |
| NBG1-10 | 2026-09-03 00:46:12 | 52.42571 | 11.18890 | 357° | 31km/h | 35455m | 4.1m/s | -31.5°C | 1.1% | 5.3hPa | 2.6V | 03:01:00 | 02:48:31 | 00:00:00 | |
| DB0DAN | 2026-09-03 00:46:10 | 52.42567 | 11.18881 | 84° | 24km/h | 35446m | 4.1m/s | -31.7°C | 0% | 5.4hPa | 2.6V | 00:00:00 | 00:00:00 | 00:00:00 | |
| HSKMA3-T | 2026-09-03 00:46:06 | 52.42591 | 11.18821 | 142° | 62km/h | 35421m | 5.5m/s | -31.8°C | 0% | 5.4hPa | 2.5V | 03:01:25 | 02:48:25 | 00:00:00 | |
| DF8AY | 2026-09-03 00:46:03 | 52.42630 | 11.18793 | 175° | 44km/h | 35411m | 3.6m/s | -31.9°C | 0% | 5.4hPa | 2.5V | 03:01:25 | 02:48:22 | 00:00:00 | |
| DL1NUX | 2026-09-03 00:46:03 | 52.42648 | 11.18805 | 262° | 22km/h | 35391m | 7.5m/s | -32.1°C | 1.2% | 5.5hPa | 2.6V | 03:01:24 | 02:48:19 | 00:00:00 | |
| 13BRC | 2026-09-03 00:46:03 | 52.42630 | 11.18793 | 176° | 44km/h | 35411m | 3.6m/s | -31.9°C | 0.0% | 5.4hPa | 2.5V | 03:01:00 | 00:00:00 | 00:00:00 | |
| DM0DOS-11 | 2026-09-03 00:46:02 | 52.42643 | 11.18821 | 114° | 11km/h | 35376m | 3.3m/s | -32°C | 1.1% | 5.5hPa | 2.5V | 03:01:28 | 02:48:15 | 00:00:00 | |
| HSKMA3-T | 2026-09-03 00:45:56 | 52.42643 | 11.18821 | 114° | 11km/h | 35376m | 3.3m/s | -32°C | 0% | 5.5hPa | 2.5V | 03:02:16 | 02:48:15 | 00:00:00 | |
| DB0DAN | 2026-09-03 00:45:55 | 52.42646 | 11.18815 | 129° | 26km/h | 35371m | 6.2m/s | -31.9°C | 0% | 5.45hPa | 2.6V | 00:00:00 | 00:00:00 | 00:00:00 | |
| DF8AY | 2026-09-03 00:45:54 | 52.42662 | 11.18789 | 139° | 62km/h | 35356m | 8.3m/s | -31.9°C | 0% | 5.5hPa | 2.6V | 03:02:16 | 02:48:12 | 00:00:00 | |
| AA1-15 | 2026-09-03 00:45:52 | 52.42675 | 11.18772 | 144° | 73km/h | 35349m | 5.5m/s | -31.9°C | 0% | 5.5hPa | 2.5V | 03:02:16 | 02:48:11 | 00:00:00 | |
| EDDB2-12 | 2026-09-03 00:45:52 | 52.42675 | 11.18772 | 143° | 71km/h | 35349m | 5.5m/s | -31.9°C | 0.0% | 5.5hPa | 2.6V | 00:00:00 | 00:00:00 | 00:00:00 | |
| DM0DOS-11 | 2026-09-03 00:45:51 | 52.42732 | 11.18726 | 194° | 15km/h | 35330m | 7.6m/s | -31.9°C | 1.1% | 5.5hPa | 2.6V | 03:01:37 | 02:48:06 | 00:00:00 | |
| DL1XH-west | 2026-09-03 00:45:45 | 52.42731 | 11.18736 | 311° | 24km/h | 35314m | 7.4m/s | -31.9°C | 0% | 5.5hPa | 2.5V | 03:02:16 | 02:48:04 | 00:00:00 | |
| DF8AY | 2026-09-03 00:45:44 | 52.42722 | 11.18749 | 324° | 20km/h | 35304m | 2.7m/s | -31.8°C | 0% | 5.5hPa | 2.6V | 03:02:16 | 02:48:02 | 00:00:00 | |
| AA1-15 | 2026-09-03 00:45:42 | 52.42718 | 11.18752 | 358° | 9km/h | 35302m | 2.6m/s | -31.8°C | 0% | 5.5hPa | 2.6V | 03:02:16 | 02:48:01 | 00:00:00 | |
| DO2SHX-10 | 2026-09-03 00:45:42 | 52.42718 | 11.18751 | 358° | 9km/h | 35303m | 2.5m/s | -31.8°C | 1.1% | 5.5hPa | 2.5V | 03:01:00 | 02:48:01 | 00:00:00 | |
| DB0DAN | 2026-09-03 00:45:40 | 52.42720 | 11.18743 | 126° | 24km/h | 35293m | 6.6m/s | -31.8°C | 0% | 5.48hPa | 2.5V | 00:00:00 | 00:00:00 | 00:00:00 | |
| HSKMA3-T | 2026-09-03 00:45:34 | 52.42775 | 11.18659 | 139° | 35km/h | 35259m | 3.5m/s | -32.1°C | 0% | 5.6hPa | 2.6V | 03:02:16 | 02:47:53 | 00:00:00 | |
| AA1-15 | 2026-09-03 00:45:32 | 52.42783 | 11.18648 | 131° | 4km/h | 35248m | 7.2m/s | -32.2°C | 0% | 5.5hPa | 2.5V | 03:02:16 | 02:47:51 | 00:00:00 | |
| GOEST3-10 | 2026-09-03 00:45:31 | 52.42782 | 11.18649 | 325° | 16km/h | 35240m | 7.8m/s | -32.2°C | 1.2% | 5.5hPa | 2.6V | 03:01:00 | 00:00:00 | 00:00:00 | |
| DD8BA-10 | 2026-09-03 00:45:30 | 52.42779 | 11.18653 | 322° | 29km/h | 35233m | 6.3m/s | -32.2°C | 1.1% | 5.5hPa | 2.6V | 03:01:00 | 00:00:00 | 00:00:00 | |
| DF8AY-15 | 2026-09-03 00:45:28 | 52.42770 | 11.18665 | 315° | 24km/h | 35223m | 3.3m/s | -32.2°C | 1.2% | 5.5hPa | 2.6V | 00:00:00 | 02:47:47 | 00:00:00 | |
| DB0DAN | 2026-09-03 00:45:25 | 52.42773 | 11.18667 | 150° | 22km/h | 35210m | 7.2m/s | -32.2°C | 0% | 5.59hPa | 2.5V | 00:00:00 | 00:00:00 | 00:00:00 | |
| DL1XH-west | 2026-09-03 00:45:24 | 52.42779 | 11.18660 | 144° | 37km/h | 35203m | 7.6m/s | -32.2°C | 0% | 5.6hPa | 2.6V | 03:02:16 | 02:47:43 | 00:00:00 | |
| HSKMA3-T | 2026-09-03 00:45:24 | 52.42787 | 11.18649 | 141° | 46km/h | 35195m | 6.8m/s | -32.2°C | 0% | 5.6hPa | 2.6V | 03:02:16 | 02:47:42 | 00:00:00 | |
| DL1NUX | 2026-09-03 00:45:23 | 52.42811 | 11.18611 | 123° | 33km/h | 35182m | 3.5m/s | -32.2°C | 1.2% | 5.6hPa | 2.5V | 03:02:04 | 02:47:39 | 00:00:00 | |
| DF8AY | 2026-09-03 00:45:22 | 52.42796 | 11.18637 | 139° | 49km/h | 35189m | 5m/s | -32.2°C | 0% | 5.6hPa | 2.6V | 03:02:16 | 02:47:41 | 00:00:00 | |
| AA1-15 | 2026-09-03 00:45:22 | 52.42805 | 11.18624 | 133° | 44km/h | 35185m | 3.5m/s | -32.2°C | 0% | 5.7hPa | 2.5V | 03:02:16 | 02:47:40 | 00:00:00 | |
| DF7ER-10 | 2026-09-03 00:45:22 | 52.42796 | 11.18637 | 140° | 49km/h | 35190m | 5.0m/s | -32.2°C | -0.0% | 5.6hPa | 2.6V | 03:02:00 | 00:00:00 | 00:00:00 | |
| GOEST3-10 | 2026-09-03 00:45:21 | 52.42805 | 11.18623 | 133° | 27km/h | 35186m | 3.4m/s | -32.2°C | 1.2% | 5.6hPa | 2.6V | 00:00:00 | 00:00:00 | 00:00:00 | |
| DL1XH-15 | 2026-09-03 00:45:19 | 52.42814 | 11.18594 | 62° | 15km/h | 35172m | 6.6m/s | -32.3°C | 1.2% | 5.6hPa | 2.6V | 03:02:06 | 02:47:37 | 00:00:00 | |
| DL1XH-west | 2026-09-03 00:45:14 | 52.42791 | 11.18592 | 351° | 27km/h | 35146m | 5.3m/s | -32.5°C | 0% | 5.6hPa | 2.5V | 03:02:16 | 02:47:33 | 00:00:00 | |
| DL1NUX | 2026-09-03 00:45:13 | 52.42783 | 11.18589 | 140° | 15km/h | 35121m | 7.7m/s | -32.8°C | 1.2% | 5.7hPa | 2.6V | 03:02:14 | 02:47:29 | 00:00:00 | |
| HSKMA3-T | 2026-09-03 00:45:12 | 52.42782 | 11.18594 | 9° | 9km/h | 35135m | 6m/s | -32.6°C | 0% | 5.7hPa | 2.6V | 03:02:16 | 02:47:31 | 00:00:00 | |
| DF8AY | 2026-09-03 00:45:11 | 52.42781 | 11.18592 | 109° | 7km/h | 35129m | 7.1m/s | -32.7°C | 0% | 5.7hPa | 2.6V | 03:02:16 | 02:47:30 | 00:00:00 | |
| DB0DAN | 2026-09-03 00:45:10 | 52.42783 | 11.18589 | 140° | 15km/h | 35121m | 7.7m/s | -32.8°C | 0% | 5.7hPa | 2.6V | 00:00:00 | 00:00:00 | 00:00:00 | |
| DL1XH-west | 2026-09-03 00:45:04 | 52.42800 | 11.18554 | 11° | 18km/h | 35081m | 6.6m/s | -32.8°C | 0% | 5.7hPa | 2.6V | 03:03:07 | 02:47:22 | 00:00:00 | |
| DL1XH-15 | 2026-09-03 00:45:02 | 52.42760 | 11.18544 | 22° | 35km/h | 35050m | 5.3m/s | -32.7°C | 1.2% | 5.7hPa | 2.6V | 03:02:26 | 02:47:17 | 00:00:00 | |
| AA1-15 | 2026-09-03 00:45:02 | 52.42786 | 11.18553 | 4° | 35km/h | 35068m | 6.2m/s | -32.8°C | 0% | 5.7hPa | 2.5V | 03:03:07 | 02:47:20 | 00:00:00 | |
| DF8AY | 2026-09-03 00:45:00 | 52.42778 | 11.18551 | 6° | 37km/h | 35061m | 5.9m/s | -32.8°C | 0% | 5.7hPa | 2.5V | 03:03:07 | 02:47:19 | 00:00:00 | |
| SMARD9-15 | 2026-09-03 00:45:00 | 52.42778 | 11.18551 | 5° | 37km/h | 35062m | 5.9m/s | -32.8°C | 0.0% | 5.7hPa | 2.5V | 00:00:00 | 00:00:00 | 00:00:00 | |
| DF7PN | 2026-09-03 00:44:59 | 52.42769 | 11.18549 | 13° | 35km/h | 35056m | 5.7m/s | -32.7°C | 0.0% | 5.7hPa | 2.5V | 00:00:00 | 00:00:00 | 00:00:00 | |
| SO1NDE-10 | 2026-09-03 00:44:58 | 52.42760 | 11.18544 | 23° | 24km/h | 35050m | 5.3m/s | -32.7°C | 1.2% | 5.7hPa | 2.5V | 00:00:00 | 02:47:17 | 00:00:00 | |
| DB0DAN | 2026-09-03 00:44:55 | 52.42744 | 11.18523 | 57° | 22km/h | 35035m | 5.1m/s | -32.8°C | 0% | 5.77hPa | 2.5V | 00:00:00 | 00:00:00 | 00:00:00 | |
| DL1XH-west | 2026-09-03 00:44:52 | 52.42739 | 11.18508 | 58° | 5km/h | 35017m | 6.5m/s | -32.8°C | 0% | 5.8hPa | 2.6V | 03:03:07 | 02:47:11 | 00:00:00 | |
| HSKMA3-T | 2026-09-03 00:44:52 | 52.42738 | 11.18507 | 345° | 4km/h | 35011m | 6.4m/s | -32.8°C | 0% | 5.8hPa | 2.6V | 03:03:07 | 02:47:10 | 00:00:00 | |
| DL1XH1-15 | 2026-09-03 00:44:52 | 52.42737 | 11.18509 | 327° | 9km/h | 35005m | 5.9m/s | -32.8°C | 1.2% | 5.8hPa | 2.5V | 03:02:34 | 02:47:09 | 00:00:00 | |
| AA1-15 | 2026-09-03 00:44:51 | 52.42737 | 11.18509 | 328° | 9km/h | 35005m | 5.9m/s | -32.8°C | 0% | 5.8hPa | 2.5V | 03:03:07 | 02:47:09 | 00:00:00 | |
| DL1XH-15 | 2026-09-03 00:44:50 | 52.42730 | 11.18513 | 348° | 18km/h | 34994m | 5.2m/s | -32.9°C | 1.2% | 5.8hPa | 2.5V | 03:02:36 | 02:47:07 | 00:00:00 | |
| DF8AY | 2026-09-03 00:44:49 | 52.42706 | 11.18501 | 37° | 33km/h | 34971m | 6.4m/s | -33.1°C | 0% | 5.8hPa | 2.5V | 03:03:07 | 02:47:03 | 00:00:00 | |
| AU51GT2 | 2026-09-03 00:44:48 | 52.42725 | 11.18514 | 2° | 22km/h | 34990m | 5.0m/s | -32.9°C | 0.0% | 5.8hPa | 2.6V | 00:00:00 | 00:00:00 | 00:00:00 | |
| SONDE2-11 | 2026-09-03 00:44:47 | 52.42725 | 11.18514 | 2° | 22km/h | 34990m | 5.0m/s | -32.9°C | 0.0% | 5.8hPa | 2.6V | 00:00:00 | 00:00:00 | 00:00:00 | |
| BUE01 | 2026-09-03 00:44:45 | 52.42713 | 11.18508 | 27° | 27km/h | 34978m | 6.6m/s | -33.0°C | 0.0% | 5.8hPa | 2.6V | 00:00:00 | 00:00:00 | 00:00:00 | |
| DL1XH1-15 | 2026-09-03 00:44:41 | 52.42679 | 11.18470 | 18° | 29km/h | 34949m | 5.8m/s | -33.3°C | 1.2% | 5.8hPa | 2.6V | 03:02:44 | 02:46:59 | 00:00:00 | |
| DL1XH-west | 2026-09-03 00:44:41 | 52.42686 | 11.18476 | 32° | 31km/h | 34954m | 4.9m/s | -33.2°C | 0% | 5.8hPa | 2.6V | 03:03:07 | 02:47:00 | 00:00:00 | |
| HSKMA3-T | 2026-09-03 00:44:41 | 52.42679 | 11.18470 | 19° | 29km/h | 34949m | 5.8m/s | -33.3°C | 0% | 5.8hPa | 2.6V | 03:03:07 | 02:46:59 | 00:00:00 | |
| AA1-15 | 2026-09-03 00:44:40 | 52.42672 | 11.18468 | 360° | 26km/h | 34943m | 6.6m/s | -33.4°C | 0% | 5.8hPa | 2.6V | 03:03:07 | 02:46:58 | 00:00:00 | |
| DM0DOS-11 | 2026-09-03 00:44:40 | 52.42660 | 11.18475 | 325° | 27km/h | 34931m | 5.7m/s | -33.6°C | 1.3% | 5.8hPa | 2.5V | 03:02:47 | 02:46:56 | 00:00:00 | |
| DB0DAN | 2026-09-03 00:44:40 | 52.42679 | 11.18470 | 19° | 27km/h | 34949m | 5.8m/s | -33.3°C | 0% | 5.81hPa | 2.6V | 00:00:00 | 00:00:00 | 00:00:00 | |
| DL1XH-15 | 2026-09-03 00:44:39 | 52.42666 | 11.18470 | 341° | 27km/h | 34937m | 6.4m/s | -33.5°C | 1.3% | 5.8hPa | 2.5V | 03:02:46 | 02:46:57 | 00:00:00 | |
| DF8AY | 2026-09-03 00:44:37 | 52.42660 | 11.18475 | 325° | 27km/h | 34931m | 5.7m/s | -33.6°C | 0% | 5.8hPa | 2.5V | 03:03:07 | 02:46:56 | 00:00:00 | |
| DJ8HS-15 | 2026-09-03 00:44:36 | 52.42655 | 11.18482 | 320° | 26km/h | 34926m | 5.3m/s | -33.7°C | 1.3% | 5.8hPa | 2.6V | 00:00:00 | 02:46:55 | 00:00:00 | |
| SONCRA | 2026-09-03 00:44:33 | 52.42643 | 11.18495 | 357° | 13km/h | 34909m | 5.2m/s | -33.7°C | 0.0% | 5.9hPa | 2.6V | 00:00:00 | 00:00:00 | 00:00:00 | |
| TFSTFS | 2026-09-03 00:44:32 | 52.42643 | 11.18495 | 359° | 15km/h | 34909m | 5.2m/s | -33.7°C | 0% | 5.9hPa | 2.6V | 00:00:00 | 00:00:00 | 00:00:00 | |
| DL1XH1-15 | 2026-09-03 00:44:31 | 52.42625 | 11.18484 | 24° | 37km/h | 34893m | 6m/s | -33.6°C | 1.3% | 5.9hPa | 2.6V | 03:02:54 | 02:46:49 | 00:00:00 | |
| DL1XH-west | 2026-09-03 00:44:31 | 52.42633 | 11.18490 | 27° | 29km/h | 34899m | 5.6m/s | -33.6°C | 0% | 5.9hPa | 2.5V | 03:03:07 | 02:46:50 | 00:00:00 | |
| HSKMA3-T | 2026-09-03 00:44:30 | 52.42625 | 11.18484 | 25° | 37km/h | 34893m | 6m/s | -33.6°C | 0% | 5.9hPa | 2.6V | 03:03:07 | 02:46:49 | 00:00:00 | |
| SP3BTT-10 | 2026-09-03 00:44:30 | 52.42625 | 11.18484 | 25° | 47km/h | 34894m | 6.0m/s | -33.6°C | 1.3% | 5.9hPa | 2.6V | 00:00:00 | 00:00:00 | 00:00:00 | |
| DM0DOS-11 | 2026-09-03 00:44:29 | 52.42593 | 11.18466 | 11° | 51km/h | 34874m | 5.6m/s | -33.5°C | 1.3% | 5.9hPa | 2.5V | 03:02:57 | 02:46:46 | 00:00:00 | |
| DL1XH-15 | 2026-09-03 00:44:29 | 52.42605 | 11.18471 | 16° | 49km/h | 34880m | 6.3m/s | -33.6°C | 1.3% | 5.8hPa | 2.5V | 03:02:56 | 02:46:47 | 00:00:00 | |
| AA1-15 | 2026-09-03 00:44:29 | 52.42605 | 11.18471 | 16° | 49km/h | 34880m | 6.3m/s | -33.6°C | 0% | 5.8hPa | 2.5V | 03:03:07 | 02:46:47 | 00:00:00 | |
| DF8AY | 2026-09-03 00:44:27 | 52.42593 | 11.18466 | 12° | 51km/h | 34874m | 5.6m/s | -33.6°C | 0% | 5.9hPa | 2.5V | 03:03:07 | 02:46:46 | 00:00:00 | |
| DB0DAN | 2026-09-03 00:44:25 | 52.42569 | 11.18461 | 6° | 38km/h | 34864m | 4.4m/s | -33.5°C | 0% | 5.88hPa | 2.6V | 00:00:00 | 00:00:00 | 00:00:00 | |
| DL1XH-15 | 2026-09-03 00:44:24 | 52.42547 | 11.18441 | 50° | 15km/h | 34825m | 4.4m/s | -33.4°C | 1.3% | 5.9hPa | 2.5V | 03:03:06 | 02:46:37 | 00:00:00 | |
| DL1NUX | 2026-09-03 00:44:24 | 52.42548 | 11.18450 | 99° | 11km/h | 34833m | 5.1m/s | -33.4°C | 1.3% | 5.9hPa | 2.6V | 03:03:04 | 02:46:39 | 00:00:00 | |
| DL1XH-west | 2026-09-03 00:44:20 | 52.42548 | 11.18450 | 99° | 11km/h | 34833m | 5.1m/s | -33.4°C | 0% | 5.9hPa | 2.6V | 03:03:07 | 02:46:39 | 00:00:00 | |
| HSKMA3-T | 2026-09-03 00:44:19 | 52.42548 | 11.18446 | 84° | 11km/h | 34829m | 3.8m/s | -33.4°C | 0% | 6hPa | 2.5V | 03:03:07 | 02:46:38 | 00:00:00 | |
| EDDB2-12 | 2026-09-03 00:44:19 | 52.42548 | 11.18446 | 84° | 11km/h | 34829m | 3.8m/s | -33.4°C | 0.0% | 6.0hPa | 2.5V | 00:00:00 | 00:00:00 | 00:00:00 | |
| DM0DOS-11 | 2026-09-03 00:44:18 | 52.42543 | 11.18436 | 30° | 24km/h | 34819m | 6m/s | -33.4°C | 1.3% | 5.9hPa | 2.5V | 03:03:07 | 02:46:36 | 00:00:00 | |
| DF8AY | 2026-09-03 00:44:17 | 52.42543 | 11.18436 | 31° | 24km/h | 34819m | 6m/s | -33.4°C | 0% | 5.9hPa | 2.5V | 03:03:07 | 02:46:36 | 00:00:00 | |
| DF7ER-10 | 2026-09-03 00:44:17 | 52.42543 | 11.18436 | 32° | 24km/h | 34820m | 6.0m/s | -33.4°C | 0.0% | 5.9hPa | 2.6V | 03:03:00 | 00:00:00 | 00:00:00 | |
| DJ8HS-15 | 2026-09-03 00:44:16 | 52.42536 | 11.18430 | 22° | 35km/h | 34813m | 7.3m/s | -33.3°C | 1.2% | 5.9hPa | 2.6V | 03:03:00 | 02:46:35 | 00:00:00 | |
| GOEST3-10 | 2026-09-03 00:44:15 | 52.42527 | 11.18425 | 17° | 49km/h | 34805m | 7.1m/s | -33.3°C | 1.3% | 5.9hPa | 2.6V | 00:00:00 | 02:46:34 | 00:00:00 | |
| BUE01 | 2026-09-03 00:44:14 | 52.42515 | 11.18420 | 14° | 53km/h | 34798m | 5.8m/s | -33.3°C | 0.0% | 6.0hPa | 2.6V | 00:00:00 | 00:00:00 | 00:00:00 | |
| DL1XH-15 | 2026-09-03 00:44:13 | 52.42466 | 11.18380 | 111° | 13km/h | 34766m | 7.5m/s | -33.2°C | 1.3% | 5.9hPa | 2.6V | 03:03:16 | 02:46:27 | 00:00:00 | |
| DM0DOS-11 | 2026-09-03 00:44:13 | 52.42469 | 11.18376 | 152° | 16km/h | 34759m | 6.5m/s | -33.2°C | 1.2% | 6hPa | 2.5V | 03:03:17 | 02:46:26 | 00:00:00 | |
| DL1XH1-15 | 2026-09-03 00:44:11 | 52.42471 | 11.18393 | 37° | 29km/h | 34780m | 6.2m/s | -33.3°C | 1.3% | 6hPa | 2.6V | 03:03:14 | 02:46:29 | 00:00:00 | |
| DB0DAN | 2026-09-03 00:44:10 | 52.42471 | 11.18393 | 37° | 27km/h | 34780m | 6.3m/s | -33.3°C | 0% | 5.97hPa | 2.6V | 00:00:00 | 00:00:00 | 00:00:00 | |
| DL1XH-west | 2026-09-03 00:44:10 | 52.42471 | 11.18393 | 37° | 29km/h | 34780m | 6.3m/s | -33.3°C | 0% | 6hPa | 2.6V | 03:03:58 | 02:46:29 | 00:00:00 | |
| HSKMA3-T | 2026-09-03 00:44:08 | 52.42466 | 11.18380 | 111° | 13km/h | 34766m | 7.5m/s | -33.3°C | 0% | 5.9hPa | 2.6V | 03:03:58 | 02:46:27 | 00:00:00 | |
| AA1-15 | 2026-09-03 00:44:08 | 52.42469 | 11.18376 | 152° | 16km/h | 34759m | 6.5m/s | -33.2°C | 0% | 6hPa | 2.5V | 03:03:58 | 02:46:26 | 00:00:00 | |
| DF8AY | 2026-09-03 00:44:07 | 52.42472 | 11.18374 | 173° | 16km/h | 34753m | 4.8m/s | -33.2°C | 0% | 6hPa | 2.5V | 03:03:58 | 02:46:25 | 00:00:00 | |
| DF7ER-10 | 2026-09-03 00:44:07 | 52.42469 | 11.18376 | 153° | 16km/h | 34759m | 6.5m/s | -33.2°C | -0.0% | 6.0hPa | 2.6V | 03:03:00 | 00:00:00 | 00:00:00 | |
| DO3MHA-11 | 2026-09-03 00:44:06 | 52.42472 | 11.18374 | 174° | 29km/h | 34754m | 4.8m/s | -33.2°C | 1.2% | 5.9hPa | 2.6V | 00:00:00 | 02:46:25 | 00:00:00 | |
| EDDB2-11 | 2026-09-03 00:44:05 | 52.42478 | 11.18376 | 252° | 5km/h | 34745m | 4.9m/s | -33.2°C | 0.0% | 6.0hPa | 2.6V | 00:00:00 | 00:00:00 | 00:00:00 | |
| S3001 | 2026-09-03 00:44:04 | 52.42478 | 11.18376 | 252° | 5km/h | 34745m | 4.9m/s | -33.2°C | 0.0% | 6.0hPa | 2.6V | 00:00:00 | 00:00:00 | 00:00:00 | |
| DL1XH-15 | 2026-09-03 00:44:02 | 52.42432 | 11.18355 | 41° | 53km/h | 34710m | 5.4m/s | -33.2°C | 1.3% | 6.1hPa | 2.6V | 03:03:26 | 02:46:17 | 00:00:00 | |
| DM0DOS-11 | 2026-09-03 00:44:02 | 52.42424 | 11.18340 | 55° | 49km/h | 34705m | 6.2m/s | -33.1°C | 1.3% | 6.1hPa | 2.6V | 03:03:27 | 02:46:16 | 00:00:00 | |
| DL1XH1-15 | 2026-09-03 00:44:01 | 52.42454 | 11.18376 | 17° | 46km/h | 34721m | 5.4m/s | -33.2°C | 1.2% | 6hPa | 2.5V | 03:03:24 | 02:46:19 | 00:00:00 | |
| DL1XH-west | 2026-09-03 00:43:59 | 52.42443 | 11.18368 | 30° | 53km/h | 34716m | 5.4m/s | -33.2°C | 0% | 6hPa | 2.5V | 03:03:58 | 02:46:18 | 00:00:00 | |
| HSKMA3-T | 2026-09-03 00:43:57 | 52.42424 | 11.18340 | 56° | 49km/h | 34705m | 6.2m/s | -33.1°C | 0% | 6.1hPa | 2.6V | 03:03:58 | 02:46:16 | 00:00:00 | |
| DF8AY | 2026-09-03 00:43:56 | 52.42419 | 11.18323 | 72° | 46km/h | 34698m | 6.1m/s | -33.1°C | 0% | 6hPa | 2.6V | 03:03:58 | 02:46:15 | 00:00:00 | |
| DB0DAN | 2026-09-03 00:43:55 | 52.42417 | 11.18306 | 90° | 37km/h | 34693m | 5.8m/s | -33.1°C | 0% | 6.06hPa | 2.5V | 00:00:00 | 00:00:00 | 00:00:00 | |
| HTAHTA | 2026-09-03 00:43:53 | 52.42409 | 11.18295 | 0° | 42km/h | 34647m | 4.4m/s | -33.2°C | 0.0% | 6.1hPa | 2.5V | 00:00:00 | 00:00:00 | 00:00:00 | |
| DL1XH-15 | 2026-09-03 00:43:52 | 52.42419 | 11.18293 | 341° | 37km/h | 34652m | 6.2m/s | -33.2°C | 1.2% | 6.1hPa | 2.5V | 03:03:36 | 02:46:07 | 00:00:00 | |
| DM0DOS-11 | 2026-09-03 00:43:52 | 52.42410 | 11.18295 | 0° | 44km/h | 34647m | 4.4m/s | -33.2°C | 1.2% | 6.1hPa | 2.6V | 03:03:37 | 02:46:06 | 00:00:00 | |
| GOEST3-10 | 2026-09-03 00:43:52 | 52.42425 | 11.18277 | 162° | 15km/h | 34677m | 4.9m/s | -33.0°C | 1.3% | 6.0hPa | 2.6V | 00:00:00 | 02:46:11 | 00:00:00 | |
| DL1XH1-15 | 2026-09-03 00:43:51 | 52.42429 | 11.18281 | 292° | 13km/h | 34666m | 6.6m/s | -33.1°C | 1.2% | 6hPa | 2.6V | 03:03:34 | 02:46:09 | 00:00:00 | |
| DL1XH-west | 2026-09-03 00:43:48 | 52.42419 | 11.18293 | 342° | 37km/h | 34652m | 6.2m/s | -33.2°C | 0% | 6.1hPa | 2.5V | 03:03:58 | 02:46:07 | 00:00:00 | |
| HSKMA3-T | 2026-09-03 00:43:46 | 52.42398 | 11.18291 | 22° | 49km/h | 34643m | 3.4m/s | -33.2°C | 0% | 6.1hPa | 2.6V | 03:03:58 | 02:46:05 | 00:00:00 | |
| DF8AY | 2026-09-03 00:43:45 | 52.42388 | 11.18281 | 43° | 51km/h | 34640m | 3.6m/s | -33.2°C | 0% | 6.1hPa | 2.5V | 03:03:58 | 02:46:04 | 00:00:00 | |
| BUE01 | 2026-09-03 00:43:44 | 52.42376 | 11.18242 | 80° | 58km/h | 34629m | 7.9m/s | -33.2°C | 0.0% | 6.1hPa | 2.5V | 00:00:00 | 00:00:00 | 00:00:00 | |
| AM1SDL-15 | 2026-09-03 00:43:43 | 52.42375 | 11.18242 | 81° | 47km/h | 34629m | 7.8m/s | -33.1°C | 1.3% | 6.0hPa | 2.5V | 00:00:00 | 02:46:02 | 00:00:00 | |
| DM0DOS-11 | 2026-09-03 00:43:42 | 52.42415 | 11.18152 | 200° | 18km/h | 34598m | 5.7m/s | -33.2°C | 1.2% | 6.1hPa | 2.5V | 03:03:47 | 02:45:56 | 00:00:00 | |
| DL1XH-15 | 2026-09-03 00:43:42 | 52.42409 | 11.18152 | 168° | 33km/h | 34602m | 2.6m/s | -33.2°C | 1.3% | 6.1hPa | 2.6V | 03:03:46 | 02:45:57 | 00:00:00 | |
| GOEST3-10 | 2026-09-03 00:43:42 | 52.42375 | 11.18217 | 99° | 53km/h | 34620m | 8.6m/s | -33.1°C | 1.2% | 6.1hPa | 2.5V | 00:00:00 | 02:46:01 | 00:00:00 | |
| DB0DAN | 2026-09-03 00:43:40 | 52.42390 | 11.18172 | 134° | 57km/h | 34607m | 3.8m/s | -33.2°C | 0% | 6.15hPa | 2.5V | 00:00:00 | 00:00:00 | 00:00:00 | |
| DL1XH-west | 2026-09-03 00:43:38 | 52.42409 | 11.18152 | 168° | 33km/h | 34602m | 2.6m/s | -33.2°C | 0% | 6.1hPa | 2.6V | 03:03:58 | 02:45:57 | 00:00:00 | |
| AA1-15 | 2026-09-03 00:43:35 | 52.42413 | 11.18164 | 325° | 35km/h | 34582m | 9.5m/s | -33.3°C | 0% | 6.2hPa | 2.6V | 03:03:58 | 02:45:54 | 00:00:00 | |
| S3001 | 2026-09-03 00:43:34 | 52.42389 | 11.18172 | 4° | 64km/h | 34568m | 3.9m/s | -33.3°C | 0.0% | 6.2hPa | 2.5V | 00:00:00 | 00:00:00 | 00:00:00 | |
| DM0DOS-11 | 2026-09-03 00:43:32 | 52.42361 | 11.18038 | 142° | 58km/h | 34530m | 5.1m/s | -33.3°C | 1.3% | 6.2hPa | 2.5V | 03:03:58 | 02:45:45 | 00:00:00 | |
| DL1XH-15 | 2026-09-03 00:43:32 | 52.42345 | 11.18081 | 103° | 66km/h | 34543m | 8.2m/s | -33.3°C | 1.3% | 6.2hPa | 2.6V | 03:03:56 | 02:45:47 | 00:00:00 | |
| DL1XH-west | 2026-09-03 00:43:28 | 52.42345 | 11.18081 | 104° | 66km/h | 34543m | 8.2m/s | -33.3°C | 0% | 6.2hPa | 2.6V | 03:03:58 | 02:45:47 | 00:00:00 | |
| DF8AY | 2026-09-03 00:43:25 | 52.42362 | 11.18045 | 16° | 60km/h | 34492m | 5.6m/s | -33.2°C | 0% | 6.3hPa | 2.5V | 03:05:40 | 02:45:38 | 00:00:00 | |
| HSKMA3-T | 2026-09-03 00:43:25 | 52.42373 | 11.18027 | 160° | 47km/h | 34525m | 3.9m/s | -33.3°C | 0% | 6.2hPa | 2.5V | 03:04:49 | 02:45:44 | 00:00:00 | |
| DB0DAN | 2026-09-03 00:43:25 | 52.42373 | 11.18027 | 160° | 46km/h | 34525m | 3.9m/s | -33.3°C | 0% | 6.22hPa | 2.5V | 00:00:00 | 00:00:00 | 00:00:00 | |
| AA1-15 | 2026-09-03 00:43:25 | 52.42383 | 11.18024 | 184° | 33km/h | 34521m | 4.1m/s | -33.3°C | 0% | 6.2hPa | 2.5V | 03:04:49 | 02:45:43 | 00:00:00 | |
| DF7ER-10 | 2026-09-03 00:43:23 | 52.42383 | 11.18024 | 185° | 33km/h | 34522m | 4.1m/s | -33.3°C | 0.0% | 6.2hPa | 2.6V | 03:04:00 | 00:00:00 | 00:00:00 | |
| DO3MHA-11 | 2026-09-03 00:43:22 | 52.42390 | 11.18034 | 290° | 33km/h | 34511m | 6.5m/s | -33.2°C | 1.3% | 6.1hPa | 2.6V | 00:00:00 | 02:45:41 | 00:00:00 | |
| DM0DOS-11 | 2026-09-03 00:43:21 | 52.42326 | 11.17986 | 71° | 75km/h | 34476m | 5.2m/s | -33.1°C | 1.2% | 6.3hPa | 2.6V | 03:04:08 | 02:45:35 | 00:00:00 | |
| DL1XH-15 | 2026-09-03 00:43:21 | 52.42347 | 11.18033 | 34° | 69km/h | 34486m | 5.4m/s | -33.1°C | 1.3% | 6.2hPa | 2.5V | 03:04:06 | 02:45:37 | 00:00:00 | |
| DL1XH-west | 2026-09-03 00:43:17 | 52.42334 | 11.18013 | 53° | 73km/h | 34481m | 4.7m/s | -33.1°C | 0% | 6.2hPa | 2.6V | 03:04:49 | 02:45:36 | 00:00:00 | |
| HSKMA3-T | 2026-09-03 00:43:15 | 52.42323 | 11.17956 | 89° | 73km/h | 34471m | 5.3m/s | -33.1°C | 0% | 6.2hPa | 2.6V | 03:04:49 | 02:45:34 | 00:00:00 | |
| DF8AY | 2026-09-03 00:43:14 | 52.42325 | 11.17927 | 107° | 69km/h | 34466m | 5.5m/s | -33.1°C | 0% | 6.3hPa | 2.5V | 03:05:40 | 02:45:33 | 00:00:00 | |
| SONDE2-11 | 2026-09-03 00:43:14 | 52.42325 | 11.17927 | 107° | 69km/h | 34466m | 5.5m/s | -33.1°C | 0.0% | 6.3hPa | 2.6V | 00:00:00 | 00:00:00 | 00:00:00 | |
| DO2SHX-10 | 2026-09-03 00:43:12 | 52.42342 | 11.17887 | 148° | 46km/h | 34453m | 7.1m/s | -33.1°C | 1.2% | 6.2hPa | 2.6V | 00:00:00 | 02:45:31 | 00:00:00 | |
| DM0DOS-11 | 2026-09-03 00:43:11 | 52.42350 | 11.17895 | 29° | 47km/h | 34413m | 6.1m/s | -33.2°C | 1.3% | 6.3hPa | 2.6V | 03:04:19 | 02:45:24 | 00:00:00 | |
| DL1XH1-15 | 2026-09-03 00:43:11 | 52.42363 | 11.17879 | 194° | 35km/h | 34440m | 5.8m/s | -33.1°C | 1.2% | 6.3hPa | 2.6V | 03:04:14 | 02:45:29 | 00:00:00 | |
| DB0DAN | 2026-09-03 00:43:10 | 52.42363 | 11.17879 | 194° | 33km/h | 34440m | 5.8m/s | -33.1°C | 0% | 6.3hPa | 2.6V | 00:00:00 | 00:00:00 | 00:00:00 | |
| HSKMA3-T | 2026-09-03 00:43:05 | 52.42340 | 11.17881 | 49° | 58km/h | 34407m | 6m/s | -33.2°C | 0% | 6.3hPa | 2.6V | 03:04:49 | 02:45:23 | 00:00:00 | |
| DF8AY | 2026-09-03 00:43:03 | 52.42331 | 11.17860 | 64° | 68km/h | 34401m | 6.5m/s | -33.2°C | 0% | 6.3hPa | 2.6V | 03:05:40 | 02:45:22 | 00:00:00 | |
| EDDB2-11 | 2026-09-03 00:43:03 | 52.42326 | 11.17833 | 79° | 68km/h | 34395m | 5.7m/s | -33.3°C | 0.0% | 6.4hPa | 2.5V | 00:00:00 | 00:00:00 | 00:00:00 | |
| GOEST3-10 | 2026-09-03 00:43:02 | 52.42326 | 11.17833 | 80° | 62km/h | 34395m | 5.6m/s | -33.2°C | 1.2% | 6.3hPa | 2.5V | 03:04:00 | 00:00:00 | 00:00:00 | |
| SONCRA | 2026-09-03 00:43:00 | 52.42329 | 11.17778 | 110° | 66km/h | 34384m | 5.4m/s | -33.3°C | 0.0% | 6.3hPa | 2.5V | 00:00:00 | 00:00:00 | 00:00:00 | |
| DM0DOS-11 | 2026-09-03 00:43:00 | 52.42368 | 11.17730 | 219° | 13km/h | 34357m | 5.6m/s | -33.4°C | 1.2% | 6.4hPa | 2.5V | 03:04:29 | 02:45:14 | 00:00:00 | |
| SMARD9-15 | 2026-09-03 00:42:56 | 52.42368 | 11.17730 | 219° | 11km/h | 34357m | 5.6m/s | -33.4°C | 0.0% | 6.4hPa | 2.5V | 00:00:00 | 00:00:00 | 00:00:00 | |
| DB0DAN | 2026-09-03 00:42:55 | 52.42368 | 11.17730 | 219° | 13km/h | 34357m | 5.6m/s | -33.4°C | 0% | 6.37hPa | 2.5V | 00:00:00 | 00:00:00 | 00:00:00 | |
| DL1XH-west | 2026-09-03 00:42:54 | 52.42357 | 11.17734 | 16° | 37km/h | 34340m | 5.3m/s | -33.5°C | 0% | 6.4hPa | 2.6V | 03:04:49 | 02:45:11 | 00:00:00 | |
| DF8AY | 2026-09-03 00:42:53 | 52.42365 | 11.17735 | 355° | 24km/h | 34345m | 5.6m/s | -33.5°C | 0% | 6.4hPa | 2.6V | 03:05:40 | 02:45:12 | 00:00:00 | |
| DL1NUX | 2026-09-03 00:42:53 | 52.42339 | 11.17713 | 51° | 53km/h | 34331m | 4.5m/s | -33.6°C | 1.3% | 6.4hPa | 2.5V | 03:04:34 | 02:45:09 | 00:00:00 | |
| DO2SHX-10 | 2026-09-03 00:42:51 | 52.42348 | 11.17727 | 35° | 51km/h | 34336m | 4.6m/s | -33.5°C | 1.2% | 6.3hPa | 2.6V | 00:00:00 | 02:45:10 | 00:00:00 | |
| DM0DOS-11 | 2026-09-03 00:42:50 | 52.42344 | 11.17609 | 131° | 53km/h | 34302m | 5.1m/s | -33.8°C | 1.3% | 6.4hPa | 2.6V | 03:04:39 | 02:45:04 | 00:00:00 | |
| AA1-15 | 2026-09-03 00:42:44 | 52.42353 | 11.17596 | 146° | 44km/h | 34298m | 4.4m/s | -33.8°C | 0% | 6.5hPa | 2.5V | 03:04:49 | 02:45:03 | 00:00:00 | |
| DF8AY | 2026-09-03 00:42:44 | 52.42361 | 11.17588 | 156° | 33km/h | 34293m | 4.4m/s | -33.9°C | 0% | 6.5hPa | 2.5V | 03:05:40 | 02:45:02 | 00:00:00 | |
| DL1NUX | 2026-09-03 00:42:44 | 52.42368 | 11.17587 | 345° | 15km/h | 34277m | 6.7m/s | -34°C | 1.3% | 6.4hPa | 2.6V | 03:04:44 | 02:44:59 | 00:00:00 | |
| HSKMA3-T | 2026-09-03 00:42:43 | 52.42367 | 11.17585 | 171° | 18km/h | 34289m | 4.9m/s | -33.9°C | 0% | 6.5hPa | 2.5V | 03:04:49 | 02:45:01 | 00:00:00 | |
| DD8BA-10 | 2026-09-03 00:42:42 | 52.42367 | 11.17585 | 171° | 37km/h | 34289m | 4.8m/s | -33.9°C | 1.3% | 6.4hPa | 2.5V | 03:04:00 | 00:00:00 | 00:00:00 | |
| DF7ER-10 | 2026-09-03 00:42:41 | 52.42367 | 11.17585 | 172° | 18km/h | 34289m | 4.9m/s | -33.9°C | 0.0% | 6.5hPa | 2.6V | 03:04:00 | 00:00:00 | 00:00:00 | |
| DB0DAN | 2026-09-03 00:42:40 | 52.42368 | 11.17587 | 345° | 15km/h | 34277m | 6.7m/s | -34°C | 0% | 6.45hPa | 2.6V | 00:00:00 | 00:00:00 | 00:00:00 | |
| AA1-15 | 2026-09-03 00:42:34 | 52.42331 | 11.17512 | 123° | 38km/h | 34231m | 6m/s | -34.3°C | 0% | 6.5hPa | 2.5V | 03:05:40 | 02:44:51 | 00:00:00 | |
| DF8AY | 2026-09-03 00:42:34 | 52.42327 | 11.17527 | 105° | 38km/h | 34238m | 7.1m/s | -34.3°C | 0% | 6.5hPa | 2.6V | 03:05:40 | 02:44:52 | 00:00:00 | |
| DL1XH1-15 | 2026-09-03 00:42:33 | 52.42343 | 11.17492 | 146° | 29km/h | 34221m | 4.3m/s | -34.2°C | 1.3% | 6.5hPa | 2.5V | 03:04:54 | 02:44:49 | 00:00:00 | |
| DL1XH-west | 2026-09-03 00:42:31 | 52.42337 | 11.17500 | 135° | 37km/h | 34225m | 5.4m/s | -34.3°C | 0% | 6.5hPa | 2.5V | 03:05:40 | 02:44:50 | 00:00:00 | |
| DO2SHX-10 | 2026-09-03 00:42:30 | 52.42343 | 11.17492 | 147° | 18km/h | 34221m | 4.2m/s | -34.2°C | 1.3% | 6.4hPa | 2.6V | 03:04:00 | 02:44:49 | 00:00:00 | |
| SONCRA | 2026-09-03 00:42:29 | 52.42348 | 11.17486 | 148° | 18km/h | 34216m | 4.5m/s | -34.3°C | 0.0% | 6.5hPa | 2.6V | 00:00:00 | 00:00:00 | 00:00:00 | |
| SO1NDE-10 | 2026-09-03 00:42:28 | 52.42351 | 11.17484 | 131° | 27km/h | 34211m | 5.1m/s | -34.3°C | 1.3% | 6.4hPa | 2.6V | 00:00:00 | 02:44:47 | 00:00:00 | |
| DO2SHX-10 | 2026-09-03 00:42:27 | 52.42350 | 11.17482 | 17° | 22km/h | 34205m | 6.1m/s | -34.4°C | 1.3% | 6.4hPa | 2.5V | 00:00:00 | 02:44:46 | 00:00:00 | |
| DB0DAN | 2026-09-03 00:42:25 | 52.42339 | 11.17479 | 14° | 33km/h | 34192m | 6.2m/s | -34.5°C | 0% | 6.54hPa | 2.5V | 00:00:00 | 00:00:00 | 00:00:00 | |
| AA1-15 | 2026-09-03 00:42:23 | 52.42320 | 11.17467 | 28° | 44km/h | 34180m | 5m/s | -34.6°C | 0% | 6.6hPa | 2.6V | 03:05:40 | 02:44:42 | 00:00:00 | |
| DF8AY | 2026-09-03 00:42:22 | 52.42311 | 11.17457 | 38° | 42km/h | 34176m | 4.8m/s | -34.7°C | 0% | 6.6hPa | 2.6V | 03:05:40 | 02:44:41 | 00:00:00 | |
| DL1XH1-15 | 2026-09-03 00:42:22 | 52.42299 | 11.17433 | 61° | 35km/h | 34166m | 5.2m/s | -34.8°C | 1.3% | 6.6hPa | 2.5V | 03:05:04 | 02:44:39 | 00:00:00 | |
| DL1XH-west | 2026-09-03 00:42:21 | 52.42296 | 11.17421 | 76° | 29km/h | 34160m | 6m/s | -34.9°C | 0% | 6.5hPa | 2.5V | 03:05:40 | 02:44:38 | 00:00:00 | |
| HSKMA3-T | 2026-09-03 00:42:21 | 52.42299 | 11.17433 | 62° | 35km/h | 34166m | 5.2m/s | -34.8°C | 0% | 6.6hPa | 2.5V | 03:05:40 | 02:44:39 | 00:00:00 | |
| DL1XH-15 | 2026-09-03 00:42:20 | 52.42295 | 11.17410 | 88° | 27km/h | 34154m | 6.1m/s | -34.9°C | 1.4% | 6.5hPa | 2.5V | 03:05:06 | 02:44:37 | 00:00:00 | |
| TFSTFS | 2026-09-03 00:42:20 | 52.42296 | 11.17421 | 77° | 29km/h | 34160m | 6.0m/s | -34.9°C | 0% | 6.6hPa | 2.5V | 00:00:00 | 00:00:00 | 00:00:00 | |
| DL3OBA | 2026-09-03 00:42:18 | 52.42295 | 11.17410 | 89° | 27km/h | 34154m | 6.1m/s | -34.9°C | 0.0% | 6.5hPa | 2.5V | 03:05:00 | 00:00:00 | 00:00:00 | |
| 13BRC | 2026-09-03 00:42:17 | 52.42295 | 11.17399 | 99° | 24km/h | 34149m | 5.7m/s | -34.9°C | 0.0% | 6.6hPa | 2.5V | 03:05:00 | 00:00:00 | 00:00:00 | |
| DJ8HS-15 | 2026-09-03 00:42:16 | 52.42296 | 11.17390 | 99° | 27km/h | 34143m | 5.5m/s | -34.9°C | 1.3% | 6.5hPa | 2.5V | 00:00:00 | 02:44:35 | 00:00:00 | |
| EDDB2-12 | 2026-09-03 00:42:15 | 52.42296 | 11.17373 | 76° | 20km/h | 34132m | 5.2m/s | -35.0°C | 0.0% | 6.6hPa | 2.5V | 00:00:00 | 00:00:00 | 00:00:00 | |
| GOEST3-10 | 2026-09-03 00:42:13 | 52.42294 | 11.17364 | 64° | 29km/h | 34127m | 5.4m/s | -35.0°C | 1.3% | 6.5hPa | 2.5V | 00:00:00 | 02:44:32 | 00:00:00 | |
| DL1XH1-15 | 2026-09-03 00:42:12 | 52.42281 | 11.17335 | 48° | 33km/h | 34109m | 5.3m/s | -35.1°C | 1.4% | 6.6hPa | 2.6V | 03:05:14 | 02:44:29 | 00:00:00 | |
| AA1-15 | 2026-09-03 00:42:12 | 52.42290 | 11.17355 | 56° | 29km/h | 34121m | 5.7m/s | -35.1°C | 0% | 6.6hPa | 2.5V | 03:05:40 | 02:44:31 | 00:00:00 | |
| DF8AY | 2026-09-03 00:42:11 | 52.42286 | 11.17345 | 53° | 31km/h | 34114m | 5.9m/s | -35.1°C | 0% | 6.6hPa | 2.6V | 03:05:40 | 02:44:30 | 00:00:00 | |
| DB0DAN | 2026-09-03 00:42:10 | 52.42281 | 11.17335 | 48° | 31km/h | 34109m | 5.3m/s | -35.1°C | 0% | 6.59hPa | 2.6V | 00:00:00 | 00:00:00 | 00:00:00 | |
| DL1XH-west | 2026-09-03 00:42:10 | 52.42281 | 11.17335 | 48° | 33km/h | 34109m | 5.3m/s | -35.1°C | 0% | 6.6hPa | 2.6V | 03:05:40 | 02:44:29 | 00:00:00 | |
| DM0DOS-11 | 2026-09-03 00:42:09 | 52.42247 | 11.17298 | 26° | 20km/h | 34076m | 4.4m/s | -35.3°C | 1.4% | 6.6hPa | 2.6V | 03:05:20 | 02:44:23 | 00:00:00 | |
| DL1XH-15 | 2026-09-03 00:42:09 | 52.42269 | 11.17316 | 37° | 29km/h | 34098m | 5.3m/s | -35.2°C | 1.4% | 6.6hPa | 2.5V | 03:05:16 | 02:44:27 | 00:00:00 | |
| HSKMA3-T | 2026-09-03 00:42:09 | 52.42275 | 11.17325 | 43° | 33km/h | 34103m | 5.2m/s | -35.2°C | 0% | 6.6hPa | 2.6V | 03:05:40 | 02:44:28 | 00:00:00 | |
| DO2SHX-10 | 2026-09-03 00:42:09 | 52.42275 | 11.17325 | 44° | 29km/h | 34104m | 5.1m/s | -35.1°C | 1.4% | 6.6hPa | 2.5V | 00:00:00 | 02:44:28 | 00:00:00 | |
| DF8AY-15 | 2026-09-03 00:42:08 | 52.42269 | 11.17316 | 38° | 22km/h | 34099m | 5.3m/s | -35.1°C | 1.4% | 6.6hPa | 2.5V | 00:00:00 | 02:44:27 | 00:00:00 | |
| AM1SDL-15 | 2026-09-03 00:42:07 | 52.42263 | 11.17310 | 31° | 29km/h | 34093m | 5.7m/s | -35.2°C | 1.4% | 6.6hPa | 2.5V | 00:00:00 | 02:44:26 | 00:00:00 | |
| DO2SHX-10 | 2026-09-03 00:42:06 | 52.42257 | 11.17305 | 24° | 22km/h | 34087m | 5.3m/s | -35.2°C | 1.4% | 6.6hPa | 2.5V | 03:05:00 | 02:44:25 | 00:00:00 | |
| NBG1-10 | 2026-09-03 00:42:05 | 52.42252 | 11.17301 | 22° | 26km/h | 34082m | 5.1m/s | -35.2°C | 1.4% | 6.6hPa | 2.6V | 00:00:00 | 02:44:24 | 00:00:00 | |
| DL1XH-15 | 2026-09-03 00:42:04 | 52.42225 | 11.17234 | 72° | 38km/h | 34044m | 4.1m/s | -35.4°C | 1.4% | 6.7hPa | 2.6V | 03:05:26 | 02:44:17 | 00:00:00 | |
| DO2SHX-10 | 2026-09-03 00:42:03 | 52.42243 | 11.17293 | 40° | 26km/h | 34072m | 4.6m/s | -35.3°C | 1.3% | 6.6hPa | 2.5V | 00:00:00 | 02:44:22 | 00:00:00 | |
| DL1XH1-15 | 2026-09-03 00:42:02 | 52.42232 | 11.17264 | 68° | 37km/h | 34055m | 6.4m/s | -35.4°C | 1.4% | 6.7hPa | 2.5V | 03:05:24 | 02:44:19 | 00:00:00 | |
| DF8AY | 2026-09-03 00:42:01 | 52.42232 | 11.17264 | 69° | 37km/h | 34055m | 6.4m/s | -35.4°C | 0% | 6.7hPa | 2.5V | 03:05:40 | 02:44:19 | 00:00:00 | |
| HSKMA3-T | 2026-09-03 00:41:59 | 52.42228 | 11.17250 | 71° | 40km/h | 34049m | 5.2m/s | -35.4°C | 0% | 6.7hPa | 2.6V | 03:05:40 | 02:44:18 | 00:00:00 | |
| SP3BTT-10 | 2026-09-03 00:41:59 | 52.42228 | 11.17250 | 72° | 29km/h | 34049m | 5.1m/s | -35.3°C | 1.4% | 6.7hPa | 2.6V | 00:00:00 | 00:00:00 | 00:00:00 | |
| TFSTFS | 2026-09-03 00:41:58 | 52.42225 | 11.17234 | 73° | 38km/h | 34045m | 4.1m/s | -35.4°C | 0.0% | 6.7hPa | 2.6V | 00:00:00 | 00:00:00 | 00:00:00 | |
| DO2SHX-10 | 2026-09-03 00:41:57 | 52.42222 | 11.17221 | 71° | 22km/h | 34040m | 3.7m/s | -35.4°C | 1.4% | 6.6hPa | 2.6V | 00:00:00 | 02:44:16 | 00:00:00 | |
| 13BRC | 2026-09-03 00:41:56 | 52.42223 | 11.17221 | 72° | 31km/h | 34040m | 3.7m/s | -35.4°C | 0.0% | 6.7hPa | 2.5V | 03:05:00 | 00:00:00 | 00:00:00 | |
| DB0DAN | 2026-09-03 00:41:55 | 52.42218 | 11.17204 | 55° | 11km/h | 34030m | 6.7m/s | -35.4°C | 0% | 6.68hPa | 2.5V | 00:00:00 | 00:00:00 | 00:00:00 | |
| DO2SHX-10 | 2026-09-03 00:41:54 | 52.42217 | 11.17202 | 4° | 7km/h | 34023m | 7.1m/s | -35.4°C | 1.4% | 6.6hPa | 2.6V | 03:05:00 | 02:44:13 | 00:00:00 | |
| DL1XH-15 | 2026-09-03 00:41:53 | 52.42203 | 11.17174 | 77° | 46km/h | 33985m | 6.5m/s | -35.6°C | 1.4% | 6.7hPa | 2.6V | 03:05:37 | 02:44:06 | 00:00:00 | |
| GOEST3-10 | 2026-09-03 00:41:53 | 52.42215 | 11.17203 | 312° | 11km/h | 34017m | 5.7m/s | -35.4°C | 1.4% | 6.7hPa | 2.5V | 00:00:00 | 02:44:12 | 00:00:00 | |
| DD8BA-10 | 2026-09-03 00:41:52 | 52.42214 | 11.17206 | 309° | 29km/h | 34011m | 4.1m/s | -35.4°C | 1.4% | 6.7hPa | 2.5V | 00:00:00 | 00:00:00 | 00:00:00 | |
| DL1XH1-15 | 2026-09-03 00:41:51 | 52.42210 | 11.17206 | 43° | 11km/h | 34004m | 4m/s | -35.5°C | 1.4% | 6.7hPa | 2.5V | 03:05:34 | 02:44:09 | 00:00:00 | |
| AA1-15 | 2026-09-03 00:41:51 | 52.42212 | 11.17207 | 349° | 7km/h | 34007m | 3.4m/s | -35.5°C | 0% | 6.7hPa | 2.6V | 03:05:40 | 02:44:10 | 00:00:00 | |
| DF8AY | 2026-09-03 00:41:50 | 52.42210 | 11.17206 | 44° | 11km/h | 34004m | 4m/s | -35.5°C | 0% | 6.7hPa | 2.5V | 03:05:40 | 02:44:09 | 00:00:00 | |
| DL1XH-west | 2026-09-03 00:41:50 | 52.42203 | 11.17174 | 78° | 46km/h | 33985m | 6.5m/s | -35.6°C | 0% | 6.7hPa | 2.6V | 03:05:40 | 02:44:06 | 00:00:00 | |
| HSKMA3-T | 2026-09-03 00:41:49 | 52.42208 | 11.17200 | 65° | 22km/h | 33999m | 6.5m/s | -35.5°C | 0% | 6.7hPa | 2.5V | 03:05:40 | 02:44:08 | 00:00:00 | |
| HTAHTA | 2026-09-03 00:41:49 | 52.42201 | 11.17155 | 80° | 49km/h | 33980m | 4.5m/s | -35.5°C | 0.0% | 6.8hPa | 2.5V | 00:00:00 | 00:00:00 | 00:00:00 | |
| DB0NH | 2026-09-03 00:41:48 | 52.42203 | 11.17174 | 78° | 27km/h | 33985m | 6.5m/s | -35.5°C | 1.4% | 6.7hPa | 2.5V | 03:05:00 | 02:44:06 | 00:00:00 | |
| DO2SHX-10 | 2026-09-03 00:41:45 | 52.42199 | 11.17135 | 82° | 37km/h | 33976m | 3.1m/s | -35.5°C | 1.4% | 6.7hPa | 2.5V | 00:00:00 | 02:44:04 | 00:00:00 | |
| EDDB2-12 | 2026-09-03 00:41:44 | 52.42196 | 11.17105 | 80° | 24km/h | 33969m | 4.8m/s | -35.6°C | 0.0% | 6.8hPa | 2.5V | 00:00:00 | 00:00:00 | 00:00:00 | |
| DL1LOL-11 | 2026-09-03 00:41:43 | 52.42196 | 11.17105 | 82° | 26km/h | 33969m | 4.8m/s | -35.6°C | 0.0% | 6.8hPa | 2.5V | 03:06:00 | 00:00:00 | 00:00:00 | |
| DL1XH-15 | 2026-09-03 00:41:42 | 52.42190 | 11.17112 | 301° | 16km/h | 33939m | 3.7m/s | -35.8°C | 1.4% | 6.8hPa | 2.5V | 03:05:46 | 02:43:57 | 00:00:00 | |
| AA1-15 | 2026-09-03 00:41:41 | 52.42193 | 11.17099 | 286° | 15km/h | 33948m | 6.4m/s | -35.7°C | 0% | 6.8hPa | 2.6V | 03:06:31 | 02:43:59 | 00:00:00 | |
| DB0DAN | 2026-09-03 00:41:40 | 52.42193 | 11.17099 | 286° | 15km/h | 33948m | 6.4m/s | -35.7°C | 0.1% | 6.8hPa | 2.6V | 00:00:00 | 00:00:00 | 00:00:00 | |
| DF8AY | 2026-09-03 00:41:39 | 52.42181 | 11.16977 | 7° | 22km/h | 33861m | 5.6m/s | -36.1°C | 0% | 6.9hPa | 2.5V | 03:06:31 | 02:43:43 | 00:00:00 | |
| DL1XH-west | 2026-09-03 00:41:38 | 52.42190 | 11.17112 | 302° | 16km/h | 33939m | 3.7m/s | -35.8°C | 0% | 6.8hPa | 2.5V | 03:06:31 | 02:43:57 | 00:00:00 | |
| GOEST3-10 | 2026-09-03 00:41:38 | 52.42190 | 11.17112 | 302° | 20km/h | 33939m | 3.7m/s | -35.7°C | 1.4% | 6.7hPa | 2.6V | 03:05:00 | 00:00:00 | 00:00:00 | |
| DM0DOS-11 | 2026-09-03 00:41:37 | 52.42184 | 11.17093 | 88° | 37km/h | 33918m | 7.3m/s | -35.9°C | 1.5% | 6.8hPa | 2.6V | 03:05:50 | 02:43:53 | 00:00:00 | |
| DO2SHX-10 | 2026-09-03 00:41:36 | 52.42186 | 11.17113 | 54° | 26km/h | 33931m | 4.7m/s | -35.8°C | 1.4% | 6.7hPa | 2.6V | 00:00:00 | 02:43:55 | 00:00:00 | |
| DO2SHX-10 | 2026-09-03 00:41:33 | 52.42184 | 11.17076 | 95° | 49km/h | 33912m | 7.3m/s | -35.9°C | 1.4% | 6.7hPa | 2.6V | 00:00:00 | 02:43:52 | 00:00:00 | |
| DL1XH-15 | 2026-09-03 00:41:32 | 52.42193 | 11.16991 | 92° | 20km/h | 33886m | 5.1m/s | -36°C | 1.5% | 6.8hPa | 2.6V | 03:05:56 | 02:43:47 | 00:00:00 | |
| DL1NUX | 2026-09-03 00:41:32 | 52.42190 | 11.17017 | 102° | 44km/h | 33894m | 4m/s | -36°C | 1.4% | 6.8hPa | 2.5V | 03:05:54 | 02:43:49 | 00:00:00 | |
| AA1-15 | 2026-09-03 00:41:30 | 52.42192 | 11.17001 | 100° | 31km/h | 33890m | 4.2m/s | -36°C | 0% | 6.8hPa | 2.6V | 03:06:31 | 02:43:48 | 00:00:00 | |
| HSKMA3-T | 2026-09-03 00:41:28 | 52.42193 | 11.16991 | 92° | 20km/h | 33886m | 5.1m/s | -36°C | 0% | 6.8hPa | 2.6V | 03:06:31 | 02:43:47 | 00:00:00 | |
| DL1XH-west | 2026-09-03 00:41:28 | 52.42192 | 11.16984 | 66° | 13km/h | 33880m | 6m/s | -36.1°C | 0% | 6.9hPa | 2.6V | 03:06:31 | 02:43:46 | 00:00:00 | |
| DF7ER-10 | 2026-09-03 00:41:28 | 52.42193 | 11.16990 | 93° | 20km/h | 33886m | 5.1m/s | -36.0°C | 0.1% | 6.8hPa | 2.5V | 03:06:00 | 00:00:00 | 00:00:00 | |
| DO2SHX-10 | 2026-09-03 00:41:27 | 52.42192 | 11.16984 | 66° | 15km/h | 33880m | 5.9m/s | -36.0°C | 1.4% | 6.8hPa | 2.5V | 00:00:00 | 02:43:46 | 00:00:00 | |
| DM0DOS-11 | 2026-09-03 00:41:26 | 52.42181 | 11.16977 | 6° | 22km/h | 33861m | 5.6m/s | -36.1°C | 1.4% | 6.9hPa | 2.5V | 03:06:00 | 02:43:43 | 00:00:00 | |
| DB0UT-7 | 2026-09-03 00:41:26 | 52.42190 | 11.16980 | 25° | 33km/h | 33874m | 6.6m/s | -36.0°C | 1.4% | 6.8hPa | 2.5V | 03:05:00 | 02:43:45 | 00:00:00 | |
| DL1NUX | 2026-09-03 00:41:25 | 52.42166 | 11.16955 | 88° | 24km/h | 33842m | 5m/s | -36.2°C | 1.4% | 6.9hPa | 2.5V | 03:06:04 | 02:43:39 | 00:00:00 | |
| DB0DAN | 2026-09-03 00:41:25 | 52.42186 | 11.16978 | 5° | 18km/h | 33867m | 6.4m/s | -36.1°C | 0% | 6.88hPa | 2.5V | 00:00:00 | 00:00:00 | 00:00:00 | |
| DO2SHX-10 | 2026-09-03 00:41:24 | 52.42181 | 11.16977 | 7° | 22km/h | 33861m | 5.5m/s | -36.1°C | 1.4% | 6.8hPa | 2.5V | 00:00:00 | 02:43:43 | 00:00:00 | |
| GOEST3-10 | 2026-09-03 00:41:23 | 52.42176 | 11.16975 | 20° | 24km/h | 33856m | 4.6m/s | -36.1°C | 1.4% | 6.8hPa | 2.5V | 00:00:00 | 02:43:42 | 00:00:00 | |
| DD8BA-10 | 2026-09-03 00:41:22 | 52.42171 | 11.16971 | 39° | 33km/h | 33852m | 4.1m/s | -36.1°C | 1.4% | 6.9hPa | 2.5V | 03:06:00 | 00:00:00 | 00:00:00 | |
| DL1XH-15 | 2026-09-03 00:41:21 | 52.42171 | 11.16933 | 125° | 37km/h | 33829m | 7.2m/s | -36.2°C | 1.4% | 6.9hPa | 2.5V | 03:06:06 | 02:43:37 | 00:00:00 | |
| DF8AY | 2026-09-03 00:41:20 | 52.42166 | 11.16955 | 89° | 24km/h | 33842m | 5m/s | -36.2°C | 0% | 6.9hPa | 2.5V | 03:06:31 | 02:43:39 | 00:00:00 | |
| DM0DOS-11 | 2026-09-03 00:41:20 | 52.42199 | 11.16882 | 121° | 38km/h | 33810m | 3.6m/s | -36.2°C | 1.4% | 6.9hPa | 2.5V | 03:06:10 | 02:43:33 | 00:00:00 | |
| AA1-15 | 2026-09-03 00:41:20 | 52.42167 | 11.16944 | 111° | 29km/h | 33836m | 6.6m/s | -36.2°C | 0% | 6.9hPa | 2.5V | 03:06:31 | 02:43:38 | 00:00:00 | |
| HSKMA3-T | 2026-09-03 00:41:17 | 52.42178 | 11.16921 | 134° | 42km/h | 33822m | 6.3m/s | -36.3°C | 0% | 6.9hPa | 2.6V | 03:06:31 | 02:43:36 | 00:00:00 | |
| DB0NH | 2026-09-03 00:41:17 | 52.42178 | 11.16921 | 135° | 35km/h | 33823m | 6.2m/s | -36.2°C | 1.5% | 6.9hPa | 2.5V | 00:00:00 | 02:43:36 | 00:00:00 | |
| DJ8HS-15 | 2026-09-03 00:41:16 | 52.42185 | 11.16908 | 135° | 37km/h | 33818m | 4.3m/s | -36.2°C | 1.5% | 6.9hPa | 2.5V | 00:00:00 | 02:43:35 | 00:00:00 | |
| DO2SHX-10 | 2026-09-03 00:41:15 | 52.42193 | 11.16895 | 133° | 38km/h | 33814m | 3.3m/s | -36.2°C | 1.5% | 6.9hPa | 2.5V | 00:00:00 | 02:43:34 | 00:00:00 | |
| EDDB2-12 | 2026-09-03 00:41:13 | 52.42204 | 11.16855 | 86° | 31km/h | 33799m | 6.8m/s | -36.2°C | 0.0% | 6.9hPa | 2.5V | 00:00:00 | 00:00:00 | 00:00:00 | |
| DO2SHX-10 | 2026-09-03 00:41:12 | 52.42203 | 11.16855 | 87° | 31km/h | 33799m | 6.7m/s | -36.2°C | 1.5% | 6.9hPa | 2.5V | 00:00:00 | 02:43:31 | 00:00:00 | |
| DL1XH-15 | 2026-09-03 00:41:11 | 52.42186 | 11.16818 | 25° | 22km/h | 33777m | 3.3m/s | -36.3°C | 1.5% | 6.9hPa | 2.5V | 03:06:16 | 02:43:27 | 00:00:00 | |
| DF8AY | 2026-09-03 00:41:10 | 52.42197 | 11.16832 | 48° | 33km/h | 33786m | 5.9m/s | -36.3°C | 0% | 6.9hPa | 2.6V | 03:06:31 | 02:43:29 | 00:00:00 | |
| DB0DAN | 2026-09-03 00:41:10 | 52.42197 | 11.16832 | 48° | 31km/h | 33786m | 5.9m/s | -36.3°C | 0.1% | 6.93hPa | 2.6V | 00:00:00 | 00:00:00 | 00:00:00 | |
| AA1-15 | 2026-09-03 00:41:09 | 52.42192 | 11.16823 | 35° | 29km/h | 33780m | 4.5m/s | -36.3°C | 0% | 7hPa | 2.6V | 03:06:31 | 02:43:28 | 00:00:00 | |
| DM0DOS-11 | 2026-09-03 00:41:09 | 52.42189 | 11.16816 | 171° | 29km/h | 33756m | 6.1m/s | -36.3°C | 1.5% | 7hPa | 2.6V | 03:06:20 | 02:43:23 | 00:00:00 | |
| HSKMA3-T | 2026-09-03 00:41:07 | 52.42182 | 11.16816 | 15° | 11km/h | 33773m | 3.9m/s | -36.3°C | 0% | 7hPa | 2.5V | 03:06:31 | 02:43:26 | 00:00:00 | |
| DL1XH-west | 2026-09-03 00:41:07 | 52.42181 | 11.16816 | 218° | 4km/h | 33768m | 5.3m/s | -36.3°C | 0% | 7hPa | 2.5V | 03:06:31 | 02:43:25 | 00:00:00 | |
| AM1SDL-15 | 2026-09-03 00:41:06 | 52.42181 | 11.16816 | 218° | 33km/h | 33768m | 5.3m/s | -36.2°C | 1.5% | 6.9hPa | 2.5V | 00:00:00 | 02:43:25 | 00:00:00 | |
| DL1NUX | 2026-09-03 00:41:05 | 52.42226 | 11.16771 | 117° | 57km/h | 33736m | 6m/s | -36.3°C | 1.4% | 7hPa | 2.5V | 03:06:24 | 02:43:19 | 00:00:00 | |
| DL4BBY-15 | 2026-09-03 00:41:05 | 52.42183 | 11.16816 | 185° | 38km/h | 33763m | 6.3m/s | -36.0°C | 0% | 0hPa | 2.5V | 00:00:00 | 00:00:00 | 00:00:00 | |
| GOEST3-10 | 2026-09-03 00:41:03 | 52.42198 | 11.16812 | 161° | 53km/h | 33751m | 4.9m/s | -36.2°C | 1.5% | 7.0hPa | 2.5V | 00:00:00 | 02:43:22 | 00:00:00 | |
| DO2SHX-10 | 2026-09-03 00:41:02 | 52.42208 | 11.16803 | 145° | 49km/h | 33747m | 4.2m/s | -36.2°C | 1.4% | 7.0hPa | 2.5V | 00:00:00 | 02:43:21 | 00:00:00 | |
| DL1XH-15 | 2026-09-03 00:41:01 | 52.42231 | 11.16725 | 85° | 57km/h | 33724m | 5.4m/s | -36.2°C | 1.4% | 7hPa | 2.6V | 03:06:26 | 02:43:17 | 00:00:00 | |
| DF8AY | 2026-09-03 00:40:59 | 52.42213 | 11.16669 | 20° | 16km/h | 33704m | 5.9m/s | -36.3°C | 0% | 7hPa | 2.5V | 03:06:31 | 02:43:13 | 00:00:00 | |
| AA1-15 | 2026-09-03 00:40:59 | 52.42230 | 11.16749 | 101° | 58km/h | 33730m | 5.9m/s | -36.3°C | 0% | 7hPa | 2.6V | 03:06:31 | 02:43:18 | 00:00:00 | |
| DM0DOS-11 | 2026-09-03 00:40:59 | 52.42213 | 11.16669 | 20° | 16km/h | 33704m | 5.9m/s | -36.3°C | 1.4% | 7hPa | 2.5V | 03:06:30 | 02:43:13 | 00:00:00 | |
| DL1XH-west | 2026-09-03 00:40:56 | 52.42223 | 11.16686 | 58° | 42km/h | 33715m | 4.4m/s | -36.3°C | 0% | 7hPa | 2.5V | 03:06:31 | 02:43:15 | 00:00:00 | |
| SONCRA | 2026-09-03 00:40:56 | 52.42218 | 11.16675 | 44° | 29km/h | 33711m | 5.6m/s | -36.3°C | 0.0% | 7.0hPa | 2.5V | 00:00:00 | 00:00:00 | 00:00:00 | |
| DB0DAN | 2026-09-03 00:40:55 | 52.42218 | 11.16675 | 45° | 29km/h | 33710m | 5.6m/s | -36.3°C | 0% | 7.01hPa | 2.5V | 00:00:00 | 00:00:00 | 00:00:00 | |
| SMARD9-15 | 2026-09-03 00:40:52 | 52.42229 | 11.16677 | 161° | 37km/h | 33679m | 5.1m/s | -36.4°C | 0.0% | 7.0hPa | 2.5V | 00:00:00 | 00:00:00 | 00:00:00 | |
| DL1NUX | 2026-09-03 00:40:51 | 52.42221 | 11.16679 | 181° | 29km/h | 33683m | 4.5m/s | -36.3°C | 1.4% | 7hPa | 2.5V | 03:06:34 | 02:43:09 | 00:00:00 | |
| AA1-15 | 2026-09-03 00:40:49 | 52.42229 | 11.16677 | 161° | 37km/h | 33679m | 5.1m/s | -36.4°C | 0% | 7hPa | 2.5V | 03:07:22 | 02:43:08 | 00:00:00 | |
| DL1XH-west | 2026-09-03 00:40:46 | 52.42252 | 11.16636 | 113° | 57km/h | 33660m | 6.5m/s | -36.4°C | 0% | 7.1hPa | 2.6V | 03:07:22 | 02:43:05 | 00:00:00 | |
| HSKMA3-T | 2026-09-03 00:40:46 | 52.42256 | 11.16614 | 103° | 58km/h | 33654m | 5.1m/s | -36.5°C | 0% | 7.1hPa | 2.6V | 03:07:22 | 02:43:04 | 00:00:00 | |
| DF8AY | 2026-09-03 00:40:43 | 52.42259 | 11.16571 | 88° | 44km/h | 33646m | 3.6m/s | -36.5°C | 0% | 7.1hPa | 2.5V | 03:07:22 | 02:43:02 | 00:00:00 | |
| DO3MHA-11 | 2026-09-03 00:40:43 | 52.42259 | 11.16571 | 89° | 20km/h | 33647m | 3.5m/s | -36.5°C | 1.5% | 7.1hPa | 2.5V | 00:00:00 | 02:43:02 | 00:00:00 | |
| DO2SHX-10 | 2026-09-03 00:40:42 | 52.42258 | 11.16556 | 83° | 16km/h | 33642m | 5.0m/s | -36.5°C | 1.5% | 7.1hPa | 2.5V | 00:00:00 | 02:43:01 | 00:00:00 | |
| DB0DAN | 2026-09-03 00:40:40 | 52.42256 | 11.16542 | 14° | 4km/h | 33629m | 7.8m/s | -36.7°C | 0.1% | 7.15hPa | 2.6V | 00:00:00 | 00:00:00 | 00:00:00 | |
| DO2SHX-10 | 2026-09-03 00:40:40 | 52.42256 | 11.16545 | 271° | 16km/h | 33622m | 6.3m/s | -36.6°C | 1.5% | 7.1hPa | 2.6V | 03:06:00 | 02:42:58 | 00:00:00 | |
| AA1-15 | 2026-09-03 00:40:40 | 52.42256 | 11.16545 | 270° | 11km/h | 33622m | 6.4m/s | -36.7°C | 0% | 7.1hPa | 2.6V | 03:07:22 | 02:42:58 | 00:00:00 | |
| SONDE2-11 | 2026-09-03 00:40:39 | 52.42256 | 11.16551 | 257° | 18km/h | 33617m | 4.7m/s | -36.7°C | 0.0% | 7.2hPa | 2.6V | 00:00:00 | 00:00:00 | 00:00:00 | |
| BUE01 | 2026-09-03 00:40:38 | 52.42258 | 11.16558 | 241° | 16km/h | 33613m | 3.5m/s | -36.7°C | 0.0% | 7.1hPa | 2.6V | 00:00:00 | 00:00:00 | 00:00:00 | |
| DM0DOS-11 | 2026-09-03 00:40:37 | 52.42266 | 11.16558 | 125° | 22km/h | 33600m | 6.2m/s | -36.8°C | 1.5% | 7.1hPa | 2.6V | 03:06:50 | 02:42:53 | 00:00:00 | |
| DL1XH-west | 2026-09-03 00:40:37 | 52.42260 | 11.16562 | 215° | 13km/h | 33609m | 3.5m/s | -36.7°C | 0% | 7.1hPa | 2.5V | 03:07:22 | 02:42:55 | 00:00:00 | |
| HSKMA3-T | 2026-09-03 00:40:35 | 52.42263 | 11.16563 | 160° | 13km/h | 33605m | 4.7m/s | -36.8°C | 0% | 7.1hPa | 2.6V | 03:07:22 | 02:42:54 | 00:00:00 | |
| DF8AY | 2026-09-03 00:40:32 | 52.42273 | 11.16533 | 107° | 44km/h | 33587m | 6.6m/s | -36.8°C | 0% | 7.2hPa | 2.5V | 03:07:22 | 02:42:51 | 00:00:00 | |
| DL4XJ-10 | 2026-09-03 00:40:32 | 52.42273 | 11.16533 | 107° | 26km/h | 33587m | 6.5m/s | -36.5°C | 0% | 0hPa | 2.5V | 00:00:00 | 00:00:00 | 00:00:00 | |
| DL1NUX | 2026-09-03 00:40:31 | 52.42279 | 11.16495 | 105° | 51km/h | 33575m | 5.1m/s | -36.8°C | 1.5% | 7.2hPa | 2.5V | 03:06:54 | 02:42:49 | 00:00:00 | |
| DD8BA-10 | 2026-09-03 00:40:31 | 52.42276 | 11.16514 | 105° | 20km/h | 33581m | 5.8m/s | -36.7°C | 1.5% | 7.1hPa | 2.6V | 00:00:00 | 00:00:00 | 00:00:00 | |
| DL1XH-15 | 2026-09-03 00:40:30 | 52.42286 | 11.16459 | 110° | 40km/h | 33565m | 4.9m/s | -36.8°C | 1.5% | 7.2hPa | 2.6V | 03:06:56 | 02:42:47 | 00:00:00 | |
| AA1-15 | 2026-09-03 00:40:28 | 52.42286 | 11.16459 | 110° | 40km/h | 33565m | 4.9m/s | -36.8°C | 0% | 7.2hPa | 2.6V | 03:07:22 | 02:42:47 | 00:00:00 | |
| SO1NDE-10 | 2026-09-03 00:40:28 | 52.42286 | 11.16458 | 111° | 18km/h | 33566m | 4.9m/s | -36.7°C | 1.5% | 7.2hPa | 2.5V | 00:00:00 | 02:42:47 | 00:00:00 | |
| DO2SHX-10 | 2026-09-03 00:40:27 | 52.42289 | 11.16445 | 116° | 20km/h | 33561m | 5.3m/s | -36.7°C | 1.5% | 7.2hPa | 2.5V | 03:06:00 | 02:42:46 | 00:00:00 | |
| DM0DOS-11 | 2026-09-03 00:40:26 | 52.42297 | 11.16428 | 136° | 7km/h | 33543m | 6.3m/s | -36.7°C | 1.5% | 7.2hPa | 2.5V | 03:07:00 | 02:42:43 | 00:00:00 | |
| DB0DAN | 2026-09-03 00:40:25 | 52.42295 | 11.16431 | 132° | 13km/h | 33549m | 5.6m/s | -36.7°C | 0% | 7.14hPa | 2.5V | 00:00:00 | 00:00:00 | 00:00:00 | |
| HSKMA3-T | 2026-09-03 00:40:25 | 52.42297 | 11.16428 | 136° | 7km/h | 33543m | 6.3m/s | -36.7°C | 0% | 7.2hPa | 2.5V | 03:07:22 | 02:42:43 | 00:00:00 | |
| DL1XH1-15 | 2026-09-03 00:40:25 | 52.42295 | 11.16417 | 69° | 15km/h | 33520m | 4.4m/s | -36.7°C | 1.5% | 7.3hPa | 2.5V | 03:07:04 | 02:42:39 | 00:00:00 | |
| DF8AY | 2026-09-03 00:40:22 | 52.42297 | 11.16424 | 62° | 5km/h | 33530m | 5.6m/s | -36.7°C | 0% | 7.2hPa | 2.6V | 03:07:22 | 02:42:41 | 00:00:00 | |
| GOEST3-10 | 2026-09-03 00:40:22 | 52.42297 | 11.16424 | 62° | 13km/h | 33531m | 5.6m/s | -36.6°C | 1.5% | 7.2hPa | 2.5V | 00:00:00 | 02:42:41 | 00:00:00 | |
| DL1XH-15 | 2026-09-03 00:40:20 | 52.42294 | 11.16403 | 88° | 20km/h | 33511m | 5.2m/s | -36.7°C | 1.5% | 7.2hPa | 2.5V | 03:07:06 | 02:42:37 | 00:00:00 | |
| AA1-15 | 2026-09-03 00:40:17 | 52.42294 | 11.16394 | 97° | 22km/h | 33505m | 6.1m/s | -36.7°C | 0% | 7.2hPa | 2.6V | 03:07:22 | 02:42:36 | 00:00:00 | |
| DB0NH | 2026-09-03 00:40:17 | 52.42294 | 11.16393 | 98° | 22km/h | 33506m | 6.0m/s | -36.7°C | 1.5% | 7.2hPa | 2.5V | 00:00:00 | 02:42:36 | 00:00:00 | |
| DM0DOS-11 | 2026-09-03 00:40:16 | 52.42299 | 11.16365 | 111° | 26km/h | 33487m | 5.1m/s | -36.8°C | 1.5% | 7.2hPa | 2.5V | 03:07:10 | 02:42:33 | 00:00:00 | |
| DL1XH-west | 2026-09-03 00:40:15 | 52.42297 | 11.16375 | 109° | 26km/h | 33493m | 5.9m/s | -36.8°C | 0% | 7.3hPa | 2.6V | 03:07:22 | 02:42:34 | 00:00:00 | |
| HSKMA3-T | 2026-09-03 00:40:14 | 52.42302 | 11.16354 | 109° | 27km/h | 33482m | 4.6m/s | -36.9°C | 0% | 7.3hPa | 2.5V | 03:07:22 | 02:42:32 | 00:00:00 | |
| DF8AY | 2026-09-03 00:40:12 | 52.42305 | 11.16332 | 95° | 31km/h | 33472m | 5.9m/s | -36.9°C | 0% | 7.3hPa | 2.6V | 03:07:22 | 02:42:30 | 00:00:00 | |
| DO2SHX-10 | 2026-09-03 00:40:12 | 52.42303 | 11.16343 | 103° | 29km/h | 33478m | 5.0m/s | -36.8°C | 1.5% | 7.2hPa | 2.6V | 00:00:00 | 02:42:31 | 00:00:00 | |
| DL1NUX | 2026-09-03 00:40:11 | 52.42305 | 11.16319 | 87° | 31km/h | 33466m | 6.1m/s | -36.9°C | 1.5% | 7.3hPa | 2.6V | 03:07:14 | 02:42:29 | 00:00:00 | |
| DL1XH-15 | 2026-09-03 00:40:10 | 52.42302 | 11.16295 | 71° | 27km/h | 33455m | 4.5m/s | -36.9°C | 1.5% | 7.3hPa | 2.5V | 03:07:16 | 02:42:27 | 00:00:00 | |
| DB0DAN | 2026-09-03 00:40:10 | 52.42305 | 11.16319 | 87° | 29km/h | 33466m | 6.1m/s | -36.9°C | 0.1% | 7.29hPa | 2.6V | 00:00:00 | 00:00:00 | 00:00:00 | |
| DM0DOS-11 | 2026-09-03 00:40:09 | 52.42297 | 11.16275 | 197° | 2km/h | 33427m | 4.7m/s | -37°C | 1.5% | 7.3hPa | 2.6V | 03:07:21 | 02:42:22 | 00:00:00 | |
| AA1-15 | 2026-09-03 00:40:07 | 52.42300 | 11.16285 | 66° | 20km/h | 33451m | 4.7m/s | -37°C | 0% | 7.3hPa | 2.5V | 03:07:22 | 02:42:26 | 00:00:00 | |
| DL1XH-west | 2026-09-03 00:40:05 | 52.42297 | 11.16276 | 52° | 5km/h | 33439m | 7.1m/s | -37°C | 0% | 7.3hPa | 2.6V | 03:07:22 | 02:42:24 | 00:00:00 | |
| HSKMA3-T | 2026-09-03 00:40:04 | 52.42297 | 11.16275 | 198° | 4km/h | 33427m | 4.7m/s | -37°C | 0% | 7.3hPa | 2.6V | 03:07:22 | 02:42:22 | 00:00:00 | |
| DO2SHX-10 | 2026-09-03 00:40:03 | 52.42297 | 11.16275 | 198° | 5km/h | 33427m | 4.7m/s | -37.0°C | 1.5% | 7.3hPa | 2.5V | 03:07:00 | 02:42:22 | 00:00:00 | |
| DL1XH1-15 | 2026-09-03 00:40:02 | 52.42297 | 11.16265 | 73° | 22km/h | 33411m | 6.7m/s | -37.1°C | 1.5% | 7.4hPa | 2.5V | 03:07:24 | 02:42:19 | 00:00:00 | |
| DF8AY | 2026-09-03 00:40:01 | 52.42298 | 11.16271 | 84° | 11km/h | 33417m | 5.2m/s | -37.1°C | 0% | 7.3hPa | 2.5V | 03:08:13 | 02:42:20 | 00:00:00 | |
| DO2SHX-10 | 2026-09-03 00:40:00 | 52.42297 | 11.16264 | 74° | 29km/h | 33411m | 6.6m/s | -37.1°C | 1.5% | 7.3hPa | 2.5V | 00:00:00 | 02:42:19 | 00:00:00 | |
| SP3BTT-10 | 2026-09-03 00:39:59 | 52.42295 | 11.16254 | 74° | 22km/h | 33405m | 6.2m/s | -37.1°C | 1.6% | 7.3hPa | 2.5V | 00:00:00 | 00:00:00 | 00:00:00 | |
| DM0DOS-11 | 2026-09-03 00:39:58 | 52.42282 | 11.16189 | 63° | 22km/h | 33377m | 5.6m/s | -37.4°C | 1.5% | 7.4hPa | 2.5V | 03:07:30 | 02:42:13 | 00:00:00 | |
| AA1-15 | 2026-09-03 00:39:57 | 52.42290 | 11.16227 | 72° | 38km/h | 33393m | 4.7m/s | -37.2°C | 0% | 7.4hPa | 2.6V | 03:08:13 | 02:42:16 | 00:00:00 | |
| DL1XH-west | 2026-09-03 00:39:55 | 52.42284 | 11.16199 | 70° | 29km/h | 33383m | 5.3m/s | -37.3°C | 0% | 7.4hPa | 2.5V | 03:08:13 | 02:42:14 | 00:00:00 | |
| DB0DAN | 2026-09-03 00:39:55 | 52.42284 | 11.16199 | 70° | 29km/h | 33383m | 5.3m/s | -37.3°C | 0% | 7.37hPa | 2.5V | 00:00:00 | 00:00:00 | 00:00:00 | |
| HSKMA3-T | 2026-09-03 00:39:53 | 52.42273 | 11.16178 | 10° | 15km/h | 33361m | 6m/s | -37.5°C | 0% | 7.4hPa | 2.6V | 03:08:13 | 02:42:10 | 00:00:00 | |
| DF8AY | 2026-09-03 00:39:49 | 52.42266 | 11.16175 | 17° | 16km/h | 33348m | 5.4m/s | -37.6°C | 0% | 7.4hPa | 2.5V | 03:08:13 | 02:42:08 | 00:00:00 | |
| DF7PN | 2026-09-03 00:39:49 | 52.42262 | 11.16172 | 32° | 16km/h | 33343m | 5.1m/s | -37.6°C | 0.0% | 7.5hPa | 2.5V | 00:00:00 | 00:00:00 | 00:00:00 | |
| DF8AY-15 | 2026-09-03 00:39:48 | 52.42262 | 11.16172 | 33° | 22km/h | 33344m | 5.1m/s | -37.5°C | 1.5% | 7.4hPa | 2.5V | 00:00:00 | 02:42:07 | 00:00:00 | |
| DB0NH | 2026-09-03 00:39:47 | 52.42258 | 11.16168 | 47° | 24km/h | 33338m | 5.2m/s | -37.6°C | 1.6% | 7.4hPa | 2.5V | 03:07:00 | 02:42:06 | 00:00:00 | |
| DM0DOS-11 | 2026-09-03 00:39:46 | 52.42255 | 11.16144 | 98° | 22km/h | 33320m | 6.6m/s | -37.7°C | 1.5% | 7.5hPa | 2.5V | 03:07:40 | 02:42:03 | 00:00:00 | |
| DL1XH-west | 2026-09-03 00:39:45 | 52.42255 | 11.16153 | 87° | 22km/h | 33327m | 6.1m/s | -37.7°C | 0% | 7.4hPa | 2.6V | 03:08:13 | 02:42:04 | 00:00:00 | |
| SP3WXH-11 | 2026-09-03 00:39:44 | 52.42255 | 11.16144 | 98° | 22km/h | 33321m | 6.6m/s | -37.7°C | 0.1% | 7.5hPa | 2.5V | 00:00:00 | 00:00:00 | 00:00:00 | |
| HSKMA3-T | 2026-09-03 00:39:42 | 52.42258 | 11.16126 | 108° | 22km/h | 33309m | 4.7m/s | -37.7°C | 0% | 7.5hPa | 2.5V | 03:08:13 | 02:42:01 | 00:00:00 | |
| DO2SHX-10 | 2026-09-03 00:39:42 | 52.42258 | 11.16126 | 109° | 20km/h | 33309m | 4.7m/s | -37.7°C | 1.6% | 7.4hPa | 2.5V | 00:00:00 | 02:42:01 | 00:00:00 | |
| DL1XH-15 | 2026-09-03 00:39:41 | 52.42252 | 11.16094 | 35° | 29km/h | 33286m | 7.2m/s | -37.8°C | 1.6% | 7.5hPa | 2.5V | 03:07:46 | 02:41:57 | 00:00:00 | |
| DB0DAN | 2026-09-03 00:39:40 | 52.42259 | 11.16109 | 71° | 18km/h | 33299m | 5m/s | -37.8°C | 0.1% | 7.5hPa | 2.6V | 00:00:00 | 00:00:00 | 00:00:00 | |
| DD8BA-10 | 2026-09-03 00:39:40 | 52.42259 | 11.16109 | 71° | 22km/h | 33299m | 4.9m/s | -37.7°C | 1.6% | 7.4hPa | 2.6V | 00:00:00 | 00:00:00 | 00:00:00 | |
| DM0DOS-11 | 2026-09-03 00:39:39 | 52.42220 | 11.16075 | 22° | 9km/h | 33259m | 6.6m/s | -37.9°C | 1.5% | 7.5hPa | 2.6V | 03:07:51 | 02:41:52 | 00:00:00 | |
| DF8AY | 2026-09-03 00:39:39 | 52.42245 | 11.16088 | 26° | 35km/h | 33279m | 6.1m/s | -37.8°C | 0% | 7.5hPa | 2.5V | 03:08:13 | 02:41:56 | 00:00:00 | |
| AA1-15 | 2026-09-03 00:39:35 | 52.42224 | 11.16076 | 14° | 20km/h | 33265m | 5.2m/s | -37.8°C | 0% | 7.5hPa | 2.6V | 03:08:13 | 02:41:53 | 00:00:00 | |
| DL1XH-west | 2026-09-03 00:39:34 | 52.42220 | 11.16075 | 22° | 9km/h | 33259m | 6.6m/s | -37.9°C | 0% | 7.5hPa | 2.6V | 03:08:13 | 02:41:52 | 00:00:00 | |
| HSKMA3-T | 2026-09-03 00:39:32 | 52.42219 | 11.16073 | 124° | 5km/h | 33253m | 6.4m/s | -37.9°C | 0% | 7.5hPa | 2.5V | 03:08:13 | 02:41:51 | 00:00:00 | |
| DL4XJ-10 | 2026-09-03 00:39:32 | 52.42219 | 11.16073 | 125° | 22km/h | 33253m | 6.4m/s | -37.6°C | 0% | 0hPa | 2.6V | 00:00:00 | 00:00:00 | 00:00:00 | |
| GOEST3-10 | 2026-09-03 00:39:31 | 52.42221 | 11.16070 | 150° | 24km/h | 33247m | 5.4m/s | -37.8°C | 1.6% | 7.5hPa | 2.6V | 00:00:00 | 02:41:50 | 00:00:00 | |
| DD8BA-10 | 2026-09-03 00:39:30 | 52.42225 | 11.16065 | 142° | 29km/h | 33241m | 4.5m/s | -37.8°C | 1.6% | 7.5hPa | 2.6V | 00:00:00 | 00:00:00 | 00:00:00 | |
| DL1XH-15 | 2026-09-03 00:39:29 | 52.42233 | 11.16049 | 110° | 27km/h | 33231m | 5.4m/s | -37.8°C | 1.6% | 7.6hPa | 2.6V | 03:07:56 | 02:41:47 | 00:00:00 | |
| DF8AY-15 | 2026-09-03 00:39:28 | 52.42233 | 11.16049 | 111° | 26km/h | 33232m | 5.3m/s | -37.8°C | 1.6% | 7.5hPa | 2.6V | 00:00:00 | 02:41:47 | 00:00:00 | |
| DM0DOS-11 | 2026-09-03 00:39:27 | 52.42221 | 11.16006 | 31° | 35km/h | 33209m | 4.9m/s | -37.8°C | 1.6% | 7.6hPa | 2.5V | 03:08:00 | 02:41:43 | 00:00:00 | |
| DF8AY | 2026-09-03 00:39:26 | 52.42232 | 11.16025 | 68° | 33km/h | 33220m | 5.9m/s | -37.8°C | 0% | 7.5hPa | 2.5V | 03:08:13 | 02:41:45 | 00:00:00 | |
| DB0UT-7 | 2026-09-03 00:39:26 | 52.42232 | 11.16025 | 68° | 22km/h | 33220m | 5.9m/s | -37.8°C | 1.6% | 7.5hPa | 2.5V | 03:07:00 | 02:41:45 | 00:00:00 | |
| DL1NUX | 2026-09-03 00:39:25 | 52.42196 | 11.16005 | 308° | 18km/h | 33186m | 5.8m/s | -37.9°C | 1.6% | 7.6hPa | 2.5V | 03:08:04 | 02:41:39 | 00:00:00 | |
| DB0DAN | 2026-09-03 00:39:25 | 52.42228 | 11.16014 | 49° | 29km/h | 33214m | 5.1m/s | -37.8°C | 0.1% | 7.59hPa | 2.5V | 00:00:00 | 00:00:00 | 00:00:00 | |
| DL1XH-west | 2026-09-03 00:39:24 | 52.42222 | 11.16006 | 32° | 35km/h | 33209m | 4.9m/s | -37.8°C | 0% | 7.6hPa | 2.5V | 03:08:13 | 02:41:43 | 00:00:00 | |
| DO2SHX-10 | 2026-09-03 00:39:24 | 52.42221 | 11.16006 | 32° | 33km/h | 33210m | 4.9m/s | -37.8°C | 1.6% | 7.6hPa | 2.5V | 00:00:00 | 02:41:43 | 00:00:00 | |
| DL1XH-15 | 2026-09-03 00:39:23 | 52.42195 | 11.16015 | 244° | 11km/h | 33176m | 4.5m/s | -37.9°C | 1.5% | 7.6hPa | 2.5V | 03:08:06 | 02:41:37 | 00:00:00 | |
| HSKMA3-T | 2026-09-03 00:39:23 | 52.42200 | 11.16000 | 337° | 22km/h | 33193m | 6.3m/s | -37.9°C | 0% | 7.7hPa | 2.6V | 03:08:13 | 02:41:40 | 00:00:00 | |
| DL1XH-west | 2026-09-03 00:39:14 | 52.42200 | 11.15998 | 89° | 33km/h | 33152m | 6.6m/s | -38.1°C | 0% | 7.6hPa | 2.5V | 03:08:13 | 02:41:33 | 00:00:00 | |
| DO3MHA-11 | 2026-09-03 00:39:13 | 52.42199 | 11.15983 | 83° | 22km/h | 33147m | 5.5m/s | -38.1°C | 1.5% | 7.6hPa | 2.5V | 03:08:00 | 02:41:32 | 00:00:00 | |
| DO2SHX-10 | 2026-09-03 00:39:12 | 52.42198 | 11.15967 | 79° | 35km/h | 33141m | 4.4m/s | -38.1°C | 1.6% | 7.6hPa | 2.5V | 00:00:00 | 02:41:31 | 00:00:00 | |
| DL1XH1-15 | 2026-09-03 00:39:11 | 52.42193 | 11.15939 | 68° | 27km/h | 33131m | 5.3m/s | -38.2°C | 1.6% | 7.7hPa | 2.6V | 03:08:14 | 02:41:29 | 00:00:00 | |
| HSKMA3-T | 2026-09-03 00:39:11 | 52.42193 | 11.15939 | 69° | 27km/h | 33131m | 5.3m/s | -38.2°C | 0% | 7.7hPa | 2.6V | 03:09:04 | 02:41:29 | 00:00:00 | |
| DB0DAN | 2026-09-03 00:39:10 | 52.42193 | 11.15939 | 69° | 26km/h | 33131m | 5.3m/s | -38.2°C | 0.1% | 7.67hPa | 2.6V | 00:00:00 | 00:00:00 | 00:00:00 | |
| DM0DOS-11 | 2026-09-03 00:39:10 | 52.42184 | 11.15931 | 340° | 7km/h | 33097m | 5.7m/s | -38.4°C | 1.6% | 7.7hPa | 2.6V | 03:08:20 | 02:41:23 | 00:00:00 | |
| DO2SHX-10 | 2026-09-03 00:39:09 | 52.42190 | 11.15930 | 64° | 11km/h | 33126m | 6.1m/s | -38.2°C | 1.6% | 7.6hPa | 2.5V | 00:00:00 | 02:41:28 | 00:00:00 | |
| DF8AY-15 | 2026-09-03 00:39:08 | 52.42189 | 11.15926 | 44° | 20km/h | 33120m | 6.1m/s | -38.2°C | 1.6% | 7.6hPa | 2.5V | 03:08:00 | 02:41:27 | 00:00:00 | |
| SONDE2-11 | 2026-09-03 00:39:06 | 52.42185 | 11.15929 | 307° | 7km/h | 33102m | 5.5m/s | -38.4°C | 0.1% | 7.7hPa | 2.5V | 00:00:00 | 00:00:00 | 00:00:00 | |
| DL1NUX | 2026-09-03 00:39:05 | 52.42172 | 11.15911 | 62° | 29km/h | 33074m | 5.8m/s | -38.6°C | 1.6% | 7.8hPa | 2.5V | 03:08:24 | 02:41:19 | 00:00:00 | |
| DL1XH-west | 2026-09-03 00:39:04 | 52.42181 | 11.15931 | 21° | 11km/h | 33091m | 6m/s | -38.4°C | 0% | 7.7hPa | 2.6V | 03:09:04 | 02:41:22 | 00:00:00 | |
| HSKMA3-T | 2026-09-03 00:38:59 | 52.42167 | 11.15888 | 75° | 29km/h | 33062m | 6.1m/s | -38.8°C | 0% | 7.8hPa | 2.6V | 03:09:04 | 02:41:17 | 00:00:00 | |
| DM0DOS-11 | 2026-09-03 00:38:58 | 52.42165 | 11.15849 | 94° | 20km/h | 33040m | 5.4m/s | -38.8°C | 1.7% | 7.8hPa | 2.5V | 03:08:30 | 02:41:13 | 00:00:00 | |
| DL4BBY-15 | 2026-09-03 00:38:57 | 52.42165 | 11.15877 | 81° | 27km/h | 33056m | 5.8m/s | -38.6°C | 0% | 0hPa | 2.5V | 00:00:00 | 00:00:00 | 00:00:00 | |
| DB0DAN | 2026-09-03 00:38:55 | 52.42164 | 11.15858 | 92° | 20km/h | 33045m | 5.4m/s | -38.8°C | 0.1% | 7.76hPa | 2.5V | 00:00:00 | 00:00:00 | 00:00:00 | |
| DL1XH-west | 2026-09-03 00:38:52 | 52.42166 | 11.15831 | 95° | 24km/h | 33028m | 6.8m/s | -38.8°C | 0% | 7.8hPa | 2.6V | 03:09:04 | 02:41:11 | 00:00:00 | |
| DL4XJ-10 | 2026-09-03 00:38:52 | 52.42166 | 11.15831 | 95° | 27km/h | 33028m | 6.7m/s | -38.5°C | 0% | 0hPa | 2.5V | 00:00:00 | 00:00:00 | 00:00:00 | |
| DL1XH1-15 | 2026-09-03 00:38:51 | 52.42167 | 11.15811 | 94° | 26km/h | 33015m | 5.4m/s | -38.8°C | 1.6% | 7.8hPa | 2.5V | 03:08:34 | 02:41:09 | 00:00:00 | |
| HSKMA3-T | 2026-09-03 00:38:47 | 52.42169 | 11.15781 | 102° | 22km/h | 32997m | 6.7m/s | -38.9°C | 0% | 7.8hPa | 2.6V | 03:09:04 | 02:41:06 | 00:00:00 | |
| DF7PN | 2026-09-03 00:38:46 | 52.42171 | 11.15772 | 107° | 24km/h | 32991m | 5.5m/s | -38.9°C | 0.1% | 7.8hPa | 2.5V | 00:00:00 | 00:00:00 | 00:00:00 | |
| DM0DOS-11 | 2026-09-03 00:38:45 | 52.42175 | 11.15749 | 102° | 33km/h | 32981m | 4.4m/s | -39°C | 1.7% | 7.8hPa | 2.5V | 03:08:40 | 02:41:03 | 00:00:00 | |
| DL1XH1-15 | 2026-09-03 00:38:45 | 52.42179 | 11.15661 | 86° | 38km/h | 32954m | 3.5m/s | -39°C | 1.7% | 7.9hPa | 2.6V | 03:08:45 | 02:40:58 | 00:00:00 | |
| AA1-15 | 2026-09-03 00:38:43 | 52.42176 | 11.15735 | 100° | 38km/h | 32976m | 5.8m/s | -39°C | 0% | 7.9hPa | 2.5V | 03:09:04 | 02:41:02 | 00:00:00 | |
| DL1XH-west | 2026-09-03 00:38:42 | 52.42178 | 11.15717 | 96° | 46km/h | 32970m | 7.1m/s | -39°C | 0% | 7.9hPa | 2.5V | 03:09:04 | 02:41:01 | 00:00:00 | |
| DO2SHX-10 | 2026-09-03 00:38:42 | 52.42178 | 11.15717 | 96° | 47km/h | 32970m | 7.0m/s | -39.0°C | 1.6% | 7.8hPa | 2.6V | 00:00:00 | 02:41:01 | 00:00:00 | |
| DB0DAN | 2026-09-03 00:38:40 | 52.42179 | 11.15679 | 91° | 44km/h | 32958m | 4m/s | -39°C | 0.1% | 7.86hPa | 2.6V | 00:00:00 | 00:00:00 | 00:00:00 | |
| DL1XH-15 | 2026-09-03 00:38:40 | 52.42178 | 11.15648 | 83° | 29km/h | 32950m | 4.5m/s | -39.1°C | 1.7% | 7.9hPa | 2.5V | 03:08:46 | 02:40:57 | 00:00:00 | |
| HSKMA3-T | 2026-09-03 00:38:37 | 52.42177 | 11.15633 | 67° | 5km/h | 32937m | 7.7m/s | -39.2°C | 0% | 7.9hPa | 2.5V | 03:09:04 | 02:40:55 | 00:00:00 | |
| DO2SHX-10 | 2026-09-03 00:38:36 | 52.42177 | 11.15633 | 67° | 5km/h | 32937m | 7.6m/s | -39.1°C | 1.7% | 7.9hPa | 2.5V | 00:00:00 | 02:40:55 | 00:00:00 | |
| DL1NUX | 2026-09-03 00:38:35 | 52.42173 | 11.15620 | 78° | 33km/h | 32904m | 7m/s | -39.2°C | 1.7% | 8hPa | 2.5V | 03:08:54 | 02:40:49 | 00:00:00 | |
| SONDE2-11 | 2026-09-03 00:38:35 | 52.42176 | 11.15635 | 275° | 5km/h | 32924m | 4.7m/s | -39.2°C | 0.1% | 7.9hPa | 2.6V | 00:00:00 | 00:00:00 | 00:00:00 | |
| DL1XH1-15 | 2026-09-03 00:38:34 | 52.42171 | 11.15605 | 80° | 44km/h | 32897m | 7.2m/s | -39.2°C | 1.7% | 8hPa | 2.6V | 03:08:55 | 02:40:48 | 00:00:00 | |
| DL1XH-15 | 2026-09-03 00:38:33 | 52.42167 | 11.15565 | 79° | 51km/h | 32887m | 3.5m/s | -39.2°C | 1.7% | 8hPa | 2.6V | 03:08:57 | 02:40:46 | 00:00:00 | |
| DL1XH-west | 2026-09-03 00:38:32 | 52.42175 | 11.15635 | 61° | 7km/h | 32917m | 4.5m/s | -39.2°C | 0% | 8hPa | 2.5V | 03:09:04 | 02:40:51 | 00:00:00 | |
| DF8AY | 2026-09-03 00:38:31 | 52.42174 | 11.15631 | 73° | 18km/h | 32911m | 6.3m/s | -39.2°C | 0% | 7.9hPa | 2.5V | 03:09:04 | 02:40:50 | 00:00:00 | |
| DD8BA-10 | 2026-09-03 00:38:30 | 52.42173 | 11.15620 | 79° | 31km/h | 32905m | 7.0m/s | -39.2°C | 1.7% | 7.9hPa | 2.5V | 00:00:00 | 00:00:00 | 00:00:00 | |
| DM0DOS-11 | 2026-09-03 00:38:28 | 52.42160 | 11.15521 | 63° | 18km/h | 32872m | 6.6m/s | -39.2°C | 1.7% | 8hPa | 2.5V | 03:09:00 | 02:40:43 | 00:00:00 | |
| HSKMA3-T | 2026-09-03 00:38:26 | 52.42162 | 11.15530 | 73° | 33km/h | 32878m | 5.6m/s | -39.2°C | 0% | 8hPa | 2.5V | 03:09:04 | 02:40:44 | 00:00:00 | |
| DL1NUX | 2026-09-03 00:38:25 | 52.42150 | 11.15524 | 322° | 11km/h | 32849m | 4m/s | -39.1°C | 1.7% | 8hPa | 2.5V | 03:09:04 | 02:40:39 | 00:00:00 | |
| DB0DAN | 2026-09-03 00:38:25 | 52.42162 | 11.15530 | 73° | 31km/h | 32878m | 5.6m/s | -39.2°C | 0.1% | 7.95hPa | 2.5V | 00:00:00 | 00:00:00 | 00:00:00 | |
| GOEST3-10 | 2026-09-03 00:38:25 | 52.42162 | 11.15530 | 73° | 18km/h | 32879m | 5.5m/s | -39.1°C | 1.7% | 7.9hPa | 2.5V | 00:00:00 | 00:00:00 | 00:00:00 | |
| DL1XH1-15 | 2026-09-03 00:38:24 | 52.42146 | 11.15522 | 60° | 16km/h | 32839m | 5.4m/s | -39.2°C | 1.6% | 8.1hPa | 2.5V | 03:09:06 | 02:40:37 | 00:00:00 | |
| DO3MHA-11 | 2026-09-03 00:38:23 | 52.42158 | 11.15516 | 21° | 26km/h | 32865m | 7.0m/s | -39.1°C | 1.7% | 7.9hPa | 2.5V | 00:00:00 | 02:40:42 | 00:00:00 | |
| DL1XH-15 | 2026-09-03 00:38:22 | 52.42146 | 11.15522 | 60° | 16km/h | 32839m | 5.4m/s | -39.2°C | 1.6% | 8.1hPa | 2.5V | 03:09:06 | 02:40:37 | 00:00:00 | |
| AA1-15 | 2026-09-03 00:38:22 | 52.42148 | 11.15525 | 11° | 9km/h | 32845m | 4.5m/s | -39.2°C | 0% | 8hPa | 2.5V | 03:09:55 | 02:40:38 | 00:00:00 | |
| DL1XH-west | 2026-09-03 00:38:21 | 52.42150 | 11.15524 | 323° | 11km/h | 32849m | 4m/s | -39.1°C | 0% | 8hPa | 2.5V | 03:09:04 | 02:40:39 | 00:00:00 | |
| DF8AY | 2026-09-03 00:38:20 | 52.42146 | 11.15522 | 61° | 16km/h | 32839m | 5.4m/s | -39.2°C | 0% | 8.1hPa | 2.5V | 03:09:55 | 02:40:37 | 00:00:00 | |
| HSKMA3-T | 2026-09-03 00:38:16 | 52.42142 | 11.15480 | 89° | 51km/h | 32820m | 6.1m/s | -39.2°C | 0% | 8.1hPa | 2.6V | 03:09:55 | 02:40:34 | 00:00:00 | |
| DM0DOS-11 | 2026-09-03 00:38:15 | 52.42142 | 11.15458 | 90° | 53km/h | 32814m | 4.5m/s | -39.2°C | 1.7% | 8hPa | 2.5V | 03:09:10 | 02:40:33 | 00:00:00 | |
| AA1-15 | 2026-09-03 00:38:11 | 52.42142 | 11.15397 | 78° | 15km/h | 32794m | 6.1m/s | -39.3°C | 0% | 8.1hPa | 2.6V | 03:09:55 | 02:40:29 | 00:00:00 | |
| DB0DAN | 2026-09-03 00:38:10 | 52.42142 | 11.15397 | 78° | 15km/h | 32794m | 6.1m/s | -39.3°C | 0.1% | 8.09hPa | 2.6V | 00:00:00 | 00:00:00 | 00:00:00 | |
| DF8AY | 2026-09-03 00:38:09 | 52.42141 | 11.15393 | 35° | 9km/h | 32788m | 6m/s | -39.3°C | 0% | 8.1hPa | 2.6V | 03:09:55 | 02:40:28 | 00:00:00 | |
| HSKMA3-T | 2026-09-03 00:38:05 | 52.42127 | 11.15387 | 38° | 24km/h | 32765m | 5.7m/s | -39.4°C | 0% | 8.1hPa | 2.6V | 03:09:55 | 02:40:24 | 00:00:00 | |
| DL1XH-west | 2026-09-03 00:38:00 | 52.42103 | 11.15308 | 76° | 35km/h | 32731m | 5.8m/s | -39.5°C | 0% | 8.2hPa | 2.5V | 03:09:55 | 02:40:18 | 00:00:00 | |
| DF8AY | 2026-09-03 00:37:59 | 52.42098 | 11.15226 | 81° | 29km/h | 32692m | 4.7m/s | -39.5°C | 0% | 8.2hPa | 2.6V | 03:09:55 | 02:40:11 | 00:00:00 | |
| DL1XH1-15 | 2026-09-03 00:37:59 | 52.42101 | 11.15295 | 79° | 31km/h | 32725m | 6m/s | -39.5°C | 1.7% | 8.2hPa | 2.5V | 03:09:26 | 02:40:17 | 00:00:00 | |
| DM0DOS-11 | 2026-09-03 00:37:58 | 52.42099 | 11.15250 | 87° | 27km/h | 32703m | 6.1m/s | -39.5°C | 1.7% | 8.2hPa | 2.5V | 03:09:30 | 02:40:13 | 00:00:00 | |
| HSKMA3-T | 2026-09-03 00:37:55 | 52.42099 | 11.15250 | 87° | 27km/h | 32703m | 6.1m/s | -39.5°C | 0% | 8.2hPa | 2.5V | 03:09:55 | 02:40:13 | 00:00:00 | |
| DB0DAN | 2026-09-03 00:37:55 | 52.42100 | 11.15261 | 88° | 26km/h | 32709m | 6.1m/s | -39.5°C | 0.1% | 8.2hPa | 2.5V | 00:00:00 | 00:00:00 | 00:00:00 | |
| S3001 | 2026-09-03 00:37:52 | 52.42096 | 11.15216 | 76° | 26km/h | 32687m | 5.1m/s | -39.5°C | 0.1% | 8.2hPa | 2.6V | 00:00:00 | 00:00:00 | 00:00:00 | |
| SONCRA | 2026-09-03 00:37:50 | 52.42093 | 11.15198 | 69° | 18km/h | 32675m | 7.3m/s | -39.6°C | 0.1% | 8.2hPa | 2.6V | 00:00:00 | 00:00:00 | 00:00:00 | |
| DL1XH1-15 | 2026-09-03 00:37:49 | 52.42091 | 11.15191 | 68° | 18km/h | 32668m | 6.2m/s | -39.6°C | 1.7% | 8.3hPa | 2.6V | 03:09:36 | 02:40:07 | 00:00:00 | |
| DL1XH-west | 2026-09-03 00:37:49 | 52.42091 | 11.15191 | 69° | 18km/h | 32668m | 6.2m/s | -39.6°C | 0% | 8.3hPa | 2.6V | 03:09:55 | 02:40:07 | 00:00:00 | |
| DL2RXE-15 | 2026-09-03 00:37:49 | 52.42093 | 11.15198 | 70° | 20km/h | 32675m | 7.3m/s | -39.6°C | 0.1% | 8.2hPa | 2.5V | 00:00:00 | 00:00:00 | 00:00:00 | |
| DO2SHX-10 | 2026-09-03 00:37:48 | 52.42091 | 11.15191 | 69° | 20km/h | 32669m | 6.2m/s | -39.6°C | 1.7% | 8.2hPa | 2.5V | 00:00:00 | 02:40:07 | 00:00:00 | |
| DB0NH | 2026-09-03 00:37:47 | 52.42090 | 11.15183 | 76° | 20km/h | 32663m | 5.2m/s | -39.6°C | 1.7% | 8.2hPa | 2.5V | 03:09:00 | 02:40:06 | 00:00:00 | |
| DM0DOS-11 | 2026-09-03 00:37:45 | 52.42088 | 11.15151 | 90° | 35km/h | 32644m | 6.5m/s | -39.7°C | 1.8% | 8.2hPa | 2.6V | 03:09:40 | 02:40:03 | 00:00:00 | |
| DF8AY | 2026-09-03 00:37:44 | 52.42088 | 11.15151 | 90° | 35km/h | 32644m | 6.5m/s | -39.7°C | 0% | 8.3hPa | 2.6V | 03:09:55 | 02:40:03 | 00:00:00 | |
| HSKMA3-T | 2026-09-03 00:37:44 | 52.42088 | 11.15137 | 93° | 37km/h | 32638m | 5.3m/s | -39.7°C | 0% | 8.3hPa | 2.6V | 03:09:55 | 02:40:02 | 00:00:00 | |
| OE5DRO-10 | 2026-09-03 00:37:44 | 52.42088 | 11.15151 | 91° | 24km/h | 32645m | 6.4m/s | -39.6°C | 1.8% | 8.2hPa | 2.6V | 00:00:00 | 00:00:00 | 00:00:00 | |
| DL1NUX | 2026-09-03 00:37:43 | 52.42091 | 11.15098 | 102° | 24km/h | 32623m | 6m/s | -39.7°C | 1.7% | 8.3hPa | 2.5V | 03:09:44 | 02:39:59 | 00:00:00 | |
| AM1SDL-15 | 2026-09-03 00:37:43 | 52.42088 | 11.15122 | 97° | 18km/h | 32634m | 4.6m/s | -39.7°C | 1.7% | 8.3hPa | 2.5V | 00:00:00 | 02:40:01 | 00:00:00 | |
| DO2SHX-10 | 2026-09-03 00:37:42 | 52.42088 | 11.15122 | 97° | 29km/h | 32634m | 4.6m/s | -39.7°C | 1.7% | 8.3hPa | 2.5V | 00:00:00 | 02:40:01 | 00:00:00 | |
| DB0DAN | 2026-09-03 00:37:40 | 52.42091 | 11.15097 | 102° | 22km/h | 32623m | 6m/s | -39.7°C | 0.1% | 8.28hPa | 2.5V | 00:00:00 | 00:00:00 | 00:00:00 | |
| GOEST3-10 | 2026-09-03 00:37:40 | 52.42091 | 11.15097 | 103° | 13km/h | 32623m | 6.0m/s | -39.6°C | 1.7% | 8.2hPa | 2.5V | 00:00:00 | 02:39:59 | 00:00:00 | |
| DM0DOS-11 | 2026-09-03 00:37:40 | 52.42090 | 11.15069 | 74° | 20km/h | 32590m | 5.8m/s | -39.7°C | 1.7% | 8.4hPa | 2.5V | 03:09:50 | 02:39:53 | 00:00:00 | |
| DL1XH-15 | 2026-09-03 00:37:39 | 52.42093 | 11.15085 | 100° | 7km/h | 32611m | 5.4m/s | -39.7°C | 1.8% | 8.3hPa | 2.6V | 03:09:46 | 02:39:57 | 00:00:00 | |
| DL1XH-west | 2026-09-03 00:37:38 | 52.42092 | 11.15082 | 82° | 5km/h | 32606m | 4.7m/s | -39.7°C | 0% | 8.3hPa | 2.6V | 03:09:55 | 02:39:56 | 00:00:00 | |
| DF8AY | 2026-09-03 00:37:34 | 52.42090 | 11.15069 | 75° | 20km/h | 32590m | 5.9m/s | -39.7°C | 0% | 8.4hPa | 2.5V | 03:09:55 | 02:39:53 | 00:00:00 | |
| HSKMA3-T | 2026-09-03 00:37:34 | 52.42089 | 11.15060 | 78° | 24km/h | 32584m | 5.7m/s | -39.7°C | 0% | 8.4hPa | 2.5V | 03:09:55 | 02:39:52 | 00:00:00 | |
| DO2SHX-10 | 2026-09-03 00:37:33 | 52.42088 | 11.15060 | 78° | 26km/h | 32584m | 5.7m/s | -39.7°C | 1.7% | 8.3hPa | 2.6V | 03:09:00 | 02:39:52 | 00:00:00 | |
| DL1NUX | 2026-09-03 00:37:32 | 52.42085 | 11.15029 | 76° | 24km/h | 32566m | 6.5m/s | -39.8°C | 1.7% | 8.4hPa | 2.6V | 03:09:54 | 02:39:49 | 00:00:00 | |
| DL4XJ-10 | 2026-09-03 00:37:32 | 52.42087 | 11.15050 | 79° | 20km/h | 32579m | 5.2m/s | -39.5°C | 0% | 0hPa | 2.5V | 00:00:00 | 00:00:00 | 00:00:00 | |
| BUE01 | 2026-09-03 00:37:31 | 52.42085 | 11.15029 | 76° | 24km/h | 32566m | 6.5m/s | -39.8°C | 0.1% | 8.4hPa | 2.5V | 00:00:00 | 00:00:00 | 00:00:00 | |
| DO2SHX-10 | 2026-09-03 00:37:30 | 52.42084 | 11.15029 | 77° | 22km/h | 32567m | 6.4m/s | -39.7°C | 1.7% | 8.3hPa | 2.5V | 00:00:00 | 02:39:49 | 00:00:00 | |
| DL1XH1-15 | 2026-09-03 00:37:29 | 52.42083 | 11.15012 | 82° | 20km/h | 32555m | 4.5m/s | -39.8°C | 1.7% | 8.4hPa | 2.5V | 03:09:56 | 02:39:47 | 00:00:00 | |
| DF8AY-15 | 2026-09-03 00:37:28 | 52.42082 | 11.15012 | 83° | 20km/h | 32556m | 4.5m/s | -39.7°C | 1.7% | 8.3hPa | 2.5V | 00:00:00 | 02:39:47 | 00:00:00 | |
| DM0DOS-11 | 2026-09-03 00:37:27 | 52.42083 | 11.14979 | 96° | 22km/h | 32533m | 5.6m/s | -39.8°C | 1.8% | 8.4hPa | 2.6V | 03:10:00 | 02:39:43 | 00:00:00 | |
| DL1XH-west | 2026-09-03 00:37:27 | 52.42082 | 11.15004 | 86° | 20km/h | 32551m | 5.3m/s | -39.8°C | 0% | 8.4hPa | 2.5V | 03:10:46 | 02:39:46 | 00:00:00 | |
| AA1-15 | 2026-09-03 00:37:27 | 52.42082 | 11.14997 | 92° | 20km/h | 32545m | 6m/s | -39.8°C | 0% | 8.4hPa | 2.6V | 03:10:46 | 02:39:45 | 00:00:00 | |
| DB0DAN | 2026-09-03 00:37:25 | 52.42083 | 11.14988 | 96° | 22km/h | 32539m | 6.4m/s | -39.8°C | 0.1% | 8.39hPa | 2.6V | 00:00:00 | 00:00:00 | 00:00:00 | |
| HSKMA3-T | 2026-09-03 00:37:23 | 52.42084 | 11.14970 | 93° | 20km/h | 32528m | 5m/s | -39.8°C | 0% | 8.4hPa | 2.5V | 03:10:46 | 02:39:42 | 00:00:00 | |
| DL1XH-west | 2026-09-03 00:37:17 | 52.42074 | 11.14959 | 339° | 9km/h | 32494m | 4.2m/s | -39.8°C | 0% | 8.5hPa | 2.5V | 03:10:46 | 02:39:36 | 00:00:00 | |
| AA1-15 | 2026-09-03 00:37:16 | 52.42071 | 11.14957 | 90° | 13km/h | 32484m | 6.8m/s | -39.8°C | 0% | 8.5hPa | 2.5V | 03:10:46 | 02:39:34 | 00:00:00 | |
| DM0DOS-11 | 2026-09-03 00:37:16 | 52.42072 | 11.14950 | 99° | 22km/h | 32477m | 6.9m/s | -39.8°C | 1.8% | 8.5hPa | 2.6V | 03:10:10 | 02:39:33 | 00:00:00 | |
| TFSTFS | 2026-09-03 00:37:16 | 52.42072 | 11.14960 | 29° | 5km/h | 32490m | 4.3m/s | -39.8°C | 0.1% | 8.5hPa | 2.5V | 03:10:00 | 00:00:00 | 00:00:00 | |
| DL1NUX | 2026-09-03 00:37:15 | 52.42076 | 11.14900 | 88° | 27km/h | 32457m | 5m/s | -39.8°C | 1.7% | 8.5hPa | 2.5V | 03:10:14 | 02:39:29 | 00:00:00 | |
| HSKMA3-T | 2026-09-03 00:37:13 | 52.42073 | 11.14940 | 101° | 31km/h | 32471m | 5.7m/s | -39.8°C | 0% | 8.5hPa | 2.6V | 03:10:46 | 02:39:32 | 00:00:00 | |
| DL4XJ-10 | 2026-09-03 00:37:12 | 52.42075 | 11.14926 | 101° | 20km/h | 32466m | 4.2m/s | -39.5°C | 0% | 0hPa | 2.5V | 00:00:00 | 00:00:00 | 00:00:00 | |
| DB0DAN | 2026-09-03 00:37:10 | 52.42076 | 11.14900 | 88° | 26km/h | 32457m | 5.1m/s | -39.8°C | 0.1% | 8.5hPa | 2.5V | 00:00:00 | 00:00:00 | 00:00:00 | |
| DL1XH-west | 2026-09-03 00:37:06 | 52.42064 | 11.14881 | 356° | 20km/h | 32434m | 5.6m/s | -39.7°C | 0% | 8.6hPa | 2.6V | 03:10:46 | 02:39:25 | 00:00:00 | |
| DM0DOS-11 | 2026-09-03 00:37:05 | 52.42054 | 11.14883 | 5° | 16km/h | 32423m | 5.5m/s | -39.7°C | 1.7% | 8.5hPa | 2.5V | 03:10:20 | 02:39:23 | 00:00:00 | |
| AA1-15 | 2026-09-03 00:37:05 | 52.42054 | 11.14883 | 6° | 16km/h | 32423m | 5.6m/s | -39.8°C | 0% | 8.6hPa | 2.5V | 03:10:46 | 02:39:23 | 00:00:00 | |
| EDDB2-12 | 2026-09-03 00:37:05 | 52.42054 | 11.14883 | 5° | 15km/h | 32423m | 5.6m/s | -39.8°C | 0.1% | 8.6hPa | 2.5V | 00:00:00 | 00:00:00 | 00:00:00 | |
| AM1SDL-15 | 2026-09-03 00:37:04 | 52.42054 | 11.14882 | 6° | 15km/h | 32424m | 5.5m/s | -39.7°C | 1.7% | 8.5hPa | 2.5V | 03:10:00 | 02:39:23 | 00:00:00 | |
| DL1XH1-15 | 2026-09-03 00:37:03 | 52.42051 | 11.14847 | 94° | 16km/h | 32391m | 5.4m/s | -39.8°C | 1.8% | 8.6hPa | 2.5V | 03:10:26 | 02:39:17 | 00:00:00 | |
| HSKMA3-T | 2026-09-03 00:37:03 | 52.42050 | 11.14877 | 72° | 13km/h | 32412m | 5.8m/s | -39.8°C | 0% | 8.6hPa | 2.6V | 03:10:46 | 02:39:21 | 00:00:00 | |
| DF8AY | 2026-09-03 00:37:01 | 52.42049 | 11.14871 | 92° | 18km/h | 32406m | 5.5m/s | -39.8°C | 0% | 8.6hPa | 2.6V | 03:10:46 | 02:39:20 | 00:00:00 | |
| DM0DOS-11 | 2026-09-03 00:37:00 | 52.42043 | 11.14832 | 23° | 13km/h | 32364m | 4.6m/s | -39.8°C | 1.8% | 8.6hPa | 2.5V | 03:10:31 | 02:39:12 | 00:00:00 | |
| DL2RXE-15 | 2026-09-03 00:36:58 | 52.42051 | 11.14847 | 95° | 16km/h | 32391m | 5.4m/s | -39.8°C | 0.1% | 8.6hPa | 2.6V | 00:00:00 | 00:00:00 | 00:00:00 | |
| DO2SHX-10 | 2026-09-03 00:36:56 | 52.42050 | 11.14837 | 52° | 9km/h | 32380m | 5.7m/s | -39.7°C | 1.8% | 8.6hPa | 2.6V | 00:00:00 | 02:39:15 | 00:00:00 | |
| DL1NUX | 2026-09-03 00:36:55 | 52.42034 | 11.14814 | 69° | 27km/h | 32347m | 6m/s | -39.9°C | 1.8% | 8.7hPa | 2.6V | 03:10:34 | 02:39:09 | 00:00:00 | |
| DB0DAN | 2026-09-03 00:36:55 | 52.42048 | 11.14835 | 20° | 9km/h | 32374m | 5.4m/s | -39.8°C | 0.1% | 8.62hPa | 2.6V | 00:00:00 | 00:00:00 | 00:00:00 | |
| DL1XH-west | 2026-09-03 00:36:55 | 52.42048 | 11.14835 | 20° | 9km/h | 32374m | 5.4m/s | -39.8°C | 0% | 8.6hPa | 2.6V | 03:10:46 | 02:39:14 | 00:00:00 | |
| AA1-15 | 2026-09-03 00:36:53 | 52.42043 | 11.14832 | 24° | 13km/h | 32364m | 4.6m/s | -39.8°C | 0% | 8.6hPa | 2.5V | 03:10:46 | 02:39:12 | 00:00:00 | |
| HSKMA3-T | 2026-09-03 00:36:53 | 52.42039 | 11.14829 | 42° | 16km/h | 32359m | 5.6m/s | -39.8°C | 0% | 8.7hPa | 2.5V | 03:10:46 | 02:39:11 | 00:00:00 | |
| DF8AY | 2026-09-03 00:36:49 | 52.42031 | 11.14802 | 72° | 33km/h | 32341m | 5.7m/s | -39.9°C | 0% | 8.6hPa | 2.6V | 03:10:46 | 02:39:08 | 00:00:00 | |
| SONCRA | 2026-09-03 00:36:48 | 52.42026 | 11.14775 | 70° | 33km/h | 32331m | 5.1m/s | -39.9°C | 0.1% | 8.7hPa | 2.5V | 00:00:00 | 00:00:00 | 00:00:00 | |
| DM0DOS-11 | 2026-09-03 00:36:47 | 52.42014 | 11.14741 | 44° | 11km/h | 32308m | 4.6m/s | -39.8°C | 1.7% | 8.7hPa | 2.5V | 03:10:41 | 02:39:02 | 00:00:00 | |
| DL1XH-west | 2026-09-03 00:36:44 | 52.42016 | 11.14745 | 47° | 18km/h | 32313m | 5.3m/s | -39.8°C | 0% | 8.7hPa | 2.5V | 03:10:46 | 02:39:03 | 00:00:00 | |
| AA1-15 | 2026-09-03 00:36:43 | 52.42014 | 11.14741 | 45° | 11km/h | 32308m | 4.6m/s | -39.8°C | 0% | 8.7hPa | 2.5V | 03:10:46 | 02:39:02 | 00:00:00 | |
| HSKMA3-T | 2026-09-03 00:36:42 | 52.42012 | 11.14736 | 124° | 7km/h | 32298m | 6.4m/s | -39.7°C | 0% | 8.7hPa | 2.6V | 03:10:46 | 02:39:00 | 00:00:00 | |
| DB0DAN | 2026-09-03 00:36:40 | 52.42014 | 11.14732 | 141° | 13km/h | 32291m | 6.7m/s | -39.7°C | 0.1% | 8.75hPa | 2.5V | 00:00:00 | 00:00:00 | 00:00:00 | |
| DF8AY | 2026-09-03 00:36:40 | 52.42018 | 11.14728 | 140° | 20km/h | 32285m | 5.8m/s | -39.7°C | 0% | 8.7hPa | 2.5V | 03:10:46 | 02:38:58 | 00:00:00 | |
| DL1XH-15 | 2026-09-03 00:36:40 | 52.42021 | 11.14722 | 133° | 22km/h | 32280m | 4.9m/s | -39.8°C | 1.8% | 8.7hPa | 2.6V | 03:10:46 | 02:38:57 | 00:00:00 | |
| DO2SHX-10 | 2026-09-03 00:36:39 | 52.42018 | 11.14728 | 141° | 20km/h | 32285m | 5.7m/s | -39.7°C | 1.7% | 8.7hPa | 2.5V | 00:00:00 | 02:38:58 | 00:00:00 | |
| HTAHTA | 2026-09-03 00:36:38 | 52.42026 | 11.14708 | 98° | 20km/h | 32270m | 5.7m/s | -39.8°C | 0.1% | 8.8hPa | 2.6V | 00:00:00 | 00:00:00 | 00:00:00 | |
| DM0DOS-11 | 2026-09-03 00:36:37 | 52.42020 | 11.14681 | 57° | 29km/h | 32251m | 5.5m/s | -39.9°C | 1.8% | 8.8hPa | 2.6V | 03:10:51 | 02:38:52 | 00:00:00 | |
| AA1-15 | 2026-09-03 00:36:34 | 52.42016 | 11.14671 | 60° | 29km/h | 32246m | 5.9m/s | -39.9°C | 0% | 8.8hPa | 2.6V | 03:11:37 | 02:38:51 | 00:00:00 | |
| HSKMA3-T | 2026-09-03 00:36:31 | 52.42011 | 11.14648 | 76° | 27km/h | 32234m | 5.2m/s | -39.8°C | 0% | 8.8hPa | 2.5V | 03:11:37 | 02:38:49 | 00:00:00 | |
| DO3MHA-11 | 2026-09-03 00:36:31 | 52.42013 | 11.14660 | 67° | 20km/h | 32240m | 6.0m/s | -39.8°C | 1.7% | 8.8hPa | 2.5V | 03:10:00 | 02:38:50 | 00:00:00 | |
| DL1NUX | 2026-09-03 00:36:30 | 52.42010 | 11.14638 | 89° | 22km/h | 32229m | 4.8m/s | -39.8°C | 1.8% | 8.8hPa | 2.5V | 03:10:55 | 02:38:48 | 00:00:00 | |
| DL1XH1-15 | 2026-09-03 00:36:29 | 52.42010 | 11.14630 | 104° | 18km/h | 32223m | 5.5m/s | -39.8°C | 1.7% | 8.8hPa | 2.5V | 03:10:56 | 02:38:47 | 00:00:00 | |
| DF8AY | 2026-09-03 00:36:29 | 52.42020 | 11.14615 | 149° | 16km/h | 32201m | 4.1m/s | -39.9°C | 0% | 8.8hPa | 2.5V | 03:11:37 | 02:38:43 | 00:00:00 | |
| BUE01 | 2026-09-03 00:36:29 | 52.42011 | 11.14630 | 104° | 18km/h | 32224m | 5.5m/s | -39.9°C | 0.1% | 8.8hPa | 2.5V | 00:00:00 | 00:00:00 | 00:00:00 | |
| SO1NDE-10 | 2026-09-03 00:36:28 | 52.42010 | 11.14630 | 105° | 24km/h | 32224m | 5.5m/s | -39.8°C | 1.7% | 8.8hPa | 2.5V | 00:00:00 | 02:38:47 | 00:00:00 | |
| 13BRC | 2026-09-03 00:36:27 | 52.42010 | 11.14630 | 106° | 18km/h | 32224m | 5.5m/s | -39.8°C | 0.1% | 8.8hPa | 2.5V | 03:11:00 | 00:00:00 | 00:00:00 | |
| DM0DOS-11 | 2026-09-03 00:36:26 | 52.42024 | 11.14610 | 139° | 20km/h | 32196m | 5m/s | -39.9°C | 1.7% | 8.9hPa | 2.5V | 03:11:01 | 02:38:42 | 00:00:00 | |
| DB0DAN | 2026-09-03 00:36:25 | 52.42017 | 11.14618 | 158° | 13km/h | 32205m | 4.8m/s | -39.9°C | 0.1% | 8.88hPa | 2.6V | 00:00:00 | 00:00:00 | 00:00:00 | |
| GOEST3-10 | 2026-09-03 00:36:25 | 52.42017 | 11.14618 | 159° | 22km/h | 32206m | 4.8m/s | -39.8°C | 1.7% | 8.8hPa | 2.6V | 00:00:00 | 00:00:00 | 00:00:00 | |
| DL1NUX | 2026-09-03 00:36:24 | 52.42035 | 11.14565 | 94° | 37km/h | 32174m | 5.2m/s | -40.1°C | 1.8% | 8.9hPa | 2.6V | 03:11:05 | 02:38:38 | 00:00:00 | |
| DL1XH-west | 2026-09-03 00:36:23 | 52.42024 | 11.14610 | 139° | 20km/h | 32196m | 5m/s | -39.9°C | 0% | 8.9hPa | 2.5V | 03:11:37 | 02:38:42 | 00:00:00 | |
| DO2SHX-10 | 2026-09-03 00:36:23 | 52.42024 | 11.14610 | 140° | 26km/h | 32197m | 4.9m/s | -39.9°C | 1.7% | 8.8hPa | 2.5V | 00:00:00 | 02:38:42 | 00:00:00 | |
| DL1XH-15 | 2026-09-03 00:36:21 | 52.42035 | 11.14551 | 86° | 35km/h | 32168m | 6.4m/s | -40.1°C | 1.8% | 8.9hPa | 2.5V | 03:11:06 | 02:38:37 | 00:00:00 | |
| HSKMA3-T | 2026-09-03 00:36:21 | 52.42031 | 11.14593 | 113° | 31km/h | 32185m | 6.1m/s | -40°C | 0% | 8.9hPa | 2.6V | 03:11:37 | 02:38:40 | 00:00:00 | |
| DF8AY | 2026-09-03 00:36:18 | 52.42035 | 11.14551 | 87° | 35km/h | 32168m | 6.4m/s | -40.1°C | 0% | 8.9hPa | 2.5V | 03:11:37 | 02:38:37 | 00:00:00 | |
| DJ8HS-15 | 2026-09-03 00:36:16 | 52.42033 | 11.14526 | 76° | 24km/h | 32157m | 5.1m/s | -40.1°C | 1.8% | 8.9hPa | 2.6V | 03:11:00 | 02:38:35 | 00:00:00 | |
| GOEST3-10 | 2026-09-03 00:36:15 | 52.42032 | 11.14517 | 77° | 26km/h | 32152m | 4.7m/s | -40.1°C | 1.8% | 8.9hPa | 2.6V | 03:11:00 | 00:00:00 | 00:00:00 | |
| DM0DOS-11 | 2026-09-03 00:36:14 | 52.42031 | 11.14500 | 98° | 22km/h | 32141m | 5.5m/s | -40.1°C | 1.8% | 8.9hPa | 2.6V | 03:11:11 | 02:38:32 | 00:00:00 | |
| AA1-15 | 2026-09-03 00:36:11 | 52.42037 | 11.14470 | 115° | 29km/h | 32124m | 4.8m/s | -40.1°C | 0% | 9hPa | 2.5V | 03:11:37 | 02:38:29 | 00:00:00 | |
| HSKMA3-T | 2026-09-03 00:36:11 | 52.42041 | 11.14458 | 115° | 29km/h | 32119m | 5.1m/s | -40.2°C | 0% | 9hPa | 2.6V | 03:11:37 | 02:38:28 | 00:00:00 | |
| DO2SHX-10 | 2026-09-03 00:36:11 | 52.42034 | 11.14480 | 114° | 29km/h | 32130m | 5.2m/s | -40.1°C | 1.8% | 8.9hPa | 2.5V | 00:00:00 | 02:38:30 | 00:00:00 | |
| DL1NUX | 2026-09-03 00:36:10 | 52.42041 | 11.14458 | 114° | 29km/h | 32119m | 5.1m/s | -40.1°C | 1.8% | 9hPa | 2.6V | 03:11:15 | 02:38:28 | 00:00:00 | |
| DB0DAN | 2026-09-03 00:36:10 | 52.42037 | 11.14470 | 115° | 29km/h | 32124m | 4.8m/s | -40.1°C | 0.1% | 8.97hPa | 2.5V | 00:00:00 | 00:00:00 | 00:00:00 | |
| DL1XH-15 | 2026-09-03 00:36:10 | 52.42043 | 11.14448 | 114° | 27km/h | 32114m | 5.7m/s | -40.2°C | 1.8% | 9hPa | 2.6V | 03:11:16 | 02:38:27 | 00:00:00 | |
| DO3MHA-11 | 2026-09-03 00:36:10 | 52.42040 | 11.14458 | 115° | 29km/h | 32120m | 5.1m/s | -40.1°C | 1.8% | 8.9hPa | 2.6V | 00:00:00 | 02:38:28 | 00:00:00 | |
| DM0DOS-11 | 2026-09-03 00:36:09 | 52.42051 | 11.14409 | 102° | 20km/h | 32085m | 6.3m/s | -40.4°C | 1.8% | 9hPa | 2.6V | 03:11:21 | 02:38:22 | 00:00:00 | |
| DF8AY | 2026-09-03 00:36:06 | 52.42048 | 11.14431 | 108° | 18km/h | 32102m | 6.1m/s | -40.3°C | 0% | 9hPa | 2.5V | 03:11:37 | 02:38:25 | 00:00:00 | |
| DL4BBY-15 | 2026-09-03 00:36:06 | 52.42048 | 11.14430 | 109° | 22km/h | 32103m | 6.1m/s | -40.0°C | 0% | 0hPa | 2.6V | 00:00:00 | 00:00:00 | 00:00:00 | |
| DO2SHX-10 | 2026-09-03 00:36:05 | 52.42049 | 11.14423 | 102° | 18km/h | 32097m | 5.3m/s | -40.3°C | 1.8% | 8.9hPa | 2.6V | 00:00:00 | 02:38:24 | 00:00:00 | |
| DL1NUX | 2026-09-03 00:36:04 | 52.42054 | 11.14368 | 82° | 26km/h | 32064m | 5.2m/s | -40.5°C | 1.8% | 9hPa | 2.6V | 03:11:25 | 02:38:18 | 00:00:00 | |
| DL4XJ-10 | 2026-09-03 00:36:04 | 52.42050 | 11.14416 | 104° | 20km/h | 32091m | 5.0m/s | -40.1°C | 0% | 0hPa | 2.6V | 00:00:00 | 00:00:00 | 00:00:00 | |
| DO2SHX-10 | 2026-09-03 00:36:02 | 52.42052 | 11.14399 | 104° | 26km/h | 32080m | 6.4m/s | -40.3°C | 1.8% | 9.0hPa | 2.6V | 00:00:00 | 02:38:21 | 00:00:00 | |
| DL1XH1-15 | 2026-09-03 00:36:01 | 52.42053 | 11.14358 | 72° | 24km/h | 32058m | 7m/s | -40.5°C | 1.8% | 9.1hPa | 2.6V | 03:11:26 | 02:38:17 | 00:00:00 | |
| HSKMA3-T | 2026-09-03 00:36:00 | 52.42054 | 11.14378 | 93° | 26km/h | 32069m | 4.5m/s | -40.5°C | 0% | 9hPa | 2.5V | 03:11:37 | 02:38:19 | 00:00:00 | |
| DL1XH-west | 2026-09-03 00:35:59 | 52.42053 | 11.14358 | 72° | 24km/h | 32058m | 7m/s | -40.5°C | 0% | 9.1hPa | 2.6V | 03:11:37 | 02:38:17 | 00:00:00 | |
| DM0DOS-11 | 2026-09-03 00:35:58 | 52.42038 | 11.14319 | 74° | 22km/h | 32027m | 6m/s | -40.7°C | 1.8% | 9.1hPa | 2.5V | 03:11:31 | 02:38:12 | 00:00:00 | |
| DF8AY | 2026-09-03 00:35:56 | 52.42044 | 11.14335 | 53° | 22km/h | 32039m | 5.2m/s | -40.7°C | 0% | 9.1hPa | 2.6V | 03:11:37 | 02:38:14 | 00:00:00 | |
| DB0DAN | 2026-09-03 00:35:55 | 52.42044 | 11.14335 | 53° | 20km/h | 32038m | 5.2m/s | -40.7°C | 0.1% | 9.07hPa | 2.6V | 00:00:00 | 00:00:00 | 00:00:00 | |
| OE5DRO-10 | 2026-09-03 00:35:55 | 52.42043 | 11.14335 | 53° | 18km/h | 32039m | 5.1m/s | -40.6°C | 1.8% | 9.0hPa | 2.6V | 00:00:00 | 00:00:00 | 00:00:00 | |
| GOEST3-10 | 2026-09-03 00:35:54 | 52.42040 | 11.14327 | 62° | 22km/h | 32033m | 6.3m/s | -40.6°C | 1.8% | 9.0hPa | 2.6V | 03:11:00 | 00:00:00 | 00:00:00 | |
| DO2SHX-10 | 2026-09-03 00:35:53 | 52.42038 | 11.14319 | 75° | 22km/h | 32027m | 6.0m/s | -40.6°C | 1.8% | 9.0hPa | 2.5V | 00:00:00 | 02:38:12 | 00:00:00 | |
| DF7ER-10 | 2026-09-03 00:35:52 | 52.42038 | 11.14319 | 75° | 22km/h | 32027m | 6.0m/s | -40.7°C | 0.2% | 9.1hPa | 2.5V | 03:11:00 | 00:00:00 | 00:00:00 | |
| DL1XH1-15 | 2026-09-03 00:35:51 | 52.42035 | 11.14279 | 61° | 15km/h | 31999m | 6.3m/s | -40.6°C | 1.8% | 9.1hPa | 2.5V | 03:11:36 | 02:38:07 | 00:00:00 | |
| AA1-15 | 2026-09-03 00:35:50 | 52.42037 | 11.14293 | 85° | 20km/h | 32011m | 5.9m/s | -40.7°C | 0% | 9.1hPa | 2.6V | 03:11:37 | 02:38:09 | 00:00:00 | |
| HSKMA3-T | 2026-09-03 00:35:49 | 52.42036 | 11.14285 | 77° | 16km/h | 32005m | 6.5m/s | -40.6°C | 0% | 9.1hPa | 2.5V | 03:11:37 | 02:38:08 | 00:00:00 | |
| DL1XH-west | 2026-09-03 00:35:49 | 52.42031 | 11.14270 | 54° | 15km/h | 31987m | 5.7m/s | -40.6°C | 0% | 9.1hPa | 2.6V | 03:12:28 | 02:38:05 | 00:00:00 | |
| DM0DOS-11 | 2026-09-03 00:35:48 | 52.42026 | 11.14253 | 66° | 18km/h | 31969m | 5.2m/s | -40.6°C | 1.8% | 9.2hPa | 2.5V | 03:11:41 | 02:38:02 | 00:00:00 | |
| DF8AY | 2026-09-03 00:35:44 | 52.42027 | 11.14259 | 70° | 16km/h | 31974m | 6m/s | -40.6°C | 0% | 9.2hPa | 2.6V | 03:12:28 | 02:38:03 | 00:00:00 | |
| DL1NUX | 2026-09-03 00:35:44 | 52.42011 | 11.14225 | 35° | 27km/h | 31945m | 6.2m/s | -40.6°C | 1.8% | 9.2hPa | 2.6V | 03:11:45 | 02:37:58 | 00:00:00 | |
| DO2SHX-10 | 2026-09-03 00:35:44 | 52.42027 | 11.14259 | 70° | 18km/h | 31974m | 5.9m/s | -40.6°C | 1.8% | 9.1hPa | 2.6V | 03:11:00 | 02:38:03 | 00:00:00 | |
| DO3MHA-11 | 2026-09-03 00:35:43 | 52.42026 | 11.14253 | 67° | 20km/h | 31969m | 5.1m/s | -40.6°C | 1.8% | 9.1hPa | 2.6V | 03:11:00 | 02:38:02 | 00:00:00 | |
| DF7ER-10 | 2026-09-03 00:35:42 | 52.42023 | 11.14246 | 60° | 20km/h | 31964m | 4.9m/s | -40.6°C | 0.2% | 9.2hPa | 2.6V | 03:12:00 | 00:00:00 | 00:00:00 | |
| DB0DAN | 2026-09-03 00:35:40 | 52.42016 | 11.14232 | 40° | 24km/h | 31952m | 6.7m/s | -40.6°C | 0.2% | 9.18hPa | 2.6V | 00:00:00 | 00:00:00 | 00:00:00 | |
| HSKMA3-T | 2026-09-03 00:35:39 | 52.42011 | 11.14225 | 35° | 27km/h | 31945m | 6.3m/s | -40.6°C | 0% | 9.2hPa | 2.6V | 03:12:28 | 02:37:58 | 00:00:00 | |
| GOEST3-10 | 2026-09-03 00:35:39 | 52.42011 | 11.14225 | 36° | 24km/h | 31946m | 6.2m/s | -40.6°C | 1.8% | 9.1hPa | 2.6V | 00:00:00 | 02:37:58 | 00:00:00 | |
| DM0DOS-11 | 2026-09-03 00:35:38 | 52.41991 | 11.14183 | 79° | 15km/h | 31910m | 5.2m/s | -40.7°C | 1.9% | 9.2hPa | 2.6V | 03:11:51 | 02:37:52 | 00:00:00 | |
| DL1XH-west | 2026-09-03 00:35:37 | 52.41993 | 11.14197 | 65° | 20km/h | 31922m | 6.2m/s | -40.7°C | 0% | 9.2hPa | 2.5V | 03:12:28 | 02:37:54 | 00:00:00 | |
| DF8AY | 2026-09-03 00:35:33 | 52.41990 | 11.14183 | 80° | 15km/h | 31910m | 5.2m/s | -40.7°C | 0% | 9.2hPa | 2.6V | 03:12:28 | 02:37:52 | 00:00:00 | |
| AA1-15 | 2026-09-03 00:35:30 | 52.41982 | 11.14170 | 15° | 16km/h | 31887m | 4.9m/s | -40.7°C | 0% | 9.2hPa | 2.5V | 03:12:28 | 02:37:48 | 00:00:00 | |
| DL1XH1-15 | 2026-09-03 00:35:29 | 52.41978 | 11.14167 | 20° | 18km/h | 31881m | 5m/s | -40.7°C | 1.9% | 9.3hPa | 2.6V | 03:11:56 | 02:37:47 | 00:00:00 | |
| HSKMA3-T | 2026-09-03 00:35:28 | 52.41978 | 11.14167 | 20° | 18km/h | 31881m | 5m/s | -40.7°C | 0% | 9.3hPa | 2.6V | 03:12:28 | 02:37:47 | 00:00:00 | |
| DL1XH-west | 2026-09-03 00:35:25 | 52.41967 | 11.14152 | 61° | 22km/h | 31864m | 5.9m/s | -40.7°C | 0% | 9.3hPa | 2.5V | 03:12:28 | 02:37:44 | 00:00:00 | |
| DB0DAN | 2026-09-03 00:35:25 | 52.41967 | 11.14152 | 61° | 20km/h | 31864m | 5.9m/s | -40.7°C | 0.1% | 9.34hPa | 2.5V | 00:00:00 | 00:00:00 | 00:00:00 | |
| DF8AY | 2026-09-03 00:35:22 | 52.41960 | 11.14130 | 53° | 18km/h | 31846m | 6.5m/s | -40.7°C | 0% | 9.3hPa | 2.6V | 03:12:28 | 02:37:41 | 00:00:00 | |
| DL4XJ-10 | 2026-09-03 00:35:22 | 52.41960 | 11.14130 | 53° | 13km/h | 31846m | 6.5m/s | -40.5°C | 0% | 0hPa | 2.5V | 00:00:00 | 00:00:00 | 00:00:00 | |
| DF7ER-10 | 2026-09-03 00:35:21 | 52.41957 | 11.14125 | 43° | 15km/h | 31841m | 6.0m/s | -40.7°C | 0.1% | 9.4hPa | 2.5V | 03:12:00 | 00:00:00 | 00:00:00 | |
| DL1NUX | 2026-09-03 00:35:20 | 52.41953 | 11.14120 | 37° | 7km/h | 31830m | 4.8m/s | -40.7°C | 1.8% | 9.3hPa | 2.5V | 03:12:05 | 02:37:38 | 00:00:00 | |
| HSKMA3-T | 2026-09-03 00:35:18 | 52.41951 | 11.14118 | 43° | 7km/h | 31824m | 6.3m/s | -40.7°C | 0% | 9.4hPa | 2.6V | 03:12:28 | 02:37:37 | 00:00:00 | |
| DL1XH-west | 2026-09-03 00:35:14 | 52.41949 | 11.14099 | 50° | 13km/h | 31794m | 6.9m/s | -40.7°C | 0% | 9.4hPa | 2.6V | 03:12:28 | 02:37:32 | 00:00:00 | |
| DO2SHX-10 | 2026-09-03 00:35:14 | 52.41950 | 11.14103 | 71° | 15km/h | 31800m | 5.3m/s | -40.7°C | 1.9% | 9.3hPa | 2.6V | 00:00:00 | 02:37:33 | 00:00:00 | |
| OE5DRO-10 | 2026-09-03 00:35:13 | 52.41949 | 11.14099 | 51° | 18km/h | 31794m | 6.8m/s | 0°C | 0% | 0hPa | 2.6V | 03:12:00 | 00:00:00 | 00:00:00 | |
| SP3BTT-10 | 2026-09-03 00:35:12 | 52.41946 | 11.14095 | 33° | 16km/h | 31787m | 6.9m/s | -40.6°C | 1.8% | 9.4hPa | 2.6V | 00:00:00 | 00:00:00 | 00:00:00 | |
| DO2SHX-10 | 2026-09-03 00:35:11 | 52.41942 | 11.14092 | 26° | 20km/h | 31781m | 5.5m/s | -40.6°C | 1.9% | 9.4hPa | 2.6V | 00:00:00 | 02:37:30 | 00:00:00 | |
| DL1NUX | 2026-09-03 00:35:10 | 52.41933 | 11.14083 | 41° | 18km/h | 31770m | 5.6m/s | -40.7°C | 1.9% | 9.5hPa | 2.6V | 03:12:15 | 02:37:28 | 00:00:00 | |
| DB0DAN | 2026-09-03 00:35:10 | 52.41937 | 11.14087 | 30° | 20km/h | 31775m | 5m/s | -40.7°C | 0.1% | 9.44hPa | 2.5V | 00:00:00 | 00:00:00 | 00:00:00 | |
| HSKMA3-T | 2026-09-03 00:35:08 | 52.41930 | 11.14077 | 56° | 18km/h | 31764m | 6.8m/s | -40.7°C | 0% | 9.5hPa | 2.6V | 03:12:28 | 02:37:27 | 00:00:00 | |
| AA1-15 | 2026-09-03 00:35:08 | 52.41928 | 11.14070 | 78° | 16km/h | 31757m | 6.3m/s | -40.7°C | 0% | 9.4hPa | 2.6V | 03:12:28 | 02:37:26 | 00:00:00 | |
| DL1XH-west | 2026-09-03 00:35:04 | 52.41930 | 11.14048 | 62° | 4km/h | 31727m | 6.3m/s | -40.7°C | 0% | 9.5hPa | 2.6V | 03:12:28 | 02:37:21 | 00:00:00 | |
| DL1XH1-15 | 2026-09-03 00:35:04 | 52.41924 | 11.14036 | 64° | 15km/h | 31702m | 6.3m/s | -40.8°C | 1.9% | 9.6hPa | 2.5V | 03:12:26 | 02:37:17 | 00:00:00 | |
| DO2SHX-10 | 2026-09-03 00:35:02 | 52.41930 | 11.14048 | 63° | 5km/h | 31727m | 6.3m/s | -40.6°C | 1.9% | 9.4hPa | 2.5V | 00:00:00 | 02:37:21 | 00:00:00 | |
| DL1NUX | 2026-09-03 00:35:00 | 52.41926 | 11.14041 | 56° | 11km/h | 31709m | 6.6m/s | -40.7°C | 1.8% | 9.5hPa | 2.5V | 03:12:25 | 02:37:18 | 00:00:00 | |
| HSKMA3-T | 2026-09-03 00:34:57 | 52.41923 | 11.14029 | 68° | 18km/h | 31696m | 5.8m/s | -40.8°C | 0% | 9.5hPa | 2.6V | 03:12:28 | 02:37:16 | 00:00:00 | |
| DF8AY | 2026-09-03 00:34:57 | 52.41916 | 11.13989 | 130° | 18km/h | 31648m | 7.1m/s | -40.7°C | 0% | 9.6hPa | 2.6V | 03:13:19 | 02:37:08 | 00:00:00 | |
| AA1-15 | 2026-09-03 00:34:57 | 52.41921 | 11.14022 | 67° | 18km/h | 31691m | 5.5m/s | -40.8°C | 0% | 9.6hPa | 2.6V | 03:12:28 | 02:37:15 | 00:00:00 | |
| HARRO8 | 2026-09-03 00:34:56 | 52.41921 | 11.14022 | 66° | 18km/h | 31691m | 5.5m/s | -40.8°C | 0.1% | 9.6hPa | 2.6V | 00:00:00 | 00:00:00 | 00:00:00 | |
| DB0DAN | 2026-09-03 00:34:55 | 52.41919 | 11.14016 | 62° | 16km/h | 31685m | 6.2m/s | -40.8°C | 0.1% | 9.59hPa | 2.6V | 00:00:00 | 00:00:00 | 00:00:00 | |
| DM0DOS-11 | 2026-09-03 00:34:55 | 52.41915 | 11.14006 | 50° | 11km/h | 31673m | 5.7m/s | -40.8°C | 1.8% | 9.6hPa | 2.5V | 03:12:31 | 02:37:12 | 00:00:00 | |
| DL1XH-west | 2026-09-03 00:34:52 | 52.41913 | 11.14002 | 65° | 9km/h | 31668m | 5m/s | -40.8°C | 0% | 9.6hPa | 2.5V | 03:13:19 | 02:37:11 | 00:00:00 | |
| DL1XH-15 | 2026-09-03 00:34:52 | 52.41923 | 11.13977 | 141° | 20km/h | 31636m | 5m/s | -40.7°C | 1.8% | 9.6hPa | 2.5V | 03:12:37 | 02:37:06 | 00:00:00 | |
| DL1NUX | 2026-09-03 00:34:50 | 52.41916 | 11.13989 | 129° | 18km/h | 31648m | 7.1m/s | -40.7°C | 1.8% | 9.6hPa | 2.6V | 03:12:35 | 02:37:08 | 00:00:00 | |
| HSKMA3-T | 2026-09-03 00:34:47 | 52.41923 | 11.13977 | 141° | 20km/h | 31637m | 5m/s | -40.7°C | 0% | 9.6hPa | 2.5V | 03:13:19 | 02:37:06 | 00:00:00 | |
| AA1-15 | 2026-09-03 00:34:46 | 52.41930 | 11.13969 | 144° | 13km/h | 31624m | 7.1m/s | -40.7°C | 0% | 9.7hPa | 2.6V | 03:13:19 | 02:37:04 | 00:00:00 | |
| 13BRC | 2026-09-03 00:34:46 | 52.41927 | 11.13973 | 146° | 16km/h | 31631m | 6.6m/s | -40.7°C | 0.1% | 9.6hPa | 2.5V | 03:13:00 | 00:00:00 | 00:00:00 | |
| AM1SDL-15 | 2026-09-03 00:34:45 | 52.41930 | 11.13969 | 145° | 13km/h | 31624m | 7.0m/s | -40.6°C | 1.9% | 9.6hPa | 2.5V | 00:00:00 | 02:37:04 | 00:00:00 | |
| DM0DOS-11 | 2026-09-03 00:34:44 | 52.41933 | 11.13964 | 98° | 7km/h | 31611m | 5.9m/s | -40.7°C | 1.8% | 9.6hPa | 2.5V | 03:12:41 | 02:37:02 | 00:00:00 | |
| DL1XH-west | 2026-09-03 00:34:41 | 52.41933 | 11.13948 | 90° | 20km/h | 31592m | 6.7m/s | -40.7°C | 0% | 9.7hPa | 2.6V | 03:13:19 | 02:36:59 | 00:00:00 | |
| DO2SHX-10 | 2026-09-03 00:34:41 | 52.41933 | 11.13955 | 90° | 18km/h | 31599m | 7.1m/s | -40.7°C | 1.9% | 9.7hPa | 2.6V | 00:00:00 | 02:37:00 | 00:00:00 | |
| DD8BA-10 | 2026-09-03 00:34:40 | 52.41933 | 11.13948 | 90° | 15km/h | 31592m | 6.7m/s | -40.6°C | 1.9% | 9.6hPa | 2.6V | 03:12:00 | 00:00:00 | 00:00:00 | |
| DL1XH1-15 | 2026-09-03 00:34:39 | 52.41933 | 11.13930 | 93° | 22km/h | 31580m | 5.2m/s | -40.6°C | 1.8% | 9.7hPa | 2.5V | 03:12:46 | 02:36:57 | 00:00:00 | |
| HSKMA3-T | 2026-09-03 00:34:36 | 52.41934 | 11.13916 | 100° | 13km/h | 31567m | 6.8m/s | -40.6°C | 0% | 9.8hPa | 2.6V | 03:13:19 | 02:36:55 | 00:00:00 | |
| DJ8HS-15 | 2026-09-03 00:34:36 | 52.41934 | 11.13916 | 101° | 15km/h | 31568m | 6.7m/s | -40.6°C | 1.8% | 9.7hPa | 2.5V | 00:00:00 | 02:36:55 | 00:00:00 | |
| DO2SHX-10 | 2026-09-03 00:34:35 | 52.41935 | 11.13912 | 121° | 7km/h | 31561m | 6.5m/s | -40.6°C | 1.8% | 9.7hPa | 2.5V | 00:00:00 | 02:36:54 | 00:00:00 | |
| DL1NUX | 2026-09-03 00:34:34 | 52.41955 | 11.13906 | 153° | 16km/h | 31524m | 5.5m/s | -40.7°C | 1.8% | 9.8hPa | 2.5V | 03:12:55 | 02:36:48 | 00:00:00 | |
| AA1-15 | 2026-09-03 00:34:34 | 52.41936 | 11.13910 | 175° | 5km/h | 31555m | 5.6m/s | -40.7°C | 0% | 9.8hPa | 2.5V | 03:13:19 | 02:36:53 | 00:00:00 | |
| DM0DOS-11 | 2026-09-03 00:34:34 | 52.41938 | 11.13911 | 186° | 11km/h | 31549m | 5.4m/s | -40.7°C | 1.8% | 9.8hPa | 2.5V | 03:12:51 | 02:36:52 | 00:00:00 | |
| DF8AY | 2026-09-03 00:34:32 | 52.41942 | 11.13911 | 183° | 16km/h | 31543m | 6.6m/s | -40.7°C | 0% | 9.8hPa | 2.6V | 03:13:19 | 02:36:51 | 00:00:00 | |
| DL1XH-15 | 2026-09-03 00:34:32 | 52.41960 | 11.13899 | 118° | 9km/h | 31511m | 7.1m/s | -40.7°C | 1.9% | 9.8hPa | 2.5V | 03:12:57 | 02:36:46 | 00:00:00 | |
| DL1XH-west | 2026-09-03 00:34:30 | 52.41955 | 11.13906 | 153° | 16km/h | 31524m | 5.5m/s | -40.7°C | 0% | 9.8hPa | 2.5V | 03:13:19 | 02:36:48 | 00:00:00 | |
| DD8BA-10 | 2026-09-03 00:34:30 | 52.41951 | 11.13908 | 162° | 16km/h | 31530m | 6.1m/s | -40.7°C | 1.9% | 9.8hPa | 2.5V | 00:00:00 | 00:00:00 | 00:00:00 | |
| DO2SHX-10 | 2026-09-03 00:34:29 | 52.41955 | 11.13906 | 154° | 13km/h | 31524m | 5.4m/s | -40.7°C | 1.8% | 9.8hPa | 2.5V | 00:00:00 | 02:36:48 | 00:00:00 | |
| DM0DOS-11 | 2026-09-03 00:34:28 | 52.41956 | 11.13878 | 73° | 22km/h | 31486m | 7.2m/s | -40.7°C | 1.8% | 9.9hPa | 2.5V | 03:13:01 | 02:36:42 | 00:00:00 | |
| HSKMA3-T | 2026-09-03 00:34:26 | 52.41960 | 11.13896 | 76° | 9km/h | 31505m | 6.3m/s | -40.7°C | 0% | 9.8hPa | 2.6V | 03:13:19 | 02:36:45 | 00:00:00 | |
| DB0DAN | 2026-09-03 00:34:25 | 52.41959 | 11.13891 | 64° | 13km/h | 31498m | 5.9m/s | -40.7°C | 0.1% | 9.88hPa | 2.6V | 00:00:00 | 00:00:00 | 00:00:00 | |
| AA1-15 | 2026-09-03 00:34:23 | 52.41955 | 11.13878 | 74° | 22km/h | 31486m | 7.2m/s | -40.7°C | 0% | 9.9hPa | 2.5V | 03:13:19 | 02:36:42 | 00:00:00 | |
| DF8AY | 2026-09-03 00:34:22 | 52.41954 | 11.13859 | 90° | 24km/h | 31472m | 5.4m/s | -40.7°C | 0% | 9.9hPa | 2.5V | 03:13:19 | 02:36:40 | 00:00:00 | |
| DL1XH-15 | 2026-09-03 00:34:21 | 52.41960 | 11.13839 | 189° | 9km/h | 31447m | 6.8m/s | -40.7°C | 1.8% | 9.9hPa | 2.5V | 03:13:07 | 02:36:36 | 00:00:00 | |
| DL4XJ-10 | 2026-09-03 00:34:21 | 52.41954 | 11.13859 | 91° | 18km/h | 31473m | 5.3m/s | -40.4°C | 0% | 0hPa | 2.6V | 00:00:00 | 00:00:00 | 00:00:00 | |
| DL1NUX | 2026-09-03 00:34:20 | 52.41956 | 11.13844 | 119° | 15km/h | 31461m | 6.4m/s | -40.7°C | 1.9% | 9.9hPa | 2.6V | 03:13:05 | 02:36:38 | 00:00:00 | |
| DL1XH-west | 2026-09-03 00:34:20 | 52.41955 | 11.13850 | 103° | 20km/h | 31467m | 5.5m/s | -40.7°C | 0% | 9.9hPa | 2.6V | 03:13:19 | 02:36:39 | 00:00:00 | |
| HSKMA3-T | 2026-09-03 00:34:16 | 52.41965 | 11.13843 | 206° | 11km/h | 31436m | 4.9m/s | -40.8°C | 0% | 9.9hPa | 2.5V | 03:13:19 | 02:36:34 | 00:00:00 | |
| DM0DOS-11 | 2026-09-03 00:34:15 | 52.41971 | 11.13842 | 142° | 13km/h | 31425m | 6.7m/s | -40.9°C | 1.9% | 9.9hPa | 2.6V | 03:13:11 | 02:36:32 | 00:00:00 | |
| AA1-15 | 2026-09-03 00:34:12 | 52.41973 | 11.13836 | 120° | 20km/h | 31418m | 6.9m/s | -40.8°C | 0% | 10hPa | 2.5V | 03:13:19 | 02:36:31 | 00:00:00 | |
| DL1XH-15 | 2026-09-03 00:34:12 | 52.41976 | 11.13780 | 74° | 24km/h | 31385m | 6.8m/s | -40.7°C | 1.9% | 10hPa | 2.5V | 03:13:17 | 02:36:26 | 00:00:00 | |
| DF8AY | 2026-09-03 00:34:10 | 52.41977 | 11.13803 | 90° | 31km/h | 31398m | 5.8m/s | -40.8°C | 0% | 10hPa | 2.6V | 03:13:19 | 02:36:28 | 00:00:00 | |
| DL1NUX | 2026-09-03 00:34:10 | 52.41977 | 11.13803 | 89° | 31km/h | 31398m | 5.8m/s | -40.8°C | 1.9% | 10hPa | 2.6V | 03:13:15 | 02:36:28 | 00:00:00 | |
| DL1XH-west | 2026-09-03 00:34:10 | 52.41977 | 11.13816 | 96° | 31km/h | 31404m | 6.4m/s | -40.8°C | 0% | 10hPa | 2.6V | 03:13:19 | 02:36:29 | 00:00:00 | |
| DB0DAN | 2026-09-03 00:34:10 | 52.41977 | 11.13816 | 96° | 29km/h | 31404m | 6.4m/s | -40.8°C | 0.1% | 9.99hPa | 2.6V | 00:00:00 | 00:00:00 | 00:00:00 | |
| DD8BA-10 | 2026-09-03 00:34:09 | 52.41977 | 11.13790 | 84° | 16km/h | 31392m | 6.5m/s | -40.7°C | 1.8% | 9.9hPa | 2.5V | 00:00:00 | 00:00:00 | 00:00:00 | |
| DF7ER-10 | 2026-09-03 00:34:08 | 52.41977 | 11.13790 | 84° | 29km/h | 31392m | 6.6m/s | -40.7°C | 0.1% | 10.0hPa | 2.5V | 03:13:00 | 00:00:00 | 00:00:00 | |
| DM0DOS-11 | 2026-09-03 00:34:05 | 52.41970 | 11.13754 | 90° | 13km/h | 31360m | 7m/s | -40.7°C | 1.8% | 10hPa | 2.5V | 03:13:21 | 02:36:22 | 00:00:00 | |
| HSKMA3-T | 2026-09-03 00:34:04 | 52.41971 | 11.13760 | 77° | 13km/h | 31367m | 5.8m/s | -40.7°C | 0% | 10hPa | 2.5V | 03:14:10 | 02:36:23 | 00:00:00 | |
| DO9LL-15 | 2026-09-03 00:34:04 | 52.41971 | 11.13760 | 78° | 18km/h | 31367m | 5.8m/s | -40.6°C | 1.9% | 10.0hPa | 2.5V | 03:13:00 | 02:36:23 | 00:00:00 | |
| DL1XH1-15 | 2026-09-03 00:34:03 | 52.41977 | 11.13728 | 105° | 11km/h | 31328m | 6.4m/s | -40.6°C | 1.8% | 10.1hPa | 2.5V | 03:13:26 | 02:36:17 | 00:00:00 | |
| AA1-15 | 2026-09-03 00:34:02 | 52.41971 | 11.13749 | 111° | 15km/h | 31354m | 6.5m/s | -40.7°C | 0% | 10.1hPa | 2.5V | 03:14:10 | 02:36:21 | 00:00:00 | |
| DL1XH-west | 2026-09-03 00:34:00 | 52.41974 | 11.13737 | 119° | 15km/h | 31342m | 5.8m/s | -40.7°C | 0% | 10.1hPa | 2.6V | 03:14:10 | 02:36:19 | 00:00:00 | |
| DF8AY | 2026-09-03 00:33:59 | 52.41977 | 11.13728 | 106° | 11km/h | 31328m | 6.4m/s | -40.6°C | 0% | 10.1hPa | 2.5V | 03:15:01 | 02:36:17 | 00:00:00 | |
| DD8BA-10 | 2026-09-03 00:33:58 | 52.41977 | 11.13728 | 106° | 22km/h | 31329m | 6.3m/s | -40.6°C | 1.8% | 10.1hPa | 2.5V | 03:13:00 | 00:00:00 | 00:00:00 | |
| AM1SDL-15 | 2026-09-03 00:33:57 | 52.41977 | 11.13723 | 88° | 22km/h | 31323m | 5.3m/s | -40.6°C | 1.8% | 10.0hPa | 2.5V | 00:00:00 | 02:36:16 | 00:00:00 | |
| DO2SHX-10 | 2026-09-03 00:33:56 | 52.41977 | 11.13717 | 82° | 22km/h | 31317m | 5.5m/s | -40.6°C | 1.9% | 10.1hPa | 2.5V | 03:13:00 | 02:36:15 | 00:00:00 | |
| DM0DOS-11 | 2026-09-03 00:33:55 | 52.41974 | 11.13687 | 79° | 31km/h | 31297m | 6.2m/s | -40.5°C | 1.9% | 10.2hPa | 2.6V | 03:13:31 | 02:36:12 | 00:00:00 | |
| DB0DAN | 2026-09-03 00:33:55 | 52.41976 | 11.13709 | 81° | 22km/h | 31311m | 6.7m/s | -40.6°C | 0.1% | 10.12hPa | 2.6V | 00:00:00 | 00:00:00 | 00:00:00 | |
| HSKMA3-T | 2026-09-03 00:33:54 | 52.41975 | 11.13699 | 81° | 27km/h | 31303m | 7.4m/s | -40.6°C | 0% | 10.1hPa | 2.6V | 03:14:10 | 02:36:13 | 00:00:00 | |
| AA1-15 | 2026-09-03 00:33:52 | 52.41972 | 11.13674 | 76° | 31km/h | 31291m | 5.1m/s | -40.5°C | 0% | 10.2hPa | 2.5V | 03:14:10 | 02:36:11 | 00:00:00 | |
| DO3MHA-11 | 2026-09-03 00:33:52 | 52.41972 | 11.13673 | 76° | 20km/h | 31291m | 5.0m/s | -40.5°C | 1.8% | 10.1hPa | 2.6V | 03:13:00 | 02:36:11 | 00:00:00 | |
| DL1NUX | 2026-09-03 00:33:50 | 52.41964 | 11.13645 | 45° | 20km/h | 31272m | 7m/s | -40.5°C | 1.8% | 10.2hPa | 2.6V | 03:13:35 | 02:36:08 | 00:00:00 | |
| DL1XH-west | 2026-09-03 00:33:49 | 52.41964 | 11.13645 | 46° | 20km/h | 31272m | 7m/s | -40.5°C | 0% | 10.2hPa | 2.6V | 03:14:10 | 02:36:08 | 00:00:00 | |
| DF8AY | 2026-09-03 00:33:48 | 52.41960 | 11.13640 | 34° | 16km/h | 31266m | 6.3m/s | -40.5°C | 0% | 10.2hPa | 2.6V | 03:15:01 | 02:36:07 | 00:00:00 | |
| DF8AY-15 | 2026-09-03 00:33:48 | 52.41960 | 11.13640 | 34° | 22km/h | 31266m | 6.2m/s | -40.5°C | 1.9% | 10.2hPa | 2.6V | 03:13:00 | 02:36:07 | 00:00:00 | |
| DF7ER-10 | 2026-09-03 00:33:47 | 52.41957 | 11.13637 | 32° | 13km/h | 31261m | 5.3m/s | -40.5°C | 0.2% | 10.2hPa | 2.6V | 03:14:00 | 00:00:00 | 00:00:00 | |
| AM1SDL-15 | 2026-09-03 00:33:45 | 52.41954 | 11.13614 | 96° | 24km/h | 31237m | 5.8m/s | -40.6°C | 1.9% | 10.2hPa | 2.6V | 00:00:00 | 02:36:02 | 00:00:00 | |
| S3001 | 2026-09-03 00:33:44 | 52.41954 | 11.13615 | 95° | 24km/h | 31236m | 5.8m/s | -40.7°C | 0.2% | 10.2hPa | 2.6V | 00:00:00 | 00:00:00 | 00:00:00 | |
| DL1XH1-15 | 2026-09-03 00:33:43 | 52.41948 | 11.13565 | 48° | 22km/h | 31204m | 6.6m/s | -40.6°C | 1.8% | 10.3hPa | 2.6V | 03:13:46 | 02:35:57 | 00:00:00 | |
| HSKMA3-T | 2026-09-03 00:33:43 | 52.41954 | 11.13615 | 95° | 26km/h | 31236m | 5.8m/s | -40.7°C | 0% | 10.2hPa | 2.6V | 03:14:10 | 02:36:02 | 00:00:00 | |
| AA1-15 | 2026-09-03 00:33:41 | 52.41954 | 11.13592 | 88° | 27km/h | 31225m | 5.8m/s | -40.7°C | 0% | 10.3hPa | 2.5V | 03:14:10 | 02:36:00 | 00:00:00 | |
| AP2371 | 2026-09-03 00:33:41 | 52.41954 | 11.13592 | 89° | 27km/h | 31225m | 5.8m/s | -40.7°C | 0.1% | 10.3hPa | 2.6V | 00:00:00 | 00:00:00 | 00:00:00 | |
| DL1NUX | 2026-09-03 00:33:40 | 52.41952 | 11.13572 | 63° | 22km/h | 31211m | 7.3m/s | -40.6°C | 1.9% | 10.3hPa | 2.6V | 03:13:45 | 02:35:58 | 00:00:00 | |
| DB0DAN | 2026-09-03 00:33:40 | 52.41953 | 11.13582 | 78° | 24km/h | 31218m | 6.8m/s | -40.7°C | 0.1% | 10.31hPa | 2.5V | 00:00:00 | 00:00:00 | 00:00:00 | |
| DL1XH-west | 2026-09-03 00:33:38 | 52.41948 | 11.13565 | 49° | 22km/h | 31205m | 6.6m/s | -40.7°C | 0% | 10.3hPa | 2.6V | 03:14:10 | 02:35:57 | 00:00:00 | |
| DF8AY | 2026-09-03 00:33:38 | 52.41940 | 11.13554 | 35° | 22km/h | 31192m | 5.1m/s | -40.6°C | 0% | 10.4hPa | 2.5V | 03:15:01 | 02:35:55 | 00:00:00 | |
| HSKMA3-T | 2026-09-03 00:33:32 | 52.41926 | 11.13522 | 75° | 26km/h | 31167m | 6.3m/s | -40.5°C | 0% | 10.3hPa | 2.6V | 03:14:10 | 02:35:51 | 00:00:00 | |
| AA1-15 | 2026-09-03 00:33:31 | 52.41925 | 11.13512 | 79° | 27km/h | 31162m | 5.5m/s | -40.5°C | 0% | 10.3hPa | 2.5V | 03:14:10 | 02:35:50 | 00:00:00 | |
| DL1NUX | 2026-09-03 00:33:30 | 52.41922 | 11.13494 | 67° | 18km/h | 31151m | 5.8m/s | -40.5°C | 1.8% | 10.4hPa | 2.5V | 03:13:55 | 02:35:48 | 00:00:00 | |
| DL1XH-15 | 2026-09-03 00:33:29 | 52.41916 | 11.13485 | 18° | 15km/h | 31137m | 6.9m/s | -40.6°C | 1.8% | 10.4hPa | 2.6V | 03:13:57 | 02:35:46 | 00:00:00 | |
| DL1XH1-15 | 2026-09-03 00:33:29 | 52.41919 | 11.13488 | 43° | 15km/h | 31144m | 7m/s | -40.6°C | 1.9% | 10.4hPa | 2.6V | 03:13:56 | 02:35:47 | 00:00:00 | |
| DL1XH-west | 2026-09-03 00:33:27 | 52.41916 | 11.13485 | 18° | 15km/h | 31137m | 6.9m/s | -40.6°C | 0% | 10.4hPa | 2.6V | 03:14:10 | 02:35:46 | 00:00:00 | |
| DD8BA-10 | 2026-09-03 00:33:27 | 52.41916 | 11.13485 | 19° | 24km/h | 31137m | 6.8m/s | -40.5°C | 1.8% | 10.4hPa | 2.5V | 00:00:00 | 00:00:00 | 00:00:00 | |
| DB0DAN | 2026-09-03 00:33:25 | 52.41907 | 11.13482 | 11° | 18km/h | 31125m | 5.3m/s | -40.7°C | 0.1% | 10.42hPa | 2.5V | 00:00:00 | 00:00:00 | 00:00:00 | |
| GOEST3-10 | 2026-09-03 00:33:24 | 52.41902 | 11.13480 | 23° | 27km/h | 31119m | 6.4m/s | -40.6°C | 1.8% | 10.4hPa | 2.5V | 00:00:00 | 00:00:00 | 00:00:00 | |
| DL1XH1-15 | 2026-09-03 00:33:23 | 52.41873 | 11.13434 | 39° | 24km/h | 31082m | 6.6m/s | -40.7°C | 1.8% | 10.4hPa | 2.5V | 03:14:06 | 02:35:37 | 00:00:00 | |
| DF8AY | 2026-09-03 00:33:22 | 52.41868 | 11.13428 | 33° | 20km/h | 31075m | 6.1m/s | -40.7°C | 0% | 10.5hPa | 2.5V | 03:15:01 | 02:35:36 | 00:00:00 | |
| DL1XH-15 | 2026-09-03 00:33:22 | 52.41869 | 11.13428 | 33° | 20km/h | 31075m | 6.1m/s | -40.7°C | 1.8% | 10.5hPa | 2.5V | 03:14:07 | 02:35:36 | 00:00:00 | |
| HSKMA3-T | 2026-09-03 00:33:21 | 52.41887 | 11.13459 | 50° | 31km/h | 31101m | 5.5m/s | -40.7°C | 0% | 10.4hPa | 2.6V | 03:14:10 | 02:35:40 | 00:00:00 | |
| AA1-15 | 2026-09-03 00:33:21 | 52.41882 | 11.13449 | 50° | 29km/h | 31095m | 6.2m/s | -40.7°C | 0% | 10.5hPa | 2.6V | 03:14:10 | 02:35:39 | 00:00:00 | |
| DL1NUX | 2026-09-03 00:33:21 | 52.41878 | 11.13441 | 47° | 27km/h | 31089m | 6.9m/s | -40.7°C | 1.8% | 10.5hPa | 2.5V | 03:14:05 | 02:35:38 | 00:00:00 | |
| DL1XH-west | 2026-09-03 00:33:16 | 52.41864 | 11.13424 | 29° | 18km/h | 31069m | 5.6m/s | -40.7°C | 0% | 10.5hPa | 2.6V | 03:14:10 | 02:35:35 | 00:00:00 | |
| DJ8HS-15 | 2026-09-03 00:33:16 | 52.41864 | 11.13424 | 30° | 22km/h | 31070m | 5.6m/s | -40.7°C | 1.8% | 10.4hPa | 2.5V | 00:00:00 | 02:35:35 | 00:00:00 | |
| DF7ER-10 | 2026-09-03 00:33:15 | 52.41864 | 11.13424 | 30° | 18km/h | 31070m | 5.6m/s | -40.7°C | 0.2% | 10.5hPa | 2.5V | 03:14:00 | 00:00:00 | 00:00:00 | |
| DM0DOS-11 | 2026-09-03 00:33:14 | 52.41853 | 11.13412 | 42° | 16km/h | 31051m | 6.7m/s | -40.7°C | 1.8% | 10.5hPa | 2.5V | 03:14:11 | 02:35:32 | 00:00:00 | |
| DO2SHX-10 | 2026-09-03 00:33:14 | 52.41856 | 11.13417 | 33° | 18km/h | 31058m | 6.2m/s | -40.7°C | 1.8% | 10.5hPa | 2.5V | 00:00:00 | 02:35:33 | 00:00:00 | |
| DL1XH1-15 | 2026-09-03 00:33:13 | 52.41836 | 11.13387 | 17° | 18km/h | 31023m | 5.7m/s | -40.9°C | 1.8% | 10.6hPa | 2.5V | 03:14:16 | 02:35:27 | 00:00:00 | |
| EDDB2-11 | 2026-09-03 00:33:12 | 52.41849 | 11.13407 | 49° | 16km/h | 31045m | 6.6m/s | -40.8°C | 0.2% | 10.6hPa | 2.6V | 00:00:00 | 00:00:00 | 00:00:00 | |
| DO2SHX-10 | 2026-09-03 00:33:11 | 52.41847 | 11.13401 | 55° | 18km/h | 31039m | 6.2m/s | -40.7°C | 1.8% | 10.5hPa | 2.6V | 00:00:00 | 02:35:30 | 00:00:00 | |
| DL1NUX | 2026-09-03 00:33:10 | 52.41840 | 11.13390 | 34° | 18km/h | 31028m | 4.7m/s | -40.8°C | 1.8% | 10.6hPa | 2.5V | 03:14:15 | 02:35:28 | 00:00:00 | |
| AA1-15 | 2026-09-03 00:33:10 | 52.41844 | 11.13395 | 49° | 20km/h | 31033m | 5.1m/s | -40.8°C | 0% | 10.6hPa | 2.5V | 03:15:01 | 02:35:29 | 00:00:00 | |
| DB0DAN | 2026-09-03 00:33:10 | 52.41844 | 11.13395 | 49° | 18km/h | 31033m | 5.1m/s | -40.8°C | 0.1% | 10.55hPa | 2.5V | 00:00:00 | 00:00:00 | 00:00:00 | |
| OE5DRO-10 | 2026-09-03 00:33:10 | 52.41843 | 11.13395 | 49° | 20km/h | 31034m | 5.0m/s | 0°C | 0% | 0hPa | 2.6V | 03:14:00 | 00:00:00 | 00:00:00 | |
| DL1XH-15 | 2026-09-03 00:33:09 | 52.41831 | 11.13386 | 356° | 22km/h | 31017m | 7.4m/s | -40.9°C | 1.8% | 10.6hPa | 2.6V | 03:14:17 | 02:35:26 | 00:00:00 | |
| DF8AY | 2026-09-03 00:33:07 | 52.41831 | 11.13386 | 357° | 22km/h | 31017m | 7.4m/s | -40.9°C | 0% | 10.6hPa | 2.6V | 03:15:01 | 02:35:26 | 00:00:00 | |
| DL1XH-west | 2026-09-03 00:33:06 | 52.41825 | 11.13387 | 346° | 26km/h | 31009m | 7m/s | -41°C | 0% | 10.6hPa | 2.6V | 03:15:01 | 02:35:25 | 00:00:00 | |
| DO2SHX-10 | 2026-09-03 00:33:05 | 52.41819 | 11.13390 | 346° | 27km/h | 31004m | 5.4m/s | -41.0°C | 1.9% | 10.6hPa | 2.5V | 00:00:00 | 02:35:24 | 00:00:00 | |
| DM0DOS-11 | 2026-09-03 00:33:04 | 52.41805 | 11.13392 | 3° | 27km/h | 30992m | 6.1m/s | -41.2°C | 1.9% | 10.6hPa | 2.5V | 03:14:21 | 02:35:22 | 00:00:00 | |
| GOEST3-10 | 2026-09-03 00:33:04 | 52.41812 | 11.13392 | 353° | 26km/h | 30998m | 5.0m/s | -41.1°C | 1.9% | 10.6hPa | 2.5V | 00:00:00 | 00:00:00 | 00:00:00 | |
| DL1XH1-15 | 2026-09-03 00:33:03 | 52.41787 | 11.13361 | 75° | 18km/h | 30961m | 6.4m/s | -41.4°C | 1.9% | 10.7hPa | 2.5V | 03:14:26 | 02:35:17 | 00:00:00 | |
| DL1XH-15 | 2026-09-03 00:33:02 | 52.41786 | 11.13354 | 72° | 15km/h | 30955m | 5.9m/s | -41.4°C | 1.9% | 10.7hPa | 2.5V | 03:14:27 | 02:35:16 | 00:00:00 | |
| DO2SHX-10 | 2026-09-03 00:33:02 | 52.41799 | 11.13390 | 25° | 24km/h | 30986m | 6.3m/s | -41.2°C | 1.9% | 10.6hPa | 2.5V | 00:00:00 | 02:35:21 | 00:00:00 | |
| DL4XJ-10 | 2026-09-03 00:33:01 | 52.41794 | 11.13384 | 46° | 18km/h | 30980m | 5.8m/s | -41.0°C | 0% | 0hPa | 2.6V | 00:00:00 | 00:00:00 | 00:00:00 | |
| DL1NUX | 2026-09-03 00:33:00 | 52.41788 | 11.13368 | 73° | 22km/h | 30967m | 6.5m/s | -41.4°C | 1.9% | 10.7hPa | 2.6V | 03:14:25 | 02:35:18 | 00:00:00 | |
| HSKMA3-T | 2026-09-03 00:32:59 | 52.41788 | 11.13368 | 73° | 22km/h | 30967m | 6.5m/s | -41.4°C | 0% | 10.7hPa | 2.6V | 03:15:01 | 02:35:18 | 00:00:00 | |
| DM0DOS-11 | 2026-09-03 00:32:59 | 52.41777 | 11.13337 | 37° | 18km/h | 30932m | 6.2m/s | -41.5°C | 1.9% | 10.7hPa | 2.6V | 03:14:31 | 02:35:12 | 00:00:00 | |
| DF8AY | 2026-09-03 00:32:58 | 52.41785 | 11.13349 | 60° | 13km/h | 30949m | 5.3m/s | -41.4°C | 0% | 10.7hPa | 2.5V | 03:15:01 | 02:35:15 | 00:00:00 | |
| DL1XH-west | 2026-09-03 00:32:56 | 52.41783 | 11.13345 | 44° | 13km/h | 30943m | 5.1m/s | -41.5°C | 0% | 10.7hPa | 2.6V | 03:15:01 | 02:35:14 | 00:00:00 | |
| DB0DAN | 2026-09-03 00:32:55 | 52.41783 | 11.13345 | 44° | 11km/h | 30943m | 5.1m/s | -41.5°C | 0.2% | 10.74hPa | 2.6V | 00:00:00 | 00:00:00 | 00:00:00 | |
| SONDE2-11 | 2026-09-03 00:32:54 | 52.41777 | 11.13337 | 37° | 16km/h | 30933m | 6.2m/s | -41.5°C | 0.1% | 10.7hPa | 2.6V | 00:00:00 | 00:00:00 | 00:00:00 | |
| DL1XH1-15 | 2026-09-03 00:32:53 | 52.41753 | 11.13303 | 31° | 24km/h | 30904m | 5.5m/s | -41.5°C | 1.9% | 10.8hPa | 2.6V | 03:14:36 | 02:35:07 | 00:00:00 | |
| AA1-15 | 2026-09-03 00:32:49 | 52.41759 | 11.13309 | 41° | 27km/h | 30909m | 4.9m/s | -41.5°C | 0% | 10.8hPa | 2.6V | 03:15:01 | 02:35:08 | 00:00:00 | |
| DL1XH-15 | 2026-09-03 00:32:49 | 52.41748 | 11.13298 | 23° | 22km/h | 30897m | 7m/s | -41.5°C | 1.9% | 10.8hPa | 2.5V | 03:14:37 | 02:35:06 | 00:00:00 | |
| HSKMA3-T | 2026-09-03 00:32:48 | 52.41753 | 11.13303 | 32° | 24km/h | 30904m | 5.5m/s | -41.5°C | 0% | 10.8hPa | 2.6V | 03:15:01 | 02:35:07 | 00:00:00 | |
| DF8AY | 2026-09-03 00:32:45 | 52.41740 | 11.13295 | 10° | 15km/h | 30885m | 5.7m/s | -41.5°C | 0% | 10.8hPa | 2.6V | 03:15:01 | 02:35:04 | 00:00:00 | |
| DL1XH-west | 2026-09-03 00:32:45 | 52.41737 | 11.13293 | 24° | 9km/h | 30879m | 5.5m/s | -41.5°C | 0% | 10.8hPa | 2.6V | 03:15:01 | 02:35:03 | 00:00:00 | |
| DO2SHX-10 | 2026-09-03 00:32:44 | 52.41736 | 11.13293 | 24° | 11km/h | 30880m | 5.5m/s | -41.4°C | 1.9% | 10.8hPa | 2.6V | 03:14:00 | 02:35:03 | 00:00:00 | |
| DL1XH-15 | 2026-09-03 00:32:43 | 52.41731 | 11.13262 | 25° | 13km/h | 30839m | 6.3m/s | -41.4°C | 1.9% | 10.9hPa | 2.5V | 03:14:47 | 02:34:56 | 00:00:00 | |
| 13BRC | 2026-09-03 00:32:42 | 52.41734 | 11.13287 | 88° | 13km/h | 30866m | 6.6m/s | -41.5°C | 0.1% | 10.8hPa | 2.6V | 03:15:00 | 00:00:00 | 00:00:00 | |
| DB0DAN | 2026-09-03 00:32:40 | 52.41735 | 11.13275 | 94° | 15km/h | 30856m | 4.5m/s | -41.5°C | 0.2% | 10.84hPa | 2.6V | 00:00:00 | 00:00:00 | 00:00:00 | |
| DL1XH1-15 | 2026-09-03 00:32:39 | 52.41733 | 11.13265 | 59° | 11km/h | 30845m | 6.6m/s | -41.4°C | 1.9% | 10.9hPa | 2.6V | 03:14:46 | 02:34:57 | 00:00:00 | |
| HSKMA3-T | 2026-09-03 00:32:38 | 52.41733 | 11.13265 | 60° | 11km/h | 30845m | 6.6m/s | -41.4°C | 0% | 10.9hPa | 2.6V | 03:15:01 | 02:34:57 | 00:00:00 | |
| DF8AY | 2026-09-03 00:32:35 | 52.41717 | 11.13256 | 19° | 24km/h | 30822m | 4.9m/s | -41.4°C | 0% | 10.9hPa | 2.6V | 03:15:01 | 02:34:53 | 00:00:00 | |
| DM0DOS-11 | 2026-09-03 00:32:34 | 52.41711 | 11.13252 | 32° | 24km/h | 30816m | 6.6m/s | -41.5°C | 1.9% | 10.9hPa | 2.6V | 03:14:51 | 02:34:52 | 00:00:00 | |
| DL1XH-west | 2026-09-03 00:32:34 | 52.41711 | 11.13252 | 32° | 24km/h | 30816m | 6.6m/s | -41.5°C | 0% | 10.9hPa | 2.6V | 03:15:01 | 02:34:52 | 00:00:00 | |
| TFSTFS | 2026-09-03 00:32:33 | 52.41716 | 11.13256 | 20° | 24km/h | 30822m | 4.9m/s | -41.4°C | 0.2% | 10.9hPa | 2.6V | 00:00:00 | 00:00:00 | 00:00:00 | |
| DL1XH-15 | 2026-09-03 00:32:32 | 52.41709 | 11.13210 | 143° | 11km/h | 30781m | 5.7m/s | -41.7°C | 1.9% | 11hPa | 2.6V | 03:14:57 | 02:34:46 | 00:00:00 | |
| DO2SHX-10 | 2026-09-03 00:32:32 | 52.41707 | 11.13245 | 49° | 22km/h | 30810m | 6.5m/s | -41.4°C | 1.9% | 10.9hPa | 2.5V | 03:14:00 | 02:34:51 | 00:00:00 | |
| TFSTFS | 2026-09-03 00:32:31 | 52.41707 | 11.13246 | 49° | 22km/h | 30810m | 6.6m/s | -41.5°C | 0.1% | 10.9hPa | 2.5V | 00:00:00 | 00:00:00 | 00:00:00 | |
| DL1NUX | 2026-09-03 00:32:30 | 52.41705 | 11.13221 | 111° | 20km/h | 30791m | 4.9m/s | -41.6°C | 1.9% | 10.9hPa | 2.5V | 03:14:55 | 02:34:48 | 00:00:00 | |
| HSKMA3-T | 2026-09-03 00:32:28 | 52.41707 | 11.13214 | 127° | 16km/h | 30786m | 5m/s | -41.6°C | 0% | 11hPa | 2.6V | 03:15:01 | 02:34:47 | 00:00:00 | |
| AA1-15 | 2026-09-03 00:32:27 | 52.41709 | 11.13210 | 144° | 11km/h | 30781m | 5.7m/s | -41.7°C | 0% | 11hPa | 2.6V | 03:15:01 | 02:34:46 | 00:00:00 | |
| DF8AY | 2026-09-03 00:32:25 | 52.41709 | 11.13215 | 314° | 15km/h | 30763m | 4.9m/s | -41.8°C | 0% | 11hPa | 2.5V | 03:15:01 | 02:34:43 | 00:00:00 | |
| DL1XH-west | 2026-09-03 00:32:23 | 52.41706 | 11.13219 | 336° | 18km/h | 30758m | 4.3m/s | -41.9°C | 0% | 11.1hPa | 2.5V | 03:15:01 | 02:34:42 | 00:00:00 | |
| DL1XH1-15 | 2026-09-03 00:32:23 | 52.41691 | 11.13196 | 101° | 27km/h | 30730m | 6m/s | -42.1°C | 2% | 11.1hPa | 2.6V | 03:15:06 | 02:34:37 | 00:00:00 | |
| AU51GT2 | 2026-09-03 00:32:23 | 52.41702 | 11.13220 | 355° | 18km/h | 30754m | 4.3m/s | -41.9°C | 0.2% | 11.0hPa | 2.5V | 00:00:00 | 00:00:00 | 00:00:00 | |
| SONDE2-11 | 2026-09-03 00:32:22 | 52.41702 | 11.13220 | 355° | 18km/h | 30754m | 4.3m/s | -41.9°C | 0.2% | 11.0hPa | 2.5V | 00:00:00 | 00:00:00 | 00:00:00 | |
| DL4XJ-10 | 2026-09-03 00:32:21 | 52.41697 | 11.13219 | 24° | 18km/h | 30749m | 5.2m/s | -41.8°C | 0% | 0hPa | 2.5V | 00:00:00 | 00:00:00 | 00:00:00 | |
| DL1NUX | 2026-09-03 00:32:20 | 52.41691 | 11.13206 | 78° | 24km/h | 30737m | 6.6m/s | -42.1°C | 1.9% | 11.1hPa | 2.5V | 03:15:05 | 02:34:38 | 00:00:00 | |
| HSKMA3-T | 2026-09-03 00:32:18 | 52.41691 | 11.13196 | 102° | 27km/h | 30731m | 6m/s | -42.1°C | 0% | 11.1hPa | 2.6V | 03:15:52 | 02:34:37 | 00:00:00 | |
| AA1-15 | 2026-09-03 00:32:16 | 52.41697 | 11.13178 | 136° | 22km/h | 30720m | 4.9m/s | -42.2°C | 0% | 11.1hPa | 2.5V | 03:15:52 | 02:34:35 | 00:00:00 | |
| DF8AY | 2026-09-03 00:32:14 | 52.41704 | 11.13173 | 200° | 11km/h | 30709m | 5.4m/s | -42.3°C | 0% | 11.1hPa | 2.5V | 03:15:52 | 02:34:33 | 00:00:00 | |
| DL1XH-west | 2026-09-03 00:32:13 | 52.41706 | 11.13182 | 287° | 16km/h | 30697m | 6.3m/s | -42.3°C | 0% | 11.1hPa | 2.6V | 03:15:52 | 02:34:31 | 00:00:00 | |
| TFSTFS | 2026-09-03 00:32:12 | 52.41705 | 11.13177 | 253° | 13km/h | 30704m | 6.0m/s | -42.3°C | 0.1% | 11.1hPa | 2.5V | 00:00:00 | 00:00:00 | 00:00:00 | |
| TFSTFS | 2026-09-03 00:32:11 | 52.41706 | 11.13182 | 288° | 16km/h | 30698m | 6.3m/s | -42.3°C | 0.2% | 11.1hPa | 2.5V | 03:15:00 | 00:00:00 | 00:00:00 | |
| DL1NUX | 2026-09-03 00:32:10 | 52.41697 | 11.13195 | 346° | 13km/h | 30681m | 5m/s | -42.4°C | 2% | 11.1hPa | 2.5V | 03:15:15 | 02:34:28 | 00:00:00 | |
| DB0DAN | 2026-09-03 00:32:10 | 52.41701 | 11.13193 | 329° | 16km/h | 30686m | 5.4m/s | -42.4°C | 0.1% | 11.11hPa | 2.5V | 00:00:00 | 00:00:00 | 00:00:00 | |
| HSKMA3-T | 2026-09-03 00:32:07 | 52.41694 | 11.13192 | 91° | 9km/h | 30670m | 6.2m/s | -42.5°C | 0% | 11.2hPa | 2.6V | 03:15:52 | 02:34:26 | 00:00:00 | |
| AA1-15 | 2026-09-03 00:32:06 | 52.41698 | 11.13182 | 135° | 20km/h | 30657m | 5.9m/s | -42.6°C | 0% | 11.2hPa | 2.6V | 03:15:52 | 02:34:24 | 00:00:00 | |
| DF8AY | 2026-09-03 00:32:04 | 52.41702 | 11.13177 | 147° | 20km/h | 30652m | 4.9m/s | -42.6°C | 0% | 11.2hPa | 2.5V | 03:15:52 | 02:34:23 | 00:00:00 | |
| GOEST3-10 | 2026-09-03 00:32:04 | 52.41701 | 11.13177 | 147° | 9km/h | 30652m | 4.9m/s | -42.6°C | 2.0% | 11.1hPa | 2.5V | 00:00:00 | 00:00:00 | 00:00:00 | |
| DL1XH-15 | 2026-09-03 00:32:03 | 52.41703 | 11.13169 | 29° | 15km/h | 30612m | 5m/s | -42.6°C | 2% | 11.2hPa | 2.5V | 03:15:27 | 02:34:16 | 00:00:00 | |
| DL1XH-west | 2026-09-03 00:32:01 | 52.41710 | 11.13172 | 169° | 2km/h | 30635m | 5.5m/s | -42.6°C | 0% | 11.2hPa | 2.6V | 03:15:52 | 02:34:20 | 00:00:00 | |
| DL4XJ-10 | 2026-09-03 00:32:01 | 52.41710 | 11.13172 | 170° | 13km/h | 30636m | 5.5m/s | -42.4°C | 0% | 0hPa | 2.6V | 00:00:00 | 00:00:00 | 00:00:00 | |
| DL1NUX | 2026-09-03 00:32:00 | 52.41708 | 11.13172 | 11° | 9km/h | 30624m | 6.6m/s | -42.6°C | 2% | 11.3hPa | 2.6V | 03:15:25 | 02:34:18 | 00:00:00 | |
| HSKMA3-T | 2026-09-03 00:31:57 | 52.41703 | 11.13168 | 30° | 15km/h | 30612m | 5m/s | -42.6°C | 0% | 11.2hPa | 2.5V | 03:15:52 | 02:34:16 | 00:00:00 | |
| AA1-15 | 2026-09-03 00:31:55 | 52.41699 | 11.13163 | 67° | 5km/h | 30601m | 5.7m/s | -42.7°C | 0% | 11.3hPa | 2.6V | 03:15:52 | 02:34:14 | 00:00:00 | |
| DB0DAN | 2026-09-03 00:31:55 | 52.41699 | 11.13163 | 67° | 5km/h | 30601m | 5.7m/s | -42.7°C | 0.1% | 11.3hPa | 2.6V | 00:00:00 | 00:00:00 | 00:00:00 | |
| DO3MHA-11 | 2026-09-03 00:31:55 | 52.41699 | 11.13163 | 67° | 16km/h | 30602m | 5.7m/s | -42.6°C | 2.0% | 11.3hPa | 2.5V | 00:00:00 | 02:34:14 | 00:00:00 | |
| DM0DOS-11 | 2026-09-03 00:31:54 | 52.41700 | 11.13159 | 153° | 11km/h | 30589m | 5.7m/s | -42.8°C | 2% | 11.3hPa | 2.5V | 03:15:31 | 02:34:12 | 00:00:00 | |
| DF8AY | 2026-09-03 00:31:54 | 52.41704 | 11.13156 | 150° | 16km/h | 30583m | 5.3m/s | -42.8°C | 0% | 11.3hPa | 2.5V | 03:15:52 | 02:34:11 | 00:00:00 | |
| DO2SHX-10 | 2026-09-03 00:31:53 | 52.41701 | 11.13159 | 154° | 16km/h | 30589m | 5.7m/s | -42.7°C | 2.0% | 11.3hPa | 2.5V | 00:00:00 | 02:34:12 | 00:00:00 | |
| DL1XH-15 | 2026-09-03 00:31:52 | 52.41715 | 11.13122 | 84° | 18km/h | 30555m | 5.2m/s | -43°C | 2.1% | 11.3hPa | 2.5V | 03:15:37 | 02:34:06 | 00:00:00 | |
| DL1XH-west | 2026-09-03 00:31:51 | 52.41707 | 11.13152 | 139° | 20km/h | 30578m | 5.8m/s | -42.8°C | 0% | 11.3hPa | 2.6V | 03:15:52 | 02:34:10 | 00:00:00 | |
| SONDE2-11 | 2026-09-03 00:31:51 | 52.41707 | 11.13152 | 138° | 18km/h | 30578m | 5.8m/s | -42.8°C | 0.2% | 11.3hPa | 2.5V | 00:00:00 | 00:00:00 | 00:00:00 | |
| DL1NUX | 2026-09-03 00:31:50 | 52.41713 | 11.13138 | 110° | 22km/h | 30566m | 5.5m/s | -42.9°C | 2% | 11.3hPa | 2.5V | 03:15:35 | 02:34:08 | 00:00:00 | |
| DO2SHX-10 | 2026-09-03 00:31:50 | 52.41711 | 11.13145 | 127° | 22km/h | 30572m | 6.5m/s | -42.8°C | 2.0% | 11.3hPa | 2.6V | 00:00:00 | 02:34:09 | 00:00:00 | |
| DM0DOS-11 | 2026-09-03 00:31:48 | 52.41703 | 11.13103 | 26° | 16km/h | 30526m | 6m/s | -43.2°C | 2.1% | 11.4hPa | 2.5V | 03:15:42 | 02:34:01 | 00:00:00 | |
| HSKMA3-T | 2026-09-03 00:31:47 | 52.41715 | 11.13122 | 85° | 18km/h | 30555m | 5.2m/s | -43°C | 0% | 11.3hPa | 2.5V | 03:15:52 | 02:34:06 | 00:00:00 | |
| AA1-15 | 2026-09-03 00:31:45 | 52.41710 | 11.13108 | 26° | 13km/h | 30537m | 5.2m/s | -43.1°C | 0% | 11.4hPa | 2.6V | 03:15:52 | 02:34:03 | 00:00:00 | |
| DF8AY | 2026-09-03 00:31:43 | 52.41703 | 11.13103 | 26° | 16km/h | 30526m | 6m/s | -43.2°C | 0% | 11.4hPa | 2.5V | 03:15:52 | 02:34:01 | 00:00:00 | |
| DL1XH-west | 2026-09-03 00:31:41 | 52.41696 | 11.13094 | 47° | 18km/h | 30514m | 5.1m/s | -43.2°C | 0% | 11.4hPa | 2.6V | 03:15:52 | 02:33:59 | 00:00:00 | |
| DO2SHX-10 | 2026-09-03 00:31:41 | 52.41699 | 11.13099 | 35° | 16km/h | 30520m | 6.0m/s | -43.1°C | 2.1% | 11.4hPa | 2.5V | 00:00:00 | 02:34:00 | 00:00:00 | |
| DL1NUX | 2026-09-03 00:31:40 | 52.41693 | 11.13089 | 50° | 15km/h | 30509m | 4.3m/s | -43.2°C | 2.1% | 11.5hPa | 2.6V | 03:15:45 | 02:33:58 | 00:00:00 | |
| DL1XH1-15 | 2026-09-03 00:31:40 | 52.41691 | 11.13085 | 66° | 11km/h | 30504m | 5.3m/s | -43.2°C | 2.1% | 11.5hPa | 2.6V | 03:15:46 | 02:33:57 | 00:00:00 | |
| DB0DAN | 2026-09-03 00:31:40 | 52.41696 | 11.13094 | 47° | 16km/h | 30514m | 5.1m/s | -43.2°C | 0.2% | 11.41hPa | 2.6V | 00:00:00 | 00:00:00 | 00:00:00 | |
| HSKMA3-T | 2026-09-03 00:31:36 | 52.41692 | 11.13080 | 165° | 5km/h | 30492m | 6.4m/s | -43.2°C | 0% | 11.5hPa | 2.5V | 03:15:52 | 02:33:55 | 00:00:00 | |
| DM0DOS-11 | 2026-09-03 00:31:36 | 52.41698 | 11.13077 | 133° | 9km/h | 30475m | 5.9m/s | -43.2°C | 2% | 11.5hPa | 2.6V | 03:15:51 | 02:33:52 | 00:00:00 | |
| AA1-15 | 2026-09-03 00:31:34 | 52.41696 | 11.13079 | 162° | 9km/h | 30481m | 4.6m/s | -43.2°C | 0% | 11.5hPa | 2.6V | 03:15:52 | 02:33:53 | 00:00:00 | |
| AP2371 | 2026-09-03 00:31:34 | 52.41696 | 11.13079 | 163° | 9km/h | 30481m | 4.6m/s | -43.2°C | 0.2% | 11.5hPa | 2.5V | 03:15:00 | 00:00:00 | 00:00:00 | |
| SMARD9-10 | 2026-09-03 00:31:33 | 52.41698 | 11.13077 | 135° | 9km/h | 30476m | 5.9m/s | -43.2°C | 0.2% | 11.5hPa | 2.5V | 03:15:00 | 00:00:00 | 00:00:00 | |
| DL1XH-15 | 2026-09-03 00:31:32 | 52.41693 | 11.13046 | 10° | 9km/h | 30442m | 6.4m/s | -43.5°C | 2.1% | 11.6hPa | 2.5V | 03:15:57 | 02:33:46 | 00:00:00 | |
| DF8AY | 2026-09-03 00:31:32 | 52.41699 | 11.13073 | 108° | 13km/h | 30470m | 6.3m/s | -43.3°C | 0% | 11.5hPa | 2.5V | 03:15:52 | 02:33:51 | 00:00:00 | |
| DO2SHX-10 | 2026-09-03 00:31:32 | 52.41699 | 11.13073 | 109° | 16km/h | 30470m | 6.2m/s | -43.2°C | 2.1% | 11.5hPa | 2.5V | 03:15:00 | 02:33:51 | 00:00:00 | |
| DF7PN | 2026-09-03 00:31:31 | 52.41699 | 11.13067 | 89° | 16km/h | 30464m | 5.2m/s | -43.3°C | 0.2% | 11.6hPa | 2.5V | 00:00:00 | 00:00:00 | 00:00:00 | |
| DL1XH1-15 | 2026-09-03 00:31:30 | 52.41695 | 11.13048 | 49° | 13km/h | 30448m | 6.5m/s | -43.4°C | 2.1% | 11.6hPa | 2.5V | 03:15:56 | 02:33:47 | 00:00:00 | |
| DL1XH-west | 2026-09-03 00:31:29 | 52.41697 | 11.13053 | 66° | 16km/h | 30454m | 5.1m/s | -43.4°C | 0% | 11.6hPa | 2.6V | 03:16:43 | 02:33:48 | 00:00:00 | |
| HSKMA3-T | 2026-09-03 00:31:26 | 52.41690 | 11.13049 | 308° | 9km/h | 30430m | 5.7m/s | -43.5°C | 0% | 11.6hPa | 2.6V | 03:16:43 | 02:33:44 | 00:00:00 | |
| DB0DAN | 2026-09-03 00:31:25 | 52.41690 | 11.13049 | 308° | 9km/h | 30430m | 5.7m/s | -43.5°C | 0.2% | 11.62hPa | 2.6V | 00:00:00 | 00:00:00 | 00:00:00 | |
| DM0DOS-11 | 2026-09-03 00:31:25 | 52.41687 | 11.13054 | 303° | 5km/h | 30419m | 6.6m/s | -43.6°C | 2.1% | 11.6hPa | 2.6V | 03:16:01 | 02:33:42 | 00:00:00 | |
| AA1-15 | 2026-09-03 00:31:24 | 52.41688 | 11.13052 | 302° | 9km/h | 30425m | 5m/s | -43.6°C | 0% | 11.6hPa | 2.6V | 03:16:43 | 02:33:43 | 00:00:00 | |
| DF8AY | 2026-09-03 00:31:21 | 52.41686 | 11.13056 | 48° | 2km/h | 30406m | 5.7m/s | -43.6°C | 0% | 11.7hPa | 2.5V | 03:16:43 | 02:33:40 | 00:00:00 | |
| AU51GT2 | 2026-09-03 00:31:21 | 52.41687 | 11.13055 | 134° | 2km/h | 30401m | 5.3m/s | -43.7°C | 0.2% | 11.6hPa | 2.6V | 00:00:00 | 00:00:00 | 00:00:00 | |
| DO2SHX-10 | 2026-09-03 00:31:20 | 52.41687 | 11.13055 | 135° | 4km/h | 30401m | 5.3m/s | -43.6°C | 2.1% | 11.6hPa | 2.6V | 03:16:00 | 02:33:39 | 00:00:00 | |
| DL1XH-15 | 2026-09-03 00:31:19 | 52.41690 | 11.13056 | 204° | 7km/h | 30383m | 4.9m/s | -43.7°C | 2.1% | 11.7hPa | 2.6V | 03:16:07 | 02:33:36 | 00:00:00 | |
| DL1XH-west | 2026-09-03 00:31:18 | 52.41688 | 11.13055 | 202° | 5km/h | 30389m | 6.3m/s | -43.7°C | 0% | 11.7hPa | 2.6V | 03:16:43 | 02:33:37 | 00:00:00 | |
| HSKMA3-T | 2026-09-03 00:31:14 | 52.41693 | 11.13054 | 90° | 7km/h | 30368m | 6.7m/s | -43.8°C | 0% | 11.7hPa | 2.5V | 03:16:43 | 02:33:33 | 00:00:00 | |
| AA1-15 | 2026-09-03 00:31:14 | 52.41692 | 11.13050 | 77° | 13km/h | 30361m | 6.2m/s | -43.8°C | 0% | 11.7hPa | 2.6V | 03:16:43 | 02:33:32 | 00:00:00 | |
| DO2SHX-10 | 2026-09-03 00:31:14 | 52.41692 | 11.13054 | 90° | 11km/h | 30368m | 6.7m/s | -43.7°C | 2.1% | 11.6hPa | 2.5V | 00:00:00 | 02:33:33 | 00:00:00 | |
| GOEST3-10 | 2026-09-03 00:31:13 | 52.41692 | 11.13050 | 77° | 9km/h | 30362m | 6.1m/s | -43.7°C | 2.2% | 11.6hPa | 2.5V | 03:16:00 | 00:00:00 | 00:00:00 | |
| DL1XH-15 | 2026-09-03 00:31:12 | 52.41690 | 11.13037 | 233° | 7km/h | 30329m | 4.4m/s | -43.8°C | 2.2% | 11.8hPa | 2.5V | 03:16:17 | 02:33:26 | 00:00:00 | |
| DB0DAN | 2026-09-03 00:31:10 | 52.41689 | 11.13036 | 70° | 7km/h | 30346m | 6.1m/s | -43.8°C | 0.2% | 11.74hPa | 2.5V | 00:00:00 | 00:00:00 | 00:00:00 | |
| DF8AY | 2026-09-03 00:31:09 | 52.41689 | 11.13034 | 90° | 2km/h | 30339m | 6.3m/s | -43.7°C | 0% | 11.8hPa | 2.6V | 03:16:43 | 02:33:28 | 00:00:00 | |
| DL1XH-west | 2026-09-03 00:31:08 | 52.41689 | 11.13035 | 246° | 5km/h | 30334m | 5.3m/s | -43.7°C | 0% | 11.8hPa | 2.6V | 03:16:43 | 02:33:27 | 00:00:00 | |
| HSKMA3-T | 2026-09-03 00:31:03 | 52.41695 | 11.13041 | 134° | 7km/h | 30307m | 5.5m/s | -43.7°C | 0% | 11.8hPa | 2.6V | 03:16:43 | 02:33:22 | 00:00:00 | |
| AA1-15 | 2026-09-03 00:31:03 | 52.41696 | 11.13039 | 128° | 9km/h | 30302m | 4.7m/s | -43.8°C | 0% | 11.8hPa | 2.6V | 03:16:43 | 02:33:21 | 00:00:00 | |
| GOEST3-10 | 2026-09-03 00:31:03 | 52.41695 | 11.13041 | 135° | 5km/h | 30308m | 5.5m/s | -43.7°C | 2.1% | 11.8hPa | 2.5V | 00:00:00 | 00:00:00 | 00:00:00 | |
| DO2SHX-10 | 2026-09-03 00:31:02 | 52.41696 | 11.13039 | 128° | 7km/h | 30303m | 4.7m/s | -43.7°C | 2.1% | 11.8hPa | 2.5V | 00:00:00 | 02:33:21 | 00:00:00 | |
| DL1NUX | 2026-09-03 00:31:00 | 52.41700 | 11.13036 | 219° | 5km/h | 30287m | 6.1m/s | -43.9°C | 2.1% | 11.8hPa | 2.5V | 03:16:25 | 02:33:18 | 00:00:00 | |
| DF8AY | 2026-09-03 00:30:59 | 52.41700 | 11.13038 | 258° | 9km/h | 30281m | 6m/s | -43.9°C | 0% | 11.9hPa | 2.6V | 03:16:43 | 02:33:17 | 00:00:00 | |
| DL1XH-15 | 2026-09-03 00:30:59 | 52.41700 | 11.13042 | 280° | 11km/h | 30275m | 5.5m/s | -43.9°C | 2.2% | 11.8hPa | 2.6V | 03:16:27 | 02:33:16 | 00:00:00 | |
| DL1XH-west | 2026-09-03 00:30:57 | 52.41701 | 11.13042 | 280° | 11km/h | 30275m | 5.5m/s | -43.9°C | 0% | 11.8hPa | 2.6V | 03:16:43 | 02:33:16 | 00:00:00 | |
| SP3WXH-11 | 2026-09-03 00:30:57 | 52.41699 | 11.13047 | 300° | 11km/h | 30270m | 5.9m/s | -43.9°C | 0.2% | 11.9hPa | 2.5V | 00:00:00 | 00:00:00 | 00:00:00 | |
| HTAHTA | 2026-09-03 00:30:56 | 52.41699 | 11.13047 | 300° | 11km/h | 30270m | 5.9m/s | -43.9°C | 0.2% | 11.9hPa | 2.5V | 00:00:00 | 00:00:00 | 00:00:00 | |
| DB0DAN | 2026-09-03 00:30:55 | 52.41697 | 11.13051 | 319° | 13km/h | 30263m | 6.8m/s | -44°C | 0.2% | 11.88hPa | 2.5V | 00:00:00 | 00:00:00 | 00:00:00 | |
| DL1XH1-15 | 2026-09-03 00:30:53 | 52.41700 | 11.13055 | 174° | 22km/h | 30222m | 5.3m/s | -44.1°C | 2.3% | 12hPa | 2.6V | 03:16:36 | 02:33:07 | 00:00:00 | |
| HSKMA3-T | 2026-09-03 00:30:53 | 52.41692 | 11.13056 | 347° | 11km/h | 30252m | 4.2m/s | -44°C | 0% | 11.9hPa | 2.5V | 03:16:43 | 02:33:12 | 00:00:00 | |
| AA1-15 | 2026-09-03 00:30:52 | 52.41690 | 11.13056 | 5° | 5km/h | 30247m | 4.3m/s | -44°C | 0% | 11.9hPa | 2.6V | 03:16:43 | 02:33:11 | 00:00:00 | |
| EDDB2-12 | 2026-09-03 00:30:52 | 52.41690 | 11.13056 | 4° | 4km/h | 30247m | 4.3m/s | -44.0°C | 0.2% | 11.9hPa | 2.5V | 00:00:00 | 00:00:00 | 00:00:00 | |
| DL1NUX | 2026-09-03 00:30:50 | 52.41695 | 11.13056 | 177° | 18km/h | 30228m | 6.4m/s | -44.1°C | 2.2% | 11.9hPa | 2.5V | 03:16:35 | 02:33:08 | 00:00:00 | |
| SONDE2-11 | 2026-09-03 00:30:49 | 52.41695 | 11.13056 | 177° | 18km/h | 30228m | 6.4m/s | -44.1°C | 0.2% | 11.9hPa | 2.6V | 00:00:00 | 00:00:00 | 00:00:00 | |
| HARRO8 | 2026-09-03 00:30:48 | 52.41700 | 11.13055 | 174° | 22km/h | 30222m | 5.3m/s | -44.2°C | 0.3% | 12.0hPa | 2.6V | 00:00:00 | 00:00:00 | 00:00:00 | |
| BUE01 | 2026-09-03 00:30:47 | 52.41706 | 11.13054 | 171° | 20km/h | 30218m | 4.8m/s | -44.1°C | 0.2% | 12.0hPa | 2.6V | 00:00:00 | 00:00:00 | 00:00:00 | |
| DL1XH-west | 2026-09-03 00:30:47 | 52.41706 | 11.13054 | 171° | 20km/h | 30218m | 4.8m/s | -44.1°C | 0% | 12hPa | 2.6V | 03:16:43 | 02:33:06 | 00:00:00 | |
| AA1-15 | 2026-09-03 00:30:42 | 52.41713 | 11.13050 | 326° | 5km/h | 30190m | 5.8m/s | -44.1°C | 0% | 12hPa | 2.6V | 03:16:43 | 02:33:01 | 00:00:00 | |
| DO2SHX-10 | 2026-09-03 00:30:41 | 52.41712 | 11.13052 | 290° | 7km/h | 30184m | 5.7m/s | -44.0°C | 2.2% | 12.0hPa | 2.5V | 00:00:00 | 02:33:00 | 00:00:00 | |
| DL1NUX | 2026-09-03 00:30:40 | 52.41713 | 11.13057 | 217° | 7km/h | 30174m | 4.8m/s | -44°C | 2.2% | 12.1hPa | 2.5V | 03:16:45 | 02:32:58 | 00:00:00 | |
| DB0DAN | 2026-09-03 00:30:40 | 52.41713 | 11.13055 | 256° | 7km/h | 30179m | 4.9m/s | -44.1°C | 0.2% | 12.02hPa | 2.5V | 00:00:00 | 00:00:00 | 00:00:00 | |
| DL1XH1-15 | 2026-09-03 00:30:39 | 52.41715 | 11.13058 | 183° | 7km/h | 30168m | 5.4m/s | -44°C | 2.1% | 12.1hPa | 2.5V | 03:16:46 | 02:32:57 | 00:00:00 | |
| DL1XH-west | 2026-09-03 00:30:37 | 52.41718 | 11.13058 | 156° | 11km/h | 30163m | 6.3m/s | -44°C | 0% | 12.1hPa | 2.6V | 03:17:34 | 02:32:56 | 00:00:00 | |
| EDDB2-11 | 2026-09-03 00:30:37 | 52.41718 | 11.13058 | 156° | 11km/h | 30163m | 6.3m/s | -44.0°C | 0.2% | 12.1hPa | 2.5V | 00:00:00 | 00:00:00 | 00:00:00 | |
| DM0DOS-11 | 2026-09-03 00:30:36 | 52.41730 | 11.13045 | 165° | 16km/h | 30140m | 6.6m/s | -44.1°C | 2.2% | 12.1hPa | 2.5V | 03:16:51 | 02:32:52 | 00:00:00 | |
| DJ2DS-15 | 2026-09-03 00:30:36 | 52.41720 | 11.13055 | 141° | 15km/h | 30157m | 6.3m/s | -44.0°C | 0.2% | 12.1hPa | 2.5V | 00:00:00 | 00:00:00 | 00:00:00 | |
| SONCRA | 2026-09-03 00:30:35 | 52.41727 | 11.13047 | 151° | 16km/h | 30146m | 5.3m/s | -44.1°C | 0.2% | 12.1hPa | 2.5V | 00:00:00 | 00:00:00 | 00:00:00 | |
| DL1XH1-15 | 2026-09-03 00:30:33 | 52.41742 | 11.13052 | 321° | 4km/h | 30111m | 6.6m/s | -44.2°C | 2.2% | 12.2hPa | 2.5V | 03:16:56 | 02:32:47 | 00:00:00 | |
| GOEST3-10 | 2026-09-03 00:30:33 | 52.41730 | 11.13045 | 166° | 11km/h | 30140m | 6.5m/s | -44.1°C | 2.2% | 12.1hPa | 2.6V | 03:16:00 | 00:00:00 | 00:00:00 | |
| DL1XH-15 | 2026-09-03 00:30:32 | 52.41741 | 11.13052 | 3° | 5km/h | 30105m | 5.3m/s | -44.2°C | 2.2% | 12.1hPa | 2.6V | 03:16:57 | 02:32:46 | 00:00:00 | |
| AA1-15 | 2026-09-03 00:30:32 | 52.41740 | 11.13048 | 220° | 11km/h | 30123m | 4.9m/s | -44.2°C | 0% | 12.2hPa | 2.6V | 03:17:34 | 02:32:49 | 00:00:00 | |
| HSKMA3-T | 2026-09-03 00:30:32 | 52.41738 | 11.13046 | 205° | 13km/h | 30128m | 5.1m/s | -44.2°C | 0% | 12.1hPa | 2.6V | 03:17:34 | 02:32:50 | 00:00:00 | |
| DO2SHX-10 | 2026-09-03 00:30:32 | 52.41734 | 11.13044 | 186° | 13km/h | 30134m | 6.2m/s | -44.1°C | 2.2% | 12.0hPa | 2.5V | 03:16:00 | 02:32:51 | 00:00:00 | |
| DL1NUX | 2026-09-03 00:30:31 | 52.41742 | 11.13050 | 239° | 5km/h | 30117m | 6.1m/s | -44.2°C | 2.2% | 12.2hPa | 2.5V | 03:16:55 | 02:32:48 | 00:00:00 | |
| DL1XH-west | 2026-09-03 00:30:27 | 52.41741 | 11.13052 | 4° | 5km/h | 30105m | 5.4m/s | -44.2°C | 0% | 12.1hPa | 2.6V | 03:17:34 | 02:32:46 | 00:00:00 | |
| DB0DAN | 2026-09-03 00:30:25 | 52.41737 | 11.13051 | 11° | 7km/h | 30095m | 5.1m/s | -44.2°C | 0.2% | 12.18hPa | 2.5V | 00:00:00 | 00:00:00 | 00:00:00 | |
| DM0DOS-11 | 2026-09-03 00:30:24 | 52.41736 | 11.13051 | 206° | 4km/h | 30083m | 6.2m/s | -44.2°C | 2.2% | 12.2hPa | 2.5V | 03:17:01 | 02:32:42 | 00:00:00 | |
| DL1XH1-15 | 2026-09-03 00:30:23 | 52.41750 | 11.13046 | 132° | 13km/h | 30054m | 5.9m/s | -44.4°C | 2.2% | 12.3hPa | 2.5V | 03:17:06 | 02:32:37 | 00:00:00 | |
| HSKMA3-T | 2026-09-03 00:30:21 | 52.41741 | 11.13053 | 182° | 13km/h | 30072m | 5.5m/s | -44.3°C | 0% | 12.2hPa | 2.6V | 03:17:34 | 02:32:40 | 00:00:00 | |
| AA1-15 | 2026-09-03 00:30:21 | 52.41747 | 11.13050 | 145° | 13km/h | 30060m | 5.7m/s | -44.3°C | 0% | 12.3hPa | 2.5V | 03:17:34 | 02:32:38 | 00:00:00 | |
| EDDB2-12 | 2026-09-03 00:30:21 | 52.41744 | 11.13052 | 168° | 13km/h | 30066m | 5.3m/s | -44.3°C | 0.2% | 12.2hPa | 2.5V | 00:00:00 | 00:00:00 | 00:00:00 | |
| DL1XH-15 | 2026-09-03 00:30:20 | 52.41752 | 11.13042 | 127° | 13km/h | 30049m | 5.3m/s | -44.4°C | 2.2% | 12.3hPa | 2.5V | 03:17:07 | 02:32:36 | 00:00:00 | |
| DO2SHX-10 | 2026-09-03 00:30:20 | 52.41744 | 11.13052 | 169° | 15km/h | 30067m | 5.3m/s | -44.3°C | 2.2% | 12.2hPa | 2.6V | 03:17:00 | 02:32:39 | 00:00:00 | |
| DM0DOS-11 | 2026-09-03 00:30:18 | 52.41759 | 11.13038 | 213° | 15km/h | 30026m | 6m/s | -44.5°C | 2.2% | 12.3hPa | 2.5V | 03:17:11 | 02:32:32 | 00:00:00 | |
| DF8AY | 2026-09-03 00:30:17 | 52.41775 | 11.13046 | 169° | 18km/h | 30004m | 6.3m/s | -44.5°C | 0% | 12.4hPa | 2.6V | 03:17:34 | 02:32:28 | 00:00:00 | |
| DL1XH-west | 2026-09-03 00:30:17 | 52.41757 | 11.13036 | 199° | 7km/h | 30032m | 6.7m/s | -44.5°C | 0% | 12.3hPa | 2.6V | 03:17:34 | 02:32:33 | 00:00:00 | |
| DJ8HS-15 | 2026-09-03 00:30:16 | 52.41754 | 11.13038 | 124° | 16km/h | 30044m | 5.3m/s | -44.4°C | 2.2% | 12.3hPa | 2.5V | 00:00:00 | 02:32:35 | 00:00:00 | |
| DF7ER-10 | 2026-09-03 00:30:15 | 52.41754 | 11.13038 | 125° | 9km/h | 30044m | 5.3m/s | -44.4°C | 0.3% | 12.3hPa | 2.5V | 03:17:00 | 00:00:00 | 00:00:00 | |
| DO2SHX-10 | 2026-09-03 00:30:14 | 52.41757 | 11.13036 | 199° | 13km/h | 30033m | 6.6m/s | -44.4°C | 2.2% | 12.2hPa | 2.5V | 00:00:00 | 02:32:33 | 00:00:00 | |
| DL1XH1-15 | 2026-09-03 00:30:13 | 52.41779 | 11.13044 | 155° | 20km/h | 29998m | 6m/s | -44.5°C | 2.2% | 12.4hPa | 2.5V | 03:17:16 | 02:32:27 | 00:00:00 | |
| DL1XH-15 | 2026-09-03 00:30:12 | 52.41784 | 11.13040 | 155° | 22km/h | 29992m | 5.5m/s | -44.5°C | 2.2% | 12.4hPa | 2.5V | 03:17:17 | 02:32:26 | 00:00:00 | |
| AA1-15 | 2026-09-03 00:30:10 | 52.41770 | 11.13046 | 190° | 16km/h | 30011m | 5.9m/s | -44.5°C | 0% | 12.4hPa | 2.6V | 03:17:34 | 02:32:29 | 00:00:00 | |
| DB0DAN | 2026-09-03 00:30:10 | 52.41770 | 11.13046 | 190° | 16km/h | 30011m | 5.9m/s | -44.5°C | 0.3% | 12.39hPa | 2.6V | 00:00:00 | 00:00:00 | 00:00:00 | |
| DL1XH-west | 2026-09-03 00:30:03 | 52.41806 | 11.13029 | 171° | 20km/h | 29969m | 4.7m/s | -44.5°C | 0% | 12.4hPa | 2.5V | 03:17:34 | 02:32:22 | 00:00:00 | |
| DL1NUX | 2026-09-03 00:30:00 | 52.41818 | 11.13020 | 133° | 13km/h | 29946m | 5.1m/s | -44.6°C | 2.3% | 12.4hPa | 2.6V | 03:17:25 | 02:32:18 | 00:00:00 | |
| HSKMA3-T | 2026-09-03 00:30:00 | 52.41816 | 11.13023 | 133° | 11km/h | 29951m | 6.1m/s | -44.6°C | 0% | 12.5hPa | 2.6V | 03:17:34 | 02:32:19 | 00:00:00 | |
| AA1-15 | 2026-09-03 00:30:00 | 52.41818 | 11.13020 | 134° | 13km/h | 29946m | 5.1m/s | -44.6°C | 0% | 12.5hPa | 2.6V | 03:17:34 | 02:32:18 | 00:00:00 | |
| DO3MHA-11 | 2026-09-03 00:30:00 | 52.41816 | 11.13023 | 134° | 22km/h | 29951m | 6.0m/s | -44.5°C | 2.3% | 12.4hPa | 2.6V | 03:17:00 | 02:32:19 | 00:00:00 | |
| DL1XH-15 | 2026-09-03 00:29:59 | 52.41824 | 11.13012 | 155° | 18km/h | 29935m | 6.2m/s | -44.5°C | 2.3% | 12.5hPa | 2.5V | 03:17:27 | 02:32:16 | 00:00:00 | |
| DF8AY | 2026-09-03 00:29:59 | 52.41821 | 11.13016 | 145° | 15km/h | 29941m | 4.9m/s | -44.5°C | 0% | 12.5hPa | 2.5V | 03:17:34 | 02:32:17 | 00:00:00 | |
| DO2SHX-10 | 2026-09-03 00:29:59 | 52.41818 | 11.13019 | 134° | 16km/h | 29946m | 5.1m/s | -44.5°C | 2.3% | 12.4hPa | 2.6V | 00:00:00 | 02:32:18 | 00:00:00 | |
| SO1NDE-10 | 2026-09-03 00:29:58 | 52.41821 | 11.13016 | 146° | 22km/h | 29941m | 4.9m/s | -44.5°C | 2.3% | 12.5hPa | 2.6V | 03:17:00 | 02:32:17 | 00:00:00 | |
| DB0DAN | 2026-09-03 00:29:55 | 52.41836 | 11.13007 | 170° | 29km/h | 29922m | 6.2m/s | -44.5°C | 0.2% | 12.51hPa | 2.6V | 00:00:00 | 00:00:00 | 00:00:00 | |
| DL1XH-west | 2026-09-03 00:29:53 | 52.41851 | 11.13002 | 162° | 31km/h | 29910m | 5.7m/s | -44.5°C | 0% | 12.5hPa | 2.6V | 03:17:34 | 02:32:12 | 00:00:00 | |
| DF8AY | 2026-09-03 00:29:53 | 52.41880 | 11.12961 | 125° | 22km/h | 29876m | 5.4m/s | -44.4°C | 0% | 12.6hPa | 2.5V | 03:18:25 | 02:32:06 | 00:00:00 | |
| DO2SHX-10 | 2026-09-03 00:29:53 | 52.41851 | 11.13002 | 162° | 29km/h | 29910m | 5.7m/s | -44.5°C | 2.3% | 12.5hPa | 2.6V | 00:00:00 | 02:32:12 | 00:00:00 | |
| DL1XH-15 | 2026-09-03 00:29:52 | 52.41880 | 11.12961 | 125° | 22km/h | 29876m | 5.4m/s | -44.4°C | 2.2% | 12.6hPa | 2.5V | 03:17:37 | 02:32:06 | 00:00:00 | |
| GOEST3-10 | 2026-09-03 00:29:52 | 52.41858 | 11.12997 | 152° | 26km/h | 29905m | 6.3m/s | -44.5°C | 2.3% | 12.5hPa | 2.6V | 00:00:00 | 02:32:11 | 00:00:00 | |
| DL1LOL-11 | 2026-09-03 00:29:51 | 52.41858 | 11.12997 | 153° | 29km/h | 29905m | 6.3m/s | -44.5°C | 0.2% | 12.6hPa | 2.6V | 03:17:00 | 00:00:00 | 00:00:00 | |
| DL1NUX | 2026-09-03 00:29:50 | 52.41873 | 11.12976 | 129° | 24km/h | 29887m | 6m/s | -44.4°C | 2.3% | 12.6hPa | 2.6V | 03:17:35 | 02:32:08 | 00:00:00 | |
| HSKMA3-T | 2026-09-03 00:29:49 | 52.41873 | 11.12976 | 130° | 24km/h | 29887m | 6m/s | -44.5°C | 0% | 12.6hPa | 2.6V | 03:18:25 | 02:32:08 | 00:00:00 | |
| AA1-15 | 2026-09-03 00:29:49 | 52.41877 | 11.12969 | 130° | 24km/h | 29882m | 6.2m/s | -44.4°C | 0% | 12.6hPa | 2.6V | 03:18:25 | 02:32:07 | 00:00:00 | |
| SONDE2-11 | 2026-09-03 00:29:47 | 52.41883 | 11.12953 | 124° | 22km/h | 29871m | 5.2m/s | -44.4°C | 0.2% | 12.6hPa | 2.6V | 00:00:00 | 00:00:00 | 00:00:00 | |
| HARRO8 | 2026-09-03 00:29:46 | 52.41886 | 11.12945 | 115° | 22km/h | 29865m | 6.1m/s | -44.4°C | 0.2% | 12.6hPa | 2.6V | 00:00:00 | 00:00:00 | 00:00:00 | |
| BUE01 | 2026-09-03 00:29:45 | 52.41886 | 11.12945 | 115° | 22km/h | 29865m | 6.1m/s | -44.4°C | 0.2% | 12.6hPa | 2.6V | 00:00:00 | 00:00:00 | 00:00:00 | |
| DO2SHX-10 | 2026-09-03 00:29:44 | 52.41888 | 11.12936 | 112° | 22km/h | 29859m | 6.8m/s | -44.3°C | 2.2% | 12.6hPa | 2.6V | 03:17:00 | 02:32:03 | 00:00:00 | |
| DL1XH1-15 | 2026-09-03 00:29:43 | 52.41912 | 11.12903 | 169° | 24km/h | 29823m | 5m/s | -44.3°C | 2.2% | 12.7hPa | 2.6V | 03:17:46 | 02:31:57 | 00:00:00 | |
| DL1XH-west | 2026-09-03 00:29:42 | 52.41893 | 11.12919 | 122° | 20km/h | 29848m | 4.4m/s | -44.3°C | 0% | 12.7hPa | 2.5V | 03:18:25 | 02:32:01 | 00:00:00 | |
| DO2SHX-10 | 2026-09-03 00:29:41 | 52.41896 | 11.12913 | 137° | 22km/h | 29843m | 6.0m/s | -44.3°C | 2.2% | 12.7hPa | 2.6V | 00:00:00 | 02:32:00 | 00:00:00 | |
| DL1NUX | 2026-09-03 00:29:40 | 52.41906 | 11.12905 | 166° | 24km/h | 29829m | 6.5m/s | -44.3°C | 2.2% | 12.8hPa | 2.6V | 03:17:45 | 02:31:58 | 00:00:00 | |
| DB0DAN | 2026-09-03 00:29:40 | 52.41901 | 11.12908 | 156° | 22km/h | 29836m | 7.2m/s | -44.3°C | 0.3% | 12.72hPa | 2.6V | 00:00:00 | 00:00:00 | 00:00:00 | |
| HSKMA3-T | 2026-09-03 00:29:39 | 52.41906 | 11.12905 | 167° | 24km/h | 29829m | 6.5m/s | -44.3°C | 0% | 12.8hPa | 2.6V | 03:18:25 | 02:31:58 | 00:00:00 | |
| AA1-15 | 2026-09-03 00:29:38 | 52.41912 | 11.12903 | 170° | 24km/h | 29823m | 5m/s | -44.3°C | 0% | 12.7hPa | 2.6V | 03:18:25 | 02:31:57 | 00:00:00 | |
| DF8AY | 2026-09-03 00:29:37 | 52.41917 | 11.12901 | 168° | 22km/h | 29818m | 5.4m/s | -44.3°C | 0% | 12.8hPa | 2.5V | 03:18:25 | 02:31:56 | 00:00:00 | |
| EDDB2-11 | 2026-09-03 00:29:36 | 52.41925 | 11.12895 | 136° | 15km/h | 29806m | 5.9m/s | -44.3°C | 0.2% | 12.8hPa | 2.5V | 00:00:00 | 00:00:00 | 00:00:00 | |
| DO2SHX-10 | 2026-09-03 00:29:35 | 52.41925 | 11.12895 | 137° | 15km/h | 29806m | 5.8m/s | -44.3°C | 2.2% | 12.7hPa | 2.5V | 00:00:00 | 02:31:54 | 00:00:00 | |
| 13BRC | 2026-09-03 00:29:34 | 52.41925 | 11.12895 | 138° | 15km/h | 29806m | 5.9m/s | -44.3°C | 0.2% | 12.8hPa | 2.6V | 03:18:00 | 00:00:00 | 00:00:00 | |
| DL1XH1-15 | 2026-09-03 00:29:33 | 52.41938 | 11.12852 | 106° | 18km/h | 29765m | 6.7m/s | -44.4°C | 2.2% | 12.8hPa | 2.6V | 03:17:56 | 02:31:47 | 00:00:00 | |
| DL1XH-west | 2026-09-03 00:29:32 | 52.41931 | 11.12879 | 118° | 16km/h | 29788m | 6.7m/s | -44.4°C | 0% | 12.8hPa | 2.6V | 03:18:25 | 02:31:51 | 00:00:00 | |
| DO2SHX-10 | 2026-09-03 00:29:32 | 52.41931 | 11.12879 | 119° | 18km/h | 29788m | 6.7m/s | -44.3°C | 2.3% | 12.8hPa | 2.5V | 03:17:00 | 02:31:51 | 00:00:00 | |
| DL1NUX | 2026-09-03 00:29:30 | 52.41937 | 11.12859 | 110° | 18km/h | 29771m | 5.8m/s | -44.4°C | 2.2% | 12.8hPa | 2.5V | 03:17:55 | 02:31:48 | 00:00:00 | |
| HSKMA3-T | 2026-09-03 00:29:28 | 52.41938 | 11.12852 | 107° | 18km/h | 29765m | 6.7m/s | -44.4°C | 0% | 12.8hPa | 2.6V | 03:18:25 | 02:31:47 | 00:00:00 | |
| DF8AY | 2026-09-03 00:29:27 | 52.41940 | 11.12845 | 109° | 18km/h | 29759m | 5.4m/s | -44.4°C | 0% | 12.8hPa | 2.6V | 03:18:25 | 02:31:46 | 00:00:00 | |
| DB0DAN | 2026-09-03 00:29:25 | 52.41944 | 11.12834 | 143° | 16km/h | 29749m | 5.2m/s | -44.4°C | 0.2% | 12.85hPa | 2.5V | 00:00:00 | 00:00:00 | 00:00:00 | |
| SP3WXH-11 | 2026-09-03 00:29:24 | 52.41953 | 11.12829 | 172° | 22km/h | 29737m | 6.3m/s | -44.4°C | 0.2% | 12.8hPa | 2.6V | 00:00:00 | 00:00:00 | 00:00:00 | |
| DL1XH1-15 | 2026-09-03 00:29:23 | 52.41972 | 11.12812 | 83° | 18km/h | 29708m | 5.8m/s | -44.4°C | 2.2% | 13hPa | 2.6V | 03:18:06 | 02:31:37 | 00:00:00 | |
| DL1XH-west | 2026-09-03 00:29:21 | 52.41965 | 11.12826 | 167° | 20km/h | 29726m | 4.8m/s | -44.4°C | 0% | 12.9hPa | 2.5V | 03:18:25 | 02:31:40 | 00:00:00 | |
| DL1NUX | 2026-09-03 00:29:20 | 52.41972 | 11.12819 | 115° | 16km/h | 29714m | 6.6m/s | -44.4°C | 2.2% | 12.9hPa | 2.6V | 03:18:05 | 02:31:38 | 00:00:00 | |
| DO2SHX-10 | 2026-09-03 00:29:20 | 52.41969 | 11.12823 | 149° | 16km/h | 29721m | 5.6m/s | -44.4°C | 2.2% | 12.9hPa | 2.6V | 03:18:00 | 02:31:39 | 00:00:00 | |
| EDDB2-12 | 2026-09-03 00:29:19 | 52.41972 | 11.12812 | 83° | 18km/h | 29708m | 5.8m/s | -44.4°C | 0.2% | 13.0hPa | 2.6V | 00:00:00 | 00:00:00 | 00:00:00 | |
| DM0DOS-11 | 2026-09-03 00:29:18 | 52.41961 | 11.12788 | 351° | 7km/h | 29679m | 5.6m/s | -44.4°C | 2.2% | 13hPa | 2.6V | 03:18:11 | 02:31:32 | 00:00:00 | |
| HSKMA3-T | 2026-09-03 00:29:18 | 52.41972 | 11.12812 | 84° | 18km/h | 29708m | 5.8m/s | -44.4°C | 0% | 13hPa | 2.6V | 03:18:25 | 02:31:37 | 00:00:00 | |
| AA1-15 | 2026-09-03 00:29:18 | 52.41971 | 11.12804 | 66° | 20km/h | 29702m | 5.1m/s | -44.4°C | 0% | 12.9hPa | 2.6V | 03:18:25 | 02:31:36 | 00:00:00 | |
| DF8AY | 2026-09-03 00:29:16 | 52.41959 | 11.12791 | 162° | 2km/h | 29663m | 6.4m/s | -44.4°C | 0% | 13hPa | 2.5V | 03:18:25 | 02:31:29 | 00:00:00 | |
| 13BRC | 2026-09-03 00:29:14 | 52.41962 | 11.12789 | 21° | 11km/h | 29685m | 6.0m/s | -44.4°C | 0.2% | 13.0hPa | 2.5V | 03:18:00 | 00:00:00 | 00:00:00 | |
| Es werden nur die letzten 3500 von 8655 Frames angezeigt. GPX/KML und Diagramme bleiben verfügbar. | |||||||||||||||